<?xml version='1.0' encoding='UTF-8'?><gpx version="1.1" creator="JPX - https://github.com/jenetics/jpx" xmlns="http://www.topografix.com/GPX/1/1"><trk><trkseg><trkpt lat="40.8941589" lon="14.2878191"><ele>80.0</ele><time>2026-04-06T06:03:56.629Z</time></trkpt><trkpt lat="40.894058" lon="14.2876274"><ele>80.0</ele><time>2026-04-06T06:04:03.084Z</time></trkpt><trkpt lat="40.8939987" lon="14.2875408"><ele>80.0</ele><time>2026-04-06T06:04:04.083Z</time></trkpt><trkpt lat="40.8939649" lon="14.2874267"><ele>80.0</ele><time>2026-04-06T06:04:06.086Z</time></trkpt><trkpt lat="40.8939587" lon="14.2873239"><ele>80.0</ele><time>2026-04-06T06:04:08.085Z</time></trkpt><trkpt lat="40.8939482" lon="14.2872406"><ele>80.0</ele><time>2026-04-06T06:04:10.084Z</time></trkpt><trkpt lat="40.8939271" lon="14.2871575"><ele>80.0</ele><time>2026-04-06T06:04:12.083Z</time></trkpt><trkpt lat="40.8938841" lon="14.287062"><ele>80.0</ele><time>2026-04-06T06:04:14.083Z</time></trkpt><trkpt lat="40.8938523" lon="14.2869654"><ele>80.0</ele><time>2026-04-06T06:04:16.084Z</time></trkpt><trkpt lat="40.8938234" lon="14.2868672"><ele>80.0</ele><time>2026-04-06T06:04:18.084Z</time></trkpt><trkpt lat="40.8937651" lon="14.2867513"><ele>80.0</ele><time>2026-04-06T06:04:20.084Z</time></trkpt><trkpt lat="40.8937205" lon="14.2866375"><ele>80.0</ele><time>2026-04-06T06:04:22.083Z</time></trkpt><trkpt lat="40.8936847" lon="14.2865287"><ele>80.0</ele><time>2026-04-06T06:04:24.083Z</time></trkpt><trkpt lat="40.893649" lon="14.2864196"><ele>80.0</ele><time>2026-04-06T06:04:26.083Z</time></trkpt><trkpt lat="40.8936041" lon="14.2863076"><ele>80.0</ele><time>2026-04-06T06:04:28.083Z</time></trkpt><trkpt lat="40.893557" lon="14.2861922"><ele>80.0</ele><time>2026-04-06T06:04:30.084Z</time></trkpt><trkpt lat="40.8936125" lon="14.2861307"><ele>80.0</ele><time>2026-04-06T06:04:33.083Z</time></trkpt><trkpt lat="40.8936974" lon="14.286125"><ele>80.16666666666667</ele><time>2026-04-06T06:04:35.084Z</time></trkpt><trkpt lat="40.8937867" lon="14.28612"><ele>80.33333333333334</ele><time>2026-04-06T06:04:37.083Z</time></trkpt><trkpt lat="40.89386" lon="14.28613"><ele>80.5</ele><time>2026-04-06T06:04:39.083Z</time></trkpt><trkpt lat="40.8939233" lon="14.286125"><ele>80.66666666666667</ele><time>2026-04-06T06:04:41.083Z</time></trkpt><trkpt lat="40.8940183" lon="14.286135"><ele>80.83333333333333</ele><time>2026-04-06T06:04:43.084Z</time></trkpt><trkpt lat="40.8941333" lon="14.2861567"><ele>81.0</ele><time>2026-04-06T06:04:45.083Z</time></trkpt><trkpt lat="40.89423" lon="14.2861617"><ele>80.83333333333333</ele><time>2026-04-06T06:04:47.086Z</time></trkpt><trkpt lat="40.894305" lon="14.2861633"><ele>80.66666666666667</ele><time>2026-04-06T06:04:49.083Z</time></trkpt><trkpt lat="40.8944" lon="14.2861533"><ele>80.5</ele><time>2026-04-06T06:04:51.084Z</time></trkpt><trkpt lat="40.8944967" lon="14.2861833"><ele>80.33333333333334</ele><time>2026-04-06T06:04:53.083Z</time></trkpt><trkpt lat="40.89456" lon="14.2862217"><ele>80.16666666666667</ele><time>2026-04-06T06:04:54.085Z</time></trkpt><trkpt lat="40.8946533" lon="14.2862567"><ele>80.0</ele><time>2026-04-06T06:04:56.084Z</time></trkpt><trkpt lat="40.8947417" lon="14.2862917"><ele>80.0</ele><time>2026-04-06T06:04:58.084Z</time></trkpt><trkpt lat="40.8948233" lon="14.2862967"><ele>80.0</ele><time>2026-04-06T06:05:00.084Z</time></trkpt><trkpt lat="40.8949367" lon="14.28627"><ele>80.0</ele><time>2026-04-06T06:05:02.084Z</time></trkpt><trkpt lat="40.8950183" lon="14.2863283"><ele>80.0</ele><time>2026-04-06T06:05:04.086Z</time></trkpt><trkpt lat="40.89511" lon="14.2863117"><ele>80.0</ele><time>2026-04-06T06:05:06.084Z</time></trkpt><trkpt lat="40.8951733" lon="14.286315"><ele>80.0</ele><time>2026-04-06T06:05:07.085Z</time></trkpt><trkpt lat="40.8953017" lon="14.2863283"><ele>79.6</ele><time>2026-04-06T06:05:09.085Z</time></trkpt><trkpt lat="40.8953683" lon="14.28634"><ele>79.2</ele><time>2026-04-06T06:05:10.084Z</time></trkpt><trkpt lat="40.8954867" lon="14.286335"><ele>78.8</ele><time>2026-04-06T06:05:12.084Z</time></trkpt><trkpt lat="40.895595" lon="14.2863233"><ele>78.4</ele><time>2026-04-06T06:05:14.084Z</time></trkpt><trkpt lat="40.8956833" lon="14.28632"><ele>78.0</ele><time>2026-04-06T06:05:16.084Z</time></trkpt><trkpt lat="40.8957817" lon="14.2863133"><ele>78.0</ele><time>2026-04-06T06:05:18.087Z</time></trkpt><trkpt lat="40.8958817" lon="14.2863167"><ele>78.0</ele><time>2026-04-06T06:05:20.085Z</time></trkpt><trkpt lat="40.8959783" lon="14.286315"><ele>78.0</ele><time>2026-04-06T06:05:22.084Z</time></trkpt><trkpt lat="40.8960783" lon="14.2863183"><ele>78.0</ele><time>2026-04-06T06:05:24.084Z</time></trkpt><trkpt lat="40.896175" lon="14.2863233"><ele>78.0</ele><time>2026-04-06T06:05:26.084Z</time></trkpt><trkpt lat="40.8962383" lon="14.2863433"><ele>78.4</ele><time>2026-04-06T06:05:27.084Z</time></trkpt><trkpt lat="40.8963417" lon="14.2863767"><ele>78.8</ele><time>2026-04-06T06:05:29.084Z</time></trkpt><trkpt lat="40.8964467" lon="14.2864083"><ele>79.2</ele><time>2026-04-06T06:05:31.087Z</time></trkpt><trkpt lat="40.8965533" lon="14.2864067"><ele>79.6</ele><time>2026-04-06T06:05:33.085Z</time></trkpt><trkpt lat="40.8966367" lon="14.2863767"><ele>80.0</ele><time>2026-04-06T06:05:35.084Z</time></trkpt><trkpt lat="40.8967117" lon="14.2863467"><ele>80.33333333333334</ele><time>2026-04-06T06:05:38.084Z</time></trkpt><trkpt lat="40.896795" lon="14.2862817"><ele>80.66666666666667</ele><time>2026-04-06T06:05:41.084Z</time></trkpt><trkpt lat="40.8968583" lon="14.2862067"><ele>81.0</ele><time>2026-04-06T06:05:43.084Z</time></trkpt><trkpt lat="40.8968933" lon="14.286115"><ele>81.33333333333333</ele><time>2026-04-06T06:05:45.085Z</time></trkpt><trkpt lat="40.8969333" lon="14.28602"><ele>81.66666666666666</ele><time>2026-04-06T06:05:47.085Z</time></trkpt><trkpt lat="40.8969933" lon="14.2859367"><ele>82.0</ele><time>2026-04-06T06:05:49.085Z</time></trkpt><trkpt lat="40.8970533" lon="14.2858483"><ele>82.0</ele><time>2026-04-06T06:05:51.085Z</time></trkpt><trkpt lat="40.897115" lon="14.2857683"><ele>82.0</ele><time>2026-04-06T06:05:53.084Z</time></trkpt><trkpt lat="40.8971817" lon="14.2856817"><ele>82.0</ele><time>2026-04-06T06:05:55.092Z</time></trkpt><trkpt lat="40.8972433" lon="14.2855883"><ele>82.0</ele><time>2026-04-06T06:05:57.085Z</time></trkpt><trkpt lat="40.8972883" lon="14.2854817"><ele>82.0</ele><time>2026-04-06T06:05:59.084Z</time></trkpt><trkpt lat="40.8973533" lon="14.2853683"><ele>81.8</ele><time>2026-04-06T06:06:01.084Z</time></trkpt><trkpt lat="40.8974367" lon="14.2852783"><ele>81.6</ele><time>2026-04-06T06:06:03.084Z</time></trkpt><trkpt lat="40.8975117" lon="14.285195"><ele>81.39999999999999</ele><time>2026-04-06T06:06:05.084Z</time></trkpt><trkpt lat="40.8975933" lon="14.2850983"><ele>81.19999999999999</ele><time>2026-04-06T06:06:07.085Z</time></trkpt><trkpt lat="40.897675" lon="14.284985"><ele>81.0</ele><time>2026-04-06T06:06:09.085Z</time></trkpt><trkpt lat="40.8977483" lon="14.2849"><ele>80.83333333333333</ele><time>2026-04-06T06:06:11.085Z</time></trkpt><trkpt lat="40.89781" lon="14.2848167"><ele>80.66666666666667</ele><time>2026-04-06T06:06:13.084Z</time></trkpt><trkpt lat="40.89786" lon="14.2847283"><ele>80.5</ele><time>2026-04-06T06:06:15.085Z</time></trkpt><trkpt lat="40.897915" lon="14.284665"><ele>80.33333333333334</ele><time>2026-04-06T06:06:17.085Z</time></trkpt><trkpt lat="40.8979733" lon="14.284595"><ele>80.16666666666667</ele><time>2026-04-06T06:06:19.084Z</time></trkpt><trkpt lat="40.8980383" lon="14.2845483"><ele>80.0</ele><time>2026-04-06T06:06:21.087Z</time></trkpt><trkpt lat="40.8981067" lon="14.28453"><ele>80.0</ele><time>2026-04-06T06:06:25.085Z</time></trkpt><trkpt lat="40.8981717" lon="14.2845967"><ele>80.0</ele><time>2026-04-06T06:06:27.084Z</time></trkpt><trkpt lat="40.8982367" lon="14.2846867"><ele>80.0</ele><time>2026-04-06T06:06:29.085Z</time></trkpt><trkpt lat="40.8983067" lon="14.284775"><ele>80.0</ele><time>2026-04-06T06:06:31.085Z</time></trkpt><trkpt lat="40.8983833" lon="14.284845"><ele>80.0</ele><time>2026-04-06T06:06:33.085Z</time></trkpt><trkpt lat="40.8984633" lon="14.28493"><ele>80.6</ele><time>2026-04-06T06:06:35.085Z</time></trkpt><trkpt lat="40.8985417" lon="14.2850183"><ele>81.2</ele><time>2026-04-06T06:06:37.087Z</time></trkpt><trkpt lat="40.8986233" lon="14.2851033"><ele>81.80000000000001</ele><time>2026-04-06T06:06:39.085Z</time></trkpt><trkpt lat="40.8987133" lon="14.28519"><ele>82.4</ele><time>2026-04-06T06:06:41.084Z</time></trkpt><trkpt lat="40.8988217" lon="14.2852433"><ele>83.0</ele><time>2026-04-06T06:06:43.085Z</time></trkpt><trkpt lat="40.898885" lon="14.2852683"><ele>83.0</ele><time>2026-04-06T06:06:44.085Z</time></trkpt><trkpt lat="40.8989933" lon="14.2853217"><ele>83.0</ele><time>2026-04-06T06:06:46.084Z</time></trkpt><trkpt lat="40.899115" lon="14.2853783"><ele>83.0</ele><time>2026-04-06T06:06:48.085Z</time></trkpt><trkpt lat="40.8991867" lon="14.2854067"><ele>83.0</ele><time>2026-04-06T06:06:49.084Z</time></trkpt><trkpt lat="40.8992617" lon="14.2854533"><ele>83.0</ele><time>2026-04-06T06:06:50.084Z</time></trkpt><trkpt lat="40.899325" lon="14.2854733"><ele>83.14285714285714</ele><time>2026-04-06T06:06:51.084Z</time></trkpt><trkpt lat="40.89939" lon="14.285525"><ele>83.28571428571429</ele><time>2026-04-06T06:06:52.083Z</time></trkpt><trkpt lat="40.8994467" lon="14.2855667"><ele>83.42857142857143</ele><time>2026-04-06T06:06:53.084Z</time></trkpt><trkpt lat="40.8995083" lon="14.2856"><ele>83.57142857142857</ele><time>2026-04-06T06:06:54.084Z</time></trkpt><trkpt lat="40.8995717" lon="14.2856433"><ele>83.71428571428572</ele><time>2026-04-06T06:06:55.084Z</time></trkpt><trkpt lat="40.899635" lon="14.2856667"><ele>83.85714285714286</ele><time>2026-04-06T06:06:56.084Z</time></trkpt><trkpt lat="40.8997" lon="14.285695"><ele>84.0</ele><time>2026-04-06T06:06:57.084Z</time></trkpt><trkpt lat="40.89977" lon="14.28571"><ele>84.0</ele><time>2026-04-06T06:06:58.084Z</time></trkpt><trkpt lat="40.8998383" lon="14.2857383"><ele>84.0</ele><time>2026-04-06T06:06:59.084Z</time></trkpt><trkpt lat="40.899905" lon="14.2857767"><ele>84.0</ele><time>2026-04-06T06:07:00.084Z</time></trkpt><trkpt lat="40.8999717" lon="14.2858167"><ele>84.0</ele><time>2026-04-06T06:07:01.084Z</time></trkpt><trkpt lat="40.9000367" lon="14.285845"><ele>84.0</ele><time>2026-04-06T06:07:02.084Z</time></trkpt><trkpt lat="40.9001" lon="14.2858633"><ele>84.0</ele><time>2026-04-06T06:07:03.084Z</time></trkpt><trkpt lat="40.9001667" lon="14.2858767"><ele>84.0</ele><time>2026-04-06T06:07:04.084Z</time></trkpt><trkpt lat="40.90023" lon="14.2858917"><ele>84.28571428571429</ele><time>2026-04-06T06:07:05.083Z</time></trkpt><trkpt lat="40.9002967" lon="14.2859033"><ele>84.57142857142857</ele><time>2026-04-06T06:07:06.084Z</time></trkpt><trkpt lat="40.9003633" lon="14.2859117"><ele>84.85714285714286</ele><time>2026-04-06T06:07:07.084Z</time></trkpt><trkpt lat="40.9004317" lon="14.2859167"><ele>85.14285714285714</ele><time>2026-04-06T06:07:08.084Z</time></trkpt><trkpt lat="40.9004983" lon="14.285925"><ele>85.42857142857143</ele><time>2026-04-06T06:07:09.084Z</time></trkpt><trkpt lat="40.9005683" lon="14.2859217"><ele>85.71428571428572</ele><time>2026-04-06T06:07:10.083Z</time></trkpt><trkpt lat="40.900635" lon="14.2859233"><ele>86.0</ele><time>2026-04-06T06:07:11.083Z</time></trkpt><trkpt lat="40.9007017" lon="14.2859167"><ele>86.0</ele><time>2026-04-06T06:07:12.084Z</time></trkpt><trkpt lat="40.900765" lon="14.2859133"><ele>86.0</ele><time>2026-04-06T06:07:13.084Z</time></trkpt><trkpt lat="40.9008833" lon="14.2858983"><ele>86.0</ele><time>2026-04-06T06:07:15.084Z</time></trkpt><trkpt lat="40.9009583" lon="14.2858917"><ele>86.0</ele><time>2026-04-06T06:07:16.084Z</time></trkpt><trkpt lat="40.9010233" lon="14.2858767"><ele>86.0</ele><time>2026-04-06T06:07:17.085Z</time></trkpt><trkpt lat="40.9010867" lon="14.2858617"><ele>86.0</ele><time>2026-04-06T06:07:18.086Z</time></trkpt><trkpt lat="40.901155" lon="14.285835"><ele>85.83333333333334</ele><time>2026-04-06T06:07:19.084Z</time></trkpt><trkpt lat="40.9012267" lon="14.2858067"><ele>85.66666666666667</ele><time>2026-04-06T06:07:20.084Z</time></trkpt><trkpt lat="40.90129" lon="14.2857883"><ele>85.5</ele><time>2026-04-06T06:07:21.088Z</time></trkpt><trkpt lat="40.9013533" lon="14.2857767"><ele>85.33333333333333</ele><time>2026-04-06T06:07:22.085Z</time></trkpt><trkpt lat="40.9014183" lon="14.2857567"><ele>85.16666666666666</ele><time>2026-04-06T06:07:23.085Z</time></trkpt><trkpt lat="40.9014817" lon="14.2857417"><ele>85.0</ele><time>2026-04-06T06:07:24.084Z</time></trkpt><trkpt lat="40.9016" lon="14.285705"><ele>85.0</ele><time>2026-04-06T06:07:26.084Z</time></trkpt><trkpt lat="40.9016617" lon="14.2856817"><ele>85.0</ele><time>2026-04-06T06:07:27.085Z</time></trkpt><trkpt lat="40.9017333" lon="14.2856667"><ele>85.0</ele><time>2026-04-06T06:07:28.084Z</time></trkpt><trkpt lat="40.9017967" lon="14.28566"><ele>85.0</ele><time>2026-04-06T06:07:29.085Z</time></trkpt><trkpt lat="40.9019267" lon="14.2856567"><ele>85.0</ele><time>2026-04-06T06:07:31.085Z</time></trkpt><trkpt lat="40.90199" lon="14.2856467"><ele>85.0</ele><time>2026-04-06T06:07:32.085Z</time></trkpt><trkpt lat="40.902055" lon="14.2856317"><ele>85.2</ele><time>2026-04-06T06:07:33.084Z</time></trkpt><trkpt lat="40.9021617" lon="14.2855983"><ele>85.4</ele><time>2026-04-06T06:07:35.084Z</time></trkpt><trkpt lat="40.9023067" lon="14.2855867"><ele>85.6</ele><time>2026-04-06T06:07:37.084Z</time></trkpt><trkpt lat="40.902375" lon="14.28557"><ele>85.8</ele><time>2026-04-06T06:07:38.084Z</time></trkpt><trkpt lat="40.90244" lon="14.285535"><ele>86.0</ele><time>2026-04-06T06:07:39.084Z</time></trkpt><trkpt lat="40.9025117" lon="14.2855033"><ele>85.71428571428572</ele><time>2026-04-06T06:07:40.085Z</time></trkpt><trkpt lat="40.902585" lon="14.28547"><ele>85.42857142857143</ele><time>2026-04-06T06:07:41.084Z</time></trkpt><trkpt lat="40.9026567" lon="14.285445"><ele>85.14285714285714</ele><time>2026-04-06T06:07:42.085Z</time></trkpt><trkpt lat="40.9027317" lon="14.2854283"><ele>84.85714285714286</ele><time>2026-04-06T06:07:43.084Z</time></trkpt><trkpt lat="40.9028067" lon="14.2854033"><ele>84.57142857142857</ele><time>2026-04-06T06:07:44.086Z</time></trkpt><trkpt lat="40.9028717" lon="14.2853783"><ele>84.28571428571429</ele><time>2026-04-06T06:07:45.085Z</time></trkpt><trkpt lat="40.902945" lon="14.28536"><ele>84.0</ele><time>2026-04-06T06:07:46.084Z</time></trkpt><trkpt lat="40.9030133" lon="14.2853383"><ele>84.0</ele><time>2026-04-06T06:07:47.084Z</time></trkpt><trkpt lat="40.90308" lon="14.2853133"><ele>84.0</ele><time>2026-04-06T06:07:48.084Z</time></trkpt><trkpt lat="40.903155" lon="14.2853017"><ele>84.0</ele><time>2026-04-06T06:07:49.084Z</time></trkpt><trkpt lat="40.9032183" lon="14.2852867"><ele>84.0</ele><time>2026-04-06T06:07:50.084Z</time></trkpt><trkpt lat="40.9032833" lon="14.2852733"><ele>84.0</ele><time>2026-04-06T06:07:51.084Z</time></trkpt><trkpt lat="40.9033533" lon="14.285265"><ele>84.0</ele><time>2026-04-06T06:07:52.083Z</time></trkpt><trkpt lat="40.9034317" lon="14.28525"><ele>84.0</ele><time>2026-04-06T06:07:53.085Z</time></trkpt><trkpt lat="40.9035033" lon="14.285225"><ele>83.42857142857143</ele><time>2026-04-06T06:07:54.085Z</time></trkpt><trkpt lat="40.9035683" lon="14.2852017"><ele>82.85714285714286</ele><time>2026-04-06T06:07:55.084Z</time></trkpt><trkpt lat="40.903635" lon="14.28518"><ele>82.28571428571428</ele><time>2026-04-06T06:07:56.084Z</time></trkpt><trkpt lat="40.9037017" lon="14.28516"><ele>81.71428571428572</ele><time>2026-04-06T06:07:57.085Z</time></trkpt><trkpt lat="40.9037667" lon="14.2851383"><ele>81.14285714285714</ele><time>2026-04-06T06:07:58.084Z</time></trkpt><trkpt lat="40.903835" lon="14.2851133"><ele>80.57142857142857</ele><time>2026-04-06T06:07:59.085Z</time></trkpt><trkpt lat="40.90391" lon="14.285095"><ele>80.0</ele><time>2026-04-06T06:08:00.084Z</time></trkpt><trkpt lat="40.9039817" lon="14.2850833"><ele>80.0</ele><time>2026-04-06T06:08:01.086Z</time></trkpt><trkpt lat="40.9040517" lon="14.2850617"><ele>80.0</ele><time>2026-04-06T06:08:02.084Z</time></trkpt><trkpt lat="40.9041267" lon="14.28504"><ele>80.0</ele><time>2026-04-06T06:08:03.084Z</time></trkpt><trkpt lat="40.9041983" lon="14.2850117"><ele>80.0</ele><time>2026-04-06T06:08:04.084Z</time></trkpt><trkpt lat="40.9042733" lon="14.2849983"><ele>80.0</ele><time>2026-04-06T06:08:05.085Z</time></trkpt><trkpt lat="40.90434" lon="14.2849717"><ele>80.0</ele><time>2026-04-06T06:08:06.084Z</time></trkpt><trkpt lat="40.9044133" lon="14.2849567"><ele>80.0</ele><time>2026-04-06T06:08:07.084Z</time></trkpt><trkpt lat="40.9044867" lon="14.2849333"><ele>79.83333333333334</ele><time>2026-04-06T06:08:08.084Z</time></trkpt><trkpt lat="40.9045733" lon="14.2849267"><ele>79.66666666666667</ele><time>2026-04-06T06:08:09.085Z</time></trkpt><trkpt lat="40.9046517" lon="14.28492"><ele>79.5</ele><time>2026-04-06T06:08:10.084Z</time></trkpt><trkpt lat="40.9047333" lon="14.2848967"><ele>79.33333333333333</ele><time>2026-04-06T06:08:11.085Z</time></trkpt><trkpt lat="40.9048133" lon="14.2848717"><ele>79.16666666666666</ele><time>2026-04-06T06:08:12.086Z</time></trkpt><trkpt lat="40.9048867" lon="14.2848417"><ele>79.0</ele><time>2026-04-06T06:08:13.085Z</time></trkpt><trkpt lat="40.90495" lon="14.2848067"><ele>79.00000000000001</ele><time>2026-04-06T06:08:14.087Z</time></trkpt><trkpt lat="40.9050117" lon="14.2847867"><ele>79.0</ele><time>2026-04-06T06:08:15.084Z</time></trkpt><trkpt lat="40.905075" lon="14.2847617"><ele>79.0</ele><time>2026-04-06T06:08:16.084Z</time></trkpt><trkpt lat="40.90516" lon="14.2847583"><ele>79.0</ele><time>2026-04-06T06:08:17.084Z</time></trkpt><trkpt lat="40.90523" lon="14.284735"><ele>79.0</ele><time>2026-04-06T06:08:18.084Z</time></trkpt><trkpt lat="40.9053017" lon="14.28471"><ele>79.00000000000001</ele><time>2026-04-06T06:08:19.086Z</time></trkpt><trkpt lat="40.9053767" lon="14.2846867"><ele>79.0</ele><time>2026-04-06T06:08:20.084Z</time></trkpt><trkpt lat="40.9054483" lon="14.284665"><ele>79.0</ele><time>2026-04-06T06:08:21.084Z</time></trkpt><trkpt lat="40.9055217" lon="14.2846467"><ele>79.0</ele><time>2026-04-06T06:08:22.084Z</time></trkpt><trkpt lat="40.9055983" lon="14.284625"><ele>79.0</ele><time>2026-04-06T06:08:23.084Z</time></trkpt><trkpt lat="40.9056717" lon="14.2846283"><ele>79.0</ele><time>2026-04-06T06:08:24.084Z</time></trkpt><trkpt lat="40.90575" lon="14.2846217"><ele>79.0</ele><time>2026-04-06T06:08:25.084Z</time></trkpt><trkpt lat="40.90583" lon="14.2846183"><ele>79.0</ele><time>2026-04-06T06:08:26.085Z</time></trkpt><trkpt lat="40.9059033" lon="14.284615"><ele>79.28571428571429</ele><time>2026-04-06T06:08:27.084Z</time></trkpt><trkpt lat="40.9059783" lon="14.28462"><ele>79.57142857142857</ele><time>2026-04-06T06:08:28.084Z</time></trkpt><trkpt lat="40.906055" lon="14.2846383"><ele>79.85714285714286</ele><time>2026-04-06T06:08:29.084Z</time></trkpt><trkpt lat="40.90613" lon="14.28466"><ele>80.14285714285714</ele><time>2026-04-06T06:08:30.084Z</time></trkpt><trkpt lat="40.9062017" lon="14.2846767"><ele>80.42857142857143</ele><time>2026-04-06T06:08:31.085Z</time></trkpt><trkpt lat="40.906275" lon="14.2846867"><ele>80.71428571428572</ele><time>2026-04-06T06:08:32.084Z</time></trkpt><trkpt lat="40.906345" lon="14.2847133"><ele>81.0</ele><time>2026-04-06T06:08:33.084Z</time></trkpt><trkpt lat="40.9064167" lon="14.2847433"><ele>80.57142857142857</ele><time>2026-04-06T06:08:34.084Z</time></trkpt><trkpt lat="40.9064883" lon="14.2847717"><ele>80.14285714285714</ele><time>2026-04-06T06:08:35.084Z</time></trkpt><trkpt lat="40.9065567" lon="14.2848117"><ele>79.71428571428572</ele><time>2026-04-06T06:08:36.084Z</time></trkpt><trkpt lat="40.90662" lon="14.2848417"><ele>79.28571428571428</ele><time>2026-04-06T06:08:37.085Z</time></trkpt><trkpt lat="40.906685" lon="14.284885"><ele>78.85714285714285</ele><time>2026-04-06T06:08:38.085Z</time></trkpt><trkpt lat="40.9067517" lon="14.2849317"><ele>78.42857142857143</ele><time>2026-04-06T06:08:39.084Z</time></trkpt><trkpt lat="40.906815" lon="14.2849783"><ele>78.0</ele><time>2026-04-06T06:08:40.084Z</time></trkpt><trkpt lat="40.9068767" lon="14.28503"><ele>77.42857142857143</ele><time>2026-04-06T06:08:41.085Z</time></trkpt><trkpt lat="40.90695" lon="14.2850667"><ele>76.85714285714285</ele><time>2026-04-06T06:08:42.086Z</time></trkpt><trkpt lat="40.907015" lon="14.285115"><ele>76.28571428571428</ele><time>2026-04-06T06:08:43.084Z</time></trkpt><trkpt lat="40.9070767" lon="14.28516"><ele>75.71428571428572</ele><time>2026-04-06T06:08:44.084Z</time></trkpt><trkpt lat="40.907135" lon="14.2852117"><ele>75.14285714285714</ele><time>2026-04-06T06:08:45.086Z</time></trkpt><trkpt lat="40.9071967" lon="14.28526"><ele>74.57142857142857</ele><time>2026-04-06T06:08:46.084Z</time></trkpt><trkpt lat="40.9072633" lon="14.285315"><ele>74.0</ele><time>2026-04-06T06:08:47.084Z</time></trkpt><trkpt lat="40.90733" lon="14.2853717"><ele>74.0</ele><time>2026-04-06T06:08:48.084Z</time></trkpt><trkpt lat="40.9073967" lon="14.2854333"><ele>74.0</ele><time>2026-04-06T06:08:49.085Z</time></trkpt><trkpt lat="40.9074617" lon="14.2854883"><ele>74.0</ele><time>2026-04-06T06:08:50.084Z</time></trkpt><trkpt lat="40.9075267" lon="14.2855383"><ele>74.0</ele><time>2026-04-06T06:08:51.085Z</time></trkpt><trkpt lat="40.9075933" lon="14.285595"><ele>74.0</ele><time>2026-04-06T06:08:52.084Z</time></trkpt><trkpt lat="40.9076817" lon="14.28565"><ele>74.0</ele><time>2026-04-06T06:08:53.085Z</time></trkpt><trkpt lat="40.9077667" lon="14.285705"><ele>73.16666666666667</ele><time>2026-04-06T06:08:54.085Z</time></trkpt><trkpt lat="40.907845" lon="14.285765"><ele>72.33333333333334</ele><time>2026-04-06T06:08:55.084Z</time></trkpt><trkpt lat="40.9079233" lon="14.2858283"><ele>71.5</ele><time>2026-04-06T06:08:56.084Z</time></trkpt><trkpt lat="40.907995" lon="14.2858883"><ele>70.66666666666667</ele><time>2026-04-06T06:08:57.084Z</time></trkpt><trkpt lat="40.908065" lon="14.2859467"><ele>69.83333333333333</ele><time>2026-04-06T06:08:58.085Z</time></trkpt><trkpt lat="40.9081367" lon="14.2860083"><ele>69.0</ele><time>2026-04-06T06:08:59.084Z</time></trkpt><trkpt lat="40.908205" lon="14.28607"><ele>69.0</ele><time>2026-04-06T06:09:00.084Z</time></trkpt><trkpt lat="40.9082783" lon="14.2861383"><ele>69.0</ele><time>2026-04-06T06:09:01.087Z</time></trkpt><trkpt lat="40.9083517" lon="14.2862"><ele>69.0</ele><time>2026-04-06T06:09:02.086Z</time></trkpt><trkpt lat="40.908425" lon="14.2862617"><ele>69.0</ele><time>2026-04-06T06:09:03.085Z</time></trkpt><trkpt lat="40.908495" lon="14.2863317"><ele>69.0</ele><time>2026-04-06T06:09:04.084Z</time></trkpt><trkpt lat="40.908565" lon="14.2863933"><ele>69.0</ele><time>2026-04-06T06:09:05.086Z</time></trkpt><trkpt lat="40.9086467" lon="14.2864783"><ele>69.2</ele><time>2026-04-06T06:09:06.085Z</time></trkpt><trkpt lat="40.9087217" lon="14.2865383"><ele>69.4</ele><time>2026-04-06T06:09:07.085Z</time></trkpt><trkpt lat="40.90881" lon="14.2866183"><ele>69.6</ele><time>2026-04-06T06:09:08.085Z</time></trkpt><trkpt lat="40.90889" lon="14.286685"><ele>69.8</ele><time>2026-04-06T06:09:09.086Z</time></trkpt><trkpt lat="40.9089667" lon="14.2867533"><ele>70.0</ele><time>2026-04-06T06:09:10.086Z</time></trkpt><trkpt lat="40.9090417" lon="14.2868167"><ele>70.0</ele><time>2026-04-06T06:09:11.085Z</time></trkpt><trkpt lat="40.9091167" lon="14.2868817"><ele>70.0</ele><time>2026-04-06T06:09:12.084Z</time></trkpt><trkpt lat="40.9091933" lon="14.2869417"><ele>70.0</ele><time>2026-04-06T06:09:13.084Z</time></trkpt><trkpt lat="40.90927" lon="14.2870067"><ele>70.0</ele><time>2026-04-06T06:09:14.085Z</time></trkpt><trkpt lat="40.9093483" lon="14.2870683"><ele>70.0</ele><time>2026-04-06T06:09:15.085Z</time></trkpt><trkpt lat="40.9094283" lon="14.2871333"><ele>69.8</ele><time>2026-04-06T06:09:16.084Z</time></trkpt><trkpt lat="40.909505" lon="14.287195"><ele>69.6</ele><time>2026-04-06T06:09:17.084Z</time></trkpt><trkpt lat="40.909585" lon="14.2872583"><ele>69.4</ele><time>2026-04-06T06:09:18.084Z</time></trkpt><trkpt lat="40.9096633" lon="14.2873217"><ele>69.2</ele><time>2026-04-06T06:09:19.085Z</time></trkpt><trkpt lat="40.9097433" lon="14.287385"><ele>69.0</ele><time>2026-04-06T06:09:20.084Z</time></trkpt><trkpt lat="40.9098233" lon="14.287455"><ele>68.8</ele><time>2026-04-06T06:09:21.084Z</time></trkpt><trkpt lat="40.9098983" lon="14.2875233"><ele>68.60000000000001</ele><time>2026-04-06T06:09:22.086Z</time></trkpt><trkpt lat="40.9099717" lon="14.287595"><ele>68.4</ele><time>2026-04-06T06:09:23.086Z</time></trkpt><trkpt lat="40.910045" lon="14.2876633"><ele>68.2</ele><time>2026-04-06T06:09:24.084Z</time></trkpt><trkpt lat="40.9101217" lon="14.2877367"><ele>68.0</ele><time>2026-04-06T06:09:25.084Z</time></trkpt><trkpt lat="40.9102" lon="14.28781"><ele>67.4</ele><time>2026-04-06T06:09:26.084Z</time></trkpt><trkpt lat="40.91028" lon="14.2878783"><ele>66.8</ele><time>2026-04-06T06:09:27.085Z</time></trkpt><trkpt lat="40.9103583" lon="14.287945"><ele>66.2</ele><time>2026-04-06T06:09:28.084Z</time></trkpt><trkpt lat="40.91044" lon="14.2880133"><ele>65.6</ele><time>2026-04-06T06:09:29.085Z</time></trkpt><trkpt lat="40.91052" lon="14.28808"><ele>65.0</ele><time>2026-04-06T06:09:30.085Z</time></trkpt><trkpt lat="40.9106" lon="14.28815"><ele>65.0</ele><time>2026-04-06T06:09:31.085Z</time></trkpt><trkpt lat="40.910675" lon="14.2882117"><ele>65.0</ele><time>2026-04-06T06:09:32.084Z</time></trkpt><trkpt lat="40.91075" lon="14.2882783"><ele>65.0</ele><time>2026-04-06T06:09:33.084Z</time></trkpt><trkpt lat="40.9108267" lon="14.288345"><ele>65.0</ele><time>2026-04-06T06:09:34.084Z</time></trkpt><trkpt lat="40.910905" lon="14.2884133"><ele>65.0</ele><time>2026-04-06T06:09:35.085Z</time></trkpt><trkpt lat="40.9109833" lon="14.2884883"><ele>64.6</ele><time>2026-04-06T06:09:36.085Z</time></trkpt><trkpt lat="40.9110633" lon="14.288565"><ele>64.2</ele><time>2026-04-06T06:09:37.085Z</time></trkpt><trkpt lat="40.9111417" lon="14.2886367"><ele>63.8</ele><time>2026-04-06T06:09:38.084Z</time></trkpt><trkpt lat="40.91122" lon="14.2887033"><ele>63.4</ele><time>2026-04-06T06:09:39.086Z</time></trkpt><trkpt lat="40.9112967" lon="14.28877"><ele>63.0</ele><time>2026-04-06T06:09:40.084Z</time></trkpt><trkpt lat="40.91137" lon="14.2888433"><ele>63.0</ele><time>2026-04-06T06:09:41.084Z</time></trkpt><trkpt lat="40.911445" lon="14.2889067"><ele>63.0</ele><time>2026-04-06T06:09:42.085Z</time></trkpt><trkpt lat="40.91152" lon="14.28897"><ele>63.0</ele><time>2026-04-06T06:09:43.084Z</time></trkpt><trkpt lat="40.9115967" lon="14.2890333"><ele>63.0</ele><time>2026-04-06T06:09:44.085Z</time></trkpt><trkpt lat="40.9116767" lon="14.2891067"><ele>63.0</ele><time>2026-04-06T06:09:45.085Z</time></trkpt><trkpt lat="40.911755" lon="14.2891767"><ele>63.0</ele><time>2026-04-06T06:09:46.084Z</time></trkpt><trkpt lat="40.9118333" lon="14.28924"><ele>63.0</ele><time>2026-04-06T06:09:47.084Z</time></trkpt><trkpt lat="40.91191" lon="14.289305"><ele>63.0</ele><time>2026-04-06T06:09:48.085Z</time></trkpt><trkpt lat="40.91199" lon="14.28937"><ele>63.0</ele><time>2026-04-06T06:09:49.086Z</time></trkpt><trkpt lat="40.9120717" lon="14.2894367"><ele>63.0</ele><time>2026-04-06T06:09:50.084Z</time></trkpt><trkpt lat="40.912155" lon="14.289505"><ele>63.0</ele><time>2026-04-06T06:09:51.084Z</time></trkpt><trkpt lat="40.9122433" lon="14.2895733"><ele>63.0</ele><time>2026-04-06T06:09:52.084Z</time></trkpt><trkpt lat="40.91233" lon="14.2896433"><ele>63.0</ele><time>2026-04-06T06:09:53.084Z</time></trkpt><trkpt lat="40.9124183" lon="14.2897083"><ele>63.0</ele><time>2026-04-06T06:09:54.085Z</time></trkpt><trkpt lat="40.9125033" lon="14.2897733"><ele>63.0</ele><time>2026-04-06T06:09:55.085Z</time></trkpt><trkpt lat="40.9125833" lon="14.2898433"><ele>63.0</ele><time>2026-04-06T06:09:56.085Z</time></trkpt><trkpt lat="40.9126633" lon="14.2899067"><ele>63.0</ele><time>2026-04-06T06:09:57.085Z</time></trkpt><trkpt lat="40.9127417" lon="14.2899717"><ele>63.0</ele><time>2026-04-06T06:09:58.085Z</time></trkpt><trkpt lat="40.9128233" lon="14.29004"><ele>63.0</ele><time>2026-04-06T06:09:59.086Z</time></trkpt><trkpt lat="40.9129017" lon="14.2901033"><ele>63.0</ele><time>2026-04-06T06:10:00.086Z</time></trkpt><trkpt lat="40.9129833" lon="14.2901567"><ele>63.0</ele><time>2026-04-06T06:10:01.084Z</time></trkpt><trkpt lat="40.9130633" lon="14.2902017"><ele>63.0</ele><time>2026-04-06T06:10:02.085Z</time></trkpt><trkpt lat="40.9131383" lon="14.2902383"><ele>63.0</ele><time>2026-04-06T06:10:03.085Z</time></trkpt><trkpt lat="40.913215" lon="14.2902783"><ele>63.0</ele><time>2026-04-06T06:10:04.086Z</time></trkpt><trkpt lat="40.913295" lon="14.290315"><ele>63.0</ele><time>2026-04-06T06:10:05.084Z</time></trkpt><trkpt lat="40.9133767" lon="14.2903567"><ele>63.0</ele><time>2026-04-06T06:10:06.085Z</time></trkpt><trkpt lat="40.9134567" lon="14.2903933"><ele>62.833333333333336</ele><time>2026-04-06T06:10:07.085Z</time></trkpt><trkpt lat="40.9135367" lon="14.29043"><ele>62.66666666666667</ele><time>2026-04-06T06:10:08.086Z</time></trkpt><trkpt lat="40.913615" lon="14.2904667"><ele>62.5</ele><time>2026-04-06T06:10:09.084Z</time></trkpt><trkpt lat="40.9136983" lon="14.2905017"><ele>62.333333333333336</ele><time>2026-04-06T06:10:10.084Z</time></trkpt><trkpt lat="40.9137733" lon="14.29053"><ele>62.16666666666667</ele><time>2026-04-06T06:10:11.085Z</time></trkpt><trkpt lat="40.9138467" lon="14.2905467"><ele>62.0</ele><time>2026-04-06T06:10:12.099Z</time></trkpt><trkpt lat="40.913925" lon="14.29057"><ele>61.50000000000001</ele><time>2026-04-06T06:10:13.085Z</time></trkpt><trkpt lat="40.9140017" lon="14.2905917"><ele>61.0</ele><time>2026-04-06T06:10:14.086Z</time></trkpt><trkpt lat="40.914075" lon="14.290605"><ele>60.5</ele><time>2026-04-06T06:10:15.085Z</time></trkpt><trkpt lat="40.9141433" lon="14.2906217"><ele>60.0</ele><time>2026-04-06T06:10:16.084Z</time></trkpt><trkpt lat="40.9142683" lon="14.2906333"><ele>59.50000000000001</ele><time>2026-04-06T06:10:18.084Z</time></trkpt><trkpt lat="40.9143383" lon="14.2906367"><ele>59.0</ele><time>2026-04-06T06:10:19.084Z</time></trkpt><trkpt lat="40.91441" lon="14.2906333"><ele>59.0</ele><time>2026-04-06T06:10:20.084Z</time></trkpt><trkpt lat="40.914485" lon="14.2906367"><ele>59.0</ele><time>2026-04-06T06:10:21.085Z</time></trkpt><trkpt lat="40.914555" lon="14.2906333"><ele>59.0</ele><time>2026-04-06T06:10:22.084Z</time></trkpt><trkpt lat="40.9146267" lon="14.2906283"><ele>59.0</ele><time>2026-04-06T06:10:23.084Z</time></trkpt><trkpt lat="40.9146983" lon="14.2906233"><ele>59.0</ele><time>2026-04-06T06:10:24.087Z</time></trkpt><trkpt lat="40.9147683" lon="14.29061"><ele>59.0</ele><time>2026-04-06T06:10:25.085Z</time></trkpt><trkpt lat="40.9148383" lon="14.2906017"><ele>59.0</ele><time>2026-04-06T06:10:26.085Z</time></trkpt><trkpt lat="40.91491" lon="14.2906"><ele>59.0</ele><time>2026-04-06T06:10:27.085Z</time></trkpt><trkpt lat="40.914985" lon="14.2906017"><ele>59.0</ele><time>2026-04-06T06:10:28.085Z</time></trkpt><trkpt lat="40.9150567" lon="14.2905983"><ele>59.0</ele><time>2026-04-06T06:10:29.084Z</time></trkpt><trkpt lat="40.915125" lon="14.29059"><ele>59.0</ele><time>2026-04-06T06:10:30.084Z</time></trkpt><trkpt lat="40.9151983" lon="14.290585"><ele>59.0</ele><time>2026-04-06T06:10:31.085Z</time></trkpt><trkpt lat="40.9152667" lon="14.2905817"><ele>59.0</ele><time>2026-04-06T06:10:32.085Z</time></trkpt><trkpt lat="40.9153417" lon="14.2905783"><ele>59.0</ele><time>2026-04-06T06:10:33.084Z</time></trkpt><trkpt lat="40.91542" lon="14.29058"><ele>59.00000000000001</ele><time>2026-04-06T06:10:34.084Z</time></trkpt><trkpt lat="40.9154983" lon="14.290585"><ele>59.0</ele><time>2026-04-06T06:10:35.084Z</time></trkpt><trkpt lat="40.915575" lon="14.2905867"><ele>59.0</ele><time>2026-04-06T06:10:36.085Z</time></trkpt><trkpt lat="40.9156517" lon="14.2905917"><ele>59.0</ele><time>2026-04-06T06:10:37.084Z</time></trkpt><trkpt lat="40.9157217" lon="14.2905917"><ele>59.00000000000001</ele><time>2026-04-06T06:10:38.084Z</time></trkpt><trkpt lat="40.9158017" lon="14.2905983"><ele>59.0</ele><time>2026-04-06T06:10:39.084Z</time></trkpt><trkpt lat="40.9158783" lon="14.2906033"><ele>58.71428571428571</ele><time>2026-04-06T06:10:40.084Z</time></trkpt><trkpt lat="40.9159533" lon="14.2906183"><ele>58.42857142857143</ele><time>2026-04-06T06:10:41.084Z</time></trkpt><trkpt lat="40.9160267" lon="14.2906367"><ele>58.14285714285714</ele><time>2026-04-06T06:10:42.084Z</time></trkpt><trkpt lat="40.9161017" lon="14.2906617"><ele>57.857142857142854</ele><time>2026-04-06T06:10:43.084Z</time></trkpt><trkpt lat="40.9161667" lon="14.29069"><ele>57.57142857142857</ele><time>2026-04-06T06:10:44.084Z</time></trkpt><trkpt lat="40.9162283" lon="14.2907233"><ele>57.285714285714285</ele><time>2026-04-06T06:10:45.085Z</time></trkpt><trkpt lat="40.9162933" lon="14.29076"><ele>57.0</ele><time>2026-04-06T06:10:46.084Z</time></trkpt><trkpt lat="40.91636" lon="14.2907967"><ele>57.0</ele><time>2026-04-06T06:10:47.084Z</time></trkpt><trkpt lat="40.9164267" lon="14.2908367"><ele>57.0</ele><time>2026-04-06T06:10:48.085Z</time></trkpt><trkpt lat="40.9164983" lon="14.2908767"><ele>57.0</ele><time>2026-04-06T06:10:49.085Z</time></trkpt><trkpt lat="40.9165717" lon="14.29092"><ele>57.0</ele><time>2026-04-06T06:10:50.085Z</time></trkpt><trkpt lat="40.91664" lon="14.2909667"><ele>57.0</ele><time>2026-04-06T06:10:51.085Z</time></trkpt><trkpt lat="40.9167117" lon="14.2910167"><ele>57.0</ele><time>2026-04-06T06:10:52.086Z</time></trkpt><trkpt lat="40.9167817" lon="14.29106"><ele>57.0</ele><time>2026-04-06T06:10:53.092Z</time></trkpt><trkpt lat="40.9168533" lon="14.2911"><ele>57.0</ele><time>2026-04-06T06:10:54.085Z</time></trkpt><trkpt lat="40.91692" lon="14.291135"><ele>57.0</ele><time>2026-04-06T06:10:55.085Z</time></trkpt><trkpt lat="40.9169867" lon="14.291165"><ele>57.0</ele><time>2026-04-06T06:10:56.086Z</time></trkpt><trkpt lat="40.9171033" lon="14.2912067"><ele>57.0</ele><time>2026-04-06T06:10:58.086Z</time></trkpt><trkpt lat="40.9172167" lon="14.2912817"><ele>57.0</ele><time>2026-04-06T06:11:00.085Z</time></trkpt><trkpt lat="40.9172783" lon="14.29133"><ele>57.0</ele><time>2026-04-06T06:11:01.085Z</time></trkpt><trkpt lat="40.9173383" lon="14.29138"><ele>57.0</ele><time>2026-04-06T06:11:02.086Z</time></trkpt><trkpt lat="40.9174033" lon="14.291435"><ele>57.0</ele><time>2026-04-06T06:11:03.086Z</time></trkpt><trkpt lat="40.917475" lon="14.2914867"><ele>57.0</ele><time>2026-04-06T06:11:04.084Z</time></trkpt><trkpt lat="40.9175417" lon="14.2915417"><ele>57.0</ele><time>2026-04-06T06:11:05.085Z</time></trkpt><trkpt lat="40.9176133" lon="14.2915967"><ele>56.666666666666664</ele><time>2026-04-06T06:11:06.085Z</time></trkpt><trkpt lat="40.9176833" lon="14.2916417"><ele>56.33333333333333</ele><time>2026-04-06T06:11:07.085Z</time></trkpt><trkpt lat="40.9177633" lon="14.2916917"><ele>56.0</ele><time>2026-04-06T06:11:08.085Z</time></trkpt><trkpt lat="40.9178417" lon="14.291735"><ele>55.666666666666664</ele><time>2026-04-06T06:11:09.085Z</time></trkpt><trkpt lat="40.9179217" lon="14.2917817"><ele>55.33333333333333</ele><time>2026-04-06T06:11:10.084Z</time></trkpt><trkpt lat="40.9179983" lon="14.2918217"><ele>55.0</ele><time>2026-04-06T06:11:11.085Z</time></trkpt><trkpt lat="40.9180767" lon="14.291865"><ele>54.99999999999999</ele><time>2026-04-06T06:11:12.085Z</time></trkpt><trkpt lat="40.9181533" lon="14.2919033"><ele>55.0</ele><time>2026-04-06T06:11:13.085Z</time></trkpt><trkpt lat="40.91823" lon="14.29194"><ele>55.0</ele><time>2026-04-06T06:11:14.084Z</time></trkpt><trkpt lat="40.9183117" lon="14.2919733"><ele>55.0</ele><time>2026-04-06T06:11:15.085Z</time></trkpt><trkpt lat="40.9183917" lon="14.292005"><ele>54.99999999999999</ele><time>2026-04-06T06:11:16.085Z</time></trkpt><trkpt lat="40.9184717" lon="14.29204"><ele>55.0</ele><time>2026-04-06T06:11:17.085Z</time></trkpt><trkpt lat="40.91855" lon="14.2920783"><ele>54.99999999999999</ele><time>2026-04-06T06:11:18.085Z</time></trkpt><trkpt lat="40.9186283" lon="14.29211"><ele>55.0</ele><time>2026-04-06T06:11:19.086Z</time></trkpt><trkpt lat="40.9187083" lon="14.2921417"><ele>55.0</ele><time>2026-04-06T06:11:20.086Z</time></trkpt><trkpt lat="40.9187883" lon="14.2921767"><ele>55.0</ele><time>2026-04-06T06:11:21.085Z</time></trkpt><trkpt lat="40.9188683" lon="14.29221"><ele>54.99999999999999</ele><time>2026-04-06T06:11:22.084Z</time></trkpt><trkpt lat="40.91895" lon="14.2922467"><ele>55.0</ele><time>2026-04-06T06:11:23.085Z</time></trkpt><trkpt lat="40.9190317" lon="14.2922817"><ele>54.99999999999999</ele><time>2026-04-06T06:11:24.085Z</time></trkpt><trkpt lat="40.9191117" lon="14.2923167"><ele>55.0</ele><time>2026-04-06T06:11:25.086Z</time></trkpt><trkpt lat="40.9191867" lon="14.29235"><ele>55.0</ele><time>2026-04-06T06:11:26.086Z</time></trkpt><trkpt lat="40.919265" lon="14.292385"><ele>55.0</ele><time>2026-04-06T06:11:27.085Z</time></trkpt><trkpt lat="40.9193433" lon="14.2924233"><ele>54.99999999999999</ele><time>2026-04-06T06:11:28.084Z</time></trkpt><trkpt lat="40.9194183" lon="14.2924683"><ele>55.0</ele><time>2026-04-06T06:11:29.085Z</time></trkpt><trkpt lat="40.9194917" lon="14.2925133"><ele>54.666666666666664</ele><time>2026-04-06T06:11:30.085Z</time></trkpt><trkpt lat="40.9195617" lon="14.2925733"><ele>54.33333333333333</ele><time>2026-04-06T06:11:31.086Z</time></trkpt><trkpt lat="40.9196333" lon="14.2926383"><ele>54.0</ele><time>2026-04-06T06:11:32.084Z</time></trkpt><trkpt lat="40.9197017" lon="14.2927017"><ele>53.66666666666667</ele><time>2026-04-06T06:11:33.086Z</time></trkpt><trkpt lat="40.9197733" lon="14.292765"><ele>53.333333333333336</ele><time>2026-04-06T06:11:34.085Z</time></trkpt><trkpt lat="40.919845" lon="14.29283"><ele>53.0</ele><time>2026-04-06T06:11:35.084Z</time></trkpt><trkpt lat="40.91991" lon="14.2929"><ele>53.00000000000001</ele><time>2026-04-06T06:11:36.085Z</time></trkpt><trkpt lat="40.919965" lon="14.2929883"><ele>53.0</ele><time>2026-04-06T06:11:37.085Z</time></trkpt><trkpt lat="40.9199983" lon="14.2930967"><ele>53.0</ele><time>2026-04-06T06:11:38.086Z</time></trkpt><trkpt lat="40.9200283" lon="14.29321"><ele>53.0</ele><time>2026-04-06T06:11:39.084Z</time></trkpt><trkpt lat="40.920065" lon="14.293315"><ele>53.00000000000001</ele><time>2026-04-06T06:11:40.085Z</time></trkpt><trkpt lat="40.9201133" lon="14.2934167"><ele>53.0</ele><time>2026-04-06T06:11:41.085Z</time></trkpt><trkpt lat="40.9201717" lon="14.2934883"><ele>53.00000000000001</ele><time>2026-04-06T06:11:42.085Z</time></trkpt><trkpt lat="40.92024" lon="14.2935233"><ele>53.0</ele><time>2026-04-06T06:11:43.085Z</time></trkpt><trkpt lat="40.9203317" lon="14.293525"><ele>53.0</ele><time>2026-04-06T06:11:44.086Z</time></trkpt><trkpt lat="40.9204183" lon="14.29355"><ele>53.0</ele><time>2026-04-06T06:11:45.086Z</time></trkpt><trkpt lat="40.920505" lon="14.2935867"><ele>53.00000000000001</ele><time>2026-04-06T06:11:46.085Z</time></trkpt><trkpt lat="40.9205883" lon="14.2936367"><ele>53.0</ele><time>2026-04-06T06:11:47.085Z</time></trkpt><trkpt lat="40.920665" lon="14.2937017"><ele>53.0</ele><time>2026-04-06T06:11:48.086Z</time></trkpt><trkpt lat="40.920745" lon="14.2937633"><ele>53.0</ele><time>2026-04-06T06:11:49.085Z</time></trkpt><trkpt lat="40.92083" lon="14.2938133"><ele>53.0</ele><time>2026-04-06T06:11:50.085Z</time></trkpt><trkpt lat="40.9209133" lon="14.2938583"><ele>53.0</ele><time>2026-04-06T06:11:51.085Z</time></trkpt><trkpt lat="40.9209983" lon="14.293895"><ele>53.0</ele><time>2026-04-06T06:11:52.084Z</time></trkpt><trkpt lat="40.921085" lon="14.2939283"><ele>52.8</ele><time>2026-04-06T06:11:53.085Z</time></trkpt><trkpt lat="40.9211717" lon="14.293965"><ele>52.599999999999994</ele><time>2026-04-06T06:11:54.085Z</time></trkpt><trkpt lat="40.92126" lon="14.2939983"><ele>52.400000000000006</ele><time>2026-04-06T06:11:55.085Z</time></trkpt><trkpt lat="40.9213467" lon="14.2940333"><ele>52.2</ele><time>2026-04-06T06:11:56.085Z</time></trkpt><trkpt lat="40.921435" lon="14.2940683"><ele>52.0</ele><time>2026-04-06T06:11:57.085Z</time></trkpt><trkpt lat="40.921525" lon="14.294105"><ele>51.99999999999999</ele><time>2026-04-06T06:11:58.084Z</time></trkpt><trkpt lat="40.9216117" lon="14.2941383"><ele>52.0</ele><time>2026-04-06T06:11:59.086Z</time></trkpt><trkpt lat="40.9216967" lon="14.2941717"><ele>52.0</ele><time>2026-04-06T06:12:00.087Z</time></trkpt><trkpt lat="40.92178" lon="14.294205"><ele>52.0</ele><time>2026-04-06T06:12:01.085Z</time></trkpt><trkpt lat="40.921865" lon="14.294235"><ele>51.99999999999999</ele><time>2026-04-06T06:12:02.085Z</time></trkpt><trkpt lat="40.9219533" lon="14.29427"><ele>52.0</ele><time>2026-04-06T06:12:03.085Z</time></trkpt><trkpt lat="40.92204" lon="14.2943067"><ele>51.8</ele><time>2026-04-06T06:12:04.085Z</time></trkpt><trkpt lat="40.9221267" lon="14.2943367"><ele>51.6</ele><time>2026-04-06T06:12:05.085Z</time></trkpt><trkpt lat="40.9222133" lon="14.29437"><ele>51.4</ele><time>2026-04-06T06:12:06.085Z</time></trkpt><trkpt lat="40.9223017" lon="14.2944033"><ele>51.199999999999996</ele><time>2026-04-06T06:12:07.085Z</time></trkpt><trkpt lat="40.92239" lon="14.29444"><ele>51.0</ele><time>2026-04-06T06:12:08.085Z</time></trkpt><trkpt lat="40.9224767" lon="14.2944817"><ele>51.0</ele><time>2026-04-06T06:12:09.086Z</time></trkpt><trkpt lat="40.9225633" lon="14.29453"><ele>51.0</ele><time>2026-04-06T06:12:10.086Z</time></trkpt><trkpt lat="40.922645" lon="14.2945883"><ele>51.0</ele><time>2026-04-06T06:12:11.085Z</time></trkpt><trkpt lat="40.9227217" lon="14.294655"><ele>51.0</ele><time>2026-04-06T06:12:12.085Z</time></trkpt><trkpt lat="40.9227917" lon="14.294735"><ele>51.0</ele><time>2026-04-06T06:12:13.085Z</time></trkpt><trkpt lat="40.92285" lon="14.294825"><ele>50.8</ele><time>2026-04-06T06:12:14.085Z</time></trkpt><trkpt lat="40.922905" lon="14.294925"><ele>50.599999999999994</ele><time>2026-04-06T06:12:15.086Z</time></trkpt><trkpt lat="40.9229567" lon="14.2950267"><ele>50.4</ele><time>2026-04-06T06:12:16.084Z</time></trkpt><trkpt lat="40.92301" lon="14.295125"><ele>50.2</ele><time>2026-04-06T06:12:17.086Z</time></trkpt><trkpt lat="40.923065" lon="14.2952183"><ele>50.0</ele><time>2026-04-06T06:12:18.085Z</time></trkpt><trkpt lat="40.92312" lon="14.2953167"><ele>50.0</ele><time>2026-04-06T06:12:19.085Z</time></trkpt><trkpt lat="40.9231783" lon="14.295415"><ele>50.0</ele><time>2026-04-06T06:12:20.085Z</time></trkpt><trkpt lat="40.923235" lon="14.2955117"><ele>50.0</ele><time>2026-04-06T06:12:21.085Z</time></trkpt><trkpt lat="40.9232883" lon="14.29561"><ele>50.0</ele><time>2026-04-06T06:12:22.087Z</time></trkpt><trkpt lat="40.923345" lon="14.2957067"><ele>50.0</ele><time>2026-04-06T06:12:23.085Z</time></trkpt><trkpt lat="40.9234017" lon="14.2958"><ele>49.50000000000001</ele><time>2026-04-06T06:12:24.084Z</time></trkpt><trkpt lat="40.923455" lon="14.2958917"><ele>49.0</ele><time>2026-04-06T06:12:25.085Z</time></trkpt><trkpt lat="40.9235083" lon="14.295985"><ele>48.5</ele><time>2026-04-06T06:12:26.085Z</time></trkpt><trkpt lat="40.9235633" lon="14.2960783"><ele>48.0</ele><time>2026-04-06T06:12:27.084Z</time></trkpt><trkpt lat="40.9236167" lon="14.2961717"><ele>47.5</ele><time>2026-04-06T06:12:28.085Z</time></trkpt><trkpt lat="40.9236717" lon="14.2962667"><ele>47.0</ele><time>2026-04-06T06:12:29.085Z</time></trkpt><trkpt lat="40.9237283" lon="14.2963667"><ele>47.0</ele><time>2026-04-06T06:12:30.085Z</time></trkpt><trkpt lat="40.9237833" lon="14.2964617"><ele>47.0</ele><time>2026-04-06T06:12:31.085Z</time></trkpt><trkpt lat="40.923835" lon="14.2965617"><ele>47.0</ele><time>2026-04-06T06:12:32.085Z</time></trkpt><trkpt lat="40.9238933" lon="14.2966583"><ele>47.0</ele><time>2026-04-06T06:12:33.085Z</time></trkpt><trkpt lat="40.9239483" lon="14.2967583"><ele>47.0</ele><time>2026-04-06T06:12:34.085Z</time></trkpt><trkpt lat="40.924" lon="14.2968533"><ele>47.0</ele><time>2026-04-06T06:12:35.086Z</time></trkpt><trkpt lat="40.9240583" lon="14.2969433"><ele>47.0</ele><time>2026-04-06T06:12:36.085Z</time></trkpt><trkpt lat="40.924115" lon="14.2970417"><ele>47.0</ele><time>2026-04-06T06:12:37.086Z</time></trkpt><trkpt lat="40.9241683" lon="14.2971367"><ele>47.0</ele><time>2026-04-06T06:12:38.085Z</time></trkpt><trkpt lat="40.9242217" lon="14.297235"><ele>47.0</ele><time>2026-04-06T06:12:39.085Z</time></trkpt><trkpt lat="40.9242767" lon="14.297335"><ele>46.8</ele><time>2026-04-06T06:12:40.085Z</time></trkpt><trkpt lat="40.9243117" lon="14.2974333"><ele>46.6</ele><time>2026-04-06T06:12:41.085Z</time></trkpt><trkpt lat="40.9243717" lon="14.2975283"><ele>46.4</ele><time>2026-04-06T06:12:42.087Z</time></trkpt><trkpt lat="40.9244383" lon="14.2976217"><ele>46.199999999999996</ele><time>2026-04-06T06:12:43.085Z</time></trkpt><trkpt lat="40.9245" lon="14.2977183"><ele>46.0</ele><time>2026-04-06T06:12:44.085Z</time></trkpt><trkpt lat="40.9245617" lon="14.29781"><ele>46.0</ele><time>2026-04-06T06:12:45.085Z</time></trkpt><trkpt lat="40.9246217" lon="14.297905"><ele>46.0</ele><time>2026-04-06T06:12:46.085Z</time></trkpt><trkpt lat="40.924675" lon="14.2979967"><ele>46.0</ele><time>2026-04-06T06:12:47.085Z</time></trkpt><trkpt lat="40.9247267" lon="14.2980917"><ele>46.0</ele><time>2026-04-06T06:12:48.085Z</time></trkpt><trkpt lat="40.9247933" lon="14.29817"><ele>46.0</ele><time>2026-04-06T06:12:49.086Z</time></trkpt><trkpt lat="40.9248633" lon="14.298245"><ele>46.0</ele><time>2026-04-06T06:12:50.085Z</time></trkpt><trkpt lat="40.9249367" lon="14.29832"><ele>46.0</ele><time>2026-04-06T06:12:51.085Z</time></trkpt><trkpt lat="40.9250183" lon="14.298395"><ele>46.0</ele><time>2026-04-06T06:12:52.086Z</time></trkpt><trkpt lat="40.9250983" lon="14.2984567"><ele>46.0</ele><time>2026-04-06T06:12:53.084Z</time></trkpt><trkpt lat="40.9251817" lon="14.298515"><ele>46.0</ele><time>2026-04-06T06:12:54.086Z</time></trkpt><trkpt lat="40.92527" lon="14.2985633"><ele>46.0</ele><time>2026-04-06T06:12:55.086Z</time></trkpt><trkpt lat="40.925365" lon="14.298605"><ele>46.199999999999996</ele><time>2026-04-06T06:12:56.085Z</time></trkpt><trkpt lat="40.92546" lon="14.29864"><ele>46.4</ele><time>2026-04-06T06:12:57.087Z</time></trkpt><trkpt lat="40.9255533" lon="14.2986683"><ele>46.6</ele><time>2026-04-06T06:12:58.084Z</time></trkpt><trkpt lat="40.925645" lon="14.2986867"><ele>46.8</ele><time>2026-04-06T06:12:59.086Z</time></trkpt><trkpt lat="40.9257417" lon="14.2987"><ele>47.0</ele><time>2026-04-06T06:13:00.084Z</time></trkpt><trkpt lat="40.92584" lon="14.2987083"><ele>46.6</ele><time>2026-04-06T06:13:01.085Z</time></trkpt><trkpt lat="40.9259367" lon="14.2987133"><ele>46.2</ele><time>2026-04-06T06:13:02.085Z</time></trkpt><trkpt lat="40.9260333" lon="14.2987167"><ele>45.8</ele><time>2026-04-06T06:13:03.085Z</time></trkpt><trkpt lat="40.9261317" lon="14.2987183"><ele>45.4</ele><time>2026-04-06T06:13:04.084Z</time></trkpt><trkpt lat="40.9262267" lon="14.298715"><ele>45.0</ele><time>2026-04-06T06:13:05.087Z</time></trkpt><trkpt lat="40.9263167" lon="14.2987083"><ele>45.0</ele><time>2026-04-06T06:13:06.086Z</time></trkpt><trkpt lat="40.9264117" lon="14.2987033"><ele>45.0</ele><time>2026-04-06T06:13:07.085Z</time></trkpt><trkpt lat="40.9265033" lon="14.298695"><ele>45.0</ele><time>2026-04-06T06:13:08.085Z</time></trkpt><trkpt lat="40.9266017" lon="14.2986933"><ele>45.0</ele><time>2026-04-06T06:13:09.085Z</time></trkpt><trkpt lat="40.9266933" lon="14.29869"><ele>45.0</ele><time>2026-04-06T06:13:10.084Z</time></trkpt><trkpt lat="40.9267833" lon="14.2986817"><ele>44.666666666666664</ele><time>2026-04-06T06:13:11.084Z</time></trkpt><trkpt lat="40.9268733" lon="14.2986717"><ele>44.333333333333336</ele><time>2026-04-06T06:13:12.085Z</time></trkpt><trkpt lat="40.9269617" lon="14.2986633"><ele>44.0</ele><time>2026-04-06T06:13:13.085Z</time></trkpt><trkpt lat="40.9270467" lon="14.298655"><ele>43.66666666666667</ele><time>2026-04-06T06:13:14.085Z</time></trkpt><trkpt lat="40.9271267" lon="14.2986567"><ele>43.333333333333336</ele><time>2026-04-06T06:13:15.085Z</time></trkpt><trkpt lat="40.9272017" lon="14.29867"><ele>43.0</ele><time>2026-04-06T06:13:16.085Z</time></trkpt><trkpt lat="40.9272817" lon="14.2986833"><ele>43.0</ele><time>2026-04-06T06:13:17.085Z</time></trkpt><trkpt lat="40.9273633" lon="14.2986833"><ele>43.0</ele><time>2026-04-06T06:13:18.087Z</time></trkpt><trkpt lat="40.927445" lon="14.2986667"><ele>43.0</ele><time>2026-04-06T06:13:19.085Z</time></trkpt><trkpt lat="40.927525" lon="14.2986383"><ele>43.0</ele><time>2026-04-06T06:13:20.085Z</time></trkpt><trkpt lat="40.927605" lon="14.2986067"><ele>43.0</ele><time>2026-04-06T06:13:21.085Z</time></trkpt><trkpt lat="40.9276867" lon="14.2985817"><ele>43.0</ele><time>2026-04-06T06:13:22.085Z</time></trkpt><trkpt lat="40.92777" lon="14.2985633"><ele>43.0</ele><time>2026-04-06T06:13:23.085Z</time></trkpt><trkpt lat="40.9278533" lon="14.2985483"><ele>43.0</ele><time>2026-04-06T06:13:24.085Z</time></trkpt><trkpt lat="40.92794" lon="14.29854"><ele>43.0</ele><time>2026-04-06T06:13:25.085Z</time></trkpt><trkpt lat="40.92803" lon="14.2985333"><ele>43.0</ele><time>2026-04-06T06:13:26.085Z</time></trkpt><trkpt lat="40.9281183" lon="14.29852"><ele>43.0</ele><time>2026-04-06T06:13:27.085Z</time></trkpt><trkpt lat="40.9282067" lon="14.2985067"><ele>43.0</ele><time>2026-04-06T06:13:28.085Z</time></trkpt><trkpt lat="40.9282933" lon="14.2984917"><ele>43.0</ele><time>2026-04-06T06:13:29.085Z</time></trkpt><trkpt lat="40.92838" lon="14.2984783"><ele>43.0</ele><time>2026-04-06T06:13:30.085Z</time></trkpt><trkpt lat="40.9284667" lon="14.2984667"><ele>43.0</ele><time>2026-04-06T06:13:31.085Z</time></trkpt><trkpt lat="40.9285567" lon="14.2984533"><ele>43.0</ele><time>2026-04-06T06:13:32.085Z</time></trkpt><trkpt lat="40.928645" lon="14.29844"><ele>43.0</ele><time>2026-04-06T06:13:33.086Z</time></trkpt><trkpt lat="40.9287333" lon="14.2984267"><ele>43.0</ele><time>2026-04-06T06:13:34.084Z</time></trkpt><trkpt lat="40.9288217" lon="14.2984167"><ele>42.833333333333336</ele><time>2026-04-06T06:13:35.084Z</time></trkpt><trkpt lat="40.9289083" lon="14.2984033"><ele>42.66666666666667</ele><time>2026-04-06T06:13:36.085Z</time></trkpt><trkpt lat="40.9289983" lon="14.2983933"><ele>42.5</ele><time>2026-04-06T06:13:37.085Z</time></trkpt><trkpt lat="40.929085" lon="14.2983783"><ele>42.333333333333336</ele><time>2026-04-06T06:13:38.085Z</time></trkpt><trkpt lat="40.9291717" lon="14.2983617"><ele>42.166666666666664</ele><time>2026-04-06T06:13:39.086Z</time></trkpt><trkpt lat="40.92926" lon="14.2983483"><ele>42.0</ele><time>2026-04-06T06:13:40.085Z</time></trkpt><trkpt lat="40.9293467" lon="14.2983317"><ele>42.0</ele><time>2026-04-06T06:13:41.086Z</time></trkpt><trkpt lat="40.9294317" lon="14.2983167"><ele>42.0</ele><time>2026-04-06T06:13:42.085Z</time></trkpt><trkpt lat="40.9295183" lon="14.2983017"><ele>42.0</ele><time>2026-04-06T06:13:43.084Z</time></trkpt><trkpt lat="40.9296067" lon="14.2982917"><ele>42.0</ele><time>2026-04-06T06:13:44.085Z</time></trkpt><trkpt lat="40.9296933" lon="14.2982783"><ele>42.0</ele><time>2026-04-06T06:13:45.085Z</time></trkpt><trkpt lat="40.9297817" lon="14.2982767"><ele>42.0</ele><time>2026-04-06T06:13:46.085Z</time></trkpt><trkpt lat="40.929865" lon="14.2983"><ele>42.0</ele><time>2026-04-06T06:13:47.086Z</time></trkpt><trkpt lat="40.9299467" lon="14.298345"><ele>42.0</ele><time>2026-04-06T06:13:48.085Z</time></trkpt><trkpt lat="40.9300233" lon="14.29841"><ele>42.0</ele><time>2026-04-06T06:13:49.085Z</time></trkpt><trkpt lat="40.93009" lon="14.2984833"><ele>42.0</ele><time>2026-04-06T06:13:50.085Z</time></trkpt><trkpt lat="40.9301533" lon="14.2985683"><ele>42.0</ele><time>2026-04-06T06:13:51.085Z</time></trkpt><trkpt lat="40.9302133" lon="14.2986517"><ele>42.0</ele><time>2026-04-06T06:13:52.084Z</time></trkpt><trkpt lat="40.9302733" lon="14.2987333"><ele>42.0</ele><time>2026-04-06T06:13:53.085Z</time></trkpt><trkpt lat="40.93033" lon="14.2988183"><ele>42.0</ele><time>2026-04-06T06:13:54.085Z</time></trkpt><trkpt lat="40.9303883" lon="14.2989033"><ele>42.0</ele><time>2026-04-06T06:13:55.085Z</time></trkpt><trkpt lat="40.9304483" lon="14.2989783"><ele>42.0</ele><time>2026-04-06T06:13:56.085Z</time></trkpt><trkpt lat="40.9305067" lon="14.2990583"><ele>42.0</ele><time>2026-04-06T06:13:57.085Z</time></trkpt><trkpt lat="40.9305633" lon="14.29914"><ele>42.0</ele><time>2026-04-06T06:13:58.085Z</time></trkpt><trkpt lat="40.93062" lon="14.29922"><ele>41.666666666666664</ele><time>2026-04-06T06:13:59.085Z</time></trkpt><trkpt lat="40.9306783" lon="14.2993017"><ele>41.333333333333336</ele><time>2026-04-06T06:14:00.087Z</time></trkpt><trkpt lat="40.9307417" lon="14.2993833"><ele>41.0</ele><time>2026-04-06T06:14:01.086Z</time></trkpt><trkpt lat="40.9308033" lon="14.2994667"><ele>40.66666666666667</ele><time>2026-04-06T06:14:02.086Z</time></trkpt><trkpt lat="40.9308633" lon="14.2995583"><ele>40.333333333333336</ele><time>2026-04-06T06:14:03.085Z</time></trkpt><trkpt lat="40.93092" lon="14.299645"><ele>40.0</ele><time>2026-04-06T06:14:04.084Z</time></trkpt><trkpt lat="40.930985" lon="14.2997433"><ele>40.0</ele><time>2026-04-06T06:14:05.084Z</time></trkpt><trkpt lat="40.931045" lon="14.2998267"><ele>40.0</ele><time>2026-04-06T06:14:06.089Z</time></trkpt><trkpt lat="40.9311083" lon="14.2999133"><ele>40.0</ele><time>2026-04-06T06:14:07.085Z</time></trkpt><trkpt lat="40.9311717" lon="14.3"><ele>40.0</ele><time>2026-04-06T06:14:08.085Z</time></trkpt><trkpt lat="40.9312317" lon="14.3000883"><ele>40.0</ele><time>2026-04-06T06:14:09.086Z</time></trkpt><trkpt lat="40.9312933" lon="14.3001767"><ele>40.0</ele><time>2026-04-06T06:14:10.084Z</time></trkpt><trkpt lat="40.931355" lon="14.3002633"><ele>40.0</ele><time>2026-04-06T06:14:11.085Z</time></trkpt><trkpt lat="40.9314133" lon="14.3003467"><ele>40.0</ele><time>2026-04-06T06:14:12.085Z</time></trkpt><trkpt lat="40.9314717" lon="14.300435"><ele>40.0</ele><time>2026-04-06T06:14:13.085Z</time></trkpt><trkpt lat="40.9315317" lon="14.300525"><ele>40.0</ele><time>2026-04-06T06:14:14.085Z</time></trkpt><trkpt lat="40.9315917" lon="14.300605"><ele>40.0</ele><time>2026-04-06T06:14:15.085Z</time></trkpt><trkpt lat="40.9316483" lon="14.3006917"><ele>40.0</ele><time>2026-04-06T06:14:16.087Z</time></trkpt><trkpt lat="40.9317033" lon="14.3007733"><ele>40.0</ele><time>2026-04-06T06:14:17.085Z</time></trkpt><trkpt lat="40.9317583" lon="14.30085"><ele>40.0</ele><time>2026-04-06T06:14:18.086Z</time></trkpt><trkpt lat="40.9318167" lon="14.3009233"><ele>40.0</ele><time>2026-04-06T06:14:19.085Z</time></trkpt><trkpt lat="40.9318767" lon="14.3009917"><ele>40.0</ele><time>2026-04-06T06:14:20.085Z</time></trkpt><trkpt lat="40.9319333" lon="14.3010517"><ele>40.0</ele><time>2026-04-06T06:14:21.085Z</time></trkpt><trkpt lat="40.9320033" lon="14.3011083"><ele>40.0</ele><time>2026-04-06T06:14:22.085Z</time></trkpt><trkpt lat="40.9320767" lon="14.3011567"><ele>40.0</ele><time>2026-04-06T06:14:23.085Z</time></trkpt><trkpt lat="40.93215" lon="14.301185"><ele>40.0</ele><time>2026-04-06T06:14:24.085Z</time></trkpt><trkpt lat="40.932225" lon="14.3012067"><ele>40.0</ele><time>2026-04-06T06:14:25.085Z</time></trkpt><trkpt lat="40.9323067" lon="14.3012217"><ele>40.0</ele><time>2026-04-06T06:14:26.086Z</time></trkpt><trkpt lat="40.9323833" lon="14.3012267"><ele>40.0</ele><time>2026-04-06T06:14:27.085Z</time></trkpt><trkpt lat="40.9324667" lon="14.3012283"><ele>40.0</ele><time>2026-04-06T06:14:28.085Z</time></trkpt><trkpt lat="40.9325467" lon="14.3012317"><ele>40.0</ele><time>2026-04-06T06:14:29.084Z</time></trkpt><trkpt lat="40.93263" lon="14.3012367"><ele>40.0</ele><time>2026-04-06T06:14:30.086Z</time></trkpt><trkpt lat="40.93271" lon="14.3012383"><ele>40.0</ele><time>2026-04-06T06:14:31.084Z</time></trkpt><trkpt lat="40.9327917" lon="14.30124"><ele>40.0</ele><time>2026-04-06T06:14:32.085Z</time></trkpt><trkpt lat="40.9328717" lon="14.30124"><ele>40.0</ele><time>2026-04-06T06:14:33.085Z</time></trkpt><trkpt lat="40.9329517" lon="14.3012383"><ele>39.833333333333336</ele><time>2026-04-06T06:14:34.085Z</time></trkpt><trkpt lat="40.933035" lon="14.30124"><ele>39.66666666666667</ele><time>2026-04-06T06:14:35.085Z</time></trkpt><trkpt lat="40.933115" lon="14.3012417"><ele>39.5</ele><time>2026-04-06T06:14:36.085Z</time></trkpt><trkpt lat="40.933195" lon="14.30124"><ele>39.333333333333336</ele><time>2026-04-06T06:14:37.085Z</time></trkpt><trkpt lat="40.9332767" lon="14.30124"><ele>39.166666666666664</ele><time>2026-04-06T06:14:38.085Z</time></trkpt><trkpt lat="40.93335" lon="14.3012483"><ele>39.0</ele><time>2026-04-06T06:14:39.085Z</time></trkpt><trkpt lat="40.9334267" lon="14.3012617"><ele>38.85714285714286</ele><time>2026-04-06T06:14:40.085Z</time></trkpt><trkpt lat="40.933505" lon="14.30128"><ele>38.71428571428571</ele><time>2026-04-06T06:14:41.089Z</time></trkpt><trkpt lat="40.93358" lon="14.3013083"><ele>38.57142857142857</ele><time>2026-04-06T06:14:42.085Z</time></trkpt><trkpt lat="40.9336467" lon="14.3013567"><ele>38.42857142857143</ele><time>2026-04-06T06:14:43.085Z</time></trkpt><trkpt lat="40.9337133" lon="14.3014067"><ele>38.28571428571429</ele><time>2026-04-06T06:14:44.085Z</time></trkpt><trkpt lat="40.9337767" lon="14.3014433"><ele>38.14285714285714</ele><time>2026-04-06T06:14:45.085Z</time></trkpt><trkpt lat="40.9338433" lon="14.30146"><ele>38.0</ele><time>2026-04-06T06:14:46.085Z</time></trkpt><trkpt lat="40.9339083" lon="14.3014433"><ele>38.14285714285714</ele><time>2026-04-06T06:14:47.086Z</time></trkpt><trkpt lat="40.933975" lon="14.3014067"><ele>38.28571428571429</ele><time>2026-04-06T06:14:48.086Z</time></trkpt><trkpt lat="40.934035" lon="14.3013567"><ele>38.42857142857143</ele><time>2026-04-06T06:14:49.085Z</time></trkpt><trkpt lat="40.9340983" lon="14.3013067"><ele>38.57142857142857</ele><time>2026-04-06T06:14:50.085Z</time></trkpt><trkpt lat="40.9341583" lon="14.3012667"><ele>38.71428571428571</ele><time>2026-04-06T06:14:51.085Z</time></trkpt><trkpt lat="40.93422" lon="14.3012333"><ele>38.85714285714286</ele><time>2026-04-06T06:14:52.086Z</time></trkpt><trkpt lat="40.9342833" lon="14.30121"><ele>39.0</ele><time>2026-04-06T06:14:53.085Z</time></trkpt><trkpt lat="40.93435" lon="14.3011817"><ele>39.0</ele><time>2026-04-06T06:14:54.085Z</time></trkpt><trkpt lat="40.9344217" lon="14.3011783"><ele>39.0</ele><time>2026-04-06T06:14:55.086Z</time></trkpt><trkpt lat="40.9345067" lon="14.301175"><ele>39.0</ele><time>2026-04-06T06:14:56.085Z</time></trkpt><trkpt lat="40.9345967" lon="14.301195"><ele>39.0</ele><time>2026-04-06T06:14:57.084Z</time></trkpt><trkpt lat="40.9346667" lon="14.3012033"><ele>39.0</ele><time>2026-04-06T06:14:58.085Z</time></trkpt><trkpt lat="40.9347517" lon="14.3012133"><ele>39.0</ele><time>2026-04-06T06:14:59.084Z</time></trkpt><trkpt lat="40.93483" lon="14.3012167"><ele>39.0</ele><time>2026-04-06T06:15:00.085Z</time></trkpt><trkpt lat="40.934905" lon="14.30122"><ele>39.0</ele><time>2026-04-06T06:15:01.086Z</time></trkpt><trkpt lat="40.9349817" lon="14.3012217"><ele>39.0</ele><time>2026-04-06T06:15:02.085Z</time></trkpt><trkpt lat="40.935065" lon="14.3012367"><ele>39.0</ele><time>2026-04-06T06:15:03.085Z</time></trkpt><trkpt lat="40.935145" lon="14.3012417"><ele>39.0</ele><time>2026-04-06T06:15:04.085Z</time></trkpt><trkpt lat="40.9352217" lon="14.3012433"><ele>39.0</ele><time>2026-04-06T06:15:05.085Z</time></trkpt><trkpt lat="40.9352967" lon="14.30125"><ele>38.666666666666664</ele><time>2026-04-06T06:15:06.085Z</time></trkpt><trkpt lat="40.9353717" lon="14.3012567"><ele>38.333333333333336</ele><time>2026-04-06T06:15:07.085Z</time></trkpt><trkpt lat="40.93545" lon="14.3012633"><ele>38.0</ele><time>2026-04-06T06:15:08.085Z</time></trkpt><trkpt lat="40.9355267" lon="14.3012633"><ele>37.66666666666667</ele><time>2026-04-06T06:15:09.085Z</time></trkpt><trkpt lat="40.935605" lon="14.30126"><ele>37.333333333333336</ele><time>2026-04-06T06:15:10.085Z</time></trkpt><trkpt lat="40.9356833" lon="14.301255"><ele>37.0</ele><time>2026-04-06T06:15:11.085Z</time></trkpt><trkpt lat="40.9357617" lon="14.3012417"><ele>37.0</ele><time>2026-04-06T06:15:12.085Z</time></trkpt><trkpt lat="40.935835" lon="14.3012283"><ele>37.0</ele><time>2026-04-06T06:15:13.085Z</time></trkpt><trkpt lat="40.9359117" lon="14.3012133"><ele>37.0</ele><time>2026-04-06T06:15:14.085Z</time></trkpt><trkpt lat="40.9359883" lon="14.3011983"><ele>37.0</ele><time>2026-04-06T06:15:15.085Z</time></trkpt><trkpt lat="40.93607" lon="14.3011883"><ele>37.0</ele><time>2026-04-06T06:15:16.084Z</time></trkpt><trkpt lat="40.9361467" lon="14.3011717"><ele>37.0</ele><time>2026-04-06T06:15:17.085Z</time></trkpt><trkpt lat="40.9362233" lon="14.3011567"><ele>37.0</ele><time>2026-04-06T06:15:18.085Z</time></trkpt><trkpt lat="40.9363" lon="14.30114"><ele>37.0</ele><time>2026-04-06T06:15:19.085Z</time></trkpt><trkpt lat="40.9363767" lon="14.3011267"><ele>37.0</ele><time>2026-04-06T06:15:20.085Z</time></trkpt><trkpt lat="40.936455" lon="14.301115"><ele>37.0</ele><time>2026-04-06T06:15:21.085Z</time></trkpt><trkpt lat="40.9365367" lon="14.3011017"><ele>37.0</ele><time>2026-04-06T06:15:22.086Z</time></trkpt><trkpt lat="40.9366167" lon="14.3010867"><ele>37.0</ele><time>2026-04-06T06:15:23.085Z</time></trkpt><trkpt lat="40.9366967" lon="14.3010717"><ele>37.0</ele><time>2026-04-06T06:15:24.086Z</time></trkpt><trkpt lat="40.9367733" lon="14.3010567"><ele>37.0</ele><time>2026-04-06T06:15:25.086Z</time></trkpt><trkpt lat="40.936855" lon="14.3010383"><ele>37.0</ele><time>2026-04-06T06:15:26.085Z</time></trkpt><trkpt lat="40.9369367" lon="14.3010183"><ele>37.0</ele><time>2026-04-06T06:15:27.086Z</time></trkpt><trkpt lat="40.9370167" lon="14.3009967"><ele>37.0</ele><time>2026-04-06T06:15:28.084Z</time></trkpt><trkpt lat="40.9370983" lon="14.3009833"><ele>37.0</ele><time>2026-04-06T06:15:29.084Z</time></trkpt><trkpt lat="40.9371817" lon="14.3009667"><ele>37.0</ele><time>2026-04-06T06:15:30.084Z</time></trkpt><trkpt lat="40.9372633" lon="14.30095"><ele>37.0</ele><time>2026-04-06T06:15:31.084Z</time></trkpt><trkpt lat="40.9373433" lon="14.300935"><ele>37.0</ele><time>2026-04-06T06:15:32.084Z</time></trkpt><trkpt lat="40.9374267" lon="14.3009217"><ele>37.0</ele><time>2026-04-06T06:15:33.084Z</time></trkpt><trkpt lat="40.937505" lon="14.3009"><ele>37.0</ele><time>2026-04-06T06:15:34.085Z</time></trkpt><trkpt lat="40.937585" lon="14.3008783"><ele>37.0</ele><time>2026-04-06T06:15:35.084Z</time></trkpt><trkpt lat="40.9376667" lon="14.30086"><ele>37.16666666666667</ele><time>2026-04-06T06:15:36.085Z</time></trkpt><trkpt lat="40.9377467" lon="14.30084"><ele>37.333333333333336</ele><time>2026-04-06T06:15:37.084Z</time></trkpt><trkpt lat="40.9378267" lon="14.3008233"><ele>37.5</ele><time>2026-04-06T06:15:38.084Z</time></trkpt><trkpt lat="40.9379067" lon="14.3008083"><ele>37.666666666666664</ele><time>2026-04-06T06:15:39.084Z</time></trkpt><trkpt lat="40.937985" lon="14.3007833"><ele>37.83333333333333</ele><time>2026-04-06T06:15:40.085Z</time></trkpt><trkpt lat="40.9380617" lon="14.3007483"><ele>38.0</ele><time>2026-04-06T06:15:41.084Z</time></trkpt><trkpt lat="40.9381367" lon="14.3007133"><ele>38.0</ele><time>2026-04-06T06:15:42.086Z</time></trkpt><trkpt lat="40.9382117" lon="14.3006767"><ele>38.0</ele><time>2026-04-06T06:15:43.084Z</time></trkpt><trkpt lat="40.9382867" lon="14.3006333"><ele>38.0</ele><time>2026-04-06T06:15:44.084Z</time></trkpt><trkpt lat="40.9383617" lon="14.30059"><ele>38.0</ele><time>2026-04-06T06:15:45.086Z</time></trkpt><trkpt lat="40.9384367" lon="14.300545"><ele>38.0</ele><time>2026-04-06T06:15:46.085Z</time></trkpt><trkpt lat="40.9385133" lon="14.3005033"><ele>38.0</ele><time>2026-04-06T06:15:47.085Z</time></trkpt><trkpt lat="40.9385917" lon="14.3004583"><ele>37.83333333333333</ele><time>2026-04-06T06:15:48.086Z</time></trkpt><trkpt lat="40.938665" lon="14.300415"><ele>37.666666666666664</ele><time>2026-04-06T06:15:49.085Z</time></trkpt><trkpt lat="40.9387383" lon="14.30037"><ele>37.5</ele><time>2026-04-06T06:15:50.085Z</time></trkpt><trkpt lat="40.9388133" lon="14.3003233"><ele>37.333333333333336</ele><time>2026-04-06T06:15:51.086Z</time></trkpt><trkpt lat="40.938885" lon="14.3002767"><ele>37.16666666666667</ele><time>2026-04-06T06:15:52.085Z</time></trkpt><trkpt lat="40.9389583" lon="14.3002283"><ele>37.0</ele><time>2026-04-06T06:15:53.085Z</time></trkpt><trkpt lat="40.9390283" lon="14.3001817"><ele>37.0</ele><time>2026-04-06T06:15:54.086Z</time></trkpt><trkpt lat="40.939105" lon="14.3001333"><ele>37.0</ele><time>2026-04-06T06:15:55.087Z</time></trkpt><trkpt lat="40.9391767" lon="14.3000833"><ele>37.0</ele><time>2026-04-06T06:15:56.084Z</time></trkpt><trkpt lat="40.939245" lon="14.3000333"><ele>37.0</ele><time>2026-04-06T06:15:57.085Z</time></trkpt><trkpt lat="40.9393133" lon="14.299985"><ele>37.0</ele><time>2026-04-06T06:15:58.085Z</time></trkpt><trkpt lat="40.939385" lon="14.2999333"><ele>37.0</ele><time>2026-04-06T06:15:59.084Z</time></trkpt><trkpt lat="40.9394583" lon="14.2998833"><ele>36.833333333333336</ele><time>2026-04-06T06:16:00.084Z</time></trkpt><trkpt lat="40.9395283" lon="14.2998317"><ele>36.66666666666667</ele><time>2026-04-06T06:16:01.085Z</time></trkpt><trkpt lat="40.9396017" lon="14.2997883"><ele>36.5</ele><time>2026-04-06T06:16:02.084Z</time></trkpt><trkpt lat="40.9396767" lon="14.2997433"><ele>36.333333333333336</ele><time>2026-04-06T06:16:03.084Z</time></trkpt><trkpt lat="40.93975" lon="14.2996967"><ele>36.166666666666664</ele><time>2026-04-06T06:16:04.084Z</time></trkpt><trkpt lat="40.9398233" lon="14.2996483"><ele>36.0</ele><time>2026-04-06T06:16:05.086Z</time></trkpt><trkpt lat="40.9398983" lon="14.29961"><ele>36.0</ele><time>2026-04-06T06:16:06.085Z</time></trkpt><trkpt lat="40.93998" lon="14.2995733"><ele>36.0</ele><time>2026-04-06T06:16:07.084Z</time></trkpt><trkpt lat="40.9400583" lon="14.2995383"><ele>36.0</ele><time>2026-04-06T06:16:08.085Z</time></trkpt><trkpt lat="40.940135" lon="14.2995067"><ele>36.0</ele><time>2026-04-06T06:16:09.084Z</time></trkpt><trkpt lat="40.940215" lon="14.299485"><ele>36.0</ele><time>2026-04-06T06:16:10.084Z</time></trkpt><trkpt lat="40.9402933" lon="14.2994633"><ele>36.0</ele><time>2026-04-06T06:16:11.084Z</time></trkpt><trkpt lat="40.9403717" lon="14.2994417"><ele>36.166666666666664</ele><time>2026-04-06T06:16:12.085Z</time></trkpt><trkpt lat="40.94045" lon="14.2994217"><ele>36.333333333333336</ele><time>2026-04-06T06:16:13.084Z</time></trkpt><trkpt lat="40.94053" lon="14.299405"><ele>36.5</ele><time>2026-04-06T06:16:14.084Z</time></trkpt><trkpt lat="40.940605" lon="14.2993833"><ele>36.66666666666667</ele><time>2026-04-06T06:16:15.085Z</time></trkpt><trkpt lat="40.9406783" lon="14.2993617"><ele>36.833333333333336</ele><time>2026-04-06T06:16:16.084Z</time></trkpt><trkpt lat="40.9407533" lon="14.29934"><ele>37.0</ele><time>2026-04-06T06:16:17.084Z</time></trkpt><trkpt lat="40.9408333" lon="14.2993233"><ele>37.0</ele><time>2026-04-06T06:16:18.085Z</time></trkpt><trkpt lat="40.940915" lon="14.2993017"><ele>37.0</ele><time>2026-04-06T06:16:19.085Z</time></trkpt><trkpt lat="40.9409883" lon="14.2992717"><ele>37.0</ele><time>2026-04-06T06:16:20.085Z</time></trkpt><trkpt lat="40.9410667" lon="14.2992467"><ele>37.0</ele><time>2026-04-06T06:16:21.084Z</time></trkpt><trkpt lat="40.94114" lon="14.299225"><ele>37.0</ele><time>2026-04-06T06:16:22.084Z</time></trkpt><trkpt lat="40.9412167" lon="14.2992033"><ele>37.0</ele><time>2026-04-06T06:16:23.087Z</time></trkpt><trkpt lat="40.941295" lon="14.299185"><ele>37.0</ele><time>2026-04-06T06:16:24.084Z</time></trkpt><trkpt lat="40.941375" lon="14.29916"><ele>37.0</ele><time>2026-04-06T06:16:25.086Z</time></trkpt><trkpt lat="40.941455" lon="14.29914"><ele>37.0</ele><time>2026-04-06T06:16:26.084Z</time></trkpt><trkpt lat="40.9415417" lon="14.2991183"><ele>37.0</ele><time>2026-04-06T06:16:27.084Z</time></trkpt><trkpt lat="40.9416267" lon="14.299095"><ele>37.0</ele><time>2026-04-06T06:16:28.084Z</time></trkpt><trkpt lat="40.9417133" lon="14.2990717"><ele>37.0</ele><time>2026-04-06T06:16:29.085Z</time></trkpt><trkpt lat="40.9417967" lon="14.299055"><ele>36.833333333333336</ele><time>2026-04-06T06:16:30.084Z</time></trkpt><trkpt lat="40.9418817" lon="14.2990433"><ele>36.66666666666667</ele><time>2026-04-06T06:16:31.085Z</time></trkpt><trkpt lat="40.9419617" lon="14.29903"><ele>36.5</ele><time>2026-04-06T06:16:32.085Z</time></trkpt><trkpt lat="40.94204" lon="14.29901"><ele>36.333333333333336</ele><time>2026-04-06T06:16:33.085Z</time></trkpt><trkpt lat="40.9421183" lon="14.2989983"><ele>36.166666666666664</ele><time>2026-04-06T06:16:34.084Z</time></trkpt><trkpt lat="40.9421967" lon="14.2989933"><ele>36.0</ele><time>2026-04-06T06:16:35.084Z</time></trkpt><trkpt lat="40.9422767" lon="14.2989917"><ele>36.0</ele><time>2026-04-06T06:16:36.084Z</time></trkpt><trkpt lat="40.9423583" lon="14.2989883"><ele>36.0</ele><time>2026-04-06T06:16:37.084Z</time></trkpt><trkpt lat="40.9424433" lon="14.2989833"><ele>36.0</ele><time>2026-04-06T06:16:38.085Z</time></trkpt><trkpt lat="40.9425267" lon="14.2989783"><ele>36.0</ele><time>2026-04-06T06:16:39.084Z</time></trkpt><trkpt lat="40.9426067" lon="14.2989717"><ele>36.0</ele><time>2026-04-06T06:16:40.085Z</time></trkpt><trkpt lat="40.942685" lon="14.2989717"><ele>36.0</ele><time>2026-04-06T06:16:41.084Z</time></trkpt><trkpt lat="40.9427667" lon="14.298975"><ele>35.666666666666664</ele><time>2026-04-06T06:16:42.085Z</time></trkpt><trkpt lat="40.942845" lon="14.298975"><ele>35.333333333333336</ele><time>2026-04-06T06:16:43.086Z</time></trkpt><trkpt lat="40.942925" lon="14.298975"><ele>35.0</ele><time>2026-04-06T06:16:44.085Z</time></trkpt><trkpt lat="40.9430067" lon="14.2989883"><ele>34.66666666666667</ele><time>2026-04-06T06:16:45.084Z</time></trkpt><trkpt lat="40.9430817" lon="14.298995"><ele>34.333333333333336</ele><time>2026-04-06T06:16:46.084Z</time></trkpt><trkpt lat="40.9431583" lon="14.2990033"><ele>34.0</ele><time>2026-04-06T06:16:47.085Z</time></trkpt><trkpt lat="40.9432333" lon="14.299015"><ele>34.0</ele><time>2026-04-06T06:16:48.084Z</time></trkpt><trkpt lat="40.9433083" lon="14.2990167"><ele>34.0</ele><time>2026-04-06T06:16:49.084Z</time></trkpt><trkpt lat="40.9433833" lon="14.2990183"><ele>34.0</ele><time>2026-04-06T06:16:50.084Z</time></trkpt><trkpt lat="40.9434567" lon="14.2990217"><ele>34.0</ele><time>2026-04-06T06:16:51.085Z</time></trkpt><trkpt lat="40.94353" lon="14.2990317"><ele>34.0</ele><time>2026-04-06T06:16:52.085Z</time></trkpt><trkpt lat="40.94361" lon="14.299035"><ele>34.0</ele><time>2026-04-06T06:16:53.084Z</time></trkpt><trkpt lat="40.9436917" lon="14.2990433"><ele>33.66666666666667</ele><time>2026-04-06T06:16:54.084Z</time></trkpt><trkpt lat="40.9437717" lon="14.2990633"><ele>33.333333333333336</ele><time>2026-04-06T06:16:55.084Z</time></trkpt><trkpt lat="40.9438467" lon="14.2990817"><ele>33.0</ele><time>2026-04-06T06:16:56.085Z</time></trkpt><trkpt lat="40.9439267" lon="14.2990967"><ele>32.666666666666664</ele><time>2026-04-06T06:16:57.084Z</time></trkpt><trkpt lat="40.9440033" lon="14.29911"><ele>32.33333333333333</ele><time>2026-04-06T06:16:58.085Z</time></trkpt><trkpt lat="40.9440817" lon="14.2991283"><ele>32.0</ele><time>2026-04-06T06:16:59.085Z</time></trkpt><trkpt lat="40.94416" lon="14.2991567"><ele>32.14285714285714</ele><time>2026-04-06T06:17:00.085Z</time></trkpt><trkpt lat="40.9442367" lon="14.29919"><ele>32.285714285714285</ele><time>2026-04-06T06:17:01.087Z</time></trkpt><trkpt lat="40.944305" lon="14.29923"><ele>32.42857142857143</ele><time>2026-04-06T06:17:02.085Z</time></trkpt><trkpt lat="40.9443733" lon="14.2992567"><ele>32.57142857142857</ele><time>2026-04-06T06:17:03.084Z</time></trkpt><trkpt lat="40.94444" lon="14.299255"><ele>32.714285714285715</ele><time>2026-04-06T06:17:04.085Z</time></trkpt><trkpt lat="40.9445067" lon="14.2992483"><ele>32.857142857142854</ele><time>2026-04-06T06:17:05.084Z</time></trkpt><trkpt lat="40.9445767" lon="14.29925"><ele>33.0</ele><time>2026-04-06T06:17:06.085Z</time></trkpt><trkpt lat="40.944645" lon="14.2992517"><ele>33.0</ele><time>2026-04-06T06:17:07.084Z</time></trkpt><trkpt lat="40.9447167" lon="14.2992567"><ele>33.0</ele><time>2026-04-06T06:17:08.084Z</time></trkpt><trkpt lat="40.94479" lon="14.2992717"><ele>33.0</ele><time>2026-04-06T06:17:09.084Z</time></trkpt><trkpt lat="40.944865" lon="14.299285"><ele>33.0</ele><time>2026-04-06T06:17:10.084Z</time></trkpt><trkpt lat="40.9449417" lon="14.299305"><ele>33.0</ele><time>2026-04-06T06:17:11.084Z</time></trkpt><trkpt lat="40.9450133" lon="14.2993217"><ele>33.0</ele><time>2026-04-06T06:17:12.088Z</time></trkpt><trkpt lat="40.9450883" lon="14.2993383"><ele>33.0</ele><time>2026-04-06T06:17:13.084Z</time></trkpt><trkpt lat="40.94516" lon="14.2993483"><ele>33.0</ele><time>2026-04-06T06:17:14.085Z</time></trkpt><trkpt lat="40.945235" lon="14.2993617"><ele>33.0</ele><time>2026-04-06T06:17:15.088Z</time></trkpt><trkpt lat="40.94531" lon="14.2993717"><ele>33.0</ele><time>2026-04-06T06:17:16.088Z</time></trkpt><trkpt lat="40.9453817" lon="14.2993833"><ele>33.0</ele><time>2026-04-06T06:17:17.084Z</time></trkpt><trkpt lat="40.945455" lon="14.2993983"><ele>33.0</ele><time>2026-04-06T06:17:18.085Z</time></trkpt><trkpt lat="40.945525" lon="14.2994133"><ele>33.0</ele><time>2026-04-06T06:17:19.084Z</time></trkpt><trkpt lat="40.945595" lon="14.2994233"><ele>33.0</ele><time>2026-04-06T06:17:20.085Z</time></trkpt><trkpt lat="40.945665" lon="14.2994367"><ele>33.0</ele><time>2026-04-06T06:17:21.084Z</time></trkpt><trkpt lat="40.9457333" lon="14.2994533"><ele>33.0</ele><time>2026-04-06T06:17:22.084Z</time></trkpt><trkpt lat="40.9458067" lon="14.2994683"><ele>33.0</ele><time>2026-04-06T06:17:23.086Z</time></trkpt><trkpt lat="40.9458783" lon="14.2994817"><ele>33.0</ele><time>2026-04-06T06:17:24.086Z</time></trkpt><trkpt lat="40.94595" lon="14.2994967"><ele>33.0</ele><time>2026-04-06T06:17:25.086Z</time></trkpt><trkpt lat="40.946025" lon="14.2995167"><ele>33.0</ele><time>2026-04-06T06:17:26.084Z</time></trkpt><trkpt lat="40.9461017" lon="14.2995333"><ele>33.0</ele><time>2026-04-06T06:17:27.085Z</time></trkpt><trkpt lat="40.9461767" lon="14.2995467"><ele>32.833333333333336</ele><time>2026-04-06T06:17:28.084Z</time></trkpt><trkpt lat="40.94625" lon="14.2995683"><ele>32.666666666666664</ele><time>2026-04-06T06:17:29.085Z</time></trkpt><trkpt lat="40.9463233" lon="14.2995917"><ele>32.5</ele><time>2026-04-06T06:17:30.085Z</time></trkpt><trkpt lat="40.9463967" lon="14.2996267"><ele>32.33333333333333</ele><time>2026-04-06T06:17:31.085Z</time></trkpt><trkpt lat="40.9464633" lon="14.29968"><ele>32.166666666666664</ele><time>2026-04-06T06:17:32.085Z</time></trkpt><trkpt lat="40.9465233" lon="14.29975"><ele>32.0</ele><time>2026-04-06T06:17:33.085Z</time></trkpt><trkpt lat="40.9465667" lon="14.299835"><ele>32.0</ele><time>2026-04-06T06:17:34.085Z</time></trkpt><trkpt lat="40.9466" lon="14.2999317"><ele>31.999999999999996</ele><time>2026-04-06T06:17:35.085Z</time></trkpt><trkpt lat="40.9466267" lon="14.300025"><ele>32.0</ele><time>2026-04-06T06:17:36.084Z</time></trkpt><trkpt lat="40.9466533" lon="14.3001167"><ele>32.0</ele><time>2026-04-06T06:17:37.085Z</time></trkpt><trkpt lat="40.9466783" lon="14.3002033"><ele>31.999999999999996</ele><time>2026-04-06T06:17:38.084Z</time></trkpt><trkpt lat="40.946705" lon="14.300285"><ele>32.0</ele><time>2026-04-06T06:17:39.084Z</time></trkpt><trkpt lat="40.9467317" lon="14.300365"><ele>32.0</ele><time>2026-04-06T06:17:40.084Z</time></trkpt><trkpt lat="40.9467633" lon="14.300445"><ele>31.857142857142854</ele><time>2026-04-06T06:17:41.084Z</time></trkpt><trkpt lat="40.94679" lon="14.3005283"><ele>31.71428571428571</ele><time>2026-04-06T06:17:42.085Z</time></trkpt><trkpt lat="40.9468183" lon="14.300615"><ele>31.57142857142857</ele><time>2026-04-06T06:17:43.084Z</time></trkpt><trkpt lat="40.9468467" lon="14.300695"><ele>31.42857142857143</ele><time>2026-04-06T06:17:44.084Z</time></trkpt><trkpt lat="40.946875" lon="14.3007817"><ele>31.28571428571429</ele><time>2026-04-06T06:17:45.084Z</time></trkpt><trkpt lat="40.9469083" lon="14.30087"><ele>31.142857142857146</ele><time>2026-04-06T06:17:46.085Z</time></trkpt><trkpt lat="40.94694" lon="14.3009633"><ele>31.0</ele><time>2026-04-06T06:17:47.084Z</time></trkpt><trkpt lat="40.9469733" lon="14.3010517"><ele>31.000000000000004</ele><time>2026-04-06T06:17:48.085Z</time></trkpt><trkpt lat="40.947" lon="14.3011467"><ele>31.0</ele><time>2026-04-06T06:17:49.085Z</time></trkpt><trkpt lat="40.94703" lon="14.3012417"><ele>31.0</ele><time>2026-04-06T06:17:50.084Z</time></trkpt><trkpt lat="40.9470633" lon="14.301335"><ele>31.0</ele><time>2026-04-06T06:17:51.085Z</time></trkpt><trkpt lat="40.9470967" lon="14.3014267"><ele>31.000000000000004</ele><time>2026-04-06T06:17:52.083Z</time></trkpt><trkpt lat="40.9471267" lon="14.3015183"><ele>31.0</ele><time>2026-04-06T06:17:53.084Z</time></trkpt><trkpt lat="40.9471583" lon="14.3016117"><ele>31.28571428571429</ele><time>2026-04-06T06:17:54.084Z</time></trkpt><trkpt lat="40.9471933" lon="14.3017017"><ele>31.571428571428577</ele><time>2026-04-06T06:17:55.085Z</time></trkpt><trkpt lat="40.9472267" lon="14.3017883"><ele>31.857142857142858</ele><time>2026-04-06T06:17:56.085Z</time></trkpt><trkpt lat="40.9472617" lon="14.3018733"><ele>32.142857142857146</ele><time>2026-04-06T06:17:57.084Z</time></trkpt><trkpt lat="40.9473033" lon="14.3019517"><ele>32.42857142857143</ele><time>2026-04-06T06:17:58.084Z</time></trkpt><trkpt lat="40.9473533" lon="14.3020383"><ele>32.714285714285715</ele><time>2026-04-06T06:17:59.084Z</time></trkpt><trkpt lat="40.9474" lon="14.30211"><ele>33.0</ele><time>2026-04-06T06:18:00.084Z</time></trkpt><trkpt lat="40.9474433" lon="14.3021767"><ele>33.199999999999996</ele><time>2026-04-06T06:18:01.085Z</time></trkpt><trkpt lat="40.9475167" lon="14.3022583"><ele>33.4</ele><time>2026-04-06T06:18:03.085Z</time></trkpt><trkpt lat="40.9476233" lon="14.30227"><ele>33.599999999999994</ele><time>2026-04-06T06:18:05.084Z</time></trkpt><trkpt lat="40.9477583" lon="14.3022617"><ele>33.8</ele><time>2026-04-06T06:18:07.086Z</time></trkpt><trkpt lat="40.9478267" lon="14.302265"><ele>34.0</ele><time>2026-04-06T06:18:08.085Z</time></trkpt><trkpt lat="40.9479533" lon="14.3022883"><ele>33.71428571428571</ele><time>2026-04-06T06:18:10.084Z</time></trkpt><trkpt lat="40.9480217" lon="14.302295"><ele>33.42857142857143</ele><time>2026-04-06T06:18:11.086Z</time></trkpt><trkpt lat="40.9480867" lon="14.3022933"><ele>33.14285714285714</ele><time>2026-04-06T06:18:12.085Z</time></trkpt><trkpt lat="40.9481633" lon="14.302305"><ele>32.857142857142854</ele><time>2026-04-06T06:18:13.085Z</time></trkpt><trkpt lat="40.9482383" lon="14.30232"><ele>32.57142857142857</ele><time>2026-04-06T06:18:14.086Z</time></trkpt><trkpt lat="40.9483117" lon="14.3023333"><ele>32.285714285714285</ele><time>2026-04-06T06:18:15.087Z</time></trkpt><trkpt lat="40.9483867" lon="14.3023483"><ele>32.0</ele><time>2026-04-06T06:18:16.085Z</time></trkpt><trkpt lat="40.94846" lon="14.3023617"><ele>31.833333333333332</ele><time>2026-04-06T06:18:17.085Z</time></trkpt><trkpt lat="40.948535" lon="14.30238"><ele>31.666666666666664</ele><time>2026-04-06T06:18:18.086Z</time></trkpt><trkpt lat="40.9486133" lon="14.302395"><ele>31.5</ele><time>2026-04-06T06:18:19.086Z</time></trkpt><trkpt lat="40.9486917" lon="14.3024117"><ele>31.333333333333336</ele><time>2026-04-06T06:18:20.086Z</time></trkpt><trkpt lat="40.948765" lon="14.3024383"><ele>31.166666666666668</ele><time>2026-04-06T06:18:21.085Z</time></trkpt><trkpt lat="40.94884" lon="14.30246"><ele>31.0</ele><time>2026-04-06T06:18:22.086Z</time></trkpt><trkpt lat="40.948915" lon="14.3024733"><ele>31.000000000000004</ele><time>2026-04-06T06:18:23.085Z</time></trkpt><trkpt lat="40.9489933" lon="14.30249"><ele>31.0</ele><time>2026-04-06T06:18:24.087Z</time></trkpt><trkpt lat="40.94907" lon="14.302505"><ele>31.0</ele><time>2026-04-06T06:18:25.085Z</time></trkpt><trkpt lat="40.9491467" lon="14.3025183"><ele>31.0</ele><time>2026-04-06T06:18:26.088Z</time></trkpt><trkpt lat="40.9492217" lon="14.302535"><ele>31.000000000000004</ele><time>2026-04-06T06:18:27.087Z</time></trkpt><trkpt lat="40.9492967" lon="14.3025583"><ele>31.0</ele><time>2026-04-06T06:18:28.085Z</time></trkpt><trkpt lat="40.9493733" lon="14.3025633"><ele>31.333333333333336</ele><time>2026-04-06T06:18:29.085Z</time></trkpt><trkpt lat="40.9494483" lon="14.3025833"><ele>31.666666666666668</ele><time>2026-04-06T06:18:30.086Z</time></trkpt><trkpt lat="40.9495217" lon="14.3025967"><ele>32.0</ele><time>2026-04-06T06:18:31.086Z</time></trkpt><trkpt lat="40.949595" lon="14.30261"><ele>32.333333333333336</ele><time>2026-04-06T06:18:32.086Z</time></trkpt><trkpt lat="40.9496683" lon="14.302625"><ele>32.666666666666664</ele><time>2026-04-06T06:18:33.085Z</time></trkpt><trkpt lat="40.9497433" lon="14.302655"><ele>33.0</ele><time>2026-04-06T06:18:34.086Z</time></trkpt><trkpt lat="40.9498167" lon="14.302675"><ele>33.0</ele><time>2026-04-06T06:18:35.086Z</time></trkpt><trkpt lat="40.9498917" lon="14.3026967"><ele>33.0</ele><time>2026-04-06T06:18:36.085Z</time></trkpt><trkpt lat="40.9499633" lon="14.302715"><ele>33.0</ele><time>2026-04-06T06:18:37.085Z</time></trkpt><trkpt lat="40.950035" lon="14.3027283"><ele>33.0</ele><time>2026-04-06T06:18:38.086Z</time></trkpt><trkpt lat="40.9501067" lon="14.30275"><ele>33.0</ele><time>2026-04-06T06:18:39.084Z</time></trkpt><trkpt lat="40.95018" lon="14.30277"><ele>33.0</ele><time>2026-04-06T06:18:40.085Z</time></trkpt><trkpt lat="40.9502517" lon="14.3027867"><ele>33.0</ele><time>2026-04-06T06:18:41.084Z</time></trkpt><trkpt lat="40.95032" lon="14.3028067"><ele>32.857142857142854</ele><time>2026-04-06T06:18:42.086Z</time></trkpt><trkpt lat="40.9503817" lon="14.3028267"><ele>32.714285714285715</ele><time>2026-04-06T06:18:43.086Z</time></trkpt><trkpt lat="40.95045" lon="14.3028483"><ele>32.57142857142857</ele><time>2026-04-06T06:18:44.086Z</time></trkpt><trkpt lat="40.95052" lon="14.3028667"><ele>32.42857142857143</ele><time>2026-04-06T06:18:45.085Z</time></trkpt><trkpt lat="40.9505867" lon="14.302885"><ele>32.285714285714285</ele><time>2026-04-06T06:18:46.084Z</time></trkpt><trkpt lat="40.95065" lon="14.3029017"><ele>32.14285714285714</ele><time>2026-04-06T06:18:47.085Z</time></trkpt><trkpt lat="40.950715" lon="14.30292"><ele>32.0</ele><time>2026-04-06T06:18:48.085Z</time></trkpt><trkpt lat="40.9507833" lon="14.3029367"><ele>32.0</ele><time>2026-04-06T06:18:49.085Z</time></trkpt><trkpt lat="40.9508533" lon="14.302955"><ele>31.999999999999996</ele><time>2026-04-06T06:18:50.085Z</time></trkpt><trkpt lat="40.9509233" lon="14.3029783"><ele>32.0</ele><time>2026-04-06T06:18:51.085Z</time></trkpt><trkpt lat="40.9509983" lon="14.3029917"><ele>32.0</ele><time>2026-04-06T06:18:52.084Z</time></trkpt><trkpt lat="40.95107" lon="14.3030033"><ele>31.999999999999996</ele><time>2026-04-06T06:18:53.085Z</time></trkpt><trkpt lat="40.95114" lon="14.3030267"><ele>32.0</ele><time>2026-04-06T06:18:54.085Z</time></trkpt><trkpt lat="40.9512083" lon="14.303045"><ele>32.0</ele><time>2026-04-06T06:18:55.085Z</time></trkpt><trkpt lat="40.95128" lon="14.3030683"><ele>31.71428571428571</ele><time>2026-04-06T06:18:56.085Z</time></trkpt><trkpt lat="40.95135" lon="14.30309"><ele>31.428571428571423</ele><time>2026-04-06T06:18:57.084Z</time></trkpt><trkpt lat="40.95142" lon="14.303115"><ele>31.142857142857142</ele><time>2026-04-06T06:18:58.088Z</time></trkpt><trkpt lat="40.9514883" lon="14.3031367"><ele>30.857142857142854</ele><time>2026-04-06T06:18:59.085Z</time></trkpt><trkpt lat="40.9515583" lon="14.3031583"><ele>30.57142857142857</ele><time>2026-04-06T06:19:00.086Z</time></trkpt><trkpt lat="40.951625" lon="14.3031817"><ele>30.285714285714285</ele><time>2026-04-06T06:19:01.085Z</time></trkpt><trkpt lat="40.951695" lon="14.3032033"><ele>30.0</ele><time>2026-04-06T06:19:02.084Z</time></trkpt><trkpt lat="40.9517633" lon="14.3032267"><ele>30.0</ele><time>2026-04-06T06:19:03.084Z</time></trkpt><trkpt lat="40.9518333" lon="14.3032483"><ele>30.0</ele><time>2026-04-06T06:19:04.085Z</time></trkpt><trkpt lat="40.9519067" lon="14.30327"><ele>30.0</ele><time>2026-04-06T06:19:05.085Z</time></trkpt><trkpt lat="40.95198" lon="14.3032933"><ele>30.0</ele><time>2026-04-06T06:19:06.086Z</time></trkpt><trkpt lat="40.9520583" lon="14.3033167"><ele>30.0</ele><time>2026-04-06T06:19:07.084Z</time></trkpt><trkpt lat="40.952135" lon="14.30334"><ele>30.0</ele><time>2026-04-06T06:19:08.085Z</time></trkpt><trkpt lat="40.9522117" lon="14.3033617"><ele>30.0</ele><time>2026-04-06T06:19:09.085Z</time></trkpt><trkpt lat="40.9522867" lon="14.3033817"><ele>30.0</ele><time>2026-04-06T06:19:10.084Z</time></trkpt><trkpt lat="40.9523633" lon="14.30341"><ele>30.0</ele><time>2026-04-06T06:19:11.085Z</time></trkpt><trkpt lat="40.9524383" lon="14.30344"><ele>30.0</ele><time>2026-04-06T06:19:12.085Z</time></trkpt><trkpt lat="40.9525167" lon="14.3034633"><ele>30.0</ele><time>2026-04-06T06:19:13.084Z</time></trkpt><trkpt lat="40.9525917" lon="14.3034967"><ele>30.0</ele><time>2026-04-06T06:19:14.084Z</time></trkpt><trkpt lat="40.95267" lon="14.3035183"><ele>29.666666666666668</ele><time>2026-04-06T06:19:15.085Z</time></trkpt><trkpt lat="40.9527517" lon="14.303535"><ele>29.333333333333336</ele><time>2026-04-06T06:19:16.084Z</time></trkpt><trkpt lat="40.9528333" lon="14.3035483"><ele>29.0</ele><time>2026-04-06T06:19:17.085Z</time></trkpt><trkpt lat="40.9529117" lon="14.3035617"><ele>28.666666666666668</ele><time>2026-04-06T06:19:18.085Z</time></trkpt><trkpt lat="40.95299" lon="14.3035983"><ele>28.333333333333336</ele><time>2026-04-06T06:19:19.084Z</time></trkpt><trkpt lat="40.9530717" lon="14.3036367"><ele>28.0</ele><time>2026-04-06T06:19:20.084Z</time></trkpt><trkpt lat="40.95315" lon="14.303675"><ele>28.000000000000004</ele><time>2026-04-06T06:19:21.086Z</time></trkpt><trkpt lat="40.9532283" lon="14.3037067"><ele>28.0</ele><time>2026-04-06T06:19:22.084Z</time></trkpt><trkpt lat="40.9533033" lon="14.30373"><ele>28.0</ele><time>2026-04-06T06:19:23.085Z</time></trkpt><trkpt lat="40.9533783" lon="14.3037483"><ele>28.0</ele><time>2026-04-06T06:19:24.085Z</time></trkpt><trkpt lat="40.953455" lon="14.3037767"><ele>28.000000000000004</ele><time>2026-04-06T06:19:25.086Z</time></trkpt><trkpt lat="40.953535" lon="14.3038033"><ele>28.0</ele><time>2026-04-06T06:19:26.084Z</time></trkpt><trkpt lat="40.9536167" lon="14.30383"><ele>28.000000000000004</ele><time>2026-04-06T06:19:27.085Z</time></trkpt><trkpt lat="40.953695" lon="14.3038583"><ele>28.0</ele><time>2026-04-06T06:19:28.084Z</time></trkpt><trkpt lat="40.95377" lon="14.3038867"><ele>28.0</ele><time>2026-04-06T06:19:29.086Z</time></trkpt><trkpt lat="40.953845" lon="14.3039233"><ele>28.0</ele><time>2026-04-06T06:19:30.087Z</time></trkpt><trkpt lat="40.9539233" lon="14.3039633"><ele>28.000000000000004</ele><time>2026-04-06T06:19:31.085Z</time></trkpt><trkpt lat="40.9540033" lon="14.304005"><ele>28.0</ele><time>2026-04-06T06:19:32.085Z</time></trkpt><trkpt lat="40.954085" lon="14.304035"><ele>28.000000000000004</ele><time>2026-04-06T06:19:33.085Z</time></trkpt><trkpt lat="40.9541717" lon="14.3040617"><ele>28.0</ele><time>2026-04-06T06:19:34.084Z</time></trkpt><trkpt lat="40.9542567" lon="14.304085"><ele>28.0</ele><time>2026-04-06T06:19:35.085Z</time></trkpt><trkpt lat="40.9543367" lon="14.3041067"><ele>28.0</ele><time>2026-04-06T06:19:36.085Z</time></trkpt><trkpt lat="40.9544183" lon="14.30413"><ele>28.000000000000004</ele><time>2026-04-06T06:19:37.087Z</time></trkpt><trkpt lat="40.9545" lon="14.304155"><ele>28.0</ele><time>2026-04-06T06:19:38.085Z</time></trkpt><trkpt lat="40.95458" lon="14.3041867"><ele>28.000000000000004</ele><time>2026-04-06T06:19:39.084Z</time></trkpt><trkpt lat="40.95466" lon="14.3042183"><ele>28.0</ele><time>2026-04-06T06:19:40.086Z</time></trkpt><trkpt lat="40.9547383" lon="14.304235"><ele>28.0</ele><time>2026-04-06T06:19:41.086Z</time></trkpt><trkpt lat="40.95482" lon="14.3042583"><ele>28.0</ele><time>2026-04-06T06:19:42.086Z</time></trkpt><trkpt lat="40.9548967" lon="14.3042767"><ele>28.000000000000004</ele><time>2026-04-06T06:19:43.085Z</time></trkpt><trkpt lat="40.9549783" lon="14.3043"><ele>28.0</ele><time>2026-04-06T06:19:44.085Z</time></trkpt><trkpt lat="40.955055" lon="14.3043317"><ele>28.0</ele><time>2026-04-06T06:19:45.085Z</time></trkpt><trkpt lat="40.95513" lon="14.3043633"><ele>28.0</ele><time>2026-04-06T06:19:46.085Z</time></trkpt><trkpt lat="40.955205" lon="14.3043983"><ele>28.0</ele><time>2026-04-06T06:19:47.087Z</time></trkpt><trkpt lat="40.9552717" lon="14.3044267"><ele>28.0</ele><time>2026-04-06T06:19:48.085Z</time></trkpt><trkpt lat="40.9553367" lon="14.3044567"><ele>28.0</ele><time>2026-04-06T06:19:49.084Z</time></trkpt><trkpt lat="40.9554033" lon="14.3044867"><ele>28.0</ele><time>2026-04-06T06:19:50.085Z</time></trkpt><trkpt lat="40.9554667" lon="14.3045183"><ele>28.0</ele><time>2026-04-06T06:19:51.084Z</time></trkpt><trkpt lat="40.9555383" lon="14.304545"><ele>28.000000000000004</ele><time>2026-04-06T06:19:52.084Z</time></trkpt><trkpt lat="40.9556083" lon="14.30456"><ele>28.0</ele><time>2026-04-06T06:19:53.084Z</time></trkpt><trkpt lat="40.9556767" lon="14.304585"><ele>28.0</ele><time>2026-04-06T06:19:54.084Z</time></trkpt><trkpt lat="40.9557483" lon="14.30461"><ele>28.0</ele><time>2026-04-06T06:19:55.084Z</time></trkpt><trkpt lat="40.9558217" lon="14.30464"><ele>28.000000000000004</ele><time>2026-04-06T06:19:56.085Z</time></trkpt><trkpt lat="40.9559067" lon="14.3046717"><ele>28.0</ele><time>2026-04-06T06:19:57.084Z</time></trkpt><trkpt lat="40.9559933" lon="14.3046867"><ele>28.166666666666668</ele><time>2026-04-06T06:19:58.085Z</time></trkpt><trkpt lat="40.95608" lon="14.3047033"><ele>28.333333333333336</ele><time>2026-04-06T06:19:59.085Z</time></trkpt><trkpt lat="40.9561617" lon="14.3047283"><ele>28.5</ele><time>2026-04-06T06:20:00.084Z</time></trkpt><trkpt lat="40.956245" lon="14.3047483"><ele>28.666666666666664</ele><time>2026-04-06T06:20:01.085Z</time></trkpt><trkpt lat="40.95632" lon="14.3047733"><ele>28.833333333333332</ele><time>2026-04-06T06:20:02.084Z</time></trkpt><trkpt lat="40.9563933" lon="14.3048"><ele>29.0</ele><time>2026-04-06T06:20:03.086Z</time></trkpt><trkpt lat="40.95647" lon="14.3048283"><ele>28.999999999999996</ele><time>2026-04-06T06:20:04.085Z</time></trkpt><trkpt lat="40.9565517" lon="14.3048417"><ele>29.0</ele><time>2026-04-06T06:20:05.084Z</time></trkpt><trkpt lat="40.95663" lon="14.3048617"><ele>29.0</ele><time>2026-04-06T06:20:06.086Z</time></trkpt><trkpt lat="40.956705" lon="14.3049"><ele>29.0</ele><time>2026-04-06T06:20:07.085Z</time></trkpt><trkpt lat="40.95678" lon="14.3049383"><ele>28.999999999999996</ele><time>2026-04-06T06:20:08.084Z</time></trkpt><trkpt lat="40.9568533" lon="14.3049867"><ele>29.0</ele><time>2026-04-06T06:20:09.085Z</time></trkpt><trkpt lat="40.956925" lon="14.3050367"><ele>28.999999999999996</ele><time>2026-04-06T06:20:10.084Z</time></trkpt><trkpt lat="40.9569967" lon="14.3050967"><ele>29.0</ele><time>2026-04-06T06:20:11.085Z</time></trkpt><trkpt lat="40.9570667" lon="14.3051617"><ele>29.0</ele><time>2026-04-06T06:20:12.084Z</time></trkpt><trkpt lat="40.9571317" lon="14.3052217"><ele>29.0</ele><time>2026-04-06T06:20:13.085Z</time></trkpt><trkpt lat="40.9571983" lon="14.3052867"><ele>28.999999999999996</ele><time>2026-04-06T06:20:14.085Z</time></trkpt><trkpt lat="40.95726" lon="14.3053517"><ele>29.0</ele><time>2026-04-06T06:20:15.085Z</time></trkpt><trkpt lat="40.9573217" lon="14.3054067"><ele>28.999999999999996</ele><time>2026-04-06T06:20:16.084Z</time></trkpt><trkpt lat="40.9573783" lon="14.3054583"><ele>29.0</ele><time>2026-04-06T06:20:17.084Z</time></trkpt><trkpt lat="40.9574383" lon="14.3055117"><ele>29.0</ele><time>2026-04-06T06:20:18.085Z</time></trkpt><trkpt lat="40.9574933" lon="14.3055717"><ele>29.0</ele><time>2026-04-06T06:20:19.085Z</time></trkpt><trkpt lat="40.9575517" lon="14.30564"><ele>28.999999999999996</ele><time>2026-04-06T06:20:20.084Z</time></trkpt><trkpt lat="40.95761" lon="14.305715"><ele>29.0</ele><time>2026-04-06T06:20:21.085Z</time></trkpt><trkpt lat="40.95767" lon="14.3057883"><ele>28.999999999999996</ele><time>2026-04-06T06:20:22.085Z</time></trkpt><trkpt lat="40.9577367" lon="14.3058567"><ele>29.0</ele><time>2026-04-06T06:20:23.085Z</time></trkpt><trkpt lat="40.9578033" lon="14.305925"><ele>29.0</ele><time>2026-04-06T06:20:24.085Z</time></trkpt><trkpt lat="40.957865" lon="14.305995"><ele>29.0</ele><time>2026-04-06T06:20:25.088Z</time></trkpt><trkpt lat="40.9579333" lon="14.30606"><ele>28.999999999999996</ele><time>2026-04-06T06:20:26.085Z</time></trkpt><trkpt lat="40.958" lon="14.3061233"><ele>29.0</ele><time>2026-04-06T06:20:27.085Z</time></trkpt><trkpt lat="40.9580583" lon="14.3061817"><ele>29.000000000000004</ele><time>2026-04-06T06:20:28.086Z</time></trkpt><trkpt lat="40.9581167" lon="14.3062383"><ele>29.0</ele><time>2026-04-06T06:20:29.085Z</time></trkpt><trkpt lat="40.9581667" lon="14.3062917"><ele>29.000000000000004</ele><time>2026-04-06T06:20:30.085Z</time></trkpt><trkpt lat="40.9582167" lon="14.3063517"><ele>29.000000000000004</ele><time>2026-04-06T06:20:31.085Z</time></trkpt><trkpt lat="40.9582617" lon="14.306415"><ele>29.0</ele><time>2026-04-06T06:20:32.085Z</time></trkpt><trkpt lat="40.95831" lon="14.3064717"><ele>29.000000000000004</ele><time>2026-04-06T06:20:33.085Z</time></trkpt><trkpt lat="40.958365" lon="14.3065233"><ele>29.000000000000004</ele><time>2026-04-06T06:20:34.085Z</time></trkpt><trkpt lat="40.9584267" lon="14.3065683"><ele>28.833333333333332</ele><time>2026-04-06T06:20:35.085Z</time></trkpt><trkpt lat="40.9584883" lon="14.3066117"><ele>28.666666666666664</ele><time>2026-04-06T06:20:36.086Z</time></trkpt><trkpt lat="40.9585583" lon="14.30665"><ele>28.5</ele><time>2026-04-06T06:20:37.086Z</time></trkpt><trkpt lat="40.9586317" lon="14.3066817"><ele>28.333333333333336</ele><time>2026-04-06T06:20:38.085Z</time></trkpt><trkpt lat="40.9587067" lon="14.3067133"><ele>28.166666666666668</ele><time>2026-04-06T06:20:39.085Z</time></trkpt><trkpt lat="40.9587817" lon="14.30674"><ele>28.0</ele><time>2026-04-06T06:20:40.084Z</time></trkpt><trkpt lat="40.958855" lon="14.3067617"><ele>28.000000000000004</ele><time>2026-04-06T06:20:41.087Z</time></trkpt><trkpt lat="40.95893" lon="14.3067917"><ele>28.0</ele><time>2026-04-06T06:20:42.086Z</time></trkpt><trkpt lat="40.9590067" lon="14.3068083"><ele>28.0</ele><time>2026-04-06T06:20:43.086Z</time></trkpt><trkpt lat="40.9590783" lon="14.306825"><ele>28.0</ele><time>2026-04-06T06:20:44.086Z</time></trkpt><trkpt lat="40.9591517" lon="14.306845"><ele>28.000000000000004</ele><time>2026-04-06T06:20:45.086Z</time></trkpt><trkpt lat="40.959225" lon="14.3068667"><ele>28.0</ele><time>2026-04-06T06:20:46.086Z</time></trkpt><trkpt lat="40.9593067" lon="14.3068733"><ele>27.333333333333336</ele><time>2026-04-06T06:20:47.087Z</time></trkpt><trkpt lat="40.95938" lon="14.306885"><ele>26.666666666666668</ele><time>2026-04-06T06:20:48.086Z</time></trkpt><trkpt lat="40.9594567" lon="14.3068983"><ele>26.0</ele><time>2026-04-06T06:20:49.087Z</time></trkpt><trkpt lat="40.959535" lon="14.3069167"><ele>25.333333333333336</ele><time>2026-04-06T06:20:50.086Z</time></trkpt><trkpt lat="40.9596117" lon="14.3069383"><ele>24.666666666666668</ele><time>2026-04-06T06:20:51.088Z</time></trkpt><trkpt lat="40.9596867" lon="14.3069617"><ele>24.0</ele><time>2026-04-06T06:20:52.085Z</time></trkpt><trkpt lat="40.9597633" lon="14.3069783"><ele>23.999999999999996</ele><time>2026-04-06T06:20:53.087Z</time></trkpt><trkpt lat="40.9598333" lon="14.30699"><ele>24.0</ele><time>2026-04-06T06:20:54.086Z</time></trkpt><trkpt lat="40.9599083" lon="14.3069983"><ele>24.0</ele><time>2026-04-06T06:20:55.086Z</time></trkpt><trkpt lat="40.9599783" lon="14.3070083"><ele>24.0</ele><time>2026-04-06T06:20:56.087Z</time></trkpt><trkpt lat="40.9600467" lon="14.3070183"><ele>24.0</ele><time>2026-04-06T06:20:57.088Z</time></trkpt><trkpt lat="40.96012" lon="14.3070333"><ele>23.999999999999996</ele><time>2026-04-06T06:20:58.086Z</time></trkpt><trkpt lat="40.9601917" lon="14.3070517"><ele>24.0</ele><time>2026-04-06T06:20:59.087Z</time></trkpt><trkpt lat="40.9602617" lon="14.3070717"><ele>24.333333333333332</ele><time>2026-04-06T06:21:00.086Z</time></trkpt><trkpt lat="40.9603333" lon="14.30709"><ele>24.666666666666664</ele><time>2026-04-06T06:21:01.086Z</time></trkpt><trkpt lat="40.9604033" lon="14.3071083"><ele>25.0</ele><time>2026-04-06T06:21:02.086Z</time></trkpt><trkpt lat="40.96047" lon="14.3071317"><ele>25.333333333333332</ele><time>2026-04-06T06:21:03.087Z</time></trkpt><trkpt lat="40.96053" lon="14.3071617"><ele>25.666666666666664</ele><time>2026-04-06T06:21:04.086Z</time></trkpt><trkpt lat="40.9605883" lon="14.3072"><ele>26.0</ele><time>2026-04-06T06:21:05.088Z</time></trkpt><trkpt lat="40.960695" lon="14.3072733"><ele>25.999999999999996</ele><time>2026-04-06T06:21:07.087Z</time></trkpt><trkpt lat="40.9608017" lon="14.3072933"><ele>26.0</ele><time>2026-04-06T06:21:09.087Z</time></trkpt><trkpt lat="40.9609183" lon="14.3072733"><ele>26.0</ele><time>2026-04-06T06:21:11.087Z</time></trkpt><trkpt lat="40.960985" lon="14.307275"><ele>26.0</ele><time>2026-04-06T06:21:12.089Z</time></trkpt><trkpt lat="40.961055" lon="14.3072867"><ele>25.999999999999996</ele><time>2026-04-06T06:21:13.09Z</time></trkpt><trkpt lat="40.9611267" lon="14.3072967"><ele>26.0</ele><time>2026-04-06T06:21:14.088Z</time></trkpt><trkpt lat="40.9611967" lon="14.3073067"><ele>26.142857142857142</ele><time>2026-04-06T06:21:15.091Z</time></trkpt><trkpt lat="40.96127" lon="14.3073233"><ele>26.28571428571429</ele><time>2026-04-06T06:21:16.088Z</time></trkpt><trkpt lat="40.9613433" lon="14.3073383"><ele>26.42857142857143</ele><time>2026-04-06T06:21:17.089Z</time></trkpt><trkpt lat="40.9614167" lon="14.3073517"><ele>26.57142857142857</ele><time>2026-04-06T06:21:18.09Z</time></trkpt><trkpt lat="40.9614883" lon="14.3073633"><ele>26.714285714285715</ele><time>2026-04-06T06:21:19.089Z</time></trkpt><trkpt lat="40.961555" lon="14.3073583"><ele>26.857142857142858</ele><time>2026-04-06T06:21:20.089Z</time></trkpt><trkpt lat="40.9616217" lon="14.3073583"><ele>27.0</ele><time>2026-04-06T06:21:21.09Z</time></trkpt><trkpt lat="40.9616883" lon="14.3073633"><ele>27.0</ele><time>2026-04-06T06:21:22.089Z</time></trkpt><trkpt lat="40.9617533" lon="14.3073667"><ele>27.0</ele><time>2026-04-06T06:21:23.089Z</time></trkpt><trkpt lat="40.9618183" lon="14.3073683"><ele>27.0</ele><time>2026-04-06T06:21:24.089Z</time></trkpt><trkpt lat="40.9619433" lon="14.3073667"><ele>27.0</ele><time>2026-04-06T06:21:26.09Z</time></trkpt><trkpt lat="40.96201" lon="14.307365"><ele>27.0</ele><time>2026-04-06T06:21:27.089Z</time></trkpt><trkpt lat="40.962075" lon="14.30736"><ele>27.0</ele><time>2026-04-06T06:21:28.089Z</time></trkpt><trkpt lat="40.9621433" lon="14.3073617"><ele>27.0</ele><time>2026-04-06T06:21:29.089Z</time></trkpt><trkpt lat="40.96221" lon="14.3073633"><ele>27.0</ele><time>2026-04-06T06:21:30.09Z</time></trkpt><trkpt lat="40.9622733" lon="14.30736"><ele>27.0</ele><time>2026-04-06T06:21:31.089Z</time></trkpt><trkpt lat="40.9623367" lon="14.307355"><ele>27.0</ele><time>2026-04-06T06:21:32.091Z</time></trkpt><trkpt lat="40.9624033" lon="14.3073483"><ele>27.0</ele><time>2026-04-06T06:21:33.088Z</time></trkpt><trkpt lat="40.9624717" lon="14.3073417"><ele>27.0</ele><time>2026-04-06T06:21:34.089Z</time></trkpt><trkpt lat="40.96254" lon="14.30733"><ele>27.0</ele><time>2026-04-06T06:21:35.089Z</time></trkpt><trkpt lat="40.9626083" lon="14.3073217"><ele>26.857142857142858</ele><time>2026-04-06T06:21:36.088Z</time></trkpt><trkpt lat="40.9626767" lon="14.3073083"><ele>26.714285714285715</ele><time>2026-04-06T06:21:37.087Z</time></trkpt><trkpt lat="40.9627467" lon="14.3073017"><ele>26.57142857142857</ele><time>2026-04-06T06:21:38.086Z</time></trkpt><trkpt lat="40.9628167" lon="14.3072933"><ele>26.42857142857143</ele><time>2026-04-06T06:21:39.091Z</time></trkpt><trkpt lat="40.962885" lon="14.3072833"><ele>26.28571428571429</ele><time>2026-04-06T06:21:40.088Z</time></trkpt><trkpt lat="40.9629533" lon="14.3072733"><ele>26.142857142857142</ele><time>2026-04-06T06:21:41.09Z</time></trkpt><trkpt lat="40.9630183" lon="14.30726"><ele>26.0</ele><time>2026-04-06T06:21:42.089Z</time></trkpt><trkpt lat="40.963085" lon="14.3072483"><ele>25.857142857142858</ele><time>2026-04-06T06:21:43.089Z</time></trkpt><trkpt lat="40.96315" lon="14.3072383"><ele>25.714285714285715</ele><time>2026-04-06T06:21:44.091Z</time></trkpt><trkpt lat="40.9632167" lon="14.3072317"><ele>25.571428571428573</ele><time>2026-04-06T06:21:45.089Z</time></trkpt><trkpt lat="40.9632833" lon="14.3072233"><ele>25.42857142857143</ele><time>2026-04-06T06:21:46.087Z</time></trkpt><trkpt lat="40.9633517" lon="14.307215"><ele>25.285714285714285</ele><time>2026-04-06T06:21:47.089Z</time></trkpt><trkpt lat="40.96342" lon="14.3072067"><ele>25.142857142857146</ele><time>2026-04-06T06:21:48.087Z</time></trkpt><trkpt lat="40.96349" lon="14.3071967"><ele>25.0</ele><time>2026-04-06T06:21:49.087Z</time></trkpt><trkpt lat="40.9635617" lon="14.3071883"><ele>24.666666666666668</ele><time>2026-04-06T06:21:50.088Z</time></trkpt><trkpt lat="40.9636267" lon="14.3071767"><ele>24.333333333333336</ele><time>2026-04-06T06:21:51.087Z</time></trkpt><trkpt lat="40.9637167" lon="14.30716"><ele>24.0</ele><time>2026-04-06T06:21:53.091Z</time></trkpt><trkpt lat="40.963785" lon="14.3071433"><ele>23.666666666666668</ele><time>2026-04-06T06:21:56.089Z</time></trkpt><trkpt lat="40.9638567" lon="14.3071283"><ele>23.333333333333336</ele><time>2026-04-06T06:21:59.086Z</time></trkpt><trkpt lat="40.9639483" lon="14.30713"><ele>23.0</ele><time>2026-04-06T06:22:02.089Z</time></trkpt><trkpt lat="40.9640217" lon="14.307125"><ele>23.0</ele><time>2026-04-06T06:22:04.087Z</time></trkpt><trkpt lat="40.964115" lon="14.307115"><ele>23.0</ele><time>2026-04-06T06:22:06.09Z</time></trkpt><trkpt lat="40.9642167" lon="14.3071083"><ele>23.0</ele><time>2026-04-06T06:22:08.089Z</time></trkpt><trkpt lat="40.9643267" lon="14.307095"><ele>23.0</ele><time>2026-04-06T06:22:10.088Z</time></trkpt><trkpt lat="40.9644383" lon="14.3070817"><ele>23.0</ele><time>2026-04-06T06:22:12.09Z</time></trkpt><trkpt lat="40.9645533" lon="14.3070617"><ele>23.5</ele><time>2026-04-06T06:22:14.089Z</time></trkpt><trkpt lat="40.9646717" lon="14.3070483"><ele>24.0</ele><time>2026-04-06T06:22:16.089Z</time></trkpt><trkpt lat="40.9647867" lon="14.30703"><ele>24.5</ele><time>2026-04-06T06:22:18.088Z</time></trkpt><trkpt lat="40.9649" lon="14.3069983"><ele>25.0</ele><time>2026-04-06T06:22:20.086Z</time></trkpt><trkpt lat="40.9650133" lon="14.3069717"><ele>25.0</ele><time>2026-04-06T06:22:22.088Z</time></trkpt><trkpt lat="40.965125" lon="14.30694"><ele>25.0</ele><time>2026-04-06T06:22:24.087Z</time></trkpt><trkpt lat="40.965245" lon="14.3069333"><ele>25.0</ele><time>2026-04-06T06:22:26.088Z</time></trkpt><trkpt lat="40.9653633" lon="14.3069183"><ele>25.0</ele><time>2026-04-06T06:22:28.087Z</time></trkpt><trkpt lat="40.9654267" lon="14.3069133"><ele>25.0</ele><time>2026-04-06T06:22:29.087Z</time></trkpt><trkpt lat="40.9655467" lon="14.3069"><ele>25.0</ele><time>2026-04-06T06:22:31.09Z</time></trkpt><trkpt lat="40.9656633" lon="14.306895"><ele>25.0</ele><time>2026-04-06T06:22:33.087Z</time></trkpt><trkpt lat="40.9657717" lon="14.3069033"><ele>25.0</ele><time>2026-04-06T06:22:35.087Z</time></trkpt><trkpt lat="40.9658783" lon="14.3069283"><ele>25.0</ele><time>2026-04-06T06:22:37.087Z</time></trkpt><trkpt lat="40.9659883" lon="14.3069633"><ele>25.0</ele><time>2026-04-06T06:22:39.087Z</time></trkpt><trkpt lat="40.9660883" lon="14.3070133"><ele>25.0</ele><time>2026-04-06T06:22:41.087Z</time></trkpt><trkpt lat="40.9661867" lon="14.3070617"><ele>25.0</ele><time>2026-04-06T06:22:43.087Z</time></trkpt><trkpt lat="40.9662867" lon="14.307115"><ele>25.0</ele><time>2026-04-06T06:22:45.087Z</time></trkpt><trkpt lat="40.96639" lon="14.3071733"><ele>25.0</ele><time>2026-04-06T06:22:47.089Z</time></trkpt><trkpt lat="40.9665017" lon="14.3072267"><ele>25.0</ele><time>2026-04-06T06:22:49.086Z</time></trkpt><trkpt lat="40.96661" lon="14.307285"><ele>24.75</ele><time>2026-04-06T06:22:51.087Z</time></trkpt><trkpt lat="40.9667133" lon="14.30734"><ele>24.5</ele><time>2026-04-06T06:22:53.088Z</time></trkpt><trkpt lat="40.9668233" lon="14.3073933"><ele>24.25</ele><time>2026-04-06T06:22:55.086Z</time></trkpt><trkpt lat="40.96693" lon="14.3074483"><ele>24.0</ele><time>2026-04-06T06:22:57.088Z</time></trkpt><trkpt lat="40.9670333" lon="14.3074983"><ele>24.0</ele><time>2026-04-06T06:22:59.087Z</time></trkpt><trkpt lat="40.9671283" lon="14.3075417"><ele>24.0</ele><time>2026-04-06T06:23:01.088Z</time></trkpt><trkpt lat="40.9672183" lon="14.3075917"><ele>24.0</ele><time>2026-04-06T06:23:03.086Z</time></trkpt><trkpt lat="40.9673083" lon="14.3076317"><ele>24.0</ele><time>2026-04-06T06:23:05.086Z</time></trkpt><trkpt lat="40.967405" lon="14.307665"><ele>24.0</ele><time>2026-04-06T06:23:07.087Z</time></trkpt><trkpt lat="40.9675067" lon="14.3077117"><ele>24.5</ele><time>2026-04-06T06:23:09.087Z</time></trkpt><trkpt lat="40.9676183" lon="14.3077583"><ele>25.0</ele><time>2026-04-06T06:23:11.087Z</time></trkpt><trkpt lat="40.9677333" lon="14.3078017"><ele>25.5</ele><time>2026-04-06T06:23:13.086Z</time></trkpt><trkpt lat="40.9678433" lon="14.3078583"><ele>26.0</ele><time>2026-04-06T06:23:15.087Z</time></trkpt><trkpt lat="40.9679567" lon="14.3079117"><ele>25.999999999999996</ele><time>2026-04-06T06:23:17.087Z</time></trkpt><trkpt lat="40.96807" lon="14.3079617"><ele>26.0</ele><time>2026-04-06T06:23:19.087Z</time></trkpt><trkpt lat="40.9681883" lon="14.3080117"><ele>26.0</ele><time>2026-04-06T06:23:21.086Z</time></trkpt><trkpt lat="40.96825" lon="14.30803"><ele>26.0</ele><time>2026-04-06T06:23:22.088Z</time></trkpt><trkpt lat="40.9683117" lon="14.308055"><ele>25.999999999999996</ele><time>2026-04-06T06:23:23.088Z</time></trkpt><trkpt lat="40.968375" lon="14.3080767"><ele>26.0</ele><time>2026-04-06T06:23:24.088Z</time></trkpt><trkpt lat="40.96844" lon="14.30809"><ele>25.857142857142858</ele><time>2026-04-06T06:23:25.087Z</time></trkpt><trkpt lat="40.968505" lon="14.308105"><ele>25.714285714285715</ele><time>2026-04-06T06:23:26.089Z</time></trkpt><trkpt lat="40.9685717" lon="14.308125"><ele>25.571428571428573</ele><time>2026-04-06T06:23:27.086Z</time></trkpt><trkpt lat="40.9686383" lon="14.3081433"><ele>25.42857142857143</ele><time>2026-04-06T06:23:28.088Z</time></trkpt><trkpt lat="40.968705" lon="14.3081583"><ele>25.285714285714285</ele><time>2026-04-06T06:23:29.088Z</time></trkpt><trkpt lat="40.968775" lon="14.30817"><ele>25.142857142857146</ele><time>2026-04-06T06:23:30.088Z</time></trkpt><trkpt lat="40.968845" lon="14.3081817"><ele>25.0</ele><time>2026-04-06T06:23:31.087Z</time></trkpt><trkpt lat="40.968915" lon="14.3081917"><ele>25.000000000000004</ele><time>2026-04-06T06:23:32.087Z</time></trkpt><trkpt lat="40.9689883" lon="14.3081983"><ele>25.0</ele><time>2026-04-06T06:23:33.09Z</time></trkpt><trkpt lat="40.9690617" lon="14.3082067"><ele>25.0</ele><time>2026-04-06T06:23:34.088Z</time></trkpt><trkpt lat="40.969135" lon="14.308215"><ele>25.0</ele><time>2026-04-06T06:23:35.086Z</time></trkpt><trkpt lat="40.9692067" lon="14.308215"><ele>25.0</ele><time>2026-04-06T06:23:36.088Z</time></trkpt><trkpt lat="40.9692817" lon="14.30823"><ele>25.000000000000004</ele><time>2026-04-06T06:23:37.089Z</time></trkpt><trkpt lat="40.9693517" lon="14.3082367"><ele>25.0</ele><time>2026-04-06T06:23:38.091Z</time></trkpt><trkpt lat="40.9694183" lon="14.308245"><ele>24.857142857142858</ele><time>2026-04-06T06:23:39.087Z</time></trkpt><trkpt lat="40.9694867" lon="14.308255"><ele>24.714285714285715</ele><time>2026-04-06T06:23:40.087Z</time></trkpt><trkpt lat="40.969555" lon="14.3082667"><ele>24.57142857142857</ele><time>2026-04-06T06:23:41.09Z</time></trkpt><trkpt lat="40.9696233" lon="14.30828"><ele>24.42857142857143</ele><time>2026-04-06T06:23:42.087Z</time></trkpt><trkpt lat="40.9696933" lon="14.3082933"><ele>24.285714285714285</ele><time>2026-04-06T06:23:43.088Z</time></trkpt><trkpt lat="40.969765" lon="14.3083017"><ele>24.142857142857142</ele><time>2026-04-06T06:23:44.087Z</time></trkpt><trkpt lat="40.9698333" lon="14.3083067"><ele>24.0</ele><time>2026-04-06T06:23:45.09Z</time></trkpt><trkpt lat="40.969905" lon="14.30831"><ele>23.999999999999996</ele><time>2026-04-06T06:23:46.088Z</time></trkpt><trkpt lat="40.969975" lon="14.3083183"><ele>24.0</ele><time>2026-04-06T06:23:47.088Z</time></trkpt><trkpt lat="40.9700417" lon="14.30833"><ele>24.0</ele><time>2026-04-06T06:23:48.09Z</time></trkpt><trkpt lat="40.97011" lon="14.3083383"><ele>24.0</ele><time>2026-04-06T06:23:49.09Z</time></trkpt><trkpt lat="40.97018" lon="14.3083467"><ele>24.0</ele><time>2026-04-06T06:23:50.089Z</time></trkpt><trkpt lat="40.97025" lon="14.3083517"><ele>23.999999999999996</ele><time>2026-04-06T06:23:51.09Z</time></trkpt><trkpt lat="40.9703183" lon="14.3083583"><ele>24.0</ele><time>2026-04-06T06:23:52.09Z</time></trkpt><trkpt lat="40.9703883" lon="14.30837"><ele>23.857142857142854</ele><time>2026-04-06T06:23:53.09Z</time></trkpt><trkpt lat="40.970455" lon="14.3083833"><ele>23.714285714285715</ele><time>2026-04-06T06:23:54.089Z</time></trkpt><trkpt lat="40.9705217" lon="14.3084"><ele>23.57142857142857</ele><time>2026-04-06T06:23:55.091Z</time></trkpt><trkpt lat="40.9705883" lon="14.3084233"><ele>23.428571428571427</ele><time>2026-04-06T06:23:56.09Z</time></trkpt><trkpt lat="40.970655" lon="14.3084517"><ele>23.285714285714285</ele><time>2026-04-06T06:23:57.09Z</time></trkpt><trkpt lat="40.97072" lon="14.3084833"><ele>23.142857142857142</ele><time>2026-04-06T06:23:58.087Z</time></trkpt><trkpt lat="40.970785" lon="14.3085167"><ele>23.0</ele><time>2026-04-06T06:23:59.089Z</time></trkpt><trkpt lat="40.9708517" lon="14.3085533"><ele>23.142857142857142</ele><time>2026-04-06T06:24:00.089Z</time></trkpt><trkpt lat="40.970915" lon="14.3085917"><ele>23.285714285714285</ele><time>2026-04-06T06:24:01.089Z</time></trkpt><trkpt lat="40.9709783" lon="14.30863"><ele>23.428571428571427</ele><time>2026-04-06T06:24:02.088Z</time></trkpt><trkpt lat="40.97104" lon="14.3086683"><ele>23.57142857142857</ele><time>2026-04-06T06:24:03.087Z</time></trkpt><trkpt lat="40.9711" lon="14.3087033"><ele>23.714285714285715</ele><time>2026-04-06T06:24:04.086Z</time></trkpt><trkpt lat="40.9711617" lon="14.3087417"><ele>23.857142857142854</ele><time>2026-04-06T06:24:05.088Z</time></trkpt><trkpt lat="40.9712233" lon="14.3087817"><ele>24.0</ele><time>2026-04-06T06:24:06.088Z</time></trkpt><trkpt lat="40.9712867" lon="14.30882"><ele>23.999999999999996</ele><time>2026-04-06T06:24:07.087Z</time></trkpt><trkpt lat="40.9713517" lon="14.3088617"><ele>24.0</ele><time>2026-04-06T06:24:08.088Z</time></trkpt><trkpt lat="40.9714183" lon="14.3089033"><ele>24.0</ele><time>2026-04-06T06:24:09.088Z</time></trkpt><trkpt lat="40.971485" lon="14.3089433"><ele>24.0</ele><time>2026-04-06T06:24:10.089Z</time></trkpt><trkpt lat="40.97155" lon="14.3089833"><ele>24.0</ele><time>2026-04-06T06:24:11.087Z</time></trkpt><trkpt lat="40.97162" lon="14.3090283"><ele>23.999999999999996</ele><time>2026-04-06T06:24:12.088Z</time></trkpt><trkpt lat="40.9716867" lon="14.3090683"><ele>24.0</ele><time>2026-04-06T06:24:13.089Z</time></trkpt><trkpt lat="40.971755" lon="14.3091067"><ele>23.857142857142854</ele><time>2026-04-06T06:24:14.087Z</time></trkpt><trkpt lat="40.971825" lon="14.309145"><ele>23.714285714285715</ele><time>2026-04-06T06:24:15.088Z</time></trkpt><trkpt lat="40.97189" lon="14.3091867"><ele>23.57142857142857</ele><time>2026-04-06T06:24:16.087Z</time></trkpt><trkpt lat="40.971955" lon="14.309225"><ele>23.428571428571427</ele><time>2026-04-06T06:24:17.087Z</time></trkpt><trkpt lat="40.9720217" lon="14.3092567"><ele>23.285714285714285</ele><time>2026-04-06T06:24:18.089Z</time></trkpt><trkpt lat="40.97209" lon="14.3092883"><ele>23.142857142857142</ele><time>2026-04-06T06:24:19.09Z</time></trkpt><trkpt lat="40.9721583" lon="14.30932"><ele>23.0</ele><time>2026-04-06T06:24:20.089Z</time></trkpt><trkpt lat="40.9722283" lon="14.3093467"><ele>23.0</ele><time>2026-04-06T06:24:21.089Z</time></trkpt><trkpt lat="40.9723017" lon="14.30937"><ele>23.0</ele><time>2026-04-06T06:24:22.089Z</time></trkpt><trkpt lat="40.9723767" lon="14.3093933"><ele>23.0</ele><time>2026-04-06T06:24:23.09Z</time></trkpt><trkpt lat="40.9724517" lon="14.3094183"><ele>23.0</ele><time>2026-04-06T06:24:24.088Z</time></trkpt><trkpt lat="40.972525" lon="14.309445"><ele>23.0</ele><time>2026-04-06T06:24:25.089Z</time></trkpt><trkpt lat="40.9726" lon="14.3094733"><ele>23.0</ele><time>2026-04-06T06:24:26.09Z</time></trkpt><trkpt lat="40.9726733" lon="14.3095033"><ele>22.833333333333336</ele><time>2026-04-06T06:24:27.089Z</time></trkpt><trkpt lat="40.9727483" lon="14.309535"><ele>22.666666666666668</ele><time>2026-04-06T06:24:28.088Z</time></trkpt><trkpt lat="40.97282" lon="14.3095633"><ele>22.5</ele><time>2026-04-06T06:24:29.089Z</time></trkpt><trkpt lat="40.97289" lon="14.3095867"><ele>22.333333333333332</ele><time>2026-04-06T06:24:30.087Z</time></trkpt><trkpt lat="40.9729633" lon="14.3096117"><ele>22.166666666666664</ele><time>2026-04-06T06:24:31.088Z</time></trkpt><trkpt lat="40.9730367" lon="14.3096417"><ele>22.0</ele><time>2026-04-06T06:24:32.088Z</time></trkpt><trkpt lat="40.97311" lon="14.3096717"><ele>22.0</ele><time>2026-04-06T06:24:33.09Z</time></trkpt><trkpt lat="40.97318" lon="14.3097"><ele>22.0</ele><time>2026-04-06T06:24:34.089Z</time></trkpt><trkpt lat="40.97325" lon="14.3097283"><ele>22.0</ele><time>2026-04-06T06:24:35.09Z</time></trkpt><trkpt lat="40.9733183" lon="14.309755"><ele>22.0</ele><time>2026-04-06T06:24:36.089Z</time></trkpt><trkpt lat="40.9733867" lon="14.3097817"><ele>22.0</ele><time>2026-04-06T06:24:37.09Z</time></trkpt><trkpt lat="40.973455" lon="14.3098083"><ele>22.0</ele><time>2026-04-06T06:24:38.09Z</time></trkpt><trkpt lat="40.9735283" lon="14.309835"><ele>22.0</ele><time>2026-04-06T06:24:39.089Z</time></trkpt><trkpt lat="40.9736183" lon="14.3098233"><ele>22.0</ele><time>2026-04-06T06:24:40.087Z</time></trkpt><trkpt lat="40.9736883" lon="14.3098383"><ele>22.0</ele><time>2026-04-06T06:24:41.089Z</time></trkpt><trkpt lat="40.9737617" lon="14.3098467"><ele>22.0</ele><time>2026-04-06T06:24:42.09Z</time></trkpt><trkpt lat="40.9738367" lon="14.3098533"><ele>22.0</ele><time>2026-04-06T06:24:43.09Z</time></trkpt><trkpt lat="40.9739133" lon="14.3098533"><ele>22.0</ele><time>2026-04-06T06:24:44.087Z</time></trkpt><trkpt lat="40.9739917" lon="14.3098567"><ele>22.0</ele><time>2026-04-06T06:24:45.087Z</time></trkpt><trkpt lat="40.9740717" lon="14.3098617"><ele>22.0</ele><time>2026-04-06T06:24:46.087Z</time></trkpt><trkpt lat="40.9741533" lon="14.3098633"><ele>22.0</ele><time>2026-04-06T06:24:47.087Z</time></trkpt><trkpt lat="40.9742333" lon="14.3098617"><ele>22.0</ele><time>2026-04-06T06:24:48.087Z</time></trkpt><trkpt lat="40.974315" lon="14.3098617"><ele>22.0</ele><time>2026-04-06T06:24:49.089Z</time></trkpt><trkpt lat="40.974395" lon="14.3098567"><ele>22.0</ele><time>2026-04-06T06:24:50.087Z</time></trkpt><trkpt lat="40.974475" lon="14.309855"><ele>22.0</ele><time>2026-04-06T06:24:51.089Z</time></trkpt><trkpt lat="40.9745533" lon="14.3098567"><ele>22.0</ele><time>2026-04-06T06:24:52.086Z</time></trkpt><trkpt lat="40.9746283" lon="14.3098533"><ele>22.0</ele><time>2026-04-06T06:24:53.087Z</time></trkpt><trkpt lat="40.974705" lon="14.3098483"><ele>22.0</ele><time>2026-04-06T06:24:54.087Z</time></trkpt><trkpt lat="40.9747817" lon="14.3098483"><ele>22.0</ele><time>2026-04-06T06:24:55.087Z</time></trkpt><trkpt lat="40.9748583" lon="14.3098483"><ele>22.0</ele><time>2026-04-06T06:24:56.087Z</time></trkpt><trkpt lat="40.9749333" lon="14.3098467"><ele>22.0</ele><time>2026-04-06T06:24:57.089Z</time></trkpt><trkpt lat="40.97501" lon="14.3098467"><ele>22.0</ele><time>2026-04-06T06:24:58.089Z</time></trkpt><trkpt lat="40.975085" lon="14.3098467"><ele>22.0</ele><time>2026-04-06T06:24:59.089Z</time></trkpt><trkpt lat="40.9751583" lon="14.3098467"><ele>22.0</ele><time>2026-04-06T06:25:00.087Z</time></trkpt><trkpt lat="40.9752333" lon="14.3098417"><ele>22.0</ele><time>2026-04-06T06:25:01.087Z</time></trkpt><trkpt lat="40.9753067" lon="14.30983"><ele>22.0</ele><time>2026-04-06T06:25:02.088Z</time></trkpt><trkpt lat="40.97538" lon="14.3098183"><ele>22.0</ele><time>2026-04-06T06:25:03.087Z</time></trkpt><trkpt lat="40.975455" lon="14.309805"><ele>22.0</ele><time>2026-04-06T06:25:04.089Z</time></trkpt><trkpt lat="40.9755267" lon="14.3097867"><ele>22.0</ele><time>2026-04-06T06:25:05.088Z</time></trkpt><trkpt lat="40.9755983" lon="14.3097683"><ele>22.0</ele><time>2026-04-06T06:25:06.088Z</time></trkpt><trkpt lat="40.9756683" lon="14.30974"><ele>22.0</ele><time>2026-04-06T06:25:07.088Z</time></trkpt><trkpt lat="40.97574" lon="14.30971"><ele>22.0</ele><time>2026-04-06T06:25:08.088Z</time></trkpt><trkpt lat="40.9758083" lon="14.3096733"><ele>22.0</ele><time>2026-04-06T06:25:09.087Z</time></trkpt><trkpt lat="40.97588" lon="14.3096383"><ele>22.0</ele><time>2026-04-06T06:25:10.088Z</time></trkpt><trkpt lat="40.97595" lon="14.309605"><ele>22.0</ele><time>2026-04-06T06:25:11.088Z</time></trkpt><trkpt lat="40.97602" lon="14.309575"><ele>22.0</ele><time>2026-04-06T06:25:12.089Z</time></trkpt><trkpt lat="40.9760883" lon="14.3095467"><ele>22.0</ele><time>2026-04-06T06:25:13.087Z</time></trkpt><trkpt lat="40.9761567" lon="14.3095117"><ele>22.0</ele><time>2026-04-06T06:25:14.087Z</time></trkpt><trkpt lat="40.976225" lon="14.3094717"><ele>22.0</ele><time>2026-04-06T06:25:15.088Z</time></trkpt><trkpt lat="40.9762933" lon="14.3094367"><ele>22.0</ele><time>2026-04-06T06:25:16.088Z</time></trkpt><trkpt lat="40.97636" lon="14.3094017"><ele>22.0</ele><time>2026-04-06T06:25:17.088Z</time></trkpt><trkpt lat="40.976425" lon="14.3093633"><ele>22.0</ele><time>2026-04-06T06:25:18.087Z</time></trkpt><trkpt lat="40.9764933" lon="14.309325"><ele>22.0</ele><time>2026-04-06T06:25:19.087Z</time></trkpt><trkpt lat="40.97656" lon="14.309285"><ele>22.0</ele><time>2026-04-06T06:25:20.087Z</time></trkpt><trkpt lat="40.9766283" lon="14.309245"><ele>22.0</ele><time>2026-04-06T06:25:21.086Z</time></trkpt><trkpt lat="40.9766967" lon="14.3092067"><ele>22.0</ele><time>2026-04-06T06:25:22.087Z</time></trkpt><trkpt lat="40.9767633" lon="14.30917"><ele>22.0</ele><time>2026-04-06T06:25:23.086Z</time></trkpt><trkpt lat="40.97683" lon="14.309135"><ele>22.0</ele><time>2026-04-06T06:25:24.088Z</time></trkpt><trkpt lat="40.9769" lon="14.309105"><ele>22.0</ele><time>2026-04-06T06:25:25.087Z</time></trkpt><trkpt lat="40.9769717" lon="14.3090783"><ele>21.666666666666664</ele><time>2026-04-06T06:25:26.087Z</time></trkpt><trkpt lat="40.977045" lon="14.3090583"><ele>21.333333333333332</ele><time>2026-04-06T06:25:27.086Z</time></trkpt><trkpt lat="40.97712" lon="14.3090433"><ele>21.0</ele><time>2026-04-06T06:25:28.086Z</time></trkpt><trkpt lat="40.977195" lon="14.3090367"><ele>20.666666666666668</ele><time>2026-04-06T06:25:29.085Z</time></trkpt><trkpt lat="40.9772717" lon="14.30904"><ele>20.333333333333336</ele><time>2026-04-06T06:25:30.087Z</time></trkpt><trkpt lat="40.9773467" lon="14.3090567"><ele>20.0</ele><time>2026-04-06T06:25:31.086Z</time></trkpt><trkpt lat="40.9774217" lon="14.3090883"><ele>20.0</ele><time>2026-04-06T06:25:32.087Z</time></trkpt><trkpt lat="40.977495" lon="14.3091317"><ele>20.0</ele><time>2026-04-06T06:25:33.086Z</time></trkpt><trkpt lat="40.97756" lon="14.309185"><ele>20.0</ele><time>2026-04-06T06:25:34.085Z</time></trkpt><trkpt lat="40.9776217" lon="14.309245"><ele>20.0</ele><time>2026-04-06T06:25:35.086Z</time></trkpt><trkpt lat="40.9776783" lon="14.30931"><ele>20.0</ele><time>2026-04-06T06:25:36.088Z</time></trkpt><trkpt lat="40.9777317" lon="14.3093783"><ele>20.0</ele><time>2026-04-06T06:25:37.086Z</time></trkpt><trkpt lat="40.977785" lon="14.3094483"><ele>20.0</ele><time>2026-04-06T06:25:38.086Z</time></trkpt><trkpt lat="40.9778367" lon="14.30952"><ele>20.0</ele><time>2026-04-06T06:25:39.087Z</time></trkpt><trkpt lat="40.97789" lon="14.3095917"><ele>20.0</ele><time>2026-04-06T06:25:40.088Z</time></trkpt><trkpt lat="40.9779417" lon="14.309665"><ele>20.0</ele><time>2026-04-06T06:25:41.087Z</time></trkpt><trkpt lat="40.9779917" lon="14.3097367"><ele>20.0</ele><time>2026-04-06T06:25:42.087Z</time></trkpt><trkpt lat="40.978045" lon="14.3098067"><ele>20.0</ele><time>2026-04-06T06:25:43.086Z</time></trkpt><trkpt lat="40.9780983" lon="14.3098767"><ele>20.0</ele><time>2026-04-06T06:25:44.086Z</time></trkpt><trkpt lat="40.978155" lon="14.3099433"><ele>20.0</ele><time>2026-04-06T06:25:45.085Z</time></trkpt><trkpt lat="40.97821" lon="14.3100067"><ele>20.0</ele><time>2026-04-06T06:25:46.087Z</time></trkpt><trkpt lat="40.9782683" lon="14.3100683"><ele>20.0</ele><time>2026-04-06T06:25:47.087Z</time></trkpt><trkpt lat="40.9783283" lon="14.31013"><ele>20.0</ele><time>2026-04-06T06:25:48.086Z</time></trkpt><trkpt lat="40.9783883" lon="14.3101883"><ele>20.0</ele><time>2026-04-06T06:25:49.086Z</time></trkpt><trkpt lat="40.9784467" lon="14.310245"><ele>20.0</ele><time>2026-04-06T06:25:50.086Z</time></trkpt><trkpt lat="40.9785067" lon="14.3103033"><ele>20.0</ele><time>2026-04-06T06:25:51.086Z</time></trkpt><trkpt lat="40.978565" lon="14.310365"><ele>20.0</ele><time>2026-04-06T06:25:52.085Z</time></trkpt><trkpt lat="40.978625" lon="14.3104283"><ele>20.0</ele><time>2026-04-06T06:25:53.086Z</time></trkpt><trkpt lat="40.9786867" lon="14.3104883"><ele>20.0</ele><time>2026-04-06T06:25:54.086Z</time></trkpt><trkpt lat="40.9787483" lon="14.3105483"><ele>20.0</ele><time>2026-04-06T06:25:55.086Z</time></trkpt><trkpt lat="40.9788117" lon="14.3106083"><ele>20.0</ele><time>2026-04-06T06:25:56.086Z</time></trkpt><trkpt lat="40.9788733" lon="14.3106683"><ele>20.166666666666668</ele><time>2026-04-06T06:25:57.086Z</time></trkpt><trkpt lat="40.9789367" lon="14.310725"><ele>20.333333333333336</ele><time>2026-04-06T06:25:58.086Z</time></trkpt><trkpt lat="40.9789983" lon="14.3107817"><ele>20.5</ele><time>2026-04-06T06:25:59.088Z</time></trkpt><trkpt lat="40.9790583" lon="14.3108367"><ele>20.666666666666668</ele><time>2026-04-06T06:26:00.086Z</time></trkpt><trkpt lat="40.97912" lon="14.3108933"><ele>20.833333333333332</ele><time>2026-04-06T06:26:01.086Z</time></trkpt><trkpt lat="40.9791833" lon="14.3109517"><ele>21.0</ele><time>2026-04-06T06:26:02.085Z</time></trkpt><trkpt lat="40.97925" lon="14.311005"><ele>21.0</ele><time>2026-04-06T06:26:03.087Z</time></trkpt><trkpt lat="40.9793167" lon="14.3110583"><ele>21.0</ele><time>2026-04-06T06:26:04.088Z</time></trkpt><trkpt lat="40.9793817" lon="14.31111"><ele>21.0</ele><time>2026-04-06T06:26:05.086Z</time></trkpt><trkpt lat="40.979445" lon="14.3111633"><ele>21.0</ele><time>2026-04-06T06:26:06.085Z</time></trkpt><trkpt lat="40.9795083" lon="14.3112167"><ele>21.0</ele><time>2026-04-06T06:26:07.086Z</time></trkpt><trkpt lat="40.9795733" lon="14.3112683"><ele>21.0</ele><time>2026-04-06T06:26:08.086Z</time></trkpt><trkpt lat="40.979635" lon="14.3113233"><ele>21.0</ele><time>2026-04-06T06:26:09.085Z</time></trkpt><trkpt lat="40.9796967" lon="14.3113733"><ele>21.0</ele><time>2026-04-06T06:26:10.086Z</time></trkpt><trkpt lat="40.9797583" lon="14.3114233"><ele>21.0</ele><time>2026-04-06T06:26:11.086Z</time></trkpt><trkpt lat="40.9798217" lon="14.3114767"><ele>21.0</ele><time>2026-04-06T06:26:12.086Z</time></trkpt><trkpt lat="40.979885" lon="14.3115283"><ele>21.0</ele><time>2026-04-06T06:26:13.087Z</time></trkpt><trkpt lat="40.9799467" lon="14.31158"><ele>21.0</ele><time>2026-04-06T06:26:14.086Z</time></trkpt><trkpt lat="40.9800083" lon="14.3116333"><ele>21.0</ele><time>2026-04-06T06:26:15.086Z</time></trkpt><trkpt lat="40.9800733" lon="14.3116817"><ele>21.285714285714285</ele><time>2026-04-06T06:26:16.085Z</time></trkpt><trkpt lat="40.9801383" lon="14.3117283"><ele>21.57142857142857</ele><time>2026-04-06T06:26:17.086Z</time></trkpt><trkpt lat="40.9802017" lon="14.311775"><ele>21.857142857142858</ele><time>2026-04-06T06:26:18.086Z</time></trkpt><trkpt lat="40.9802667" lon="14.3118217"><ele>22.142857142857142</ele><time>2026-04-06T06:26:19.086Z</time></trkpt><trkpt lat="40.9803333" lon="14.3118667"><ele>22.428571428571427</ele><time>2026-04-06T06:26:20.088Z</time></trkpt><trkpt lat="40.9803983" lon="14.3119117"><ele>22.714285714285715</ele><time>2026-04-06T06:26:21.086Z</time></trkpt><trkpt lat="40.980465" lon="14.311955"><ele>23.0</ele><time>2026-04-06T06:26:22.085Z</time></trkpt><trkpt lat="40.9805317" lon="14.3120017"><ele>23.0</ele><time>2026-04-06T06:26:23.085Z</time></trkpt><trkpt lat="40.9805983" lon="14.3120433"><ele>23.0</ele><time>2026-04-06T06:26:24.087Z</time></trkpt><trkpt lat="40.980665" lon="14.312085"><ele>23.0</ele><time>2026-04-06T06:26:25.086Z</time></trkpt><trkpt lat="40.9807333" lon="14.3121233"><ele>23.0</ele><time>2026-04-06T06:26:26.086Z</time></trkpt><trkpt lat="40.980805" lon="14.31216"><ele>23.0</ele><time>2026-04-06T06:26:27.086Z</time></trkpt><trkpt lat="40.9808783" lon="14.3121933"><ele>23.0</ele><time>2026-04-06T06:26:28.086Z</time></trkpt><trkpt lat="40.9809517" lon="14.31223"><ele>22.666666666666668</ele><time>2026-04-06T06:26:29.086Z</time></trkpt><trkpt lat="40.9810217" lon="14.3122667"><ele>22.333333333333336</ele><time>2026-04-06T06:26:30.085Z</time></trkpt><trkpt lat="40.9810933" lon="14.3123033"><ele>22.0</ele><time>2026-04-06T06:26:31.087Z</time></trkpt><trkpt lat="40.981165" lon="14.3123383"><ele>21.666666666666668</ele><time>2026-04-06T06:26:32.086Z</time></trkpt><trkpt lat="40.9812383" lon="14.312375"><ele>21.333333333333332</ele><time>2026-04-06T06:26:33.086Z</time></trkpt><trkpt lat="40.98131" lon="14.3124083"><ele>21.0</ele><time>2026-04-06T06:26:34.085Z</time></trkpt><trkpt lat="40.981385" lon="14.312435"><ele>21.0</ele><time>2026-04-06T06:26:35.087Z</time></trkpt><trkpt lat="40.98146" lon="14.31246"><ele>21.0</ele><time>2026-04-06T06:26:36.085Z</time></trkpt><trkpt lat="40.9815367" lon="14.31248"><ele>21.0</ele><time>2026-04-06T06:26:37.087Z</time></trkpt><trkpt lat="40.981615" lon="14.312495"><ele>21.0</ele><time>2026-04-06T06:26:38.085Z</time></trkpt><trkpt lat="40.9816933" lon="14.3125033"><ele>21.0</ele><time>2026-04-06T06:26:39.086Z</time></trkpt><trkpt lat="40.98177" lon="14.3125067"><ele>21.0</ele><time>2026-04-06T06:26:40.086Z</time></trkpt><trkpt lat="40.98185" lon="14.3125067"><ele>20.833333333333332</ele><time>2026-04-06T06:26:41.087Z</time></trkpt><trkpt lat="40.9819317" lon="14.3125067"><ele>20.666666666666668</ele><time>2026-04-06T06:26:42.085Z</time></trkpt><trkpt lat="40.9820133" lon="14.31251"><ele>20.5</ele><time>2026-04-06T06:26:43.085Z</time></trkpt><trkpt lat="40.982095" lon="14.3125083"><ele>20.333333333333336</ele><time>2026-04-06T06:26:44.085Z</time></trkpt><trkpt lat="40.9821767" lon="14.312505"><ele>20.166666666666668</ele><time>2026-04-06T06:26:45.086Z</time></trkpt><trkpt lat="40.9822567" lon="14.3125017"><ele>20.0</ele><time>2026-04-06T06:26:46.084Z</time></trkpt><trkpt lat="40.9823383" lon="14.3125"><ele>20.0</ele><time>2026-04-06T06:26:47.085Z</time></trkpt><trkpt lat="40.9824183" lon="14.3124983"><ele>20.0</ele><time>2026-04-06T06:26:48.086Z</time></trkpt><trkpt lat="40.9824967" lon="14.3124983"><ele>20.0</ele><time>2026-04-06T06:26:49.087Z</time></trkpt><trkpt lat="40.9825783" lon="14.3124983"><ele>20.0</ele><time>2026-04-06T06:26:50.086Z</time></trkpt><trkpt lat="40.9826583" lon="14.3125017"><ele>20.0</ele><time>2026-04-06T06:26:51.086Z</time></trkpt><trkpt lat="40.9827367" lon="14.312505"><ele>20.0</ele><time>2026-04-06T06:26:52.088Z</time></trkpt><trkpt lat="40.982815" lon="14.3125033"><ele>20.0</ele><time>2026-04-06T06:26:53.088Z</time></trkpt><trkpt lat="40.9828933" lon="14.3125"><ele>20.0</ele><time>2026-04-06T06:26:54.086Z</time></trkpt><trkpt lat="40.98297" lon="14.312495"><ele>20.0</ele><time>2026-04-06T06:26:55.085Z</time></trkpt><trkpt lat="40.9830467" lon="14.31249"><ele>20.0</ele><time>2026-04-06T06:26:56.085Z</time></trkpt><trkpt lat="40.9831233" lon="14.3124817"><ele>20.0</ele><time>2026-04-06T06:26:57.086Z</time></trkpt><trkpt lat="40.9832017" lon="14.312475"><ele>20.0</ele><time>2026-04-06T06:26:58.085Z</time></trkpt><trkpt lat="40.9832783" lon="14.3124617"><ele>20.0</ele><time>2026-04-06T06:26:59.087Z</time></trkpt><trkpt lat="40.9833517" lon="14.3124367"><ele>20.0</ele><time>2026-04-06T06:27:00.086Z</time></trkpt><trkpt lat="40.9834233" lon="14.312405"><ele>20.0</ele><time>2026-04-06T06:27:01.086Z</time></trkpt><trkpt lat="40.9834933" lon="14.3123733"><ele>20.0</ele><time>2026-04-06T06:27:02.085Z</time></trkpt><trkpt lat="40.9835633" lon="14.3123383"><ele>20.0</ele><time>2026-04-06T06:27:03.085Z</time></trkpt><trkpt lat="40.9836317" lon="14.3123"><ele>20.0</ele><time>2026-04-06T06:27:04.086Z</time></trkpt><trkpt lat="40.9837" lon="14.31226"><ele>20.0</ele><time>2026-04-06T06:27:05.087Z</time></trkpt><trkpt lat="40.9837717" lon="14.3122183"><ele>20.0</ele><time>2026-04-06T06:27:06.089Z</time></trkpt><trkpt lat="40.9838433" lon="14.3121817"><ele>20.0</ele><time>2026-04-06T06:27:07.088Z</time></trkpt><trkpt lat="40.9839133" lon="14.3121433"><ele>20.0</ele><time>2026-04-06T06:27:08.087Z</time></trkpt><trkpt lat="40.983985" lon="14.3121033"><ele>20.0</ele><time>2026-04-06T06:27:09.087Z</time></trkpt><trkpt lat="40.9840583" lon="14.31207"><ele>20.0</ele><time>2026-04-06T06:27:10.086Z</time></trkpt><trkpt lat="40.9841317" lon="14.3120383"><ele>20.0</ele><time>2026-04-06T06:27:11.088Z</time></trkpt><trkpt lat="40.9842033" lon="14.3120067"><ele>20.166666666666668</ele><time>2026-04-06T06:27:12.085Z</time></trkpt><trkpt lat="40.984275" lon="14.31197"><ele>20.333333333333336</ele><time>2026-04-06T06:27:13.085Z</time></trkpt><trkpt lat="40.9843483" lon="14.311935"><ele>20.5</ele><time>2026-04-06T06:27:14.087Z</time></trkpt><trkpt lat="40.9844217" lon="14.3119017"><ele>20.666666666666668</ele><time>2026-04-06T06:27:15.087Z</time></trkpt><trkpt lat="40.9844933" lon="14.3118667"><ele>20.833333333333332</ele><time>2026-04-06T06:27:16.085Z</time></trkpt><trkpt lat="40.984565" lon="14.3118317"><ele>21.0</ele><time>2026-04-06T06:27:17.087Z</time></trkpt><trkpt lat="40.9846333" lon="14.3117983"><ele>21.0</ele><time>2026-04-06T06:27:18.087Z</time></trkpt><trkpt lat="40.9847017" lon="14.3117633"><ele>21.0</ele><time>2026-04-06T06:27:19.087Z</time></trkpt><trkpt lat="40.98477" lon="14.31173"><ele>21.0</ele><time>2026-04-06T06:27:20.088Z</time></trkpt><trkpt lat="40.98484" lon="14.3116967"><ele>21.0</ele><time>2026-04-06T06:27:21.086Z</time></trkpt><trkpt lat="40.9849083" lon="14.3116633"><ele>21.0</ele><time>2026-04-06T06:27:22.086Z</time></trkpt><trkpt lat="40.98498" lon="14.3116333"><ele>21.0</ele><time>2026-04-06T06:27:23.088Z</time></trkpt><trkpt lat="40.9850533" lon="14.3116067"><ele>21.0</ele><time>2026-04-06T06:27:24.087Z</time></trkpt><trkpt lat="40.9851283" lon="14.3115833"><ele>20.833333333333332</ele><time>2026-04-06T06:27:25.087Z</time></trkpt><trkpt lat="40.9852017" lon="14.311565"><ele>20.666666666666668</ele><time>2026-04-06T06:27:26.087Z</time></trkpt><trkpt lat="40.9852767" lon="14.311555"><ele>20.5</ele><time>2026-04-06T06:27:27.085Z</time></trkpt><trkpt lat="40.985355" lon="14.3115517"><ele>20.333333333333336</ele><time>2026-04-06T06:27:28.085Z</time></trkpt><trkpt lat="40.98543" lon="14.3115533"><ele>20.166666666666668</ele><time>2026-04-06T06:27:29.086Z</time></trkpt><trkpt lat="40.9855083" lon="14.31156"><ele>20.0</ele><time>2026-04-06T06:27:30.085Z</time></trkpt><trkpt lat="40.985585" lon="14.3115667"><ele>20.0</ele><time>2026-04-06T06:27:31.087Z</time></trkpt><trkpt lat="40.9856617" lon="14.31158"><ele>20.0</ele><time>2026-04-06T06:27:32.087Z</time></trkpt><trkpt lat="40.9857383" lon="14.311595"><ele>20.0</ele><time>2026-04-06T06:27:33.087Z</time></trkpt><trkpt lat="40.985815" lon="14.31161"><ele>20.0</ele><time>2026-04-06T06:27:34.086Z</time></trkpt><trkpt lat="40.9858933" lon="14.3116233"><ele>20.0</ele><time>2026-04-06T06:27:35.089Z</time></trkpt><trkpt lat="40.9859733" lon="14.3116367"><ele>20.0</ele><time>2026-04-06T06:27:36.088Z</time></trkpt><trkpt lat="40.9860517" lon="14.3116517"><ele>20.0</ele><time>2026-04-06T06:27:37.087Z</time></trkpt><trkpt lat="40.98613" lon="14.3116633"><ele>20.0</ele><time>2026-04-06T06:27:38.087Z</time></trkpt><trkpt lat="40.9862067" lon="14.3116767"><ele>20.0</ele><time>2026-04-06T06:27:39.087Z</time></trkpt><trkpt lat="40.9862867" lon="14.31169"><ele>20.0</ele><time>2026-04-06T06:27:40.089Z</time></trkpt><trkpt lat="40.9863633" lon="14.3117017"><ele>20.0</ele><time>2026-04-06T06:27:41.086Z</time></trkpt><trkpt lat="40.98644" lon="14.311715"><ele>20.0</ele><time>2026-04-06T06:27:42.087Z</time></trkpt><trkpt lat="40.9865183" lon="14.3117267"><ele>20.0</ele><time>2026-04-06T06:27:43.087Z</time></trkpt><trkpt lat="40.9865967" lon="14.31174"><ele>20.0</ele><time>2026-04-06T06:27:44.087Z</time></trkpt><trkpt lat="40.986675" lon="14.3117517"><ele>20.0</ele><time>2026-04-06T06:27:45.088Z</time></trkpt><trkpt lat="40.98675" lon="14.311765"><ele>20.0</ele><time>2026-04-06T06:27:46.089Z</time></trkpt><trkpt lat="40.986825" lon="14.31178"><ele>20.0</ele><time>2026-04-06T06:27:47.088Z</time></trkpt><trkpt lat="40.9868983" lon="14.3117983"><ele>20.0</ele><time>2026-04-06T06:27:48.089Z</time></trkpt><trkpt lat="40.9869733" lon="14.3118233"><ele>20.0</ele><time>2026-04-06T06:27:49.088Z</time></trkpt><trkpt lat="40.9870467" lon="14.31186"><ele>20.0</ele><time>2026-04-06T06:27:50.088Z</time></trkpt><trkpt lat="40.9871183" lon="14.3119083"><ele>20.0</ele><time>2026-04-06T06:27:51.087Z</time></trkpt><trkpt lat="40.9871867" lon="14.311965"><ele>20.0</ele><time>2026-04-06T06:27:52.088Z</time></trkpt><trkpt lat="40.98725" lon="14.312025"><ele>20.0</ele><time>2026-04-06T06:27:53.086Z</time></trkpt><trkpt lat="40.98731" lon="14.312085"><ele>20.0</ele><time>2026-04-06T06:27:54.087Z</time></trkpt><trkpt lat="40.9873717" lon="14.3121483"><ele>20.0</ele><time>2026-04-06T06:27:55.086Z</time></trkpt><trkpt lat="40.987435" lon="14.3122167"><ele>20.0</ele><time>2026-04-06T06:27:56.088Z</time></trkpt><trkpt lat="40.9874983" lon="14.312285"><ele>20.0</ele><time>2026-04-06T06:27:57.086Z</time></trkpt><trkpt lat="40.9875617" lon="14.31235"><ele>20.0</ele><time>2026-04-06T06:27:58.086Z</time></trkpt><trkpt lat="40.987625" lon="14.312415"><ele>20.0</ele><time>2026-04-06T06:27:59.088Z</time></trkpt><trkpt lat="40.9876883" lon="14.3124783"><ele>20.0</ele><time>2026-04-06T06:28:00.088Z</time></trkpt><trkpt lat="40.9877517" lon="14.31254"><ele>19.833333333333336</ele><time>2026-04-06T06:28:01.089Z</time></trkpt><trkpt lat="40.9878167" lon="14.312605"><ele>19.666666666666668</ele><time>2026-04-06T06:28:02.088Z</time></trkpt><trkpt lat="40.9878833" lon="14.3126717"><ele>19.5</ele><time>2026-04-06T06:28:03.086Z</time></trkpt><trkpt lat="40.9879483" lon="14.3127383"><ele>19.333333333333332</ele><time>2026-04-06T06:28:04.085Z</time></trkpt><trkpt lat="40.98801" lon="14.312805"><ele>19.166666666666664</ele><time>2026-04-06T06:28:05.085Z</time></trkpt><trkpt lat="40.9880733" lon="14.3128683"><ele>19.0</ele><time>2026-04-06T06:28:06.088Z</time></trkpt><trkpt lat="40.9881367" lon="14.31293"><ele>19.0</ele><time>2026-04-06T06:28:07.09Z</time></trkpt><trkpt lat="40.9881983" lon="14.31299"><ele>19.0</ele><time>2026-04-06T06:28:08.086Z</time></trkpt><trkpt lat="40.9882567" lon="14.3130483"><ele>19.0</ele><time>2026-04-06T06:28:09.089Z</time></trkpt><trkpt lat="40.98832" lon="14.3131133"><ele>19.0</ele><time>2026-04-06T06:28:10.088Z</time></trkpt><trkpt lat="40.9883833" lon="14.3131783"><ele>19.0</ele><time>2026-04-06T06:28:11.087Z</time></trkpt><trkpt lat="40.9884467" lon="14.3132367"><ele>19.0</ele><time>2026-04-06T06:28:12.087Z</time></trkpt><trkpt lat="40.9885083" lon="14.3132983"><ele>19.333333333333332</ele><time>2026-04-06T06:28:13.087Z</time></trkpt><trkpt lat="40.9885717" lon="14.31336"><ele>19.666666666666664</ele><time>2026-04-06T06:28:14.087Z</time></trkpt><trkpt lat="40.988635" lon="14.3134233"><ele>20.0</ele><time>2026-04-06T06:28:15.088Z</time></trkpt><trkpt lat="40.9886967" lon="14.3134883"><ele>20.333333333333332</ele><time>2026-04-06T06:28:16.085Z</time></trkpt><trkpt lat="40.9887583" lon="14.3135567"><ele>20.666666666666668</ele><time>2026-04-06T06:28:17.088Z</time></trkpt><trkpt lat="40.98882" lon="14.3136217"><ele>21.0</ele><time>2026-04-06T06:28:18.088Z</time></trkpt><trkpt lat="40.98888" lon="14.3136883"><ele>21.0</ele><time>2026-04-06T06:28:19.088Z</time></trkpt><trkpt lat="40.98894" lon="14.3137517"><ele>21.0</ele><time>2026-04-06T06:28:20.088Z</time></trkpt><trkpt lat="40.989" lon="14.313815"><ele>21.0</ele><time>2026-04-06T06:28:21.088Z</time></trkpt><trkpt lat="40.9890583" lon="14.3138817"><ele>21.0</ele><time>2026-04-06T06:28:22.087Z</time></trkpt><trkpt lat="40.9891183" lon="14.31394"><ele>21.0</ele><time>2026-04-06T06:28:23.088Z</time></trkpt><trkpt lat="40.9891783" lon="14.314"><ele>21.0</ele><time>2026-04-06T06:28:24.089Z</time></trkpt><trkpt lat="40.9892383" lon="14.3140583"><ele>21.0</ele><time>2026-04-06T06:28:25.087Z</time></trkpt><trkpt lat="40.9892983" lon="14.31412"><ele>21.0</ele><time>2026-04-06T06:28:26.086Z</time></trkpt><trkpt lat="40.9893583" lon="14.3141817"><ele>21.0</ele><time>2026-04-06T06:28:27.088Z</time></trkpt><trkpt lat="40.9894167" lon="14.3142433"><ele>21.0</ele><time>2026-04-06T06:28:28.087Z</time></trkpt><trkpt lat="40.9894767" lon="14.314305"><ele>21.0</ele><time>2026-04-06T06:28:29.088Z</time></trkpt><trkpt lat="40.989535" lon="14.3143667"><ele>21.0</ele><time>2026-04-06T06:28:30.089Z</time></trkpt><trkpt lat="40.9895933" lon="14.3144267"><ele>21.0</ele><time>2026-04-06T06:28:31.087Z</time></trkpt><trkpt lat="40.98965" lon="14.314485"><ele>21.0</ele><time>2026-04-06T06:28:32.088Z</time></trkpt><trkpt lat="40.9897067" lon="14.3145433"><ele>21.0</ele><time>2026-04-06T06:28:33.088Z</time></trkpt><trkpt lat="40.9897617" lon="14.3145983"><ele>21.0</ele><time>2026-04-06T06:28:34.088Z</time></trkpt><trkpt lat="40.9898167" lon="14.314655"><ele>21.0</ele><time>2026-04-06T06:28:35.086Z</time></trkpt><trkpt lat="40.989875" lon="14.3147133"><ele>21.0</ele><time>2026-04-06T06:28:36.086Z</time></trkpt><trkpt lat="40.989935" lon="14.3147733"><ele>21.0</ele><time>2026-04-06T06:28:37.088Z</time></trkpt><trkpt lat="40.9899967" lon="14.314835"><ele>20.833333333333332</ele><time>2026-04-06T06:28:38.088Z</time></trkpt><trkpt lat="40.9900583" lon="14.3149"><ele>20.666666666666668</ele><time>2026-04-06T06:28:39.088Z</time></trkpt><trkpt lat="40.9901217" lon="14.3149617"><ele>20.5</ele><time>2026-04-06T06:28:40.088Z</time></trkpt><trkpt lat="40.990185" lon="14.315025"><ele>20.333333333333336</ele><time>2026-04-06T06:28:41.088Z</time></trkpt><trkpt lat="40.9902517" lon="14.3150867"><ele>20.166666666666668</ele><time>2026-04-06T06:28:42.087Z</time></trkpt><trkpt lat="40.9903183" lon="14.3151517"><ele>20.0</ele><time>2026-04-06T06:28:43.088Z</time></trkpt><trkpt lat="40.9903833" lon="14.315215"><ele>20.0</ele><time>2026-04-06T06:28:44.09Z</time></trkpt><trkpt lat="40.9904467" lon="14.3152783"><ele>20.0</ele><time>2026-04-06T06:28:45.088Z</time></trkpt><trkpt lat="40.99051" lon="14.31534"><ele>20.0</ele><time>2026-04-06T06:28:46.089Z</time></trkpt><trkpt lat="40.99057" lon="14.3154067"><ele>20.0</ele><time>2026-04-06T06:28:47.09Z</time></trkpt><trkpt lat="40.9906283" lon="14.3154817"><ele>20.0</ele><time>2026-04-06T06:28:48.089Z</time></trkpt><trkpt lat="40.9906817" lon="14.31555"><ele>20.0</ele><time>2026-04-06T06:28:49.089Z</time></trkpt><trkpt lat="40.99073" lon="14.3156133"><ele>19.833333333333336</ele><time>2026-04-06T06:28:50.088Z</time></trkpt><trkpt lat="40.9908167" lon="14.3157283"><ele>19.666666666666668</ele><time>2026-04-06T06:28:52.087Z</time></trkpt><trkpt lat="40.9908633" lon="14.315785"><ele>19.5</ele><time>2026-04-06T06:28:53.088Z</time></trkpt><trkpt lat="40.99091" lon="14.3158417"><ele>19.333333333333332</ele><time>2026-04-06T06:28:54.088Z</time></trkpt><trkpt lat="40.99096" lon="14.3158983"><ele>19.166666666666664</ele><time>2026-04-06T06:28:55.088Z</time></trkpt><trkpt lat="40.9910133" lon="14.3159533"><ele>19.0</ele><time>2026-04-06T06:28:56.09Z</time></trkpt><trkpt lat="40.991065" lon="14.31601"><ele>19.0</ele><time>2026-04-06T06:28:57.088Z</time></trkpt><trkpt lat="40.9911167" lon="14.3160633"><ele>19.0</ele><time>2026-04-06T06:28:58.086Z</time></trkpt><trkpt lat="40.9911717" lon="14.31612"><ele>19.0</ele><time>2026-04-06T06:28:59.089Z</time></trkpt><trkpt lat="40.991225" lon="14.3161783"><ele>19.0</ele><time>2026-04-06T06:29:00.089Z</time></trkpt><trkpt lat="40.9912783" lon="14.3162333"><ele>19.0</ele><time>2026-04-06T06:29:01.088Z</time></trkpt><trkpt lat="40.9913333" lon="14.3162883"><ele>19.0</ele><time>2026-04-06T06:29:02.088Z</time></trkpt><trkpt lat="40.9913917" lon="14.3163467"><ele>19.0</ele><time>2026-04-06T06:29:03.087Z</time></trkpt><trkpt lat="40.9914483" lon="14.3164033"><ele>19.142857142857142</ele><time>2026-04-06T06:29:04.088Z</time></trkpt><trkpt lat="40.9915033" lon="14.3164617"><ele>19.28571428571429</ele><time>2026-04-06T06:29:05.085Z</time></trkpt><trkpt lat="40.9915617" lon="14.31652"><ele>19.42857142857143</ele><time>2026-04-06T06:29:06.089Z</time></trkpt><trkpt lat="40.9916183" lon="14.3165767"><ele>19.57142857142857</ele><time>2026-04-06T06:29:07.087Z</time></trkpt><trkpt lat="40.99168" lon="14.316635"><ele>19.714285714285715</ele><time>2026-04-06T06:29:08.088Z</time></trkpt><trkpt lat="40.9917383" lon="14.3166917"><ele>19.857142857142858</ele><time>2026-04-06T06:29:09.087Z</time></trkpt><trkpt lat="40.991795" lon="14.31675"><ele>20.0</ele><time>2026-04-06T06:29:10.087Z</time></trkpt><trkpt lat="40.9918533" lon="14.3168117"><ele>20.0</ele><time>2026-04-06T06:29:11.089Z</time></trkpt><trkpt lat="40.9919117" lon="14.3168683"><ele>20.0</ele><time>2026-04-06T06:29:12.085Z</time></trkpt><trkpt lat="40.991975" lon="14.31693"><ele>20.0</ele><time>2026-04-06T06:29:13.087Z</time></trkpt><trkpt lat="40.9920383" lon="14.3169867"><ele>20.0</ele><time>2026-04-06T06:29:14.089Z</time></trkpt><trkpt lat="40.9921" lon="14.317045"><ele>20.0</ele><time>2026-04-06T06:29:15.085Z</time></trkpt><trkpt lat="40.9921617" lon="14.317105"><ele>20.0</ele><time>2026-04-06T06:29:16.089Z</time></trkpt><trkpt lat="40.9922217" lon="14.31716"><ele>20.0</ele><time>2026-04-06T06:29:17.087Z</time></trkpt><trkpt lat="40.992285" lon="14.317215"><ele>20.0</ele><time>2026-04-06T06:29:18.087Z</time></trkpt><trkpt lat="40.9923483" lon="14.31727"><ele>20.0</ele><time>2026-04-06T06:29:19.085Z</time></trkpt><trkpt lat="40.9924117" lon="14.3173267"><ele>20.0</ele><time>2026-04-06T06:29:20.087Z</time></trkpt><trkpt lat="40.992475" lon="14.3173817"><ele>20.0</ele><time>2026-04-06T06:29:21.087Z</time></trkpt><trkpt lat="40.99254" lon="14.3174383"><ele>20.0</ele><time>2026-04-06T06:29:22.085Z</time></trkpt><trkpt lat="40.992605" lon="14.31749"><ele>19.833333333333336</ele><time>2026-04-06T06:29:23.087Z</time></trkpt><trkpt lat="40.99267" lon="14.31754"><ele>19.666666666666668</ele><time>2026-04-06T06:29:24.087Z</time></trkpt><trkpt lat="40.992735" lon="14.3175867"><ele>19.5</ele><time>2026-04-06T06:29:25.086Z</time></trkpt><trkpt lat="40.9928033" lon="14.31763"><ele>19.333333333333332</ele><time>2026-04-06T06:29:26.087Z</time></trkpt><trkpt lat="40.992875" lon="14.317665"><ele>19.166666666666664</ele><time>2026-04-06T06:29:27.087Z</time></trkpt><trkpt lat="40.9929483" lon="14.317695"><ele>19.0</ele><time>2026-04-06T06:29:28.087Z</time></trkpt><trkpt lat="40.9930217" lon="14.3177183"><ele>19.0</ele><time>2026-04-06T06:29:29.085Z</time></trkpt><trkpt lat="40.9930983" lon="14.3177383"><ele>19.0</ele><time>2026-04-06T06:29:30.087Z</time></trkpt><trkpt lat="40.993175" lon="14.3177533"><ele>19.0</ele><time>2026-04-06T06:29:31.088Z</time></trkpt><trkpt lat="40.99325" lon="14.3177667"><ele>19.0</ele><time>2026-04-06T06:29:32.087Z</time></trkpt><trkpt lat="40.9933267" lon="14.31778"><ele>19.0</ele><time>2026-04-06T06:29:33.086Z</time></trkpt><trkpt lat="40.9934033" lon="14.3177867"><ele>19.0</ele><time>2026-04-06T06:29:34.085Z</time></trkpt><trkpt lat="40.9934817" lon="14.317795"><ele>19.0</ele><time>2026-04-06T06:29:35.088Z</time></trkpt><trkpt lat="40.99356" lon="14.3178017"><ele>19.0</ele><time>2026-04-06T06:29:36.086Z</time></trkpt><trkpt lat="40.9936383" lon="14.3178117"><ele>19.0</ele><time>2026-04-06T06:29:37.089Z</time></trkpt><trkpt lat="40.993715" lon="14.3178217"><ele>19.0</ele><time>2026-04-06T06:29:38.087Z</time></trkpt><trkpt lat="40.9937933" lon="14.3178317"><ele>19.0</ele><time>2026-04-06T06:29:39.087Z</time></trkpt><trkpt lat="40.99387" lon="14.3178383"><ele>19.0</ele><time>2026-04-06T06:29:40.085Z</time></trkpt><trkpt lat="40.9939467" lon="14.3178483"><ele>19.0</ele><time>2026-04-06T06:29:41.088Z</time></trkpt><trkpt lat="40.9940217" lon="14.3178533"><ele>19.0</ele><time>2026-04-06T06:29:42.086Z</time></trkpt><trkpt lat="40.9940967" lon="14.3178633"><ele>19.0</ele><time>2026-04-06T06:29:43.087Z</time></trkpt><trkpt lat="40.9941717" lon="14.317875"><ele>19.0</ele><time>2026-04-06T06:29:44.086Z</time></trkpt><trkpt lat="40.9942433" lon="14.3178833"><ele>19.0</ele><time>2026-04-06T06:29:45.087Z</time></trkpt><trkpt lat="40.9943183" lon="14.31789"><ele>19.0</ele><time>2026-04-06T06:29:46.086Z</time></trkpt><trkpt lat="40.9943933" lon="14.3178967"><ele>19.0</ele><time>2026-04-06T06:29:47.087Z</time></trkpt><trkpt lat="40.9944683" lon="14.3179033"><ele>19.0</ele><time>2026-04-06T06:29:48.087Z</time></trkpt><trkpt lat="40.994545" lon="14.3179133"><ele>19.0</ele><time>2026-04-06T06:29:49.086Z</time></trkpt><trkpt lat="40.99462" lon="14.3179183"><ele>19.0</ele><time>2026-04-06T06:29:50.087Z</time></trkpt><trkpt lat="40.9946967" lon="14.3179233"><ele>19.0</ele><time>2026-04-06T06:29:51.086Z</time></trkpt><trkpt lat="40.9947683" lon="14.3179317"><ele>19.0</ele><time>2026-04-06T06:29:52.086Z</time></trkpt><trkpt lat="40.9948417" lon="14.3179383"><ele>19.0</ele><time>2026-04-06T06:29:53.087Z</time></trkpt><trkpt lat="40.9949133" lon="14.3179467"><ele>19.0</ele><time>2026-04-06T06:29:54.089Z</time></trkpt><trkpt lat="40.994985" lon="14.3179533"><ele>19.0</ele><time>2026-04-06T06:29:55.088Z</time></trkpt><trkpt lat="40.9950567" lon="14.3179617"><ele>19.0</ele><time>2026-04-06T06:29:56.089Z</time></trkpt><trkpt lat="40.99513" lon="14.3179667"><ele>19.0</ele><time>2026-04-06T06:29:57.088Z</time></trkpt><trkpt lat="40.9952033" lon="14.317975"><ele>19.0</ele><time>2026-04-06T06:29:58.086Z</time></trkpt><trkpt lat="40.9952783" lon="14.3179833"><ele>19.0</ele><time>2026-04-06T06:29:59.088Z</time></trkpt><trkpt lat="40.9953517" lon="14.3179917"><ele>19.0</ele><time>2026-04-06T06:30:00.086Z</time></trkpt><trkpt lat="40.995425" lon="14.318"><ele>19.0</ele><time>2026-04-06T06:30:01.086Z</time></trkpt><trkpt lat="40.9954983" lon="14.3180083"><ele>19.0</ele><time>2026-04-06T06:30:02.086Z</time></trkpt><trkpt lat="40.9955717" lon="14.3180167"><ele>19.0</ele><time>2026-04-06T06:30:03.086Z</time></trkpt><trkpt lat="40.9956433" lon="14.3180233"><ele>19.0</ele><time>2026-04-06T06:30:04.085Z</time></trkpt><trkpt lat="40.995715" lon="14.3180283"><ele>19.0</ele><time>2026-04-06T06:30:05.085Z</time></trkpt><trkpt lat="40.9957883" lon="14.318035"><ele>19.0</ele><time>2026-04-06T06:30:06.085Z</time></trkpt><trkpt lat="40.9958583" lon="14.3180417"><ele>19.0</ele><time>2026-04-06T06:30:07.087Z</time></trkpt><trkpt lat="40.9959317" lon="14.31805"><ele>19.0</ele><time>2026-04-06T06:30:08.086Z</time></trkpt><trkpt lat="40.9960033" lon="14.3180583"><ele>19.166666666666664</ele><time>2026-04-06T06:30:09.087Z</time></trkpt><trkpt lat="40.9960767" lon="14.318065"><ele>19.333333333333332</ele><time>2026-04-06T06:30:10.085Z</time></trkpt><trkpt lat="40.99615" lon="14.3180717"><ele>19.5</ele><time>2026-04-06T06:30:11.087Z</time></trkpt><trkpt lat="40.9962267" lon="14.31808"><ele>19.666666666666668</ele><time>2026-04-06T06:30:12.085Z</time></trkpt><trkpt lat="40.9963033" lon="14.3180883"><ele>19.833333333333336</ele><time>2026-04-06T06:30:13.087Z</time></trkpt><trkpt lat="40.9963783" lon="14.318095"><ele>20.0</ele><time>2026-04-06T06:30:14.087Z</time></trkpt><trkpt lat="40.996455" lon="14.3181017"><ele>20.0</ele><time>2026-04-06T06:30:15.087Z</time></trkpt><trkpt lat="40.9965283" lon="14.31811"><ele>20.0</ele><time>2026-04-06T06:30:16.086Z</time></trkpt><trkpt lat="40.996605" lon="14.3181183"><ele>20.0</ele><time>2026-04-06T06:30:17.087Z</time></trkpt><trkpt lat="40.9966817" lon="14.3181283"><ele>20.0</ele><time>2026-04-06T06:30:18.087Z</time></trkpt><trkpt lat="40.9967567" lon="14.318135"><ele>20.0</ele><time>2026-04-06T06:30:19.087Z</time></trkpt><trkpt lat="40.9968317" lon="14.3181433"><ele>20.0</ele><time>2026-04-06T06:30:20.088Z</time></trkpt><trkpt lat="40.9969033" lon="14.31815"><ele>20.166666666666668</ele><time>2026-04-06T06:30:21.088Z</time></trkpt><trkpt lat="40.9969783" lon="14.3181633"><ele>20.333333333333336</ele><time>2026-04-06T06:30:22.089Z</time></trkpt><trkpt lat="40.9970567" lon="14.3181767"><ele>20.5</ele><time>2026-04-06T06:30:23.089Z</time></trkpt><trkpt lat="40.9971333" lon="14.3181867"><ele>20.666666666666668</ele><time>2026-04-06T06:30:24.09Z</time></trkpt><trkpt lat="40.99721" lon="14.3181967"><ele>20.833333333333332</ele><time>2026-04-06T06:30:25.086Z</time></trkpt><trkpt lat="40.9972883" lon="14.318205"><ele>21.0</ele><time>2026-04-06T06:30:26.09Z</time></trkpt><trkpt lat="40.9973683" lon="14.3182117"><ele>21.0</ele><time>2026-04-06T06:30:27.089Z</time></trkpt><trkpt lat="40.99745" lon="14.31822"><ele>21.0</ele><time>2026-04-06T06:30:28.086Z</time></trkpt><trkpt lat="40.9975317" lon="14.31823"><ele>21.0</ele><time>2026-04-06T06:30:29.087Z</time></trkpt><trkpt lat="40.9976133" lon="14.3182383"><ele>21.0</ele><time>2026-04-06T06:30:30.085Z</time></trkpt><trkpt lat="40.9976967" lon="14.3182433"><ele>21.0</ele><time>2026-04-06T06:30:31.088Z</time></trkpt><trkpt lat="40.99778" lon="14.31825"><ele>21.0</ele><time>2026-04-06T06:30:32.087Z</time></trkpt><trkpt lat="40.9978633" lon="14.3182617"><ele>21.0</ele><time>2026-04-06T06:30:33.087Z</time></trkpt><trkpt lat="40.997945" lon="14.3182733"><ele>21.0</ele><time>2026-04-06T06:30:34.084Z</time></trkpt><trkpt lat="40.9980283" lon="14.3182817"><ele>21.0</ele><time>2026-04-06T06:30:35.085Z</time></trkpt><trkpt lat="40.99811" lon="14.3182867"><ele>21.0</ele><time>2026-04-06T06:30:36.086Z</time></trkpt><trkpt lat="40.9981883" lon="14.318295"><ele>21.0</ele><time>2026-04-06T06:30:37.087Z</time></trkpt><trkpt lat="40.9982683" lon="14.3183033"><ele>21.0</ele><time>2026-04-06T06:30:38.088Z</time></trkpt><trkpt lat="40.9983467" lon="14.31831"><ele>21.0</ele><time>2026-04-06T06:30:39.089Z</time></trkpt><trkpt lat="40.9984283" lon="14.3183183"><ele>21.0</ele><time>2026-04-06T06:30:40.089Z</time></trkpt><trkpt lat="40.99851" lon="14.3183267"><ele>21.0</ele><time>2026-04-06T06:30:41.088Z</time></trkpt><trkpt lat="40.9985917" lon="14.318335"><ele>21.0</ele><time>2026-04-06T06:30:42.088Z</time></trkpt><trkpt lat="40.9986717" lon="14.3183417"><ele>21.0</ele><time>2026-04-06T06:30:43.088Z</time></trkpt><trkpt lat="40.9987517" lon="14.3183517"><ele>21.0</ele><time>2026-04-06T06:30:44.086Z</time></trkpt><trkpt lat="40.9988333" lon="14.3183567"><ele>21.0</ele><time>2026-04-06T06:30:45.089Z</time></trkpt><trkpt lat="40.9989117" lon="14.3183633"><ele>21.0</ele><time>2026-04-06T06:30:46.089Z</time></trkpt><trkpt lat="40.9989917" lon="14.3183767"><ele>21.0</ele><time>2026-04-06T06:30:47.088Z</time></trkpt><trkpt lat="40.9990717" lon="14.3183867"><ele>21.0</ele><time>2026-04-06T06:30:48.089Z</time></trkpt><trkpt lat="40.99915" lon="14.318395"><ele>21.0</ele><time>2026-04-06T06:30:49.089Z</time></trkpt><trkpt lat="40.9992283" lon="14.3184017"><ele>21.0</ele><time>2026-04-06T06:30:50.087Z</time></trkpt><trkpt lat="40.9993033" lon="14.3184083"><ele>21.0</ele><time>2026-04-06T06:30:51.089Z</time></trkpt><trkpt lat="40.9993767" lon="14.3184183"><ele>21.0</ele><time>2026-04-06T06:30:52.087Z</time></trkpt><trkpt lat="40.9994517" lon="14.3184283"><ele>21.0</ele><time>2026-04-06T06:30:53.087Z</time></trkpt><trkpt lat="40.9995283" lon="14.3184333"><ele>21.0</ele><time>2026-04-06T06:30:54.09Z</time></trkpt><trkpt lat="40.999605" lon="14.3184383"><ele>21.0</ele><time>2026-04-06T06:30:55.088Z</time></trkpt><trkpt lat="40.9996817" lon="14.3184433"><ele>21.0</ele><time>2026-04-06T06:30:56.087Z</time></trkpt><trkpt lat="40.9997583" lon="14.3184483"><ele>21.0</ele><time>2026-04-06T06:30:57.086Z</time></trkpt><trkpt lat="40.999835" lon="14.3184533"><ele>21.0</ele><time>2026-04-06T06:30:58.087Z</time></trkpt><trkpt lat="40.9999117" lon="14.31846"><ele>21.0</ele><time>2026-04-06T06:30:59.088Z</time></trkpt><trkpt lat="40.9999867" lon="14.31847"><ele>21.0</ele><time>2026-04-06T06:31:00.088Z</time></trkpt><trkpt lat="41.0000617" lon="14.318475"><ele>21.0</ele><time>2026-04-06T06:31:01.089Z</time></trkpt><trkpt lat="41.0001383" lon="14.3184833"><ele>21.0</ele><time>2026-04-06T06:31:02.085Z</time></trkpt><trkpt lat="41.0002167" lon="14.3184917"><ele>21.0</ele><time>2026-04-06T06:31:03.085Z</time></trkpt><trkpt lat="41.0002917" lon="14.3185017"><ele>21.0</ele><time>2026-04-06T06:31:04.086Z</time></trkpt><trkpt lat="41.0003667" lon="14.3185133"><ele>21.0</ele><time>2026-04-06T06:31:05.085Z</time></trkpt><trkpt lat="41.0004417" lon="14.3185217"><ele>21.0</ele><time>2026-04-06T06:31:06.087Z</time></trkpt><trkpt lat="41.0005183" lon="14.31853"><ele>21.0</ele><time>2026-04-06T06:31:07.087Z</time></trkpt><trkpt lat="41.0005917" lon="14.318535"><ele>21.0</ele><time>2026-04-06T06:31:08.088Z</time></trkpt><trkpt lat="41.0006667" lon="14.3185433"><ele>21.0</ele><time>2026-04-06T06:31:09.087Z</time></trkpt><trkpt lat="41.0007383" lon="14.3185483"><ele>21.0</ele><time>2026-04-06T06:31:10.087Z</time></trkpt><trkpt lat="41.0008117" lon="14.3185583"><ele>21.0</ele><time>2026-04-06T06:31:11.089Z</time></trkpt><trkpt lat="41.0008883" lon="14.3185617"><ele>21.0</ele><time>2026-04-06T06:31:12.089Z</time></trkpt><trkpt lat="41.0009617" lon="14.318565"><ele>21.0</ele><time>2026-04-06T06:31:13.088Z</time></trkpt><trkpt lat="41.0010383" lon="14.3185733"><ele>21.0</ele><time>2026-04-06T06:31:14.085Z</time></trkpt><trkpt lat="41.0011167" lon="14.3185883"><ele>21.0</ele><time>2026-04-06T06:31:15.088Z</time></trkpt><trkpt lat="41.0011933" lon="14.3186133"><ele>21.0</ele><time>2026-04-06T06:31:16.089Z</time></trkpt><trkpt lat="41.0012667" lon="14.3186483"><ele>21.0</ele><time>2026-04-06T06:31:17.088Z</time></trkpt><trkpt lat="41.001335" lon="14.3186933"><ele>21.0</ele><time>2026-04-06T06:31:18.089Z</time></trkpt><trkpt lat="41.0013967" lon="14.31875"><ele>21.0</ele><time>2026-04-06T06:31:19.087Z</time></trkpt><trkpt lat="41.0014533" lon="14.3188183"><ele>21.0</ele><time>2026-04-06T06:31:20.087Z</time></trkpt><trkpt lat="41.0015017" lon="14.318895"><ele>21.0</ele><time>2026-04-06T06:31:21.085Z</time></trkpt><trkpt lat="41.0015483" lon="14.3189767"><ele>21.0</ele><time>2026-04-06T06:31:22.086Z</time></trkpt><trkpt lat="41.0015967" lon="14.319055"><ele>21.0</ele><time>2026-04-06T06:31:23.088Z</time></trkpt><trkpt lat="41.0016517" lon="14.31912"><ele>21.0</ele><time>2026-04-06T06:31:24.089Z</time></trkpt><trkpt lat="41.001715" lon="14.319165"><ele>21.0</ele><time>2026-04-06T06:31:25.088Z</time></trkpt><trkpt lat="41.0017833" lon="14.319185"><ele>21.0</ele><time>2026-04-06T06:31:26.089Z</time></trkpt><trkpt lat="41.0018483" lon="14.3191733"><ele>21.0</ele><time>2026-04-06T06:31:27.088Z</time></trkpt><trkpt lat="41.0019117" lon="14.3191433"><ele>21.0</ele><time>2026-04-06T06:31:28.089Z</time></trkpt><trkpt lat="41.0019617" lon="14.3190867"><ele>21.0</ele><time>2026-04-06T06:31:29.085Z</time></trkpt><trkpt lat="41.0020067" lon="14.3190217"><ele>21.0</ele><time>2026-04-06T06:31:30.087Z</time></trkpt><trkpt lat="41.0020533" lon="14.3189617"><ele>21.0</ele><time>2026-04-06T06:31:31.087Z</time></trkpt><trkpt lat="41.0021067" lon="14.3189033"><ele>21.0</ele><time>2026-04-06T06:31:32.088Z</time></trkpt><trkpt lat="41.00217" lon="14.3188583"><ele>21.0</ele><time>2026-04-06T06:31:33.089Z</time></trkpt><trkpt lat="41.002235" lon="14.3188233"><ele>21.0</ele><time>2026-04-06T06:31:34.089Z</time></trkpt><trkpt lat="41.0023" lon="14.3188017"><ele>21.0</ele><time>2026-04-06T06:31:35.088Z</time></trkpt><trkpt lat="41.0023667" lon="14.3187867"><ele>21.0</ele><time>2026-04-06T06:31:36.088Z</time></trkpt><trkpt lat="41.002435" lon="14.31878"><ele>21.0</ele><time>2026-04-06T06:31:37.089Z</time></trkpt><trkpt lat="41.0025017" lon="14.3187783"><ele>21.0</ele><time>2026-04-06T06:31:38.088Z</time></trkpt><trkpt lat="41.00257" lon="14.31878"><ele>21.0</ele><time>2026-04-06T06:31:39.088Z</time></trkpt><trkpt lat="41.0026383" lon="14.3187833"><ele>21.0</ele><time>2026-04-06T06:31:40.088Z</time></trkpt><trkpt lat="41.0027067" lon="14.3187917"><ele>21.0</ele><time>2026-04-06T06:31:41.088Z</time></trkpt><trkpt lat="41.002775" lon="14.3188"><ele>21.142857142857142</ele><time>2026-04-06T06:31:42.089Z</time></trkpt><trkpt lat="41.002845" lon="14.3188083"><ele>21.285714285714285</ele><time>2026-04-06T06:31:43.088Z</time></trkpt><trkpt lat="41.002915" lon="14.3188133"><ele>21.42857142857143</ele><time>2026-04-06T06:31:44.089Z</time></trkpt><trkpt lat="41.002985" lon="14.3188183"><ele>21.57142857142857</ele><time>2026-04-06T06:31:45.089Z</time></trkpt><trkpt lat="41.0030567" lon="14.3188233"><ele>21.714285714285715</ele><time>2026-04-06T06:31:46.089Z</time></trkpt><trkpt lat="41.0031283" lon="14.3188317"><ele>21.857142857142858</ele><time>2026-04-06T06:31:47.086Z</time></trkpt><trkpt lat="41.0032033" lon="14.3188417"><ele>22.0</ele><time>2026-04-06T06:31:48.089Z</time></trkpt><trkpt lat="41.0032767" lon="14.3188483"><ele>21.571428571428573</ele><time>2026-04-06T06:31:49.086Z</time></trkpt><trkpt lat="41.00335" lon="14.3188567"><ele>21.142857142857142</ele><time>2026-04-06T06:31:50.089Z</time></trkpt><trkpt lat="41.0034217" lon="14.3188667"><ele>20.714285714285715</ele><time>2026-04-06T06:31:51.088Z</time></trkpt><trkpt lat="41.0034917" lon="14.31888"><ele>20.285714285714285</ele><time>2026-04-06T06:31:52.088Z</time></trkpt><trkpt lat="41.0035633" lon="14.31889"><ele>19.857142857142858</ele><time>2026-04-06T06:31:53.089Z</time></trkpt><trkpt lat="41.003635" lon="14.3189"><ele>19.428571428571427</ele><time>2026-04-06T06:31:54.086Z</time></trkpt><trkpt lat="41.0037083" lon="14.3189083"><ele>19.0</ele><time>2026-04-06T06:31:55.088Z</time></trkpt><trkpt lat="41.00378" lon="14.31892"><ele>19.0</ele><time>2026-04-06T06:31:56.088Z</time></trkpt><trkpt lat="41.0038517" lon="14.3189283"><ele>19.0</ele><time>2026-04-06T06:31:57.087Z</time></trkpt><trkpt lat="41.0039217" lon="14.31894"><ele>19.0</ele><time>2026-04-06T06:31:58.089Z</time></trkpt><trkpt lat="41.00399" lon="14.3189533"><ele>19.0</ele><time>2026-04-06T06:31:59.089Z</time></trkpt><trkpt lat="41.0040617" lon="14.318965"><ele>19.0</ele><time>2026-04-06T06:32:00.088Z</time></trkpt><trkpt lat="41.0041333" lon="14.3189767"><ele>19.0</ele><time>2026-04-06T06:32:01.085Z</time></trkpt><trkpt lat="41.0042067" lon="14.31899"><ele>19.0</ele><time>2026-04-06T06:32:02.086Z</time></trkpt><trkpt lat="41.00428" lon="14.3190067"><ele>19.666666666666664</ele><time>2026-04-06T06:32:03.087Z</time></trkpt><trkpt lat="41.0043533" lon="14.319025"><ele>20.333333333333332</ele><time>2026-04-06T06:32:04.085Z</time></trkpt><trkpt lat="41.004425" lon="14.3190433"><ele>21.0</ele><time>2026-04-06T06:32:05.085Z</time></trkpt><trkpt lat="41.0044967" lon="14.319065"><ele>21.666666666666668</ele><time>2026-04-06T06:32:06.087Z</time></trkpt><trkpt lat="41.00457" lon="14.31909"><ele>22.333333333333336</ele><time>2026-04-06T06:32:07.087Z</time></trkpt><trkpt lat="41.004645" lon="14.3191133"><ele>23.0</ele><time>2026-04-06T06:32:08.088Z</time></trkpt><trkpt lat="41.00472" lon="14.31914"><ele>23.0</ele><time>2026-04-06T06:32:09.085Z</time></trkpt><trkpt lat="41.0047983" lon="14.3191667"><ele>23.0</ele><time>2026-04-06T06:32:10.085Z</time></trkpt><trkpt lat="41.00488" lon="14.3191933"><ele>23.0</ele><time>2026-04-06T06:32:11.086Z</time></trkpt><trkpt lat="41.0049583" lon="14.3192217"><ele>23.0</ele><time>2026-04-06T06:32:12.087Z</time></trkpt><trkpt lat="41.005035" lon="14.31925"><ele>23.0</ele><time>2026-04-06T06:32:13.087Z</time></trkpt><trkpt lat="41.0051083" lon="14.3192783"><ele>23.0</ele><time>2026-04-06T06:32:14.087Z</time></trkpt><trkpt lat="41.0051833" lon="14.3193083"><ele>22.833333333333336</ele><time>2026-04-06T06:32:15.087Z</time></trkpt><trkpt lat="41.0052583" lon="14.319335"><ele>22.666666666666668</ele><time>2026-04-06T06:32:16.085Z</time></trkpt><trkpt lat="41.0053317" lon="14.31936"><ele>22.5</ele><time>2026-04-06T06:32:17.085Z</time></trkpt><trkpt lat="41.0054083" lon="14.3193867"><ele>22.333333333333332</ele><time>2026-04-06T06:32:18.088Z</time></trkpt><trkpt lat="41.005485" lon="14.3194167"><ele>22.166666666666664</ele><time>2026-04-06T06:32:19.089Z</time></trkpt><trkpt lat="41.00556" lon="14.31945"><ele>22.0</ele><time>2026-04-06T06:32:20.088Z</time></trkpt><trkpt lat="41.0056333" lon="14.319485"><ele>22.0</ele><time>2026-04-06T06:32:21.087Z</time></trkpt><trkpt lat="41.0057083" lon="14.3195167"><ele>22.0</ele><time>2026-04-06T06:32:22.086Z</time></trkpt><trkpt lat="41.0057817" lon="14.3195467"><ele>22.0</ele><time>2026-04-06T06:32:23.088Z</time></trkpt><trkpt lat="41.0058583" lon="14.3195767"><ele>22.0</ele><time>2026-04-06T06:32:24.09Z</time></trkpt><trkpt lat="41.005935" lon="14.319605"><ele>22.0</ele><time>2026-04-06T06:32:25.085Z</time></trkpt><trkpt lat="41.00601" lon="14.3196333"><ele>22.0</ele><time>2026-04-06T06:32:26.087Z</time></trkpt><trkpt lat="41.006085" lon="14.3196567"><ele>21.833333333333332</ele><time>2026-04-06T06:32:27.087Z</time></trkpt><trkpt lat="41.0061633" lon="14.319685"><ele>21.666666666666664</ele><time>2026-04-06T06:32:28.088Z</time></trkpt><trkpt lat="41.00624" lon="14.3197117"><ele>21.5</ele><time>2026-04-06T06:32:29.085Z</time></trkpt><trkpt lat="41.0063167" lon="14.3197383"><ele>21.333333333333332</ele><time>2026-04-06T06:32:30.089Z</time></trkpt><trkpt lat="41.006395" lon="14.319765"><ele>21.166666666666668</ele><time>2026-04-06T06:32:31.087Z</time></trkpt><trkpt lat="41.0064683" lon="14.31979"><ele>21.0</ele><time>2026-04-06T06:32:32.089Z</time></trkpt><trkpt lat="41.006545" lon="14.319815"><ele>21.166666666666668</ele><time>2026-04-06T06:32:33.086Z</time></trkpt><trkpt lat="41.0066217" lon="14.3198417"><ele>21.333333333333332</ele><time>2026-04-06T06:32:34.086Z</time></trkpt><trkpt lat="41.0067" lon="14.3198683"><ele>21.5</ele><time>2026-04-06T06:32:35.087Z</time></trkpt><trkpt lat="41.00678" lon="14.3198983"><ele>21.666666666666664</ele><time>2026-04-06T06:32:36.087Z</time></trkpt><trkpt lat="41.00686" lon="14.3199267"><ele>21.833333333333332</ele><time>2026-04-06T06:32:37.088Z</time></trkpt><trkpt lat="41.0069383" lon="14.3199533"><ele>22.0</ele><time>2026-04-06T06:32:38.087Z</time></trkpt><trkpt lat="41.007015" lon="14.3199817"><ele>22.0</ele><time>2026-04-06T06:32:39.086Z</time></trkpt><trkpt lat="41.0070933" lon="14.32001"><ele>22.0</ele><time>2026-04-06T06:32:40.088Z</time></trkpt><trkpt lat="41.0071683" lon="14.32004"><ele>22.0</ele><time>2026-04-06T06:32:41.085Z</time></trkpt><trkpt lat="41.007245" lon="14.32007"><ele>22.0</ele><time>2026-04-06T06:32:42.089Z</time></trkpt><trkpt lat="41.007325" lon="14.3201"><ele>22.0</ele><time>2026-04-06T06:32:43.088Z</time></trkpt><trkpt lat="41.0074" lon="14.3201267"><ele>22.0</ele><time>2026-04-06T06:32:44.089Z</time></trkpt><trkpt lat="41.0074767" lon="14.320155"><ele>21.833333333333332</ele><time>2026-04-06T06:32:45.085Z</time></trkpt><trkpt lat="41.007555" lon="14.320185"><ele>21.666666666666664</ele><time>2026-04-06T06:32:46.087Z</time></trkpt><trkpt lat="41.0076333" lon="14.320215"><ele>21.5</ele><time>2026-04-06T06:32:47.086Z</time></trkpt><trkpt lat="41.00771" lon="14.32024"><ele>21.333333333333332</ele><time>2026-04-06T06:32:48.087Z</time></trkpt><trkpt lat="41.0077867" lon="14.3202633"><ele>21.166666666666668</ele><time>2026-04-06T06:32:49.086Z</time></trkpt><trkpt lat="41.0078633" lon="14.3202867"><ele>21.0</ele><time>2026-04-06T06:32:50.087Z</time></trkpt><trkpt lat="41.0079383" lon="14.3203117"><ele>21.0</ele><time>2026-04-06T06:32:51.087Z</time></trkpt><trkpt lat="41.008015" lon="14.3203433"><ele>21.0</ele><time>2026-04-06T06:32:52.085Z</time></trkpt><trkpt lat="41.008095" lon="14.320375"><ele>21.0</ele><time>2026-04-06T06:32:53.087Z</time></trkpt><trkpt lat="41.0081717" lon="14.3204033"><ele>21.0</ele><time>2026-04-06T06:32:54.087Z</time></trkpt><trkpt lat="41.0082483" lon="14.3204333"><ele>21.0</ele><time>2026-04-06T06:32:55.089Z</time></trkpt><trkpt lat="41.008325" lon="14.3204617"><ele>21.0</ele><time>2026-04-06T06:32:56.086Z</time></trkpt><trkpt lat="41.0084033" lon="14.32049"><ele>20.833333333333332</ele><time>2026-04-06T06:32:57.087Z</time></trkpt><trkpt lat="41.0084783" lon="14.3205183"><ele>20.666666666666668</ele><time>2026-04-06T06:32:58.085Z</time></trkpt><trkpt lat="41.008555" lon="14.3205483"><ele>20.5</ele><time>2026-04-06T06:32:59.087Z</time></trkpt><trkpt lat="41.0086333" lon="14.3205767"><ele>20.333333333333336</ele><time>2026-04-06T06:33:00.086Z</time></trkpt><trkpt lat="41.0087117" lon="14.3206067"><ele>20.166666666666668</ele><time>2026-04-06T06:33:01.087Z</time></trkpt><trkpt lat="41.0087917" lon="14.3206383"><ele>20.0</ele><time>2026-04-06T06:33:02.086Z</time></trkpt><trkpt lat="41.00887" lon="14.32067"><ele>20.333333333333336</ele><time>2026-04-06T06:33:03.085Z</time></trkpt><trkpt lat="41.00895" lon="14.3206983"><ele>20.666666666666668</ele><time>2026-04-06T06:33:04.087Z</time></trkpt><trkpt lat="41.0090317" lon="14.3207267"><ele>21.0</ele><time>2026-04-06T06:33:05.088Z</time></trkpt><trkpt lat="41.0091117" lon="14.320755"><ele>21.333333333333332</ele><time>2026-04-06T06:33:06.09Z</time></trkpt><trkpt lat="41.0091917" lon="14.3207867"><ele>21.666666666666664</ele><time>2026-04-06T06:33:07.085Z</time></trkpt><trkpt lat="41.0092717" lon="14.3208167"><ele>22.0</ele><time>2026-04-06T06:33:08.087Z</time></trkpt><trkpt lat="41.00935" lon="14.3208483"><ele>22.166666666666664</ele><time>2026-04-06T06:33:09.086Z</time></trkpt><trkpt lat="41.00943" lon="14.320875"><ele>22.333333333333332</ele><time>2026-04-06T06:33:10.086Z</time></trkpt><trkpt lat="41.00951" lon="14.3209033"><ele>22.5</ele><time>2026-04-06T06:33:11.087Z</time></trkpt><trkpt lat="41.0095867" lon="14.3209317"><ele>22.666666666666668</ele><time>2026-04-06T06:33:12.086Z</time></trkpt><trkpt lat="41.009665" lon="14.32096"><ele>22.833333333333336</ele><time>2026-04-06T06:33:13.087Z</time></trkpt><trkpt lat="41.009745" lon="14.320985"><ele>23.0</ele><time>2026-04-06T06:33:14.087Z</time></trkpt><trkpt lat="41.0098233" lon="14.32101"><ele>23.0</ele><time>2026-04-06T06:33:15.087Z</time></trkpt><trkpt lat="41.0099017" lon="14.3210367"><ele>23.0</ele><time>2026-04-06T06:33:16.084Z</time></trkpt><trkpt lat="41.0099767" lon="14.321065"><ele>23.0</ele><time>2026-04-06T06:33:17.086Z</time></trkpt><trkpt lat="41.0100517" lon="14.3210883"><ele>23.0</ele><time>2026-04-06T06:33:18.087Z</time></trkpt><trkpt lat="41.010125" lon="14.3211117"><ele>23.0</ele><time>2026-04-06T06:33:19.086Z</time></trkpt><trkpt lat="41.0101983" lon="14.3211333"><ele>23.0</ele><time>2026-04-06T06:33:20.086Z</time></trkpt><trkpt lat="41.0102733" lon="14.3211567"><ele>22.833333333333336</ele><time>2026-04-06T06:33:21.087Z</time></trkpt><trkpt lat="41.01035" lon="14.321185"><ele>22.666666666666668</ele><time>2026-04-06T06:33:22.086Z</time></trkpt><trkpt lat="41.0104267" lon="14.321215"><ele>22.5</ele><time>2026-04-06T06:33:23.087Z</time></trkpt><trkpt lat="41.0105017" lon="14.32124"><ele>22.333333333333332</ele><time>2026-04-06T06:33:24.089Z</time></trkpt><trkpt lat="41.010575" lon="14.321265"><ele>22.166666666666664</ele><time>2026-04-06T06:33:25.086Z</time></trkpt><trkpt lat="41.0106433" lon="14.321295"><ele>22.0</ele><time>2026-04-06T06:33:26.086Z</time></trkpt><trkpt lat="41.0107117" lon="14.32133"><ele>22.0</ele><time>2026-04-06T06:33:27.088Z</time></trkpt><trkpt lat="41.0107767" lon="14.3213683"><ele>22.0</ele><time>2026-04-06T06:33:28.088Z</time></trkpt><trkpt lat="41.0108383" lon="14.3214083"><ele>22.0</ele><time>2026-04-06T06:33:29.087Z</time></trkpt><trkpt lat="41.0109" lon="14.3214467"><ele>22.0</ele><time>2026-04-06T06:33:30.087Z</time></trkpt><trkpt lat="41.0109617" lon="14.3214783"><ele>22.0</ele><time>2026-04-06T06:33:31.089Z</time></trkpt><trkpt lat="41.0110267" lon="14.3215133"><ele>22.0</ele><time>2026-04-06T06:33:32.085Z</time></trkpt><trkpt lat="41.01109" lon="14.32155"><ele>22.0</ele><time>2026-04-06T06:33:33.088Z</time></trkpt><trkpt lat="41.0111533" lon="14.3215917"><ele>22.142857142857142</ele><time>2026-04-06T06:33:34.09Z</time></trkpt><trkpt lat="41.0112133" lon="14.3216417"><ele>22.285714285714285</ele><time>2026-04-06T06:33:35.088Z</time></trkpt><trkpt lat="41.0112733" lon="14.321695"><ele>22.42857142857143</ele><time>2026-04-06T06:33:36.086Z</time></trkpt><trkpt lat="41.01133" lon="14.32175"><ele>22.57142857142857</ele><time>2026-04-06T06:33:37.085Z</time></trkpt><trkpt lat="41.0113867" lon="14.3218083"><ele>22.71428571428571</ele><time>2026-04-06T06:33:38.089Z</time></trkpt><trkpt lat="41.0114433" lon="14.3218667"><ele>22.857142857142858</ele><time>2026-04-06T06:33:39.088Z</time></trkpt><trkpt lat="41.0115017" lon="14.32193"><ele>23.0</ele><time>2026-04-06T06:33:40.089Z</time></trkpt><trkpt lat="41.0115583" lon="14.3219883"><ele>23.0</ele><time>2026-04-06T06:33:41.088Z</time></trkpt><trkpt lat="41.0116133" lon="14.3220517"><ele>23.0</ele><time>2026-04-06T06:33:42.085Z</time></trkpt><trkpt lat="41.0116667" lon="14.3221133"><ele>23.0</ele><time>2026-04-06T06:33:43.088Z</time></trkpt><trkpt lat="41.01172" lon="14.322175"><ele>23.0</ele><time>2026-04-06T06:33:44.09Z</time></trkpt><trkpt lat="41.0117733" lon="14.3222383"><ele>23.0</ele><time>2026-04-06T06:33:45.088Z</time></trkpt><trkpt lat="41.011825" lon="14.3222967"><ele>23.0</ele><time>2026-04-06T06:33:46.088Z</time></trkpt><trkpt lat="41.0118767" lon="14.3223567"><ele>23.0</ele><time>2026-04-06T06:33:47.087Z</time></trkpt><trkpt lat="41.01193" lon="14.3224167"><ele>23.28571428571429</ele><time>2026-04-06T06:33:48.088Z</time></trkpt><trkpt lat="41.0119817" lon="14.3224767"><ele>23.57142857142857</ele><time>2026-04-06T06:33:49.085Z</time></trkpt><trkpt lat="41.0120333" lon="14.32253"><ele>23.857142857142858</ele><time>2026-04-06T06:33:50.089Z</time></trkpt><trkpt lat="41.0120867" lon="14.3225867"><ele>24.142857142857146</ele><time>2026-04-06T06:33:51.086Z</time></trkpt><trkpt lat="41.01214" lon="14.32265"><ele>24.42857142857143</ele><time>2026-04-06T06:33:52.087Z</time></trkpt><trkpt lat="41.0121917" lon="14.3227133"><ele>24.714285714285715</ele><time>2026-04-06T06:33:53.089Z</time></trkpt><trkpt lat="41.0122433" lon="14.3227733"><ele>25.0</ele><time>2026-04-06T06:33:54.089Z</time></trkpt><trkpt lat="41.0122967" lon="14.322835"><ele>25.000000000000004</ele><time>2026-04-06T06:33:55.089Z</time></trkpt><trkpt lat="41.0123483" lon="14.322895"><ele>25.0</ele><time>2026-04-06T06:33:56.09Z</time></trkpt><trkpt lat="41.0123967" lon="14.3229583"><ele>25.0</ele><time>2026-04-06T06:33:57.089Z</time></trkpt><trkpt lat="41.0124467" lon="14.3230183"><ele>25.0</ele><time>2026-04-06T06:33:58.087Z</time></trkpt><trkpt lat="41.0125" lon="14.3230783"><ele>25.0</ele><time>2026-04-06T06:33:59.087Z</time></trkpt><trkpt lat="41.0125567" lon="14.3231383"><ele>25.000000000000004</ele><time>2026-04-06T06:34:00.087Z</time></trkpt><trkpt lat="41.01261" lon="14.3231933"><ele>25.0</ele><time>2026-04-06T06:34:01.085Z</time></trkpt><trkpt lat="41.0126633" lon="14.3232517"><ele>25.142857142857146</ele><time>2026-04-06T06:34:02.087Z</time></trkpt><trkpt lat="41.0127167" lon="14.3233117"><ele>25.285714285714285</ele><time>2026-04-06T06:34:03.085Z</time></trkpt><trkpt lat="41.0127717" lon="14.323375"><ele>25.42857142857143</ele><time>2026-04-06T06:34:04.085Z</time></trkpt><trkpt lat="41.012825" lon="14.3234367"><ele>25.571428571428573</ele><time>2026-04-06T06:34:05.087Z</time></trkpt><trkpt lat="41.0128783" lon="14.3234933"><ele>25.714285714285715</ele><time>2026-04-06T06:34:06.087Z</time></trkpt><trkpt lat="41.01293" lon="14.32355"><ele>25.857142857142858</ele><time>2026-04-06T06:34:07.087Z</time></trkpt><trkpt lat="41.0129867" lon="14.3236083"><ele>26.0</ele><time>2026-04-06T06:34:08.087Z</time></trkpt><trkpt lat="41.0130433" lon="14.32368"><ele>25.999999999999996</ele><time>2026-04-06T06:34:09.088Z</time></trkpt><trkpt lat="41.0130983" lon="14.3237483"><ele>26.0</ele><time>2026-04-06T06:34:10.088Z</time></trkpt><trkpt lat="41.0131517" lon="14.323815"><ele>26.0</ele><time>2026-04-06T06:34:11.088Z</time></trkpt><trkpt lat="41.0132117" lon="14.3238833"><ele>26.0</ele><time>2026-04-06T06:34:12.089Z</time></trkpt><trkpt lat="41.0132633" lon="14.3239583"><ele>25.999999999999996</ele><time>2026-04-06T06:34:13.088Z</time></trkpt><trkpt lat="41.0133133" lon="14.3240383"><ele>26.0</ele><time>2026-04-06T06:34:14.091Z</time></trkpt><trkpt lat="41.01336" lon="14.3241233"><ele>25.833333333333332</ele><time>2026-04-06T06:34:15.087Z</time></trkpt><trkpt lat="41.0134067" lon="14.324205"><ele>25.666666666666664</ele><time>2026-04-06T06:34:16.085Z</time></trkpt><trkpt lat="41.0134467" lon="14.3242917"><ele>25.5</ele><time>2026-04-06T06:34:17.087Z</time></trkpt><trkpt lat="41.0134867" lon="14.3243867"><ele>25.333333333333336</ele><time>2026-04-06T06:34:18.086Z</time></trkpt><trkpt lat="41.01352" lon="14.324485"><ele>25.166666666666668</ele><time>2026-04-06T06:34:19.086Z</time></trkpt><trkpt lat="41.0135483" lon="14.3245867"><ele>25.0</ele><time>2026-04-06T06:34:20.087Z</time></trkpt><trkpt lat="41.013575" lon="14.324685"><ele>24.666666666666668</ele><time>2026-04-06T06:34:21.089Z</time></trkpt><trkpt lat="41.0136033" lon="14.3247833"><ele>24.333333333333336</ele><time>2026-04-06T06:34:22.087Z</time></trkpt><trkpt lat="41.01363" lon="14.32488"><ele>24.0</ele><time>2026-04-06T06:34:23.087Z</time></trkpt><trkpt lat="41.01366" lon="14.3249733"><ele>23.666666666666668</ele><time>2026-04-06T06:34:24.086Z</time></trkpt><trkpt lat="41.0136867" lon="14.3250717"><ele>23.333333333333336</ele><time>2026-04-06T06:34:25.087Z</time></trkpt><trkpt lat="41.0137167" lon="14.3251667"><ele>23.0</ele><time>2026-04-06T06:34:26.089Z</time></trkpt><trkpt lat="41.013745" lon="14.325265"><ele>23.0</ele><time>2026-04-06T06:34:27.089Z</time></trkpt><trkpt lat="41.0137767" lon="14.325365"><ele>23.0</ele><time>2026-04-06T06:34:28.086Z</time></trkpt><trkpt lat="41.0138083" lon="14.3254633"><ele>23.0</ele><time>2026-04-06T06:34:29.087Z</time></trkpt><trkpt lat="41.0138417" lon="14.3255617"><ele>23.0</ele><time>2026-04-06T06:34:30.087Z</time></trkpt><trkpt lat="41.0138817" lon="14.3256583"><ele>23.0</ele><time>2026-04-06T06:34:31.086Z</time></trkpt><trkpt lat="41.0139233" lon="14.325755"><ele>23.0</ele><time>2026-04-06T06:34:32.087Z</time></trkpt><trkpt lat="41.013965" lon="14.3258483"><ele>23.0</ele><time>2026-04-06T06:34:33.087Z</time></trkpt><trkpt lat="41.0140067" lon="14.32594"><ele>23.0</ele><time>2026-04-06T06:34:34.087Z</time></trkpt><trkpt lat="41.0140483" lon="14.3260367"><ele>23.0</ele><time>2026-04-06T06:34:35.087Z</time></trkpt><trkpt lat="41.014095" lon="14.3261383"><ele>23.0</ele><time>2026-04-06T06:34:36.087Z</time></trkpt><trkpt lat="41.0141583" lon="14.3262483"><ele>23.0</ele><time>2026-04-06T06:34:37.089Z</time></trkpt><trkpt lat="41.014215" lon="14.3263317"><ele>23.0</ele><time>2026-04-06T06:34:38.089Z</time></trkpt><trkpt lat="41.01427" lon="14.3264183"><ele>23.0</ele><time>2026-04-06T06:34:39.089Z</time></trkpt><trkpt lat="41.0143317" lon="14.3265"><ele>23.0</ele><time>2026-04-06T06:34:40.087Z</time></trkpt><trkpt lat="41.0143933" lon="14.3265833"><ele>23.0</ele><time>2026-04-06T06:34:41.089Z</time></trkpt><trkpt lat="41.0144583" lon="14.3266567"><ele>23.0</ele><time>2026-04-06T06:34:42.086Z</time></trkpt><trkpt lat="41.0145267" lon="14.32673"><ele>23.0</ele><time>2026-04-06T06:34:43.088Z</time></trkpt><trkpt lat="41.0145967" lon="14.3268033"><ele>23.0</ele><time>2026-04-06T06:34:44.089Z</time></trkpt><trkpt lat="41.01467" lon="14.3268667"><ele>23.0</ele><time>2026-04-06T06:34:45.09Z</time></trkpt><trkpt lat="41.014745" lon="14.3269267"><ele>23.0</ele><time>2026-04-06T06:34:46.089Z</time></trkpt><trkpt lat="41.0148217" lon="14.3269833"><ele>23.0</ele><time>2026-04-06T06:34:47.087Z</time></trkpt><trkpt lat="41.0148983" lon="14.3270367"><ele>23.0</ele><time>2026-04-06T06:34:48.087Z</time></trkpt><trkpt lat="41.014975" lon="14.327085"><ele>23.0</ele><time>2026-04-06T06:34:49.087Z</time></trkpt><trkpt lat="41.015055" lon="14.3271283"><ele>23.0</ele><time>2026-04-06T06:34:50.087Z</time></trkpt><trkpt lat="41.0151367" lon="14.32717"><ele>23.0</ele><time>2026-04-06T06:34:51.088Z</time></trkpt><trkpt lat="41.0152183" lon="14.3272117"><ele>23.0</ele><time>2026-04-06T06:34:52.087Z</time></trkpt><trkpt lat="41.0152967" lon="14.3272517"><ele>23.0</ele><time>2026-04-06T06:34:53.086Z</time></trkpt><trkpt lat="41.0153733" lon="14.32729"><ele>23.0</ele><time>2026-04-06T06:34:54.089Z</time></trkpt><trkpt lat="41.0154533" lon="14.3273267"><ele>23.0</ele><time>2026-04-06T06:34:55.088Z</time></trkpt><trkpt lat="41.0155367" lon="14.327355"><ele>23.0</ele><time>2026-04-06T06:34:56.088Z</time></trkpt><trkpt lat="41.0156217" lon="14.3273733"><ele>23.0</ele><time>2026-04-06T06:34:57.089Z</time></trkpt><trkpt lat="41.0157083" lon="14.3273817"><ele>23.0</ele><time>2026-04-06T06:34:58.088Z</time></trkpt><trkpt lat="41.0157967" lon="14.3273933"><ele>23.0</ele><time>2026-04-06T06:34:59.088Z</time></trkpt><trkpt lat="41.015885" lon="14.3274"><ele>23.0</ele><time>2026-04-06T06:35:00.087Z</time></trkpt><trkpt lat="41.0159717" lon="14.3274067"><ele>23.0</ele><time>2026-04-06T06:35:01.088Z</time></trkpt><trkpt lat="41.0160583" lon="14.3274117"><ele>23.0</ele><time>2026-04-06T06:35:02.087Z</time></trkpt><trkpt lat="41.0161433" lon="14.327415"><ele>23.0</ele><time>2026-04-06T06:35:03.09Z</time></trkpt><trkpt lat="41.0162283" lon="14.3274167"><ele>23.0</ele><time>2026-04-06T06:35:04.087Z</time></trkpt><trkpt lat="41.0163133" lon="14.3274133"><ele>23.0</ele><time>2026-04-06T06:35:05.088Z</time></trkpt><trkpt lat="41.0163967" lon="14.32741"><ele>23.0</ele><time>2026-04-06T06:35:06.089Z</time></trkpt><trkpt lat="41.0164783" lon="14.3274067"><ele>23.0</ele><time>2026-04-06T06:35:07.085Z</time></trkpt><trkpt lat="41.01656" lon="14.3273983"><ele>23.0</ele><time>2026-04-06T06:35:08.086Z</time></trkpt><trkpt lat="41.0166383" lon="14.3273883"><ele>23.0</ele><time>2026-04-06T06:35:09.089Z</time></trkpt><trkpt lat="41.0167167" lon="14.32738"><ele>23.0</ele><time>2026-04-06T06:35:10.088Z</time></trkpt><trkpt lat="41.016795" lon="14.3273683"><ele>23.0</ele><time>2026-04-06T06:35:11.089Z</time></trkpt><trkpt lat="41.016875" lon="14.3273567"><ele>23.0</ele><time>2026-04-06T06:35:12.089Z</time></trkpt><trkpt lat="41.0169533" lon="14.32734"><ele>23.0</ele><time>2026-04-06T06:35:13.09Z</time></trkpt><trkpt lat="41.017035" lon="14.32733"><ele>23.0</ele><time>2026-04-06T06:35:14.089Z</time></trkpt><trkpt lat="41.0171133" lon="14.3273183"><ele>23.0</ele><time>2026-04-06T06:35:15.088Z</time></trkpt><trkpt lat="41.01719" lon="14.3273033"><ele>23.0</ele><time>2026-04-06T06:35:16.088Z</time></trkpt><trkpt lat="41.0172667" lon="14.32729"><ele>23.0</ele><time>2026-04-06T06:35:17.087Z</time></trkpt><trkpt lat="41.0173433" lon="14.32728"><ele>23.0</ele><time>2026-04-06T06:35:18.089Z</time></trkpt><trkpt lat="41.0174183" lon="14.3272683"><ele>23.0</ele><time>2026-04-06T06:35:19.086Z</time></trkpt><trkpt lat="41.0174933" lon="14.3272583"><ele>23.0</ele><time>2026-04-06T06:35:20.087Z</time></trkpt><trkpt lat="41.0175683" lon="14.3272483"><ele>23.0</ele><time>2026-04-06T06:35:21.087Z</time></trkpt><trkpt lat="41.0176433" lon="14.32724"><ele>23.0</ele><time>2026-04-06T06:35:22.087Z</time></trkpt><trkpt lat="41.017715" lon="14.3272283"><ele>23.0</ele><time>2026-04-06T06:35:23.087Z</time></trkpt><trkpt lat="41.0177867" lon="14.327215"><ele>23.0</ele><time>2026-04-06T06:35:24.087Z</time></trkpt><trkpt lat="41.017855" lon="14.3272"><ele>23.0</ele><time>2026-04-06T06:35:25.087Z</time></trkpt><trkpt lat="41.0179267" lon="14.3271883"><ele>23.0</ele><time>2026-04-06T06:35:26.088Z</time></trkpt><trkpt lat="41.017995" lon="14.3271733"><ele>23.0</ele><time>2026-04-06T06:35:27.088Z</time></trkpt><trkpt lat="41.018065" lon="14.32716"><ele>23.0</ele><time>2026-04-06T06:35:28.086Z</time></trkpt><trkpt lat="41.01813" lon="14.3271483"><ele>23.0</ele><time>2026-04-06T06:35:29.087Z</time></trkpt><trkpt lat="41.0181933" lon="14.3271383"><ele>23.0</ele><time>2026-04-06T06:35:30.089Z</time></trkpt><trkpt lat="41.0182567" lon="14.3271233"><ele>23.0</ele><time>2026-04-06T06:35:31.086Z</time></trkpt><trkpt lat="41.01832" lon="14.32711"><ele>23.0</ele><time>2026-04-06T06:35:32.09Z</time></trkpt><trkpt lat="41.018385" lon="14.3270983"><ele>23.0</ele><time>2026-04-06T06:35:33.09Z</time></trkpt><trkpt lat="41.01845" lon="14.3270917"><ele>23.0</ele><time>2026-04-06T06:35:34.089Z</time></trkpt><trkpt lat="41.018575" lon="14.3270783"><ele>23.166666666666668</ele><time>2026-04-06T06:35:36.089Z</time></trkpt><trkpt lat="41.0186967" lon="14.32706"><ele>23.333333333333336</ele><time>2026-04-06T06:35:38.087Z</time></trkpt><trkpt lat="41.01876" lon="14.3270467"><ele>23.5</ele><time>2026-04-06T06:35:39.087Z</time></trkpt><trkpt lat="41.0188283" lon="14.3270383"><ele>23.666666666666668</ele><time>2026-04-06T06:35:40.085Z</time></trkpt><trkpt lat="41.018895" lon="14.3270283"><ele>23.833333333333332</ele><time>2026-04-06T06:35:41.089Z</time></trkpt><trkpt lat="41.0189633" lon="14.3270167"><ele>24.0</ele><time>2026-04-06T06:35:42.089Z</time></trkpt><trkpt lat="41.0190333" lon="14.327005"><ele>23.999999999999996</ele><time>2026-04-06T06:35:43.086Z</time></trkpt><trkpt lat="41.0191017" lon="14.3269883"><ele>24.0</ele><time>2026-04-06T06:35:44.09Z</time></trkpt><trkpt lat="41.0191683" lon="14.3269667"><ele>24.0</ele><time>2026-04-06T06:35:45.088Z</time></trkpt><trkpt lat="41.019235" lon="14.3269417"><ele>24.0</ele><time>2026-04-06T06:35:46.086Z</time></trkpt><trkpt lat="41.0193" lon="14.3269167"><ele>24.0</ele><time>2026-04-06T06:35:47.086Z</time></trkpt><trkpt lat="41.019365" lon="14.3268883"><ele>23.999999999999996</ele><time>2026-04-06T06:35:48.087Z</time></trkpt><trkpt lat="41.0194267" lon="14.3268567"><ele>24.0</ele><time>2026-04-06T06:35:49.087Z</time></trkpt><trkpt lat="41.0194883" lon="14.326825"><ele>24.285714285714285</ele><time>2026-04-06T06:35:50.085Z</time></trkpt><trkpt lat="41.01955" lon="14.3267917"><ele>24.57142857142857</ele><time>2026-04-06T06:35:51.087Z</time></trkpt><trkpt lat="41.0196117" lon="14.326755"><ele>24.857142857142854</ele><time>2026-04-06T06:35:52.086Z</time></trkpt><trkpt lat="41.01967" lon="14.3267133"><ele>25.142857142857142</ele><time>2026-04-06T06:35:53.086Z</time></trkpt><trkpt lat="41.0197283" lon="14.3266683"><ele>25.42857142857143</ele><time>2026-04-06T06:35:54.087Z</time></trkpt><trkpt lat="41.019785" lon="14.3266217"><ele>25.71428571428571</ele><time>2026-04-06T06:35:55.087Z</time></trkpt><trkpt lat="41.0198417" lon="14.3265733"><ele>26.0</ele><time>2026-04-06T06:35:56.085Z</time></trkpt><trkpt lat="41.0199" lon="14.3265217"><ele>26.0</ele><time>2026-04-06T06:35:57.086Z</time></trkpt><trkpt lat="41.019955" lon="14.3264683"><ele>26.0</ele><time>2026-04-06T06:35:58.085Z</time></trkpt><trkpt lat="41.0200117" lon="14.32641"><ele>26.0</ele><time>2026-04-06T06:35:59.088Z</time></trkpt><trkpt lat="41.0200683" lon="14.3263483"><ele>26.0</ele><time>2026-04-06T06:36:00.089Z</time></trkpt><trkpt lat="41.0201233" lon="14.3262833"><ele>26.0</ele><time>2026-04-06T06:36:01.087Z</time></trkpt><trkpt lat="41.0201767" lon="14.3262233"><ele>26.0</ele><time>2026-04-06T06:36:02.088Z</time></trkpt><trkpt lat="41.02023" lon="14.32616"><ele>26.0</ele><time>2026-04-06T06:36:03.087Z</time></trkpt><trkpt lat="41.0202817" lon="14.3260983"><ele>26.142857142857142</ele><time>2026-04-06T06:36:04.085Z</time></trkpt><trkpt lat="41.0203333" lon="14.3260333"><ele>26.28571428571429</ele><time>2026-04-06T06:36:05.086Z</time></trkpt><trkpt lat="41.0203883" lon="14.32597"><ele>26.42857142857143</ele><time>2026-04-06T06:36:06.087Z</time></trkpt><trkpt lat="41.020445" lon="14.3259067"><ele>26.57142857142857</ele><time>2026-04-06T06:36:07.088Z</time></trkpt><trkpt lat="41.0205017" lon="14.3258433"><ele>26.714285714285715</ele><time>2026-04-06T06:36:08.087Z</time></trkpt><trkpt lat="41.0205567" lon="14.3257783"><ele>26.857142857142858</ele><time>2026-04-06T06:36:09.087Z</time></trkpt><trkpt lat="41.02061" lon="14.32571"><ele>27.0</ele><time>2026-04-06T06:36:10.086Z</time></trkpt><trkpt lat="41.020665" lon="14.3256417"><ele>27.0</ele><time>2026-04-06T06:36:11.089Z</time></trkpt><trkpt lat="41.02072" lon="14.3255717"><ele>27.0</ele><time>2026-04-06T06:36:12.087Z</time></trkpt><trkpt lat="41.0207733" lon="14.3255"><ele>27.0</ele><time>2026-04-06T06:36:13.086Z</time></trkpt><trkpt lat="41.02083" lon="14.3254333"><ele>27.0</ele><time>2026-04-06T06:36:14.087Z</time></trkpt><trkpt lat="41.0208883" lon="14.3253683"><ele>27.0</ele><time>2026-04-06T06:36:15.087Z</time></trkpt><trkpt lat="41.020945" lon="14.32531"><ele>27.0</ele><time>2026-04-06T06:36:16.089Z</time></trkpt><trkpt lat="41.02101" lon="14.3252533"><ele>26.833333333333332</ele><time>2026-04-06T06:36:17.089Z</time></trkpt><trkpt lat="41.0210767" lon="14.3252"><ele>26.666666666666664</ele><time>2026-04-06T06:36:18.085Z</time></trkpt><trkpt lat="41.0211467" lon="14.325155"><ele>26.5</ele><time>2026-04-06T06:36:19.09Z</time></trkpt><trkpt lat="41.0212183" lon="14.3251133"><ele>26.333333333333332</ele><time>2026-04-06T06:36:20.087Z</time></trkpt><trkpt lat="41.0212933" lon="14.3250733"><ele>26.166666666666664</ele><time>2026-04-06T06:36:21.085Z</time></trkpt><trkpt lat="41.0213683" lon="14.32504"><ele>26.0</ele><time>2026-04-06T06:36:22.084Z</time></trkpt><trkpt lat="41.021445" lon="14.3250133"><ele>25.999999999999996</ele><time>2026-04-06T06:36:23.087Z</time></trkpt><trkpt lat="41.0215217" lon="14.324995"><ele>26.0</ele><time>2026-04-06T06:36:24.085Z</time></trkpt><trkpt lat="41.0215983" lon="14.324985"><ele>26.0</ele><time>2026-04-06T06:36:25.088Z</time></trkpt><trkpt lat="41.0216767" lon="14.3249833"><ele>26.0</ele><time>2026-04-06T06:36:26.087Z</time></trkpt><trkpt lat="41.0217533" lon="14.324985"><ele>25.999999999999996</ele><time>2026-04-06T06:36:27.087Z</time></trkpt><trkpt lat="41.02183" lon="14.324985"><ele>26.0</ele><time>2026-04-06T06:36:28.087Z</time></trkpt><trkpt lat="41.021905" lon="14.324985"><ele>26.166666666666664</ele><time>2026-04-06T06:36:29.087Z</time></trkpt><trkpt lat="41.0219817" lon="14.3249833"><ele>26.333333333333332</ele><time>2026-04-06T06:36:30.087Z</time></trkpt><trkpt lat="41.0220567" lon="14.3249833"><ele>26.5</ele><time>2026-04-06T06:36:31.085Z</time></trkpt><trkpt lat="41.02213" lon="14.32498"><ele>26.666666666666664</ele><time>2026-04-06T06:36:32.087Z</time></trkpt><trkpt lat="41.02221" lon="14.3249817"><ele>26.833333333333332</ele><time>2026-04-06T06:36:33.085Z</time></trkpt><trkpt lat="41.02229" lon="14.3249833"><ele>27.0</ele><time>2026-04-06T06:36:34.088Z</time></trkpt><trkpt lat="41.0223683" lon="14.324985"><ele>27.0</ele><time>2026-04-06T06:36:35.089Z</time></trkpt><trkpt lat="41.0224483" lon="14.3249833"><ele>27.0</ele><time>2026-04-06T06:36:36.09Z</time></trkpt><trkpt lat="41.0225267" lon="14.3249833"><ele>27.0</ele><time>2026-04-06T06:36:37.088Z</time></trkpt><trkpt lat="41.022605" lon="14.3249833"><ele>27.0</ele><time>2026-04-06T06:36:38.089Z</time></trkpt><trkpt lat="41.022685" lon="14.3249817"><ele>27.0</ele><time>2026-04-06T06:36:39.089Z</time></trkpt><trkpt lat="41.0227667" lon="14.3249783"><ele>27.0</ele><time>2026-04-06T06:36:40.085Z</time></trkpt><trkpt lat="41.02285" lon="14.32498"><ele>27.0</ele><time>2026-04-06T06:36:41.089Z</time></trkpt><trkpt lat="41.0229267" lon="14.32498"><ele>27.0</ele><time>2026-04-06T06:36:42.089Z</time></trkpt><trkpt lat="41.02301" lon="14.3249817"><ele>27.0</ele><time>2026-04-06T06:36:43.087Z</time></trkpt><trkpt lat="41.023095" lon="14.3249817"><ele>27.0</ele><time>2026-04-06T06:36:44.088Z</time></trkpt><trkpt lat="41.0231817" lon="14.324985"><ele>27.0</ele><time>2026-04-06T06:36:45.088Z</time></trkpt><trkpt lat="41.0232667" lon="14.3249867"><ele>27.0</ele><time>2026-04-06T06:36:46.088Z</time></trkpt><trkpt lat="41.02335" lon="14.3249833"><ele>27.0</ele><time>2026-04-06T06:36:47.087Z</time></trkpt><trkpt lat="41.023435" lon="14.32498"><ele>27.0</ele><time>2026-04-06T06:36:48.088Z</time></trkpt><trkpt lat="41.0235183" lon="14.3249783"><ele>27.0</ele><time>2026-04-06T06:36:49.086Z</time></trkpt><trkpt lat="41.0236" lon="14.3249767"><ele>27.0</ele><time>2026-04-06T06:36:50.087Z</time></trkpt><trkpt lat="41.0236833" lon="14.3249717"><ele>27.0</ele><time>2026-04-06T06:36:51.087Z</time></trkpt><trkpt lat="41.0237683" lon="14.3249683"><ele>27.0</ele><time>2026-04-06T06:36:52.086Z</time></trkpt><trkpt lat="41.0238517" lon="14.3249667"><ele>27.0</ele><time>2026-04-06T06:36:53.087Z</time></trkpt><trkpt lat="41.023935" lon="14.324965"><ele>27.0</ele><time>2026-04-06T06:36:54.087Z</time></trkpt><trkpt lat="41.02402" lon="14.324965"><ele>27.0</ele><time>2026-04-06T06:36:55.088Z</time></trkpt><trkpt lat="41.0241017" lon="14.3249633"><ele>27.0</ele><time>2026-04-06T06:36:56.089Z</time></trkpt><trkpt lat="41.0241867" lon="14.324965"><ele>27.0</ele><time>2026-04-06T06:36:57.089Z</time></trkpt><trkpt lat="41.024265" lon="14.324985"><ele>27.0</ele><time>2026-04-06T06:36:58.085Z</time></trkpt><trkpt lat="41.0243383" lon="14.32502"><ele>26.857142857142858</ele><time>2026-04-06T06:36:59.087Z</time></trkpt><trkpt lat="41.0244083" lon="14.32505"><ele>26.714285714285715</ele><time>2026-04-06T06:37:00.089Z</time></trkpt><trkpt lat="41.02448" lon="14.325055"><ele>26.57142857142857</ele><time>2026-04-06T06:37:01.086Z</time></trkpt><trkpt lat="41.02455" lon="14.3250483"><ele>26.42857142857143</ele><time>2026-04-06T06:37:02.086Z</time></trkpt><trkpt lat="41.0246217" lon="14.3250333"><ele>26.28571428571429</ele><time>2026-04-06T06:37:03.085Z</time></trkpt><trkpt lat="41.024695" lon="14.3250183"><ele>26.142857142857142</ele><time>2026-04-06T06:37:04.086Z</time></trkpt><trkpt lat="41.02477" lon="14.3250083"><ele>26.0</ele><time>2026-04-06T06:37:05.086Z</time></trkpt><trkpt lat="41.024845" lon="14.325"><ele>26.0</ele><time>2026-04-06T06:37:06.086Z</time></trkpt><trkpt lat="41.0249167" lon="14.32499"><ele>26.0</ele><time>2026-04-06T06:37:07.086Z</time></trkpt><trkpt lat="41.02499" lon="14.3249817"><ele>26.0</ele><time>2026-04-06T06:37:08.087Z</time></trkpt><trkpt lat="41.0250633" lon="14.3249767"><ele>26.0</ele><time>2026-04-06T06:37:09.087Z</time></trkpt><trkpt lat="41.025135" lon="14.32497"><ele>26.0</ele><time>2026-04-06T06:37:10.085Z</time></trkpt><trkpt lat="41.0252067" lon="14.324965"><ele>26.0</ele><time>2026-04-06T06:37:11.084Z</time></trkpt><trkpt lat="41.02528" lon="14.3249583"><ele>26.0</ele><time>2026-04-06T06:37:12.087Z</time></trkpt><trkpt lat="41.02535" lon="14.3249567"><ele>26.285714285714285</ele><time>2026-04-06T06:37:13.084Z</time></trkpt><trkpt lat="41.0254233" lon="14.324955"><ele>26.571428571428573</ele><time>2026-04-06T06:37:14.085Z</time></trkpt><trkpt lat="41.025495" lon="14.3249533"><ele>26.857142857142858</ele><time>2026-04-06T06:37:15.086Z</time></trkpt><trkpt lat="41.025565" lon="14.32495"><ele>27.142857142857142</ele><time>2026-04-06T06:37:16.086Z</time></trkpt><trkpt lat="41.0256367" lon="14.32495"><ele>27.42857142857143</ele><time>2026-04-06T06:37:17.086Z</time></trkpt><trkpt lat="41.0257083" lon="14.3249467"><ele>27.714285714285715</ele><time>2026-04-06T06:37:18.086Z</time></trkpt><trkpt lat="41.0257783" lon="14.3249433"><ele>28.0</ele><time>2026-04-06T06:37:19.086Z</time></trkpt><trkpt lat="41.0258483" lon="14.3249417"><ele>28.142857142857142</ele><time>2026-04-06T06:37:20.086Z</time></trkpt><trkpt lat="41.02592" lon="14.3249417"><ele>28.285714285714285</ele><time>2026-04-06T06:37:21.086Z</time></trkpt><trkpt lat="41.0259917" lon="14.3249383"><ele>28.42857142857143</ele><time>2026-04-06T06:37:22.084Z</time></trkpt><trkpt lat="41.0260633" lon="14.3249367"><ele>28.571428571428573</ele><time>2026-04-06T06:37:23.086Z</time></trkpt><trkpt lat="41.026135" lon="14.3249367"><ele>28.714285714285715</ele><time>2026-04-06T06:37:24.085Z</time></trkpt><trkpt lat="41.026205" lon="14.3249417"><ele>28.85714285714286</ele><time>2026-04-06T06:37:25.085Z</time></trkpt><trkpt lat="41.026275" lon="14.3249433"><ele>29.000000000000004</ele><time>2026-04-06T06:37:26.086Z</time></trkpt><trkpt lat="41.026345" lon="14.3249433"><ele>29.000000000000004</ele><time>2026-04-06T06:37:27.086Z</time></trkpt><trkpt lat="41.026415" lon="14.3249483"><ele>29.0</ele><time>2026-04-06T06:37:28.084Z</time></trkpt><trkpt lat="41.026485" lon="14.3249483"><ele>29.000000000000004</ele><time>2026-04-06T06:37:29.086Z</time></trkpt><trkpt lat="41.026555" lon="14.3249433"><ele>29.000000000000004</ele><time>2026-04-06T06:37:30.086Z</time></trkpt><trkpt lat="41.0266267" lon="14.3249383"><ele>29.0</ele><time>2026-04-06T06:37:31.086Z</time></trkpt><trkpt lat="41.0266967" lon="14.3249333"><ele>29.000000000000004</ele><time>2026-04-06T06:37:32.086Z</time></trkpt><trkpt lat="41.0267633" lon="14.32493"><ele>29.000000000000004</ele><time>2026-04-06T06:37:33.086Z</time></trkpt><trkpt lat="41.0268317" lon="14.3249283"><ele>29.142857142857146</ele><time>2026-04-06T06:37:34.086Z</time></trkpt><trkpt lat="41.0269017" lon="14.3249267"><ele>29.285714285714285</ele><time>2026-04-06T06:37:35.086Z</time></trkpt><trkpt lat="41.0269717" lon="14.3249217"><ele>29.42857142857143</ele><time>2026-04-06T06:37:36.086Z</time></trkpt><trkpt lat="41.027045" lon="14.32492"><ele>29.571428571428573</ele><time>2026-04-06T06:37:37.085Z</time></trkpt><trkpt lat="41.027115" lon="14.3249183"><ele>29.714285714285715</ele><time>2026-04-06T06:37:38.086Z</time></trkpt><trkpt lat="41.0271833" lon="14.3249167"><ele>29.857142857142858</ele><time>2026-04-06T06:37:39.085Z</time></trkpt><trkpt lat="41.0272517" lon="14.3249167"><ele>30.0</ele><time>2026-04-06T06:37:40.084Z</time></trkpt><trkpt lat="41.027325" lon="14.3249183"><ele>30.0</ele><time>2026-04-06T06:37:41.086Z</time></trkpt><trkpt lat="41.0273983" lon="14.32492"><ele>30.0</ele><time>2026-04-06T06:37:42.087Z</time></trkpt><trkpt lat="41.02747" lon="14.32492"><ele>30.0</ele><time>2026-04-06T06:37:43.087Z</time></trkpt><trkpt lat="41.02754" lon="14.32492"><ele>30.0</ele><time>2026-04-06T06:37:44.085Z</time></trkpt><trkpt lat="41.0276117" lon="14.3249183"><ele>30.0</ele><time>2026-04-06T06:37:45.086Z</time></trkpt><trkpt lat="41.0276817" lon="14.324915"><ele>30.0</ele><time>2026-04-06T06:37:46.084Z</time></trkpt><trkpt lat="41.0277533" lon="14.3249183"><ele>30.0</ele><time>2026-04-06T06:37:47.087Z</time></trkpt><trkpt lat="41.0278283" lon="14.32492"><ele>30.285714285714285</ele><time>2026-04-06T06:37:48.087Z</time></trkpt><trkpt lat="41.0279017" lon="14.32492"><ele>30.57142857142857</ele><time>2026-04-06T06:37:49.085Z</time></trkpt><trkpt lat="41.0279733" lon="14.324915"><ele>30.857142857142854</ele><time>2026-04-06T06:37:50.086Z</time></trkpt><trkpt lat="41.0280483" lon="14.3249133"><ele>31.142857142857142</ele><time>2026-04-06T06:37:51.085Z</time></trkpt><trkpt lat="41.02812" lon="14.32491"><ele>31.428571428571423</ele><time>2026-04-06T06:37:52.087Z</time></trkpt><trkpt lat="41.02819" lon="14.3249083"><ele>31.71428571428571</ele><time>2026-04-06T06:37:53.087Z</time></trkpt><trkpt lat="41.0282633" lon="14.3249117"><ele>32.0</ele><time>2026-04-06T06:37:54.088Z</time></trkpt><trkpt lat="41.0283367" lon="14.3249167"><ele>32.0</ele><time>2026-04-06T06:37:55.087Z</time></trkpt><trkpt lat="41.02841" lon="14.32492"><ele>31.999999999999996</ele><time>2026-04-06T06:37:56.085Z</time></trkpt><trkpt lat="41.0284833" lon="14.32492"><ele>32.0</ele><time>2026-04-06T06:37:57.087Z</time></trkpt><trkpt lat="41.0285583" lon="14.32492"><ele>32.0</ele><time>2026-04-06T06:37:58.088Z</time></trkpt><trkpt lat="41.0286317" lon="14.32492"><ele>31.999999999999996</ele><time>2026-04-06T06:37:59.088Z</time></trkpt><trkpt lat="41.0287033" lon="14.324915"><ele>32.0</ele><time>2026-04-06T06:38:00.084Z</time></trkpt><trkpt lat="41.028775" lon="14.324915"><ele>32.0</ele><time>2026-04-06T06:38:01.085Z</time></trkpt><trkpt lat="41.0288467" lon="14.3249167"><ele>32.0</ele><time>2026-04-06T06:38:02.086Z</time></trkpt><trkpt lat="41.02892" lon="14.3249167"><ele>31.999999999999996</ele><time>2026-04-06T06:38:03.085Z</time></trkpt><trkpt lat="41.0289917" lon="14.324915"><ele>32.0</ele><time>2026-04-06T06:38:04.084Z</time></trkpt><trkpt lat="41.0290667" lon="14.3249083"><ele>32.0</ele><time>2026-04-06T06:38:05.089Z</time></trkpt><trkpt lat="41.0291417" lon="14.324905"><ele>31.999999999999996</ele><time>2026-04-06T06:38:06.085Z</time></trkpt><trkpt lat="41.029215" lon="14.3249017"><ele>32.0</ele><time>2026-04-06T06:38:07.086Z</time></trkpt><trkpt lat="41.0292883" lon="14.3249017"><ele>32.0</ele><time>2026-04-06T06:38:08.086Z</time></trkpt><trkpt lat="41.0293633" lon="14.3249017"><ele>32.0</ele><time>2026-04-06T06:38:09.087Z</time></trkpt><trkpt lat="41.029435" lon="14.3249017"><ele>31.999999999999996</ele><time>2026-04-06T06:38:10.088Z</time></trkpt><trkpt lat="41.0295083" lon="14.3249017"><ele>32.0</ele><time>2026-04-06T06:38:11.087Z</time></trkpt><trkpt lat="41.0295817" lon="14.3249"><ele>32.0</ele><time>2026-04-06T06:38:12.085Z</time></trkpt><trkpt lat="41.0296567" lon="14.3248983"><ele>31.999999999999996</ele><time>2026-04-06T06:38:13.086Z</time></trkpt><trkpt lat="41.02973" lon="14.324895"><ele>32.0</ele><time>2026-04-06T06:38:14.086Z</time></trkpt><trkpt lat="41.029805" lon="14.324895"><ele>32.0</ele><time>2026-04-06T06:38:15.085Z</time></trkpt><trkpt lat="41.0298767" lon="14.324895"><ele>32.0</ele><time>2026-04-06T06:38:16.086Z</time></trkpt><trkpt lat="41.0299483" lon="14.3248933"><ele>31.999999999999996</ele><time>2026-04-06T06:38:17.085Z</time></trkpt><trkpt lat="41.03002" lon="14.3248933"><ele>32.0</ele><time>2026-04-06T06:38:18.084Z</time></trkpt><trkpt lat="41.03009" lon="14.3248933"><ele>32.0</ele><time>2026-04-06T06:38:19.086Z</time></trkpt><trkpt lat="41.03016" lon="14.3248933"><ele>31.999999999999996</ele><time>2026-04-06T06:38:20.086Z</time></trkpt><trkpt lat="41.0302317" lon="14.3248933"><ele>32.0</ele><time>2026-04-06T06:38:21.087Z</time></trkpt><trkpt lat="41.030305" lon="14.324895"><ele>32.0</ele><time>2026-04-06T06:38:22.085Z</time></trkpt><trkpt lat="41.0303767" lon="14.3248917"><ele>32.0</ele><time>2026-04-06T06:38:23.087Z</time></trkpt><trkpt lat="41.03045" lon="14.32489"><ele>31.999999999999996</ele><time>2026-04-06T06:38:24.088Z</time></trkpt><trkpt lat="41.03052" lon="14.3248883"><ele>32.0</ele><time>2026-04-06T06:38:25.086Z</time></trkpt><trkpt lat="41.03059" lon="14.3248867"><ele>32.0</ele><time>2026-04-06T06:38:26.084Z</time></trkpt><trkpt lat="41.0306633" lon="14.324885"><ele>31.999999999999996</ele><time>2026-04-06T06:38:27.086Z</time></trkpt><trkpt lat="41.030735" lon="14.3248867"><ele>32.0</ele><time>2026-04-06T06:38:28.086Z</time></trkpt><trkpt lat="41.0308083" lon="14.3248867"><ele>32.0</ele><time>2026-04-06T06:38:29.086Z</time></trkpt><trkpt lat="41.03088" lon="14.3248867"><ele>32.0</ele><time>2026-04-06T06:38:30.086Z</time></trkpt><trkpt lat="41.0309567" lon="14.32489"><ele>31.999999999999996</ele><time>2026-04-06T06:38:31.086Z</time></trkpt><trkpt lat="41.03103" lon="14.32489"><ele>32.0</ele><time>2026-04-06T06:38:32.087Z</time></trkpt><trkpt lat="41.0311033" lon="14.3248917"><ele>32.0</ele><time>2026-04-06T06:38:33.085Z</time></trkpt><trkpt lat="41.0311783" lon="14.3248917"><ele>31.999999999999996</ele><time>2026-04-06T06:38:34.086Z</time></trkpt><trkpt lat="41.0312517" lon="14.3248933"><ele>32.0</ele><time>2026-04-06T06:38:35.086Z</time></trkpt><trkpt lat="41.031325" lon="14.3248967"><ele>32.0</ele><time>2026-04-06T06:38:36.086Z</time></trkpt><trkpt lat="41.031395" lon="14.3249"><ele>32.0</ele><time>2026-04-06T06:38:37.086Z</time></trkpt><trkpt lat="41.0314633" lon="14.3249"><ele>31.999999999999996</ele><time>2026-04-06T06:38:38.088Z</time></trkpt><trkpt lat="41.03153" lon="14.3248967"><ele>32.0</ele><time>2026-04-06T06:38:39.084Z</time></trkpt><trkpt lat="41.0316" lon="14.3248967"><ele>32.0</ele><time>2026-04-06T06:38:40.085Z</time></trkpt><trkpt lat="41.03167" lon="14.3248983"><ele>31.999999999999996</ele><time>2026-04-06T06:38:41.085Z</time></trkpt><trkpt lat="41.0317383" lon="14.3249017"><ele>32.0</ele><time>2026-04-06T06:38:42.085Z</time></trkpt><trkpt lat="41.0318117" lon="14.324905"><ele>32.0</ele><time>2026-04-06T06:38:43.085Z</time></trkpt><trkpt lat="41.0318833" lon="14.3249067"><ele>32.0</ele><time>2026-04-06T06:38:44.084Z</time></trkpt><trkpt lat="41.0319583" lon="14.3249083"><ele>31.999999999999996</ele><time>2026-04-06T06:38:45.087Z</time></trkpt><trkpt lat="41.03203" lon="14.3249067"><ele>32.0</ele><time>2026-04-06T06:38:46.086Z</time></trkpt><trkpt lat="41.0321033" lon="14.324905"><ele>32.0</ele><time>2026-04-06T06:38:47.084Z</time></trkpt><trkpt lat="41.032175" lon="14.3249033"><ele>31.999999999999996</ele><time>2026-04-06T06:38:48.085Z</time></trkpt><trkpt lat="41.0322467" lon="14.3249017"><ele>32.0</ele><time>2026-04-06T06:38:49.084Z</time></trkpt><trkpt lat="41.0323183" lon="14.3249"><ele>32.0</ele><time>2026-04-06T06:38:50.085Z</time></trkpt><trkpt lat="41.0323917" lon="14.3248983"><ele>32.0</ele><time>2026-04-06T06:38:51.086Z</time></trkpt><trkpt lat="41.0324617" lon="14.324895"><ele>31.999999999999996</ele><time>2026-04-06T06:38:52.084Z</time></trkpt><trkpt lat="41.032535" lon="14.324895"><ele>32.0</ele><time>2026-04-06T06:38:53.084Z</time></trkpt><trkpt lat="41.0326083" lon="14.324895"><ele>32.0</ele><time>2026-04-06T06:38:54.085Z</time></trkpt><trkpt lat="41.0326833" lon="14.324895"><ele>31.999999999999996</ele><time>2026-04-06T06:38:55.086Z</time></trkpt><trkpt lat="41.0327567" lon="14.3248933"><ele>32.0</ele><time>2026-04-06T06:38:56.085Z</time></trkpt><trkpt lat="41.03283" lon="14.3248867"><ele>32.0</ele><time>2026-04-06T06:38:57.085Z</time></trkpt><trkpt lat="41.032905" lon="14.32488"><ele>32.285714285714285</ele><time>2026-04-06T06:38:58.084Z</time></trkpt><trkpt lat="41.03298" lon="14.32488"><ele>32.57142857142857</ele><time>2026-04-06T06:38:59.084Z</time></trkpt><trkpt lat="41.0330533" lon="14.32488"><ele>32.857142857142854</ele><time>2026-04-06T06:39:00.085Z</time></trkpt><trkpt lat="41.0331267" lon="14.3248767"><ele>33.14285714285714</ele><time>2026-04-06T06:39:01.084Z</time></trkpt><trkpt lat="41.0331983" lon="14.3248767"><ele>33.42857142857143</ele><time>2026-04-06T06:39:02.087Z</time></trkpt><trkpt lat="41.0332717" lon="14.324875"><ele>33.71428571428571</ele><time>2026-04-06T06:39:03.086Z</time></trkpt><trkpt lat="41.033345" lon="14.3248733"><ele>34.0</ele><time>2026-04-06T06:39:04.086Z</time></trkpt><trkpt lat="41.0334183" lon="14.3248717"><ele>34.14285714285714</ele><time>2026-04-06T06:39:05.084Z</time></trkpt><trkpt lat="41.03349" lon="14.3248717"><ele>34.285714285714285</ele><time>2026-04-06T06:39:06.088Z</time></trkpt><trkpt lat="41.03356" lon="14.3248717"><ele>34.42857142857143</ele><time>2026-04-06T06:39:07.085Z</time></trkpt><trkpt lat="41.0336317" lon="14.32487"><ele>34.57142857142857</ele><time>2026-04-06T06:39:08.087Z</time></trkpt><trkpt lat="41.0337033" lon="14.3248717"><ele>34.714285714285715</ele><time>2026-04-06T06:39:09.086Z</time></trkpt><trkpt lat="41.0337717" lon="14.324885"><ele>34.857142857142854</ele><time>2026-04-06T06:39:10.084Z</time></trkpt><trkpt lat="41.0338467" lon="14.3249"><ele>35.0</ele><time>2026-04-06T06:39:11.086Z</time></trkpt><trkpt lat="41.0339233" lon="14.3249067"><ele>35.0</ele><time>2026-04-06T06:39:12.088Z</time></trkpt><trkpt lat="41.034" lon="14.3249083"><ele>35.0</ele><time>2026-04-06T06:39:13.089Z</time></trkpt><trkpt lat="41.034075" lon="14.3249067"><ele>35.0</ele><time>2026-04-06T06:39:14.086Z</time></trkpt><trkpt lat="41.03415" lon="14.324905"><ele>35.0</ele><time>2026-04-06T06:39:15.085Z</time></trkpt><trkpt lat="41.034225" lon="14.324905"><ele>35.0</ele><time>2026-04-06T06:39:16.088Z</time></trkpt><trkpt lat="41.0342967" lon="14.3249017"><ele>35.0</ele><time>2026-04-06T06:39:17.085Z</time></trkpt><trkpt lat="41.03437" lon="14.3248967"><ele>35.0</ele><time>2026-04-06T06:39:18.084Z</time></trkpt><trkpt lat="41.0344433" lon="14.3248933"><ele>35.142857142857146</ele><time>2026-04-06T06:39:19.087Z</time></trkpt><trkpt lat="41.0345133" lon="14.32489"><ele>35.285714285714285</ele><time>2026-04-06T06:39:20.086Z</time></trkpt><trkpt lat="41.0345833" lon="14.3248883"><ele>35.42857142857143</ele><time>2026-04-06T06:39:21.084Z</time></trkpt><trkpt lat="41.0346517" lon="14.3248883"><ele>35.57142857142857</ele><time>2026-04-06T06:39:22.084Z</time></trkpt><trkpt lat="41.0347233" lon="14.3248833"><ele>35.714285714285715</ele><time>2026-04-06T06:39:23.084Z</time></trkpt><trkpt lat="41.0347933" lon="14.3248783"><ele>35.85714285714286</ele><time>2026-04-06T06:39:24.085Z</time></trkpt><trkpt lat="41.0348633" lon="14.3248717"><ele>36.0</ele><time>2026-04-06T06:39:25.086Z</time></trkpt><trkpt lat="41.034935" lon="14.3248633"><ele>36.0</ele><time>2026-04-06T06:39:26.084Z</time></trkpt><trkpt lat="41.0350067" lon="14.3248617"><ele>36.0</ele><time>2026-04-06T06:39:27.086Z</time></trkpt><trkpt lat="41.03508" lon="14.3248617"><ele>36.0</ele><time>2026-04-06T06:39:28.085Z</time></trkpt><trkpt lat="41.035155" lon="14.3248617"><ele>36.0</ele><time>2026-04-06T06:39:29.084Z</time></trkpt><trkpt lat="41.0352317" lon="14.324865"><ele>36.0</ele><time>2026-04-06T06:39:30.086Z</time></trkpt><trkpt lat="41.0353067" lon="14.3248633"><ele>36.0</ele><time>2026-04-06T06:39:31.085Z</time></trkpt><trkpt lat="41.035385" lon="14.324865"><ele>36.0</ele><time>2026-04-06T06:39:32.086Z</time></trkpt><trkpt lat="41.0354617" lon="14.3248667"><ele>36.0</ele><time>2026-04-06T06:39:33.086Z</time></trkpt><trkpt lat="41.0355383" lon="14.3248667"><ele>36.0</ele><time>2026-04-06T06:39:34.084Z</time></trkpt><trkpt lat="41.0356183" lon="14.32487"><ele>36.0</ele><time>2026-04-06T06:39:35.085Z</time></trkpt><trkpt lat="41.035695" lon="14.32487"><ele>36.0</ele><time>2026-04-06T06:39:36.086Z</time></trkpt><trkpt lat="41.0357683" lon="14.324865"><ele>36.0</ele><time>2026-04-06T06:39:37.085Z</time></trkpt><trkpt lat="41.0358433" lon="14.3248633"><ele>36.28571428571429</ele><time>2026-04-06T06:39:38.084Z</time></trkpt><trkpt lat="41.0359183" lon="14.3248633"><ele>36.57142857142857</ele><time>2026-04-06T06:39:39.086Z</time></trkpt><trkpt lat="41.0359917" lon="14.324865"><ele>36.85714285714286</ele><time>2026-04-06T06:39:40.086Z</time></trkpt><trkpt lat="41.03606" lon="14.3248567"><ele>37.142857142857146</ele><time>2026-04-06T06:39:41.088Z</time></trkpt><trkpt lat="41.0361283" lon="14.3248467"><ele>37.42857142857143</ele><time>2026-04-06T06:39:42.085Z</time></trkpt><trkpt lat="41.0361967" lon="14.3248367"><ele>37.714285714285715</ele><time>2026-04-06T06:39:43.087Z</time></trkpt><trkpt lat="41.036265" lon="14.3248283"><ele>38.0</ele><time>2026-04-06T06:39:44.087Z</time></trkpt><trkpt lat="41.0363333" lon="14.3248183"><ele>38.0</ele><time>2026-04-06T06:39:45.086Z</time></trkpt><trkpt lat="41.0363983" lon="14.32482"><ele>38.0</ele><time>2026-04-06T06:39:46.086Z</time></trkpt><trkpt lat="41.0365233" lon="14.32482"><ele>38.0</ele><time>2026-04-06T06:39:48.085Z</time></trkpt><trkpt lat="41.0365933" lon="14.3248183"><ele>38.0</ele><time>2026-04-06T06:39:49.086Z</time></trkpt><trkpt lat="41.0366667" lon="14.324825"><ele>38.0</ele><time>2026-04-06T06:39:50.086Z</time></trkpt><trkpt lat="41.0367483" lon="14.3248083"><ele>38.0</ele><time>2026-04-06T06:39:51.086Z</time></trkpt><trkpt lat="41.0368167" lon="14.3247983"><ele>38.33333333333333</ele><time>2026-04-06T06:39:52.086Z</time></trkpt><trkpt lat="41.0369283" lon="14.3248033"><ele>38.666666666666664</ele><time>2026-04-06T06:39:54.084Z</time></trkpt><trkpt lat="41.0370033" lon="14.3247967"><ele>39.0</ele><time>2026-04-06T06:39:56.086Z</time></trkpt><trkpt lat="41.0370683" lon="14.32479"><ele>39.333333333333336</ele><time>2026-04-06T06:39:58.087Z</time></trkpt><trkpt lat="41.0371383" lon="14.32479"><ele>39.66666666666667</ele><time>2026-04-06T06:40:01.089Z</time></trkpt><trkpt lat="41.0372367" lon="14.3248083"><ele>40.0</ele><time>2026-04-06T06:40:04.086Z</time></trkpt><trkpt lat="41.0373183" lon="14.324815"><ele>40.0</ele><time>2026-04-06T06:40:06.086Z</time></trkpt><trkpt lat="41.03739" lon="14.3248133"><ele>40.0</ele><time>2026-04-06T06:40:08.084Z</time></trkpt><trkpt lat="41.037475" lon="14.3248183"><ele>40.0</ele><time>2026-04-06T06:40:10.086Z</time></trkpt><trkpt lat="41.037565" lon="14.3248117"><ele>40.0</ele><time>2026-04-06T06:40:12.088Z</time></trkpt><trkpt lat="41.03767" lon="14.32481"><ele>40.0</ele><time>2026-04-06T06:40:14.086Z</time></trkpt><trkpt lat="41.03778" lon="14.3248167"><ele>40.4</ele><time>2026-04-06T06:40:16.085Z</time></trkpt><trkpt lat="41.0378983" lon="14.3248183"><ele>40.8</ele><time>2026-04-06T06:40:18.086Z</time></trkpt><trkpt lat="41.0380217" lon="14.3248167"><ele>41.2</ele><time>2026-04-06T06:40:20.084Z</time></trkpt><trkpt lat="41.0380867" lon="14.3248133"><ele>41.6</ele><time>2026-04-06T06:40:21.084Z</time></trkpt><trkpt lat="41.0381517" lon="14.32481"><ele>42.0</ele><time>2026-04-06T06:40:22.085Z</time></trkpt><trkpt lat="41.0382783" lon="14.3248133"><ele>41.714285714285715</ele><time>2026-04-06T06:40:24.086Z</time></trkpt><trkpt lat="41.038345" lon="14.324815"><ele>41.42857142857143</ele><time>2026-04-06T06:40:25.086Z</time></trkpt><trkpt lat="41.03841" lon="14.3248133"><ele>41.14285714285714</ele><time>2026-04-06T06:40:26.084Z</time></trkpt><trkpt lat="41.0384783" lon="14.324815"><ele>40.85714285714286</ele><time>2026-04-06T06:40:27.086Z</time></trkpt><trkpt lat="41.0385467" lon="14.3248167"><ele>40.57142857142857</ele><time>2026-04-06T06:40:28.086Z</time></trkpt><trkpt lat="41.038615" lon="14.324815"><ele>40.285714285714285</ele><time>2026-04-06T06:40:29.084Z</time></trkpt><trkpt lat="41.0386833" lon="14.3248133"><ele>40.0</ele><time>2026-04-06T06:40:30.085Z</time></trkpt><trkpt lat="41.0387533" lon="14.3248117"><ele>40.0</ele><time>2026-04-06T06:40:31.086Z</time></trkpt><trkpt lat="41.0388233" lon="14.3248083"><ele>40.0</ele><time>2026-04-06T06:40:32.087Z</time></trkpt><trkpt lat="41.0388933" lon="14.3248067"><ele>40.0</ele><time>2026-04-06T06:40:33.087Z</time></trkpt><trkpt lat="41.0389633" lon="14.3248083"><ele>40.0</ele><time>2026-04-06T06:40:34.088Z</time></trkpt><trkpt lat="41.03903" lon="14.32481"><ele>40.0</ele><time>2026-04-06T06:40:35.086Z</time></trkpt><trkpt lat="41.0390967" lon="14.3248083"><ele>40.0</ele><time>2026-04-06T06:40:36.087Z</time></trkpt><trkpt lat="41.039165" lon="14.3248067"><ele>40.0</ele><time>2026-04-06T06:40:37.086Z</time></trkpt><trkpt lat="41.0392333" lon="14.3248067"><ele>39.857142857142854</ele><time>2026-04-06T06:40:38.084Z</time></trkpt><trkpt lat="41.0393033" lon="14.3248083"><ele>39.714285714285715</ele><time>2026-04-06T06:40:39.088Z</time></trkpt><trkpt lat="41.0393717" lon="14.324805"><ele>39.57142857142857</ele><time>2026-04-06T06:40:40.085Z</time></trkpt><trkpt lat="41.0394417" lon="14.3248033"><ele>39.42857142857143</ele><time>2026-04-06T06:40:41.087Z</time></trkpt><trkpt lat="41.03951" lon="14.3248017"><ele>39.285714285714285</ele><time>2026-04-06T06:40:42.086Z</time></trkpt><trkpt lat="41.0395783" lon="14.3247983"><ele>39.142857142857146</ele><time>2026-04-06T06:40:43.086Z</time></trkpt><trkpt lat="41.03965" lon="14.3248017"><ele>39.0</ele><time>2026-04-06T06:40:44.086Z</time></trkpt><trkpt lat="41.03972" lon="14.3248"><ele>39.0</ele><time>2026-04-06T06:40:45.088Z</time></trkpt><trkpt lat="41.03979" lon="14.3247983"><ele>39.0</ele><time>2026-04-06T06:40:46.085Z</time></trkpt><trkpt lat="41.0398583" lon="14.3248"><ele>39.0</ele><time>2026-04-06T06:40:47.086Z</time></trkpt><trkpt lat="41.0399267" lon="14.3248033"><ele>39.0</ele><time>2026-04-06T06:40:48.086Z</time></trkpt><trkpt lat="41.0399917" lon="14.324805"><ele>39.0</ele><time>2026-04-06T06:40:49.084Z</time></trkpt><trkpt lat="41.04006" lon="14.32481"><ele>39.0</ele><time>2026-04-06T06:40:50.085Z</time></trkpt><trkpt lat="41.0401283" lon="14.3248117"><ele>39.0</ele><time>2026-04-06T06:40:51.086Z</time></trkpt><trkpt lat="41.0402" lon="14.3248133"><ele>39.0</ele><time>2026-04-06T06:40:52.085Z</time></trkpt><trkpt lat="41.04027" lon="14.324815"><ele>39.0</ele><time>2026-04-06T06:40:53.085Z</time></trkpt><trkpt lat="41.0403417" lon="14.3248117"><ele>39.0</ele><time>2026-04-06T06:40:54.085Z</time></trkpt><trkpt lat="41.0404133" lon="14.324805"><ele>39.0</ele><time>2026-04-06T06:40:55.084Z</time></trkpt><trkpt lat="41.040485" lon="14.3248017"><ele>39.0</ele><time>2026-04-06T06:40:56.084Z</time></trkpt><trkpt lat="41.0405567" lon="14.3248017"><ele>39.0</ele><time>2026-04-06T06:40:57.085Z</time></trkpt><trkpt lat="41.04063" lon="14.3248017"><ele>39.0</ele><time>2026-04-06T06:40:58.084Z</time></trkpt><trkpt lat="41.0407017" lon="14.324805"><ele>39.0</ele><time>2026-04-06T06:40:59.088Z</time></trkpt><trkpt lat="41.04077" lon="14.3248033"><ele>39.0</ele><time>2026-04-06T06:41:00.085Z</time></trkpt><trkpt lat="41.0408417" lon="14.3248033"><ele>39.0</ele><time>2026-04-06T06:41:01.086Z</time></trkpt><trkpt lat="41.0409117" lon="14.3248017"><ele>39.0</ele><time>2026-04-06T06:41:02.088Z</time></trkpt><trkpt lat="41.040985" lon="14.3247983"><ele>39.0</ele><time>2026-04-06T06:41:03.086Z</time></trkpt><trkpt lat="41.0410567" lon="14.324795"><ele>39.0</ele><time>2026-04-06T06:41:04.086Z</time></trkpt><trkpt lat="41.04113" lon="14.32479"><ele>39.0</ele><time>2026-04-06T06:41:05.085Z</time></trkpt><trkpt lat="41.0412033" lon="14.32479"><ele>39.142857142857146</ele><time>2026-04-06T06:41:06.086Z</time></trkpt><trkpt lat="41.0412783" lon="14.32479"><ele>39.285714285714285</ele><time>2026-04-06T06:41:07.084Z</time></trkpt><trkpt lat="41.041355" lon="14.3247917"><ele>39.42857142857143</ele><time>2026-04-06T06:41:08.085Z</time></trkpt><trkpt lat="41.0414283" lon="14.3247917"><ele>39.57142857142857</ele><time>2026-04-06T06:41:09.085Z</time></trkpt><trkpt lat="41.0415017" lon="14.3247917"><ele>39.714285714285715</ele><time>2026-04-06T06:41:10.084Z</time></trkpt><trkpt lat="41.0415717" lon="14.3247917"><ele>39.857142857142854</ele><time>2026-04-06T06:41:11.085Z</time></trkpt><trkpt lat="41.0416417" lon="14.32479"><ele>40.0</ele><time>2026-04-06T06:41:12.087Z</time></trkpt><trkpt lat="41.04171" lon="14.3247883"><ele>40.0</ele><time>2026-04-06T06:41:13.086Z</time></trkpt><trkpt lat="41.04178" lon="14.3247917"><ele>40.0</ele><time>2026-04-06T06:41:14.086Z</time></trkpt><trkpt lat="41.0418517" lon="14.3247933"><ele>40.0</ele><time>2026-04-06T06:41:15.085Z</time></trkpt><trkpt lat="41.041925" lon="14.3247917"><ele>40.0</ele><time>2026-04-06T06:41:16.084Z</time></trkpt><trkpt lat="41.0419983" lon="14.3247933"><ele>40.0</ele><time>2026-04-06T06:41:17.086Z</time></trkpt><trkpt lat="41.04207" lon="14.32479"><ele>40.0</ele><time>2026-04-06T06:41:18.085Z</time></trkpt><trkpt lat="41.0421433" lon="14.324785"><ele>40.0</ele><time>2026-04-06T06:41:19.085Z</time></trkpt><trkpt lat="41.0422167" lon="14.324785"><ele>40.0</ele><time>2026-04-06T06:41:20.086Z</time></trkpt><trkpt lat="41.0422883" lon="14.3247867"><ele>40.0</ele><time>2026-04-06T06:41:21.086Z</time></trkpt><trkpt lat="41.0423617" lon="14.324785"><ele>40.0</ele><time>2026-04-06T06:41:22.084Z</time></trkpt><trkpt lat="41.042435" lon="14.3247883"><ele>40.0</ele><time>2026-04-06T06:41:23.087Z</time></trkpt><trkpt lat="41.04251" lon="14.3247917"><ele>40.0</ele><time>2026-04-06T06:41:24.087Z</time></trkpt><trkpt lat="41.042585" lon="14.324795"><ele>40.0</ele><time>2026-04-06T06:41:25.086Z</time></trkpt><trkpt lat="41.0426567" lon="14.3247983"><ele>40.0</ele><time>2026-04-06T06:41:26.084Z</time></trkpt><trkpt lat="41.04273" lon="14.324805"><ele>40.14285714285714</ele><time>2026-04-06T06:41:27.086Z</time></trkpt><trkpt lat="41.0428017" lon="14.3248183"><ele>40.285714285714285</ele><time>2026-04-06T06:41:28.085Z</time></trkpt><trkpt lat="41.0428717" lon="14.3248283"><ele>40.42857142857143</ele><time>2026-04-06T06:41:29.085Z</time></trkpt><trkpt lat="41.0429417" lon="14.3248367"><ele>40.57142857142857</ele><time>2026-04-06T06:41:30.087Z</time></trkpt><trkpt lat="41.04301" lon="14.3248483"><ele>40.714285714285715</ele><time>2026-04-06T06:41:31.087Z</time></trkpt><trkpt lat="41.0430817" lon="14.3248567"><ele>40.857142857142854</ele><time>2026-04-06T06:41:32.086Z</time></trkpt><trkpt lat="41.04315" lon="14.3248667"><ele>41.0</ele><time>2026-04-06T06:41:33.088Z</time></trkpt><trkpt lat="41.0432133" lon="14.32488"><ele>41.25</ele><time>2026-04-06T06:41:34.088Z</time></trkpt><trkpt lat="41.043335" lon="14.3249133"><ele>41.5</ele><time>2026-04-06T06:41:36.087Z</time></trkpt><trkpt lat="41.0434517" lon="14.3249683"><ele>41.75</ele><time>2026-04-06T06:41:38.085Z</time></trkpt><trkpt lat="41.04356" lon="14.3250483"><ele>42.0</ele><time>2026-04-06T06:41:40.085Z</time></trkpt><trkpt lat="41.0436667" lon="14.3251033"><ele>42.0</ele><time>2026-04-06T06:41:42.088Z</time></trkpt><trkpt lat="41.0437833" lon="14.3250933"><ele>42.0</ele><time>2026-04-06T06:41:44.085Z</time></trkpt><trkpt lat="41.0438867" lon="14.3250067"><ele>42.0</ele><time>2026-04-06T06:41:46.088Z</time></trkpt><trkpt lat="41.0439917" lon="14.3249483"><ele>42.0</ele><time>2026-04-06T06:41:48.088Z</time></trkpt><trkpt lat="41.0441133" lon="14.324935"><ele>42.125</ele><time>2026-04-06T06:41:50.085Z</time></trkpt><trkpt lat="41.0441767" lon="14.3249317"><ele>42.25</ele><time>2026-04-06T06:41:51.086Z</time></trkpt><trkpt lat="41.0442417" lon="14.3249333"><ele>42.375</ele><time>2026-04-06T06:41:52.086Z</time></trkpt><trkpt lat="41.044305" lon="14.324935"><ele>42.5</ele><time>2026-04-06T06:41:53.086Z</time></trkpt><trkpt lat="41.0443683" lon="14.3249417"><ele>42.625</ele><time>2026-04-06T06:41:54.088Z</time></trkpt><trkpt lat="41.0444333" lon="14.3249483"><ele>42.75</ele><time>2026-04-06T06:41:55.089Z</time></trkpt><trkpt lat="41.0444967" lon="14.3249567"><ele>42.875</ele><time>2026-04-06T06:41:56.087Z</time></trkpt><trkpt lat="41.0445617" lon="14.3249633"><ele>43.0</ele><time>2026-04-06T06:41:57.085Z</time></trkpt><trkpt lat="41.044625" lon="14.3249683"><ele>43.00000000000001</ele><time>2026-04-06T06:41:58.086Z</time></trkpt><trkpt lat="41.0446917" lon="14.324975"><ele>43.0</ele><time>2026-04-06T06:41:59.088Z</time></trkpt><trkpt lat="41.0447617" lon="14.3249817"><ele>43.0</ele><time>2026-04-06T06:42:00.087Z</time></trkpt><trkpt lat="41.0448317" lon="14.32499"><ele>43.0</ele><time>2026-04-06T06:42:01.085Z</time></trkpt><trkpt lat="41.044905" lon="14.3250017"><ele>43.0</ele><time>2026-04-06T06:42:02.088Z</time></trkpt><trkpt lat="41.04498" lon="14.3250117"><ele>43.00000000000001</ele><time>2026-04-06T06:42:03.086Z</time></trkpt><trkpt lat="41.0450517" lon="14.325015"><ele>43.0</ele><time>2026-04-06T06:42:04.088Z</time></trkpt><trkpt lat="41.0451283" lon="14.3250183"><ele>43.333333333333336</ele><time>2026-04-06T06:42:05.086Z</time></trkpt><trkpt lat="41.0452033" lon="14.3250217"><ele>43.66666666666667</ele><time>2026-04-06T06:42:06.088Z</time></trkpt><trkpt lat="41.04528" lon="14.3250233"><ele>44.0</ele><time>2026-04-06T06:42:07.084Z</time></trkpt><trkpt lat="41.045355" lon="14.3250267"><ele>44.333333333333336</ele><time>2026-04-06T06:42:08.088Z</time></trkpt><trkpt lat="41.0454317" lon="14.3250317"><ele>44.666666666666664</ele><time>2026-04-06T06:42:09.086Z</time></trkpt><trkpt lat="41.0455067" lon="14.325035"><ele>45.0</ele><time>2026-04-06T06:42:10.089Z</time></trkpt><trkpt lat="41.0455817" lon="14.32504"><ele>45.0</ele><time>2026-04-06T06:42:11.088Z</time></trkpt><trkpt lat="41.0456583" lon="14.3250483"><ele>45.0</ele><time>2026-04-06T06:42:12.088Z</time></trkpt><trkpt lat="41.045735" lon="14.325055"><ele>45.0</ele><time>2026-04-06T06:42:13.087Z</time></trkpt><trkpt lat="41.0458133" lon="14.32506"><ele>45.0</ele><time>2026-04-06T06:42:14.086Z</time></trkpt><trkpt lat="41.0458917" lon="14.3250717"><ele>45.0</ele><time>2026-04-06T06:42:15.085Z</time></trkpt><trkpt lat="41.04597" lon="14.32508"><ele>45.0</ele><time>2026-04-06T06:42:16.086Z</time></trkpt><trkpt lat="41.04605" lon="14.3250833"><ele>45.14285714285714</ele><time>2026-04-06T06:42:17.086Z</time></trkpt><trkpt lat="41.0461283" lon="14.3250917"><ele>45.28571428571429</ele><time>2026-04-06T06:42:18.086Z</time></trkpt><trkpt lat="41.0462033" lon="14.325095"><ele>45.42857142857143</ele><time>2026-04-06T06:42:19.086Z</time></trkpt><trkpt lat="41.0462783" lon="14.3251067"><ele>45.57142857142857</ele><time>2026-04-06T06:42:20.086Z</time></trkpt><trkpt lat="41.04635" lon="14.3251117"><ele>45.71428571428571</ele><time>2026-04-06T06:42:21.085Z</time></trkpt><trkpt lat="41.0464217" lon="14.325115"><ele>45.85714285714286</ele><time>2026-04-06T06:42:22.084Z</time></trkpt><trkpt lat="41.046495" lon="14.3251233"><ele>46.0</ele><time>2026-04-06T06:42:23.087Z</time></trkpt><trkpt lat="41.0465683" lon="14.3251317"><ele>46.42857142857143</ele><time>2026-04-06T06:42:24.086Z</time></trkpt><trkpt lat="41.0466383" lon="14.3251367"><ele>46.857142857142854</ele><time>2026-04-06T06:42:25.087Z</time></trkpt><trkpt lat="41.0467117" lon="14.325145"><ele>47.285714285714285</ele><time>2026-04-06T06:42:26.087Z</time></trkpt><trkpt lat="41.0467867" lon="14.3251533"><ele>47.714285714285715</ele><time>2026-04-06T06:42:27.089Z</time></trkpt><trkpt lat="41.0468583" lon="14.3251617"><ele>48.14285714285714</ele><time>2026-04-06T06:42:28.086Z</time></trkpt><trkpt lat="41.0469317" lon="14.3251683"><ele>48.57142857142857</ele><time>2026-04-06T06:42:29.086Z</time></trkpt><trkpt lat="41.0470083" lon="14.32517"><ele>49.0</ele><time>2026-04-06T06:42:30.086Z</time></trkpt><trkpt lat="41.0470767" lon="14.325175"><ele>49.0</ele><time>2026-04-06T06:42:31.089Z</time></trkpt><trkpt lat="41.047145" lon="14.3251817"><ele>49.0</ele><time>2026-04-06T06:42:32.088Z</time></trkpt><trkpt lat="41.0472133" lon="14.3251833"><ele>49.0</ele><time>2026-04-06T06:42:33.087Z</time></trkpt><trkpt lat="41.0472817" lon="14.3251833"><ele>49.0</ele><time>2026-04-06T06:42:34.084Z</time></trkpt><trkpt lat="41.04735" lon="14.3251867"><ele>49.0</ele><time>2026-04-06T06:42:35.087Z</time></trkpt><trkpt lat="41.0474167" lon="14.3251883"><ele>49.0</ele><time>2026-04-06T06:42:36.087Z</time></trkpt><trkpt lat="41.0474867" lon="14.325195"><ele>49.0</ele><time>2026-04-06T06:42:37.088Z</time></trkpt><trkpt lat="41.047555" lon="14.3251983"><ele>48.857142857142854</ele><time>2026-04-06T06:42:38.086Z</time></trkpt><trkpt lat="41.04762" lon="14.3252"><ele>48.714285714285715</ele><time>2026-04-06T06:42:39.087Z</time></trkpt><trkpt lat="41.04769" lon="14.325205"><ele>48.57142857142857</ele><time>2026-04-06T06:42:40.088Z</time></trkpt><trkpt lat="41.0477567" lon="14.32521"><ele>48.42857142857143</ele><time>2026-04-06T06:42:41.084Z</time></trkpt><trkpt lat="41.0478217" lon="14.325215"><ele>48.285714285714285</ele><time>2026-04-06T06:42:42.088Z</time></trkpt><trkpt lat="41.04789" lon="14.3252217"><ele>48.14285714285714</ele><time>2026-04-06T06:42:43.086Z</time></trkpt><trkpt lat="41.0479567" lon="14.3252283"><ele>48.0</ele><time>2026-04-06T06:42:44.088Z</time></trkpt><trkpt lat="41.0480233" lon="14.325235"><ele>47.99999999999999</ele><time>2026-04-06T06:42:45.084Z</time></trkpt><trkpt lat="41.0480933" lon="14.3252417"><ele>48.0</ele><time>2026-04-06T06:42:46.085Z</time></trkpt><trkpt lat="41.0481617" lon="14.3252467"><ele>48.0</ele><time>2026-04-06T06:42:47.084Z</time></trkpt><trkpt lat="41.04823" lon="14.3252533"><ele>48.0</ele><time>2026-04-06T06:42:48.087Z</time></trkpt><trkpt lat="41.0482967" lon="14.3252583"><ele>48.0</ele><time>2026-04-06T06:42:49.087Z</time></trkpt><trkpt lat="41.0483617" lon="14.325265"><ele>47.99999999999999</ele><time>2026-04-06T06:42:50.086Z</time></trkpt><trkpt lat="41.048425" lon="14.32527"><ele>48.0</ele><time>2026-04-06T06:42:51.086Z</time></trkpt><trkpt lat="41.0484917" lon="14.325275"><ele>48.333333333333336</ele><time>2026-04-06T06:42:52.085Z</time></trkpt><trkpt lat="41.0485583" lon="14.3252817"><ele>48.66666666666667</ele><time>2026-04-06T06:42:53.089Z</time></trkpt><trkpt lat="41.048625" lon="14.3252833"><ele>49.0</ele><time>2026-04-06T06:42:54.086Z</time></trkpt><trkpt lat="41.04869" lon="14.3252833"><ele>49.333333333333336</ele><time>2026-04-06T06:42:55.088Z</time></trkpt><trkpt lat="41.0488133" lon="14.3252867"><ele>49.66666666666667</ele><time>2026-04-06T06:42:57.088Z</time></trkpt><trkpt lat="41.0489333" lon="14.3252933"><ele>50.0</ele><time>2026-04-06T06:42:59.088Z</time></trkpt><trkpt lat="41.0490583" lon="14.325305"><ele>50.0</ele><time>2026-04-06T06:43:01.087Z</time></trkpt><trkpt lat="41.0491217" lon="14.3253083"><ele>50.0</ele><time>2026-04-06T06:43:02.084Z</time></trkpt><trkpt lat="41.049185" lon="14.325315"><ele>50.0</ele><time>2026-04-06T06:43:03.085Z</time></trkpt><trkpt lat="41.0493017" lon="14.3253217"><ele>50.0</ele><time>2026-04-06T06:43:05.087Z</time></trkpt><trkpt lat="41.0494133" lon="14.3253317"><ele>50.0</ele><time>2026-04-06T06:43:07.084Z</time></trkpt><trkpt lat="41.0495217" lon="14.325345"><ele>50.2</ele><time>2026-04-06T06:43:09.087Z</time></trkpt><trkpt lat="41.0496233" lon="14.3253583"><ele>50.4</ele><time>2026-04-06T06:43:11.086Z</time></trkpt><trkpt lat="41.0497217" lon="14.32537"><ele>50.599999999999994</ele><time>2026-04-06T06:43:13.086Z</time></trkpt><trkpt lat="41.0498133" lon="14.3253717"><ele>50.8</ele><time>2026-04-06T06:43:15.087Z</time></trkpt><trkpt lat="41.0499" lon="14.3253833"><ele>51.0</ele><time>2026-04-06T06:43:17.087Z</time></trkpt><trkpt lat="41.04999" lon="14.3253867"><ele>51.199999999999996</ele><time>2026-04-06T06:43:19.085Z</time></trkpt><trkpt lat="41.0500917" lon="14.32539"><ele>51.4</ele><time>2026-04-06T06:43:21.086Z</time></trkpt><trkpt lat="41.0502033" lon="14.325395"><ele>51.6</ele><time>2026-04-06T06:43:23.088Z</time></trkpt><trkpt lat="41.050315" lon="14.325415"><ele>51.8</ele><time>2026-04-06T06:43:25.086Z</time></trkpt><trkpt lat="41.05043" lon="14.3254317"><ele>52.0</ele><time>2026-04-06T06:43:27.087Z</time></trkpt><trkpt lat="41.05054" lon="14.3254367"><ele>52.0</ele><time>2026-04-06T06:43:29.087Z</time></trkpt><trkpt lat="41.0506567" lon="14.3254467"><ele>52.0</ele><time>2026-04-06T06:43:31.089Z</time></trkpt><trkpt lat="41.0507717" lon="14.325455"><ele>52.0</ele><time>2026-04-06T06:43:33.086Z</time></trkpt><trkpt lat="41.0508917" lon="14.3254583"><ele>52.0</ele><time>2026-04-06T06:43:35.085Z</time></trkpt><trkpt lat="41.050955" lon="14.32546"><ele>52.0</ele><time>2026-04-06T06:43:36.085Z</time></trkpt><trkpt lat="41.0510183" lon="14.32546"><ele>51.857142857142854</ele><time>2026-04-06T06:43:37.087Z</time></trkpt><trkpt lat="41.051085" lon="14.325465"><ele>51.714285714285715</ele><time>2026-04-06T06:43:38.087Z</time></trkpt><trkpt lat="41.0511483" lon="14.3254667"><ele>51.57142857142857</ele><time>2026-04-06T06:43:39.088Z</time></trkpt><trkpt lat="41.0512117" lon="14.32547"><ele>51.42857142857143</ele><time>2026-04-06T06:43:40.086Z</time></trkpt><trkpt lat="41.0512767" lon="14.3254783"><ele>51.28571428571429</ele><time>2026-04-06T06:43:41.087Z</time></trkpt><trkpt lat="41.0513433" lon="14.325485"><ele>51.142857142857146</ele><time>2026-04-06T06:43:42.087Z</time></trkpt><trkpt lat="41.0514067" lon="14.3254883"><ele>51.0</ele><time>2026-04-06T06:43:43.086Z</time></trkpt><trkpt lat="41.051525" lon="14.32549"><ele>51.0</ele><time>2026-04-06T06:43:45.089Z</time></trkpt><trkpt lat="41.0516233" lon="14.3254933"><ele>51.0</ele><time>2026-04-06T06:43:47.088Z</time></trkpt><trkpt lat="41.0516967" lon="14.32551"><ele>51.0</ele><time>2026-04-06T06:43:49.087Z</time></trkpt><trkpt lat="41.05178" lon="14.325525"><ele>51.0</ele><time>2026-04-06T06:43:51.085Z</time></trkpt><trkpt lat="41.0518733" lon="14.3255317"><ele>51.0</ele><time>2026-04-06T06:43:53.084Z</time></trkpt><trkpt lat="41.051975" lon="14.3255417"><ele>51.0</ele><time>2026-04-06T06:43:55.086Z</time></trkpt><trkpt lat="41.0520833" lon="14.3255483"><ele>51.0</ele><time>2026-04-06T06:43:57.086Z</time></trkpt><trkpt lat="41.052195" lon="14.3255533"><ele>51.0</ele><time>2026-04-06T06:43:59.087Z</time></trkpt><trkpt lat="41.052315" lon="14.3255583"><ele>51.0</ele><time>2026-04-06T06:44:01.086Z</time></trkpt><trkpt lat="41.05244" lon="14.3255633"><ele>51.599999999999994</ele><time>2026-04-06T06:44:03.086Z</time></trkpt><trkpt lat="41.0525633" lon="14.3255733"><ele>52.2</ele><time>2026-04-06T06:44:05.086Z</time></trkpt><trkpt lat="41.05269" lon="14.3255867"><ele>52.800000000000004</ele><time>2026-04-06T06:44:07.087Z</time></trkpt><trkpt lat="41.052755" lon="14.325595"><ele>53.400000000000006</ele><time>2026-04-06T06:44:08.087Z</time></trkpt><trkpt lat="41.05282" lon="14.3256"><ele>54.0</ele><time>2026-04-06T06:44:09.086Z</time></trkpt><trkpt lat="41.0529433" lon="14.3256117"><ele>54.0</ele><time>2026-04-06T06:44:11.086Z</time></trkpt><trkpt lat="41.0530083" lon="14.325615"><ele>54.0</ele><time>2026-04-06T06:44:12.085Z</time></trkpt><trkpt lat="41.0530717" lon="14.32562"><ele>54.0</ele><time>2026-04-06T06:44:13.086Z</time></trkpt><trkpt lat="41.053135" lon="14.325625"><ele>54.0</ele><time>2026-04-06T06:44:14.088Z</time></trkpt><trkpt lat="41.0531983" lon="14.32563"><ele>54.0</ele><time>2026-04-06T06:44:15.087Z</time></trkpt><trkpt lat="41.0532617" lon="14.325635"><ele>54.0</ele><time>2026-04-06T06:44:16.086Z</time></trkpt><trkpt lat="41.053325" lon="14.3256433"><ele>54.0</ele><time>2026-04-06T06:44:17.088Z</time></trkpt><trkpt lat="41.05339" lon="14.32565"><ele>54.0</ele><time>2026-04-06T06:44:18.089Z</time></trkpt><trkpt lat="41.0534567" lon="14.3256583"><ele>54.14285714285714</ele><time>2026-04-06T06:44:19.088Z</time></trkpt><trkpt lat="41.0535233" lon="14.325665"><ele>54.285714285714285</ele><time>2026-04-06T06:44:20.085Z</time></trkpt><trkpt lat="41.0535883" lon="14.32567"><ele>54.42857142857143</ele><time>2026-04-06T06:44:21.085Z</time></trkpt><trkpt lat="41.0536517" lon="14.3256733"><ele>54.57142857142857</ele><time>2026-04-06T06:44:22.085Z</time></trkpt><trkpt lat="41.0537167" lon="14.3256767"><ele>54.714285714285715</ele><time>2026-04-06T06:44:23.087Z</time></trkpt><trkpt lat="41.0537817" lon="14.3256833"><ele>54.857142857142854</ele><time>2026-04-06T06:44:24.086Z</time></trkpt><trkpt lat="41.0538483" lon="14.3256883"><ele>55.0</ele><time>2026-04-06T06:44:25.085Z</time></trkpt><trkpt lat="41.053915" lon="14.3256917"><ele>54.99999999999999</ele><time>2026-04-06T06:44:26.086Z</time></trkpt><trkpt lat="41.0539817" lon="14.325695"><ele>55.0</ele><time>2026-04-06T06:44:27.087Z</time></trkpt><trkpt lat="41.0540483" lon="14.3256967"><ele>55.0</ele><time>2026-04-06T06:44:28.086Z</time></trkpt><trkpt lat="41.054115" lon="14.3256983"><ele>55.0</ele><time>2026-04-06T06:44:29.088Z</time></trkpt><trkpt lat="41.0541817" lon="14.3257033"><ele>55.0</ele><time>2026-04-06T06:44:30.088Z</time></trkpt><trkpt lat="41.0542483" lon="14.32571"><ele>54.99999999999999</ele><time>2026-04-06T06:44:31.087Z</time></trkpt><trkpt lat="41.054315" lon="14.3257183"><ele>55.0</ele><time>2026-04-06T06:44:32.086Z</time></trkpt><trkpt lat="41.0543833" lon="14.3257217"><ele>54.71428571428571</ele><time>2026-04-06T06:44:33.088Z</time></trkpt><trkpt lat="41.05445" lon="14.3257317"><ele>54.42857142857143</ele><time>2026-04-06T06:44:34.088Z</time></trkpt><trkpt lat="41.0545167" lon="14.32574"><ele>54.14285714285714</ele><time>2026-04-06T06:44:35.084Z</time></trkpt><trkpt lat="41.054585" lon="14.325745"><ele>53.857142857142854</ele><time>2026-04-06T06:44:36.086Z</time></trkpt><trkpt lat="41.0546517" lon="14.3257483"><ele>53.57142857142857</ele><time>2026-04-06T06:44:37.086Z</time></trkpt><trkpt lat="41.0547183" lon="14.3257533"><ele>53.285714285714285</ele><time>2026-04-06T06:44:38.088Z</time></trkpt><trkpt lat="41.0547867" lon="14.32576"><ele>53.0</ele><time>2026-04-06T06:44:39.085Z</time></trkpt><trkpt lat="41.0548517" lon="14.3257633"><ele>53.0</ele><time>2026-04-06T06:44:40.085Z</time></trkpt><trkpt lat="41.0549167" lon="14.3257683"><ele>53.0</ele><time>2026-04-06T06:44:41.084Z</time></trkpt><trkpt lat="41.0549833" lon="14.3257717"><ele>53.0</ele><time>2026-04-06T06:44:42.088Z</time></trkpt><trkpt lat="41.05505" lon="14.325775"><ele>53.0</ele><time>2026-04-06T06:44:43.085Z</time></trkpt><trkpt lat="41.0551167" lon="14.3257783"><ele>53.0</ele><time>2026-04-06T06:44:44.084Z</time></trkpt><trkpt lat="41.055185" lon="14.3257833"><ele>53.0</ele><time>2026-04-06T06:44:45.085Z</time></trkpt><trkpt lat="41.0552517" lon="14.32579"><ele>53.0</ele><time>2026-04-06T06:44:46.085Z</time></trkpt><trkpt lat="41.0553217" lon="14.325795"><ele>53.0</ele><time>2026-04-06T06:44:47.088Z</time></trkpt><trkpt lat="41.05539" lon="14.3258017"><ele>53.0</ele><time>2026-04-06T06:44:48.085Z</time></trkpt><trkpt lat="41.0554583" lon="14.3258083"><ele>53.0</ele><time>2026-04-06T06:44:49.085Z</time></trkpt><trkpt lat="41.055525" lon="14.325815"><ele>53.0</ele><time>2026-04-06T06:44:50.085Z</time></trkpt><trkpt lat="41.0555933" lon="14.32582"><ele>53.0</ele><time>2026-04-06T06:44:51.088Z</time></trkpt><trkpt lat="41.0556617" lon="14.3258267"><ele>53.0</ele><time>2026-04-06T06:44:52.084Z</time></trkpt><trkpt lat="41.05573" lon="14.325835"><ele>53.0</ele><time>2026-04-06T06:44:53.086Z</time></trkpt><trkpt lat="41.0557967" lon="14.3258417"><ele>53.0</ele><time>2026-04-06T06:44:54.088Z</time></trkpt><trkpt lat="41.055865" lon="14.3258517"><ele>53.0</ele><time>2026-04-06T06:44:55.084Z</time></trkpt><trkpt lat="41.0559317" lon="14.3258583"><ele>53.0</ele><time>2026-04-06T06:44:56.086Z</time></trkpt><trkpt lat="41.0560017" lon="14.325865"><ele>53.0</ele><time>2026-04-06T06:44:57.086Z</time></trkpt><trkpt lat="41.05607" lon="14.32587"><ele>53.0</ele><time>2026-04-06T06:44:58.085Z</time></trkpt><trkpt lat="41.05614" lon="14.3258733"><ele>53.0</ele><time>2026-04-06T06:44:59.085Z</time></trkpt><trkpt lat="41.056205" lon="14.325875"><ele>53.0</ele><time>2026-04-06T06:45:00.088Z</time></trkpt><trkpt lat="41.05627" lon="14.3258783"><ele>53.0</ele><time>2026-04-06T06:45:01.085Z</time></trkpt><trkpt lat="41.0563333" lon="14.3258817"><ele>53.0</ele><time>2026-04-06T06:45:02.086Z</time></trkpt><trkpt lat="41.0563967" lon="14.3258867"><ele>53.0</ele><time>2026-04-06T06:45:03.086Z</time></trkpt><trkpt lat="41.0565167" lon="14.3259017"><ele>53.0</ele><time>2026-04-06T06:45:05.086Z</time></trkpt><trkpt lat="41.0566283" lon="14.3259383"><ele>53.0</ele><time>2026-04-06T06:45:07.086Z</time></trkpt><trkpt lat="41.0567367" lon="14.3260067"><ele>53.2</ele><time>2026-04-06T06:45:09.086Z</time></trkpt><trkpt lat="41.0567983" lon="14.32603"><ele>53.4</ele><time>2026-04-06T06:45:10.088Z</time></trkpt><trkpt lat="41.0569183" lon="14.3260117"><ele>53.60000000000001</ele><time>2026-04-06T06:45:12.085Z</time></trkpt><trkpt lat="41.0570367" lon="14.3259583"><ele>53.800000000000004</ele><time>2026-04-06T06:45:14.086Z</time></trkpt><trkpt lat="41.05716" lon="14.3259417"><ele>54.0</ele><time>2026-04-06T06:45:16.085Z</time></trkpt><trkpt lat="41.0572817" lon="14.3259517"><ele>54.0</ele><time>2026-04-06T06:45:18.088Z</time></trkpt><trkpt lat="41.0573467" lon="14.32596"><ele>54.0</ele><time>2026-04-06T06:45:19.087Z</time></trkpt><trkpt lat="41.0574117" lon="14.3259683"><ele>54.0</ele><time>2026-04-06T06:45:20.088Z</time></trkpt><trkpt lat="41.0574783" lon="14.3259733"><ele>54.0</ele><time>2026-04-06T06:45:21.085Z</time></trkpt><trkpt lat="41.0575417" lon="14.3259783"><ele>54.0</ele><time>2026-04-06T06:45:22.085Z</time></trkpt><trkpt lat="41.0576083" lon="14.325985"><ele>54.0</ele><time>2026-04-06T06:45:23.086Z</time></trkpt><trkpt lat="41.0576733" lon="14.3259917"><ele>54.0</ele><time>2026-04-06T06:45:24.087Z</time></trkpt><trkpt lat="41.05774" lon="14.3259983"><ele>53.714285714285715</ele><time>2026-04-06T06:45:25.086Z</time></trkpt><trkpt lat="41.0578067" lon="14.3260067"><ele>53.42857142857143</ele><time>2026-04-06T06:45:26.086Z</time></trkpt><trkpt lat="41.0578733" lon="14.3260133"><ele>53.14285714285714</ele><time>2026-04-06T06:45:27.088Z</time></trkpt><trkpt lat="41.0579367" lon="14.3260167"><ele>52.85714285714286</ele><time>2026-04-06T06:45:28.084Z</time></trkpt><trkpt lat="41.058005" lon="14.326025"><ele>52.57142857142858</ele><time>2026-04-06T06:45:29.085Z</time></trkpt><trkpt lat="41.0580717" lon="14.3260283"><ele>52.285714285714285</ele><time>2026-04-06T06:45:30.086Z</time></trkpt><trkpt lat="41.0581367" lon="14.326035"><ele>52.0</ele><time>2026-04-06T06:45:31.087Z</time></trkpt><trkpt lat="41.0582033" lon="14.3260383"><ele>52.0</ele><time>2026-04-06T06:45:32.089Z</time></trkpt><trkpt lat="41.05827" lon="14.326045"><ele>52.0</ele><time>2026-04-06T06:45:33.088Z</time></trkpt><trkpt lat="41.0583367" lon="14.32605"><ele>52.0</ele><time>2026-04-06T06:45:34.085Z</time></trkpt><trkpt lat="41.0584033" lon="14.3260583"><ele>52.0</ele><time>2026-04-06T06:45:35.086Z</time></trkpt><trkpt lat="41.05847" lon="14.3260683"><ele>52.0</ele><time>2026-04-06T06:45:36.087Z</time></trkpt><trkpt lat="41.058535" lon="14.3260717"><ele>52.0</ele><time>2026-04-06T06:45:37.087Z</time></trkpt><trkpt lat="41.0585983" lon="14.3260733"><ele>52.0</ele><time>2026-04-06T06:45:38.086Z</time></trkpt><trkpt lat="41.058665" lon="14.3260767"><ele>52.285714285714285</ele><time>2026-04-06T06:45:39.086Z</time></trkpt><trkpt lat="41.0587317" lon="14.3260817"><ele>52.57142857142858</ele><time>2026-04-06T06:45:40.088Z</time></trkpt><trkpt lat="41.0588017" lon="14.32609"><ele>52.85714285714286</ele><time>2026-04-06T06:45:41.089Z</time></trkpt><trkpt lat="41.05887" lon="14.326095"><ele>53.14285714285714</ele><time>2026-04-06T06:45:42.088Z</time></trkpt><trkpt lat="41.0589383" lon="14.3260983"><ele>53.42857142857143</ele><time>2026-04-06T06:45:43.086Z</time></trkpt><trkpt lat="41.0590067" lon="14.3261033"><ele>53.714285714285715</ele><time>2026-04-06T06:45:44.086Z</time></trkpt><trkpt lat="41.059075" lon="14.3261117"><ele>54.0</ele><time>2026-04-06T06:45:45.085Z</time></trkpt><trkpt lat="41.059145" lon="14.3261167"><ele>54.14285714285714</ele><time>2026-04-06T06:45:46.085Z</time></trkpt><trkpt lat="41.059215" lon="14.3261217"><ele>54.285714285714285</ele><time>2026-04-06T06:45:47.087Z</time></trkpt><trkpt lat="41.0592833" lon="14.32613"><ele>54.42857142857143</ele><time>2026-04-06T06:45:48.086Z</time></trkpt><trkpt lat="41.059355" lon="14.3261333"><ele>54.57142857142857</ele><time>2026-04-06T06:45:49.088Z</time></trkpt><trkpt lat="41.059425" lon="14.3261417"><ele>54.714285714285715</ele><time>2026-04-06T06:45:50.085Z</time></trkpt><trkpt lat="41.0594967" lon="14.3261517"><ele>54.857142857142854</ele><time>2026-04-06T06:45:51.086Z</time></trkpt><trkpt lat="41.0595683" lon="14.3261583"><ele>55.0</ele><time>2026-04-06T06:45:52.085Z</time></trkpt><trkpt lat="41.0596417" lon="14.326165"><ele>54.99999999999999</ele><time>2026-04-06T06:45:53.087Z</time></trkpt><trkpt lat="41.0597117" lon="14.3261717"><ele>55.0</ele><time>2026-04-06T06:45:54.086Z</time></trkpt><trkpt lat="41.0597817" lon="14.326175"><ele>55.0</ele><time>2026-04-06T06:45:55.085Z</time></trkpt><trkpt lat="41.0598533" lon="14.3261767"><ele>55.0</ele><time>2026-04-06T06:45:56.085Z</time></trkpt><trkpt lat="41.059925" lon="14.32618"><ele>55.0</ele><time>2026-04-06T06:45:57.088Z</time></trkpt><trkpt lat="41.059995" lon="14.3261833"><ele>54.99999999999999</ele><time>2026-04-06T06:45:58.084Z</time></trkpt><trkpt lat="41.0600667" lon="14.326185"><ele>55.0</ele><time>2026-04-06T06:45:59.086Z</time></trkpt><trkpt lat="41.060135" lon="14.32619"><ele>54.99999999999999</ele><time>2026-04-06T06:46:00.086Z</time></trkpt><trkpt lat="41.0602033" lon="14.326195"><ele>55.0</ele><time>2026-04-06T06:46:01.085Z</time></trkpt><trkpt lat="41.0602717" lon="14.3262033"><ele>55.0</ele><time>2026-04-06T06:46:02.086Z</time></trkpt><trkpt lat="41.0603417" lon="14.3262117"><ele>55.0</ele><time>2026-04-06T06:46:03.087Z</time></trkpt><trkpt lat="41.0604117" lon="14.3262183"><ele>55.0</ele><time>2026-04-06T06:46:04.085Z</time></trkpt><trkpt lat="41.0604817" lon="14.326225"><ele>54.99999999999999</ele><time>2026-04-06T06:46:05.087Z</time></trkpt><trkpt lat="41.0605533" lon="14.3262317"><ele>55.0</ele><time>2026-04-06T06:46:06.087Z</time></trkpt><trkpt lat="41.0606233" lon="14.3262367"><ele>54.99999999999999</ele><time>2026-04-06T06:46:07.086Z</time></trkpt><trkpt lat="41.060695" lon="14.3262417"><ele>55.0</ele><time>2026-04-06T06:46:08.086Z</time></trkpt><trkpt lat="41.0607683" lon="14.3262433"><ele>55.0</ele><time>2026-04-06T06:46:09.086Z</time></trkpt><trkpt lat="41.0608417" lon="14.3262467"><ele>55.0</ele><time>2026-04-06T06:46:10.084Z</time></trkpt><trkpt lat="41.0609133" lon="14.326255"><ele>55.0</ele><time>2026-04-06T06:46:11.086Z</time></trkpt><trkpt lat="41.060985" lon="14.3262583"><ele>54.99999999999999</ele><time>2026-04-06T06:46:12.085Z</time></trkpt><trkpt lat="41.0610567" lon="14.326265"><ele>55.0</ele><time>2026-04-06T06:46:13.085Z</time></trkpt><trkpt lat="41.0611283" lon="14.32627"><ele>55.14285714285714</ele><time>2026-04-06T06:46:14.086Z</time></trkpt><trkpt lat="41.0611983" lon="14.3262767"><ele>55.285714285714285</ele><time>2026-04-06T06:46:15.087Z</time></trkpt><trkpt lat="41.0612683" lon="14.3262833"><ele>55.42857142857143</ele><time>2026-04-06T06:46:16.084Z</time></trkpt><trkpt lat="41.06134" lon="14.32629"><ele>55.57142857142857</ele><time>2026-04-06T06:46:17.086Z</time></trkpt><trkpt lat="41.0614133" lon="14.326295"><ele>55.714285714285715</ele><time>2026-04-06T06:46:18.087Z</time></trkpt><trkpt lat="41.061485" lon="14.3262983"><ele>55.857142857142854</ele><time>2026-04-06T06:46:19.086Z</time></trkpt><trkpt lat="41.0615583" lon="14.326305"><ele>56.0</ele><time>2026-04-06T06:46:20.086Z</time></trkpt><trkpt lat="41.06163" lon="14.3263117"><ele>56.285714285714285</ele><time>2026-04-06T06:46:21.086Z</time></trkpt><trkpt lat="41.0617033" lon="14.3263183"><ele>56.57142857142857</ele><time>2026-04-06T06:46:22.084Z</time></trkpt><trkpt lat="41.0617783" lon="14.326325"><ele>56.85714285714286</ele><time>2026-04-06T06:46:23.087Z</time></trkpt><trkpt lat="41.0618517" lon="14.3263333"><ele>57.142857142857146</ele><time>2026-04-06T06:46:24.087Z</time></trkpt><trkpt lat="41.0619233" lon="14.3263367"><ele>57.42857142857143</ele><time>2026-04-06T06:46:25.086Z</time></trkpt><trkpt lat="41.0619933" lon="14.32634"><ele>57.71428571428572</ele><time>2026-04-06T06:46:26.087Z</time></trkpt><trkpt lat="41.0620633" lon="14.3263433"><ele>58.00000000000001</ele><time>2026-04-06T06:46:27.085Z</time></trkpt><trkpt lat="41.0621333" lon="14.3263517"><ele>58.00000000000001</ele><time>2026-04-06T06:46:28.086Z</time></trkpt><trkpt lat="41.0622033" lon="14.326355"><ele>58.0</ele><time>2026-04-06T06:46:29.087Z</time></trkpt><trkpt lat="41.062275" lon="14.3263617"><ele>58.00000000000001</ele><time>2026-04-06T06:46:30.085Z</time></trkpt><trkpt lat="41.0623483" lon="14.3263683"><ele>58.00000000000001</ele><time>2026-04-06T06:46:31.087Z</time></trkpt><trkpt lat="41.06242" lon="14.326375"><ele>58.0</ele><time>2026-04-06T06:46:32.086Z</time></trkpt><trkpt lat="41.0624933" lon="14.3263817"><ele>58.00000000000001</ele><time>2026-04-06T06:46:33.084Z</time></trkpt><trkpt lat="41.062565" lon="14.3263883"><ele>58.00000000000001</ele><time>2026-04-06T06:46:34.087Z</time></trkpt><trkpt lat="41.0626383" lon="14.3263933"><ele>58.166666666666664</ele><time>2026-04-06T06:46:35.085Z</time></trkpt><trkpt lat="41.0627117" lon="14.3264"><ele>58.33333333333333</ele><time>2026-04-06T06:46:36.088Z</time></trkpt><trkpt lat="41.0627883" lon="14.3264067"><ele>58.5</ele><time>2026-04-06T06:46:37.085Z</time></trkpt><trkpt lat="41.0628633" lon="14.3264133"><ele>58.66666666666667</ele><time>2026-04-06T06:46:38.086Z</time></trkpt><trkpt lat="41.0629383" lon="14.3264183"><ele>58.833333333333336</ele><time>2026-04-06T06:46:39.086Z</time></trkpt><trkpt lat="41.0630167" lon="14.3264267"><ele>59.0</ele><time>2026-04-06T06:46:40.085Z</time></trkpt><trkpt lat="41.063095" lon="14.3264333"><ele>59.00000000000001</ele><time>2026-04-06T06:46:41.087Z</time></trkpt><trkpt lat="41.0631733" lon="14.3264367"><ele>59.0</ele><time>2026-04-06T06:46:42.088Z</time></trkpt><trkpt lat="41.06325" lon="14.3264417"><ele>59.0</ele><time>2026-04-06T06:46:43.085Z</time></trkpt><trkpt lat="41.0633267" lon="14.3264467"><ele>59.0</ele><time>2026-04-06T06:46:44.088Z</time></trkpt><trkpt lat="41.063405" lon="14.3264517"><ele>59.00000000000001</ele><time>2026-04-06T06:46:45.084Z</time></trkpt><trkpt lat="41.0634817" lon="14.3264583"><ele>59.0</ele><time>2026-04-06T06:46:46.085Z</time></trkpt><trkpt lat="41.0635583" lon="14.326465"><ele>59.57142857142857</ele><time>2026-04-06T06:46:47.086Z</time></trkpt><trkpt lat="41.063635" lon="14.3264717"><ele>60.142857142857146</ele><time>2026-04-06T06:46:48.086Z</time></trkpt><trkpt lat="41.06371" lon="14.3264767"><ele>60.714285714285715</ele><time>2026-04-06T06:46:49.087Z</time></trkpt><trkpt lat="41.063785" lon="14.3264833"><ele>61.285714285714285</ele><time>2026-04-06T06:46:50.085Z</time></trkpt><trkpt lat="41.0638583" lon="14.32649"><ele>61.85714285714286</ele><time>2026-04-06T06:46:51.086Z</time></trkpt><trkpt lat="41.0639283" lon="14.3264933"><ele>62.42857142857143</ele><time>2026-04-06T06:46:52.086Z</time></trkpt><trkpt lat="41.0639967" lon="14.3264967"><ele>63.0</ele><time>2026-04-06T06:46:53.086Z</time></trkpt><trkpt lat="41.0640617" lon="14.3265017"><ele>62.42857142857143</ele><time>2026-04-06T06:46:54.088Z</time></trkpt><trkpt lat="41.0641283" lon="14.3265067"><ele>61.85714285714286</ele><time>2026-04-06T06:46:55.088Z</time></trkpt><trkpt lat="41.0641983" lon="14.3265133"><ele>61.285714285714285</ele><time>2026-04-06T06:46:56.085Z</time></trkpt><trkpt lat="41.0642667" lon="14.32652"><ele>60.714285714285715</ele><time>2026-04-06T06:46:57.086Z</time></trkpt><trkpt lat="41.0643367" lon="14.3265283"><ele>60.142857142857146</ele><time>2026-04-06T06:46:58.088Z</time></trkpt><trkpt lat="41.0644033" lon="14.326535"><ele>59.57142857142857</ele><time>2026-04-06T06:46:59.088Z</time></trkpt><trkpt lat="41.0644717" lon="14.3265433"><ele>59.0</ele><time>2026-04-06T06:47:00.085Z</time></trkpt><trkpt lat="41.06454" lon="14.3265467"><ele>59.00000000000001</ele><time>2026-04-06T06:47:01.086Z</time></trkpt><trkpt lat="41.0646133" lon="14.3265467"><ele>59.0</ele><time>2026-04-06T06:47:02.086Z</time></trkpt><trkpt lat="41.0646867" lon="14.3265517"><ele>59.0</ele><time>2026-04-06T06:47:03.085Z</time></trkpt><trkpt lat="41.0647633" lon="14.3265583"><ele>59.0</ele><time>2026-04-06T06:47:04.088Z</time></trkpt><trkpt lat="41.06484" lon="14.3265633"><ele>59.00000000000001</ele><time>2026-04-06T06:47:05.085Z</time></trkpt><trkpt lat="41.0649183" lon="14.32657"><ele>59.0</ele><time>2026-04-06T06:47:06.088Z</time></trkpt><trkpt lat="41.0649967" lon="14.32658"><ele>58.833333333333336</ele><time>2026-04-06T06:47:07.085Z</time></trkpt><trkpt lat="41.065075" lon="14.3265883"><ele>58.66666666666667</ele><time>2026-04-06T06:47:08.087Z</time></trkpt><trkpt lat="41.065155" lon="14.3265933"><ele>58.5</ele><time>2026-04-06T06:47:09.086Z</time></trkpt><trkpt lat="41.0652317" lon="14.3266017"><ele>58.33333333333333</ele><time>2026-04-06T06:47:10.084Z</time></trkpt><trkpt lat="41.0653083" lon="14.3266083"><ele>58.166666666666664</ele><time>2026-04-06T06:47:11.085Z</time></trkpt><trkpt lat="41.0653817" lon="14.3266117"><ele>58.0</ele><time>2026-04-06T06:47:12.088Z</time></trkpt><trkpt lat="41.0654567" lon="14.3266167"><ele>57.99999999999999</ele><time>2026-04-06T06:47:13.087Z</time></trkpt><trkpt lat="41.065525" lon="14.32662"><ele>58.0</ele><time>2026-04-06T06:47:14.085Z</time></trkpt><trkpt lat="41.0655933" lon="14.3266233"><ele>58.0</ele><time>2026-04-06T06:47:15.088Z</time></trkpt><trkpt lat="41.0656583" lon="14.3266267"><ele>58.0</ele><time>2026-04-06T06:47:16.089Z</time></trkpt><trkpt lat="41.0657217" lon="14.3266317"><ele>57.99999999999999</ele><time>2026-04-06T06:47:17.087Z</time></trkpt><trkpt lat="41.065785" lon="14.3266433"><ele>58.0</ele><time>2026-04-06T06:47:18.087Z</time></trkpt><trkpt lat="41.0658983" lon="14.3267133"><ele>58.4</ele><time>2026-04-06T06:47:20.085Z</time></trkpt><trkpt lat="41.06595" lon="14.3267617"><ele>58.8</ele><time>2026-04-06T06:47:21.086Z</time></trkpt><trkpt lat="41.0659967" lon="14.32682"><ele>59.2</ele><time>2026-04-06T06:47:22.086Z</time></trkpt><trkpt lat="41.0660817" lon="14.32694"><ele>59.6</ele><time>2026-04-06T06:47:24.088Z</time></trkpt><trkpt lat="41.0661617" lon="14.327055"><ele>60.0</ele><time>2026-04-06T06:47:26.088Z</time></trkpt><trkpt lat="41.066225" lon="14.32718"><ele>60.0</ele><time>2026-04-06T06:47:28.084Z</time></trkpt><trkpt lat="41.0662733" lon="14.3273117"><ele>60.0</ele><time>2026-04-06T06:47:30.087Z</time></trkpt><trkpt lat="41.0663233" lon="14.32744"><ele>60.0</ele><time>2026-04-06T06:47:32.086Z</time></trkpt><trkpt lat="41.0663817" lon="14.3275583"><ele>60.0</ele><time>2026-04-06T06:47:34.086Z</time></trkpt><trkpt lat="41.0664333" lon="14.3276867"><ele>60.0</ele><time>2026-04-06T06:47:36.086Z</time></trkpt><trkpt lat="41.0664867" lon="14.3278117"><ele>60.0</ele><time>2026-04-06T06:47:38.084Z</time></trkpt><trkpt lat="41.066535" lon="14.3279383"><ele>60.0</ele><time>2026-04-06T06:47:40.086Z</time></trkpt><trkpt lat="41.0665867" lon="14.3280667"><ele>60.0</ele><time>2026-04-06T06:47:42.086Z</time></trkpt><trkpt lat="41.0666417" lon="14.32819"><ele>60.0</ele><time>2026-04-06T06:47:44.087Z</time></trkpt><trkpt lat="41.0666967" lon="14.3283167"><ele>60.0</ele><time>2026-04-06T06:47:46.085Z</time></trkpt><trkpt lat="41.0667433" lon="14.3284383"><ele>60.2</ele><time>2026-04-06T06:47:48.087Z</time></trkpt><trkpt lat="41.0667933" lon="14.3285533"><ele>60.4</ele><time>2026-04-06T06:47:50.085Z</time></trkpt><trkpt lat="41.0668417" lon="14.3286617"><ele>60.599999999999994</ele><time>2026-04-06T06:47:52.085Z</time></trkpt><trkpt lat="41.0668883" lon="14.328785"><ele>60.8</ele><time>2026-04-06T06:47:54.089Z</time></trkpt><trkpt lat="41.0669417" lon="14.3289083"><ele>61.0</ele><time>2026-04-06T06:47:56.089Z</time></trkpt><trkpt lat="41.06698" lon="14.3290167"><ele>60.99999999999999</ele><time>2026-04-06T06:47:58.086Z</time></trkpt><trkpt lat="41.067" lon="14.3291117"><ele>61.0</ele><time>2026-04-06T06:48:00.087Z</time></trkpt><trkpt lat="41.0670367" lon="14.3291967"><ele>60.99999999999999</ele><time>2026-04-06T06:48:02.087Z</time></trkpt><trkpt lat="41.0670733" lon="14.3292733"><ele>60.99999999999999</ele><time>2026-04-06T06:48:04.084Z</time></trkpt><trkpt lat="41.0671183" lon="14.3293433"><ele>61.0</ele><time>2026-04-06T06:48:06.086Z</time></trkpt><trkpt lat="41.067155" lon="14.3294283"><ele>60.99999999999999</ele><time>2026-04-06T06:48:08.086Z</time></trkpt><trkpt lat="41.0671783" lon="14.32953"><ele>60.99999999999999</ele><time>2026-04-06T06:48:10.086Z</time></trkpt><trkpt lat="41.0672167" lon="14.3296367"><ele>61.599999999999994</ele><time>2026-04-06T06:48:12.087Z</time></trkpt><trkpt lat="41.0672617" lon="14.3297467"><ele>62.199999999999996</ele><time>2026-04-06T06:48:14.087Z</time></trkpt><trkpt lat="41.067305" lon="14.32985"><ele>62.800000000000004</ele><time>2026-04-06T06:48:16.086Z</time></trkpt><trkpt lat="41.0673433" lon="14.329955"><ele>63.400000000000006</ele><time>2026-04-06T06:48:18.087Z</time></trkpt><trkpt lat="41.0673867" lon="14.3300617"><ele>64.0</ele><time>2026-04-06T06:48:20.085Z</time></trkpt><trkpt lat="41.0674433" lon="14.3301567"><ele>64.0</ele><time>2026-04-06T06:48:22.087Z</time></trkpt><trkpt lat="41.0675104" lon="14.330249"><ele>64.0</ele><time>2026-04-06T06:48:24.086Z</time></trkpt><trkpt lat="41.0675835" lon="14.3303244"><ele>64.0</ele><time>2026-04-06T06:48:26.086Z</time></trkpt><trkpt lat="41.0676683" lon="14.3303836"><ele>64.0</ele><time>2026-04-06T06:48:28.086Z</time></trkpt><trkpt lat="41.0677566" lon="14.3304432"><ele>64.0</ele><time>2026-04-06T06:48:30.087Z</time></trkpt><trkpt lat="41.0678509" lon="14.3304811"><ele>64.0</ele><time>2026-04-06T06:48:32.087Z</time></trkpt><trkpt lat="41.0679571" lon="14.330512"><ele>64.0</ele><time>2026-04-06T06:48:34.085Z</time></trkpt><trkpt lat="41.0680654" lon="14.3305234"><ele>64.0</ele><time>2026-04-06T06:48:36.087Z</time></trkpt><trkpt lat="41.0681758" lon="14.3305266"><ele>64.0</ele><time>2026-04-06T06:48:38.086Z</time></trkpt><trkpt lat="41.0682781" lon="14.3305305"><ele>64.0</ele><time>2026-04-06T06:48:40.084Z</time></trkpt><trkpt lat="41.0683813" lon="14.3305432"><ele>64.2</ele><time>2026-04-06T06:48:42.085Z</time></trkpt><trkpt lat="41.0684849" lon="14.3305509"><ele>64.4</ele><time>2026-04-06T06:48:44.086Z</time></trkpt><trkpt lat="41.0685865" lon="14.3305516"><ele>64.6</ele><time>2026-04-06T06:48:46.086Z</time></trkpt><trkpt lat="41.0686933" lon="14.3305617"><ele>64.8</ele><time>2026-04-06T06:48:48.086Z</time></trkpt><trkpt lat="41.0687933" lon="14.330565"><ele>65.0</ele><time>2026-04-06T06:48:50.086Z</time></trkpt><trkpt lat="41.0689017" lon="14.3305917"><ele>65.0</ele><time>2026-04-06T06:48:52.085Z</time></trkpt><trkpt lat="41.0690033" lon="14.3306083"><ele>65.0</ele><time>2026-04-06T06:48:54.086Z</time></trkpt><trkpt lat="41.0690967" lon="14.330615"><ele>65.0</ele><time>2026-04-06T06:48:56.084Z</time></trkpt><trkpt lat="41.06919" lon="14.33061"><ele>65.0</ele><time>2026-04-06T06:48:58.084Z</time></trkpt><trkpt lat="41.0692667" lon="14.3306083"><ele>65.0</ele><time>2026-04-06T06:49:00.093Z</time></trkpt><trkpt lat="41.0693467" lon="14.3306267"><ele>65.0</ele><time>2026-04-06T06:49:02.087Z</time></trkpt><trkpt lat="41.0694233" lon="14.3306333"><ele>66.2</ele><time>2026-04-06T06:49:04.093Z</time></trkpt><trkpt lat="41.0695067" lon="14.33063"><ele>67.4</ele><time>2026-04-06T06:49:06.085Z</time></trkpt><trkpt lat="41.0696067" lon="14.3306167"><ele>68.6</ele><time>2026-04-06T06:49:08.085Z</time></trkpt><trkpt lat="41.069715" lon="14.3306283"><ele>69.8</ele><time>2026-04-06T06:49:10.085Z</time></trkpt><trkpt lat="41.06978" lon="14.3306483"><ele>71.0</ele><time>2026-04-06T06:49:11.085Z</time></trkpt><trkpt lat="41.0698883" lon="14.3307233"><ele>70.5</ele><time>2026-04-06T06:49:13.084Z</time></trkpt><trkpt lat="41.0699867" lon="14.3308183"><ele>70.0</ele><time>2026-04-06T06:49:15.084Z</time></trkpt><trkpt lat="41.0700367" lon="14.330885"><ele>69.5</ele><time>2026-04-06T06:49:16.084Z</time></trkpt><trkpt lat="41.070075" lon="14.3310167"><ele>69.0</ele><time>2026-04-06T06:49:18.084Z</time></trkpt><trkpt lat="41.0700717" lon="14.3311267"><ele>68.5</ele><time>2026-04-06T06:49:20.085Z</time></trkpt><trkpt lat="41.070045" lon="14.3312033"><ele>68.0</ele><time>2026-04-06T06:49:22.083Z</time></trkpt><trkpt lat="41.0700467" lon="14.3313017"><ele>68.0</ele><time>2026-04-06T06:49:25.083Z</time></trkpt><trkpt lat="41.070105" lon="14.3313767"><ele>68.0</ele><time>2026-04-06T06:49:28.084Z</time></trkpt><trkpt lat="41.0701333" lon="14.33147"><ele>68.0</ele><time>2026-04-06T06:49:30.084Z</time></trkpt><trkpt lat="41.07014" lon="14.33159"><ele>68.0</ele><time>2026-04-06T06:49:32.084Z</time></trkpt><trkpt lat="41.07014" lon="14.3317317"><ele>68.0</ele><time>2026-04-06T06:49:34.083Z</time></trkpt><trkpt lat="41.0701417" lon="14.3318733"><ele>68.5</ele><time>2026-04-06T06:49:36.085Z</time></trkpt><trkpt lat="41.0701383" lon="14.3319617"><ele>69.0</ele><time>2026-04-06T06:49:37.084Z</time></trkpt><trkpt lat="41.0701383" lon="14.3321317"><ele>69.5</ele><time>2026-04-06T06:49:39.084Z</time></trkpt><trkpt lat="41.0701367" lon="14.3322233"><ele>70.0</ele><time>2026-04-06T06:49:40.083Z</time></trkpt><trkpt lat="41.0701317" lon="14.3323083"><ele>70.5</ele><time>2026-04-06T06:49:41.083Z</time></trkpt><trkpt lat="41.070125" lon="14.3323933"><ele>71.0</ele><time>2026-04-06T06:49:42.084Z</time></trkpt><trkpt lat="41.07012" lon="14.3325583"><ele>71.0</ele><time>2026-04-06T06:49:44.084Z</time></trkpt><trkpt lat="41.07012" lon="14.3326433"><ele>71.0</ele><time>2026-04-06T06:49:45.084Z</time></trkpt><trkpt lat="41.0701183" lon="14.3327283"><ele>71.0</ele><time>2026-04-06T06:49:46.083Z</time></trkpt><trkpt lat="41.07011" lon="14.3328133"><ele>71.0</ele><time>2026-04-06T06:49:47.083Z</time></trkpt><trkpt lat="41.0701033" lon="14.3329033"><ele>71.0</ele><time>2026-04-06T06:49:48.084Z</time></trkpt><trkpt lat="41.0701" lon="14.3329917"><ele>71.0</ele><time>2026-04-06T06:49:49.084Z</time></trkpt><trkpt lat="41.0701017" lon="14.33308"><ele>71.0</ele><time>2026-04-06T06:49:50.084Z</time></trkpt><trkpt lat="41.0701" lon="14.3331667"><ele>70.5</ele><time>2026-04-06T06:49:51.083Z</time></trkpt><trkpt lat="41.07009" lon="14.3332517"><ele>70.0</ele><time>2026-04-06T06:49:52.083Z</time></trkpt><trkpt lat="41.0700867" lon="14.3333383"><ele>69.5</ele><time>2026-04-06T06:49:53.084Z</time></trkpt><trkpt lat="41.0700783" lon="14.3334283"><ele>69.0</ele><time>2026-04-06T06:49:54.085Z</time></trkpt><trkpt lat="41.0700733" lon="14.3335167"><ele>68.5</ele><time>2026-04-06T06:49:55.083Z</time></trkpt><trkpt lat="41.070065" lon="14.3336817"><ele>68.0</ele><time>2026-04-06T06:49:57.085Z</time></trkpt><trkpt lat="41.070065" lon="14.3337683"><ele>68.0</ele><time>2026-04-06T06:49:58.085Z</time></trkpt><trkpt lat="41.0700617" lon="14.3338533"><ele>68.0</ele><time>2026-04-06T06:49:59.083Z</time></trkpt><trkpt lat="41.0700633" lon="14.3339383"><ele>68.0</ele><time>2026-04-06T06:50:00.084Z</time></trkpt><trkpt lat="41.070065" lon="14.334025"><ele>68.0</ele><time>2026-04-06T06:50:01.083Z</time></trkpt><trkpt lat="41.0700583" lon="14.33411"><ele>68.0</ele><time>2026-04-06T06:50:02.084Z</time></trkpt><trkpt lat="41.0700533" lon="14.3341933"><ele>68.0</ele><time>2026-04-06T06:50:03.085Z</time></trkpt><trkpt lat="41.07004" lon="14.3342767"><ele>68.0</ele><time>2026-04-06T06:50:04.084Z</time></trkpt><trkpt lat="41.0700383" lon="14.3343617"><ele>68.0</ele><time>2026-04-06T06:50:05.083Z</time></trkpt><trkpt lat="41.07003" lon="14.3345233"><ele>68.25</ele><time>2026-04-06T06:50:07.086Z</time></trkpt><trkpt lat="41.070015" lon="14.3346833"><ele>68.5</ele><time>2026-04-06T06:50:09.084Z</time></trkpt><trkpt lat="41.07" lon="14.33484"><ele>68.75</ele><time>2026-04-06T06:50:11.084Z</time></trkpt><trkpt lat="41.0699783" lon="14.3349983"><ele>69.0</ele><time>2026-04-06T06:50:13.086Z</time></trkpt><trkpt lat="41.0699467" lon="14.3351533"><ele>69.5</ele><time>2026-04-06T06:50:15.084Z</time></trkpt><trkpt lat="41.069915" lon="14.3353167"><ele>70.0</ele><time>2026-04-06T06:50:17.084Z</time></trkpt><trkpt lat="41.0698867" lon="14.33547"><ele>70.5</ele><time>2026-04-06T06:50:19.084Z</time></trkpt><trkpt lat="41.0698733" lon="14.3356167"><ele>71.0</ele><time>2026-04-06T06:50:21.084Z</time></trkpt><trkpt lat="41.069855" lon="14.335765"><ele>71.25</ele><time>2026-04-06T06:50:23.085Z</time></trkpt><trkpt lat="41.0698433" lon="14.3359133"><ele>71.5</ele><time>2026-04-06T06:50:25.083Z</time></trkpt><trkpt lat="41.06983" lon="14.33607"><ele>71.75</ele><time>2026-04-06T06:50:27.083Z</time></trkpt><trkpt lat="41.0698183" lon="14.3362217"><ele>72.0</ele><time>2026-04-06T06:50:29.084Z</time></trkpt><trkpt lat="41.06981" lon="14.3363767"><ele>72.0</ele><time>2026-04-06T06:50:31.085Z</time></trkpt><trkpt lat="41.069815" lon="14.3365367"><ele>72.0</ele><time>2026-04-06T06:50:33.084Z</time></trkpt><trkpt lat="41.0698283" lon="14.3366933"><ele>72.0</ele><time>2026-04-06T06:50:35.084Z</time></trkpt><trkpt lat="41.0698383" lon="14.33685"><ele>72.0</ele><time>2026-04-06T06:50:37.084Z</time></trkpt><trkpt lat="41.069845" lon="14.3370033"><ele>72.0</ele><time>2026-04-06T06:50:39.084Z</time></trkpt><trkpt lat="41.0698317" lon="14.3371567"><ele>72.0</ele><time>2026-04-06T06:50:41.084Z</time></trkpt><trkpt lat="41.06983" lon="14.337305"><ele>72.0</ele><time>2026-04-06T06:50:43.085Z</time></trkpt><trkpt lat="41.0698317" lon="14.33745"><ele>72.0</ele><time>2026-04-06T06:50:45.083Z</time></trkpt><trkpt lat="41.06982" lon="14.3375967"><ele>72.0</ele><time>2026-04-06T06:50:47.084Z</time></trkpt><trkpt lat="41.0697967" lon="14.3377483"><ele>72.0</ele><time>2026-04-06T06:50:49.083Z</time></trkpt><trkpt lat="41.0697767" lon="14.337895"><ele>72.0</ele><time>2026-04-06T06:50:51.084Z</time></trkpt><trkpt lat="41.0697717" lon="14.33805"><ele>72.0</ele><time>2026-04-06T06:50:53.084Z</time></trkpt><trkpt lat="41.06977" lon="14.3382067"><ele>72.0</ele><time>2026-04-06T06:50:55.083Z</time></trkpt><trkpt lat="41.0697717" lon="14.3383667"><ele>71.6</ele><time>2026-04-06T06:50:57.087Z</time></trkpt><trkpt lat="41.0697867" lon="14.3385233"><ele>71.2</ele><time>2026-04-06T06:50:59.085Z</time></trkpt><trkpt lat="41.0697767" lon="14.338665"><ele>70.8</ele><time>2026-04-06T06:51:01.084Z</time></trkpt><trkpt lat="41.069775" lon="14.3388017"><ele>70.4</ele><time>2026-04-06T06:51:03.084Z</time></trkpt><trkpt lat="41.0697733" lon="14.33894"><ele>70.0</ele><time>2026-04-06T06:51:05.084Z</time></trkpt><trkpt lat="41.069775" lon="14.33909"><ele>70.0</ele><time>2026-04-06T06:51:07.084Z</time></trkpt><trkpt lat="41.0697767" lon="14.3392467"><ele>70.0</ele><time>2026-04-06T06:51:09.085Z</time></trkpt><trkpt lat="41.069775" lon="14.3393917"><ele>70.0</ele><time>2026-04-06T06:51:11.085Z</time></trkpt><trkpt lat="41.0697783" lon="14.3395433"><ele>70.0</ele><time>2026-04-06T06:51:13.084Z</time></trkpt><trkpt lat="41.06977" lon="14.3396967"><ele>70.4</ele><time>2026-04-06T06:51:15.084Z</time></trkpt><trkpt lat="41.0697683" lon="14.33985"><ele>70.8</ele><time>2026-04-06T06:51:17.085Z</time></trkpt><trkpt lat="41.069755" lon="14.3399917"><ele>71.2</ele><time>2026-04-06T06:51:19.084Z</time></trkpt><trkpt lat="41.0697533" lon="14.340135"><ele>71.6</ele><time>2026-04-06T06:51:21.084Z</time></trkpt><trkpt lat="41.069755" lon="14.3402867"><ele>72.0</ele><time>2026-04-06T06:51:23.085Z</time></trkpt><trkpt lat="41.06975" lon="14.3404483"><ele>72.0</ele><time>2026-04-06T06:51:25.084Z</time></trkpt><trkpt lat="41.06975" lon="14.3405333"><ele>72.0</ele><time>2026-04-06T06:51:26.084Z</time></trkpt><trkpt lat="41.069735" lon="14.3406167"><ele>72.0</ele><time>2026-04-06T06:51:27.083Z</time></trkpt><trkpt lat="41.0697333" lon="14.3407017"><ele>72.0</ele><time>2026-04-06T06:51:28.084Z</time></trkpt><trkpt lat="41.0697167" lon="14.34086"><ele>72.0</ele><time>2026-04-06T06:51:30.084Z</time></trkpt><trkpt lat="41.0697" lon="14.3410033"><ele>72.0</ele><time>2026-04-06T06:51:32.084Z</time></trkpt><trkpt lat="41.0696883" lon="14.3411367"><ele>72.0</ele><time>2026-04-06T06:51:34.084Z</time></trkpt><trkpt lat="41.06969" lon="14.3412333"><ele>72.0</ele><time>2026-04-06T06:51:36.086Z</time></trkpt><trkpt lat="41.069725" lon="14.3413217"><ele>72.0</ele><time>2026-04-06T06:51:38.084Z</time></trkpt><trkpt lat="41.069785" lon="14.3413883"><ele>72.0</ele><time>2026-04-06T06:51:40.087Z</time></trkpt><trkpt lat="41.069855" lon="14.341405"><ele>72.0</ele><time>2026-04-06T06:51:42.084Z</time></trkpt><trkpt lat="41.0699317" lon="14.34141"><ele>72.0</ele><time>2026-04-06T06:51:44.084Z</time></trkpt><trkpt lat="41.0700133" lon="14.3413933"><ele>71.6</ele><time>2026-04-06T06:51:46.084Z</time></trkpt><trkpt lat="41.0700933" lon="14.3413733"><ele>71.2</ele><time>2026-04-06T06:51:48.084Z</time></trkpt><trkpt lat="41.0701817" lon="14.3413633"><ele>70.8</ele><time>2026-04-06T06:51:50.084Z</time></trkpt><trkpt lat="41.0702567" lon="14.341325"><ele>70.4</ele><time>2026-04-06T06:51:52.084Z</time></trkpt><trkpt lat="41.0703533" lon="14.34131"><ele>70.0</ele><time>2026-04-06T06:51:54.084Z</time></trkpt><trkpt lat="41.0704633" lon="14.3412983"><ele>70.0</ele><time>2026-04-06T06:51:56.085Z</time></trkpt><trkpt lat="41.0705767" lon="14.34129"><ele>70.0</ele><time>2026-04-06T06:51:58.084Z</time></trkpt><trkpt lat="41.07069" lon="14.3412933"><ele>70.0</ele><time>2026-04-06T06:52:00.084Z</time></trkpt><trkpt lat="41.0708083" lon="14.3413083"><ele>70.0</ele><time>2026-04-06T06:52:02.085Z</time></trkpt><trkpt lat="41.0709233" lon="14.3413283"><ele>70.0</ele><time>2026-04-06T06:52:04.084Z</time></trkpt><trkpt lat="41.0710333" lon="14.3413417"><ele>70.0</ele><time>2026-04-06T06:52:06.086Z</time></trkpt><trkpt lat="41.071145" lon="14.3413517"><ele>70.0</ele><time>2026-04-06T06:52:08.084Z</time></trkpt><trkpt lat="41.0712517" lon="14.341365"><ele>70.0</ele><time>2026-04-06T06:52:10.084Z</time></trkpt><trkpt lat="41.071355" lon="14.3413833"><ele>70.0</ele><time>2026-04-06T06:52:12.084Z</time></trkpt><trkpt lat="41.071455" lon="14.3413967"><ele>70.0</ele><time>2026-04-06T06:52:14.086Z</time></trkpt><trkpt lat="41.0715533" lon="14.3414133"><ele>70.0</ele><time>2026-04-06T06:52:16.084Z</time></trkpt><trkpt lat="41.0716483" lon="14.3414283"><ele>70.0</ele><time>2026-04-06T06:52:18.088Z</time></trkpt><trkpt lat="41.07175" lon="14.34144"><ele>70.0</ele><time>2026-04-06T06:52:20.084Z</time></trkpt><trkpt lat="41.0718533" lon="14.3414517"><ele>70.0</ele><time>2026-04-06T06:52:22.084Z</time></trkpt><trkpt lat="41.0719617" lon="14.3414567"><ele>70.2</ele><time>2026-04-06T06:52:24.087Z</time></trkpt><trkpt lat="41.0720667" lon="14.3414583"><ele>70.4</ele><time>2026-04-06T06:52:26.083Z</time></trkpt><trkpt lat="41.072175" lon="14.3414667"><ele>70.6</ele><time>2026-04-06T06:52:28.084Z</time></trkpt><trkpt lat="41.072285" lon="14.3414733"><ele>70.8</ele><time>2026-04-06T06:52:30.084Z</time></trkpt><trkpt lat="41.072395" lon="14.34148"><ele>71.0</ele><time>2026-04-06T06:52:32.084Z</time></trkpt><trkpt lat="41.0725067" lon="14.34149"><ele>71.2</ele><time>2026-04-06T06:52:34.083Z</time></trkpt><trkpt lat="41.0726233" lon="14.3415017"><ele>71.39999999999999</ele><time>2026-04-06T06:52:36.085Z</time></trkpt><trkpt lat="41.0727367" lon="14.3415117"><ele>71.6</ele><time>2026-04-06T06:52:38.084Z</time></trkpt><trkpt lat="41.072845" lon="14.3415183"><ele>71.8</ele><time>2026-04-06T06:52:40.084Z</time></trkpt><trkpt lat="41.0729517" lon="14.341535"><ele>72.0</ele><time>2026-04-06T06:52:42.084Z</time></trkpt><trkpt lat="41.0730483" lon="14.3415817"><ele>72.0</ele><time>2026-04-06T06:52:44.084Z</time></trkpt><trkpt lat="41.0731383" lon="14.3416283"><ele>72.0</ele><time>2026-04-06T06:52:46.083Z</time></trkpt><trkpt lat="41.073215" lon="14.34171"><ele>72.0</ele><time>2026-04-06T06:52:48.084Z</time></trkpt><trkpt lat="41.0732717" lon="14.34181"><ele>72.0</ele><time>2026-04-06T06:52:50.086Z</time></trkpt><trkpt lat="41.073315" lon="14.341955"><ele>72.0</ele><time>2026-04-06T06:52:52.084Z</time></trkpt><trkpt lat="41.07334" lon="14.3421133"><ele>72.0</ele><time>2026-04-06T06:52:54.084Z</time></trkpt><trkpt lat="41.07335" lon="14.3422667"><ele>72.0</ele><time>2026-04-06T06:52:56.084Z</time></trkpt><trkpt lat="41.0733583" lon="14.3424133"><ele>72.0</ele><time>2026-04-06T06:52:58.084Z</time></trkpt><trkpt lat="41.0733633" lon="14.3425567"><ele>72.0</ele><time>2026-04-06T06:53:00.085Z</time></trkpt><trkpt lat="41.0733617" lon="14.3426983"><ele>72.0</ele><time>2026-04-06T06:53:02.085Z</time></trkpt><trkpt lat="41.0733617" lon="14.3428533"><ele>72.0</ele><time>2026-04-06T06:53:04.085Z</time></trkpt><trkpt lat="41.0733567" lon="14.3430033"><ele>72.0</ele><time>2026-04-06T06:53:06.084Z</time></trkpt><trkpt lat="41.07336" lon="14.3431467"><ele>72.0</ele><time>2026-04-06T06:53:08.084Z</time></trkpt><trkpt lat="41.07337" lon="14.3432333"><ele>72.0</ele><time>2026-04-06T06:53:09.084Z</time></trkpt><trkpt lat="41.0733783" lon="14.3433233"><ele>72.0</ele><time>2026-04-06T06:53:10.084Z</time></trkpt><trkpt lat="41.073385" lon="14.3434867"><ele>72.2</ele><time>2026-04-06T06:53:12.085Z</time></trkpt><trkpt lat="41.0733833" lon="14.3435733"><ele>72.4</ele><time>2026-04-06T06:53:13.084Z</time></trkpt><trkpt lat="41.0733867" lon="14.3436583"><ele>72.6</ele><time>2026-04-06T06:53:14.084Z</time></trkpt><trkpt lat="41.073385" lon="14.3438133"><ele>72.8</ele><time>2026-04-06T06:53:16.089Z</time></trkpt><trkpt lat="41.073385" lon="14.343965"><ele>73.0</ele><time>2026-04-06T06:53:18.086Z</time></trkpt><trkpt lat="41.0733933" lon="14.34411"><ele>73.0</ele><time>2026-04-06T06:53:20.084Z</time></trkpt><trkpt lat="41.0733883" lon="14.3442683"><ele>73.0</ele><time>2026-04-06T06:53:22.084Z</time></trkpt><trkpt lat="41.0733867" lon="14.344355"><ele>73.0</ele><time>2026-04-06T06:53:23.085Z</time></trkpt><trkpt lat="41.073395" lon="14.34451"><ele>73.0</ele><time>2026-04-06T06:53:25.086Z</time></trkpt><trkpt lat="41.0733967" lon="14.34466"><ele>73.0</ele><time>2026-04-06T06:53:27.086Z</time></trkpt><trkpt lat="41.0733933" lon="14.344785"><ele>73.0</ele><time>2026-04-06T06:53:29.084Z</time></trkpt><trkpt lat="41.0734033" lon="14.344925"><ele>73.0</ele><time>2026-04-06T06:53:31.084Z</time></trkpt><trkpt lat="41.07341" lon="14.345075"><ele>73.0</ele><time>2026-04-06T06:53:33.085Z</time></trkpt><trkpt lat="41.0734067" lon="14.34522"><ele>73.0</ele><time>2026-04-06T06:53:35.085Z</time></trkpt><trkpt lat="41.073405" lon="14.3453567"><ele>73.0</ele><time>2026-04-06T06:53:37.086Z</time></trkpt><trkpt lat="41.0734083" lon="14.345495"><ele>73.25</ele><time>2026-04-06T06:53:39.083Z</time></trkpt><trkpt lat="41.07342" lon="14.3456467"><ele>73.5</ele><time>2026-04-06T06:53:41.084Z</time></trkpt><trkpt lat="41.07343" lon="14.3457933"><ele>73.75</ele><time>2026-04-06T06:53:43.087Z</time></trkpt><trkpt lat="41.07343" lon="14.3459517"><ele>74.0</ele><time>2026-04-06T06:53:45.085Z</time></trkpt><trkpt lat="41.0734283" lon="14.3461"><ele>74.0</ele><time>2026-04-06T06:53:47.084Z</time></trkpt><trkpt lat="41.0734317" lon="14.34625"><ele>74.0</ele><time>2026-04-06T06:53:49.084Z</time></trkpt><trkpt lat="41.0734383" lon="14.346395"><ele>74.0</ele><time>2026-04-06T06:53:51.084Z</time></trkpt><trkpt lat="41.07345" lon="14.3465433"><ele>74.0</ele><time>2026-04-06T06:53:53.083Z</time></trkpt><trkpt lat="41.0734367" lon="14.3467067"><ele>74.0</ele><time>2026-04-06T06:53:55.084Z</time></trkpt><trkpt lat="41.0734317" lon="14.3468633"><ele>74.0</ele><time>2026-04-06T06:53:57.085Z</time></trkpt><trkpt lat="41.0734267" lon="14.347005"><ele>74.0</ele><time>2026-04-06T06:53:59.085Z</time></trkpt><trkpt lat="41.0734017" lon="14.34709"><ele>74.0</ele><time>2026-04-06T06:54:00.086Z</time></trkpt><trkpt lat="41.073375" lon="14.347255"><ele>74.0</ele><time>2026-04-06T06:54:02.085Z</time></trkpt><trkpt lat="41.0733767" lon="14.3474017"><ele>74.0</ele><time>2026-04-06T06:54:04.085Z</time></trkpt><trkpt lat="41.0733833" lon="14.34756"><ele>74.0</ele><time>2026-04-06T06:54:06.085Z</time></trkpt><trkpt lat="41.0733867" lon="14.3476467"><ele>74.0</ele><time>2026-04-06T06:54:07.085Z</time></trkpt><trkpt lat="41.0733917" lon="14.34773"><ele>74.0</ele><time>2026-04-06T06:54:08.085Z</time></trkpt><trkpt lat="41.0733867" lon="14.34782"><ele>74.0</ele><time>2026-04-06T06:54:09.085Z</time></trkpt><trkpt lat="41.0733983" lon="14.3479817"><ele>74.0</ele><time>2026-04-06T06:54:11.086Z</time></trkpt><trkpt lat="41.0734133" lon="14.3480633"><ele>74.0</ele><time>2026-04-06T06:54:12.085Z</time></trkpt><trkpt lat="41.0734333" lon="14.3482183"><ele>74.0</ele><time>2026-04-06T06:54:14.086Z</time></trkpt><trkpt lat="41.07345" lon="14.3483733"><ele>74.0</ele><time>2026-04-06T06:54:16.085Z</time></trkpt><trkpt lat="41.073445" lon="14.3484617"><ele>74.0</ele><time>2026-04-06T06:54:17.084Z</time></trkpt><trkpt lat="41.073455" lon="14.3486267"><ele>74.0</ele><time>2026-04-06T06:54:19.085Z</time></trkpt><trkpt lat="41.0734633" lon="14.3487167"><ele>74.0</ele><time>2026-04-06T06:54:20.086Z</time></trkpt><trkpt lat="41.0734667" lon="14.3488083"><ele>74.0</ele><time>2026-04-06T06:54:21.086Z</time></trkpt><trkpt lat="41.07347" lon="14.3489617"><ele>74.0</ele><time>2026-04-06T06:54:23.085Z</time></trkpt><trkpt lat="41.0734817" lon="14.3491267"><ele>74.0</ele><time>2026-04-06T06:54:25.086Z</time></trkpt><trkpt lat="41.0734983" lon="14.349295"><ele>74.0</ele><time>2026-04-06T06:54:27.085Z</time></trkpt><trkpt lat="41.073505" lon="14.34938"><ele>74.42857142857143</ele><time>2026-04-06T06:54:28.085Z</time></trkpt><trkpt lat="41.0734983" lon="14.3495367"><ele>74.85714285714286</ele><time>2026-04-06T06:54:30.086Z</time></trkpt><trkpt lat="41.0735017" lon="14.3496217"><ele>75.28571428571428</ele><time>2026-04-06T06:54:31.085Z</time></trkpt><trkpt lat="41.073505" lon="14.3497067"><ele>75.71428571428572</ele><time>2026-04-06T06:54:32.086Z</time></trkpt><trkpt lat="41.0735" lon="14.3497933"><ele>76.14285714285714</ele><time>2026-04-06T06:54:33.085Z</time></trkpt><trkpt lat="41.073475" lon="14.349875"><ele>76.57142857142857</ele><time>2026-04-06T06:54:34.084Z</time></trkpt><trkpt lat="41.0734633" lon="14.34996"><ele>77.0</ele><time>2026-04-06T06:54:35.086Z</time></trkpt><trkpt lat="41.07346" lon="14.3500467"><ele>77.5</ele><time>2026-04-06T06:54:36.086Z</time></trkpt><trkpt lat="41.0734567" lon="14.3502083"><ele>78.0</ele><time>2026-04-06T06:54:38.086Z</time></trkpt><trkpt lat="41.07345" lon="14.3503617"><ele>78.5</ele><time>2026-04-06T06:54:40.085Z</time></trkpt><trkpt lat="41.0734483" lon="14.3505183"><ele>79.0</ele><time>2026-04-06T06:54:42.085Z</time></trkpt><trkpt lat="41.0734467" lon="14.3506783"><ele>79.0</ele><time>2026-04-06T06:54:44.085Z</time></trkpt><trkpt lat="41.0734417" lon="14.3508283"><ele>79.0</ele><time>2026-04-06T06:54:46.084Z</time></trkpt><trkpt lat="41.0734417" lon="14.35099"><ele>79.0</ele><time>2026-04-06T06:54:48.086Z</time></trkpt><trkpt lat="41.073445" lon="14.3511533"><ele>79.0</ele><time>2026-04-06T06:54:50.087Z</time></trkpt><trkpt lat="41.073445" lon="14.351315"><ele>79.16666666666666</ele><time>2026-04-06T06:54:52.085Z</time></trkpt><trkpt lat="41.0734333" lon="14.35148"><ele>79.33333333333333</ele><time>2026-04-06T06:54:54.085Z</time></trkpt><trkpt lat="41.0734333" lon="14.3515667"><ele>79.5</ele><time>2026-04-06T06:54:55.085Z</time></trkpt><trkpt lat="41.0734333" lon="14.3516517"><ele>79.66666666666667</ele><time>2026-04-06T06:54:56.087Z</time></trkpt><trkpt lat="41.0734283" lon="14.351735"><ele>79.83333333333334</ele><time>2026-04-06T06:54:57.086Z</time></trkpt><trkpt lat="41.0734217" lon="14.3519"><ele>80.0</ele><time>2026-04-06T06:54:59.085Z</time></trkpt><trkpt lat="41.0734183" lon="14.35206"><ele>79.75</ele><time>2026-04-06T06:55:01.086Z</time></trkpt><trkpt lat="41.07342" lon="14.3522183"><ele>79.5</ele><time>2026-04-06T06:55:03.086Z</time></trkpt><trkpt lat="41.0734233" lon="14.3523717"><ele>79.25</ele><time>2026-04-06T06:55:05.085Z</time></trkpt><trkpt lat="41.073425" lon="14.3525167"><ele>79.0</ele><time>2026-04-06T06:55:07.085Z</time></trkpt><trkpt lat="41.0734367" lon="14.3526567"><ele>79.0</ele><time>2026-04-06T06:55:09.086Z</time></trkpt><trkpt lat="41.07348" lon="14.3527867"><ele>79.0</ele><time>2026-04-06T06:55:11.086Z</time></trkpt><trkpt lat="41.0735483" lon="14.352885"><ele>79.0</ele><time>2026-04-06T06:55:13.085Z</time></trkpt><trkpt lat="41.0736283" lon="14.3529733"><ele>79.0</ele><time>2026-04-06T06:55:15.085Z</time></trkpt><trkpt lat="41.0737" lon="14.353065"><ele>79.0</ele><time>2026-04-06T06:55:17.086Z</time></trkpt><trkpt lat="41.0737767" lon="14.3531667"><ele>79.0</ele><time>2026-04-06T06:55:19.085Z</time></trkpt><trkpt lat="41.0738567" lon="14.3532717"><ele>79.0</ele><time>2026-04-06T06:55:21.085Z</time></trkpt><trkpt lat="41.07393" lon="14.35337"><ele>79.0</ele><time>2026-04-06T06:55:23.086Z</time></trkpt><trkpt lat="41.0740167" lon="14.3534683"><ele>79.0</ele><time>2026-04-06T06:55:25.085Z</time></trkpt><trkpt lat="41.0741017" lon="14.3535667"><ele>79.0</ele><time>2026-04-06T06:55:27.086Z</time></trkpt><trkpt lat="41.0741717" lon="14.353655"><ele>79.4</ele><time>2026-04-06T06:55:29.085Z</time></trkpt><trkpt lat="41.0742483" lon="14.3537567"><ele>79.80000000000001</ele><time>2026-04-06T06:55:31.085Z</time></trkpt><trkpt lat="41.0743117" lon="14.3538333"><ele>80.19999999999999</ele><time>2026-04-06T06:55:33.086Z</time></trkpt><trkpt lat="41.07438" lon="14.35393"><ele>80.6</ele><time>2026-04-06T06:55:35.086Z</time></trkpt><trkpt lat="41.07445" lon="14.354035"><ele>81.0</ele><time>2026-04-06T06:55:37.085Z</time></trkpt><trkpt lat="41.0745317" lon="14.35414"><ele>81.6</ele><time>2026-04-06T06:55:39.085Z</time></trkpt><trkpt lat="41.07461" lon="14.3542333"><ele>82.19999999999999</ele><time>2026-04-06T06:55:41.084Z</time></trkpt><trkpt lat="41.074695" lon="14.3543333"><ele>82.80000000000001</ele><time>2026-04-06T06:55:43.084Z</time></trkpt><trkpt lat="41.07477" lon="14.3544117"><ele>83.4</ele><time>2026-04-06T06:55:45.084Z</time></trkpt><trkpt lat="41.074845" lon="14.354495"><ele>84.0</ele><time>2026-04-06T06:55:47.084Z</time></trkpt><trkpt lat="41.0749133" lon="14.3545717"><ele>84.0</ele><time>2026-04-06T06:55:49.086Z</time></trkpt><trkpt lat="41.0749967" lon="14.3546533"><ele>84.0</ele><time>2026-04-06T06:55:51.084Z</time></trkpt><trkpt lat="41.0750733" lon="14.354735"><ele>84.0</ele><time>2026-04-06T06:55:53.084Z</time></trkpt><trkpt lat="41.075145" lon="14.35482"><ele>84.0</ele><time>2026-04-06T06:55:55.084Z</time></trkpt><trkpt lat="41.07521" lon="14.3549133"><ele>84.0</ele><time>2026-04-06T06:55:57.087Z</time></trkpt><trkpt lat="41.07528" lon="14.35499"><ele>84.0</ele><time>2026-04-06T06:55:59.084Z</time></trkpt><trkpt lat="41.0753617" lon="14.3550833"><ele>84.0</ele><time>2026-04-06T06:56:01.084Z</time></trkpt><trkpt lat="41.07543" lon="14.3551783"><ele>84.0</ele><time>2026-04-06T06:56:03.085Z</time></trkpt><trkpt lat="41.0754917" lon="14.3552717"><ele>84.0</ele><time>2026-04-06T06:56:05.085Z</time></trkpt><trkpt lat="41.07556" lon="14.3553517"><ele>84.0</ele><time>2026-04-06T06:56:07.084Z</time></trkpt><trkpt lat="41.0756333" lon="14.3554367"><ele>84.0</ele><time>2026-04-06T06:56:09.085Z</time></trkpt><trkpt lat="41.0757017" lon="14.3555267"><ele>84.0</ele><time>2026-04-06T06:56:11.084Z</time></trkpt><trkpt lat="41.075775" lon="14.3556283"><ele>84.0</ele><time>2026-04-06T06:56:13.084Z</time></trkpt><trkpt lat="41.0758583" lon="14.3557333"><ele>84.0</ele><time>2026-04-06T06:56:15.084Z</time></trkpt><trkpt lat="41.0759267" lon="14.3558167"><ele>84.0</ele><time>2026-04-06T06:56:17.088Z</time></trkpt><trkpt lat="41.0759967" lon="14.3559033"><ele>84.0</ele><time>2026-04-06T06:56:19.085Z</time></trkpt><trkpt lat="41.0760633" lon="14.3559933"><ele>84.0</ele><time>2026-04-06T06:56:21.085Z</time></trkpt><trkpt lat="41.076135" lon="14.3560867"><ele>84.0</ele><time>2026-04-06T06:56:23.084Z</time></trkpt><trkpt lat="41.07621" lon="14.3561783"><ele>84.0</ele><time>2026-04-06T06:56:25.084Z</time></trkpt><trkpt lat="41.076295" lon="14.3562633"><ele>84.0</ele><time>2026-04-06T06:56:27.085Z</time></trkpt><trkpt lat="41.0763717" lon="14.3563417"><ele>84.4</ele><time>2026-04-06T06:56:29.084Z</time></trkpt><trkpt lat="41.0764483" lon="14.35642"><ele>84.80000000000001</ele><time>2026-04-06T06:56:31.084Z</time></trkpt><trkpt lat="41.0765317" lon="14.3564917"><ele>85.19999999999999</ele><time>2026-04-06T06:56:33.085Z</time></trkpt><trkpt lat="41.0766183" lon="14.3565533"><ele>85.6</ele><time>2026-04-06T06:56:35.086Z</time></trkpt><trkpt lat="41.0766967" lon="14.3566167"><ele>86.0</ele><time>2026-04-06T06:56:37.084Z</time></trkpt><trkpt lat="41.076775" lon="14.3566867"><ele>86.0</ele><time>2026-04-06T06:56:39.084Z</time></trkpt><trkpt lat="41.0768583" lon="14.3567667"><ele>86.0</ele><time>2026-04-06T06:56:41.085Z</time></trkpt><trkpt lat="41.0769483" lon="14.3568433"><ele>86.0</ele><time>2026-04-06T06:56:43.084Z</time></trkpt><trkpt lat="41.077025" lon="14.35691"><ele>86.0</ele><time>2026-04-06T06:56:45.084Z</time></trkpt><trkpt lat="41.0770983" lon="14.3569867"><ele>86.0</ele><time>2026-04-06T06:56:47.084Z</time></trkpt><trkpt lat="41.0771883" lon="14.35708"><ele>86.0</ele><time>2026-04-06T06:56:49.084Z</time></trkpt><trkpt lat="41.0772817" lon="14.357145"><ele>86.0</ele><time>2026-04-06T06:56:51.084Z</time></trkpt><trkpt lat="41.077385" lon="14.3572033"><ele>86.0</ele><time>2026-04-06T06:56:53.084Z</time></trkpt><trkpt lat="41.077485" lon="14.3572467"><ele>86.0</ele><time>2026-04-06T06:56:55.084Z</time></trkpt><trkpt lat="41.07758" lon="14.3572833"><ele>86.0</ele><time>2026-04-06T06:56:57.084Z</time></trkpt><trkpt lat="41.0776783" lon="14.357325"><ele>86.6</ele><time>2026-04-06T06:56:59.084Z</time></trkpt><trkpt lat="41.077785" lon="14.3573633"><ele>87.19999999999999</ele><time>2026-04-06T06:57:01.084Z</time></trkpt><trkpt lat="41.077875" lon="14.3574017"><ele>87.80000000000001</ele><time>2026-04-06T06:57:03.084Z</time></trkpt><trkpt lat="41.0779683" lon="14.3574567"><ele>88.4</ele><time>2026-04-06T06:57:05.085Z</time></trkpt><trkpt lat="41.0780633" lon="14.35752"><ele>89.0</ele><time>2026-04-06T06:57:07.084Z</time></trkpt><trkpt lat="41.0781517" lon="14.3575783"><ele>89.0</ele><time>2026-04-06T06:57:09.086Z</time></trkpt><trkpt lat="41.0782517" lon="14.35765"><ele>89.0</ele><time>2026-04-06T06:57:11.085Z</time></trkpt><trkpt lat="41.0783483" lon="14.3577033"><ele>89.0</ele><time>2026-04-06T06:57:13.084Z</time></trkpt><trkpt lat="41.07845" lon="14.35775"><ele>89.0</ele><time>2026-04-06T06:57:15.085Z</time></trkpt><trkpt lat="41.0785533" lon="14.3577967"><ele>89.0</ele><time>2026-04-06T06:57:17.087Z</time></trkpt><trkpt lat="41.0786517" lon="14.35783"><ele>89.0</ele><time>2026-04-06T06:57:19.084Z</time></trkpt><trkpt lat="41.07874" lon="14.3578683"><ele>89.0</ele><time>2026-04-06T06:57:21.088Z</time></trkpt><trkpt lat="41.078825" lon="14.3579033"><ele>89.0</ele><time>2026-04-06T06:57:23.084Z</time></trkpt><trkpt lat="41.0789183" lon="14.35794"><ele>89.0</ele><time>2026-04-06T06:57:25.084Z</time></trkpt><trkpt lat="41.0790083" lon="14.3579733"><ele>89.0</ele><time>2026-04-06T06:57:27.085Z</time></trkpt><trkpt lat="41.0790833" lon="14.3580283"><ele>89.6</ele><time>2026-04-06T06:57:29.084Z</time></trkpt><trkpt lat="41.0791633" lon="14.3580733"><ele>90.2</ele><time>2026-04-06T06:57:31.084Z</time></trkpt><trkpt lat="41.0792467" lon="14.3581267"><ele>90.8</ele><time>2026-04-06T06:57:33.084Z</time></trkpt><trkpt lat="41.0793267" lon="14.3581883"><ele>91.39999999999999</ele><time>2026-04-06T06:57:35.084Z</time></trkpt><trkpt lat="41.0794033" lon="14.3582517"><ele>92.0</ele><time>2026-04-06T06:57:37.084Z</time></trkpt><trkpt lat="41.07948" lon="14.3583083"><ele>92.0</ele><time>2026-04-06T06:57:39.084Z</time></trkpt><trkpt lat="41.07955" lon="14.3583567"><ele>92.0</ele><time>2026-04-06T06:57:41.084Z</time></trkpt><trkpt lat="41.079615" lon="14.3584"><ele>92.0</ele><time>2026-04-06T06:57:43.084Z</time></trkpt><trkpt lat="41.0796817" lon="14.358475"><ele>92.0</ele><time>2026-04-06T06:57:46.085Z</time></trkpt><trkpt lat="41.07974" lon="14.3585733"><ele>92.0</ele><time>2026-04-06T06:57:49.085Z</time></trkpt><trkpt lat="41.0798" lon="14.3586483"><ele>92.0</ele><time>2026-04-06T06:57:51.084Z</time></trkpt><trkpt lat="41.0798867" lon="14.3587233"><ele>92.39999999999999</ele><time>2026-04-06T06:57:53.084Z</time></trkpt><trkpt lat="41.0799817" lon="14.3588133"><ele>92.8</ele><time>2026-04-06T06:57:55.085Z</time></trkpt><trkpt lat="41.0800617" lon="14.358915"><ele>93.2</ele><time>2026-04-06T06:57:57.084Z</time></trkpt><trkpt lat="41.080125" lon="14.3590083"><ele>93.6</ele><time>2026-04-06T06:57:59.084Z</time></trkpt><trkpt lat="41.0801583" lon="14.3591167"><ele>94.0</ele><time>2026-04-06T06:58:01.085Z</time></trkpt><trkpt lat="41.0801683" lon="14.3592267"><ele>94.0</ele><time>2026-04-06T06:58:03.085Z</time></trkpt><trkpt lat="41.08018" lon="14.359335"><ele>94.0</ele><time>2026-04-06T06:58:05.084Z</time></trkpt><trkpt lat="41.080185" lon="14.3594383"><ele>94.0</ele><time>2026-04-06T06:58:07.088Z</time></trkpt><trkpt lat="41.0801667" lon="14.3595433"><ele>94.0</ele><time>2026-04-06T06:58:09.084Z</time></trkpt><trkpt lat="41.0801433" lon="14.3596533"><ele>94.0</ele><time>2026-04-06T06:58:11.084Z</time></trkpt><trkpt lat="41.0801233" lon="14.3597567"><ele>94.0</ele><time>2026-04-06T06:58:13.085Z</time></trkpt><trkpt lat="41.0801017" lon="14.3598633"><ele>94.33333333333333</ele><time>2026-04-06T06:58:15.084Z</time></trkpt><trkpt lat="41.080085" lon="14.35997"><ele>94.66666666666666</ele><time>2026-04-06T06:58:17.084Z</time></trkpt><trkpt lat="41.0800733" lon="14.3600817"><ele>95.0</ele><time>2026-04-06T06:58:19.084Z</time></trkpt><trkpt lat="41.08006" lon="14.3602017"><ele>95.33333333333333</ele><time>2026-04-06T06:58:21.084Z</time></trkpt><trkpt lat="41.080045" lon="14.3603217"><ele>95.66666666666667</ele><time>2026-04-06T06:58:23.084Z</time></trkpt><trkpt lat="41.0800217" lon="14.3604333"><ele>96.0</ele><time>2026-04-06T06:58:25.084Z</time></trkpt><trkpt lat="41.080005" lon="14.3605533"><ele>96.0</ele><time>2026-04-06T06:58:27.084Z</time></trkpt><trkpt lat="41.07998" lon="14.3606783"><ele>96.0</ele><time>2026-04-06T06:58:29.084Z</time></trkpt><trkpt lat="41.07996" lon="14.3608033"><ele>96.0</ele><time>2026-04-06T06:58:31.084Z</time></trkpt><trkpt lat="41.0799383" lon="14.3609317"><ele>96.0</ele><time>2026-04-06T06:58:33.084Z</time></trkpt><trkpt lat="41.0799167" lon="14.3610683"><ele>96.0</ele><time>2026-04-06T06:58:35.085Z</time></trkpt><trkpt lat="41.0798967" lon="14.3611983"><ele>96.0</ele><time>2026-04-06T06:58:37.084Z</time></trkpt><trkpt lat="41.0798733" lon="14.361325"><ele>96.0</ele><time>2026-04-06T06:58:39.084Z</time></trkpt><trkpt lat="41.079855" lon="14.3614467"><ele>96.0</ele><time>2026-04-06T06:58:41.084Z</time></trkpt><trkpt lat="41.0798383" lon="14.3615733"><ele>96.0</ele><time>2026-04-06T06:58:43.084Z</time></trkpt><trkpt lat="41.0798183" lon="14.361695"><ele>96.0</ele><time>2026-04-06T06:58:45.084Z</time></trkpt><trkpt lat="41.0797983" lon="14.3618217"><ele>96.19999999999999</ele><time>2026-04-06T06:58:47.085Z</time></trkpt><trkpt lat="41.07978" lon="14.3619433"><ele>96.39999999999999</ele><time>2026-04-06T06:58:49.085Z</time></trkpt><trkpt lat="41.0797617" lon="14.36207"><ele>96.6</ele><time>2026-04-06T06:58:51.084Z</time></trkpt><trkpt lat="41.0797533" lon="14.3621883"><ele>96.8</ele><time>2026-04-06T06:58:53.085Z</time></trkpt><trkpt lat="41.0797433" lon="14.36232"><ele>97.0</ele><time>2026-04-06T06:58:55.085Z</time></trkpt><trkpt lat="41.0797317" lon="14.3624467"><ele>97.83333333333334</ele><time>2026-04-06T06:58:57.085Z</time></trkpt><trkpt lat="41.0797083" lon="14.3625533"><ele>98.66666666666667</ele><time>2026-04-06T06:58:59.085Z</time></trkpt><trkpt lat="41.0796967" lon="14.3626683"><ele>99.5</ele><time>2026-04-06T06:59:01.085Z</time></trkpt><trkpt lat="41.0796733" lon="14.3627783"><ele>100.33333333333334</ele><time>2026-04-06T06:59:03.084Z</time></trkpt><trkpt lat="41.079655" lon="14.3628983"><ele>101.16666666666667</ele><time>2026-04-06T06:59:05.084Z</time></trkpt><trkpt lat="41.0796367" lon="14.36301"><ele>102.0</ele><time>2026-04-06T06:59:07.084Z</time></trkpt><trkpt lat="41.0796167" lon="14.363115"><ele>102.71428571428572</ele><time>2026-04-06T06:59:09.084Z</time></trkpt><trkpt lat="41.0795983" lon="14.3632133"><ele>103.42857142857143</ele><time>2026-04-06T06:59:11.084Z</time></trkpt><trkpt lat="41.0795867" lon="14.363305"><ele>104.14285714285714</ele><time>2026-04-06T06:59:13.087Z</time></trkpt><trkpt lat="41.0795767" lon="14.3633883"><ele>104.85714285714286</ele><time>2026-04-06T06:59:15.084Z</time></trkpt><trkpt lat="41.0795683" lon="14.36348"><ele>105.57142857142857</ele><time>2026-04-06T06:59:17.085Z</time></trkpt><trkpt lat="41.079555" lon="14.36357"><ele>106.28571428571429</ele><time>2026-04-06T06:59:19.086Z</time></trkpt><trkpt lat="41.079545" lon="14.363665"><ele>107.0</ele><time>2026-04-06T06:59:21.085Z</time></trkpt><trkpt lat="41.0795367" lon="14.3637567"><ele>106.99999999999999</ele><time>2026-04-06T06:59:23.086Z</time></trkpt><trkpt lat="41.07953" lon="14.363855"><ele>107.0</ele><time>2026-04-06T06:59:25.084Z</time></trkpt><trkpt lat="41.0795183" lon="14.363945"><ele>107.0</ele><time>2026-04-06T06:59:27.084Z</time></trkpt><trkpt lat="41.0795117" lon="14.3640383"><ele>107.0</ele><time>2026-04-06T06:59:29.084Z</time></trkpt><trkpt lat="41.0795083" lon="14.364125"><ele>106.99999999999999</ele><time>2026-04-06T06:59:31.086Z</time></trkpt><trkpt lat="41.0795033" lon="14.364235"><ele>107.0</ele><time>2026-04-06T06:59:34.084Z</time></trkpt><trkpt lat="41.0795033" lon="14.364365"><ele>107.42857142857143</ele><time>2026-04-06T06:59:37.084Z</time></trkpt><trkpt lat="41.079505" lon="14.3644583"><ele>107.85714285714286</ele><time>2026-04-06T06:59:39.085Z</time></trkpt><trkpt lat="41.0795067" lon="14.36455"><ele>108.28571428571428</ele><time>2026-04-06T06:59:41.084Z</time></trkpt><trkpt lat="41.079505" lon="14.3646367"><ele>108.71428571428572</ele><time>2026-04-06T06:59:43.084Z</time></trkpt><trkpt lat="41.07951" lon="14.3647583"><ele>109.14285714285714</ele><time>2026-04-06T06:59:46.084Z</time></trkpt><trkpt lat="41.0795183" lon="14.3648467"><ele>109.57142857142857</ele><time>2026-04-06T06:59:48.084Z</time></trkpt><trkpt lat="41.0795167" lon="14.3649483"><ele>110.0</ele><time>2026-04-06T06:59:50.086Z</time></trkpt><trkpt lat="41.07952" lon="14.3650433"><ele>110.57142857142856</ele><time>2026-04-06T06:59:52.084Z</time></trkpt><trkpt lat="41.079525" lon="14.36513"><ele>111.14285714285714</ele><time>2026-04-06T06:59:54.084Z</time></trkpt><trkpt lat="41.07954" lon="14.3652167"><ele>111.71428571428571</ele><time>2026-04-06T06:59:56.086Z</time></trkpt><trkpt lat="41.07955" lon="14.3653083"><ele>112.28571428571428</ele><time>2026-04-06T06:59:58.085Z</time></trkpt><trkpt lat="41.0795567" lon="14.36541"><ele>112.85714285714285</ele><time>2026-04-06T07:00:00.084Z</time></trkpt><trkpt lat="41.07956" lon="14.36551"><ele>113.42857142857142</ele><time>2026-04-06T07:00:02.085Z</time></trkpt><trkpt lat="41.079555" lon="14.3656167"><ele>114.0</ele><time>2026-04-06T07:00:04.084Z</time></trkpt><trkpt lat="41.0795467" lon="14.3657283"><ele>114.28571428571428</ele><time>2026-04-06T07:00:06.084Z</time></trkpt><trkpt lat="41.0795333" lon="14.365835"><ele>114.57142857142856</ele><time>2026-04-06T07:00:08.084Z</time></trkpt><trkpt lat="41.0795217" lon="14.365935"><ele>114.85714285714286</ele><time>2026-04-06T07:00:10.084Z</time></trkpt><trkpt lat="41.0795083" lon="14.3660333"><ele>115.14285714285714</ele><time>2026-04-06T07:00:12.086Z</time></trkpt><trkpt lat="41.079495" lon="14.3661217"><ele>115.42857142857143</ele><time>2026-04-06T07:00:14.085Z</time></trkpt><trkpt lat="41.0794767" lon="14.3662117"><ele>115.71428571428572</ele><time>2026-04-06T07:00:16.084Z</time></trkpt><trkpt lat="41.07945" lon="14.3662983"><ele>116.00000000000001</ele><time>2026-04-06T07:00:18.084Z</time></trkpt><trkpt lat="41.0794217" lon="14.366385"><ele>116.33333333333333</ele><time>2026-04-06T07:00:20.084Z</time></trkpt><trkpt lat="41.0794017" lon="14.366485"><ele>116.66666666666666</ele><time>2026-04-06T07:00:22.085Z</time></trkpt><trkpt lat="41.0793767" lon="14.3665833"><ele>117.0</ele><time>2026-04-06T07:00:24.084Z</time></trkpt><trkpt lat="41.0793617" lon="14.36668"><ele>117.33333333333334</ele><time>2026-04-06T07:00:26.085Z</time></trkpt><trkpt lat="41.0793317" lon="14.366785"><ele>117.66666666666667</ele><time>2026-04-06T07:00:28.084Z</time></trkpt><trkpt lat="41.079295" lon="14.3668917"><ele>118.0</ele><time>2026-04-06T07:00:30.084Z</time></trkpt><trkpt lat="41.07926" lon="14.3669967"><ele>118.00000000000001</ele><time>2026-04-06T07:00:32.085Z</time></trkpt><trkpt lat="41.0792267" lon="14.3670883"><ele>118.0</ele><time>2026-04-06T07:00:34.084Z</time></trkpt><trkpt lat="41.079205" lon="14.36718"><ele>118.0</ele><time>2026-04-06T07:00:36.084Z</time></trkpt><trkpt lat="41.0791767" lon="14.3672733"><ele>118.0</ele><time>2026-04-06T07:00:38.084Z</time></trkpt><trkpt lat="41.079145" lon="14.3673667"><ele>118.00000000000001</ele><time>2026-04-06T07:00:40.084Z</time></trkpt><trkpt lat="41.0791167" lon="14.3674633"><ele>118.0</ele><time>2026-04-06T07:00:42.085Z</time></trkpt><trkpt lat="41.07909" lon="14.367565"><ele>120.33333333333334</ele><time>2026-04-06T07:00:44.085Z</time></trkpt><trkpt lat="41.0790617" lon="14.367665"><ele>122.66666666666667</ele><time>2026-04-06T07:00:46.084Z</time></trkpt><trkpt lat="41.07904" lon="14.3677633"><ele>125.0</ele><time>2026-04-06T07:00:48.086Z</time></trkpt><trkpt lat="41.079015" lon="14.3678583"><ele>127.33333333333334</ele><time>2026-04-06T07:00:50.084Z</time></trkpt><trkpt lat="41.0789933" lon="14.3679517"><ele>129.66666666666666</ele><time>2026-04-06T07:00:52.085Z</time></trkpt><trkpt lat="41.078965" lon="14.368035"><ele>132.0</ele><time>2026-04-06T07:00:54.084Z</time></trkpt><trkpt lat="41.0789317" lon="14.3681233"><ele>132.0</ele><time>2026-04-06T07:00:56.085Z</time></trkpt><trkpt lat="41.0789083" lon="14.3682133"><ele>132.0</ele><time>2026-04-06T07:00:58.085Z</time></trkpt><trkpt lat="41.0788833" lon="14.3683017"><ele>132.0</ele><time>2026-04-06T07:01:00.085Z</time></trkpt><trkpt lat="41.0788533" lon="14.368385"><ele>132.0</ele><time>2026-04-06T07:01:02.084Z</time></trkpt><trkpt lat="41.0788183" lon="14.3684683"><ele>132.0</ele><time>2026-04-06T07:01:04.085Z</time></trkpt><trkpt lat="41.07878" lon="14.3685833"><ele>132.0</ele><time>2026-04-06T07:01:07.085Z</time></trkpt><trkpt lat="41.07874" lon="14.3686683"><ele>132.0</ele><time>2026-04-06T07:01:09.085Z</time></trkpt><trkpt lat="41.0786917" lon="14.3687517"><ele>132.0</ele><time>2026-04-06T07:01:11.086Z</time></trkpt><trkpt lat="41.0786467" lon="14.36883"><ele>132.0</ele><time>2026-04-06T07:01:13.084Z</time></trkpt><trkpt lat="41.0785917" lon="14.3689217"><ele>132.0</ele><time>2026-04-06T07:01:15.084Z</time></trkpt><trkpt lat="41.07854" lon="14.3690067"><ele>132.0</ele><time>2026-04-06T07:01:17.084Z</time></trkpt><trkpt lat="41.0784717" lon="14.3690883"><ele>132.0</ele><time>2026-04-06T07:01:19.084Z</time></trkpt><trkpt lat="41.0783917" lon="14.369175"><ele>131.6</ele><time>2026-04-06T07:01:21.087Z</time></trkpt><trkpt lat="41.078315" lon="14.3692683"><ele>131.2</ele><time>2026-04-06T07:01:23.084Z</time></trkpt><trkpt lat="41.0782433" lon="14.3693633"><ele>130.8</ele><time>2026-04-06T07:01:25.085Z</time></trkpt><trkpt lat="41.0781817" lon="14.3694683"><ele>130.4</ele><time>2026-04-06T07:01:27.084Z</time></trkpt><trkpt lat="41.0781117" lon="14.3695833"><ele>130.0</ele><time>2026-04-06T07:01:29.084Z</time></trkpt><trkpt lat="41.0780344" lon="14.3696895"><ele>131.33333333333334</ele><time>2026-04-06T07:01:31.084Z</time></trkpt><trkpt lat="41.0779848" lon="14.3697508"><ele>132.66666666666669</ele><time>2026-04-06T07:01:32.084Z</time></trkpt><trkpt lat="41.0779366" lon="14.3698192"><ele>134.0</ele><time>2026-04-06T07:01:33.083Z</time></trkpt><trkpt lat="41.0778903" lon="14.3698846"><ele>135.33333333333334</ele><time>2026-04-06T07:01:34.083Z</time></trkpt><trkpt lat="41.0778456" lon="14.3699449"><ele>136.66666666666666</ele><time>2026-04-06T07:01:35.083Z</time></trkpt><trkpt lat="41.0777569" lon="14.3700615"><ele>138.0</ele><time>2026-04-06T07:01:37.083Z</time></trkpt><trkpt lat="41.0776744" lon="14.3701797"><ele>138.0</ele><time>2026-04-06T07:01:39.083Z</time></trkpt><trkpt lat="41.0775976" lon="14.3702906"><ele>138.0</ele><time>2026-04-06T07:01:41.084Z</time></trkpt><trkpt lat="41.0775236" lon="14.3704013"><ele>138.0</ele><time>2026-04-06T07:01:43.084Z</time></trkpt><trkpt lat="41.0774486" lon="14.3704986"><ele>138.0</ele><time>2026-04-06T07:01:45.085Z</time></trkpt><trkpt lat="41.0773803" lon="14.3705931"><ele>138.0</ele><time>2026-04-06T07:01:47.085Z</time></trkpt><trkpt lat="41.0773137" lon="14.3706837"><ele>139.0</ele><time>2026-04-06T07:01:49.087Z</time></trkpt><trkpt lat="41.077244" lon="14.3707747"><ele>140.0</ele><time>2026-04-06T07:01:51.086Z</time></trkpt><trkpt lat="41.0771864" lon="14.3708676"><ele>141.0</ele><time>2026-04-06T07:01:53.085Z</time></trkpt><trkpt lat="41.0771236" lon="14.3709588"><ele>142.0</ele><time>2026-04-06T07:01:55.084Z</time></trkpt><trkpt lat="41.0770626" lon="14.3710563"><ele>143.0</ele><time>2026-04-06T07:01:57.088Z</time></trkpt><trkpt lat="41.0769999" lon="14.3711517"><ele>143.0</ele><time>2026-04-06T07:01:59.084Z</time></trkpt><trkpt lat="41.0769378" lon="14.3712482"><ele>143.0</ele><time>2026-04-06T07:02:01.084Z</time></trkpt><trkpt lat="41.0768733" lon="14.3713533"><ele>143.0</ele><time>2026-04-06T07:02:03.085Z</time></trkpt><trkpt lat="41.0768117" lon="14.371465"><ele>143.0</ele><time>2026-04-06T07:02:05.085Z</time></trkpt><trkpt lat="41.0767517" lon="14.37158"><ele>143.0</ele><time>2026-04-06T07:02:07.085Z</time></trkpt><trkpt lat="41.0767" lon="14.3716983"><ele>143.5</ele><time>2026-04-06T07:02:09.084Z</time></trkpt><trkpt lat="41.07665" lon="14.3718283"><ele>144.0</ele><time>2026-04-06T07:02:11.084Z</time></trkpt><trkpt lat="41.0765883" lon="14.371955"><ele>144.5</ele><time>2026-04-06T07:02:13.084Z</time></trkpt><trkpt lat="41.076525" lon="14.3720867"><ele>145.0</ele><time>2026-04-06T07:02:15.085Z</time></trkpt><trkpt lat="41.07645" lon="14.3722067"><ele>145.0</ele><time>2026-04-06T07:02:17.084Z</time></trkpt><trkpt lat="41.0763533" lon="14.3722983"><ele>145.0</ele><time>2026-04-06T07:02:19.088Z</time></trkpt><trkpt lat="41.0762567" lon="14.37238"><ele>145.0</ele><time>2026-04-06T07:02:21.085Z</time></trkpt><trkpt lat="41.0761517" lon="14.37244"><ele>145.0</ele><time>2026-04-06T07:02:23.084Z</time></trkpt><trkpt lat="41.0760417" lon="14.3724883"><ele>145.0</ele><time>2026-04-06T07:02:25.085Z</time></trkpt><trkpt lat="41.0759317" lon="14.3725417"><ele>145.0</ele><time>2026-04-06T07:02:27.084Z</time></trkpt><trkpt lat="41.07583" lon="14.3725983"><ele>145.0</ele><time>2026-04-06T07:02:29.085Z</time></trkpt><trkpt lat="41.0757317" lon="14.3726483"><ele>145.0</ele><time>2026-04-06T07:02:31.085Z</time></trkpt><trkpt lat="41.0756267" lon="14.372695"><ele>145.0</ele><time>2026-04-06T07:02:33.085Z</time></trkpt><trkpt lat="41.0755367" lon="14.3727567"><ele>145.4</ele><time>2026-04-06T07:02:35.085Z</time></trkpt><trkpt lat="41.0754367" lon="14.3728333"><ele>145.8</ele><time>2026-04-06T07:02:37.085Z</time></trkpt><trkpt lat="41.0753417" lon="14.37292"><ele>146.2</ele><time>2026-04-06T07:02:39.086Z</time></trkpt><trkpt lat="41.0752483" lon="14.37299"><ele>146.6</ele><time>2026-04-06T07:02:41.085Z</time></trkpt><trkpt lat="41.0751567" lon="14.37307"><ele>147.0</ele><time>2026-04-06T07:02:43.083Z</time></trkpt><trkpt lat="41.0750733" lon="14.3731533"><ele>147.0</ele><time>2026-04-06T07:02:45.084Z</time></trkpt><trkpt lat="41.074975" lon="14.3732367"><ele>147.0</ele><time>2026-04-06T07:02:47.084Z</time></trkpt><trkpt lat="41.0748783" lon="14.3733133"><ele>147.0</ele><time>2026-04-06T07:02:49.083Z</time></trkpt><trkpt lat="41.0747533" lon="14.3733933"><ele>147.0</ele><time>2026-04-06T07:02:51.086Z</time></trkpt><trkpt lat="41.0746983" lon="14.37344"><ele>147.0</ele><time>2026-04-06T07:02:52.084Z</time></trkpt><trkpt lat="41.0745983" lon="14.3735267"><ele>147.5</ele><time>2026-04-06T07:02:54.084Z</time></trkpt><trkpt lat="41.074545" lon="14.3735733"><ele>148.0</ele><time>2026-04-06T07:02:55.084Z</time></trkpt><trkpt lat="41.0744433" lon="14.3736717"><ele>148.5</ele><time>2026-04-06T07:02:57.083Z</time></trkpt><trkpt lat="41.0743967" lon="14.3737283"><ele>149.0</ele><time>2026-04-06T07:02:58.084Z</time></trkpt><trkpt lat="41.07434" lon="14.3737833"><ele>149.5</ele><time>2026-04-06T07:02:59.085Z</time></trkpt><trkpt lat="41.0742867" lon="14.373835"><ele>150.0</ele><time>2026-04-06T07:03:00.085Z</time></trkpt><trkpt lat="41.0742333" lon="14.3738917"><ele>150.0</ele><time>2026-04-06T07:03:01.085Z</time></trkpt><trkpt lat="41.0741767" lon="14.3739417"><ele>150.0</ele><time>2026-04-06T07:03:02.086Z</time></trkpt><trkpt lat="41.0741233" lon="14.37399"><ele>150.0</ele><time>2026-04-06T07:03:03.086Z</time></trkpt><trkpt lat="41.07407" lon="14.37404"><ele>150.0</ele><time>2026-04-06T07:03:04.086Z</time></trkpt><trkpt lat="41.07397" lon="14.374135"><ele>150.0</ele><time>2026-04-06T07:03:06.086Z</time></trkpt><trkpt lat="41.073895" lon="14.3742383"><ele>150.0</ele><time>2026-04-06T07:03:08.085Z</time></trkpt><trkpt lat="41.0738433" lon="14.3743033"><ele>149.66666666666666</ele><time>2026-04-06T07:03:09.084Z</time></trkpt><trkpt lat="41.0737983" lon="14.3743667"><ele>149.33333333333334</ele><time>2026-04-06T07:03:10.085Z</time></trkpt><trkpt lat="41.0737517" lon="14.374425"><ele>149.0</ele><time>2026-04-06T07:03:11.085Z</time></trkpt><trkpt lat="41.07367" lon="14.37451"><ele>148.66666666666669</ele><time>2026-04-06T07:03:13.086Z</time></trkpt><trkpt lat="41.0735883" lon="14.3745883"><ele>148.33333333333334</ele><time>2026-04-06T07:03:15.083Z</time></trkpt><trkpt lat="41.0735183" lon="14.37466"><ele>148.0</ele><time>2026-04-06T07:03:17.085Z</time></trkpt><trkpt lat="41.0734967" lon="14.3747517"><ele>148.0</ele><time>2026-04-06T07:03:19.085Z</time></trkpt><trkpt lat="41.073505" lon="14.3748467"><ele>148.0</ele><time>2026-04-06T07:03:21.084Z</time></trkpt><trkpt lat="41.0735133" lon="14.374945"><ele>148.0</ele><time>2026-04-06T07:03:23.085Z</time></trkpt><trkpt lat="41.073535" lon="14.3750483"><ele>148.0</ele><time>2026-04-06T07:03:25.084Z</time></trkpt><trkpt lat="41.073565" lon="14.3751617"><ele>148.0</ele><time>2026-04-06T07:03:27.084Z</time></trkpt><trkpt lat="41.0735917" lon="14.3752767"><ele>148.0</ele><time>2026-04-06T07:03:29.085Z</time></trkpt><trkpt lat="41.0736283" lon="14.3753933"><ele>148.0</ele><time>2026-04-06T07:03:31.083Z</time></trkpt><trkpt lat="41.0736667" lon="14.3755067"><ele>148.0</ele><time>2026-04-06T07:03:33.087Z</time></trkpt><trkpt lat="41.0737033" lon="14.3756117"><ele>148.0</ele><time>2026-04-06T07:03:35.085Z</time></trkpt><trkpt lat="41.0737333" lon="14.3757083"><ele>148.0</ele><time>2026-04-06T07:03:37.084Z</time></trkpt><trkpt lat="41.0737667" lon="14.3757967"><ele>148.0</ele><time>2026-04-06T07:03:39.084Z</time></trkpt><trkpt lat="41.0738033" lon="14.3758817"><ele>148.0</ele><time>2026-04-06T07:03:41.085Z</time></trkpt><trkpt lat="41.0738433" lon="14.3759867"><ele>148.33333333333334</ele><time>2026-04-06T07:03:43.083Z</time></trkpt><trkpt lat="41.07388" lon="14.3760967"><ele>148.66666666666669</ele><time>2026-04-06T07:03:45.083Z</time></trkpt><trkpt lat="41.07392" lon="14.3762017"><ele>149.0</ele><time>2026-04-06T07:03:47.085Z</time></trkpt><trkpt lat="41.0739633" lon="14.3763117"><ele>149.33333333333334</ele><time>2026-04-06T07:03:49.085Z</time></trkpt><trkpt lat="41.0740133" lon="14.3764117"><ele>149.66666666666666</ele><time>2026-04-06T07:03:51.085Z</time></trkpt><trkpt lat="41.07409" lon="14.376455"><ele>150.0</ele><time>2026-04-06T07:03:53.084Z</time></trkpt><trkpt lat="41.0741867" lon="14.3763983"><ele>149.83333333333334</ele><time>2026-04-06T07:03:55.084Z</time></trkpt><trkpt lat="41.0742867" lon="14.3763017"><ele>149.66666666666666</ele><time>2026-04-06T07:03:57.083Z</time></trkpt><trkpt lat="41.0743467" lon="14.3762467"><ele>149.5</ele><time>2026-04-06T07:03:58.083Z</time></trkpt><trkpt lat="41.074405" lon="14.3761983"><ele>149.33333333333331</ele><time>2026-04-06T07:03:59.085Z</time></trkpt><trkpt lat="41.0744717" lon="14.3761467"><ele>149.16666666666666</ele><time>2026-04-06T07:04:00.084Z</time></trkpt><trkpt lat="41.0745383" lon="14.37609"><ele>149.0</ele><time>2026-04-06T07:04:01.084Z</time></trkpt><trkpt lat="41.0746067" lon="14.3760333"><ele>149.0</ele><time>2026-04-06T07:04:02.084Z</time></trkpt><trkpt lat="41.074675" lon="14.3759783"><ele>149.0</ele><time>2026-04-06T07:04:03.085Z</time></trkpt><trkpt lat="41.0747483" lon="14.375915"><ele>149.0</ele><time>2026-04-06T07:04:04.083Z</time></trkpt><trkpt lat="41.07482" lon="14.3758467"><ele>149.0</ele><time>2026-04-06T07:04:05.085Z</time></trkpt><trkpt lat="41.0748933" lon="14.3757783"><ele>149.0</ele><time>2026-04-06T07:04:06.085Z</time></trkpt><trkpt lat="41.0749633" lon="14.37572"><ele>149.0</ele><time>2026-04-06T07:04:07.084Z</time></trkpt><trkpt lat="41.0750417" lon="14.3756617"><ele>149.0</ele><time>2026-04-06T07:04:08.084Z</time></trkpt><trkpt lat="41.07512" lon="14.375605"><ele>149.0</ele><time>2026-04-06T07:04:09.084Z</time></trkpt><trkpt lat="41.0751983" lon="14.3755467"><ele>149.0</ele><time>2026-04-06T07:04:10.084Z</time></trkpt><trkpt lat="41.0752767" lon="14.3754817"><ele>149.0</ele><time>2026-04-06T07:04:11.086Z</time></trkpt><trkpt lat="41.0753567" lon="14.375415"><ele>149.0</ele><time>2026-04-06T07:04:12.084Z</time></trkpt><trkpt lat="41.0754417" lon="14.3753567"><ele>148.0</ele><time>2026-04-06T07:04:13.084Z</time></trkpt><trkpt lat="41.0755367" lon="14.3753083"><ele>147.0</ele><time>2026-04-06T07:04:14.084Z</time></trkpt><trkpt lat="41.0756383" lon="14.3752633"><ele>146.0</ele><time>2026-04-06T07:04:15.084Z</time></trkpt><trkpt lat="41.0757383" lon="14.375215"><ele>145.0</ele><time>2026-04-06T07:04:16.087Z</time></trkpt><trkpt lat="41.075835" lon="14.3751667"><ele>144.0</ele><time>2026-04-06T07:04:17.084Z</time></trkpt><trkpt lat="41.0759317" lon="14.3751183"><ele>143.8</ele><time>2026-04-06T07:04:18.084Z</time></trkpt><trkpt lat="41.0760183" lon="14.3750583"><ele>143.60000000000002</ele><time>2026-04-06T07:04:19.085Z</time></trkpt><trkpt lat="41.07611" lon="14.3750017"><ele>143.4</ele><time>2026-04-06T07:04:20.084Z</time></trkpt><trkpt lat="41.0761917" lon="14.3749267"><ele>143.20000000000002</ele><time>2026-04-06T07:04:21.083Z</time></trkpt><trkpt lat="41.07627" lon="14.37484"><ele>143.0</ele><time>2026-04-06T07:04:22.084Z</time></trkpt><trkpt lat="41.0763467" lon="14.3747517"><ele>143.0</ele><time>2026-04-06T07:04:23.084Z</time></trkpt><trkpt lat="41.0764083" lon="14.374655"><ele>143.0</ele><time>2026-04-06T07:04:24.084Z</time></trkpt><trkpt lat="41.0764767" lon="14.3745617"><ele>143.0</ele><time>2026-04-06T07:04:25.084Z</time></trkpt><trkpt lat="41.07654" lon="14.3744683"><ele>143.0</ele><time>2026-04-06T07:04:26.083Z</time></trkpt><trkpt lat="41.0765967" lon="14.3743717"><ele>143.0</ele><time>2026-04-06T07:04:27.084Z</time></trkpt><trkpt lat="41.0766567" lon="14.3742783"><ele>142.33333333333331</ele><time>2026-04-06T07:04:28.083Z</time></trkpt><trkpt lat="41.0767167" lon="14.37419"><ele>141.66666666666666</ele><time>2026-04-06T07:04:29.083Z</time></trkpt><trkpt lat="41.0767767" lon="14.3741033"><ele>141.0</ele><time>2026-04-06T07:04:30.084Z</time></trkpt><trkpt lat="41.0768367" lon="14.3740167"><ele>140.33333333333334</ele><time>2026-04-06T07:04:31.084Z</time></trkpt><trkpt lat="41.0768833" lon="14.3739217"><ele>139.66666666666669</ele><time>2026-04-06T07:04:32.085Z</time></trkpt><trkpt lat="41.0769183" lon="14.3738183"><ele>139.0</ele><time>2026-04-06T07:04:33.083Z</time></trkpt><trkpt lat="41.0769483" lon="14.37371"><ele>138.33333333333334</ele><time>2026-04-06T07:04:34.084Z</time></trkpt><trkpt lat="41.0769717" lon="14.3735967"><ele>137.66666666666669</ele><time>2026-04-06T07:04:35.083Z</time></trkpt><trkpt lat="41.076995" lon="14.3734883"><ele>137.0</ele><time>2026-04-06T07:04:36.085Z</time></trkpt><trkpt lat="41.0770267" lon="14.3733783"><ele>136.33333333333334</ele><time>2026-04-06T07:04:37.083Z</time></trkpt><trkpt lat="41.077065" lon="14.37327"><ele>135.66666666666666</ele><time>2026-04-06T07:04:38.083Z</time></trkpt><trkpt lat="41.07712" lon="14.3731817"><ele>135.0</ele><time>2026-04-06T07:04:39.084Z</time></trkpt><trkpt lat="41.0771883" lon="14.3731083"><ele>135.0</ele><time>2026-04-06T07:04:40.083Z</time></trkpt><trkpt lat="41.0772583" lon="14.373035"><ele>135.0</ele><time>2026-04-06T07:04:41.084Z</time></trkpt><trkpt lat="41.0773317" lon="14.3729667"><ele>135.0</ele><time>2026-04-06T07:04:42.083Z</time></trkpt><trkpt lat="41.0774033" lon="14.372895"><ele>135.0</ele><time>2026-04-06T07:04:43.083Z</time></trkpt><trkpt lat="41.07748" lon="14.3728267"><ele>135.0</ele><time>2026-04-06T07:04:44.084Z</time></trkpt><trkpt lat="41.0775517" lon="14.3727567"><ele>134.2</ele><time>2026-04-06T07:04:45.083Z</time></trkpt><trkpt lat="41.077625" lon="14.3726883"><ele>133.4</ele><time>2026-04-06T07:04:46.083Z</time></trkpt><trkpt lat="41.0776983" lon="14.3726117"><ele>132.6</ele><time>2026-04-06T07:04:47.083Z</time></trkpt><trkpt lat="41.07777" lon="14.37253"><ele>131.8</ele><time>2026-04-06T07:04:48.083Z</time></trkpt><trkpt lat="41.07784" lon="14.37245"><ele>131.0</ele><time>2026-04-06T07:04:49.083Z</time></trkpt><trkpt lat="41.07791" lon="14.372365"><ele>131.0</ele><time>2026-04-06T07:04:50.084Z</time></trkpt><trkpt lat="41.07798" lon="14.3722783"><ele>131.0</ele><time>2026-04-06T07:04:51.086Z</time></trkpt><trkpt lat="41.0780483" lon="14.3721983"><ele>131.0</ele><time>2026-04-06T07:04:52.084Z</time></trkpt><trkpt lat="41.07812" lon="14.3721217"><ele>131.0</ele><time>2026-04-06T07:04:53.084Z</time></trkpt><trkpt lat="41.0781933" lon="14.3720517"><ele>131.0</ele><time>2026-04-06T07:04:54.084Z</time></trkpt><trkpt lat="41.0782717" lon="14.3719833"><ele>130.66666666666666</ele><time>2026-04-06T07:04:55.084Z</time></trkpt><trkpt lat="41.078345" lon="14.3719067"><ele>130.33333333333331</ele><time>2026-04-06T07:04:56.084Z</time></trkpt><trkpt lat="41.078415" lon="14.3718333"><ele>130.0</ele><time>2026-04-06T07:04:57.084Z</time></trkpt><trkpt lat="41.07848" lon="14.37175"><ele>129.66666666666666</ele><time>2026-04-06T07:04:58.084Z</time></trkpt><trkpt lat="41.0785433" lon="14.3716683"><ele>129.33333333333334</ele><time>2026-04-06T07:04:59.084Z</time></trkpt><trkpt lat="41.0786067" lon="14.3715933"><ele>129.0</ele><time>2026-04-06T07:05:00.084Z</time></trkpt><trkpt lat="41.0786683" lon="14.3715167"><ele>129.0</ele><time>2026-04-06T07:05:01.085Z</time></trkpt><trkpt lat="41.0787267" lon="14.37144"><ele>129.0</ele><time>2026-04-06T07:05:02.085Z</time></trkpt><trkpt lat="41.0787783" lon="14.3713583"><ele>129.0</ele><time>2026-04-06T07:05:03.086Z</time></trkpt><trkpt lat="41.0788333" lon="14.37128"><ele>129.0</ele><time>2026-04-06T07:05:04.083Z</time></trkpt><trkpt lat="41.078885" lon="14.3711983"><ele>129.0</ele><time>2026-04-06T07:05:05.084Z</time></trkpt><trkpt lat="41.0789367" lon="14.3711183"><ele>129.0</ele><time>2026-04-06T07:05:06.084Z</time></trkpt><trkpt lat="41.0789867" lon="14.3710367"><ele>129.0</ele><time>2026-04-06T07:05:07.084Z</time></trkpt><trkpt lat="41.0790417" lon="14.3709567"><ele>129.0</ele><time>2026-04-06T07:05:08.083Z</time></trkpt><trkpt lat="41.0790933" lon="14.3708783"><ele>129.0</ele><time>2026-04-06T07:05:09.084Z</time></trkpt><trkpt lat="41.0791467" lon="14.370805"><ele>129.0</ele><time>2026-04-06T07:05:10.084Z</time></trkpt><trkpt lat="41.0792033" lon="14.3707317"><ele>129.0</ele><time>2026-04-06T07:05:11.084Z</time></trkpt><trkpt lat="41.0792683" lon="14.3706683"><ele>129.0</ele><time>2026-04-06T07:05:12.083Z</time></trkpt><trkpt lat="41.0793267" lon="14.3706067"><ele>128.6</ele><time>2026-04-06T07:05:13.084Z</time></trkpt><trkpt lat="41.0793867" lon="14.3705467"><ele>128.2</ele><time>2026-04-06T07:05:14.085Z</time></trkpt><trkpt lat="41.0794433" lon="14.3704933"><ele>127.79999999999998</ele><time>2026-04-06T07:05:15.085Z</time></trkpt><trkpt lat="41.0795433" lon="14.3704083"><ele>127.39999999999999</ele><time>2026-04-06T07:05:17.084Z</time></trkpt><trkpt lat="41.0796433" lon="14.3703283"><ele>127.0</ele><time>2026-04-06T07:05:19.084Z</time></trkpt><trkpt lat="41.0797417" lon="14.3702383"><ele>126.75</ele><time>2026-04-06T07:05:21.085Z</time></trkpt><trkpt lat="41.07984" lon="14.3701683"><ele>126.5</ele><time>2026-04-06T07:05:23.084Z</time></trkpt><trkpt lat="41.0799333" lon="14.370095"><ele>126.25</ele><time>2026-04-06T07:05:25.083Z</time></trkpt><trkpt lat="41.0800317" lon="14.3700133"><ele>126.0</ele><time>2026-04-06T07:05:27.083Z</time></trkpt><trkpt lat="41.0801317" lon="14.3699417"><ele>126.0</ele><time>2026-04-06T07:05:29.084Z</time></trkpt><trkpt lat="41.0802267" lon="14.3698633"><ele>126.0</ele><time>2026-04-06T07:05:31.083Z</time></trkpt><trkpt lat="41.0803233" lon="14.3697883"><ele>126.0</ele><time>2026-04-06T07:05:33.083Z</time></trkpt><trkpt lat="41.0804317" lon="14.3697117"><ele>126.0</ele><time>2026-04-06T07:05:35.083Z</time></trkpt><trkpt lat="41.08053" lon="14.369635"><ele>125.75</ele><time>2026-04-06T07:05:37.083Z</time></trkpt><trkpt lat="41.080625" lon="14.369555"><ele>125.5</ele><time>2026-04-06T07:05:39.083Z</time></trkpt><trkpt lat="41.0807217" lon="14.36947"><ele>125.25</ele><time>2026-04-06T07:05:41.084Z</time></trkpt><trkpt lat="41.08082" lon="14.3693917"><ele>125.0</ele><time>2026-04-06T07:05:43.086Z</time></trkpt><trkpt lat="41.0809133" lon="14.3693083"><ele>125.0</ele><time>2026-04-06T07:05:45.084Z</time></trkpt><trkpt lat="41.08101" lon="14.36923"><ele>125.0</ele><time>2026-04-06T07:05:47.086Z</time></trkpt><trkpt lat="41.0811017" lon="14.369155"><ele>125.0</ele><time>2026-04-06T07:05:49.087Z</time></trkpt><trkpt lat="41.08119" lon="14.3690883"><ele>125.0</ele><time>2026-04-06T07:05:51.085Z</time></trkpt><trkpt lat="41.08128" lon="14.369035"><ele>125.0</ele><time>2026-04-06T07:05:53.083Z</time></trkpt><trkpt lat="41.08137" lon="14.3689883"><ele>125.0</ele><time>2026-04-06T07:05:55.084Z</time></trkpt><trkpt lat="41.0814533" lon="14.368935"><ele>125.0</ele><time>2026-04-06T07:05:57.084Z</time></trkpt><trkpt lat="41.081545" lon="14.3688833"><ele>125.0</ele><time>2026-04-06T07:05:59.084Z</time></trkpt><trkpt lat="41.081645" lon="14.3688333"><ele>125.0</ele><time>2026-04-06T07:06:01.084Z</time></trkpt><trkpt lat="41.0817417" lon="14.368785"><ele>125.0</ele><time>2026-04-06T07:06:03.083Z</time></trkpt><trkpt lat="41.081825" lon="14.3687333"><ele>124.66666666666666</ele><time>2026-04-06T07:06:05.083Z</time></trkpt><trkpt lat="41.0818967" lon="14.3686733"><ele>124.33333333333333</ele><time>2026-04-06T07:06:07.084Z</time></trkpt><trkpt lat="41.081975" lon="14.36862"><ele>124.0</ele><time>2026-04-06T07:06:09.084Z</time></trkpt><trkpt lat="41.0820517" lon="14.3685783"><ele>123.66666666666666</ele><time>2026-04-06T07:06:11.084Z</time></trkpt><trkpt lat="41.0821283" lon="14.3685317"><ele>123.33333333333333</ele><time>2026-04-06T07:06:13.084Z</time></trkpt><trkpt lat="41.082195" lon="14.3684717"><ele>123.0</ele><time>2026-04-06T07:06:15.083Z</time></trkpt><trkpt lat="41.0822617" lon="14.3684033"><ele>123.0</ele><time>2026-04-06T07:06:17.087Z</time></trkpt><trkpt lat="41.0823367" lon="14.368325"><ele>123.00000000000001</ele><time>2026-04-06T07:06:19.084Z</time></trkpt><trkpt lat="41.082405" lon="14.368225"><ele>123.00000000000001</ele><time>2026-04-06T07:06:21.084Z</time></trkpt><trkpt lat="41.0824633" lon="14.3681167"><ele>123.0</ele><time>2026-04-06T07:06:23.084Z</time></trkpt><trkpt lat="41.0825283" lon="14.3680067"><ele>123.0</ele><time>2026-04-06T07:06:25.083Z</time></trkpt><trkpt lat="41.082615" lon="14.367925"><ele>123.33333333333333</ele><time>2026-04-06T07:06:27.085Z</time></trkpt><trkpt lat="41.0826967" lon="14.3678767"><ele>123.66666666666666</ele><time>2026-04-06T07:06:29.086Z</time></trkpt><trkpt lat="41.08279" lon="14.3678533"><ele>124.0</ele><time>2026-04-06T07:06:31.084Z</time></trkpt><trkpt lat="41.0828683" lon="14.3678133"><ele>124.33333333333333</ele><time>2026-04-06T07:06:33.088Z</time></trkpt><trkpt lat="41.0829367" lon="14.3677983"><ele>124.66666666666666</ele><time>2026-04-06T07:06:35.084Z</time></trkpt><trkpt lat="41.08301" lon="14.36778"><ele>125.0</ele><time>2026-04-06T07:06:37.087Z</time></trkpt><trkpt lat="41.0830917" lon="14.3677283"><ele>124.99999999999999</ele><time>2026-04-06T07:06:40.085Z</time></trkpt><trkpt lat="41.0831633" lon="14.3676867"><ele>125.0</ele><time>2026-04-06T07:06:43.083Z</time></trkpt><trkpt lat="41.0832317" lon="14.3676367"><ele>125.0</ele><time>2026-04-06T07:06:46.083Z</time></trkpt><trkpt lat="41.0832583" lon="14.3675567"><ele>125.0</ele><time>2026-04-06T07:06:49.084Z</time></trkpt><trkpt lat="41.0832717" lon="14.3674483"><ele>124.99999999999999</ele><time>2026-04-06T07:06:52.086Z</time></trkpt><trkpt lat="41.0832783" lon="14.3673167"><ele>125.0</ele><time>2026-04-06T07:06:55.083Z</time></trkpt><trkpt lat="41.083265" lon="14.3671917"><ele>124.49999999999999</ele><time>2026-04-06T07:06:57.083Z</time></trkpt><trkpt lat="41.0832417" lon="14.36708"><ele>124.0</ele><time>2026-04-06T07:06:59.083Z</time></trkpt><trkpt lat="41.08324" lon="14.366965"><ele>123.5</ele><time>2026-04-06T07:07:01.085Z</time></trkpt><trkpt lat="41.0832817" lon="14.366825"><ele>123.0</ele><time>2026-04-06T07:07:03.084Z</time></trkpt><trkpt lat="41.0832967" lon="14.3667417"><ele>122.49999999999999</ele><time>2026-04-06T07:07:04.084Z</time></trkpt><trkpt lat="41.0833267" lon="14.366665"><ele>122.0</ele><time>2026-04-06T07:07:05.084Z</time></trkpt><trkpt lat="41.0833817" lon="14.36652"><ele>123.0</ele><time>2026-04-06T07:07:07.084Z</time></trkpt><trkpt lat="41.0834317" lon="14.3664067"><ele>123.99999999999999</ele><time>2026-04-06T07:07:09.084Z</time></trkpt><trkpt lat="41.0834767" lon="14.3663"><ele>124.99999999999999</ele><time>2026-04-06T07:07:11.084Z</time></trkpt><trkpt lat="41.0835317" lon="14.36618"><ele>126.0</ele><time>2026-04-06T07:07:13.084Z</time></trkpt><trkpt lat="41.0836017" lon="14.366065"><ele>127.0</ele><time>2026-04-06T07:07:15.084Z</time></trkpt><trkpt lat="41.083665" lon="14.3659467"><ele>127.00000000000001</ele><time>2026-04-06T07:07:17.084Z</time></trkpt><trkpt lat="41.0837433" lon="14.365845"><ele>127.0</ele><time>2026-04-06T07:07:19.086Z</time></trkpt><trkpt lat="41.083785" lon="14.3657233"><ele>127.0</ele><time>2026-04-06T07:07:21.087Z</time></trkpt><trkpt lat="41.0838367" lon="14.3656267"><ele>127.0</ele><time>2026-04-06T07:07:23.085Z</time></trkpt><trkpt lat="41.08389" lon="14.365555"><ele>127.00000000000001</ele><time>2026-04-06T07:07:25.084Z</time></trkpt><trkpt lat="41.08395" lon="14.3654983"><ele>127.0</ele><time>2026-04-06T07:07:27.085Z</time></trkpt><trkpt lat="41.083965" lon="14.3653967"><ele>126.71428571428572</ele><time>2026-04-06T07:07:30.084Z</time></trkpt><trkpt lat="41.0840083" lon="14.3653233"><ele>126.42857142857142</ele><time>2026-04-06T07:07:33.084Z</time></trkpt><trkpt lat="41.0840717" lon="14.365245"><ele>126.14285714285714</ele><time>2026-04-06T07:07:36.085Z</time></trkpt><trkpt lat="41.0841317" lon="14.365165"><ele>125.85714285714286</ele><time>2026-04-06T07:07:39.084Z</time></trkpt><trkpt lat="41.0841767" lon="14.3651017"><ele>125.57142857142858</ele><time>2026-04-06T07:07:42.085Z</time></trkpt><trkpt lat="41.0842317" lon="14.3651617"><ele>125.28571428571428</ele><time>2026-04-06T07:07:45.085Z</time></trkpt><trkpt lat="41.0842783" lon="14.3652233"><ele>125.0</ele><time>2026-04-06T07:07:48.083Z</time></trkpt><trkpt lat="41.0843617" lon="14.3653217"><ele>126.49999999999999</ele><time>2026-04-06T07:07:51.084Z</time></trkpt><trkpt lat="41.0844333" lon="14.3654017"><ele>128.0</ele><time>2026-04-06T07:07:53.085Z</time></trkpt><trkpt lat="41.0845083" lon="14.365475"><ele>129.5</ele><time>2026-04-06T07:07:55.085Z</time></trkpt><trkpt lat="41.0845583" lon="14.3655717"><ele>131.0</ele><time>2026-04-06T07:07:58.084Z</time></trkpt><trkpt lat="41.0846117" lon="14.36563"><ele>132.5</ele><time>2026-04-06T07:08:01.085Z</time></trkpt><trkpt lat="41.084675" lon="14.3657017"><ele>134.0</ele><time>2026-04-06T07:08:04.084Z</time></trkpt><trkpt lat="41.0847483" lon="14.3657117"><ele>134.0</ele><time>2026-04-06T07:08:08.084Z</time></trkpt><trkpt lat="41.08481" lon="14.3656733"><ele>134.0</ele><time>2026-04-06T07:08:11.083Z</time></trkpt><trkpt lat="41.084875" lon="14.3656017"><ele>134.0</ele><time>2026-04-06T07:08:14.084Z</time></trkpt><trkpt lat="41.0849267" lon="14.365525"><ele>134.0</ele><time>2026-04-06T07:08:17.084Z</time></trkpt><trkpt lat="41.0849917" lon="14.36548"><ele>134.0</ele><time>2026-04-06T07:08:20.084Z</time></trkpt><trkpt lat="41.0850567" lon="14.3654717"><ele>134.0</ele><time>2026-04-06T07:08:22.084Z</time></trkpt><trkpt lat="41.0851267" lon="14.3654233"><ele>134.0</ele><time>2026-04-06T07:08:25.084Z</time></trkpt><trkpt lat="41.0851883" lon="14.3653567"><ele>134.85714285714286</ele><time>2026-04-06T07:08:28.085Z</time></trkpt><trkpt lat="41.085225" lon="14.3652717"><ele>135.71428571428572</ele><time>2026-04-06T07:08:31.084Z</time></trkpt><trkpt lat="41.0852667" lon="14.3652017"><ele>136.57142857142856</ele><time>2026-04-06T07:08:34.085Z</time></trkpt><trkpt lat="41.0853283" lon="14.3651383"><ele>137.42857142857144</ele><time>2026-04-06T07:08:37.084Z</time></trkpt><trkpt lat="41.0854" lon="14.36512"><ele>138.28571428571428</ele><time>2026-04-06T07:08:39.085Z</time></trkpt><trkpt lat="41.085465" lon="14.3650867"><ele>139.14285714285714</ele><time>2026-04-06T07:08:41.084Z</time></trkpt><trkpt lat="41.0855233" lon="14.3650433"><ele>140.0</ele><time>2026-04-06T07:08:43.084Z</time></trkpt><trkpt lat="41.08558" lon="14.3649967"><ele>140.0</ele><time>2026-04-06T07:08:45.086Z</time></trkpt><trkpt lat="41.0856383" lon="14.3649183"><ele>140.0</ele><time>2026-04-06T07:08:48.086Z</time></trkpt><trkpt lat="41.0856817" lon="14.3648567"><ele>140.0</ele><time>2026-04-06T07:08:50.085Z</time></trkpt><trkpt lat="41.0857367" lon="14.3647983"><ele>140.0</ele><time>2026-04-06T07:08:52.084Z</time></trkpt><trkpt lat="41.08581" lon="14.364755"><ele>140.0</ele><time>2026-04-06T07:08:54.084Z</time></trkpt><trkpt lat="41.0858733" lon="14.364725"><ele>140.0</ele><time>2026-04-06T07:08:56.084Z</time></trkpt><trkpt lat="41.0859267" lon="14.3646683"><ele>140.0</ele><time>2026-04-06T07:08:58.084Z</time></trkpt><trkpt lat="41.0859867" lon="14.364595"><ele>140.4</ele><time>2026-04-06T07:09:01.085Z</time></trkpt><trkpt lat="41.0860567" lon="14.3645233"><ele>140.8</ele><time>2026-04-06T07:09:03.084Z</time></trkpt><trkpt lat="41.086095" lon="14.36444"><ele>141.2</ele><time>2026-04-06T07:09:04.086Z</time></trkpt><trkpt lat="41.086165" lon="14.3643333"><ele>141.6</ele><time>2026-04-06T07:09:06.084Z</time></trkpt><trkpt lat="41.0862467" lon="14.3642233"><ele>142.0</ele><time>2026-04-06T07:09:08.085Z</time></trkpt><trkpt lat="41.0863133" lon="14.364125"><ele>142.0</ele><time>2026-04-06T07:09:10.086Z</time></trkpt><trkpt lat="41.0863867" lon="14.3640767"><ele>142.0</ele><time>2026-04-06T07:09:12.085Z</time></trkpt><trkpt lat="41.08647" lon="14.3640167"><ele>142.0</ele><time>2026-04-06T07:09:14.086Z</time></trkpt><trkpt lat="41.0865583" lon="14.3639733"><ele>142.0</ele><time>2026-04-06T07:09:16.085Z</time></trkpt><trkpt lat="41.086635" lon="14.363945"><ele>142.0</ele><time>2026-04-06T07:09:18.085Z</time></trkpt><trkpt lat="41.0866917" lon="14.3639083"><ele>142.0</ele><time>2026-04-06T07:09:20.088Z</time></trkpt><trkpt lat="41.0867733" lon="14.3638583"><ele>142.0</ele><time>2026-04-06T07:09:23.085Z</time></trkpt><trkpt lat="41.086855" lon="14.3638267"><ele>142.0</ele><time>2026-04-06T07:09:26.085Z</time></trkpt><trkpt lat="41.0869417" lon="14.3637917"><ele>142.0</ele><time>2026-04-06T07:09:29.084Z</time></trkpt><trkpt lat="41.0870317" lon="14.3637417"><ele>142.0</ele><time>2026-04-06T07:09:32.084Z</time></trkpt><trkpt lat="41.0870867" lon="14.3636917"><ele>142.0</ele><time>2026-04-06T07:09:34.084Z</time></trkpt><trkpt lat="41.0871667" lon="14.3636533"><ele>142.0</ele><time>2026-04-06T07:09:36.084Z</time></trkpt><trkpt lat="41.0872617" lon="14.363585"><ele>142.0</ele><time>2026-04-06T07:09:38.084Z</time></trkpt><trkpt lat="41.0873567" lon="14.36348"><ele>142.0</ele><time>2026-04-06T07:09:40.085Z</time></trkpt><trkpt lat="41.0874" lon="14.3634117"><ele>142.0</ele><time>2026-04-06T07:09:41.084Z</time></trkpt><trkpt lat="41.0874433" lon="14.3633433"><ele>142.0</ele><time>2026-04-06T07:09:42.085Z</time></trkpt><trkpt lat="41.0874867" lon="14.363265"><ele>142.0</ele><time>2026-04-06T07:09:43.084Z</time></trkpt><trkpt lat="41.0875317" lon="14.3631933"><ele>142.0</ele><time>2026-04-06T07:09:44.085Z</time></trkpt><trkpt lat="41.0875767" lon="14.3631283"><ele>142.33333333333334</ele><time>2026-04-06T07:09:45.084Z</time></trkpt><trkpt lat="41.0876183" lon="14.3630617"><ele>142.66666666666669</ele><time>2026-04-06T07:09:46.085Z</time></trkpt><trkpt lat="41.0876883" lon="14.3629533"><ele>143.0</ele><time>2026-04-06T07:09:48.087Z</time></trkpt><trkpt lat="41.08776" lon="14.3628733"><ele>143.33333333333334</ele><time>2026-04-06T07:09:50.086Z</time></trkpt><trkpt lat="41.0878217" lon="14.3628083"><ele>143.66666666666666</ele><time>2026-04-06T07:09:52.085Z</time></trkpt><trkpt lat="41.0878767" lon="14.3627433"><ele>144.0</ele><time>2026-04-06T07:09:54.086Z</time></trkpt><trkpt lat="41.0879467" lon="14.3626783"><ele>144.0</ele><time>2026-04-06T07:09:56.089Z</time></trkpt><trkpt lat="41.088015" lon="14.362605"><ele>144.0</ele><time>2026-04-06T07:09:58.085Z</time></trkpt><trkpt lat="41.0880817" lon="14.362535"><ele>144.0</ele><time>2026-04-06T07:10:00.09Z</time></trkpt><trkpt lat="41.08816" lon="14.3624817"><ele>144.0</ele><time>2026-04-06T07:10:02.085Z</time></trkpt><trkpt lat="41.08823" lon="14.3624217"><ele>144.0</ele><time>2026-04-06T07:10:04.084Z</time></trkpt><trkpt lat="41.0883017" lon="14.3623383"><ele>144.0</ele><time>2026-04-06T07:10:06.084Z</time></trkpt><trkpt lat="41.08837" lon="14.3622717"><ele>144.5</ele><time>2026-04-06T07:10:08.084Z</time></trkpt><trkpt lat="41.08843" lon="14.3622283"><ele>145.0</ele><time>2026-04-06T07:10:10.084Z</time></trkpt><trkpt lat="41.088515" lon="14.3622067"><ele>145.5</ele><time>2026-04-06T07:10:12.085Z</time></trkpt><trkpt lat="41.0885883" lon="14.36217"><ele>146.0</ele><time>2026-04-06T07:10:14.084Z</time></trkpt><trkpt lat="41.0886583" lon="14.3621433"><ele>146.5</ele><time>2026-04-06T07:10:16.084Z</time></trkpt><trkpt lat="41.0887483" lon="14.3621133"><ele>147.0</ele><time>2026-04-06T07:10:18.085Z</time></trkpt><trkpt lat="41.0888267" lon="14.3620733"><ele>147.0</ele><time>2026-04-06T07:10:20.084Z</time></trkpt><trkpt lat="41.0889083" lon="14.3620533"><ele>147.0</ele><time>2026-04-06T07:10:22.086Z</time></trkpt><trkpt lat="41.0889683" lon="14.361985"><ele>147.0</ele><time>2026-04-06T07:10:24.084Z</time></trkpt><trkpt lat="41.089035" lon="14.3619317"><ele>147.0</ele><time>2026-04-06T07:10:26.084Z</time></trkpt><trkpt lat="41.089115" lon="14.361895"><ele>147.0</ele><time>2026-04-06T07:10:28.084Z</time></trkpt><trkpt lat="41.0891883" lon="14.3618367"><ele>147.0</ele><time>2026-04-06T07:10:30.084Z</time></trkpt><trkpt lat="41.089255" lon="14.3617717"><ele>148.16666666666666</ele><time>2026-04-06T07:10:32.085Z</time></trkpt><trkpt lat="41.0893267" lon="14.3617167"><ele>149.33333333333334</ele><time>2026-04-06T07:10:34.085Z</time></trkpt><trkpt lat="41.089385" lon="14.3616567"><ele>150.5</ele><time>2026-04-06T07:10:36.086Z</time></trkpt><trkpt lat="41.0894533" lon="14.3615983"><ele>151.66666666666669</ele><time>2026-04-06T07:10:38.084Z</time></trkpt><trkpt lat="41.0895317" lon="14.3615533"><ele>152.83333333333334</ele><time>2026-04-06T07:10:40.084Z</time></trkpt><trkpt lat="41.089585" lon="14.3615083"><ele>154.0</ele><time>2026-04-06T07:10:41.085Z</time></trkpt><trkpt lat="41.0896567" lon="14.3614533"><ele>154.0</ele><time>2026-04-06T07:10:43.085Z</time></trkpt><trkpt lat="41.089735" lon="14.361395"><ele>154.0</ele><time>2026-04-06T07:10:45.086Z</time></trkpt><trkpt lat="41.0898117" lon="14.3613517"><ele>154.0</ele><time>2026-04-06T07:10:47.085Z</time></trkpt><trkpt lat="41.0898883" lon="14.3613017"><ele>154.0</ele><time>2026-04-06T07:10:49.085Z</time></trkpt><trkpt lat="41.0899483" lon="14.361225"><ele>154.0</ele><time>2026-04-06T07:10:51.085Z</time></trkpt><trkpt lat="41.09001" lon="14.3611167"><ele>154.0</ele><time>2026-04-06T07:10:53.085Z</time></trkpt><trkpt lat="41.0900567" lon="14.3610033"><ele>153.75</ele><time>2026-04-06T07:10:55.087Z</time></trkpt><trkpt lat="41.0900983" lon="14.36088"><ele>153.5</ele><time>2026-04-06T07:10:57.086Z</time></trkpt><trkpt lat="41.090145" lon="14.3607333"><ele>153.25</ele><time>2026-04-06T07:10:59.085Z</time></trkpt><trkpt lat="41.0902017" lon="14.3605933"><ele>153.0</ele><time>2026-04-06T07:11:01.086Z</time></trkpt><trkpt lat="41.090265" lon="14.360455"><ele>152.33333333333334</ele><time>2026-04-06T07:11:03.086Z</time></trkpt><trkpt lat="41.0903433" lon="14.360325"><ele>151.66666666666666</ele><time>2026-04-06T07:11:05.087Z</time></trkpt><trkpt lat="41.0903767" lon="14.36025"><ele>151.0</ele><time>2026-04-06T07:11:06.086Z</time></trkpt><trkpt lat="41.09041" lon="14.3601767"><ele>150.33333333333331</ele><time>2026-04-06T07:11:07.087Z</time></trkpt><trkpt lat="41.09044" lon="14.3601"><ele>149.66666666666666</ele><time>2026-04-06T07:11:08.085Z</time></trkpt><trkpt lat="41.09049" lon="14.3599433"><ele>149.0</ele><time>2026-04-06T07:11:10.085Z</time></trkpt><trkpt lat="41.090515" lon="14.3598583"><ele>149.0</ele><time>2026-04-06T07:11:11.088Z</time></trkpt><trkpt lat="41.0905467" lon="14.3597733"><ele>149.0</ele><time>2026-04-06T07:11:12.085Z</time></trkpt><trkpt lat="41.090585" lon="14.359695"><ele>149.0</ele><time>2026-04-06T07:11:13.085Z</time></trkpt><trkpt lat="41.09062" lon="14.35962"><ele>149.0</ele><time>2026-04-06T07:11:14.085Z</time></trkpt><trkpt lat="41.090665" lon="14.35955"><ele>149.0</ele><time>2026-04-06T07:11:15.086Z</time></trkpt><trkpt lat="41.0907117" lon="14.3594767"><ele>149.0</ele><time>2026-04-06T07:11:16.085Z</time></trkpt><trkpt lat="41.090755" lon="14.3594067"><ele>149.0</ele><time>2026-04-06T07:11:17.085Z</time></trkpt><trkpt lat="41.0907983" lon="14.3593383"><ele>149.0</ele><time>2026-04-06T07:11:18.085Z</time></trkpt><trkpt lat="41.0908533" lon="14.35927"><ele>149.0</ele><time>2026-04-06T07:11:19.084Z</time></trkpt><trkpt lat="41.090895" lon="14.3591883"><ele>149.0</ele><time>2026-04-06T07:11:20.085Z</time></trkpt><trkpt lat="41.0909267" lon="14.359105"><ele>149.0</ele><time>2026-04-06T07:11:21.085Z</time></trkpt><trkpt lat="41.0909583" lon="14.3590283"><ele>149.0</ele><time>2026-04-06T07:11:22.085Z</time></trkpt><trkpt lat="41.0909733" lon="14.3589433"><ele>149.0</ele><time>2026-04-06T07:11:23.084Z</time></trkpt><trkpt lat="41.09098" lon="14.3588567"><ele>149.0</ele><time>2026-04-06T07:11:24.085Z</time></trkpt><trkpt lat="41.0909717" lon="14.35877"><ele>148.6</ele><time>2026-04-06T07:11:25.084Z</time></trkpt><trkpt lat="41.09096" lon="14.3585983"><ele>148.2</ele><time>2026-04-06T07:11:27.084Z</time></trkpt><trkpt lat="41.0909783" lon="14.35845"><ele>147.79999999999998</ele><time>2026-04-06T07:11:29.085Z</time></trkpt><trkpt lat="41.0909917" lon="14.3583267"><ele>147.4</ele><time>2026-04-06T07:11:31.084Z</time></trkpt><trkpt lat="41.0910033" lon="14.3582017"><ele>147.0</ele><time>2026-04-06T07:11:33.084Z</time></trkpt><trkpt lat="41.091035" lon="14.3580583"><ele>146.5</ele><time>2026-04-06T07:11:35.084Z</time></trkpt><trkpt lat="41.0910767" lon="14.357905"><ele>146.0</ele><time>2026-04-06T07:11:37.084Z</time></trkpt><trkpt lat="41.0911233" lon="14.357765"><ele>145.5</ele><time>2026-04-06T07:11:39.085Z</time></trkpt><trkpt lat="41.0911683" lon="14.3576217"><ele>145.0</ele><time>2026-04-06T07:11:41.084Z</time></trkpt><trkpt lat="41.091215" lon="14.3574817"><ele>145.0</ele><time>2026-04-06T07:11:43.084Z</time></trkpt><trkpt lat="41.0912783" lon="14.3573433"><ele>145.0</ele><time>2026-04-06T07:11:45.085Z</time></trkpt><trkpt lat="41.0913167" lon="14.3572017"><ele>145.0</ele><time>2026-04-06T07:11:47.087Z</time></trkpt><trkpt lat="41.09136" lon="14.357065"><ele>145.0</ele><time>2026-04-06T07:11:49.085Z</time></trkpt><trkpt lat="41.091415" lon="14.35693"><ele>145.0</ele><time>2026-04-06T07:11:51.084Z</time></trkpt><trkpt lat="41.0914467" lon="14.3568"><ele>145.0</ele><time>2026-04-06T07:11:53.084Z</time></trkpt><trkpt lat="41.0915" lon="14.35668"><ele>145.0</ele><time>2026-04-06T07:11:55.086Z</time></trkpt><trkpt lat="41.0915717" lon="14.3565717"><ele>145.0</ele><time>2026-04-06T07:11:57.085Z</time></trkpt><trkpt lat="41.09162" lon="14.35646"><ele>145.0</ele><time>2026-04-06T07:11:59.086Z</time></trkpt><trkpt lat="41.0916767" lon="14.356365"><ele>145.0</ele><time>2026-04-06T07:12:01.086Z</time></trkpt><trkpt lat="41.0917417" lon="14.35629"><ele>145.0</ele><time>2026-04-06T07:12:03.085Z</time></trkpt><trkpt lat="41.091785" lon="14.3562117"><ele>145.0</ele><time>2026-04-06T07:12:05.086Z</time></trkpt><trkpt lat="41.09185" lon="14.3561417"><ele>145.0</ele><time>2026-04-06T07:12:07.085Z</time></trkpt><trkpt lat="41.0919133" lon="14.3560767"><ele>145.0</ele><time>2026-04-06T07:12:09.086Z</time></trkpt><trkpt lat="41.0919683" lon="14.3560167"><ele>145.0</ele><time>2026-04-06T07:12:11.085Z</time></trkpt><trkpt lat="41.09202" lon="14.3559383"><ele>145.0</ele><time>2026-04-06T07:12:13.086Z</time></trkpt><trkpt lat="41.09206" lon="14.355835"><ele>145.0</ele><time>2026-04-06T07:12:15.085Z</time></trkpt><trkpt lat="41.0921" lon="14.355715"><ele>145.0</ele><time>2026-04-06T07:12:17.085Z</time></trkpt><trkpt lat="41.0921317" lon="14.3555833"><ele>145.0</ele><time>2026-04-06T07:12:19.085Z</time></trkpt><trkpt lat="41.09218" lon="14.3554533"><ele>145.0</ele><time>2026-04-06T07:12:21.086Z</time></trkpt><trkpt lat="41.0922167" lon="14.3553217"><ele>144.8</ele><time>2026-04-06T07:12:23.118Z</time></trkpt><trkpt lat="41.0922633" lon="14.355215"><ele>144.6</ele><time>2026-04-06T07:12:25.086Z</time></trkpt><trkpt lat="41.092285" lon="14.3551033"><ele>144.4</ele><time>2026-04-06T07:12:27.085Z</time></trkpt><trkpt lat="41.0923333" lon="14.3549917"><ele>144.2</ele><time>2026-04-06T07:12:29.085Z</time></trkpt><trkpt lat="41.092415" lon="14.3549217"><ele>144.0</ele><time>2026-04-06T07:12:31.087Z</time></trkpt><trkpt lat="41.0925033" lon="14.3548933"><ele>144.0</ele><time>2026-04-06T07:12:33.086Z</time></trkpt><trkpt lat="41.0925783" lon="14.354815"><ele>144.0</ele><time>2026-04-06T07:12:35.087Z</time></trkpt><trkpt lat="41.0926467" lon="14.3547117"><ele>144.0</ele><time>2026-04-06T07:12:37.087Z</time></trkpt><trkpt lat="41.0926867" lon="14.3545867"><ele>144.0</ele><time>2026-04-06T07:12:39.088Z</time></trkpt><trkpt lat="41.0927" lon="14.3544567"><ele>144.0</ele><time>2026-04-06T07:12:41.087Z</time></trkpt><trkpt lat="41.0927167" lon="14.3543133"><ele>144.0</ele><time>2026-04-06T07:12:43.086Z</time></trkpt><trkpt lat="41.092745" lon="14.3541917"><ele>144.0</ele><time>2026-04-06T07:12:45.088Z</time></trkpt><trkpt lat="41.0927583" lon="14.3540733"><ele>144.0</ele><time>2026-04-06T07:12:47.086Z</time></trkpt><trkpt lat="41.0927783" lon="14.3539517"><ele>144.0</ele><time>2026-04-06T07:12:49.089Z</time></trkpt><trkpt lat="41.0928033" lon="14.3538483"><ele>144.0</ele><time>2026-04-06T07:12:51.086Z</time></trkpt><trkpt lat="41.09287" lon="14.3537983"><ele>144.0</ele><time>2026-04-06T07:12:53.087Z</time></trkpt><trkpt lat="41.0929317" lon="14.35378"><ele>143.33333333333334</ele><time>2026-04-06T07:12:55.088Z</time></trkpt><trkpt lat="41.09302" lon="14.35381"><ele>142.66666666666666</ele><time>2026-04-06T07:12:58.087Z</time></trkpt><trkpt lat="41.0930983" lon="14.3538217"><ele>142.0</ele><time>2026-04-06T07:13:00.087Z</time></trkpt><trkpt lat="41.093175" lon="14.353855"><ele>141.33333333333331</ele><time>2026-04-06T07:13:02.087Z</time></trkpt><trkpt lat="41.0932567" lon="14.3538867"><ele>140.66666666666666</ele><time>2026-04-06T07:13:04.087Z</time></trkpt><trkpt lat="41.0933417" lon="14.353905"><ele>140.0</ele><time>2026-04-06T07:13:06.087Z</time></trkpt><trkpt lat="41.0934133" lon="14.353935"><ele>141.14285714285714</ele><time>2026-04-06T07:13:08.087Z</time></trkpt><trkpt lat="41.0934767" lon="14.3539417"><ele>142.28571428571428</ele><time>2026-04-06T07:13:10.087Z</time></trkpt><trkpt lat="41.09355" lon="14.3539467"><ele>143.42857142857144</ele><time>2026-04-06T07:13:12.088Z</time></trkpt><trkpt lat="41.093625" lon="14.3539583"><ele>144.57142857142856</ele><time>2026-04-06T07:13:14.087Z</time></trkpt><trkpt lat="41.0937" lon="14.3539667"><ele>145.71428571428572</ele><time>2026-04-06T07:13:16.087Z</time></trkpt><trkpt lat="41.093775" lon="14.3539767"><ele>146.85714285714286</ele><time>2026-04-06T07:13:18.087Z</time></trkpt><trkpt lat="41.0938483" lon="14.3539967"><ele>148.0</ele><time>2026-04-06T07:13:20.088Z</time></trkpt><trkpt lat="41.0939233" lon="14.35401"><ele>148.0</ele><time>2026-04-06T07:13:22.087Z</time></trkpt><trkpt lat="41.0939967" lon="14.354045"><ele>148.0</ele><time>2026-04-06T07:13:24.087Z</time></trkpt><trkpt lat="41.0940617" lon="14.3540733"><ele>148.0</ele><time>2026-04-06T07:13:26.086Z</time></trkpt><trkpt lat="41.0941233" lon="14.3541317"><ele>148.0</ele><time>2026-04-06T07:13:28.086Z</time></trkpt><trkpt lat="41.094185" lon="14.35418"><ele>148.0</ele><time>2026-04-06T07:13:30.089Z</time></trkpt><trkpt lat="41.09425" lon="14.3542317"><ele>148.0</ele><time>2026-04-06T07:13:32.087Z</time></trkpt><trkpt lat="41.09432" lon="14.3542967"><ele>148.71428571428572</ele><time>2026-04-06T07:13:34.086Z</time></trkpt><trkpt lat="41.0943783" lon="14.35436"><ele>149.42857142857142</ele><time>2026-04-06T07:13:36.088Z</time></trkpt><trkpt lat="41.09444" lon="14.35442"><ele>150.14285714285714</ele><time>2026-04-06T07:13:38.087Z</time></trkpt><trkpt lat="41.0945067" lon="14.3544383"><ele>150.85714285714286</ele><time>2026-04-06T07:13:40.086Z</time></trkpt><trkpt lat="41.0945633" lon="14.3543683"><ele>151.57142857142858</ele><time>2026-04-06T07:13:43.085Z</time></trkpt><trkpt lat="41.0946017" lon="14.3542867"><ele>152.28571428571428</ele><time>2026-04-06T07:13:46.087Z</time></trkpt><trkpt lat="41.094625" lon="14.3542"><ele>153.0</ele><time>2026-04-06T07:13:48.087Z</time></trkpt><trkpt lat="41.09462" lon="14.3540983"><ele>153.0</ele><time>2026-04-06T07:13:50.088Z</time></trkpt><trkpt lat="41.094635" lon="14.3540033"><ele>153.0</ele><time>2026-04-06T07:13:52.087Z</time></trkpt><trkpt lat="41.09462" lon="14.35388"><ele>153.0</ele><time>2026-04-06T07:13:54.088Z</time></trkpt><trkpt lat="41.0946267" lon="14.3537967"><ele>153.0</ele><time>2026-04-06T07:13:56.089Z</time></trkpt><trkpt lat="41.0946333" lon="14.35369"><ele>153.0</ele><time>2026-04-06T07:13:58.087Z</time></trkpt><trkpt lat="41.094645" lon="14.3535917"><ele>153.0</ele><time>2026-04-06T07:14:00.088Z</time></trkpt><trkpt lat="41.0946483" lon="14.3534833"><ele>152.5</ele><time>2026-04-06T07:14:02.087Z</time></trkpt><trkpt lat="41.09467" lon="14.3533917"><ele>152.0</ele><time>2026-04-06T07:14:04.086Z</time></trkpt><trkpt lat="41.094665" lon="14.3532883"><ele>151.5</ele><time>2026-04-06T07:14:06.087Z</time></trkpt><trkpt lat="41.0946817" lon="14.353175"><ele>151.0</ele><time>2026-04-06T07:14:08.087Z</time></trkpt><trkpt lat="41.0946817" lon="14.3530683"><ele>150.5</ele><time>2026-04-06T07:14:10.088Z</time></trkpt><trkpt lat="41.0946767" lon="14.3529783"><ele>150.0</ele><time>2026-04-06T07:14:12.088Z</time></trkpt><trkpt lat="41.094665" lon="14.3528867"><ele>149.66666666666666</ele><time>2026-04-06T07:14:14.088Z</time></trkpt><trkpt lat="41.0946467" lon="14.35278"><ele>149.33333333333334</ele><time>2026-04-06T07:14:16.086Z</time></trkpt><trkpt lat="41.0946383" lon="14.35269"><ele>149.0</ele><time>2026-04-06T07:14:18.087Z</time></trkpt><trkpt lat="41.0946567" lon="14.3525933"><ele>148.66666666666669</ele><time>2026-04-06T07:14:20.089Z</time></trkpt><trkpt lat="41.094635" lon="14.3524817"><ele>148.33333333333334</ele><time>2026-04-06T07:14:22.086Z</time></trkpt><trkpt lat="41.0946233" lon="14.3523783"><ele>148.0</ele><time>2026-04-06T07:14:24.089Z</time></trkpt><trkpt lat="41.0946317" lon="14.3522567"><ele>147.4</ele><time>2026-04-06T07:14:26.086Z</time></trkpt><trkpt lat="41.0946117" lon="14.352125"><ele>146.8</ele><time>2026-04-06T07:14:28.087Z</time></trkpt><trkpt lat="41.0946033" lon="14.35199"><ele>146.2</ele><time>2026-04-06T07:14:30.088Z</time></trkpt><trkpt lat="41.09457" lon="14.35186"><ele>145.6</ele><time>2026-04-06T07:14:32.088Z</time></trkpt><trkpt lat="41.09456" lon="14.3517317"><ele>145.0</ele><time>2026-04-06T07:14:34.086Z</time></trkpt><trkpt lat="41.0945567" lon="14.3516167"><ele>145.0</ele><time>2026-04-06T07:14:36.089Z</time></trkpt><trkpt lat="41.09455" lon="14.351525"><ele>145.0</ele><time>2026-04-06T07:14:38.087Z</time></trkpt><trkpt lat="41.09455" lon="14.3513933"><ele>145.0</ele><time>2026-04-06T07:14:41.088Z</time></trkpt><trkpt lat="41.0945467" lon="14.3512917"><ele>145.0</ele><time>2026-04-06T07:14:43.086Z</time></trkpt><trkpt lat="41.0945467" lon="14.3511933"><ele>145.0</ele><time>2026-04-06T07:14:45.087Z</time></trkpt><trkpt lat="41.0945533" lon="14.3510933"><ele>145.0</ele><time>2026-04-06T07:14:47.087Z</time></trkpt><trkpt lat="41.0945667" lon="14.35098"><ele>144.83333333333334</ele><time>2026-04-06T07:14:49.085Z</time></trkpt><trkpt lat="41.0945817" lon="14.350875"><ele>144.66666666666669</ele><time>2026-04-06T07:14:51.085Z</time></trkpt><trkpt lat="41.094585" lon="14.350765"><ele>144.5</ele><time>2026-04-06T07:14:53.089Z</time></trkpt><trkpt lat="41.0945933" lon="14.3506617"><ele>144.33333333333334</ele><time>2026-04-06T07:14:55.087Z</time></trkpt><trkpt lat="41.09462" lon="14.3505683"><ele>144.16666666666666</ele><time>2026-04-06T07:14:57.088Z</time></trkpt><trkpt lat="41.094645" lon="14.3504483"><ele>144.0</ele><time>2026-04-06T07:14:59.087Z</time></trkpt><trkpt lat="41.09467" lon="14.3503217"><ele>143.2</ele><time>2026-04-06T07:15:01.087Z</time></trkpt><trkpt lat="41.094695" lon="14.3502117"><ele>142.4</ele><time>2026-04-06T07:15:03.088Z</time></trkpt><trkpt lat="41.094745" lon="14.350105"><ele>141.6</ele><time>2026-04-06T07:15:05.089Z</time></trkpt><trkpt lat="41.0948" lon="14.35002"><ele>140.8</ele><time>2026-04-06T07:15:07.085Z</time></trkpt><trkpt lat="41.0948783" lon="14.3499183"><ele>140.0</ele><time>2026-04-06T07:15:09.085Z</time></trkpt><trkpt lat="41.094945" lon="14.3498"><ele>141.0</ele><time>2026-04-06T07:15:11.084Z</time></trkpt><trkpt lat="41.0949983" lon="14.3496917"><ele>142.0</ele><time>2026-04-06T07:15:13.085Z</time></trkpt><trkpt lat="41.0950483" lon="14.34959"><ele>143.0</ele><time>2026-04-06T07:15:15.085Z</time></trkpt><trkpt lat="41.0950917" lon="14.3494983"><ele>144.0</ele><time>2026-04-06T07:15:17.085Z</time></trkpt><trkpt lat="41.0951417" lon="14.34942"><ele>145.0</ele><time>2026-04-06T07:15:19.085Z</time></trkpt><trkpt lat="41.095185" lon="14.3493417"><ele>146.0</ele><time>2026-04-06T07:15:21.085Z</time></trkpt><trkpt lat="41.0952283" lon="14.3492567"><ele>146.0</ele><time>2026-04-06T07:15:23.085Z</time></trkpt><trkpt lat="41.0952717" lon="14.3491933"><ele>146.0</ele><time>2026-04-06T07:15:25.084Z</time></trkpt><trkpt lat="41.0953167" lon="14.349095"><ele>146.0</ele><time>2026-04-06T07:15:27.084Z</time></trkpt><trkpt lat="41.0953683" lon="14.3490083"><ele>146.0</ele><time>2026-04-06T07:15:29.088Z</time></trkpt><trkpt lat="41.0954217" lon="14.34893"><ele>146.0</ele><time>2026-04-06T07:15:31.085Z</time></trkpt><trkpt lat="41.0954767" lon="14.34885"><ele>146.0</ele><time>2026-04-06T07:15:33.084Z</time></trkpt><trkpt lat="41.09553" lon="14.34878"><ele>145.5</ele><time>2026-04-06T07:15:35.084Z</time></trkpt><trkpt lat="41.0955767" lon="14.3487033"><ele>145.0</ele><time>2026-04-06T07:15:37.084Z</time></trkpt><trkpt lat="41.0956083" lon="14.3486267"><ele>144.5</ele><time>2026-04-06T07:15:39.085Z</time></trkpt><trkpt lat="41.0956417" lon="14.3485517"><ele>144.0</ele><time>2026-04-06T07:15:41.085Z</time></trkpt><trkpt lat="41.0956933" lon="14.3484583"><ele>143.5</ele><time>2026-04-06T07:15:43.085Z</time></trkpt><trkpt lat="41.09575" lon="14.3483717"><ele>143.0</ele><time>2026-04-06T07:15:45.084Z</time></trkpt><trkpt lat="41.0958117" lon="14.348295"><ele>144.33333333333331</ele><time>2026-04-06T07:15:47.086Z</time></trkpt><trkpt lat="41.095875" lon="14.34823"><ele>145.66666666666666</ele><time>2026-04-06T07:15:49.085Z</time></trkpt><trkpt lat="41.09594" lon="14.3481733"><ele>147.0</ele><time>2026-04-06T07:15:51.085Z</time></trkpt><trkpt lat="41.0960033" lon="14.3481"><ele>148.33333333333334</ele><time>2026-04-06T07:15:53.085Z</time></trkpt><trkpt lat="41.0960433" lon="14.348"><ele>149.66666666666669</ele><time>2026-04-06T07:15:55.085Z</time></trkpt><trkpt lat="41.0960867" lon="14.3479083"><ele>151.0</ele><time>2026-04-06T07:15:57.085Z</time></trkpt><trkpt lat="41.0961283" lon="14.34782"><ele>151.0</ele><time>2026-04-06T07:15:59.085Z</time></trkpt><trkpt lat="41.0961783" lon="14.3477417"><ele>151.0</ele><time>2026-04-06T07:16:01.084Z</time></trkpt><trkpt lat="41.09625" lon="14.347655"><ele>151.0</ele><time>2026-04-06T07:16:04.085Z</time></trkpt><trkpt lat="41.0962983" lon="14.3475767"><ele>151.0</ele><time>2026-04-06T07:16:06.087Z</time></trkpt><trkpt lat="41.096345" lon="14.3475"><ele>151.0</ele><time>2026-04-06T07:16:08.084Z</time></trkpt><trkpt lat="41.0963967" lon="14.3474183"><ele>151.0</ele><time>2026-04-06T07:16:10.087Z</time></trkpt><trkpt lat="41.096445" lon="14.347345"><ele>151.0</ele><time>2026-04-06T07:16:12.084Z</time></trkpt><trkpt lat="41.0964983" lon="14.3472767"><ele>151.0</ele><time>2026-04-06T07:16:14.085Z</time></trkpt><trkpt lat="41.0965367" lon="14.3472"><ele>151.0</ele><time>2026-04-06T07:16:16.085Z</time></trkpt><trkpt lat="41.0965833" lon="14.34712"><ele>151.0</ele><time>2026-04-06T07:16:18.085Z</time></trkpt><trkpt lat="41.096635" lon="14.3470433"><ele>151.0</ele><time>2026-04-06T07:16:20.084Z</time></trkpt><trkpt lat="41.0966867" lon="14.3469683"><ele>151.0</ele><time>2026-04-06T07:16:22.084Z</time></trkpt><trkpt lat="41.0967417" lon="14.3468867"><ele>151.5</ele><time>2026-04-06T07:16:24.085Z</time></trkpt><trkpt lat="41.0967833" lon="14.3468033"><ele>152.0</ele><time>2026-04-06T07:16:26.086Z</time></trkpt><trkpt lat="41.0968317" lon="14.346725"><ele>152.5</ele><time>2026-04-06T07:16:28.085Z</time></trkpt><trkpt lat="41.0968817" lon="14.3466483"><ele>153.0</ele><time>2026-04-06T07:16:30.085Z</time></trkpt><trkpt lat="41.096935" lon="14.346575"><ele>153.5</ele><time>2026-04-06T07:16:32.085Z</time></trkpt><trkpt lat="41.0969867" lon="14.3465017"><ele>154.0</ele><time>2026-04-06T07:16:34.085Z</time></trkpt><trkpt lat="41.0970333" lon="14.3464283"><ele>154.14285714285714</ele><time>2026-04-06T07:16:36.085Z</time></trkpt><trkpt lat="41.0970767" lon="14.3463533"><ele>154.28571428571428</ele><time>2026-04-06T07:16:38.086Z</time></trkpt><trkpt lat="41.09713" lon="14.34628"><ele>154.42857142857144</ele><time>2026-04-06T07:16:40.084Z</time></trkpt><trkpt lat="41.097155" lon="14.346195"><ele>154.57142857142856</ele><time>2026-04-06T07:16:42.084Z</time></trkpt><trkpt lat="41.0972" lon="14.3461233"><ele>154.71428571428572</ele><time>2026-04-06T07:16:44.085Z</time></trkpt><trkpt lat="41.097245" lon="14.346055"><ele>154.85714285714286</ele><time>2026-04-06T07:16:46.084Z</time></trkpt><trkpt lat="41.0973017" lon="14.3459933"><ele>155.0</ele><time>2026-04-06T07:16:48.085Z</time></trkpt><trkpt lat="41.0973583" lon="14.3459383"><ele>156.33333333333331</ele><time>2026-04-06T07:16:50.085Z</time></trkpt><trkpt lat="41.0974233" lon="14.3459183"><ele>157.66666666666666</ele><time>2026-04-06T07:16:52.084Z</time></trkpt><trkpt lat="41.0975083" lon="14.3459333"><ele>159.0</ele><time>2026-04-06T07:16:55.084Z</time></trkpt><trkpt lat="41.0975967" lon="14.3459667"><ele>160.33333333333334</ele><time>2026-04-06T07:16:58.085Z</time></trkpt><trkpt lat="41.09767" lon="14.34602"><ele>161.66666666666669</ele><time>2026-04-06T07:17:01.085Z</time></trkpt><trkpt lat="41.0977233" lon="14.346105"><ele>163.0</ele><time>2026-04-06T07:17:04.084Z</time></trkpt><trkpt lat="41.0977567" lon="14.3462"><ele>163.0</ele><time>2026-04-06T07:17:07.084Z</time></trkpt><trkpt lat="41.0977717" lon="14.3463117"><ele>163.0</ele><time>2026-04-06T07:17:10.084Z</time></trkpt><trkpt lat="41.09777" lon="14.34643"><ele>163.0</ele><time>2026-04-06T07:17:13.084Z</time></trkpt><trkpt lat="41.0977517" lon="14.3465467"><ele>163.0</ele><time>2026-04-06T07:17:16.085Z</time></trkpt><trkpt lat="41.09775" lon="14.3466717"><ele>163.0</ele><time>2026-04-06T07:17:19.085Z</time></trkpt><trkpt lat="41.0977383" lon="14.3467767"><ele>163.0</ele><time>2026-04-06T07:17:22.085Z</time></trkpt><trkpt lat="41.0977267" lon="14.3468933"><ele>163.33333333333334</ele><time>2026-04-06T07:17:25.086Z</time></trkpt><trkpt lat="41.097725" lon="14.347005"><ele>163.66666666666669</ele><time>2026-04-06T07:17:28.084Z</time></trkpt><trkpt lat="41.0977167" lon="14.3471267"><ele>164.0</ele><time>2026-04-06T07:17:31.084Z</time></trkpt><trkpt lat="41.0977" lon="14.3472517"><ele>164.33333333333334</ele><time>2026-04-06T07:17:34.084Z</time></trkpt><trkpt lat="41.0976833" lon="14.347335"><ele>164.66666666666666</ele><time>2026-04-06T07:17:36.083Z</time></trkpt><trkpt lat="41.0976717" lon="14.347455"><ele>165.0</ele><time>2026-04-06T07:17:39.083Z</time></trkpt><trkpt lat="41.097665" lon="14.3475667"><ele>165.66666666666666</ele><time>2026-04-06T07:17:42.084Z</time></trkpt><trkpt lat="41.0976667" lon="14.3476833"><ele>166.33333333333334</ele><time>2026-04-06T07:17:45.084Z</time></trkpt><trkpt lat="41.0976633" lon="14.347795"><ele>167.0</ele><time>2026-04-06T07:17:48.083Z</time></trkpt><trkpt lat="41.0976567" lon="14.34792"><ele>167.66666666666669</ele><time>2026-04-06T07:17:51.083Z</time></trkpt><trkpt lat="41.09764" lon="14.3480017"><ele>168.33333333333334</ele><time>2026-04-06T07:17:53.085Z</time></trkpt><trkpt lat="41.0976333" lon="14.3481183"><ele>169.0</ele><time>2026-04-06T07:17:56.084Z</time></trkpt><trkpt lat="41.0976183" lon="14.3482033"><ele>169.66666666666669</ele><time>2026-04-06T07:17:58.084Z</time></trkpt><trkpt lat="41.0976067" lon="14.3483117"><ele>170.33333333333334</ele><time>2026-04-06T07:18:01.084Z</time></trkpt><trkpt lat="41.09761" lon="14.348415"><ele>171.0</ele><time>2026-04-06T07:18:04.085Z</time></trkpt><trkpt lat="41.0975883" lon="14.34852"><ele>171.66666666666666</ele><time>2026-04-06T07:18:07.083Z</time></trkpt><trkpt lat="41.0975833" lon="14.3486217"><ele>172.33333333333331</ele><time>2026-04-06T07:18:10.086Z</time></trkpt><trkpt lat="41.0975667" lon="14.3487433"><ele>173.0</ele><time>2026-04-06T07:18:13.083Z</time></trkpt><trkpt lat="41.0975667" lon="14.3488317"><ele>173.83333333333331</ele><time>2026-04-06T07:18:15.084Z</time></trkpt><trkpt lat="41.0975567" lon="14.3489167"><ele>174.66666666666666</ele><time>2026-04-06T07:18:17.084Z</time></trkpt><trkpt lat="41.0975483" lon="14.349"><ele>175.5</ele><time>2026-04-06T07:18:19.085Z</time></trkpt><trkpt lat="41.0975233" lon="14.34912"><ele>176.33333333333334</ele><time>2026-04-06T07:18:22.084Z</time></trkpt><trkpt lat="41.0975217" lon="14.34924"><ele>177.16666666666669</ele><time>2026-04-06T07:18:25.084Z</time></trkpt><trkpt lat="41.0975117" lon="14.3493667"><ele>178.0</ele><time>2026-04-06T07:18:28.084Z</time></trkpt><trkpt lat="41.0974867" lon="14.3494733"><ele>178.0</ele><time>2026-04-06T07:18:31.084Z</time></trkpt><trkpt lat="41.09748" lon="14.3495833"><ele>178.0</ele><time>2026-04-06T07:18:34.085Z</time></trkpt><trkpt lat="41.09747" lon="14.3496917"><ele>178.0</ele><time>2026-04-06T07:18:37.084Z</time></trkpt><trkpt lat="41.09746" lon="14.3498017"><ele>178.0</ele><time>2026-04-06T07:18:40.084Z</time></trkpt><trkpt lat="41.0974517" lon="14.3499133"><ele>178.0</ele><time>2026-04-06T07:18:43.084Z</time></trkpt><trkpt lat="41.0974333" lon="14.3500183"><ele>178.0</ele><time>2026-04-06T07:18:46.084Z</time></trkpt><trkpt lat="41.0974217" lon="14.3501283"><ele>176.33333333333334</ele><time>2026-04-06T07:18:49.084Z</time></trkpt><trkpt lat="41.097405" lon="14.3502333"><ele>174.66666666666669</ele><time>2026-04-06T07:18:52.084Z</time></trkpt><trkpt lat="41.09739" lon="14.350345"><ele>173.0</ele><time>2026-04-06T07:18:55.085Z</time></trkpt><trkpt lat="41.09737" lon="14.3504483"><ele>171.33333333333334</ele><time>2026-04-06T07:18:58.083Z</time></trkpt><trkpt lat="41.0973533" lon="14.3505583"><ele>169.66666666666666</ele><time>2026-04-06T07:19:01.084Z</time></trkpt><trkpt lat="41.0973483" lon="14.3506667"><ele>168.0</ele><time>2026-04-06T07:19:04.084Z</time></trkpt><trkpt lat="41.09735" lon="14.35078"><ele>168.0</ele><time>2026-04-06T07:19:07.083Z</time></trkpt><trkpt lat="41.0973367" lon="14.3508917"><ele>168.0</ele><time>2026-04-06T07:19:10.083Z</time></trkpt><trkpt lat="41.0973233" lon="14.35101"><ele>168.0</ele><time>2026-04-06T07:19:13.083Z</time></trkpt><trkpt lat="41.0973167" lon="14.351125"><ele>168.0</ele><time>2026-04-06T07:19:16.084Z</time></trkpt><trkpt lat="41.0973167" lon="14.3512417"><ele>168.0</ele><time>2026-04-06T07:19:19.084Z</time></trkpt><trkpt lat="41.0973067" lon="14.3513467"><ele>168.0</ele><time>2026-04-06T07:19:22.083Z</time></trkpt><trkpt lat="41.0973217" lon="14.3514633"><ele>168.33333333333334</ele><time>2026-04-06T07:19:25.084Z</time></trkpt><trkpt lat="41.097335" lon="14.3515683"><ele>168.66666666666666</ele><time>2026-04-06T07:19:28.083Z</time></trkpt><trkpt lat="41.0973567" lon="14.3516783"><ele>169.0</ele><time>2026-04-06T07:19:31.083Z</time></trkpt><trkpt lat="41.0973833" lon="14.35178"><ele>169.33333333333331</ele><time>2026-04-06T07:19:34.083Z</time></trkpt><trkpt lat="41.0974083" lon="14.3518567"><ele>169.66666666666666</ele><time>2026-04-06T07:19:36.084Z</time></trkpt><trkpt lat="41.097455" lon="14.35196"><ele>170.0</ele><time>2026-04-06T07:19:39.083Z</time></trkpt><trkpt lat="41.0974983" lon="14.3520517"><ele>172.66666666666666</ele><time>2026-04-06T07:19:42.083Z</time></trkpt><trkpt lat="41.09754" lon="14.3521333"><ele>175.33333333333331</ele><time>2026-04-06T07:19:45.083Z</time></trkpt><trkpt lat="41.0975917" lon="14.3522167"><ele>178.0</ele><time>2026-04-06T07:19:48.084Z</time></trkpt><trkpt lat="41.0976517" lon="14.3523017"><ele>180.66666666666666</ele><time>2026-04-06T07:19:51.083Z</time></trkpt><trkpt lat="41.0977117" lon="14.3523667"><ele>183.33333333333334</ele><time>2026-04-06T07:19:54.083Z</time></trkpt><trkpt lat="41.0977767" lon="14.3524217"><ele>186.0</ele><time>2026-04-06T07:19:57.083Z</time></trkpt><trkpt lat="41.09784" lon="14.3524833"><ele>186.0</ele><time>2026-04-06T07:20:00.084Z</time></trkpt><trkpt lat="41.0979017" lon="14.35254"><ele>186.0</ele><time>2026-04-06T07:20:03.083Z</time></trkpt><trkpt lat="41.0979683" lon="14.3525933"><ele>186.0</ele><time>2026-04-06T07:20:06.083Z</time></trkpt><trkpt lat="41.098025" lon="14.3526383"><ele>186.0</ele><time>2026-04-06T07:20:09.083Z</time></trkpt><trkpt lat="41.098105" lon="14.352695"><ele>186.0</ele><time>2026-04-06T07:20:12.084Z</time></trkpt><trkpt lat="41.0981717" lon="14.352775"><ele>186.0</ele><time>2026-04-06T07:20:15.084Z</time></trkpt><trkpt lat="41.098225" lon="14.352865"><ele>186.33333333333334</ele><time>2026-04-06T07:20:18.085Z</time></trkpt><trkpt lat="41.0982667" lon="14.3529617"><ele>186.66666666666666</ele><time>2026-04-06T07:20:21.083Z</time></trkpt><trkpt lat="41.0982933" lon="14.35307"><ele>187.0</ele><time>2026-04-06T07:20:24.085Z</time></trkpt><trkpt lat="41.0982933" lon="14.35318"><ele>187.33333333333331</ele><time>2026-04-06T07:20:27.083Z</time></trkpt><trkpt lat="41.0982867" lon="14.3532733"><ele>187.66666666666666</ele><time>2026-04-06T07:20:30.083Z</time></trkpt><trkpt lat="41.0982533" lon="14.3533583"><ele>188.0</ele><time>2026-04-06T07:20:33.084Z</time></trkpt><trkpt lat="41.09819" lon="14.3534433"><ele>188.0</ele><time>2026-04-06T07:20:36.083Z</time></trkpt><trkpt lat="41.0981383" lon="14.3535317"><ele>188.0</ele><time>2026-04-06T07:20:39.085Z</time></trkpt><trkpt lat="41.0981017" lon="14.35363"><ele>188.0</ele><time>2026-04-06T07:20:42.084Z</time></trkpt><trkpt lat="41.098095" lon="14.35374"><ele>188.0</ele><time>2026-04-06T07:20:45.083Z</time></trkpt><trkpt lat="41.0981067" lon="14.3538433"><ele>188.0</ele><time>2026-04-06T07:20:48.084Z</time></trkpt><trkpt lat="41.098135" lon="14.3539483"><ele>188.0</ele><time>2026-04-06T07:20:51.083Z</time></trkpt><trkpt lat="41.098175" lon="14.3540533"><ele>188.57142857142856</ele><time>2026-04-06T07:20:54.084Z</time></trkpt><trkpt lat="41.098215" lon="14.3541583"><ele>189.14285714285714</ele><time>2026-04-06T07:20:57.083Z</time></trkpt><trkpt lat="41.0982433" lon="14.354235"><ele>189.71428571428572</ele><time>2026-04-06T07:21:00.084Z</time></trkpt><trkpt lat="41.0982717" lon="14.3543183"><ele>190.28571428571428</ele><time>2026-04-06T07:21:03.083Z</time></trkpt><trkpt lat="41.0982917" lon="14.3544217"><ele>190.85714285714286</ele><time>2026-04-06T07:21:06.083Z</time></trkpt><trkpt lat="41.09832" lon="14.3544983"><ele>191.42857142857142</ele><time>2026-04-06T07:21:08.085Z</time></trkpt><trkpt lat="41.0983483" lon="14.3546"><ele>192.0</ele><time>2026-04-06T07:21:11.084Z</time></trkpt><trkpt lat="41.09836" lon="14.3547017"><ele>192.5</ele><time>2026-04-06T07:21:14.085Z</time></trkpt><trkpt lat="41.0983567" lon="14.354795"><ele>193.0</ele><time>2026-04-06T07:21:17.084Z</time></trkpt><trkpt lat="41.098335" lon="14.3549"><ele>193.5</ele><time>2026-04-06T07:21:20.084Z</time></trkpt><trkpt lat="41.0983117" lon="14.3549983"><ele>194.0</ele><time>2026-04-06T07:21:23.083Z</time></trkpt><trkpt lat="41.0982583" lon="14.35509"><ele>194.5</ele><time>2026-04-06T07:21:26.087Z</time></trkpt><trkpt lat="41.0982117" lon="14.3551833"><ele>195.0</ele><time>2026-04-06T07:21:29.084Z</time></trkpt><trkpt lat="41.0981583" lon="14.3552833"><ele>195.0</ele><time>2026-04-06T07:21:32.084Z</time></trkpt><trkpt lat="41.098105" lon="14.3553717"><ele>195.0</ele><time>2026-04-06T07:21:35.085Z</time></trkpt><trkpt lat="41.0980517" lon="14.3554667"><ele>195.0</ele><time>2026-04-06T07:21:38.084Z</time></trkpt><trkpt lat="41.0980017" lon="14.3555533"><ele>195.0</ele><time>2026-04-06T07:21:41.086Z</time></trkpt><trkpt lat="41.0979583" lon="14.3556483"><ele>195.0</ele><time>2026-04-06T07:21:44.084Z</time></trkpt><trkpt lat="41.0979067" lon="14.3557233"><ele>195.0</ele><time>2026-04-06T07:21:47.085Z</time></trkpt><trkpt lat="41.0978617" lon="14.35582"><ele>195.5</ele><time>2026-04-06T07:21:50.085Z</time></trkpt><trkpt lat="41.0978283" lon="14.3559233"><ele>196.0</ele><time>2026-04-06T07:21:53.087Z</time></trkpt><trkpt lat="41.0978117" lon="14.3560333"><ele>196.5</ele><time>2026-04-06T07:21:56.086Z</time></trkpt><trkpt lat="41.0978133" lon="14.3561517"><ele>197.0</ele><time>2026-04-06T07:21:59.085Z</time></trkpt><trkpt lat="41.0978333" lon="14.3562567"><ele>197.5</ele><time>2026-04-06T07:22:02.085Z</time></trkpt><trkpt lat="41.09785" lon="14.3563683"><ele>198.0</ele><time>2026-04-06T07:22:05.086Z</time></trkpt><trkpt lat="41.0978817" lon="14.3564433"><ele>198.0</ele><time>2026-04-06T07:22:07.084Z</time></trkpt><trkpt lat="41.097915" lon="14.356515"><ele>198.0</ele><time>2026-04-06T07:22:09.084Z</time></trkpt><trkpt lat="41.0979483" lon="14.35659"><ele>198.0</ele><time>2026-04-06T07:22:11.084Z</time></trkpt><trkpt lat="41.097985" lon="14.35666"><ele>198.0</ele><time>2026-04-06T07:22:13.084Z</time></trkpt><trkpt lat="41.0980367" lon="14.3567483"><ele>198.0</ele><time>2026-04-06T07:22:16.084Z</time></trkpt><trkpt lat="41.098095" lon="14.3568333"><ele>198.0</ele><time>2026-04-06T07:22:19.085Z</time></trkpt><trkpt lat="41.098135" lon="14.3569133"><ele>198.0</ele><time>2026-04-06T07:22:22.083Z</time></trkpt><trkpt lat="41.09819" lon="14.3569967"><ele>200.5</ele><time>2026-04-06T07:22:25.084Z</time></trkpt><trkpt lat="41.0982517" lon="14.3570633"><ele>203.0</ele><time>2026-04-06T07:22:28.084Z</time></trkpt><trkpt lat="41.09831" lon="14.357135"><ele>205.5</ele><time>2026-04-06T07:22:31.083Z</time></trkpt><trkpt lat="41.0983717" lon="14.3572017"><ele>208.0</ele><time>2026-04-06T07:22:34.083Z</time></trkpt><trkpt lat="41.0984383" lon="14.3572767"><ele>210.5</ele><time>2026-04-06T07:22:37.083Z</time></trkpt><trkpt lat="41.0985017" lon="14.35736"><ele>213.0</ele><time>2026-04-06T07:22:40.083Z</time></trkpt><trkpt lat="41.0985733" lon="14.3574317"><ele>213.0</ele><time>2026-04-06T07:22:43.084Z</time></trkpt><trkpt lat="41.09864" lon="14.35751"><ele>213.0</ele><time>2026-04-06T07:22:46.083Z</time></trkpt><trkpt lat="41.0986917" lon="14.3576117"><ele>213.0</ele><time>2026-04-06T07:22:49.084Z</time></trkpt><trkpt lat="41.0987217" lon="14.3576883"><ele>213.0</ele><time>2026-04-06T07:22:51.083Z</time></trkpt><trkpt lat="41.0987567" lon="14.3577933"><ele>213.0</ele><time>2026-04-06T07:22:54.084Z</time></trkpt><trkpt lat="41.0987933" lon="14.3578933"><ele>213.0</ele><time>2026-04-06T07:22:57.084Z</time></trkpt><trkpt lat="41.0988117" lon="14.3579783"><ele>212.66666666666666</ele><time>2026-04-06T07:23:00.085Z</time></trkpt><trkpt lat="41.098815" lon="14.358085"><ele>212.33333333333331</ele><time>2026-04-06T07:23:03.084Z</time></trkpt><trkpt lat="41.0988283" lon="14.3581667"><ele>212.0</ele><time>2026-04-06T07:23:05.084Z</time></trkpt><trkpt lat="41.09884" lon="14.3582883"><ele>211.66666666666666</ele><time>2026-04-06T07:23:08.083Z</time></trkpt><trkpt lat="41.0988467" lon="14.3583767"><ele>211.33333333333331</ele><time>2026-04-06T07:23:10.083Z</time></trkpt><trkpt lat="41.0988417" lon="14.358495"><ele>211.0</ele><time>2026-04-06T07:23:13.084Z</time></trkpt><trkpt lat="41.09884" lon="14.358615"><ele>210.99999999999997</ele><time>2026-04-06T07:23:16.084Z</time></trkpt><trkpt lat="41.098845" lon="14.3587067"><ele>211.0</ele><time>2026-04-06T07:23:18.083Z</time></trkpt><trkpt lat="41.098845" lon="14.358825"><ele>211.0</ele><time>2026-04-06T07:23:21.084Z</time></trkpt><trkpt lat="41.0988567" lon="14.3589417"><ele>211.0</ele><time>2026-04-06T07:23:24.084Z</time></trkpt><trkpt lat="41.0988617" lon="14.35906"><ele>210.99999999999997</ele><time>2026-04-06T07:23:27.083Z</time></trkpt><trkpt lat="41.0988533" lon="14.3591733"><ele>211.0</ele><time>2026-04-06T07:23:30.084Z</time></trkpt><trkpt lat="41.098845" lon="14.3592817"><ele>211.85714285714286</ele><time>2026-04-06T07:23:33.084Z</time></trkpt><trkpt lat="41.0988417" lon="14.3593933"><ele>212.71428571428572</ele><time>2026-04-06T07:23:36.084Z</time></trkpt><trkpt lat="41.098835" lon="14.3595083"><ele>213.57142857142856</ele><time>2026-04-06T07:23:39.084Z</time></trkpt><trkpt lat="41.0988417" lon="14.3595933"><ele>214.42857142857144</ele><time>2026-04-06T07:23:41.084Z</time></trkpt><trkpt lat="41.0988433" lon="14.3596783"><ele>215.28571428571428</ele><time>2026-04-06T07:23:43.084Z</time></trkpt><trkpt lat="41.0988433" lon="14.3597633"><ele>216.14285714285714</ele><time>2026-04-06T07:23:45.084Z</time></trkpt><trkpt lat="41.0988417" lon="14.3598567"><ele>217.0</ele><time>2026-04-06T07:23:47.083Z</time></trkpt><trkpt lat="41.0988167" lon="14.35997"><ele>219.28571428571428</ele><time>2026-04-06T07:23:50.084Z</time></trkpt><trkpt lat="41.09875" lon="14.3600233"><ele>221.57142857142856</ele><time>2026-04-06T07:23:53.085Z</time></trkpt><trkpt lat="41.09868" lon="14.3600467"><ele>223.85714285714286</ele><time>2026-04-06T07:23:55.084Z</time></trkpt><trkpt lat="41.09861" lon="14.36006"><ele>226.14285714285714</ele><time>2026-04-06T07:23:57.084Z</time></trkpt><trkpt lat="41.0985367" lon="14.3600533"><ele>228.42857142857142</ele><time>2026-04-06T07:23:59.086Z</time></trkpt><trkpt lat="41.0984783" lon="14.3600217"><ele>230.71428571428572</ele><time>2026-04-06T07:24:01.085Z</time></trkpt><trkpt lat="41.0984117" lon="14.3599433"><ele>233.0</ele><time>2026-04-06T07:24:04.084Z</time></trkpt><trkpt lat="41.0983583" lon="14.3598783"><ele>233.0</ele><time>2026-04-06T07:24:06.085Z</time></trkpt><trkpt lat="41.0983067" lon="14.3598183"><ele>233.0</ele><time>2026-04-06T07:24:08.084Z</time></trkpt><trkpt lat="41.0982433" lon="14.35977"><ele>233.0</ele><time>2026-04-06T07:24:10.083Z</time></trkpt><trkpt lat="41.0981783" lon="14.35973"><ele>233.0</ele><time>2026-04-06T07:24:12.084Z</time></trkpt><trkpt lat="41.0981167" lon="14.3597067"><ele>233.0</ele><time>2026-04-06T07:24:14.084Z</time></trkpt><trkpt lat="41.09803" lon="14.3596717"><ele>233.0</ele><time>2026-04-06T07:24:17.083Z</time></trkpt><trkpt lat="41.0979617" lon="14.3596483"><ele>233.0</ele><time>2026-04-06T07:24:19.085Z</time></trkpt><trkpt lat="41.0978883" lon="14.359625"><ele>230.00000000000003</ele><time>2026-04-06T07:24:21.084Z</time></trkpt><trkpt lat="41.09782" lon="14.3596117"><ele>227.0</ele><time>2026-04-06T07:24:23.084Z</time></trkpt><trkpt lat="41.0977517" lon="14.359605"><ele>224.0</ele><time>2026-04-06T07:24:25.083Z</time></trkpt><trkpt lat="41.097685" lon="14.3595967"><ele>221.0</ele><time>2026-04-06T07:24:27.083Z</time></trkpt><trkpt lat="41.097595" lon="14.3595967"><ele>218.00000000000003</ele><time>2026-04-06T07:24:30.084Z</time></trkpt><trkpt lat="41.0975017" lon="14.3596067"><ele>215.0</ele><time>2026-04-06T07:24:33.083Z</time></trkpt><trkpt lat="41.0974383" lon="14.3596233"><ele>214.85714285714286</ele><time>2026-04-06T07:24:35.083Z</time></trkpt><trkpt lat="41.097375" lon="14.3596433"><ele>214.71428571428572</ele><time>2026-04-06T07:24:37.083Z</time></trkpt><trkpt lat="41.0973" lon="14.35966"><ele>214.57142857142858</ele><time>2026-04-06T07:24:39.088Z</time></trkpt><trkpt lat="41.0972317" lon="14.3596817"><ele>214.42857142857144</ele><time>2026-04-06T07:24:41.085Z</time></trkpt><trkpt lat="41.0971633" lon="14.3597067"><ele>214.28571428571428</ele><time>2026-04-06T07:24:43.085Z</time></trkpt><trkpt lat="41.0971017" lon="14.35974"><ele>214.14285714285717</ele><time>2026-04-06T07:24:45.083Z</time></trkpt><trkpt lat="41.097025" lon="14.3597817"><ele>214.0</ele><time>2026-04-06T07:24:48.12Z</time></trkpt><trkpt lat="41.0969383" lon="14.3598217"><ele>214.83333333333331</ele><time>2026-04-06T07:24:51.084Z</time></trkpt><trkpt lat="41.096855" lon="14.359855"><ele>215.66666666666666</ele><time>2026-04-06T07:24:54.084Z</time></trkpt><trkpt lat="41.0967517" lon="14.3598917"><ele>216.5</ele><time>2026-04-06T07:24:57.084Z</time></trkpt><trkpt lat="41.09667" lon="14.3599233"><ele>217.33333333333331</ele><time>2026-04-06T07:24:59.089Z</time></trkpt><trkpt lat="41.09659" lon="14.35997"><ele>218.16666666666666</ele><time>2026-04-06T07:25:02.085Z</time></trkpt><trkpt lat="41.09652" lon="14.3600233"><ele>219.0</ele><time>2026-04-06T07:25:05.084Z</time></trkpt><trkpt lat="41.0964533" lon="14.36008"><ele>219.0</ele><time>2026-04-06T07:25:08.086Z</time></trkpt><trkpt lat="41.0963967" lon="14.36013"><ele>219.0</ele><time>2026-04-06T07:25:10.083Z</time></trkpt><trkpt lat="41.096335" lon="14.3602"><ele>219.0</ele><time>2026-04-06T07:25:13.086Z</time></trkpt><trkpt lat="41.0962667" lon="14.360265"><ele>219.0</ele><time>2026-04-06T07:25:16.084Z</time></trkpt><trkpt lat="41.0962017" lon="14.36034"><ele>219.0</ele><time>2026-04-06T07:25:19.091Z</time></trkpt><trkpt lat="41.0961533" lon="14.3604133"><ele>219.0</ele><time>2026-04-06T07:25:22.087Z</time></trkpt><trkpt lat="41.096085" lon="14.3605217"><ele>222.66666666666666</ele><time>2026-04-06T07:25:26.095Z</time></trkpt><trkpt lat="41.0960383" lon="14.36062"><ele>226.33333333333331</ele><time>2026-04-06T07:25:29.1Z</time></trkpt><trkpt lat="41.0959883" lon="14.3606967"><ele>230.0</ele><time>2026-04-06T07:25:32.129Z</time></trkpt><trkpt lat="41.0959283" lon="14.3608083"><ele>233.66666666666666</ele><time>2026-04-06T07:25:35.088Z</time></trkpt><trkpt lat="41.0958867" lon="14.3608733"><ele>237.33333333333331</ele><time>2026-04-06T07:25:37.085Z</time></trkpt><trkpt lat="41.0958483" lon="14.3609733"><ele>241.0</ele><time>2026-04-06T07:25:40.084Z</time></trkpt><trkpt lat="41.0957917" lon="14.3610917"><ele>241.0</ele><time>2026-04-06T07:25:43.084Z</time></trkpt><trkpt lat="41.095755" lon="14.36116"><ele>241.00000000000003</ele><time>2026-04-06T07:25:45.084Z</time></trkpt><trkpt lat="41.0957067" lon="14.361225"><ele>241.0</ele><time>2026-04-06T07:25:47.093Z</time></trkpt><trkpt lat="41.0956667" lon="14.3612967"><ele>241.0</ele><time>2026-04-06T07:25:49.084Z</time></trkpt><trkpt lat="41.0956083" lon="14.3613933"><ele>241.00000000000003</ele><time>2026-04-06T07:25:52.084Z</time></trkpt><trkpt lat="41.0955667" lon="14.3614583"><ele>241.0</ele><time>2026-04-06T07:25:54.084Z</time></trkpt><trkpt lat="41.095525" lon="14.3615333"><ele>241.0</ele><time>2026-04-06T07:25:56.085Z</time></trkpt><trkpt lat="41.0954833" lon="14.3616017"><ele>240.16666666666666</ele><time>2026-04-06T07:25:58.084Z</time></trkpt><trkpt lat="41.0954233" lon="14.3616967"><ele>239.33333333333331</ele><time>2026-04-06T07:26:01.085Z</time></trkpt><trkpt lat="41.0953483" lon="14.3617617"><ele>238.5</ele><time>2026-04-06T07:26:04.085Z</time></trkpt><trkpt lat="41.0952967" lon="14.361845"><ele>237.66666666666669</ele><time>2026-04-06T07:26:07.085Z</time></trkpt><trkpt lat="41.09525" lon="14.3619367"><ele>236.83333333333334</ele><time>2026-04-06T07:26:10.087Z</time></trkpt><trkpt lat="41.095205" lon="14.3620433"><ele>236.0</ele><time>2026-04-06T07:26:13.087Z</time></trkpt><trkpt lat="41.0951567" lon="14.3621417"><ele>237.42857142857142</ele><time>2026-04-06T07:26:16.086Z</time></trkpt><trkpt lat="41.09509" lon="14.3621983"><ele>238.8571428571429</ele><time>2026-04-06T07:26:18.084Z</time></trkpt><trkpt lat="41.0950283" lon="14.36224"><ele>240.2857142857143</ele><time>2026-04-06T07:26:20.085Z</time></trkpt><trkpt lat="41.094955" lon="14.3623083"><ele>241.71428571428572</ele><time>2026-04-06T07:26:23.084Z</time></trkpt><trkpt lat="41.0949017" lon="14.3623583"><ele>243.14285714285717</ele><time>2026-04-06T07:26:25.084Z</time></trkpt><trkpt lat="41.0948317" lon="14.3624"><ele>244.5714285714286</ele><time>2026-04-06T07:26:27.084Z</time></trkpt><trkpt lat="41.0947717" lon="14.3624383"><ele>246.00000000000003</ele><time>2026-04-06T07:26:29.083Z</time></trkpt><trkpt lat="41.0947067" lon="14.3624683"><ele>246.00000000000003</ele><time>2026-04-06T07:26:31.085Z</time></trkpt><trkpt lat="41.0946433" lon="14.3625033"><ele>246.0</ele><time>2026-04-06T07:26:33.085Z</time></trkpt><trkpt lat="41.094585" lon="14.3625417"><ele>246.00000000000003</ele><time>2026-04-06T07:26:35.085Z</time></trkpt><trkpt lat="41.094525" lon="14.3625883"><ele>246.00000000000003</ele><time>2026-04-06T07:26:37.084Z</time></trkpt><trkpt lat="41.0944667" lon="14.3626533"><ele>246.0</ele><time>2026-04-06T07:26:39.085Z</time></trkpt><trkpt lat="41.094405" lon="14.3627233"><ele>246.00000000000003</ele><time>2026-04-06T07:26:41.09Z</time></trkpt><trkpt lat="41.0943533" lon="14.3627867"><ele>246.00000000000003</ele><time>2026-04-06T07:26:43.085Z</time></trkpt><trkpt lat="41.0942917" lon="14.3628483"><ele>246.00000000000003</ele><time>2026-04-06T07:26:45.084Z</time></trkpt><trkpt lat="41.094235" lon="14.3629183"><ele>246.0</ele><time>2026-04-06T07:26:47.084Z</time></trkpt><trkpt lat="41.094195" lon="14.362995"><ele>246.00000000000003</ele><time>2026-04-06T07:26:49.085Z</time></trkpt><trkpt lat="41.0941517" lon="14.36307"><ele>246.00000000000003</ele><time>2026-04-06T07:26:51.085Z</time></trkpt><trkpt lat="41.0941117" lon="14.3631417"><ele>246.0</ele><time>2026-04-06T07:26:53.084Z</time></trkpt><trkpt lat="41.094055" lon="14.3632433"><ele>246.00000000000003</ele><time>2026-04-06T07:26:56.084Z</time></trkpt><trkpt lat="41.094005" lon="14.3633017"><ele>246.00000000000003</ele><time>2026-04-06T07:26:58.086Z</time></trkpt><trkpt lat="41.09395" lon="14.3633983"><ele>244.33333333333334</ele><time>2026-04-06T07:27:01.084Z</time></trkpt><trkpt lat="41.0938817" lon="14.3634867"><ele>242.66666666666669</ele><time>2026-04-06T07:27:04.084Z</time></trkpt><trkpt lat="41.09382" lon="14.363575"><ele>241.0</ele><time>2026-04-06T07:27:07.084Z</time></trkpt><trkpt lat="41.0937567" lon="14.3636733"><ele>239.33333333333334</ele><time>2026-04-06T07:27:10.085Z</time></trkpt><trkpt lat="41.0937083" lon="14.36374"><ele>237.66666666666669</ele><time>2026-04-06T07:27:12.086Z</time></trkpt><trkpt lat="41.0936567" lon="14.363815"><ele>236.0</ele><time>2026-04-06T07:27:14.084Z</time></trkpt><trkpt lat="41.0936017" lon="14.3638883"><ele>238.85714285714283</ele><time>2026-04-06T07:27:16.084Z</time></trkpt><trkpt lat="41.0935567" lon="14.3639667"><ele>241.71428571428572</ele><time>2026-04-06T07:27:18.085Z</time></trkpt><trkpt lat="41.093515" lon="14.3640433"><ele>244.57142857142856</ele><time>2026-04-06T07:27:20.084Z</time></trkpt><trkpt lat="41.09347" lon="14.3641133"><ele>247.42857142857142</ele><time>2026-04-06T07:27:22.084Z</time></trkpt><trkpt lat="41.09343" lon="14.3641867"><ele>250.28571428571428</ele><time>2026-04-06T07:27:24.084Z</time></trkpt><trkpt lat="41.0933933" lon="14.364265"><ele>253.14285714285714</ele><time>2026-04-06T07:27:26.084Z</time></trkpt><trkpt lat="41.0933567" lon="14.3643383"><ele>256.0</ele><time>2026-04-06T07:27:28.085Z</time></trkpt><trkpt lat="41.0933317" lon="14.364415"><ele>256.0</ele><time>2026-04-06T07:27:30.086Z</time></trkpt><trkpt lat="41.0933183" lon="14.3645067"><ele>255.99999999999997</ele><time>2026-04-06T07:27:32.084Z</time></trkpt><trkpt lat="41.09332" lon="14.3646"><ele>256.0</ele><time>2026-04-06T07:27:34.085Z</time></trkpt><trkpt lat="41.0933317" lon="14.3646983"><ele>256.0</ele><time>2026-04-06T07:27:36.084Z</time></trkpt><trkpt lat="41.0933567" lon="14.36479"><ele>255.99999999999997</ele><time>2026-04-06T07:27:38.084Z</time></trkpt><trkpt lat="41.093395" lon="14.3648767"><ele>256.0</ele><time>2026-04-06T07:27:40.084Z</time></trkpt><trkpt lat="41.0934283" lon="14.3649733"><ele>256.0</ele><time>2026-04-06T07:27:42.086Z</time></trkpt><trkpt lat="41.0934617" lon="14.3650667"><ele>257.1428571428571</ele><time>2026-04-06T07:27:44.086Z</time></trkpt><trkpt lat="41.0935017" lon="14.3651467"><ele>258.2857142857143</ele><time>2026-04-06T07:27:46.085Z</time></trkpt><trkpt lat="41.09354" lon="14.365235"><ele>259.42857142857144</ele><time>2026-04-06T07:27:48.085Z</time></trkpt><trkpt lat="41.0935783" lon="14.365315"><ele>260.57142857142856</ele><time>2026-04-06T07:27:50.084Z</time></trkpt><trkpt lat="41.0936083" lon="14.3653967"><ele>261.7142857142857</ele><time>2026-04-06T07:27:52.084Z</time></trkpt><trkpt lat="41.093645" lon="14.3654683"><ele>262.85714285714283</ele><time>2026-04-06T07:27:54.085Z</time></trkpt><trkpt lat="41.0936783" lon="14.3655467"><ele>264.0</ele><time>2026-04-06T07:27:56.084Z</time></trkpt><trkpt lat="41.0937233" lon="14.3656617"><ele>266.3333333333333</ele><time>2026-04-06T07:27:59.084Z</time></trkpt><trkpt lat="41.0937717" lon="14.3657733"><ele>268.6666666666667</ele><time>2026-04-06T07:28:02.084Z</time></trkpt><trkpt lat="41.09381" lon="14.3658517"><ele>271.0</ele><time>2026-04-06T07:28:04.084Z</time></trkpt><trkpt lat="41.0938233" lon="14.3659383"><ele>273.33333333333337</ele><time>2026-04-06T07:28:06.086Z</time></trkpt><trkpt lat="41.09379" lon="14.3660433"><ele>275.6666666666667</ele><time>2026-04-06T07:28:09.084Z</time></trkpt><trkpt lat="41.0937183" lon="14.36606"><ele>278.0</ele><time>2026-04-06T07:28:12.084Z</time></trkpt><trkpt lat="41.0936483" lon="14.3660467"><ele>278.0</ele><time>2026-04-06T07:28:14.086Z</time></trkpt><trkpt lat="41.09355" lon="14.3659983"><ele>278.0</ele><time>2026-04-06T07:28:16.084Z</time></trkpt><trkpt lat="41.09348" lon="14.3659733"><ele>278.0</ele><time>2026-04-06T07:28:18.084Z</time></trkpt><trkpt lat="41.0934133" lon="14.36596"><ele>278.0</ele><time>2026-04-06T07:28:20.085Z</time></trkpt><trkpt lat="41.0933417" lon="14.3659483"><ele>278.0</ele><time>2026-04-06T07:28:22.085Z</time></trkpt><trkpt lat="41.0932683" lon="14.3659433"><ele>278.0</ele><time>2026-04-06T07:28:24.084Z</time></trkpt><trkpt lat="41.093185" lon="14.3659483"><ele>277.42857142857144</ele><time>2026-04-06T07:28:26.086Z</time></trkpt><trkpt lat="41.0931133" lon="14.3659733"><ele>276.8571428571429</ele><time>2026-04-06T07:28:28.085Z</time></trkpt><trkpt lat="41.0930417" lon="14.365995"><ele>276.28571428571433</ele><time>2026-04-06T07:28:30.084Z</time></trkpt><trkpt lat="41.0929717" lon="14.366015"><ele>275.7142857142857</ele><time>2026-04-06T07:28:32.084Z</time></trkpt><trkpt lat="41.0929033" lon="14.3660333"><ele>275.14285714285717</ele><time>2026-04-06T07:28:34.085Z</time></trkpt><trkpt lat="41.0928383" lon="14.3660517"><ele>274.5714285714286</ele><time>2026-04-06T07:28:36.084Z</time></trkpt><trkpt lat="41.09275" lon="14.36607"><ele>274.0</ele><time>2026-04-06T07:28:39.084Z</time></trkpt><trkpt lat="41.09268" lon="14.3660633"><ele>274.0</ele><time>2026-04-06T07:28:41.084Z</time></trkpt><trkpt lat="41.09261" lon="14.3660433"><ele>274.0</ele><time>2026-04-06T07:28:43.084Z</time></trkpt><trkpt lat="41.0925333" lon="14.3660317"><ele>274.0</ele><time>2026-04-06T07:28:45.084Z</time></trkpt><trkpt lat="41.0924617" lon="14.3660233"><ele>274.0</ele><time>2026-04-06T07:28:47.085Z</time></trkpt><trkpt lat="41.0923683" lon="14.3660133"><ele>274.0</ele><time>2026-04-06T07:28:50.084Z</time></trkpt><trkpt lat="41.0923" lon="14.36601"><ele>274.0</ele><time>2026-04-06T07:28:52.086Z</time></trkpt><trkpt lat="41.0922217" lon="14.366015"><ele>274.16666666666663</ele><time>2026-04-06T07:28:54.085Z</time></trkpt><trkpt lat="41.09213" lon="14.3660367"><ele>274.3333333333333</ele><time>2026-04-06T07:28:56.086Z</time></trkpt><trkpt lat="41.0920533" lon="14.3660633"><ele>274.5</ele><time>2026-04-06T07:28:58.086Z</time></trkpt><trkpt lat="41.0919833" lon="14.3660867"><ele>274.6666666666667</ele><time>2026-04-06T07:29:00.084Z</time></trkpt><trkpt lat="41.09191" lon="14.3661117"><ele>274.83333333333337</ele><time>2026-04-06T07:29:02.086Z</time></trkpt><trkpt lat="41.0918233" lon="14.3661317"><ele>275.0</ele><time>2026-04-06T07:29:04.084Z</time></trkpt><trkpt lat="41.0917433" lon="14.366135"><ele>275.0</ele><time>2026-04-06T07:29:06.085Z</time></trkpt><trkpt lat="41.0916633" lon="14.3661333"><ele>275.0</ele><time>2026-04-06T07:29:08.086Z</time></trkpt><trkpt lat="41.0915683" lon="14.3661433"><ele>275.0</ele><time>2026-04-06T07:29:11.085Z</time></trkpt><trkpt lat="41.09148" lon="14.3661333"><ele>275.0</ele><time>2026-04-06T07:29:13.085Z</time></trkpt><trkpt lat="41.091395" lon="14.3661383"><ele>275.0</ele><time>2026-04-06T07:29:15.085Z</time></trkpt><trkpt lat="41.0913133" lon="14.3661417"><ele>275.0</ele><time>2026-04-06T07:29:17.085Z</time></trkpt><trkpt lat="41.0912217" lon="14.3661383"><ele>275.0</ele><time>2026-04-06T07:29:19.084Z</time></trkpt><trkpt lat="41.0911317" lon="14.36615"><ele>275.0</ele><time>2026-04-06T07:29:21.084Z</time></trkpt><trkpt lat="41.0910483" lon="14.3661633"><ele>275.0</ele><time>2026-04-06T07:29:23.084Z</time></trkpt><trkpt lat="41.090965" lon="14.3661867"><ele>275.0</ele><time>2026-04-06T07:29:25.083Z</time></trkpt><trkpt lat="41.0908817" lon="14.3662083"><ele>275.0</ele><time>2026-04-06T07:29:27.083Z</time></trkpt><trkpt lat="41.0908" lon="14.3662367"><ele>275.0</ele><time>2026-04-06T07:29:29.083Z</time></trkpt><trkpt lat="41.0907183" lon="14.3662667"><ele>273.6666666666667</ele><time>2026-04-06T07:29:31.083Z</time></trkpt><trkpt lat="41.0906367" lon="14.3663083"><ele>272.33333333333337</ele><time>2026-04-06T07:29:33.084Z</time></trkpt><trkpt lat="41.09055" lon="14.3663533"><ele>271.0</ele><time>2026-04-06T07:29:35.084Z</time></trkpt><trkpt lat="41.0904717" lon="14.3663983"><ele>269.6666666666667</ele><time>2026-04-06T07:29:37.083Z</time></trkpt><trkpt lat="41.0903983" lon="14.3664467"><ele>268.3333333333333</ele><time>2026-04-06T07:29:39.083Z</time></trkpt><trkpt lat="41.0903267" lon="14.3665017"><ele>267.0</ele><time>2026-04-06T07:29:41.083Z</time></trkpt><trkpt lat="41.090255" lon="14.36656"><ele>270.8333333333333</ele><time>2026-04-06T07:29:43.084Z</time></trkpt><trkpt lat="41.0901917" lon="14.36664"><ele>274.6666666666667</ele><time>2026-04-06T07:29:45.083Z</time></trkpt><trkpt lat="41.0901233" lon="14.3667217"><ele>278.5</ele><time>2026-04-06T07:29:47.084Z</time></trkpt><trkpt lat="41.0900717" lon="14.366805"><ele>282.33333333333337</ele><time>2026-04-06T07:29:49.083Z</time></trkpt><trkpt lat="41.0900267" lon="14.3668983"><ele>286.1666666666667</ele><time>2026-04-06T07:29:51.083Z</time></trkpt><trkpt lat="41.089995" lon="14.3669933"><ele>290.0</ele><time>2026-04-06T07:29:53.083Z</time></trkpt><trkpt lat="41.0899567" lon="14.3671033"><ele>293.0</ele><time>2026-04-06T07:29:55.083Z</time></trkpt><trkpt lat="41.0899283" lon="14.3672083"><ele>296.0</ele><time>2026-04-06T07:29:57.083Z</time></trkpt><trkpt lat="41.0898883" lon="14.3673183"><ele>299.0</ele><time>2026-04-06T07:29:59.083Z</time></trkpt><trkpt lat="41.0898583" lon="14.3674267"><ele>302.0</ele><time>2026-04-06T07:30:01.083Z</time></trkpt><trkpt lat="41.0898283" lon="14.3675333"><ele>305.0</ele><time>2026-04-06T07:30:03.083Z</time></trkpt><trkpt lat="41.0898" lon="14.367635"><ele>308.0</ele><time>2026-04-06T07:30:05.083Z</time></trkpt><trkpt lat="41.089775" lon="14.3677333"><ele>304.5</ele><time>2026-04-06T07:30:07.083Z</time></trkpt><trkpt lat="41.0897583" lon="14.3678333"><ele>301.0</ele><time>2026-04-06T07:30:09.083Z</time></trkpt><trkpt lat="41.08974" lon="14.36794"><ele>297.5</ele><time>2026-04-06T07:30:11.083Z</time></trkpt><trkpt lat="41.08971" lon="14.3680267"><ele>294.0</ele><time>2026-04-06T07:30:13.083Z</time></trkpt><trkpt lat="41.0896683" lon="14.3681167"><ele>290.5</ele><time>2026-04-06T07:30:15.083Z</time></trkpt><trkpt lat="41.08962" lon="14.3682083"><ele>287.0</ele><time>2026-04-06T07:30:17.084Z</time></trkpt><trkpt lat="41.0895717" lon="14.3683"><ele>287.0</ele><time>2026-04-06T07:30:19.083Z</time></trkpt><trkpt lat="41.08953" lon="14.3683933"><ele>287.0</ele><time>2026-04-06T07:30:21.084Z</time></trkpt><trkpt lat="41.08948" lon="14.368485"><ele>287.0</ele><time>2026-04-06T07:30:23.083Z</time></trkpt><trkpt lat="41.0894317" lon="14.368565"><ele>287.0</ele><time>2026-04-06T07:30:25.084Z</time></trkpt><trkpt lat="41.0893817" lon="14.3686433"><ele>287.0</ele><time>2026-04-06T07:30:27.084Z</time></trkpt><trkpt lat="41.0893433" lon="14.3687333"><ele>287.0</ele><time>2026-04-06T07:30:29.083Z</time></trkpt><trkpt lat="41.08931" lon="14.3688333"><ele>290.6666666666667</ele><time>2026-04-06T07:30:31.084Z</time></trkpt><trkpt lat="41.0892833" lon="14.3689417"><ele>294.33333333333337</ele><time>2026-04-06T07:30:33.083Z</time></trkpt><trkpt lat="41.0892517" lon="14.3690533"><ele>298.0</ele><time>2026-04-06T07:30:35.086Z</time></trkpt><trkpt lat="41.0892283" lon="14.369165"><ele>301.6666666666667</ele><time>2026-04-06T07:30:37.083Z</time></trkpt><trkpt lat="41.0892" lon="14.3692683"><ele>305.3333333333333</ele><time>2026-04-06T07:30:39.083Z</time></trkpt><trkpt lat="41.089175" lon="14.3693667"><ele>309.0</ele><time>2026-04-06T07:30:41.083Z</time></trkpt><trkpt lat="41.089155" lon="14.369475"><ele>309.0</ele><time>2026-04-06T07:30:43.084Z</time></trkpt><trkpt lat="41.089135" lon="14.3695817"><ele>309.0</ele><time>2026-04-06T07:30:45.084Z</time></trkpt><trkpt lat="41.0891083" lon="14.3696817"><ele>309.0</ele><time>2026-04-06T07:30:47.085Z</time></trkpt><trkpt lat="41.0890833" lon="14.3697867"><ele>309.0</ele><time>2026-04-06T07:30:49.083Z</time></trkpt><trkpt lat="41.0890483" lon="14.3698817"><ele>309.0</ele><time>2026-04-06T07:30:51.084Z</time></trkpt><trkpt lat="41.08899" lon="14.3699317"><ele>309.0</ele><time>2026-04-06T07:30:53.084Z</time></trkpt><trkpt lat="41.0888867" lon="14.36989"><ele>310.0</ele><time>2026-04-06T07:30:56.085Z</time></trkpt><trkpt lat="41.0887833" lon="14.3698367"><ele>311.0</ele><time>2026-04-06T07:30:58.085Z</time></trkpt><trkpt lat="41.088675" lon="14.3698367"><ele>312.0</ele><time>2026-04-06T07:31:00.085Z</time></trkpt><trkpt lat="41.0885717" lon="14.3698667"><ele>313.0</ele><time>2026-04-06T07:31:02.084Z</time></trkpt><trkpt lat="41.0884767" lon="14.3699067"><ele>314.0</ele><time>2026-04-06T07:31:04.085Z</time></trkpt><trkpt lat="41.0883917" lon="14.36996"><ele>314.0</ele><time>2026-04-06T07:31:06.085Z</time></trkpt><trkpt lat="41.0882983" lon="14.3700033"><ele>314.0</ele><time>2026-04-06T07:31:08.084Z</time></trkpt><trkpt lat="41.0882167" lon="14.3700483"><ele>314.0</ele><time>2026-04-06T07:31:10.083Z</time></trkpt><trkpt lat="41.0881417" lon="14.3701033"><ele>314.0</ele><time>2026-04-06T07:31:12.085Z</time></trkpt><trkpt lat="41.0880683" lon="14.3701567"><ele>314.0</ele><time>2026-04-06T07:31:14.086Z</time></trkpt><trkpt lat="41.08801" lon="14.3702483"><ele>314.0</ele><time>2026-04-06T07:31:16.084Z</time></trkpt><trkpt lat="41.0879517" lon="14.3703233"><ele>314.5</ele><time>2026-04-06T07:31:18.084Z</time></trkpt><trkpt lat="41.0878933" lon="14.3704"><ele>315.0</ele><time>2026-04-06T07:31:20.084Z</time></trkpt><trkpt lat="41.087835" lon="14.3704867"><ele>315.5</ele><time>2026-04-06T07:31:22.085Z</time></trkpt><trkpt lat="41.0877783" lon="14.3705783"><ele>316.0</ele><time>2026-04-06T07:31:24.085Z</time></trkpt><trkpt lat="41.0877233" lon="14.3706633"><ele>316.5</ele><time>2026-04-06T07:31:26.086Z</time></trkpt><trkpt lat="41.0876733" lon="14.370755"><ele>317.0</ele><time>2026-04-06T07:31:28.085Z</time></trkpt><trkpt lat="41.0876217" lon="14.3708433"><ele>317.0</ele><time>2026-04-06T07:31:30.085Z</time></trkpt><trkpt lat="41.0875733" lon="14.3709283"><ele>317.0</ele><time>2026-04-06T07:31:32.085Z</time></trkpt><trkpt lat="41.0875283" lon="14.3710133"><ele>317.0</ele><time>2026-04-06T07:31:34.084Z</time></trkpt><trkpt lat="41.0874867" lon="14.3711083"><ele>317.0</ele><time>2026-04-06T07:31:36.085Z</time></trkpt><trkpt lat="41.0874517" lon="14.371205"><ele>317.0</ele><time>2026-04-06T07:31:38.086Z</time></trkpt><trkpt lat="41.0874117" lon="14.371295"><ele>317.0</ele><time>2026-04-06T07:31:40.086Z</time></trkpt><trkpt lat="41.0873733" lon="14.3713933"><ele>313.83333333333337</ele><time>2026-04-06T07:31:42.085Z</time></trkpt><trkpt lat="41.087325" lon="14.3714883"><ele>310.6666666666667</ele><time>2026-04-06T07:31:44.084Z</time></trkpt><trkpt lat="41.0872817" lon="14.37159"><ele>307.5</ele><time>2026-04-06T07:31:46.085Z</time></trkpt><trkpt lat="41.08725" lon="14.3717"><ele>304.3333333333333</ele><time>2026-04-06T07:31:48.085Z</time></trkpt><trkpt lat="41.0872217" lon="14.3717983"><ele>301.16666666666663</ele><time>2026-04-06T07:31:50.085Z</time></trkpt><trkpt lat="41.0871983" lon="14.3719033"><ele>298.0</ele><time>2026-04-06T07:31:52.084Z</time></trkpt><trkpt lat="41.0871733" lon="14.37201"><ele>298.0</ele><time>2026-04-06T07:31:54.085Z</time></trkpt><trkpt lat="41.08714" lon="14.3721267"><ele>298.0</ele><time>2026-04-06T07:31:56.084Z</time></trkpt><trkpt lat="41.0870967" lon="14.37224"><ele>298.0</ele><time>2026-04-06T07:31:58.085Z</time></trkpt><trkpt lat="41.0870567" lon="14.37235"><ele>298.0</ele><time>2026-04-06T07:32:00.085Z</time></trkpt><trkpt lat="41.0870167" lon="14.3724567"><ele>298.0</ele><time>2026-04-06T07:32:02.086Z</time></trkpt><trkpt lat="41.0869833" lon="14.37256"><ele>300.66666666666663</ele><time>2026-04-06T07:32:04.085Z</time></trkpt><trkpt lat="41.086955" lon="14.3726517"><ele>303.3333333333333</ele><time>2026-04-06T07:32:06.085Z</time></trkpt><trkpt lat="41.0869367" lon="14.3727517"><ele>306.0</ele><time>2026-04-06T07:32:08.086Z</time></trkpt><trkpt lat="41.0869183" lon="14.3728517"><ele>308.6666666666667</ele><time>2026-04-06T07:32:10.087Z</time></trkpt><trkpt lat="41.086905" lon="14.3729467"><ele>311.33333333333337</ele><time>2026-04-06T07:32:12.086Z</time></trkpt><trkpt lat="41.0868867" lon="14.3730483"><ele>314.0</ele><time>2026-04-06T07:32:14.086Z</time></trkpt><trkpt lat="41.0868633" lon="14.3731533"><ele>316.5</ele><time>2026-04-06T07:32:16.086Z</time></trkpt><trkpt lat="41.0868333" lon="14.37326"><ele>319.0</ele><time>2026-04-06T07:32:18.086Z</time></trkpt><trkpt lat="41.0868133" lon="14.373365"><ele>321.5</ele><time>2026-04-06T07:32:20.087Z</time></trkpt><trkpt lat="41.086795" lon="14.3734667"><ele>324.0</ele><time>2026-04-06T07:32:22.084Z</time></trkpt><trkpt lat="41.0867767" lon="14.37358"><ele>326.5</ele><time>2026-04-06T07:32:24.084Z</time></trkpt><trkpt lat="41.0867717" lon="14.3736933"><ele>329.0</ele><time>2026-04-06T07:32:26.086Z</time></trkpt><trkpt lat="41.0867567" lon="14.3738033"><ele>330.5</ele><time>2026-04-06T07:32:28.085Z</time></trkpt><trkpt lat="41.0867217" lon="14.3739133"><ele>332.0</ele><time>2026-04-06T07:32:30.084Z</time></trkpt><trkpt lat="41.08671" lon="14.3740267"><ele>333.5</ele><time>2026-04-06T07:32:32.084Z</time></trkpt><trkpt lat="41.0867233" lon="14.374135"><ele>335.0</ele><time>2026-04-06T07:32:34.084Z</time></trkpt><trkpt lat="41.086765" lon="14.3742417"><ele>336.5</ele><time>2026-04-06T07:32:36.084Z</time></trkpt><trkpt lat="41.0868267" lon="14.3743283"><ele>338.0</ele><time>2026-04-06T07:32:38.086Z</time></trkpt><trkpt lat="41.086895" lon="14.3743983"><ele>338.0</ele><time>2026-04-06T07:32:40.086Z</time></trkpt><trkpt lat="41.086965" lon="14.3744533"><ele>338.0</ele><time>2026-04-06T07:32:42.086Z</time></trkpt><trkpt lat="41.0870433" lon="14.3744967"><ele>338.0</ele><time>2026-04-06T07:32:44.084Z</time></trkpt><trkpt lat="41.0871283" lon="14.3745333"><ele>338.0</ele><time>2026-04-06T07:32:46.084Z</time></trkpt><trkpt lat="41.0872117" lon="14.3745783"><ele>338.0</ele><time>2026-04-06T07:32:48.086Z</time></trkpt><trkpt lat="41.08729" lon="14.37464"><ele>338.0</ele><time>2026-04-06T07:32:50.085Z</time></trkpt><trkpt lat="41.0873733" lon="14.3746917"><ele>339.6666666666667</ele><time>2026-04-06T07:32:52.086Z</time></trkpt><trkpt lat="41.08745" lon="14.374735"><ele>341.33333333333337</ele><time>2026-04-06T07:32:54.086Z</time></trkpt><trkpt lat="41.087535" lon="14.3747717"><ele>343.0</ele><time>2026-04-06T07:32:56.085Z</time></trkpt><trkpt lat="41.0876083" lon="14.3748183"><ele>344.6666666666667</ele><time>2026-04-06T07:32:58.084Z</time></trkpt><trkpt lat="41.0876767" lon="14.3748683"><ele>346.3333333333333</ele><time>2026-04-06T07:33:00.086Z</time></trkpt><trkpt lat="41.0877367" lon="14.374915"><ele>348.0</ele><time>2026-04-06T07:33:02.086Z</time></trkpt><trkpt lat="41.08781" lon="14.3749717"><ele>348.0</ele><time>2026-04-06T07:33:04.087Z</time></trkpt><trkpt lat="41.087875" lon="14.375045"><ele>348.0</ele><time>2026-04-06T07:33:06.086Z</time></trkpt><trkpt lat="41.08794" lon="14.37512"><ele>348.0</ele><time>2026-04-06T07:33:08.085Z</time></trkpt><trkpt lat="41.088005" lon="14.3751983"><ele>348.0</ele><time>2026-04-06T07:33:10.085Z</time></trkpt><trkpt lat="41.088055" lon="14.3752883"><ele>348.0</ele><time>2026-04-06T07:33:12.085Z</time></trkpt><trkpt lat="41.0881083" lon="14.375385"><ele>348.0</ele><time>2026-04-06T07:33:14.085Z</time></trkpt><trkpt lat="41.0881667" lon="14.3754917"><ele>348.2</ele><time>2026-04-06T07:33:16.085Z</time></trkpt><trkpt lat="41.0882317" lon="14.3756"><ele>348.4</ele><time>2026-04-06T07:33:18.084Z</time></trkpt><trkpt lat="41.08829" lon="14.3757067"><ele>348.59999999999997</ele><time>2026-04-06T07:33:20.085Z</time></trkpt><trkpt lat="41.0883583" lon="14.3758167"><ele>348.79999999999995</ele><time>2026-04-06T07:33:22.084Z</time></trkpt><trkpt lat="41.0884283" lon="14.3759283"><ele>349.0</ele><time>2026-04-06T07:33:24.085Z</time></trkpt><trkpt lat="41.0884983" lon="14.3760567"><ele>349.0</ele><time>2026-04-06T07:33:26.085Z</time></trkpt><trkpt lat="41.0885733" lon="14.3761883"><ele>349.0</ele><time>2026-04-06T07:33:28.087Z</time></trkpt><trkpt lat="41.0886117" lon="14.3762583"><ele>349.0</ele><time>2026-04-06T07:33:29.086Z</time></trkpt><trkpt lat="41.08869" lon="14.37639"><ele>349.0</ele><time>2026-04-06T07:33:31.085Z</time></trkpt><trkpt lat="41.0887317" lon="14.3764567"><ele>349.0</ele><time>2026-04-06T07:33:32.085Z</time></trkpt><trkpt lat="41.088775" lon="14.3765267"><ele>348.2857142857143</ele><time>2026-04-06T07:33:33.085Z</time></trkpt><trkpt lat="41.0888117" lon="14.3766083"><ele>347.57142857142856</ele><time>2026-04-06T07:33:34.085Z</time></trkpt><trkpt lat="41.0888467" lon="14.37669"><ele>346.8571428571429</ele><time>2026-04-06T07:33:35.084Z</time></trkpt><trkpt lat="41.0888817" lon="14.37677"><ele>346.1428571428571</ele><time>2026-04-06T07:33:36.086Z</time></trkpt><trkpt lat="41.0889117" lon="14.3768533"><ele>345.42857142857144</ele><time>2026-04-06T07:33:37.086Z</time></trkpt><trkpt lat="41.0889383" lon="14.3769383"><ele>344.7142857142857</ele><time>2026-04-06T07:33:38.086Z</time></trkpt><trkpt lat="41.0889683" lon="14.3770267"><ele>344.0</ele><time>2026-04-06T07:33:39.086Z</time></trkpt><trkpt lat="41.0889967" lon="14.3771117"><ele>343.8571428571429</ele><time>2026-04-06T07:33:40.086Z</time></trkpt><trkpt lat="41.0890317" lon="14.3771983"><ele>343.7142857142857</ele><time>2026-04-06T07:33:41.084Z</time></trkpt><trkpt lat="41.0890617" lon="14.377285"><ele>343.57142857142856</ele><time>2026-04-06T07:33:42.086Z</time></trkpt><trkpt lat="41.0890883" lon="14.3773717"><ele>343.42857142857144</ele><time>2026-04-06T07:33:43.085Z</time></trkpt><trkpt lat="41.0891167" lon="14.3774617"><ele>343.2857142857143</ele><time>2026-04-06T07:33:44.087Z</time></trkpt><trkpt lat="41.0891417" lon="14.377555"><ele>343.14285714285717</ele><time>2026-04-06T07:33:45.085Z</time></trkpt><trkpt lat="41.08917" lon="14.3776467"><ele>343.0</ele><time>2026-04-06T07:33:46.085Z</time></trkpt><trkpt lat="41.0892" lon="14.3777433"><ele>343.0</ele><time>2026-04-06T07:33:47.085Z</time></trkpt><trkpt lat="41.0892367" lon="14.37784"><ele>343.0</ele><time>2026-04-06T07:33:48.086Z</time></trkpt><trkpt lat="41.08927" lon="14.377935"><ele>343.0</ele><time>2026-04-06T07:33:49.084Z</time></trkpt><trkpt lat="41.0893083" lon="14.3780317"><ele>343.0</ele><time>2026-04-06T07:33:50.086Z</time></trkpt><trkpt lat="41.0893533" lon="14.378125"><ele>343.0</ele><time>2026-04-06T07:33:51.084Z</time></trkpt><trkpt lat="41.0894" lon="14.378225"><ele>343.0</ele><time>2026-04-06T07:33:52.084Z</time></trkpt><trkpt lat="41.0894467" lon="14.3783217"><ele>343.0</ele><time>2026-04-06T07:33:53.086Z</time></trkpt><trkpt lat="41.089495" lon="14.3784183"><ele>343.0</ele><time>2026-04-06T07:33:54.088Z</time></trkpt><trkpt lat="41.0895433" lon="14.3785033"><ele>343.0</ele><time>2026-04-06T07:33:55.086Z</time></trkpt><trkpt lat="41.0896" lon="14.3785817"><ele>343.0</ele><time>2026-04-06T07:33:56.084Z</time></trkpt><trkpt lat="41.08966" lon="14.3786533"><ele>343.0</ele><time>2026-04-06T07:33:57.085Z</time></trkpt><trkpt lat="41.0897183" lon="14.378725"><ele>343.0</ele><time>2026-04-06T07:33:58.084Z</time></trkpt><trkpt lat="41.089775" lon="14.3787967"><ele>342.66666666666663</ele><time>2026-04-06T07:33:59.085Z</time></trkpt><trkpt lat="41.0898317" lon="14.37887"><ele>342.3333333333333</ele><time>2026-04-06T07:34:00.085Z</time></trkpt><trkpt lat="41.0898883" lon="14.3789433"><ele>342.0</ele><time>2026-04-06T07:34:01.085Z</time></trkpt><trkpt lat="41.089945" lon="14.3790167"><ele>341.6666666666667</ele><time>2026-04-06T07:34:02.085Z</time></trkpt><trkpt lat="41.090005" lon="14.37909"><ele>341.33333333333337</ele><time>2026-04-06T07:34:03.085Z</time></trkpt><trkpt lat="41.0900683" lon="14.3791617"><ele>341.0</ele><time>2026-04-06T07:34:04.086Z</time></trkpt><trkpt lat="41.0901333" lon="14.3792267"><ele>341.0</ele><time>2026-04-06T07:34:05.085Z</time></trkpt><trkpt lat="41.0901983" lon="14.37929"><ele>341.0</ele><time>2026-04-06T07:34:06.085Z</time></trkpt><trkpt lat="41.0902617" lon="14.3793533"><ele>341.0</ele><time>2026-04-06T07:34:07.086Z</time></trkpt><trkpt lat="41.0903217" lon="14.3794183"><ele>341.0</ele><time>2026-04-06T07:34:08.085Z</time></trkpt><trkpt lat="41.0903833" lon="14.3794817"><ele>341.0</ele><time>2026-04-06T07:34:09.085Z</time></trkpt><trkpt lat="41.09045" lon="14.3795367"><ele>341.0</ele><time>2026-04-06T07:34:10.084Z</time></trkpt><trkpt lat="41.0905217" lon="14.379585"><ele>341.0</ele><time>2026-04-06T07:34:11.086Z</time></trkpt><trkpt lat="41.0905933" lon="14.3796317"><ele>341.0</ele><time>2026-04-06T07:34:12.085Z</time></trkpt><trkpt lat="41.0906683" lon="14.3796683"><ele>341.0</ele><time>2026-04-06T07:34:13.085Z</time></trkpt><trkpt lat="41.0907483" lon="14.379685"><ele>341.0</ele><time>2026-04-06T07:34:14.086Z</time></trkpt><trkpt lat="41.0908267" lon="14.37969"><ele>341.0</ele><time>2026-04-06T07:34:15.085Z</time></trkpt><trkpt lat="41.090905" lon="14.37969"><ele>341.0</ele><time>2026-04-06T07:34:16.084Z</time></trkpt><trkpt lat="41.09098" lon="14.379705"><ele>341.0</ele><time>2026-04-06T07:34:17.085Z</time></trkpt><trkpt lat="41.0910533" lon="14.37972"><ele>341.0</ele><time>2026-04-06T07:34:18.085Z</time></trkpt><trkpt lat="41.0911267" lon="14.3797217"><ele>341.0</ele><time>2026-04-06T07:34:19.084Z</time></trkpt><trkpt lat="41.0912" lon="14.3797283"><ele>341.0</ele><time>2026-04-06T07:34:20.085Z</time></trkpt><trkpt lat="41.0912733" lon="14.3797267"><ele>341.0</ele><time>2026-04-06T07:34:21.085Z</time></trkpt><trkpt lat="41.0913467" lon="14.37972"><ele>341.0</ele><time>2026-04-06T07:34:22.084Z</time></trkpt><trkpt lat="41.09142" lon="14.3797183"><ele>341.0</ele><time>2026-04-06T07:34:23.085Z</time></trkpt><trkpt lat="41.091495" lon="14.3797217"><ele>341.0</ele><time>2026-04-06T07:34:24.085Z</time></trkpt><trkpt lat="41.0915683" lon="14.3797267"><ele>341.0</ele><time>2026-04-06T07:34:25.085Z</time></trkpt><trkpt lat="41.09164" lon="14.3797283"><ele>341.0</ele><time>2026-04-06T07:34:26.086Z</time></trkpt><trkpt lat="41.0917117" lon="14.3797283"><ele>341.0</ele><time>2026-04-06T07:34:27.087Z</time></trkpt><trkpt lat="41.09178" lon="14.37973"><ele>341.0</ele><time>2026-04-06T07:34:28.085Z</time></trkpt><trkpt lat="41.091845" lon="14.37973"><ele>341.0</ele><time>2026-04-06T07:34:29.084Z</time></trkpt><trkpt lat="41.0919617" lon="14.3797383"><ele>341.4</ele><time>2026-04-06T07:34:31.085Z</time></trkpt><trkpt lat="41.0920767" lon="14.3797417"><ele>341.8</ele><time>2026-04-06T07:34:33.084Z</time></trkpt><trkpt lat="41.09219" lon="14.3797233"><ele>342.2</ele><time>2026-04-06T07:34:35.085Z</time></trkpt><trkpt lat="41.0922933" lon="14.3797083"><ele>342.59999999999997</ele><time>2026-04-06T07:34:37.085Z</time></trkpt><trkpt lat="41.092385" lon="14.3796817"><ele>343.0</ele><time>2026-04-06T07:34:39.085Z</time></trkpt><trkpt lat="41.09248" lon="14.3796717"><ele>345.0</ele><time>2026-04-06T07:34:41.084Z</time></trkpt><trkpt lat="41.0925733" lon="14.3796483"><ele>347.0</ele><time>2026-04-06T07:34:43.085Z</time></trkpt><trkpt lat="41.092665" lon="14.37963"><ele>349.0</ele><time>2026-04-06T07:34:45.084Z</time></trkpt><trkpt lat="41.0927533" lon="14.3796067"><ele>351.0</ele><time>2026-04-06T07:34:47.085Z</time></trkpt><trkpt lat="41.0928417" lon="14.3796"><ele>353.0</ele><time>2026-04-06T07:34:49.084Z</time></trkpt><trkpt lat="41.09293" lon="14.3795517"><ele>353.0</ele><time>2026-04-06T07:34:51.084Z</time></trkpt><trkpt lat="41.0930133" lon="14.3794917"><ele>353.0</ele><time>2026-04-06T07:34:53.085Z</time></trkpt><trkpt lat="41.0930833" lon="14.379415"><ele>353.0</ele><time>2026-04-06T07:34:55.084Z</time></trkpt><trkpt lat="41.0931333" lon="14.3793167"><ele>353.0</ele><time>2026-04-06T07:34:57.084Z</time></trkpt><trkpt lat="41.0931783" lon="14.3792183"><ele>353.0</ele><time>2026-04-06T07:34:59.084Z</time></trkpt><trkpt lat="41.09323" lon="14.3791033"><ele>353.1666666666667</ele><time>2026-04-06T07:35:01.084Z</time></trkpt><trkpt lat="41.09328" lon="14.3789983"><ele>353.33333333333337</ele><time>2026-04-06T07:35:03.085Z</time></trkpt><trkpt lat="41.0933233" lon="14.3789017"><ele>353.5</ele><time>2026-04-06T07:35:05.085Z</time></trkpt><trkpt lat="41.0933633" lon="14.378805"><ele>353.6666666666667</ele><time>2026-04-06T07:35:07.084Z</time></trkpt><trkpt lat="41.0934067" lon="14.3787117"><ele>353.8333333333333</ele><time>2026-04-06T07:35:09.084Z</time></trkpt><trkpt lat="41.093445" lon="14.37861"><ele>354.0</ele><time>2026-04-06T07:35:11.084Z</time></trkpt><trkpt lat="41.0934933" lon="14.378505"><ele>354.0</ele><time>2026-04-06T07:35:13.084Z</time></trkpt><trkpt lat="41.0935433" lon="14.378405"><ele>354.0</ele><time>2026-04-06T07:35:15.084Z</time></trkpt><trkpt lat="41.093595" lon="14.3782883"><ele>354.0</ele><time>2026-04-06T07:35:17.084Z</time></trkpt><trkpt lat="41.0936317" lon="14.3781817"><ele>354.0</ele><time>2026-04-06T07:35:19.084Z</time></trkpt><trkpt lat="41.093655" lon="14.3780783"><ele>354.0</ele><time>2026-04-06T07:35:21.084Z</time></trkpt><trkpt lat="41.0936817" lon="14.3779717"><ele>354.0</ele><time>2026-04-06T07:35:23.084Z</time></trkpt><trkpt lat="41.093695" lon="14.3778683"><ele>354.5714285714286</ele><time>2026-04-06T07:35:25.084Z</time></trkpt><trkpt lat="41.0937067" lon="14.3777683"><ele>355.1428571428571</ele><time>2026-04-06T07:35:27.085Z</time></trkpt><trkpt lat="41.0937017" lon="14.377675"><ele>355.7142857142857</ele><time>2026-04-06T07:35:29.084Z</time></trkpt><trkpt lat="41.0937133" lon="14.3775817"><ele>356.28571428571433</ele><time>2026-04-06T07:35:31.084Z</time></trkpt><trkpt lat="41.0937317" lon="14.377485"><ele>356.8571428571429</ele><time>2026-04-06T07:35:33.085Z</time></trkpt><trkpt lat="41.0937533" lon="14.3773967"><ele>357.42857142857144</ele><time>2026-04-06T07:35:35.084Z</time></trkpt><trkpt lat="41.0937783" lon="14.3773167"><ele>358.0</ele><time>2026-04-06T07:35:37.084Z</time></trkpt><trkpt lat="41.0938133" lon="14.377235"><ele>359.3333333333333</ele><time>2026-04-06T07:35:39.085Z</time></trkpt><trkpt lat="41.0938517" lon="14.377145"><ele>360.66666666666663</ele><time>2026-04-06T07:35:41.085Z</time></trkpt><trkpt lat="41.0938917" lon="14.3770567"><ele>362.0</ele><time>2026-04-06T07:35:43.085Z</time></trkpt><trkpt lat="41.093945" lon="14.376975"><ele>363.3333333333333</ele><time>2026-04-06T07:35:45.084Z</time></trkpt><trkpt lat="41.0940033" lon="14.3768983"><ele>364.6666666666667</ele><time>2026-04-06T07:35:47.084Z</time></trkpt><trkpt lat="41.0940517" lon="14.3768167"><ele>366.0</ele><time>2026-04-06T07:35:49.084Z</time></trkpt><trkpt lat="41.0941" lon="14.3767317"><ele>366.0</ele><time>2026-04-06T07:35:51.085Z</time></trkpt><trkpt lat="41.0941433" lon="14.37665"><ele>366.0</ele><time>2026-04-06T07:35:53.085Z</time></trkpt><trkpt lat="41.0941967" lon="14.3765683"><ele>366.0</ele><time>2026-04-06T07:35:55.084Z</time></trkpt><trkpt lat="41.0942367" lon="14.3764683"><ele>366.0</ele><time>2026-04-06T07:35:57.084Z</time></trkpt><trkpt lat="41.0942783" lon="14.3763617"><ele>366.0</ele><time>2026-04-06T07:35:59.084Z</time></trkpt><trkpt lat="41.0943067" lon="14.3762467"><ele>366.0</ele><time>2026-04-06T07:36:01.084Z</time></trkpt><trkpt lat="41.094335" lon="14.3761367"><ele>365.6</ele><time>2026-04-06T07:36:03.084Z</time></trkpt><trkpt lat="41.0943767" lon="14.376025"><ele>365.20000000000005</ele><time>2026-04-06T07:36:05.084Z</time></trkpt><trkpt lat="41.09441" lon="14.3759117"><ele>364.79999999999995</ele><time>2026-04-06T07:36:07.084Z</time></trkpt><trkpt lat="41.09444" lon="14.3757983"><ele>364.4</ele><time>2026-04-06T07:36:09.084Z</time></trkpt><trkpt lat="41.094475" lon="14.3756617"><ele>364.0</ele><time>2026-04-06T07:36:11.084Z</time></trkpt><trkpt lat="41.0945083" lon="14.375515"><ele>365.25</ele><time>2026-04-06T07:36:13.084Z</time></trkpt><trkpt lat="41.0945467" lon="14.3753567"><ele>366.5</ele><time>2026-04-06T07:36:15.087Z</time></trkpt><trkpt lat="41.0945883" lon="14.3752083"><ele>367.75</ele><time>2026-04-06T07:36:17.086Z</time></trkpt><trkpt lat="41.094625" lon="14.3750533"><ele>369.0</ele><time>2026-04-06T07:36:19.085Z</time></trkpt><trkpt lat="41.0946483" lon="14.3748967"><ele>369.0</ele><time>2026-04-06T07:36:21.084Z</time></trkpt><trkpt lat="41.0946783" lon="14.3747417"><ele>369.0</ele><time>2026-04-06T07:36:23.087Z</time></trkpt><trkpt lat="41.094705" lon="14.374585"><ele>369.0</ele><time>2026-04-06T07:36:25.084Z</time></trkpt><trkpt lat="41.0947433" lon="14.374435"><ele>369.0</ele><time>2026-04-06T07:36:27.086Z</time></trkpt><trkpt lat="41.0947867" lon="14.37429"><ele>369.6</ele><time>2026-04-06T07:36:29.084Z</time></trkpt><trkpt lat="41.0948033" lon="14.3741367"><ele>370.2</ele><time>2026-04-06T07:36:31.086Z</time></trkpt><trkpt lat="41.094805" lon="14.37398"><ele>370.8</ele><time>2026-04-06T07:36:33.085Z</time></trkpt><trkpt lat="41.094795" lon="14.3738967"><ele>371.40000000000003</ele><time>2026-04-06T07:36:34.084Z</time></trkpt><trkpt lat="41.0947517" lon="14.373735"><ele>372.0</ele><time>2026-04-06T07:36:36.084Z</time></trkpt><trkpt lat="41.09473" lon="14.3736533"><ele>372.0</ele><time>2026-04-06T07:36:37.084Z</time></trkpt><trkpt lat="41.094695" lon="14.3734983"><ele>372.0</ele><time>2026-04-06T07:36:39.085Z</time></trkpt><trkpt lat="41.0946667" lon="14.37335"><ele>372.0</ele><time>2026-04-06T07:36:41.084Z</time></trkpt><trkpt lat="41.0946533" lon="14.3732083"><ele>372.0</ele><time>2026-04-06T07:36:43.084Z</time></trkpt><trkpt lat="41.0946483" lon="14.3730667"><ele>373.25</ele><time>2026-04-06T07:36:45.084Z</time></trkpt><trkpt lat="41.0946567" lon="14.3729183"><ele>374.5</ele><time>2026-04-06T07:36:47.084Z</time></trkpt><trkpt lat="41.0946783" lon="14.37277"><ele>375.75</ele><time>2026-04-06T07:36:49.084Z</time></trkpt><trkpt lat="41.094715" lon="14.3726167"><ele>377.0</ele><time>2026-04-06T07:36:51.084Z</time></trkpt><trkpt lat="41.094765" lon="14.372475"><ele>377.0</ele><time>2026-04-06T07:36:53.085Z</time></trkpt><trkpt lat="41.0948167" lon="14.3723417"><ele>377.0</ele><time>2026-04-06T07:36:55.085Z</time></trkpt><trkpt lat="41.0948667" lon="14.372225"><ele>377.0</ele><time>2026-04-06T07:36:57.084Z</time></trkpt><trkpt lat="41.0949083" lon="14.3721183"><ele>377.0</ele><time>2026-04-06T07:36:59.085Z</time></trkpt><trkpt lat="41.094945" lon="14.37202"><ele>377.0</ele><time>2026-04-06T07:37:01.086Z</time></trkpt><trkpt lat="41.0949783" lon="14.3719217"><ele>376.33333333333337</ele><time>2026-04-06T07:37:03.084Z</time></trkpt><trkpt lat="41.0950317" lon="14.37184"><ele>375.6666666666667</ele><time>2026-04-06T07:37:05.084Z</time></trkpt><trkpt lat="41.0950783" lon="14.3717533"><ele>375.0</ele><time>2026-04-06T07:37:07.084Z</time></trkpt><trkpt lat="41.0951283" lon="14.3716633"><ele>374.3333333333333</ele><time>2026-04-06T07:37:09.085Z</time></trkpt><trkpt lat="41.0951767" lon="14.371565"><ele>373.66666666666663</ele><time>2026-04-06T07:37:11.084Z</time></trkpt><trkpt lat="41.0952317" lon="14.37148"><ele>373.0</ele><time>2026-04-06T07:37:13.084Z</time></trkpt><trkpt lat="41.0952833" lon="14.3714"><ele>373.5</ele><time>2026-04-06T07:37:15.085Z</time></trkpt><trkpt lat="41.09533" lon="14.37131"><ele>374.0</ele><time>2026-04-06T07:37:17.085Z</time></trkpt><trkpt lat="41.0953633" lon="14.371215"><ele>374.5</ele><time>2026-04-06T07:37:19.084Z</time></trkpt><trkpt lat="41.0954017" lon="14.371135"><ele>375.0</ele><time>2026-04-06T07:37:21.086Z</time></trkpt><trkpt lat="41.095455" lon="14.371055"><ele>375.5</ele><time>2026-04-06T07:37:23.087Z</time></trkpt><trkpt lat="41.0955033" lon="14.370965"><ele>376.0</ele><time>2026-04-06T07:37:25.085Z</time></trkpt><trkpt lat="41.09554" lon="14.3708717"><ele>376.0</ele><time>2026-04-06T07:37:27.084Z</time></trkpt><trkpt lat="41.0955683" lon="14.37078"><ele>376.0</ele><time>2026-04-06T07:37:29.084Z</time></trkpt><trkpt lat="41.0956017" lon="14.3706733"><ele>376.0</ele><time>2026-04-06T07:37:32.086Z</time></trkpt><trkpt lat="41.0956367" lon="14.3705783"><ele>376.0</ele><time>2026-04-06T07:37:35.086Z</time></trkpt><trkpt lat="41.0956517" lon="14.3704783"><ele>376.0</ele><time>2026-04-06T07:37:38.084Z</time></trkpt><trkpt lat="41.09565" lon="14.37039"><ele>376.0</ele><time>2026-04-06T07:37:41.086Z</time></trkpt><trkpt lat="41.09567" lon="14.3702917"><ele>376.5</ele><time>2026-04-06T07:37:45.084Z</time></trkpt><trkpt lat="41.0956733" lon="14.370195"><ele>377.0</ele><time>2026-04-06T07:37:48.084Z</time></trkpt><trkpt lat="41.0956633" lon="14.3700883"><ele>377.5</ele><time>2026-04-06T07:37:51.084Z</time></trkpt><trkpt lat="41.09566" lon="14.3700033"><ele>378.0</ele><time>2026-04-06T07:37:53.084Z</time></trkpt><trkpt lat="41.0956567" lon="14.3699183"><ele>378.5</ele><time>2026-04-06T07:37:55.084Z</time></trkpt><trkpt lat="41.09565" lon="14.369795"><ele>379.0</ele><time>2026-04-06T07:37:58.086Z</time></trkpt><trkpt lat="41.0956567" lon="14.3696817"><ele>379.0</ele><time>2026-04-06T07:38:01.085Z</time></trkpt><trkpt lat="41.0956517" lon="14.3695983"><ele>379.0</ele><time>2026-04-06T07:38:03.084Z</time></trkpt><trkpt lat="41.0956167" lon="14.3695"><ele>379.0</ele><time>2026-04-06T07:38:05.084Z</time></trkpt><trkpt lat="41.0956033" lon="14.369405"><ele>379.0</ele><time>2026-04-06T07:38:08.085Z</time></trkpt><trkpt lat="41.09561" lon="14.3692917"><ele>379.0</ele><time>2026-04-06T07:38:11.084Z</time></trkpt><trkpt lat="41.0956117" lon="14.3691817"><ele>379.0</ele><time>2026-04-06T07:38:14.084Z</time></trkpt><trkpt lat="41.095635" lon="14.3690633"><ele>379.0</ele><time>2026-04-06T07:38:17.085Z</time></trkpt><trkpt lat="41.0956717" lon="14.3689467"><ele>379.0</ele><time>2026-04-06T07:38:20.084Z</time></trkpt><trkpt lat="41.0956967" lon="14.3688667"><ele>379.0</ele><time>2026-04-06T07:38:22.089Z</time></trkpt><trkpt lat="41.0957233" lon="14.3687467"><ele>379.0</ele><time>2026-04-06T07:38:25.084Z</time></trkpt><trkpt lat="41.095755" lon="14.368625"><ele>379.0</ele><time>2026-04-06T07:38:28.084Z</time></trkpt><trkpt lat="41.0957717" lon="14.3685383"><ele>379.0</ele><time>2026-04-06T07:38:30.084Z</time></trkpt><trkpt lat="41.0957767" lon="14.36845"><ele>379.8571428571429</ele><time>2026-04-06T07:38:32.085Z</time></trkpt><trkpt lat="41.0958017" lon="14.3683733"><ele>380.7142857142857</ele><time>2026-04-06T07:38:34.084Z</time></trkpt><trkpt lat="41.0958383" lon="14.3683017"><ele>381.57142857142856</ele><time>2026-04-06T07:38:36.086Z</time></trkpt><trkpt lat="41.0958767" lon="14.3682217"><ele>382.42857142857144</ele><time>2026-04-06T07:38:38.085Z</time></trkpt><trkpt lat="41.0959083" lon="14.3681433"><ele>383.2857142857143</ele><time>2026-04-06T07:38:40.084Z</time></trkpt><trkpt lat="41.0959417" lon="14.36807"><ele>384.14285714285717</ele><time>2026-04-06T07:38:42.084Z</time></trkpt><trkpt lat="41.0959817" lon="14.3679633"><ele>385.0</ele><time>2026-04-06T07:38:45.086Z</time></trkpt><trkpt lat="41.09602" lon="14.3678933"><ele>385.0</ele><time>2026-04-06T07:38:47.085Z</time></trkpt><trkpt lat="41.0960583" lon="14.3678167"><ele>385.0</ele><time>2026-04-06T07:38:49.085Z</time></trkpt><trkpt lat="41.096095" lon="14.36774"><ele>385.0</ele><time>2026-04-06T07:38:51.084Z</time></trkpt><trkpt lat="41.0961133" lon="14.367625"><ele>385.0</ele><time>2026-04-06T07:38:54.085Z</time></trkpt><trkpt lat="41.0961483" lon="14.3675283"><ele>385.0</ele><time>2026-04-06T07:38:57.086Z</time></trkpt><trkpt lat="41.096175" lon="14.3674517"><ele>385.0</ele><time>2026-04-06T07:38:59.084Z</time></trkpt><trkpt lat="41.096205" lon="14.36737"><ele>385.0</ele><time>2026-04-06T07:39:01.084Z</time></trkpt><trkpt lat="41.0962367" lon="14.3672833"><ele>385.0</ele><time>2026-04-06T07:39:03.084Z</time></trkpt><trkpt lat="41.0962533" lon="14.3671967"><ele>385.0</ele><time>2026-04-06T07:39:05.085Z</time></trkpt><trkpt lat="41.0962583" lon="14.36711"><ele>385.0</ele><time>2026-04-06T07:39:07.088Z</time></trkpt><trkpt lat="41.0962717" lon="14.3670167"><ele>385.0</ele><time>2026-04-06T07:39:09.084Z</time></trkpt><trkpt lat="41.09625" lon="14.3669267"><ele>385.0</ele><time>2026-04-06T07:39:11.085Z</time></trkpt><trkpt lat="41.0962483" lon="14.3668183"><ele>385.0</ele><time>2026-04-06T07:39:14.09Z</time></trkpt><trkpt lat="41.096315" lon="14.3667883"><ele>385.0</ele><time>2026-04-06T07:39:17.085Z</time></trkpt><trkpt lat="41.09639" lon="14.3667967"><ele>383.83333333333337</ele><time>2026-04-06T07:39:20.085Z</time></trkpt><trkpt lat="41.0964667" lon="14.3667883"><ele>382.6666666666667</ele><time>2026-04-06T07:39:23.086Z</time></trkpt><trkpt lat="41.0965367" lon="14.3668083"><ele>381.5</ele><time>2026-04-06T07:39:26.085Z</time></trkpt><trkpt lat="41.0966217" lon="14.366815"><ele>380.33333333333337</ele><time>2026-04-06T07:39:29.085Z</time></trkpt><trkpt lat="41.0966867" lon="14.3668233"><ele>379.1666666666667</ele><time>2026-04-06T07:39:32.084Z</time></trkpt><trkpt lat="41.09676" lon="14.3668583"><ele>378.0</ele><time>2026-04-06T07:39:35.085Z</time></trkpt><trkpt lat="41.0968433" lon="14.3668717"><ele>380.85714285714283</ele><time>2026-04-06T07:39:38.084Z</time></trkpt><trkpt lat="41.0969283" lon="14.36686"><ele>383.7142857142857</ele><time>2026-04-06T07:39:41.083Z</time></trkpt><trkpt lat="41.0969917" lon="14.3668467"><ele>386.57142857142856</ele><time>2026-04-06T07:39:43.083Z</time></trkpt><trkpt lat="41.097055" lon="14.36686"><ele>389.42857142857144</ele><time>2026-04-06T07:39:45.083Z</time></trkpt><trkpt lat="41.097135" lon="14.3668733"><ele>392.2857142857143</ele><time>2026-04-06T07:39:48.083Z</time></trkpt><trkpt lat="41.0971917" lon="14.36691"><ele>395.1428571428571</ele><time>2026-04-06T07:39:50.085Z</time></trkpt><trkpt lat="41.097245" lon="14.3669817"><ele>398.0</ele><time>2026-04-06T07:39:56.085Z</time></trkpt><trkpt lat="41.0972417" lon="14.3670883"><ele>398.49999999999994</ele><time>2026-04-06T07:39:59.084Z</time></trkpt><trkpt lat="41.09727" lon="14.36721"><ele>399.0</ele><time>2026-04-06T07:40:02.083Z</time></trkpt><trkpt lat="41.0972717" lon="14.3673117"><ele>399.5</ele><time>2026-04-06T07:40:04.083Z</time></trkpt><trkpt lat="41.0972867" lon="14.3674417"><ele>400.0</ele><time>2026-04-06T07:40:06.085Z</time></trkpt><trkpt lat="41.0973" lon="14.36756"><ele>400.49999999999994</ele><time>2026-04-06T07:40:08.083Z</time></trkpt><trkpt lat="41.097275" lon="14.3676567"><ele>401.0</ele><time>2026-04-06T07:40:10.084Z</time></trkpt><trkpt lat="41.0972733" lon="14.3677617"><ele>400.99999999999994</ele><time>2026-04-06T07:40:12.085Z</time></trkpt><trkpt lat="41.0972033" lon="14.3678167"><ele>401.0</ele><time>2026-04-06T07:40:15.084Z</time></trkpt><trkpt lat="41.09712" lon="14.3678117"><ele>401.0</ele><time>2026-04-06T07:40:28.083Z</time></trkpt><trkpt lat="41.0970583" lon="14.3678317"><ele>401.0</ele><time>2026-04-06T07:40:30.084Z</time></trkpt><trkpt lat="41.0969717" lon="14.367865"><ele>400.99999999999994</ele><time>2026-04-06T07:40:33.085Z</time></trkpt><trkpt lat="41.0968983" lon="14.36786"><ele>401.0</ele><time>2026-04-06T07:40:35.084Z</time></trkpt><trkpt lat="41.0968183" lon="14.367855"><ele>400.99999999999994</ele><time>2026-04-06T07:40:37.084Z</time></trkpt><trkpt lat="41.0967433" lon="14.36786"><ele>401.0</ele><time>2026-04-06T07:40:39.083Z</time></trkpt><trkpt lat="41.0966417" lon="14.367845"><ele>401.0</ele><time>2026-04-06T07:40:41.084Z</time></trkpt><trkpt lat="41.0965467" lon="14.367815"><ele>401.0</ele><time>2026-04-06T07:40:43.085Z</time></trkpt><trkpt lat="41.09648" lon="14.367835"><ele>400.99999999999994</ele><time>2026-04-06T07:40:45.085Z</time></trkpt><trkpt lat="41.0964117" lon="14.36782"><ele>401.0</ele><time>2026-04-06T07:40:48.084Z</time></trkpt><trkpt lat="41.0963483" lon="14.36783"><ele>399.66666666666663</ele><time>2026-04-06T07:40:51.084Z</time></trkpt><trkpt lat="41.0962767" lon="14.36787"><ele>398.3333333333333</ele><time>2026-04-06T07:40:56.084Z</time></trkpt><trkpt lat="41.0962267" lon="14.3679617"><ele>397.0</ele><time>2026-04-06T07:40:59.085Z</time></trkpt><trkpt lat="41.096205" lon="14.3680417"><ele>395.66666666666663</ele><time>2026-04-06T07:41:01.084Z</time></trkpt><trkpt lat="41.096185" lon="14.3681533"><ele>394.3333333333333</ele><time>2026-04-06T07:41:04.084Z</time></trkpt><trkpt lat="41.0961717" lon="14.3682483"><ele>393.0</ele><time>2026-04-06T07:41:07.083Z</time></trkpt><trkpt lat="41.0961583" lon="14.3683517"><ele>393.00000000000006</ele><time>2026-04-06T07:41:10.083Z</time></trkpt><trkpt lat="41.0961533" lon="14.368435"><ele>393.0</ele><time>2026-04-06T07:41:12.083Z</time></trkpt><trkpt lat="41.0961367" lon="14.36853"><ele>393.0</ele><time>2026-04-06T07:41:14.084Z</time></trkpt><trkpt lat="41.0961117" lon="14.3686333"><ele>393.0</ele><time>2026-04-06T07:41:16.083Z</time></trkpt><trkpt lat="41.0960783" lon="14.3687383"><ele>393.0</ele><time>2026-04-06T07:41:18.084Z</time></trkpt><trkpt lat="41.09606" lon="14.368825"><ele>393.00000000000006</ele><time>2026-04-06T07:41:20.083Z</time></trkpt><trkpt lat="41.0960383" lon="14.3689133"><ele>393.0</ele><time>2026-04-06T07:41:23.083Z</time></trkpt><trkpt lat="41.0960183" lon="14.3690067"><ele>393.6666666666667</ele><time>2026-04-06T07:43:35.084Z</time></trkpt><trkpt lat="41.0960283" lon="14.3691083"><ele>394.33333333333337</ele><time>2026-04-06T07:45:15.084Z</time></trkpt><trkpt lat="41.09598" lon="14.3692783"><ele>395.0</ele><time>2026-04-06T07:45:18.084Z</time></trkpt><trkpt lat="41.0959617" lon="14.3693583"><ele>395.6666666666667</ele><time>2026-04-06T07:45:19.084Z</time></trkpt><trkpt lat="41.0959417" lon="14.3694433"><ele>396.33333333333337</ele><time>2026-04-06T07:45:20.085Z</time></trkpt><trkpt lat="41.095925" lon="14.3695283"><ele>397.0</ele><time>2026-04-06T07:45:21.087Z</time></trkpt><trkpt lat="41.0958917" lon="14.3696733"><ele>395.50000000000006</ele><time>2026-04-06T07:45:23.084Z</time></trkpt><trkpt lat="41.0958717" lon="14.3697567"><ele>394.0</ele><time>2026-04-06T07:45:25.085Z</time></trkpt><trkpt lat="41.09585" lon="14.36985"><ele>392.5</ele><time>2026-04-06T07:45:28.086Z</time></trkpt><trkpt lat="41.0958333" lon="14.3699567"><ele>391.0</ele><time>2026-04-06T07:45:30.086Z</time></trkpt><trkpt lat="41.0958067" lon="14.3700533"><ele>389.50000000000006</ele><time>2026-04-06T07:45:32.084Z</time></trkpt><trkpt lat="41.0957767" lon="14.3701517"><ele>388.0</ele><time>2026-04-06T07:45:35.084Z</time></trkpt><trkpt lat="41.0957367" lon="14.3702483"><ele>388.0</ele><time>2026-04-06T07:45:38.084Z</time></trkpt><trkpt lat="41.0956983" lon="14.37034"><ele>388.0</ele><time>2026-04-06T07:45:41.084Z</time></trkpt><trkpt lat="41.09569" lon="14.37043"><ele>388.0</ele><time>2026-04-06T07:45:44.084Z</time></trkpt><trkpt lat="41.0957317" lon="14.3704967"><ele>388.0</ele><time>2026-04-06T07:45:47.084Z</time></trkpt><trkpt lat="41.0958" lon="14.37052"><ele>388.0</ele><time>2026-04-06T07:45:50.084Z</time></trkpt><trkpt lat="41.0958667" lon="14.3705283"><ele>388.0</ele><time>2026-04-06T07:45:52.084Z</time></trkpt><trkpt lat="41.095935" lon="14.3705467"><ele>388.0</ele><time>2026-04-06T07:45:54.084Z</time></trkpt><trkpt lat="41.0960183" lon="14.37055"><ele>386.2</ele><time>2026-04-06T07:45:56.086Z</time></trkpt><trkpt lat="41.0960983" lon="14.37057"><ele>384.4</ele><time>2026-04-06T07:45:58.084Z</time></trkpt><trkpt lat="41.0961817" lon="14.3705917"><ele>382.59999999999997</ele><time>2026-04-06T07:46:00.084Z</time></trkpt><trkpt lat="41.0962717" lon="14.370605"><ele>380.79999999999995</ele><time>2026-04-06T07:46:02.084Z</time></trkpt><trkpt lat="41.0963667" lon="14.370605"><ele>379.0</ele><time>2026-04-06T07:46:04.084Z</time></trkpt><trkpt lat="41.096465" lon="14.3706167"><ele>379.0</ele><time>2026-04-06T07:46:06.084Z</time></trkpt><trkpt lat="41.0965683" lon="14.370625"><ele>379.0</ele><time>2026-04-06T07:46:08.086Z</time></trkpt><trkpt lat="41.096675" lon="14.3706167"><ele>379.0</ele><time>2026-04-06T07:46:10.086Z</time></trkpt><trkpt lat="41.0967817" lon="14.3705967"><ele>379.0</ele><time>2026-04-06T07:46:12.085Z</time></trkpt><trkpt lat="41.09689" lon="14.370565"><ele>379.0</ele><time>2026-04-06T07:46:14.084Z</time></trkpt><trkpt lat="41.09699" lon="14.3705217"><ele>380.4</ele><time>2026-04-06T07:46:16.084Z</time></trkpt><trkpt lat="41.0970933" lon="14.3704767"><ele>381.79999999999995</ele><time>2026-04-06T07:46:18.085Z</time></trkpt><trkpt lat="41.09715" lon="14.37044"><ele>383.20000000000005</ele><time>2026-04-06T07:46:19.084Z</time></trkpt><trkpt lat="41.0972617" lon="14.37038"><ele>384.6</ele><time>2026-04-06T07:46:21.084Z</time></trkpt><trkpt lat="41.0973667" lon="14.370325"><ele>386.0</ele><time>2026-04-06T07:46:23.084Z</time></trkpt><trkpt lat="41.097425" lon="14.3702933"><ele>385.99999999999994</ele><time>2026-04-06T07:46:24.084Z</time></trkpt><trkpt lat="41.0974833" lon="14.3702583"><ele>386.0</ele><time>2026-04-06T07:46:25.084Z</time></trkpt><trkpt lat="41.0975933" lon="14.3701833"><ele>386.0</ele><time>2026-04-06T07:46:27.084Z</time></trkpt><trkpt lat="41.0976533" lon="14.3701417"><ele>386.0</ele><time>2026-04-06T07:46:28.084Z</time></trkpt><trkpt lat="41.0977233" lon="14.3701067"><ele>385.99999999999994</ele><time>2026-04-06T07:46:29.086Z</time></trkpt><trkpt lat="41.0977883" lon="14.3700717"><ele>386.0</ele><time>2026-04-06T07:46:30.085Z</time></trkpt><trkpt lat="41.0978517" lon="14.37003"><ele>386.00000000000006</ele><time>2026-04-06T07:46:31.086Z</time></trkpt><trkpt lat="41.097915" lon="14.3699883"><ele>386.0</ele><time>2026-04-06T07:46:32.085Z</time></trkpt><trkpt lat="41.09798" lon="14.36994"><ele>386.0</ele><time>2026-04-06T07:46:33.085Z</time></trkpt><trkpt lat="41.09805" lon="14.3699033"><ele>386.0</ele><time>2026-04-06T07:46:34.084Z</time></trkpt><trkpt lat="41.0981133" lon="14.3698633"><ele>386.0</ele><time>2026-04-06T07:46:35.084Z</time></trkpt><trkpt lat="41.0981733" lon="14.3698233"><ele>386.00000000000006</ele><time>2026-04-06T07:46:36.085Z</time></trkpt><trkpt lat="41.0982367" lon="14.369785"><ele>386.0</ele><time>2026-04-06T07:46:37.085Z</time></trkpt><trkpt lat="41.0983" lon="14.3697383"><ele>384.16666666666663</ele><time>2026-04-06T07:46:38.084Z</time></trkpt><trkpt lat="41.0983633" lon="14.36968"><ele>382.3333333333333</ele><time>2026-04-06T07:46:39.084Z</time></trkpt><trkpt lat="41.0984267" lon="14.3696167"><ele>380.5</ele><time>2026-04-06T07:46:40.085Z</time></trkpt><trkpt lat="41.09849" lon="14.3695533"><ele>378.66666666666663</ele><time>2026-04-06T07:46:41.084Z</time></trkpt><trkpt lat="41.0985533" lon="14.369495"><ele>376.8333333333333</ele><time>2026-04-06T07:46:42.084Z</time></trkpt><trkpt lat="41.098615" lon="14.3694367"><ele>375.0</ele><time>2026-04-06T07:46:43.085Z</time></trkpt><trkpt lat="41.098675" lon="14.36938"><ele>375.0</ele><time>2026-04-06T07:46:44.086Z</time></trkpt><trkpt lat="41.098735" lon="14.3693233"><ele>375.0</ele><time>2026-04-06T07:46:45.085Z</time></trkpt><trkpt lat="41.0988" lon="14.3692733"><ele>375.0</ele><time>2026-04-06T07:46:46.084Z</time></trkpt><trkpt lat="41.0988683" lon="14.3692283"><ele>375.0</ele><time>2026-04-06T07:46:47.084Z</time></trkpt><trkpt lat="41.0989383" lon="14.3691883"><ele>375.0</ele><time>2026-04-06T07:46:48.084Z</time></trkpt><trkpt lat="41.099015" lon="14.3691533"><ele>375.0</ele><time>2026-04-06T07:46:49.084Z</time></trkpt><trkpt lat="41.0990967" lon="14.369125"><ele>374.0</ele><time>2026-04-06T07:46:50.086Z</time></trkpt><trkpt lat="41.09918" lon="14.3691067"><ele>373.0</ele><time>2026-04-06T07:46:51.084Z</time></trkpt><trkpt lat="41.0992617" lon="14.3691"><ele>372.0</ele><time>2026-04-06T07:46:52.084Z</time></trkpt><trkpt lat="41.0993417" lon="14.36912"><ele>371.0</ele><time>2026-04-06T07:46:53.084Z</time></trkpt><trkpt lat="41.099415" lon="14.3691483"><ele>370.0</ele><time>2026-04-06T07:46:54.085Z</time></trkpt><trkpt lat="41.0994833" lon="14.3691717"><ele>369.0</ele><time>2026-04-06T07:46:55.084Z</time></trkpt><trkpt lat="41.0995483" lon="14.3691917"><ele>369.0</ele><time>2026-04-06T07:46:56.085Z</time></trkpt><trkpt lat="41.099615" lon="14.3692067"><ele>369.0</ele><time>2026-04-06T07:46:57.084Z</time></trkpt><trkpt lat="41.0996817" lon="14.3692133"><ele>369.0</ele><time>2026-04-06T07:46:58.086Z</time></trkpt><trkpt lat="41.0997467" lon="14.3692117"><ele>369.0</ele><time>2026-04-06T07:46:59.088Z</time></trkpt><trkpt lat="41.09981" lon="14.3692033"><ele>369.0</ele><time>2026-04-06T07:47:00.084Z</time></trkpt><trkpt lat="41.0999267" lon="14.3691583"><ele>369.0</ele><time>2026-04-06T07:47:02.084Z</time></trkpt><trkpt lat="41.1000283" lon="14.3691033"><ele>369.5</ele><time>2026-04-06T07:47:04.084Z</time></trkpt><trkpt lat="41.1001067" lon="14.369025"><ele>370.0</ele><time>2026-04-06T07:47:06.087Z</time></trkpt><trkpt lat="41.10016" lon="14.3689417"><ele>370.5</ele><time>2026-04-06T07:47:08.084Z</time></trkpt><trkpt lat="41.1002117" lon="14.3688417"><ele>371.0</ele><time>2026-04-06T07:47:10.084Z</time></trkpt><trkpt lat="41.1002483" lon="14.3687367"><ele>371.5</ele><time>2026-04-06T07:47:12.085Z</time></trkpt><trkpt lat="41.1002917" lon="14.368635"><ele>372.0</ele><time>2026-04-06T07:47:14.084Z</time></trkpt><trkpt lat="41.1003467" lon="14.3685317"><ele>370.5</ele><time>2026-04-06T07:47:16.084Z</time></trkpt><trkpt lat="41.1003817" lon="14.368425"><ele>369.0</ele><time>2026-04-06T07:47:18.085Z</time></trkpt><trkpt lat="41.10042" lon="14.36833"><ele>367.5</ele><time>2026-04-06T07:47:20.084Z</time></trkpt><trkpt lat="41.1004617" lon="14.3682433"><ele>366.0</ele><time>2026-04-06T07:47:22.085Z</time></trkpt><trkpt lat="41.100505" lon="14.36816"><ele>364.5</ele><time>2026-04-06T07:47:24.084Z</time></trkpt><trkpt lat="41.1005333" lon="14.3680717"><ele>363.0</ele><time>2026-04-06T07:47:26.084Z</time></trkpt><trkpt lat="41.10057" lon="14.3679883"><ele>361.71428571428567</ele><time>2026-04-06T07:47:28.084Z</time></trkpt><trkpt lat="41.100605" lon="14.3679167"><ele>360.42857142857144</ele><time>2026-04-06T07:47:30.084Z</time></trkpt><trkpt lat="41.1006367" lon="14.367835"><ele>359.1428571428571</ele><time>2026-04-06T07:47:32.084Z</time></trkpt><trkpt lat="41.10067" lon="14.3677483"><ele>357.85714285714283</ele><time>2026-04-06T07:47:34.085Z</time></trkpt><trkpt lat="41.1007" lon="14.3676567"><ele>356.57142857142856</ele><time>2026-04-06T07:47:36.084Z</time></trkpt><trkpt lat="41.10072" lon="14.3675533"><ele>355.2857142857143</ele><time>2026-04-06T07:47:38.085Z</time></trkpt><trkpt lat="41.1007417" lon="14.367445"><ele>354.0</ele><time>2026-04-06T07:47:40.084Z</time></trkpt><trkpt lat="41.10076" lon="14.3673333"><ele>357.8571428571429</ele><time>2026-04-06T07:47:42.085Z</time></trkpt><trkpt lat="41.1007817" lon="14.3672383"><ele>361.71428571428567</ele><time>2026-04-06T07:47:44.086Z</time></trkpt><trkpt lat="41.1008" lon="14.3671517"><ele>365.57142857142856</ele><time>2026-04-06T07:47:46.084Z</time></trkpt><trkpt lat="41.1008067" lon="14.3670633"><ele>369.42857142857144</ele><time>2026-04-06T07:47:48.085Z</time></trkpt><trkpt lat="41.1008217" lon="14.3669783"><ele>373.28571428571433</ele><time>2026-04-06T07:47:50.088Z</time></trkpt><trkpt lat="41.100835" lon="14.3668883"><ele>377.1428571428571</ele><time>2026-04-06T07:47:52.086Z</time></trkpt><trkpt lat="41.1008417" lon="14.3667883"><ele>381.0</ele><time>2026-04-06T07:47:54.084Z</time></trkpt><trkpt lat="41.1008467" lon="14.3666917"><ele>381.0</ele><time>2026-04-06T07:47:56.085Z</time></trkpt><trkpt lat="41.10086" lon="14.3665867"><ele>381.0</ele><time>2026-04-06T07:47:58.084Z</time></trkpt><trkpt lat="41.1008667" lon="14.3664917"><ele>381.0</ele><time>2026-04-06T07:48:00.085Z</time></trkpt><trkpt lat="41.1008667" lon="14.366395"><ele>381.0</ele><time>2026-04-06T07:48:02.085Z</time></trkpt><trkpt lat="41.1008767" lon="14.36628"><ele>381.0</ele><time>2026-04-06T07:48:04.084Z</time></trkpt><trkpt lat="41.100885" lon="14.366165"><ele>381.0</ele><time>2026-04-06T07:48:06.084Z</time></trkpt><trkpt lat="41.10087" lon="14.36605"><ele>380.8333333333333</ele><time>2026-04-06T07:48:08.085Z</time></trkpt><trkpt lat="41.100835" lon="14.3659717"><ele>380.6666666666667</ele><time>2026-04-06T07:48:32.085Z</time></trkpt><trkpt lat="41.1007983" lon="14.3659017"><ele>380.5</ele><time>2026-04-06T07:51:31.084Z</time></trkpt><trkpt lat="41.1007883" lon="14.3657883"><ele>380.33333333333337</ele><time>2026-04-06T07:51:34.083Z</time></trkpt><trkpt lat="41.1007833" lon="14.3656917"><ele>380.1666666666667</ele><time>2026-04-06T07:51:36.084Z</time></trkpt><trkpt lat="41.1007583" lon="14.36558"><ele>380.0</ele><time>2026-04-06T07:51:38.083Z</time></trkpt><trkpt lat="41.1007267" lon="14.3654583"><ele>373.8</ele><time>2026-04-06T07:51:40.083Z</time></trkpt><trkpt lat="41.100695" lon="14.36533"><ele>367.6</ele><time>2026-04-06T07:51:42.083Z</time></trkpt><trkpt lat="41.1006633" lon="14.3651917"><ele>361.4</ele><time>2026-04-06T07:51:44.083Z</time></trkpt><trkpt lat="41.1006183" lon="14.3650467"><ele>355.2</ele><time>2026-04-06T07:51:46.083Z</time></trkpt><trkpt lat="41.1005767" lon="14.3648983"><ele>349.0</ele><time>2026-04-06T07:51:48.083Z</time></trkpt><trkpt lat="41.1005367" lon="14.3647583"><ele>348.8333333333333</ele><time>2026-04-06T07:51:50.085Z</time></trkpt><trkpt lat="41.100495" lon="14.364605"><ele>348.66666666666663</ele><time>2026-04-06T07:51:52.083Z</time></trkpt><trkpt lat="41.10048" lon="14.36452"><ele>348.5</ele><time>2026-04-06T07:51:53.083Z</time></trkpt><trkpt lat="41.1004683" lon="14.36443"><ele>348.3333333333333</ele><time>2026-04-06T07:51:54.084Z</time></trkpt><trkpt lat="41.1004583" lon="14.364335"><ele>348.1666666666667</ele><time>2026-04-06T07:51:55.083Z</time></trkpt><trkpt lat="41.10045" lon="14.36424"><ele>348.0</ele><time>2026-04-06T07:51:56.083Z</time></trkpt><trkpt lat="41.1004433" lon="14.36414"><ele>348.0</ele><time>2026-04-06T07:51:57.083Z</time></trkpt><trkpt lat="41.100435" lon="14.3640483"><ele>348.0</ele><time>2026-04-06T07:51:58.083Z</time></trkpt><trkpt lat="41.1004367" lon="14.3639283"><ele>348.0</ele><time>2026-04-06T07:52:00.085Z</time></trkpt><trkpt lat="41.1004417" lon="14.363845"><ele>348.0</ele><time>2026-04-06T07:52:24.085Z</time></trkpt><trkpt lat="41.10045" lon="14.36376"><ele>348.0</ele><time>2026-04-06T07:52:26.084Z</time></trkpt><trkpt lat="41.1004567" lon="14.3636583"><ele>348.0</ele><time>2026-04-06T07:52:28.084Z</time></trkpt><trkpt lat="41.1004467" lon="14.3635333"><ele>346.6666666666667</ele><time>2026-04-06T07:52:30.084Z</time></trkpt><trkpt lat="41.10045" lon="14.3633883"><ele>345.3333333333333</ele><time>2026-04-06T07:52:32.084Z</time></trkpt><trkpt lat="41.1004583" lon="14.3633"><ele>344.0</ele><time>2026-04-06T07:52:33.083Z</time></trkpt><trkpt lat="41.100465" lon="14.3632083"><ele>342.66666666666663</ele><time>2026-04-06T07:52:34.083Z</time></trkpt><trkpt lat="41.1004733" lon="14.36311"><ele>341.3333333333333</ele><time>2026-04-06T07:52:35.084Z</time></trkpt><trkpt lat="41.1004717" lon="14.3630117"><ele>340.0</ele><time>2026-04-06T07:52:36.085Z</time></trkpt><trkpt lat="41.10047" lon="14.3629117"><ele>337.8333333333333</ele><time>2026-04-06T07:52:37.084Z</time></trkpt><trkpt lat="41.1004683" lon="14.36281"><ele>335.66666666666663</ele><time>2026-04-06T07:52:38.084Z</time></trkpt><trkpt lat="41.10047" lon="14.3627067"><ele>333.5</ele><time>2026-04-06T07:52:39.084Z</time></trkpt><trkpt lat="41.100475" lon="14.3626017"><ele>331.3333333333333</ele><time>2026-04-06T07:52:40.084Z</time></trkpt><trkpt lat="41.1004867" lon="14.36249"><ele>329.1666666666667</ele><time>2026-04-06T07:52:41.084Z</time></trkpt><trkpt lat="41.1004967" lon="14.3623683"><ele>327.0</ele><time>2026-04-06T07:52:42.084Z</time></trkpt><trkpt lat="41.1005" lon="14.3622567"><ele>325.5</ele><time>2026-04-06T07:52:43.083Z</time></trkpt><trkpt lat="41.10051" lon="14.362145"><ele>324.0</ele><time>2026-04-06T07:52:44.083Z</time></trkpt><trkpt lat="41.100515" lon="14.3620317"><ele>322.5</ele><time>2026-04-06T07:52:45.084Z</time></trkpt><trkpt lat="41.1005233" lon="14.3619217"><ele>321.0</ele><time>2026-04-06T07:52:46.084Z</time></trkpt><trkpt lat="41.1005317" lon="14.3618183"><ele>319.5</ele><time>2026-04-06T07:52:47.085Z</time></trkpt><trkpt lat="41.100545" lon="14.3617267"><ele>318.0</ele><time>2026-04-06T07:52:48.084Z</time></trkpt><trkpt lat="41.10057" lon="14.361635"><ele>318.0</ele><time>2026-04-06T07:52:49.086Z</time></trkpt><trkpt lat="41.1005983" lon="14.3615417"><ele>318.0</ele><time>2026-04-06T07:52:50.084Z</time></trkpt><trkpt lat="41.10064" lon="14.36144"><ele>318.0</ele><time>2026-04-06T07:52:51.085Z</time></trkpt><trkpt lat="41.1006883" lon="14.3613317"><ele>318.0</ele><time>2026-04-06T07:52:52.084Z</time></trkpt><trkpt lat="41.10073" lon="14.361225"><ele>318.0</ele><time>2026-04-06T07:52:53.084Z</time></trkpt><trkpt lat="41.1007567" lon="14.3611233"><ele>318.0</ele><time>2026-04-06T07:52:54.084Z</time></trkpt><trkpt lat="41.1007817" lon="14.361025"><ele>324.6666666666667</ele><time>2026-04-06T07:52:55.086Z</time></trkpt><trkpt lat="41.1007967" lon="14.3609267"><ele>331.3333333333333</ele><time>2026-04-06T07:52:56.084Z</time></trkpt><trkpt lat="41.1008017" lon="14.3608233"><ele>338.0</ele><time>2026-04-06T07:52:57.085Z</time></trkpt><trkpt lat="41.1007933" lon="14.3607117"><ele>344.66666666666663</ele><time>2026-04-06T07:52:58.084Z</time></trkpt><trkpt lat="41.1007817" lon="14.3605983"><ele>351.3333333333333</ele><time>2026-04-06T07:52:59.084Z</time></trkpt><trkpt lat="41.1007767" lon="14.3604883"><ele>358.0</ele><time>2026-04-06T07:53:00.084Z</time></trkpt><trkpt lat="41.1007733" lon="14.36037"><ele>358.0</ele><time>2026-04-06T07:53:01.084Z</time></trkpt><trkpt lat="41.1007667" lon="14.3602417"><ele>358.0</ele><time>2026-04-06T07:53:02.085Z</time></trkpt><trkpt lat="41.1007683" lon="14.3601117"><ele>358.0</ele><time>2026-04-06T07:53:03.084Z</time></trkpt><trkpt lat="41.10077" lon="14.3599767"><ele>358.0</ele><time>2026-04-06T07:53:04.084Z</time></trkpt><trkpt lat="41.1007683" lon="14.359835"><ele>358.0</ele><time>2026-04-06T07:53:05.084Z</time></trkpt><trkpt lat="41.100765" lon="14.3596917"><ele>356.2</ele><time>2026-04-06T07:53:06.085Z</time></trkpt><trkpt lat="41.1007617" lon="14.3595483"><ele>354.4</ele><time>2026-04-06T07:53:07.084Z</time></trkpt><trkpt lat="41.1007633" lon="14.3594067"><ele>352.59999999999997</ele><time>2026-04-06T07:53:08.085Z</time></trkpt><trkpt lat="41.10077" lon="14.35926"><ele>350.79999999999995</ele><time>2026-04-06T07:53:09.084Z</time></trkpt><trkpt lat="41.1007767" lon="14.3591283"><ele>349.0</ele><time>2026-04-06T07:53:10.084Z</time></trkpt><trkpt lat="41.1007917" lon="14.3590017"><ele>349.0</ele><time>2026-04-06T07:53:11.084Z</time></trkpt><trkpt lat="41.100815" lon="14.3588767"><ele>349.0</ele><time>2026-04-06T07:53:12.084Z</time></trkpt><trkpt lat="41.1008367" lon="14.35875"><ele>349.0</ele><time>2026-04-06T07:53:13.084Z</time></trkpt><trkpt lat="41.10086" lon="14.3586217"><ele>349.0</ele><time>2026-04-06T07:53:14.084Z</time></trkpt><trkpt lat="41.1008917" lon="14.3584833"><ele>349.0</ele><time>2026-04-06T07:53:15.088Z</time></trkpt><trkpt lat="41.1009267" lon="14.3583483"><ele>346.4</ele><time>2026-04-06T07:53:16.084Z</time></trkpt><trkpt lat="41.100955" lon="14.358215"><ele>343.79999999999995</ele><time>2026-04-06T07:53:17.085Z</time></trkpt><trkpt lat="41.1009783" lon="14.358085"><ele>341.20000000000005</ele><time>2026-04-06T07:53:18.084Z</time></trkpt><trkpt lat="41.1010017" lon="14.35795"><ele>338.6</ele><time>2026-04-06T07:53:19.084Z</time></trkpt><trkpt lat="41.10103" lon="14.3578133"><ele>336.0</ele><time>2026-04-06T07:53:20.084Z</time></trkpt><trkpt lat="41.1010583" lon="14.35768"><ele>334.4</ele><time>2026-04-06T07:53:21.084Z</time></trkpt><trkpt lat="41.1010817" lon="14.3575467"><ele>332.8</ele><time>2026-04-06T07:53:22.084Z</time></trkpt><trkpt lat="41.1011" lon="14.3574133"><ele>331.2</ele><time>2026-04-06T07:53:23.083Z</time></trkpt><trkpt lat="41.1011217" lon="14.3572833"><ele>329.59999999999997</ele><time>2026-04-06T07:53:24.084Z</time></trkpt><trkpt lat="41.1011417" lon="14.3571533"><ele>328.0</ele><time>2026-04-06T07:53:25.084Z</time></trkpt><trkpt lat="41.1011633" lon="14.3570317"><ele>326.8333333333333</ele><time>2026-04-06T07:53:26.085Z</time></trkpt><trkpt lat="41.1011883" lon="14.3569117"><ele>325.66666666666663</ele><time>2026-04-06T07:53:27.083Z</time></trkpt><trkpt lat="41.1012167" lon="14.3567967"><ele>324.5</ele><time>2026-04-06T07:53:28.083Z</time></trkpt><trkpt lat="41.10125" lon="14.3566917"><ele>323.3333333333333</ele><time>2026-04-06T07:53:29.083Z</time></trkpt><trkpt lat="41.1012833" lon="14.3565867"><ele>322.1666666666667</ele><time>2026-04-06T07:53:30.084Z</time></trkpt><trkpt lat="41.10132" lon="14.3564833"><ele>321.0</ele><time>2026-04-06T07:53:31.084Z</time></trkpt><trkpt lat="41.1013617" lon="14.3563917"><ele>319.1666666666667</ele><time>2026-04-06T07:53:32.086Z</time></trkpt><trkpt lat="41.1014033" lon="14.3562983"><ele>317.3333333333333</ele><time>2026-04-06T07:53:33.083Z</time></trkpt><trkpt lat="41.10145" lon="14.356215"><ele>315.5</ele><time>2026-04-06T07:53:34.084Z</time></trkpt><trkpt lat="41.1015" lon="14.3561333"><ele>313.66666666666663</ele><time>2026-04-06T07:53:35.083Z</time></trkpt><trkpt lat="41.1015533" lon="14.3560617"><ele>311.8333333333333</ele><time>2026-04-06T07:53:36.083Z</time></trkpt><trkpt lat="41.1016067" lon="14.3559933"><ele>310.0</ele><time>2026-04-06T07:53:37.083Z</time></trkpt><trkpt lat="41.10166" lon="14.3559283"><ele>313.0</ele><time>2026-04-06T07:53:38.083Z</time></trkpt><trkpt lat="41.1017117" lon="14.3558633"><ele>316.0</ele><time>2026-04-06T07:53:39.083Z</time></trkpt><trkpt lat="41.1017617" lon="14.35581"><ele>319.0</ele><time>2026-04-06T07:53:40.084Z</time></trkpt><trkpt lat="41.1018133" lon="14.3557517"><ele>322.0</ele><time>2026-04-06T07:53:41.084Z</time></trkpt><trkpt lat="41.1019" lon="14.355635"><ele>325.0</ele><time>2026-04-06T07:53:43.084Z</time></trkpt><trkpt lat="41.1019667" lon="14.355525"><ele>328.0</ele><time>2026-04-06T07:53:45.085Z</time></trkpt><trkpt lat="41.1020233" lon="14.3554"><ele>328.0</ele><time>2026-04-06T07:53:47.083Z</time></trkpt><trkpt lat="41.1020667" lon="14.3552767"><ele>328.0</ele><time>2026-04-06T07:53:49.084Z</time></trkpt><trkpt lat="41.1020967" lon="14.355145"><ele>328.0</ele><time>2026-04-06T07:53:51.084Z</time></trkpt><trkpt lat="41.1021083" lon="14.355"><ele>328.0</ele><time>2026-04-06T07:53:53.087Z</time></trkpt><trkpt lat="41.1021083" lon="14.3548567"><ele>328.0</ele><time>2026-04-06T07:53:55.084Z</time></trkpt><trkpt lat="41.1021" lon="14.3547"><ele>327.75</ele><time>2026-04-06T07:53:57.084Z</time></trkpt><trkpt lat="41.1020933" lon="14.3545483"><ele>327.5</ele><time>2026-04-06T07:53:59.084Z</time></trkpt><trkpt lat="41.1020833" lon="14.354395"><ele>327.25</ele><time>2026-04-06T07:54:01.085Z</time></trkpt><trkpt lat="41.102075" lon="14.3542417"><ele>327.0</ele><time>2026-04-06T07:54:03.085Z</time></trkpt><trkpt lat="41.10206" lon="14.3540883"><ele>327.0</ele><time>2026-04-06T07:54:05.084Z</time></trkpt><trkpt lat="41.10204" lon="14.353935"><ele>327.0</ele><time>2026-04-06T07:54:07.084Z</time></trkpt><trkpt lat="41.1020283" lon="14.3537833"><ele>327.0</ele><time>2026-04-06T07:54:09.084Z</time></trkpt><trkpt lat="41.102015" lon="14.3536283"><ele>327.0</ele><time>2026-04-06T07:54:11.085Z</time></trkpt><trkpt lat="41.1020017" lon="14.3534733"><ele>327.2857142857143</ele><time>2026-04-06T07:54:13.085Z</time></trkpt><trkpt lat="41.1019917" lon="14.353315"><ele>327.57142857142856</ele><time>2026-04-06T07:54:15.085Z</time></trkpt><trkpt lat="41.101985" lon="14.35323"><ele>327.8571428571429</ele><time>2026-04-06T07:54:16.085Z</time></trkpt><trkpt lat="41.1019783" lon="14.3531433"><ele>328.1428571428571</ele><time>2026-04-06T07:54:17.086Z</time></trkpt><trkpt lat="41.1019717" lon="14.3530583"><ele>328.42857142857144</ele><time>2026-04-06T07:54:18.085Z</time></trkpt><trkpt lat="41.101965" lon="14.352975"><ele>328.7142857142857</ele><time>2026-04-06T07:54:19.086Z</time></trkpt><trkpt lat="41.1019533" lon="14.352885"><ele>329.0</ele><time>2026-04-06T07:54:20.085Z</time></trkpt><trkpt lat="41.1019433" lon="14.3527933"><ele>329.2857142857143</ele><time>2026-04-06T07:54:21.085Z</time></trkpt><trkpt lat="41.10193" lon="14.3527033"><ele>329.57142857142856</ele><time>2026-04-06T07:54:22.087Z</time></trkpt><trkpt lat="41.101915" lon="14.3526133"><ele>329.8571428571429</ele><time>2026-04-06T07:54:23.085Z</time></trkpt><trkpt lat="41.1018983" lon="14.352525"><ele>330.1428571428571</ele><time>2026-04-06T07:54:24.085Z</time></trkpt><trkpt lat="41.1018767" lon="14.3524333"><ele>330.42857142857144</ele><time>2026-04-06T07:54:25.085Z</time></trkpt><trkpt lat="41.101855" lon="14.35234"><ele>330.7142857142857</ele><time>2026-04-06T07:54:26.088Z</time></trkpt><trkpt lat="41.1018333" lon="14.3522483"><ele>331.0</ele><time>2026-04-06T07:54:27.085Z</time></trkpt><trkpt lat="41.1018067" lon="14.3521567"><ele>332.0</ele><time>2026-04-06T07:54:28.083Z</time></trkpt><trkpt lat="41.1017767" lon="14.3520617"><ele>333.0</ele><time>2026-04-06T07:54:29.085Z</time></trkpt><trkpt lat="41.101745" lon="14.3519617"><ele>334.0</ele><time>2026-04-06T07:54:30.084Z</time></trkpt><trkpt lat="41.1017183" lon="14.351865"><ele>335.0</ele><time>2026-04-06T07:54:31.083Z</time></trkpt><trkpt lat="41.1016883" lon="14.3517717"><ele>336.0</ele><time>2026-04-06T07:54:32.085Z</time></trkpt><trkpt lat="41.1016583" lon="14.3516733"><ele>337.0</ele><time>2026-04-06T07:54:33.083Z</time></trkpt><trkpt lat="41.10163" lon="14.351575"><ele>337.0</ele><time>2026-04-06T07:54:34.083Z</time></trkpt><trkpt lat="41.1016067" lon="14.351475"><ele>337.0</ele><time>2026-04-06T07:54:35.083Z</time></trkpt><trkpt lat="41.1015833" lon="14.3513667"><ele>337.0</ele><time>2026-04-06T07:54:36.084Z</time></trkpt><trkpt lat="41.1015583" lon="14.3512633"><ele>337.0</ele><time>2026-04-06T07:54:37.084Z</time></trkpt><trkpt lat="41.101535" lon="14.351155"><ele>337.0</ele><time>2026-04-06T07:54:38.084Z</time></trkpt><trkpt lat="41.101515" lon="14.3510483"><ele>337.0</ele><time>2026-04-06T07:54:39.084Z</time></trkpt><trkpt lat="41.1015" lon="14.3509383"><ele>334.0</ele><time>2026-04-06T07:54:40.084Z</time></trkpt><trkpt lat="41.101485" lon="14.3508283"><ele>331.0</ele><time>2026-04-06T07:54:41.084Z</time></trkpt><trkpt lat="41.1014733" lon="14.3507183"><ele>328.0</ele><time>2026-04-06T07:54:42.084Z</time></trkpt><trkpt lat="41.1014683" lon="14.3506083"><ele>325.0</ele><time>2026-04-06T07:54:43.084Z</time></trkpt><trkpt lat="41.101465" lon="14.3505"><ele>322.0</ele><time>2026-04-06T07:54:44.084Z</time></trkpt><trkpt lat="41.1014583" lon="14.350395"><ele>319.0</ele><time>2026-04-06T07:54:45.085Z</time></trkpt><trkpt lat="41.101455" lon="14.350295"><ele>318.5</ele><time>2026-04-06T07:54:46.084Z</time></trkpt><trkpt lat="41.10145" lon="14.3501883"><ele>318.0</ele><time>2026-04-06T07:54:47.085Z</time></trkpt><trkpt lat="41.1014467" lon="14.3500767"><ele>317.5</ele><time>2026-04-06T07:54:48.085Z</time></trkpt><trkpt lat="41.101445" lon="14.3499667"><ele>317.0</ele><time>2026-04-06T07:54:49.085Z</time></trkpt><trkpt lat="41.101445" lon="14.3498583"><ele>316.5</ele><time>2026-04-06T07:54:50.084Z</time></trkpt><trkpt lat="41.1014467" lon="14.3497517"><ele>316.0</ele><time>2026-04-06T07:54:51.084Z</time></trkpt><trkpt lat="41.1014517" lon="14.3496533"><ele>315.28571428571433</ele><time>2026-04-06T07:54:52.084Z</time></trkpt><trkpt lat="41.1014583" lon="14.3495533"><ele>314.57142857142856</ele><time>2026-04-06T07:54:53.085Z</time></trkpt><trkpt lat="41.1014633" lon="14.34945"><ele>313.8571428571429</ele><time>2026-04-06T07:54:54.084Z</time></trkpt><trkpt lat="41.1014683" lon="14.3493517"><ele>313.14285714285717</ele><time>2026-04-06T07:54:55.086Z</time></trkpt><trkpt lat="41.1014733" lon="14.3492517"><ele>312.42857142857144</ele><time>2026-04-06T07:54:56.084Z</time></trkpt><trkpt lat="41.1014833" lon="14.3491567"><ele>311.7142857142857</ele><time>2026-04-06T07:54:57.084Z</time></trkpt><trkpt lat="41.10149" lon="14.3490617"><ele>311.0</ele><time>2026-04-06T07:54:58.083Z</time></trkpt><trkpt lat="41.1014917" lon="14.3489683"><ele>309.6666666666667</ele><time>2026-04-06T07:54:59.084Z</time></trkpt><trkpt lat="41.1014983" lon="14.3488683"><ele>308.33333333333337</ele><time>2026-04-06T07:55:00.085Z</time></trkpt><trkpt lat="41.10151" lon="14.348775"><ele>307.0</ele><time>2026-04-06T07:55:01.086Z</time></trkpt><trkpt lat="41.1015267" lon="14.34868"><ele>305.6666666666667</ele><time>2026-04-06T07:55:02.085Z</time></trkpt><trkpt lat="41.1015467" lon="14.3485783"><ele>304.3333333333333</ele><time>2026-04-06T07:55:03.085Z</time></trkpt><trkpt lat="41.1015767" lon="14.3485"><ele>303.0</ele><time>2026-04-06T07:55:04.084Z</time></trkpt><trkpt lat="41.10165" lon="14.3483583"><ele>305.4</ele><time>2026-04-06T07:55:06.085Z</time></trkpt><trkpt lat="41.10173" lon="14.3482167"><ele>307.8</ele><time>2026-04-06T07:55:08.085Z</time></trkpt><trkpt lat="41.1017767" lon="14.3481417"><ele>310.2</ele><time>2026-04-06T07:55:09.083Z</time></trkpt><trkpt lat="41.1018533" lon="14.3480317"><ele>312.6</ele><time>2026-04-06T07:55:11.084Z</time></trkpt><trkpt lat="41.1019317" lon="14.3479233"><ele>315.0</ele><time>2026-04-06T07:55:13.083Z</time></trkpt><trkpt lat="41.1020117" lon="14.3478033"><ele>315.0</ele><time>2026-04-06T07:55:15.084Z</time></trkpt><trkpt lat="41.1020567" lon="14.34774"><ele>315.0</ele><time>2026-04-06T07:55:16.083Z</time></trkpt><trkpt lat="41.1020967" lon="14.347675"><ele>315.0</ele><time>2026-04-06T07:55:17.084Z</time></trkpt><trkpt lat="41.1021717" lon="14.3475517"><ele>315.0</ele><time>2026-04-06T07:55:19.085Z</time></trkpt><trkpt lat="41.1022433" lon="14.34742"><ele>315.0</ele><time>2026-04-06T07:55:21.085Z</time></trkpt><trkpt lat="41.1022967" lon="14.34729"><ele>311.2</ele><time>2026-04-06T07:55:23.086Z</time></trkpt><trkpt lat="41.1023533" lon="14.347155"><ele>307.4</ele><time>2026-04-06T07:55:25.086Z</time></trkpt><trkpt lat="41.1024033" lon="14.34701"><ele>303.6</ele><time>2026-04-06T07:55:27.083Z</time></trkpt><trkpt lat="41.1024417" lon="14.3468533"><ele>299.8</ele><time>2026-04-06T07:55:29.085Z</time></trkpt><trkpt lat="41.10246" lon="14.3467717"><ele>296.0</ele><time>2026-04-06T07:55:30.085Z</time></trkpt><trkpt lat="41.102475" lon="14.34669"><ele>302.6</ele><time>2026-04-06T07:55:31.086Z</time></trkpt><trkpt lat="41.1025133" lon="14.3465267"><ele>309.20000000000005</ele><time>2026-04-06T07:55:33.085Z</time></trkpt><trkpt lat="41.1025317" lon="14.346445"><ele>315.79999999999995</ele><time>2026-04-06T07:55:34.086Z</time></trkpt><trkpt lat="41.1025517" lon="14.3463617"><ele>322.4</ele><time>2026-04-06T07:55:35.085Z</time></trkpt><trkpt lat="41.10257" lon="14.3462783"><ele>329.0</ele><time>2026-04-06T07:55:36.087Z</time></trkpt><trkpt lat="41.1026017" lon="14.3461117"><ele>329.0</ele><time>2026-04-06T07:55:38.084Z</time></trkpt><trkpt lat="41.1026183" lon="14.3460267"><ele>329.0</ele><time>2026-04-06T07:55:39.085Z</time></trkpt><trkpt lat="41.1026367" lon="14.345945"><ele>329.0</ele><time>2026-04-06T07:55:40.085Z</time></trkpt><trkpt lat="41.1026767" lon="14.345785"><ele>329.0</ele><time>2026-04-06T07:55:42.085Z</time></trkpt><trkpt lat="41.1027183" lon="14.345635"><ele>329.0</ele><time>2026-04-06T07:55:44.086Z</time></trkpt><trkpt lat="41.1027667" lon="14.34549"><ele>326.75</ele><time>2026-04-06T07:55:46.085Z</time></trkpt><trkpt lat="41.1028233" lon="14.3453517"><ele>324.5</ele><time>2026-04-06T07:55:48.086Z</time></trkpt><trkpt lat="41.1028867" lon="14.3452133"><ele>322.25</ele><time>2026-04-06T07:55:50.085Z</time></trkpt><trkpt lat="41.1029433" lon="14.3450667"><ele>320.0</ele><time>2026-04-06T07:55:52.084Z</time></trkpt><trkpt lat="41.1029933" lon="14.3449183"><ele>320.0</ele><time>2026-04-06T07:55:54.086Z</time></trkpt><trkpt lat="41.1030183" lon="14.34484"><ele>320.0</ele><time>2026-04-06T07:55:55.083Z</time></trkpt><trkpt lat="41.1030417" lon="14.3447583"><ele>320.0</ele><time>2026-04-06T07:55:56.085Z</time></trkpt><trkpt lat="41.103085" lon="14.3446033"><ele>320.0</ele><time>2026-04-06T07:55:58.088Z</time></trkpt><trkpt lat="41.1031283" lon="14.3444533"><ele>320.0</ele><time>2026-04-06T07:56:00.084Z</time></trkpt><trkpt lat="41.1031683" lon="14.344305"><ele>318.25</ele><time>2026-04-06T07:56:02.085Z</time></trkpt><trkpt lat="41.1032183" lon="14.344155"><ele>316.5</ele><time>2026-04-06T07:56:04.084Z</time></trkpt><trkpt lat="41.103285" lon="14.3440183"><ele>314.75</ele><time>2026-04-06T07:56:06.085Z</time></trkpt><trkpt lat="41.1033667" lon="14.3439"><ele>313.0</ele><time>2026-04-06T07:56:08.085Z</time></trkpt><trkpt lat="41.10346" lon="14.34379"><ele>313.0</ele><time>2026-04-06T07:56:10.084Z</time></trkpt><trkpt lat="41.1035083" lon="14.343735"><ele>313.0</ele><time>2026-04-06T07:56:11.084Z</time></trkpt><trkpt lat="41.1035633" lon="14.3436833"><ele>313.0</ele><time>2026-04-06T07:56:12.085Z</time></trkpt><trkpt lat="41.10362" lon="14.3436433"><ele>313.0</ele><time>2026-04-06T07:56:13.085Z</time></trkpt><trkpt lat="41.1036783" lon="14.34361"><ele>313.0</ele><time>2026-04-06T07:56:14.085Z</time></trkpt><trkpt lat="41.1037417" lon="14.3435933"><ele>313.0</ele><time>2026-04-06T07:56:15.085Z</time></trkpt><trkpt lat="41.103805" lon="14.343585"><ele>313.0</ele><time>2026-04-06T07:56:16.084Z</time></trkpt><trkpt lat="41.10387" lon="14.343585"><ele>313.0</ele><time>2026-04-06T07:56:17.084Z</time></trkpt><trkpt lat="41.1039333" lon="14.3435867"><ele>313.0</ele><time>2026-04-06T07:56:18.084Z</time></trkpt><trkpt lat="41.1039967" lon="14.34359"><ele>313.0</ele><time>2026-04-06T07:56:19.084Z</time></trkpt><trkpt lat="41.1041167" lon="14.3436"><ele>313.0</ele><time>2026-04-06T07:56:21.085Z</time></trkpt><trkpt lat="41.1042367" lon="14.3435967"><ele>313.0</ele><time>2026-04-06T07:56:23.084Z</time></trkpt><trkpt lat="41.10435" lon="14.3435583"><ele>317.5</ele><time>2026-04-06T07:56:25.084Z</time></trkpt><trkpt lat="41.1044533" lon="14.34348"><ele>322.0</ele><time>2026-04-06T07:56:27.085Z</time></trkpt><trkpt lat="41.10454" lon="14.3433717"><ele>326.5</ele><time>2026-04-06T07:56:29.084Z</time></trkpt><trkpt lat="41.1046117" lon="14.3432483"><ele>331.0</ele><time>2026-04-06T07:56:31.085Z</time></trkpt><trkpt lat="41.1046667" lon="14.343105"><ele>328.14285714285717</ele><time>2026-04-06T07:56:33.085Z</time></trkpt><trkpt lat="41.1047167" lon="14.342955"><ele>325.2857142857143</ele><time>2026-04-06T07:56:35.084Z</time></trkpt><trkpt lat="41.1047417" lon="14.3428767"><ele>322.42857142857144</ele><time>2026-04-06T07:56:36.087Z</time></trkpt><trkpt lat="41.1047667" lon="14.342795"><ele>319.57142857142856</ele><time>2026-04-06T07:56:37.084Z</time></trkpt><trkpt lat="41.1047917" lon="14.3427117"><ele>316.7142857142857</ele><time>2026-04-06T07:56:38.084Z</time></trkpt><trkpt lat="41.1048167" lon="14.342635"><ele>313.85714285714283</ele><time>2026-04-06T07:56:39.084Z</time></trkpt><trkpt lat="41.1048433" lon="14.3425567"><ele>311.0</ele><time>2026-04-06T07:56:40.084Z</time></trkpt><trkpt lat="41.1048683" lon="14.34248"><ele>311.0</ele><time>2026-04-06T07:56:41.084Z</time></trkpt><trkpt lat="41.1048917" lon="14.3424017"><ele>311.0</ele><time>2026-04-06T07:56:42.084Z</time></trkpt><trkpt lat="41.1049133" lon="14.34232"><ele>311.0</ele><time>2026-04-06T07:56:43.084Z</time></trkpt><trkpt lat="41.1049317" lon="14.3422383"><ele>311.0</ele><time>2026-04-06T07:56:44.085Z</time></trkpt><trkpt lat="41.1049483" lon="14.3421517"><ele>311.0</ele><time>2026-04-06T07:56:45.084Z</time></trkpt><trkpt lat="41.1049617" lon="14.3420683"><ele>311.0</ele><time>2026-04-06T07:56:46.084Z</time></trkpt><trkpt lat="41.1049717" lon="14.341985"><ele>311.0</ele><time>2026-04-06T07:56:47.084Z</time></trkpt><trkpt lat="41.1049817" lon="14.3418983"><ele>314.2857142857143</ele><time>2026-04-06T07:56:48.085Z</time></trkpt><trkpt lat="41.1049917" lon="14.34181"><ele>317.5714285714286</ele><time>2026-04-06T07:56:49.084Z</time></trkpt><trkpt lat="41.1050017" lon="14.3417217"><ele>320.8571428571429</ele><time>2026-04-06T07:56:50.085Z</time></trkpt><trkpt lat="41.10501" lon="14.3416317"><ele>324.1428571428571</ele><time>2026-04-06T07:56:51.085Z</time></trkpt><trkpt lat="41.1050133" lon="14.3415417"><ele>327.42857142857144</ele><time>2026-04-06T07:56:52.084Z</time></trkpt><trkpt lat="41.1050167" lon="14.3414483"><ele>330.7142857142857</ele><time>2026-04-06T07:56:53.084Z</time></trkpt><trkpt lat="41.105015" lon="14.341355"><ele>334.0</ele><time>2026-04-06T07:56:54.084Z</time></trkpt><trkpt lat="41.1050083" lon="14.3412617"><ele>334.42857142857144</ele><time>2026-04-06T07:56:55.084Z</time></trkpt><trkpt lat="41.104995" lon="14.34117"><ele>334.8571428571429</ele><time>2026-04-06T07:56:56.084Z</time></trkpt><trkpt lat="41.1049733" lon="14.34108"><ele>335.28571428571433</ele><time>2026-04-06T07:56:57.084Z</time></trkpt><trkpt lat="41.104945" lon="14.3409917"><ele>335.7142857142857</ele><time>2026-04-06T07:56:58.084Z</time></trkpt><trkpt lat="41.1049117" lon="14.3409083"><ele>336.14285714285717</ele><time>2026-04-06T07:56:59.084Z</time></trkpt><trkpt lat="41.10488" lon="14.3408267"><ele>336.5714285714286</ele><time>2026-04-06T07:57:00.085Z</time></trkpt><trkpt lat="41.1048517" lon="14.3407383"><ele>337.0</ele><time>2026-04-06T07:57:01.084Z</time></trkpt><trkpt lat="41.10482" lon="14.3406517"><ele>334.00000000000006</ele><time>2026-04-06T07:57:02.085Z</time></trkpt><trkpt lat="41.1047933" lon="14.3405617"><ele>331.0</ele><time>2026-04-06T07:57:03.086Z</time></trkpt><trkpt lat="41.10477" lon="14.3404667"><ele>328.0</ele><time>2026-04-06T07:57:04.085Z</time></trkpt><trkpt lat="41.1047533" lon="14.3403683"><ele>325.0</ele><time>2026-04-06T07:57:05.085Z</time></trkpt><trkpt lat="41.104745" lon="14.34027"><ele>322.0</ele><time>2026-04-06T07:57:06.085Z</time></trkpt><trkpt lat="41.1047417" lon="14.3401733"><ele>319.00000000000006</ele><time>2026-04-06T07:57:07.086Z</time></trkpt><trkpt lat="41.1047417" lon="14.3400767"><ele>316.0</ele><time>2026-04-06T07:57:08.087Z</time></trkpt><trkpt lat="41.1047383" lon="14.3399817"><ele>316.00000000000006</ele><time>2026-04-06T07:57:09.084Z</time></trkpt><trkpt lat="41.1047367" lon="14.339885"><ele>316.0</ele><time>2026-04-06T07:57:10.083Z</time></trkpt><trkpt lat="41.1047417" lon="14.33979"><ele>316.0</ele><time>2026-04-06T07:57:11.085Z</time></trkpt><trkpt lat="41.10475" lon="14.339695"><ele>316.0</ele><time>2026-04-06T07:57:12.086Z</time></trkpt><trkpt lat="41.1047583" lon="14.3396017"><ele>316.0</ele><time>2026-04-06T07:57:13.085Z</time></trkpt><trkpt lat="41.10477" lon="14.3395083"><ele>316.00000000000006</ele><time>2026-04-06T07:57:14.085Z</time></trkpt><trkpt lat="41.10478" lon="14.3394133"><ele>316.0</ele><time>2026-04-06T07:57:15.086Z</time></trkpt><trkpt lat="41.10479" lon="14.3393217"><ele>315.5714285714286</ele><time>2026-04-06T07:57:16.083Z</time></trkpt><trkpt lat="41.1048" lon="14.339225"><ele>315.14285714285717</ele><time>2026-04-06T07:57:17.085Z</time></trkpt><trkpt lat="41.1048117" lon="14.3391267"><ele>314.7142857142857</ele><time>2026-04-06T07:57:18.087Z</time></trkpt><trkpt lat="41.1048233" lon="14.3390317"><ele>314.28571428571433</ele><time>2026-04-06T07:57:19.084Z</time></trkpt><trkpt lat="41.1048333" lon="14.33894"><ele>313.8571428571429</ele><time>2026-04-06T07:57:20.092Z</time></trkpt><trkpt lat="41.1048433" lon="14.33885"><ele>313.42857142857144</ele><time>2026-04-06T07:57:21.087Z</time></trkpt><trkpt lat="41.1048517" lon="14.338755"><ele>313.0</ele><time>2026-04-06T07:57:22.086Z</time></trkpt><trkpt lat="41.1048633" lon="14.3386667"><ele>311.66666666666663</ele><time>2026-04-06T07:57:23.085Z</time></trkpt><trkpt lat="41.1048767" lon="14.3385717"><ele>310.3333333333333</ele><time>2026-04-06T07:57:24.085Z</time></trkpt><trkpt lat="41.10489" lon="14.338475"><ele>309.0</ele><time>2026-04-06T07:57:25.084Z</time></trkpt><trkpt lat="41.1049" lon="14.33838"><ele>307.6666666666667</ele><time>2026-04-06T07:57:26.085Z</time></trkpt><trkpt lat="41.10491" lon="14.3382833"><ele>306.33333333333337</ele><time>2026-04-06T07:57:27.087Z</time></trkpt><trkpt lat="41.10491" lon="14.3381967"><ele>305.0</ele><time>2026-04-06T07:57:28.085Z</time></trkpt><trkpt lat="41.1049117" lon="14.3380367"><ele>308.33333333333337</ele><time>2026-04-06T07:57:30.085Z</time></trkpt><trkpt lat="41.1049317" lon="14.33787"><ele>311.6666666666667</ele><time>2026-04-06T07:57:32.084Z</time></trkpt><trkpt lat="41.104945" lon="14.33778"><ele>315.0</ele><time>2026-04-06T07:57:33.085Z</time></trkpt><trkpt lat="41.1049583" lon="14.3376883"><ele>318.3333333333333</ele><time>2026-04-06T07:57:34.084Z</time></trkpt><trkpt lat="41.1049717" lon="14.3375983"><ele>321.66666666666663</ele><time>2026-04-06T07:57:35.085Z</time></trkpt><trkpt lat="41.1049867" lon="14.337505"><ele>325.0</ele><time>2026-04-06T07:57:36.086Z</time></trkpt><trkpt lat="41.1050067" lon="14.33741"><ele>325.0</ele><time>2026-04-06T07:57:37.084Z</time></trkpt><trkpt lat="41.10503" lon="14.337315"><ele>325.0</ele><time>2026-04-06T07:57:38.084Z</time></trkpt><trkpt lat="41.1050517" lon="14.3372183"><ele>325.0</ele><time>2026-04-06T07:57:39.084Z</time></trkpt><trkpt lat="41.105075" lon="14.3371217"><ele>325.0</ele><time>2026-04-06T07:57:40.085Z</time></trkpt><trkpt lat="41.1050983" lon="14.3370217"><ele>325.0</ele><time>2026-04-06T07:57:41.084Z</time></trkpt><trkpt lat="41.1051233" lon="14.3369217"><ele>325.0</ele><time>2026-04-06T07:57:42.084Z</time></trkpt><trkpt lat="41.10515" lon="14.336815"><ele>323.5</ele><time>2026-04-06T07:57:43.085Z</time></trkpt><trkpt lat="41.1051717" lon="14.3367033"><ele>322.0</ele><time>2026-04-06T07:57:44.084Z</time></trkpt><trkpt lat="41.1051883" lon="14.33659"><ele>320.5</ele><time>2026-04-06T07:57:45.086Z</time></trkpt><trkpt lat="41.1052033" lon="14.3364717"><ele>319.0</ele><time>2026-04-06T07:57:46.086Z</time></trkpt><trkpt lat="41.105215" lon="14.3363517"><ele>317.5</ele><time>2026-04-06T07:57:47.086Z</time></trkpt><trkpt lat="41.1052233" lon="14.33623"><ele>316.0</ele><time>2026-04-06T07:57:48.084Z</time></trkpt><trkpt lat="41.10523" lon="14.3361083"><ele>315.8</ele><time>2026-04-06T07:57:49.085Z</time></trkpt><trkpt lat="41.1052383" lon="14.3359817"><ele>315.6</ele><time>2026-04-06T07:57:50.084Z</time></trkpt><trkpt lat="41.105245" lon="14.3358533"><ele>315.4</ele><time>2026-04-06T07:57:51.086Z</time></trkpt><trkpt lat="41.10525" lon="14.335725"><ele>315.2</ele><time>2026-04-06T07:57:52.084Z</time></trkpt><trkpt lat="41.10526" lon="14.3355983"><ele>315.0</ele><time>2026-04-06T07:57:53.085Z</time></trkpt><trkpt lat="41.1052733" lon="14.335475"><ele>314.85714285714283</ele><time>2026-04-06T07:57:54.085Z</time></trkpt><trkpt lat="41.1052917" lon="14.33536"><ele>314.7142857142857</ele><time>2026-04-06T07:57:55.085Z</time></trkpt><trkpt lat="41.1053133" lon="14.33526"><ele>314.57142857142856</ele><time>2026-04-06T07:57:56.085Z</time></trkpt><trkpt lat="41.105335" lon="14.33517"><ele>314.42857142857144</ele><time>2026-04-06T07:57:57.085Z</time></trkpt><trkpt lat="41.1053583" lon="14.33509"><ele>314.2857142857143</ele><time>2026-04-06T07:57:58.084Z</time></trkpt><trkpt lat="41.1053867" lon="14.33501"><ele>314.1428571428571</ele><time>2026-04-06T07:57:59.086Z</time></trkpt><trkpt lat="41.105425" lon="14.3349367"><ele>314.0</ele><time>2026-04-06T07:58:00.085Z</time></trkpt><trkpt lat="41.105495" lon="14.3348083"><ele>313.99999999999994</ele><time>2026-04-06T07:58:02.085Z</time></trkpt><trkpt lat="41.1055633" lon="14.3347067"><ele>314.0</ele><time>2026-04-06T07:58:04.084Z</time></trkpt><trkpt lat="41.1056083" lon="14.3346317"><ele>314.0</ele><time>2026-04-06T07:58:06.085Z</time></trkpt><trkpt lat="41.1055467" lon="14.334595"><ele>314.0</ele><time>2026-04-06T07:58:11.086Z</time></trkpt><trkpt lat="41.1054783" lon="14.3346283"><ele>314.0</ele><time>2026-04-06T07:58:14.086Z</time></trkpt><trkpt lat="41.1054267" lon="14.334685"><ele>313.99999999999994</ele><time>2026-04-06T07:58:17.084Z</time></trkpt><trkpt lat="41.1054667" lon="14.3347517"><ele>314.0</ele><time>2026-04-06T07:58:20.086Z</time></trkpt><trkpt lat="41.1055367" lon="14.334695"><ele>314.2</ele><time>2026-04-06T07:58:23.085Z</time></trkpt><trkpt lat="41.10559" lon="14.3346167"><ele>314.4</ele><time>2026-04-06T07:58:25.087Z</time></trkpt><trkpt lat="41.10566" lon="14.33454"><ele>314.6</ele><time>2026-04-06T07:58:27.084Z</time></trkpt><trkpt lat="41.1057333" lon="14.334455"><ele>314.8</ele><time>2026-04-06T07:58:29.085Z</time></trkpt><trkpt lat="41.1058067" lon="14.3343733"><ele>315.0</ele><time>2026-04-06T07:58:31.083Z</time></trkpt><trkpt lat="41.1058833" lon="14.3342967"><ele>315.0</ele><time>2026-04-06T07:58:33.083Z</time></trkpt><trkpt lat="41.1059583" lon="14.33422"><ele>315.0</ele><time>2026-04-06T07:58:35.084Z</time></trkpt><trkpt lat="41.1060333" lon="14.3341383"><ele>315.0</ele><time>2026-04-06T07:58:37.085Z</time></trkpt><trkpt lat="41.106115" lon="14.3340583"><ele>315.0</ele><time>2026-04-06T07:58:39.087Z</time></trkpt><trkpt lat="41.1061917" lon="14.33396"><ele>315.0</ele><time>2026-04-06T07:58:41.085Z</time></trkpt><trkpt lat="41.1062683" lon="14.3338617"><ele>313.4</ele><time>2026-04-06T07:58:43.085Z</time></trkpt><trkpt lat="41.1063483" lon="14.333755"><ele>311.8</ele><time>2026-04-06T07:58:45.086Z</time></trkpt><trkpt lat="41.106425" lon="14.3336467"><ele>310.2</ele><time>2026-04-06T07:58:47.084Z</time></trkpt><trkpt lat="41.1065033" lon="14.3335617"><ele>308.6</ele><time>2026-04-06T07:58:49.086Z</time></trkpt><trkpt lat="41.1066017" lon="14.3335217"><ele>307.0</ele><time>2026-04-06T07:58:51.085Z</time></trkpt><trkpt lat="41.1067083" lon="14.3335233"><ele>307.0</ele><time>2026-04-06T07:58:53.084Z</time></trkpt><trkpt lat="41.10682" lon="14.3335517"><ele>307.0</ele><time>2026-04-06T07:58:55.085Z</time></trkpt><trkpt lat="41.106925" lon="14.33361"><ele>307.0</ele><time>2026-04-06T07:58:57.084Z</time></trkpt><trkpt lat="41.107025" lon="14.3337017"><ele>307.0</ele><time>2026-04-06T07:58:59.083Z</time></trkpt><trkpt lat="41.1071017" lon="14.33382"><ele>309.4</ele><time>2026-04-06T07:59:01.085Z</time></trkpt><trkpt lat="41.1071667" lon="14.3339417"><ele>311.79999999999995</ele><time>2026-04-06T07:59:03.083Z</time></trkpt><trkpt lat="41.10722" lon="14.3340667"><ele>314.2</ele><time>2026-04-06T07:59:05.085Z</time></trkpt><trkpt lat="41.1072667" lon="14.3341967"><ele>316.59999999999997</ele><time>2026-04-06T07:59:07.087Z</time></trkpt><trkpt lat="41.1073083" lon="14.3343267"><ele>319.0</ele><time>2026-04-06T07:59:09.085Z</time></trkpt><trkpt lat="41.1073567" lon="14.33446"><ele>319.0</ele><time>2026-04-06T07:59:11.086Z</time></trkpt><trkpt lat="41.1073933" lon="14.3345983"><ele>319.0</ele><time>2026-04-06T07:59:13.083Z</time></trkpt><trkpt lat="41.107435" lon="14.3347417"><ele>319.0</ele><time>2026-04-06T07:59:15.084Z</time></trkpt><trkpt lat="41.10747" lon="14.3348783"><ele>319.0</ele><time>2026-04-06T07:59:17.084Z</time></trkpt><trkpt lat="41.107495" lon="14.3350183"><ele>319.0</ele><time>2026-04-06T07:59:19.085Z</time></trkpt><trkpt lat="41.10751" lon="14.3351667"><ele>319.4</ele><time>2026-04-06T07:59:21.085Z</time></trkpt><trkpt lat="41.107515" lon="14.335305"><ele>319.79999999999995</ele><time>2026-04-06T07:59:23.083Z</time></trkpt><trkpt lat="41.107525" lon="14.3354483"><ele>320.20000000000005</ele><time>2026-04-06T07:59:25.088Z</time></trkpt><trkpt lat="41.1075383" lon="14.3355983"><ele>320.6</ele><time>2026-04-06T07:59:27.084Z</time></trkpt><trkpt lat="41.10754" lon="14.33575"><ele>321.0</ele><time>2026-04-06T07:59:29.084Z</time></trkpt><trkpt lat="41.107545" lon="14.3359017"><ele>321.0</ele><time>2026-04-06T07:59:31.084Z</time></trkpt><trkpt lat="41.1075433" lon="14.3360533"><ele>321.0</ele><time>2026-04-06T07:59:33.084Z</time></trkpt><trkpt lat="41.1075283" lon="14.3362"><ele>321.0</ele><time>2026-04-06T07:59:35.084Z</time></trkpt><trkpt lat="41.1075233" lon="14.33635"><ele>321.0</ele><time>2026-04-06T07:59:37.085Z</time></trkpt><trkpt lat="41.1075133" lon="14.336495"><ele>321.0</ele><time>2026-04-06T07:59:39.084Z</time></trkpt><trkpt lat="41.1075033" lon="14.336645"><ele>321.0</ele><time>2026-04-06T07:59:41.084Z</time></trkpt><trkpt lat="41.1074933" lon="14.3367967"><ele>321.0</ele><time>2026-04-06T07:59:43.085Z</time></trkpt><trkpt lat="41.10748" lon="14.3369333"><ele>321.0</ele><time>2026-04-06T07:59:45.084Z</time></trkpt><trkpt lat="41.10746" lon="14.3370867"><ele>321.0</ele><time>2026-04-06T07:59:47.084Z</time></trkpt><trkpt lat="41.10744" lon="14.337235"><ele>321.0</ele><time>2026-04-06T07:59:49.085Z</time></trkpt><trkpt lat="41.1074133" lon="14.3373833"><ele>326.8</ele><time>2026-04-06T07:59:51.085Z</time></trkpt><trkpt lat="41.1073833" lon="14.3375217"><ele>332.6</ele><time>2026-04-06T07:59:53.085Z</time></trkpt><trkpt lat="41.1073533" lon="14.337665"><ele>338.4</ele><time>2026-04-06T07:59:55.085Z</time></trkpt><trkpt lat="41.1073333" lon="14.3378033"><ele>344.2</ele><time>2026-04-06T07:59:57.085Z</time></trkpt><trkpt lat="41.1073083" lon="14.3379317"><ele>350.0</ele><time>2026-04-06T07:59:59.084Z</time></trkpt><trkpt lat="41.1072883" lon="14.33807"><ele>350.0</ele><time>2026-04-06T08:00:01.085Z</time></trkpt><trkpt lat="41.1072767" lon="14.338215"><ele>350.0</ele><time>2026-04-06T08:00:03.084Z</time></trkpt><trkpt lat="41.107275" lon="14.3383733"><ele>350.0</ele><time>2026-04-06T08:00:05.085Z</time></trkpt><trkpt lat="41.1072517" lon="14.338525"><ele>350.0</ele><time>2026-04-06T08:00:07.086Z</time></trkpt><trkpt lat="41.1072367" lon="14.3386683"><ele>350.0</ele><time>2026-04-06T08:00:09.085Z</time></trkpt><trkpt lat="41.107225" lon="14.3388117"><ele>350.0</ele><time>2026-04-06T08:00:11.087Z</time></trkpt><trkpt lat="41.10722" lon="14.3389533"><ele>350.0</ele><time>2026-04-06T08:00:13.084Z</time></trkpt><trkpt lat="41.10721" lon="14.3391033"><ele>350.0</ele><time>2026-04-06T08:00:15.086Z</time></trkpt><trkpt lat="41.1072083" lon="14.33926"><ele>350.0</ele><time>2026-04-06T08:00:17.085Z</time></trkpt><trkpt lat="41.1072083" lon="14.339405"><ele>350.2</ele><time>2026-04-06T08:00:19.085Z</time></trkpt><trkpt lat="41.1072167" lon="14.33956"><ele>350.4</ele><time>2026-04-06T08:00:21.084Z</time></trkpt><trkpt lat="41.1072333" lon="14.3397017"><ele>350.6</ele><time>2026-04-06T08:00:23.086Z</time></trkpt><trkpt lat="41.10725" lon="14.3398467"><ele>350.8</ele><time>2026-04-06T08:00:25.085Z</time></trkpt><trkpt lat="41.10727" lon="14.339985"><ele>351.0</ele><time>2026-04-06T08:00:27.086Z</time></trkpt><trkpt lat="41.1072833" lon="14.3401217"><ele>351.0</ele><time>2026-04-06T08:00:29.084Z</time></trkpt><trkpt lat="41.1072867" lon="14.340265"><ele>351.0</ele><time>2026-04-06T08:00:31.085Z</time></trkpt><trkpt lat="41.1072833" lon="14.3404033"><ele>351.0</ele><time>2026-04-06T08:00:33.084Z</time></trkpt><trkpt lat="41.1072733" lon="14.340545"><ele>351.0</ele><time>2026-04-06T08:00:35.084Z</time></trkpt><trkpt lat="41.1072633" lon="14.340685"><ele>351.0</ele><time>2026-04-06T08:00:37.085Z</time></trkpt><trkpt lat="41.1072283" lon="14.3408217"><ele>351.0</ele><time>2026-04-06T08:00:39.084Z</time></trkpt><trkpt lat="41.1071867" lon="14.3409583"><ele>351.0</ele><time>2026-04-06T08:00:41.084Z</time></trkpt><trkpt lat="41.1071517" lon="14.3410983"><ele>351.0</ele><time>2026-04-06T08:00:43.085Z</time></trkpt><trkpt lat="41.1071183" lon="14.3412517"><ele>351.0</ele><time>2026-04-06T08:00:45.084Z</time></trkpt><trkpt lat="41.1070983" lon="14.3414"><ele>350.0</ele><time>2026-04-06T08:00:47.084Z</time></trkpt><trkpt lat="41.1070983" lon="14.3415517"><ele>349.0</ele><time>2026-04-06T08:00:49.085Z</time></trkpt><trkpt lat="41.1070917" lon="14.34172"><ele>348.0</ele><time>2026-04-06T08:00:51.085Z</time></trkpt><trkpt lat="41.1070817" lon="14.3418067"><ele>347.0</ele><time>2026-04-06T08:00:52.084Z</time></trkpt><trkpt lat="41.107075" lon="14.34189"><ele>346.0</ele><time>2026-04-06T08:00:53.085Z</time></trkpt><trkpt lat="41.107075" lon="14.3420533"><ele>346.0</ele><time>2026-04-06T08:00:55.085Z</time></trkpt><trkpt lat="41.1070733" lon="14.3421383"><ele>346.0</ele><time>2026-04-06T08:00:56.086Z</time></trkpt><trkpt lat="41.107065" lon="14.3422283"><ele>346.0</ele><time>2026-04-06T08:00:57.084Z</time></trkpt><trkpt lat="41.1070683" lon="14.342315"><ele>346.0</ele><time>2026-04-06T08:00:58.084Z</time></trkpt><trkpt lat="41.1070717" lon="14.3424067"><ele>346.0</ele><time>2026-04-06T08:00:59.084Z</time></trkpt><trkpt lat="41.1070733" lon="14.3424967"><ele>346.0</ele><time>2026-04-06T08:01:00.084Z</time></trkpt><trkpt lat="41.1070767" lon="14.3425833"><ele>346.0</ele><time>2026-04-06T08:01:01.086Z</time></trkpt><trkpt lat="41.1070733" lon="14.3427517"><ele>345.8</ele><time>2026-04-06T08:01:03.085Z</time></trkpt><trkpt lat="41.1070733" lon="14.3429183"><ele>345.6</ele><time>2026-04-06T08:01:05.084Z</time></trkpt><trkpt lat="41.1070667" lon="14.343075"><ele>345.4</ele><time>2026-04-06T08:01:07.084Z</time></trkpt><trkpt lat="41.1070433" lon="14.3432283"><ele>345.2</ele><time>2026-04-06T08:01:09.089Z</time></trkpt><trkpt lat="41.10703" lon="14.34331"><ele>345.0</ele><time>2026-04-06T08:01:10.085Z</time></trkpt><trkpt lat="41.1070117" lon="14.3434683"><ele>343.25</ele><time>2026-04-06T08:01:12.085Z</time></trkpt><trkpt lat="41.1069983" lon="14.3436267"><ele>341.5</ele><time>2026-04-06T08:01:14.086Z</time></trkpt><trkpt lat="41.1069733" lon="14.3437867"><ele>339.75</ele><time>2026-04-06T08:01:16.085Z</time></trkpt><trkpt lat="41.1069383" lon="14.3439467"><ele>338.0</ele><time>2026-04-06T08:01:18.084Z</time></trkpt><trkpt lat="41.1069117" lon="14.3440983"><ele>335.75</ele><time>2026-04-06T08:01:20.087Z</time></trkpt><trkpt lat="41.1068733" lon="14.344255"><ele>333.5</ele><time>2026-04-06T08:01:22.084Z</time></trkpt><trkpt lat="41.1068433" lon="14.344415"><ele>331.25</ele><time>2026-04-06T08:01:24.084Z</time></trkpt><trkpt lat="41.1068217" lon="14.3445617"><ele>329.0</ele><time>2026-04-06T08:01:26.087Z</time></trkpt><trkpt lat="41.1067917" lon="14.3447"><ele>328.1666666666667</ele><time>2026-04-06T08:01:28.084Z</time></trkpt><trkpt lat="41.1067667" lon="14.344825"><ele>327.33333333333337</ele><time>2026-04-06T08:01:30.085Z</time></trkpt><trkpt lat="41.106755" lon="14.3449467"><ele>326.5</ele><time>2026-04-06T08:01:32.085Z</time></trkpt><trkpt lat="41.1067483" lon="14.3450417"><ele>325.6666666666667</ele><time>2026-04-06T08:01:34.084Z</time></trkpt><trkpt lat="41.10675" lon="14.3451567"><ele>324.8333333333333</ele><time>2026-04-06T08:01:37.085Z</time></trkpt><trkpt lat="41.106755" lon="14.34507"><ele>324.0</ele><time>2026-04-06T08:01:43.086Z</time></trkpt><trkpt lat="41.106745" lon="14.34497"><ele>324.0</ele><time>2026-04-06T08:01:45.084Z</time></trkpt><trkpt lat="41.106745" lon="14.34487"><ele>324.0</ele><time>2026-04-06T08:01:47.085Z</time></trkpt><trkpt lat="41.1067533" lon="14.34477"><ele>324.0</ele><time>2026-04-06T08:01:49.085Z</time></trkpt><trkpt lat="41.1067733" lon="14.34465"><ele>324.0</ele><time>2026-04-06T08:01:51.085Z</time></trkpt><trkpt lat="41.1068167" lon="14.3445183"><ele>324.0</ele><time>2026-04-06T08:01:53.084Z</time></trkpt><trkpt lat="41.1068717" lon="14.3443683"><ele>324.8333333333333</ele><time>2026-04-06T08:01:55.085Z</time></trkpt><trkpt lat="41.1069183" lon="14.3442917"><ele>325.6666666666667</ele><time>2026-04-06T08:01:56.085Z</time></trkpt><trkpt lat="41.1069683" lon="14.34422"><ele>326.5</ele><time>2026-04-06T08:01:57.085Z</time></trkpt><trkpt lat="41.1070317" lon="14.3441533"><ele>327.33333333333337</ele><time>2026-04-06T08:01:58.085Z</time></trkpt><trkpt lat="41.1071083" lon="14.344095"><ele>328.1666666666667</ele><time>2026-04-06T08:01:59.085Z</time></trkpt><trkpt lat="41.1071833" lon="14.3440317"><ele>329.0</ele><time>2026-04-06T08:02:00.086Z</time></trkpt><trkpt lat="41.10726" lon="14.34396"><ele>330.79999999999995</ele><time>2026-04-06T08:02:01.085Z</time></trkpt><trkpt lat="41.1073417" lon="14.3438783"><ele>332.59999999999997</ele><time>2026-04-06T08:02:02.085Z</time></trkpt><trkpt lat="41.1074167" lon="14.3437833"><ele>334.4</ele><time>2026-04-06T08:02:03.087Z</time></trkpt><trkpt lat="41.1074917" lon="14.3436817"><ele>336.2</ele><time>2026-04-06T08:02:04.084Z</time></trkpt><trkpt lat="41.1075533" lon="14.343565"><ele>338.0</ele><time>2026-04-06T08:02:05.085Z</time></trkpt><trkpt lat="41.1076017" lon="14.34343"><ele>332.0</ele><time>2026-04-06T08:02:06.084Z</time></trkpt><trkpt lat="41.1076367" lon="14.343285"><ele>326.0</ele><time>2026-04-06T08:02:07.085Z</time></trkpt><trkpt lat="41.1076567" lon="14.34313"><ele>320.0</ele><time>2026-04-06T08:02:08.087Z</time></trkpt><trkpt lat="41.10766" lon="14.342965"><ele>314.0</ele><time>2026-04-06T08:02:09.085Z</time></trkpt><trkpt lat="41.107655" lon="14.3427933"><ele>312.75</ele><time>2026-04-06T08:02:10.085Z</time></trkpt><trkpt lat="41.1076633" lon="14.342625"><ele>311.5</ele><time>2026-04-06T08:02:11.085Z</time></trkpt><trkpt lat="41.10769" lon="14.3424683"><ele>310.25</ele><time>2026-04-06T08:02:12.084Z</time></trkpt><trkpt lat="41.1077283" lon="14.34231"><ele>309.0</ele><time>2026-04-06T08:02:13.084Z</time></trkpt><trkpt lat="41.1077717" lon="14.34215"><ele>308.5</ele><time>2026-04-06T08:02:14.084Z</time></trkpt><trkpt lat="41.1078183" lon="14.3419833"><ele>308.0</ele><time>2026-04-06T08:02:15.084Z</time></trkpt><trkpt lat="41.107865" lon="14.3418183"><ele>307.5</ele><time>2026-04-06T08:02:16.083Z</time></trkpt><trkpt lat="41.1079083" lon="14.3416517"><ele>307.0</ele><time>2026-04-06T08:02:17.084Z</time></trkpt><trkpt lat="41.107945" lon="14.341485"><ele>307.0</ele><time>2026-04-06T08:02:18.084Z</time></trkpt><trkpt lat="41.10797" lon="14.3413233"><ele>307.0</ele><time>2026-04-06T08:02:19.084Z</time></trkpt><trkpt lat="41.10799" lon="14.3411683"><ele>307.0</ele><time>2026-04-06T08:02:20.086Z</time></trkpt><trkpt lat="41.1080033" lon="14.3410317"><ele>307.0</ele><time>2026-04-06T08:02:21.087Z</time></trkpt><trkpt lat="41.108015" lon="14.3409017"><ele>307.0</ele><time>2026-04-06T08:02:22.084Z</time></trkpt><trkpt lat="41.1080167" lon="14.34078"><ele>307.0</ele><time>2026-04-06T08:02:23.084Z</time></trkpt><trkpt lat="41.1079983" lon="14.3406617"><ele>307.0</ele><time>2026-04-06T08:02:24.085Z</time></trkpt><trkpt lat="41.1079517" lon="14.3405517"><ele>307.0</ele><time>2026-04-06T08:02:25.087Z</time></trkpt><trkpt lat="41.1078867" lon="14.340455"><ele>307.0</ele><time>2026-04-06T08:02:26.085Z</time></trkpt><trkpt lat="41.107815" lon="14.3403667"><ele>307.0</ele><time>2026-04-06T08:02:27.086Z</time></trkpt><trkpt lat="41.1077483" lon="14.340285"><ele>306.5</ele><time>2026-04-06T08:02:28.085Z</time></trkpt><trkpt lat="41.107695" lon="14.3402"><ele>306.0</ele><time>2026-04-06T08:02:29.087Z</time></trkpt><trkpt lat="41.1076517" lon="14.3401033"><ele>305.5</ele><time>2026-04-06T08:02:30.086Z</time></trkpt><trkpt lat="41.1076267" lon="14.3399967"><ele>305.0</ele><time>2026-04-06T08:02:31.085Z</time></trkpt><trkpt lat="41.10762" lon="14.3398817"><ele>304.5</ele><time>2026-04-06T08:02:32.086Z</time></trkpt><trkpt lat="41.1076167" lon="14.3397617"><ele>304.0</ele><time>2026-04-06T08:02:33.085Z</time></trkpt><trkpt lat="41.1076133" lon="14.33964"><ele>303.8</ele><time>2026-04-06T08:02:34.088Z</time></trkpt><trkpt lat="41.10761" lon="14.3395133"><ele>303.59999999999997</ele><time>2026-04-06T08:02:35.086Z</time></trkpt><trkpt lat="41.1076117" lon="14.3393767"><ele>303.4</ele><time>2026-04-06T08:02:36.085Z</time></trkpt><trkpt lat="41.10761" lon="14.3392383"><ele>303.2</ele><time>2026-04-06T08:02:37.085Z</time></trkpt><trkpt lat="41.1076067" lon="14.3390983"><ele>303.0</ele><time>2026-04-06T08:02:38.085Z</time></trkpt><trkpt lat="41.1076133" lon="14.3389567"><ele>303.75</ele><time>2026-04-06T08:02:39.085Z</time></trkpt><trkpt lat="41.1076217" lon="14.3388133"><ele>304.5</ele><time>2026-04-06T08:02:40.084Z</time></trkpt><trkpt lat="41.1076433" lon="14.3386683"><ele>305.25</ele><time>2026-04-06T08:02:41.088Z</time></trkpt><trkpt lat="41.1076733" lon="14.3385217"><ele>306.0</ele><time>2026-04-06T08:02:42.085Z</time></trkpt><trkpt lat="41.1077033" lon="14.3383683"><ele>306.0</ele><time>2026-04-06T08:02:43.085Z</time></trkpt><trkpt lat="41.1077333" lon="14.3382167"><ele>306.0</ele><time>2026-04-06T08:02:44.085Z</time></trkpt><trkpt lat="41.1077767" lon="14.3380683"><ele>306.0</ele><time>2026-04-06T08:02:45.086Z</time></trkpt><trkpt lat="41.1078267" lon="14.3379267"><ele>306.0</ele><time>2026-04-06T08:02:46.086Z</time></trkpt><trkpt lat="41.1078767" lon="14.3377867"><ele>307.75</ele><time>2026-04-06T08:02:47.085Z</time></trkpt><trkpt lat="41.1079317" lon="14.3376433"><ele>309.5</ele><time>2026-04-06T08:02:48.086Z</time></trkpt><trkpt lat="41.1079883" lon="14.3375"><ele>311.25</ele><time>2026-04-06T08:02:49.086Z</time></trkpt><trkpt lat="41.1080417" lon="14.3373467"><ele>313.0</ele><time>2026-04-06T08:02:50.086Z</time></trkpt><trkpt lat="41.108075" lon="14.3371867"><ele>315.0</ele><time>2026-04-06T08:02:51.085Z</time></trkpt><trkpt lat="41.10811" lon="14.3370367"><ele>317.0</ele><time>2026-04-06T08:02:52.085Z</time></trkpt><trkpt lat="41.1081467" lon="14.336895"><ele>319.0</ele><time>2026-04-06T08:02:53.085Z</time></trkpt><trkpt lat="41.1081817" lon="14.336755"><ele>321.0</ele><time>2026-04-06T08:02:54.085Z</time></trkpt><trkpt lat="41.1082267" lon="14.3366183"><ele>311.0</ele><time>2026-04-06T08:02:55.085Z</time></trkpt><trkpt lat="41.108265" lon="14.3364767"><ele>301.0</ele><time>2026-04-06T08:02:56.085Z</time></trkpt><trkpt lat="41.108305" lon="14.3363283"><ele>291.0</ele><time>2026-04-06T08:02:57.084Z</time></trkpt><trkpt lat="41.1083367" lon="14.336185"><ele>281.0</ele><time>2026-04-06T08:02:58.085Z</time></trkpt><trkpt lat="41.108355" lon="14.3360483"><ele>271.0</ele><time>2026-04-06T08:02:59.085Z</time></trkpt><trkpt lat="41.1083733" lon="14.33593"><ele>271.0</ele><time>2026-04-06T08:03:00.085Z</time></trkpt><trkpt lat="41.1083867" lon="14.3358167"><ele>271.0</ele><time>2026-04-06T08:03:01.085Z</time></trkpt><trkpt lat="41.1084033" lon="14.3357017"><ele>271.0</ele><time>2026-04-06T08:03:02.085Z</time></trkpt><trkpt lat="41.10841" lon="14.3355833"><ele>271.0</ele><time>2026-04-06T08:03:03.085Z</time></trkpt><trkpt lat="41.1084117" lon="14.3354633"><ele>271.0</ele><time>2026-04-06T08:03:04.084Z</time></trkpt><trkpt lat="41.1084133" lon="14.3353467"><ele>271.0</ele><time>2026-04-06T08:03:05.085Z</time></trkpt><trkpt lat="41.1084133" lon="14.3352367"><ele>271.0</ele><time>2026-04-06T08:03:06.085Z</time></trkpt><trkpt lat="41.1084183" lon="14.3351267"><ele>271.0</ele><time>2026-04-06T08:03:07.085Z</time></trkpt><trkpt lat="41.1084233" lon="14.335015"><ele>271.0</ele><time>2026-04-06T08:03:08.085Z</time></trkpt><trkpt lat="41.1084317" lon="14.3349"><ele>271.0</ele><time>2026-04-06T08:03:09.085Z</time></trkpt><trkpt lat="41.1084383" lon="14.3347817"><ele>271.0</ele><time>2026-04-06T08:03:10.085Z</time></trkpt><trkpt lat="41.108435" lon="14.334655"><ele>271.0</ele><time>2026-04-06T08:03:11.085Z</time></trkpt><trkpt lat="41.1084317" lon="14.33453"><ele>269.0</ele><time>2026-04-06T08:03:12.085Z</time></trkpt><trkpt lat="41.1084217" lon="14.3344017"><ele>267.0</ele><time>2026-04-06T08:03:13.085Z</time></trkpt><trkpt lat="41.1084083" lon="14.33428"><ele>265.0</ele><time>2026-04-06T08:03:14.086Z</time></trkpt><trkpt lat="41.1083867" lon="14.3341633"><ele>263.0</ele><time>2026-04-06T08:03:15.085Z</time></trkpt><trkpt lat="41.10836" lon="14.3340467"><ele>261.0</ele><time>2026-04-06T08:03:16.084Z</time></trkpt><trkpt lat="41.10833" lon="14.3339367"><ele>257.2</ele><time>2026-04-06T08:03:17.085Z</time></trkpt><trkpt lat="41.1083" lon="14.333825"><ele>253.40000000000003</ele><time>2026-04-06T08:03:18.085Z</time></trkpt><trkpt lat="41.108265" lon="14.3337083"><ele>249.6</ele><time>2026-04-06T08:03:19.086Z</time></trkpt><trkpt lat="41.108235" lon="14.3335883"><ele>245.8</ele><time>2026-04-06T08:03:20.085Z</time></trkpt><trkpt lat="41.108205" lon="14.3334667"><ele>242.0</ele><time>2026-04-06T08:03:21.085Z</time></trkpt><trkpt lat="41.1081683" lon="14.3333433"><ele>247.0</ele><time>2026-04-06T08:03:22.085Z</time></trkpt><trkpt lat="41.1081333" lon="14.3332217"><ele>252.0</ele><time>2026-04-06T08:03:23.086Z</time></trkpt><trkpt lat="41.108095" lon="14.3330933"><ele>257.0</ele><time>2026-04-06T08:03:24.086Z</time></trkpt><trkpt lat="41.1080517" lon="14.33297"><ele>262.0</ele><time>2026-04-06T08:03:25.086Z</time></trkpt><trkpt lat="41.1080083" lon="14.3328517"><ele>267.0</ele><time>2026-04-06T08:03:26.085Z</time></trkpt><trkpt lat="41.1079583" lon="14.3327317"><ele>267.0</ele><time>2026-04-06T08:03:27.085Z</time></trkpt><trkpt lat="41.1079067" lon="14.3326117"><ele>267.0</ele><time>2026-04-06T08:03:28.086Z</time></trkpt><trkpt lat="41.1078617" lon="14.3324933"><ele>267.0</ele><time>2026-04-06T08:03:29.085Z</time></trkpt><trkpt lat="41.107815" lon="14.3323733"><ele>267.0</ele><time>2026-04-06T08:03:30.086Z</time></trkpt><trkpt lat="41.1077717" lon="14.3322583"><ele>267.0</ele><time>2026-04-06T08:03:31.086Z</time></trkpt><trkpt lat="41.1077317" lon="14.3321333"><ele>263.8</ele><time>2026-04-06T08:03:32.086Z</time></trkpt><trkpt lat="41.1076983" lon="14.3319983"><ele>260.6</ele><time>2026-04-06T08:03:33.085Z</time></trkpt><trkpt lat="41.1076717" lon="14.33186"><ele>257.40000000000003</ele><time>2026-04-06T08:03:34.085Z</time></trkpt><trkpt lat="41.1076417" lon="14.33172"><ele>254.20000000000002</ele><time>2026-04-06T08:03:35.085Z</time></trkpt><trkpt lat="41.1076167" lon="14.33158"><ele>251.0</ele><time>2026-04-06T08:03:36.085Z</time></trkpt><trkpt lat="41.1075967" lon="14.331445"><ele>249.0</ele><time>2026-04-06T08:03:37.085Z</time></trkpt><trkpt lat="41.1075783" lon="14.3313133"><ele>247.00000000000003</ele><time>2026-04-06T08:03:38.085Z</time></trkpt><trkpt lat="41.1075533" lon="14.3311867"><ele>245.00000000000003</ele><time>2026-04-06T08:03:39.085Z</time></trkpt><trkpt lat="41.10753" lon="14.3310583"><ele>243.0</ele><time>2026-04-06T08:03:40.086Z</time></trkpt><trkpt lat="41.10751" lon="14.330925"><ele>241.0</ele><time>2026-04-06T08:03:41.085Z</time></trkpt><trkpt lat="41.1074917" lon="14.3307883"><ele>241.0</ele><time>2026-04-06T08:03:42.086Z</time></trkpt><trkpt lat="41.10747" lon="14.3306467"><ele>241.00000000000003</ele><time>2026-04-06T08:03:43.085Z</time></trkpt><trkpt lat="41.1074633" lon="14.3305083"><ele>241.00000000000003</ele><time>2026-04-06T08:03:44.086Z</time></trkpt><trkpt lat="41.107455" lon="14.330375"><ele>241.0</ele><time>2026-04-06T08:03:45.086Z</time></trkpt><trkpt lat="41.1074383" lon="14.3302317"><ele>241.0</ele><time>2026-04-06T08:03:46.085Z</time></trkpt><trkpt lat="41.1074217" lon="14.3300817"><ele>238.0</ele><time>2026-04-06T08:03:47.085Z</time></trkpt><trkpt lat="41.1074183" lon="14.3299333"><ele>235.0</ele><time>2026-04-06T08:03:48.086Z</time></trkpt><trkpt lat="41.10742" lon="14.3297767"><ele>232.0</ele><time>2026-04-06T08:03:49.089Z</time></trkpt><trkpt lat="41.10743" lon="14.3296183"><ele>229.0</ele><time>2026-04-06T08:03:50.085Z</time></trkpt><trkpt lat="41.1074433" lon="14.3294617"><ele>228.25</ele><time>2026-04-06T08:03:51.085Z</time></trkpt><trkpt lat="41.1074683" lon="14.3293033"><ele>227.5</ele><time>2026-04-06T08:03:52.085Z</time></trkpt><trkpt lat="41.1075" lon="14.3291533"><ele>226.75</ele><time>2026-04-06T08:03:53.085Z</time></trkpt><trkpt lat="41.1075267" lon="14.3290033"><ele>226.0</ele><time>2026-04-06T08:03:54.085Z</time></trkpt><trkpt lat="41.1075483" lon="14.3288533"><ele>225.60000000000002</ele><time>2026-04-06T08:03:55.085Z</time></trkpt><trkpt lat="41.1075567" lon="14.32871"><ele>225.20000000000002</ele><time>2026-04-06T08:03:56.086Z</time></trkpt><trkpt lat="41.1075467" lon="14.328575"><ele>224.79999999999998</ele><time>2026-04-06T08:03:57.085Z</time></trkpt><trkpt lat="41.1075233" lon="14.3284583"><ele>224.39999999999998</ele><time>2026-04-06T08:03:58.086Z</time></trkpt><trkpt lat="41.1074883" lon="14.3283567"><ele>224.0</ele><time>2026-04-06T08:03:59.085Z</time></trkpt><trkpt lat="41.1074517" lon="14.32827"><ele>226.50000000000003</ele><time>2026-04-06T08:04:00.085Z</time></trkpt><trkpt lat="41.1074067" lon="14.3281933"><ele>229.0</ele><time>2026-04-06T08:04:01.085Z</time></trkpt><trkpt lat="41.1073667" lon="14.328115"><ele>231.5</ele><time>2026-04-06T08:04:02.087Z</time></trkpt><trkpt lat="41.1073283" lon="14.32804"><ele>234.0</ele><time>2026-04-06T08:04:03.085Z</time></trkpt><trkpt lat="41.10729" lon="14.32797"><ele>236.50000000000003</ele><time>2026-04-06T08:04:04.086Z</time></trkpt><trkpt lat="41.1072183" lon="14.32785"><ele>239.0</ele><time>2026-04-06T08:04:06.09Z</time></trkpt><trkpt lat="41.1071533" lon="14.3277533"><ele>239.00000000000003</ele><time>2026-04-06T08:04:08.086Z</time></trkpt><trkpt lat="41.1071" lon="14.3276767"><ele>239.0</ele><time>2026-04-06T08:04:10.086Z</time></trkpt><trkpt lat="41.1070583" lon="14.3275983"><ele>239.0</ele><time>2026-04-06T08:04:12.085Z</time></trkpt><trkpt lat="41.1069933" lon="14.3275083"><ele>239.0</ele><time>2026-04-06T08:04:15.085Z</time></trkpt><trkpt lat="41.1069317" lon="14.3274317"><ele>239.00000000000003</ele><time>2026-04-06T08:04:19.085Z</time></trkpt><trkpt lat="41.1068617" lon="14.327365"><ele>239.0</ele><time>2026-04-06T08:04:22.085Z</time></trkpt><trkpt lat="41.10681" lon="14.3273167"><ele>239.00000000000003</ele><time>2026-04-06T08:04:24.085Z</time></trkpt><trkpt lat="41.106745" lon="14.3272967"><ele>239.0</ele><time>2026-04-06T08:04:26.085Z</time></trkpt><trkpt lat="41.1066783" lon="14.3272883"><ele>239.0</ele><time>2026-04-06T08:04:28.084Z</time></trkpt><trkpt lat="41.1066" lon="14.3272733"><ele>239.0</ele><time>2026-04-06T08:04:30.085Z</time></trkpt><trkpt lat="41.1065167" lon="14.327245"><ele>239.00000000000003</ele><time>2026-04-06T08:04:32.084Z</time></trkpt><trkpt lat="41.106415" lon="14.3272133"><ele>239.0</ele><time>2026-04-06T08:04:34.085Z</time></trkpt><trkpt lat="41.1062883" lon="14.3271883"><ele>237.83333333333334</ele><time>2026-04-06T08:04:36.086Z</time></trkpt><trkpt lat="41.10622" lon="14.32717"><ele>236.66666666666669</ele><time>2026-04-06T08:04:37.09Z</time></trkpt><trkpt lat="41.106145" lon="14.3271483"><ele>235.5</ele><time>2026-04-06T08:04:38.086Z</time></trkpt><trkpt lat="41.1060667" lon="14.3271283"><ele>234.33333333333331</ele><time>2026-04-06T08:04:39.085Z</time></trkpt><trkpt lat="41.105985" lon="14.32711"><ele>233.16666666666666</ele><time>2026-04-06T08:04:40.084Z</time></trkpt><trkpt lat="41.1058967" lon="14.3270967"><ele>232.0</ele><time>2026-04-06T08:04:41.085Z</time></trkpt><trkpt lat="41.1058117" lon="14.3270833"><ele>228.5</ele><time>2026-04-06T08:04:42.084Z</time></trkpt><trkpt lat="41.1057083" lon="14.3270333"><ele>225.0</ele><time>2026-04-06T08:04:43.086Z</time></trkpt><trkpt lat="41.1056033" lon="14.3269817"><ele>221.5</ele><time>2026-04-06T08:04:44.085Z</time></trkpt><trkpt lat="41.105495" lon="14.326935"><ele>218.0</ele><time>2026-04-06T08:04:45.084Z</time></trkpt><trkpt lat="41.105385" lon="14.3268867"><ele>218.0</ele><time>2026-04-06T08:04:46.084Z</time></trkpt><trkpt lat="41.1052733" lon="14.326845"><ele>218.0</ele><time>2026-04-06T08:04:47.087Z</time></trkpt><trkpt lat="41.1051617" lon="14.32679"><ele>218.0</ele><time>2026-04-06T08:04:48.086Z</time></trkpt><trkpt lat="41.1050483" lon="14.326725"><ele>218.0</ele><time>2026-04-06T08:04:49.086Z</time></trkpt><trkpt lat="41.1049383" lon="14.3266383"><ele>215.5</ele><time>2026-04-06T08:04:50.087Z</time></trkpt><trkpt lat="41.10483" lon="14.32654"><ele>213.0</ele><time>2026-04-06T08:04:51.085Z</time></trkpt><trkpt lat="41.1047217" lon="14.3264317"><ele>210.5</ele><time>2026-04-06T08:04:52.086Z</time></trkpt><trkpt lat="41.10462" lon="14.3263183"><ele>208.0</ele><time>2026-04-06T08:04:53.086Z</time></trkpt><trkpt lat="41.1045267" lon="14.3262017"><ele>208.0</ele><time>2026-04-06T08:04:54.088Z</time></trkpt><trkpt lat="41.1044367" lon="14.3260883"><ele>208.0</ele><time>2026-04-06T08:04:55.086Z</time></trkpt><trkpt lat="41.1043583" lon="14.3259783"><ele>208.0</ele><time>2026-04-06T08:04:56.086Z</time></trkpt><trkpt lat="41.1042867" lon="14.32588"><ele>208.0</ele><time>2026-04-06T08:04:57.086Z</time></trkpt><trkpt lat="41.1042167" lon="14.32579"><ele>208.0</ele><time>2026-04-06T08:04:58.088Z</time></trkpt><trkpt lat="41.1041467" lon="14.3257017"><ele>203.99999999999997</ele><time>2026-04-06T08:04:59.086Z</time></trkpt><trkpt lat="41.1040717" lon="14.3256133"><ele>200.0</ele><time>2026-04-06T08:05:00.084Z</time></trkpt><trkpt lat="41.1039983" lon="14.325535"><ele>196.0</ele><time>2026-04-06T08:05:01.085Z</time></trkpt><trkpt lat="41.103935" lon="14.32547"><ele>192.0</ele><time>2026-04-06T08:05:02.084Z</time></trkpt><trkpt lat="41.103875" lon="14.3254183"><ele>188.0</ele><time>2026-04-06T08:05:03.084Z</time></trkpt><trkpt lat="41.1038233" lon="14.3253683"><ele>184.0</ele><time>2026-04-06T08:05:04.082Z</time></trkpt><trkpt lat="41.1037817" lon="14.3252983"><ele>184.0</ele><time>2026-04-06T08:05:05.082Z</time></trkpt><trkpt lat="41.1037533" lon="14.3252033"><ele>184.0</ele><time>2026-04-06T08:05:06.084Z</time></trkpt><trkpt lat="41.1037367" lon="14.3250917"><ele>184.0</ele><time>2026-04-06T08:05:07.084Z</time></trkpt><trkpt lat="41.1037267" lon="14.3249683"><ele>184.0</ele><time>2026-04-06T08:05:08.084Z</time></trkpt><trkpt lat="41.1037233" lon="14.3248367"><ele>184.0</ele><time>2026-04-06T08:05:09.085Z</time></trkpt><trkpt lat="41.103725" lon="14.3247033"><ele>184.39999999999998</ele><time>2026-04-06T08:05:10.082Z</time></trkpt><trkpt lat="41.1037283" lon="14.32457"><ele>184.8</ele><time>2026-04-06T08:05:11.085Z</time></trkpt><trkpt lat="41.103735" lon="14.32444"><ele>185.2</ele><time>2026-04-06T08:05:12.085Z</time></trkpt><trkpt lat="41.1037417" lon="14.3243067"><ele>185.60000000000002</ele><time>2026-04-06T08:05:13.087Z</time></trkpt><trkpt lat="41.1037467" lon="14.3241683"><ele>186.0</ele><time>2026-04-06T08:05:14.084Z</time></trkpt><trkpt lat="41.1037417" lon="14.3240283"><ele>187.0</ele><time>2026-04-06T08:05:15.084Z</time></trkpt><trkpt lat="41.1037183" lon="14.3238867"><ele>188.0</ele><time>2026-04-06T08:05:16.086Z</time></trkpt><trkpt lat="41.1036683" lon="14.3237633"><ele>189.0</ele><time>2026-04-06T08:05:17.085Z</time></trkpt><trkpt lat="41.1036" lon="14.3236517"><ele>190.0</ele><time>2026-04-06T08:05:18.085Z</time></trkpt><trkpt lat="41.10352" lon="14.3235467"><ele>191.0</ele><time>2026-04-06T08:05:19.086Z</time></trkpt><trkpt lat="41.10343" lon="14.3234467"><ele>191.0</ele><time>2026-04-06T08:05:20.084Z</time></trkpt><trkpt lat="41.1033333" lon="14.32335"><ele>191.0</ele><time>2026-04-06T08:05:21.084Z</time></trkpt><trkpt lat="41.103235" lon="14.323255"><ele>191.0</ele><time>2026-04-06T08:05:22.083Z</time></trkpt><trkpt lat="41.103135" lon="14.3231583"><ele>191.0</ele><time>2026-04-06T08:05:23.083Z</time></trkpt><trkpt lat="41.103045" lon="14.323065"><ele>188.75</ele><time>2026-04-06T08:05:24.086Z</time></trkpt><trkpt lat="41.1029567" lon="14.3229783"><ele>186.5</ele><time>2026-04-06T08:05:25.085Z</time></trkpt><trkpt lat="41.10287" lon="14.3228833"><ele>184.25</ele><time>2026-04-06T08:05:26.09Z</time></trkpt><trkpt lat="41.1027817" lon="14.322785"><ele>182.0</ele><time>2026-04-06T08:05:27.084Z</time></trkpt><trkpt lat="41.1026967" lon="14.322675"><ele>182.0</ele><time>2026-04-06T08:05:28.086Z</time></trkpt><trkpt lat="41.10262" lon="14.322555"><ele>182.0</ele><time>2026-04-06T08:05:29.083Z</time></trkpt><trkpt lat="41.1025483" lon="14.322435"><ele>182.0</ele><time>2026-04-06T08:05:30.087Z</time></trkpt><trkpt lat="41.1024733" lon="14.3223267"><ele>182.0</ele><time>2026-04-06T08:05:31.084Z</time></trkpt><trkpt lat="41.1024" lon="14.322235"><ele>182.0</ele><time>2026-04-06T08:05:32.085Z</time></trkpt><trkpt lat="41.102325" lon="14.3221617"><ele>179.8</ele><time>2026-04-06T08:05:33.086Z</time></trkpt><trkpt lat="41.1022433" lon="14.322095"><ele>177.6</ele><time>2026-04-06T08:05:34.084Z</time></trkpt><trkpt lat="41.10216" lon="14.3220267"><ele>175.4</ele><time>2026-04-06T08:05:35.084Z</time></trkpt><trkpt lat="41.102075" lon="14.3219517"><ele>173.20000000000002</ele><time>2026-04-06T08:05:36.085Z</time></trkpt><trkpt lat="41.101985" lon="14.32188"><ele>171.0</ele><time>2026-04-06T08:05:37.085Z</time></trkpt><trkpt lat="41.1018933" lon="14.3218083"><ele>171.0</ele><time>2026-04-06T08:05:38.084Z</time></trkpt><trkpt lat="41.1017983" lon="14.3217467"><ele>171.0</ele><time>2026-04-06T08:05:39.084Z</time></trkpt><trkpt lat="41.101705" lon="14.32169"><ele>171.0</ele><time>2026-04-06T08:05:40.088Z</time></trkpt><trkpt lat="41.101615" lon="14.3216417"><ele>171.0</ele><time>2026-04-06T08:05:41.084Z</time></trkpt><trkpt lat="41.1015233" lon="14.32159"><ele>171.0</ele><time>2026-04-06T08:05:42.084Z</time></trkpt><trkpt lat="41.101435" lon="14.3215233"><ele>169.0</ele><time>2026-04-06T08:05:43.085Z</time></trkpt><trkpt lat="41.1013533" lon="14.321445"><ele>167.0</ele><time>2026-04-06T08:05:44.088Z</time></trkpt><trkpt lat="41.1012767" lon="14.3213583"><ele>165.0</ele><time>2026-04-06T08:05:45.084Z</time></trkpt><trkpt lat="41.1012083" lon="14.321265"><ele>163.0</ele><time>2026-04-06T08:05:46.083Z</time></trkpt><trkpt lat="41.10114" lon="14.3211767"><ele>161.0</ele><time>2026-04-06T08:05:47.084Z</time></trkpt><trkpt lat="41.1010783" lon="14.3210833"><ele>161.0</ele><time>2026-04-06T08:05:48.084Z</time></trkpt><trkpt lat="41.1010283" lon="14.32097"><ele>161.0</ele><time>2026-04-06T08:05:49.085Z</time></trkpt><trkpt lat="41.1009833" lon="14.320855"><ele>161.0</ele><time>2026-04-06T08:05:50.084Z</time></trkpt><trkpt lat="41.100945" lon="14.320735"><ele>161.0</ele><time>2026-04-06T08:05:51.085Z</time></trkpt><trkpt lat="41.1009083" lon="14.320615"><ele>161.0</ele><time>2026-04-06T08:05:52.084Z</time></trkpt><trkpt lat="41.1008767" lon="14.3205033"><ele>162.66666666666666</ele><time>2026-04-06T08:05:53.084Z</time></trkpt><trkpt lat="41.1008517" lon="14.3203967"><ele>164.33333333333331</ele><time>2026-04-06T08:05:54.084Z</time></trkpt><trkpt lat="41.1008167" lon="14.3203117"><ele>166.0</ele><time>2026-04-06T08:05:55.084Z</time></trkpt><trkpt lat="41.1007767" lon="14.3202317"><ele>167.66666666666666</ele><time>2026-04-06T08:05:56.085Z</time></trkpt><trkpt lat="41.1007283" lon="14.3201733"><ele>169.33333333333334</ele><time>2026-04-06T08:05:57.085Z</time></trkpt><trkpt lat="41.100605" lon="14.320165"><ele>171.0</ele><time>2026-04-06T08:05:59.085Z</time></trkpt><trkpt lat="41.1005483" lon="14.320215"><ele>166.57142857142856</ele><time>2026-04-06T08:06:00.084Z</time></trkpt><trkpt lat="41.1005083" lon="14.32028"><ele>162.14285714285714</ele><time>2026-04-06T08:06:01.083Z</time></trkpt><trkpt lat="41.1004917" lon="14.3203717"><ele>157.71428571428572</ele><time>2026-04-06T08:06:02.088Z</time></trkpt><trkpt lat="41.1005" lon="14.3204767"><ele>153.28571428571428</ele><time>2026-04-06T08:06:03.083Z</time></trkpt><trkpt lat="41.10052" lon="14.320575"><ele>148.85714285714286</ele><time>2026-04-06T08:06:04.083Z</time></trkpt><trkpt lat="41.100555" lon="14.3206667"><ele>144.42857142857142</ele><time>2026-04-06T08:06:05.083Z</time></trkpt><trkpt lat="41.1005983" lon="14.3207567"><ele>140.0</ele><time>2026-04-06T08:06:06.085Z</time></trkpt><trkpt lat="41.1006433" lon="14.3208467"><ele>139.5</ele><time>2026-04-06T08:06:07.084Z</time></trkpt><trkpt lat="41.1006867" lon="14.3209383"><ele>139.0</ele><time>2026-04-06T08:06:08.084Z</time></trkpt><trkpt lat="41.1007267" lon="14.3210367"><ele>138.5</ele><time>2026-04-06T08:06:09.085Z</time></trkpt><trkpt lat="41.1007717" lon="14.3211433"><ele>138.0</ele><time>2026-04-06T08:06:10.083Z</time></trkpt><trkpt lat="41.1008167" lon="14.3212483"><ele>137.5</ele><time>2026-04-06T08:06:11.083Z</time></trkpt><trkpt lat="41.1008667" lon="14.3213533"><ele>137.0</ele><time>2026-04-06T08:06:12.084Z</time></trkpt><trkpt lat="41.1009183" lon="14.3214583"><ele>139.6</ele><time>2026-04-06T08:06:13.084Z</time></trkpt><trkpt lat="41.100965" lon="14.3215667"><ele>142.2</ele><time>2026-04-06T08:06:14.084Z</time></trkpt><trkpt lat="41.10101" lon="14.3216733"><ele>144.8</ele><time>2026-04-06T08:06:15.084Z</time></trkpt><trkpt lat="41.1010583" lon="14.3217817"><ele>147.4</ele><time>2026-04-06T08:06:16.083Z</time></trkpt><trkpt lat="41.1011067" lon="14.32189"><ele>150.0</ele><time>2026-04-06T08:06:17.09Z</time></trkpt><trkpt lat="41.1011667" lon="14.322"><ele>150.0</ele><time>2026-04-06T08:06:18.084Z</time></trkpt><trkpt lat="41.1012217" lon="14.3221117"><ele>150.0</ele><time>2026-04-06T08:06:19.084Z</time></trkpt><trkpt lat="41.1012667" lon="14.322215"><ele>150.0</ele><time>2026-04-06T08:06:20.084Z</time></trkpt><trkpt lat="41.101305" lon="14.322305"><ele>150.0</ele><time>2026-04-06T08:06:21.084Z</time></trkpt><trkpt lat="41.1013333" lon="14.32239"><ele>150.0</ele><time>2026-04-06T08:06:22.084Z</time></trkpt><trkpt lat="41.1013567" lon="14.3224767"><ele>150.0</ele><time>2026-04-06T08:06:23.084Z</time></trkpt><trkpt lat="41.1013667" lon="14.3225683"><ele>148.83333333333334</ele><time>2026-04-06T08:06:24.084Z</time></trkpt><trkpt lat="41.1013717" lon="14.32267"><ele>147.66666666666666</ele><time>2026-04-06T08:06:25.083Z</time></trkpt><trkpt lat="41.1013717" lon="14.3227783"><ele>146.5</ele><time>2026-04-06T08:06:26.084Z</time></trkpt><trkpt lat="41.1013667" lon="14.3228933"><ele>145.33333333333331</ele><time>2026-04-06T08:06:27.083Z</time></trkpt><trkpt lat="41.1013567" lon="14.3230167"><ele>144.16666666666666</ele><time>2026-04-06T08:06:28.083Z</time></trkpt><trkpt lat="41.101345" lon="14.32315"><ele>143.0</ele><time>2026-04-06T08:06:29.084Z</time></trkpt><trkpt lat="41.101335" lon="14.3232867"><ele>142.83333333333331</ele><time>2026-04-06T08:06:30.085Z</time></trkpt><trkpt lat="41.1013283" lon="14.3234167"><ele>142.66666666666666</ele><time>2026-04-06T08:06:31.084Z</time></trkpt><trkpt lat="41.1013233" lon="14.3235417"><ele>142.5</ele><time>2026-04-06T08:06:32.084Z</time></trkpt><trkpt lat="41.1013167" lon="14.3236567"><ele>142.33333333333334</ele><time>2026-04-06T08:06:33.084Z</time></trkpt><trkpt lat="41.1012967" lon="14.3237633"><ele>142.16666666666669</ele><time>2026-04-06T08:06:34.083Z</time></trkpt><trkpt lat="41.101265" lon="14.3238667"><ele>142.0</ele><time>2026-04-06T08:06:35.084Z</time></trkpt><trkpt lat="41.1012083" lon="14.3239517"><ele>142.83333333333334</ele><time>2026-04-06T08:06:36.085Z</time></trkpt><trkpt lat="41.101135" lon="14.3240033"><ele>143.66666666666669</ele><time>2026-04-06T08:06:37.083Z</time></trkpt><trkpt lat="41.1010467" lon="14.32402"><ele>144.5</ele><time>2026-04-06T08:06:38.084Z</time></trkpt><trkpt lat="41.1009583" lon="14.324015"><ele>145.33333333333334</ele><time>2026-04-06T08:06:39.083Z</time></trkpt><trkpt lat="41.1008733" lon="14.323975"><ele>146.16666666666666</ele><time>2026-04-06T08:06:40.083Z</time></trkpt><trkpt lat="41.1008017" lon="14.323905"><ele>147.0</ele><time>2026-04-06T08:06:41.084Z</time></trkpt><trkpt lat="41.10074" lon="14.3238167"><ele>144.79999999999998</ele><time>2026-04-06T08:06:42.083Z</time></trkpt><trkpt lat="41.1006883" lon="14.323715"><ele>142.6</ele><time>2026-04-06T08:06:43.084Z</time></trkpt><trkpt lat="41.1006417" lon="14.3236"><ele>140.39999999999998</ele><time>2026-04-06T08:06:44.083Z</time></trkpt><trkpt lat="41.1005967" lon="14.3234733"><ele>138.2</ele><time>2026-04-06T08:06:45.084Z</time></trkpt><trkpt lat="41.100555" lon="14.3233467"><ele>136.0</ele><time>2026-04-06T08:06:46.083Z</time></trkpt><trkpt lat="41.1005117" lon="14.3232317"><ele>136.0</ele><time>2026-04-06T08:06:47.085Z</time></trkpt><trkpt lat="41.1004683" lon="14.3231217"><ele>136.0</ele><time>2026-04-06T08:06:48.084Z</time></trkpt><trkpt lat="41.100425" lon="14.3230183"><ele>136.0</ele><time>2026-04-06T08:06:49.083Z</time></trkpt><trkpt lat="41.1003867" lon="14.3229167"><ele>136.0</ele><time>2026-04-06T08:06:50.086Z</time></trkpt><trkpt lat="41.1003533" lon="14.3228083"><ele>136.0</ele><time>2026-04-06T08:06:51.084Z</time></trkpt><trkpt lat="41.10032" lon="14.3226967"><ele>136.0</ele><time>2026-04-06T08:06:52.083Z</time></trkpt><trkpt lat="41.100285" lon="14.32259"><ele>135.7142857142857</ele><time>2026-04-06T08:06:53.084Z</time></trkpt><trkpt lat="41.1002483" lon="14.3224867"><ele>135.42857142857142</ele><time>2026-04-06T08:06:54.084Z</time></trkpt><trkpt lat="41.1002167" lon="14.3223933"><ele>135.14285714285714</ele><time>2026-04-06T08:06:55.083Z</time></trkpt><trkpt lat="41.1001867" lon="14.3223133"><ele>134.85714285714283</ele><time>2026-04-06T08:06:56.084Z</time></trkpt><trkpt lat="41.1001583" lon="14.322235"><ele>134.57142857142856</ele><time>2026-04-06T08:06:57.083Z</time></trkpt><trkpt lat="41.1001283" lon="14.32216"><ele>134.28571428571428</ele><time>2026-04-06T08:06:58.083Z</time></trkpt><trkpt lat="41.1001" lon="14.3220817"><ele>134.0</ele><time>2026-04-06T08:06:59.084Z</time></trkpt><trkpt lat="41.1000333" lon="14.3219233"><ele>133.85714285714286</ele><time>2026-04-06T08:07:01.083Z</time></trkpt><trkpt lat="41.0999967" lon="14.3218417"><ele>133.71428571428572</ele><time>2026-04-06T08:07:02.083Z</time></trkpt><trkpt lat="41.0999583" lon="14.3217583"><ele>133.57142857142856</ele><time>2026-04-06T08:07:03.083Z</time></trkpt><trkpt lat="41.0999233" lon="14.321675"><ele>133.42857142857144</ele><time>2026-04-06T08:07:04.085Z</time></trkpt><trkpt lat="41.09989" lon="14.32158"><ele>133.28571428571428</ele><time>2026-04-06T08:07:05.084Z</time></trkpt><trkpt lat="41.09985" lon="14.321495"><ele>133.14285714285714</ele><time>2026-04-06T08:07:06.085Z</time></trkpt><trkpt lat="41.09981" lon="14.3214183"><ele>133.0</ele><time>2026-04-06T08:07:07.084Z</time></trkpt><trkpt lat="41.0997433" lon="14.32129"><ele>131.66666666666669</ele><time>2026-04-06T08:07:09.084Z</time></trkpt><trkpt lat="41.0997083" lon="14.321155"><ele>130.33333333333334</ele><time>2026-04-06T08:07:11.083Z</time></trkpt><trkpt lat="41.0996633" lon="14.3210067"><ele>129.0</ele><time>2026-04-06T08:07:13.087Z</time></trkpt><trkpt lat="41.0996317" lon="14.32093"><ele>127.66666666666666</ele><time>2026-04-06T08:07:14.083Z</time></trkpt><trkpt lat="41.0995967" lon="14.3208483"><ele>126.33333333333333</ele><time>2026-04-06T08:07:15.087Z</time></trkpt><trkpt lat="41.09956" lon="14.3207633"><ele>125.0</ele><time>2026-04-06T08:07:16.087Z</time></trkpt><trkpt lat="41.09952" lon="14.320675"><ele>124.99999999999999</ele><time>2026-04-06T08:07:17.086Z</time></trkpt><trkpt lat="41.0994817" lon="14.320585"><ele>125.0</ele><time>2026-04-06T08:07:18.087Z</time></trkpt><trkpt lat="41.0994433" lon="14.3204967"><ele>125.0</ele><time>2026-04-06T08:07:19.087Z</time></trkpt><trkpt lat="41.0994083" lon="14.320405"><ele>125.0</ele><time>2026-04-06T08:07:20.087Z</time></trkpt><trkpt lat="41.09938" lon="14.3203083"><ele>124.99999999999999</ele><time>2026-04-06T08:07:21.086Z</time></trkpt><trkpt lat="41.0993583" lon="14.32021"><ele>125.0</ele><time>2026-04-06T08:07:22.083Z</time></trkpt><trkpt lat="41.09935" lon="14.3201083"><ele>124.99999999999999</ele><time>2026-04-06T08:07:23.083Z</time></trkpt><trkpt lat="41.0993567" lon="14.3200067"><ele>125.0</ele><time>2026-04-06T08:07:24.084Z</time></trkpt><trkpt lat="41.09937" lon="14.3199067"><ele>125.0</ele><time>2026-04-06T08:07:25.084Z</time></trkpt><trkpt lat="41.0993867" lon="14.3198067"><ele>125.0</ele><time>2026-04-06T08:07:26.084Z</time></trkpt><trkpt lat="41.0993983" lon="14.31971"><ele>124.99999999999999</ele><time>2026-04-06T08:07:27.085Z</time></trkpt><trkpt lat="41.09941" lon="14.319615"><ele>125.0</ele><time>2026-04-06T08:07:28.083Z</time></trkpt><trkpt lat="41.0994233" lon="14.3195183"><ele>125.0</ele><time>2026-04-06T08:07:29.085Z</time></trkpt><trkpt lat="41.0994367" lon="14.3194233"><ele>125.0</ele><time>2026-04-06T08:07:30.085Z</time></trkpt><trkpt lat="41.0994517" lon="14.3193317"><ele>125.0</ele><time>2026-04-06T08:07:31.085Z</time></trkpt><trkpt lat="41.09947" lon="14.31924"><ele>125.0</ele><time>2026-04-06T08:07:32.083Z</time></trkpt><trkpt lat="41.0994833" lon="14.319155"><ele>125.0</ele><time>2026-04-06T08:07:33.083Z</time></trkpt><trkpt lat="41.0994967" lon="14.3190667"><ele>125.0</ele><time>2026-04-06T08:07:34.083Z</time></trkpt><trkpt lat="41.09951" lon="14.3189783"><ele>125.0</ele><time>2026-04-06T08:07:35.084Z</time></trkpt><trkpt lat="41.0995233" lon="14.31889"><ele>125.4</ele><time>2026-04-06T08:07:36.084Z</time></trkpt><trkpt lat="41.0995317" lon="14.318805"><ele>125.8</ele><time>2026-04-06T08:07:37.083Z</time></trkpt><trkpt lat="41.0995533" lon="14.3186483"><ele>126.19999999999999</ele><time>2026-04-06T08:07:39.084Z</time></trkpt><trkpt lat="41.0995717" lon="14.3184867"><ele>126.6</ele><time>2026-04-06T08:07:41.085Z</time></trkpt><trkpt lat="41.09959" lon="14.3183267"><ele>127.0</ele><time>2026-04-06T08:07:43.084Z</time></trkpt><trkpt lat="41.09961" lon="14.3181717"><ele>126.5</ele><time>2026-04-06T08:07:45.085Z</time></trkpt><trkpt lat="41.09963" lon="14.3180183"><ele>126.0</ele><time>2026-04-06T08:07:47.085Z</time></trkpt><trkpt lat="41.0996517" lon="14.3178683"><ele>125.5</ele><time>2026-04-06T08:07:49.084Z</time></trkpt><trkpt lat="41.09967" lon="14.317715"><ele>125.0</ele><time>2026-04-06T08:07:51.084Z</time></trkpt><trkpt lat="41.0996867" lon="14.317565"><ele>125.0</ele><time>2026-04-06T08:07:53.085Z</time></trkpt><trkpt lat="41.0997" lon="14.31742"><ele>125.0</ele><time>2026-04-06T08:07:55.083Z</time></trkpt><trkpt lat="41.0997167" lon="14.3172783"><ele>125.0</ele><time>2026-04-06T08:07:57.084Z</time></trkpt><trkpt lat="41.0997283" lon="14.3171433"><ele>125.0</ele><time>2026-04-06T08:07:59.084Z</time></trkpt><trkpt lat="41.0997483" lon="14.3170083"><ele>125.0</ele><time>2026-04-06T08:08:01.085Z</time></trkpt><trkpt lat="41.0997717" lon="14.31687"><ele>125.2</ele><time>2026-04-06T08:08:03.083Z</time></trkpt><trkpt lat="41.0997917" lon="14.3167367"><ele>125.4</ele><time>2026-04-06T08:08:05.088Z</time></trkpt><trkpt lat="41.0998067" lon="14.3165983"><ele>125.6</ele><time>2026-04-06T08:08:07.084Z</time></trkpt><trkpt lat="41.0998217" lon="14.3164633"><ele>125.8</ele><time>2026-04-06T08:08:09.085Z</time></trkpt><trkpt lat="41.0998333" lon="14.3163333"><ele>126.0</ele><time>2026-04-06T08:08:11.084Z</time></trkpt><trkpt lat="41.0998483" lon="14.3162083"><ele>125.5</ele><time>2026-04-06T08:08:13.088Z</time></trkpt><trkpt lat="41.0998617" lon="14.3161"><ele>125.0</ele><time>2026-04-06T08:08:15.087Z</time></trkpt><trkpt lat="41.0998767" lon="14.316"><ele>124.5</ele><time>2026-04-06T08:08:17.086Z</time></trkpt><trkpt lat="41.0998867" lon="14.3158983"><ele>124.0</ele><time>2026-04-06T08:08:19.085Z</time></trkpt><trkpt lat="41.099915" lon="14.3157983"><ele>123.5</ele><time>2026-04-06T08:08:21.084Z</time></trkpt><trkpt lat="41.0999533" lon="14.315705"><ele>123.0</ele><time>2026-04-06T08:08:23.085Z</time></trkpt><trkpt lat="41.0999983" lon="14.3156133"><ele>124.33333333333333</ele><time>2026-04-06T08:08:25.085Z</time></trkpt><trkpt lat="41.100045" lon="14.31552"><ele>125.66666666666666</ele><time>2026-04-06T08:08:27.085Z</time></trkpt><trkpt lat="41.1000933" lon="14.3154317"><ele>127.0</ele><time>2026-04-06T08:08:29.084Z</time></trkpt><trkpt lat="41.1001417" lon="14.3153367"><ele>128.33333333333331</ele><time>2026-04-06T08:08:31.083Z</time></trkpt><trkpt lat="41.1001933" lon="14.3152333"><ele>129.66666666666666</ele><time>2026-04-06T08:08:33.084Z</time></trkpt><trkpt lat="41.1002417" lon="14.3151367"><ele>131.0</ele><time>2026-04-06T08:08:35.084Z</time></trkpt><trkpt lat="41.10029" lon="14.3150233"><ele>131.0</ele><time>2026-04-06T08:08:37.084Z</time></trkpt><trkpt lat="41.1003367" lon="14.3149167"><ele>131.0</ele><time>2026-04-06T08:08:39.085Z</time></trkpt><trkpt lat="41.1003917" lon="14.31481"><ele>131.0</ele><time>2026-04-06T08:08:41.084Z</time></trkpt><trkpt lat="41.1004517" lon="14.3147017"><ele>131.0</ele><time>2026-04-06T08:08:43.084Z</time></trkpt><trkpt lat="41.1005033" lon="14.3145933"><ele>131.0</ele><time>2026-04-06T08:08:45.084Z</time></trkpt><trkpt lat="41.1005567" lon="14.314485"><ele>130.6</ele><time>2026-04-06T08:08:47.085Z</time></trkpt><trkpt lat="41.1006133" lon="14.3143783"><ele>130.2</ele><time>2026-04-06T08:08:49.084Z</time></trkpt><trkpt lat="41.1006667" lon="14.314265"><ele>129.8</ele><time>2026-04-06T08:08:51.084Z</time></trkpt><trkpt lat="41.1007183" lon="14.3141533"><ele>129.4</ele><time>2026-04-06T08:08:53.084Z</time></trkpt><trkpt lat="41.100775" lon="14.3140433"><ele>129.0</ele><time>2026-04-06T08:08:55.084Z</time></trkpt><trkpt lat="41.10083" lon="14.3139383"><ele>130.5</ele><time>2026-04-06T08:08:57.084Z</time></trkpt><trkpt lat="41.1008733" lon="14.3138467"><ele>132.0</ele><time>2026-04-06T08:08:59.085Z</time></trkpt><trkpt lat="41.10091" lon="14.313765"><ele>133.5</ele><time>2026-04-06T08:09:01.085Z</time></trkpt><trkpt lat="41.10095" lon="14.3136783"><ele>135.0</ele><time>2026-04-06T08:09:03.085Z</time></trkpt><trkpt lat="41.1009933" lon="14.31358"><ele>136.5</ele><time>2026-04-06T08:09:05.086Z</time></trkpt><trkpt lat="41.10104" lon="14.3134783"><ele>138.0</ele><time>2026-04-06T08:09:07.085Z</time></trkpt><trkpt lat="41.101085" lon="14.3133667"><ele>138.0</ele><time>2026-04-06T08:09:09.083Z</time></trkpt><trkpt lat="41.10113" lon="14.3132617"><ele>138.0</ele><time>2026-04-06T08:09:11.084Z</time></trkpt><trkpt lat="41.1011783" lon="14.3131633"><ele>138.0</ele><time>2026-04-06T08:09:13.084Z</time></trkpt><trkpt lat="41.101225" lon="14.313065"><ele>138.0</ele><time>2026-04-06T08:09:15.084Z</time></trkpt><trkpt lat="41.10126" lon="14.31298"><ele>138.0</ele><time>2026-04-06T08:09:17.084Z</time></trkpt><trkpt lat="41.10131" lon="14.3128917"><ele>138.0</ele><time>2026-04-06T08:09:19.084Z</time></trkpt><trkpt lat="41.1013667" lon="14.3128033"><ele>137.16666666666666</ele><time>2026-04-06T08:09:21.084Z</time></trkpt><trkpt lat="41.101415" lon="14.3127033"><ele>136.33333333333334</ele><time>2026-04-06T08:09:23.085Z</time></trkpt><trkpt lat="41.1014667" lon="14.312615"><ele>135.5</ele><time>2026-04-06T08:09:25.085Z</time></trkpt><trkpt lat="41.101515" lon="14.31253"><ele>134.66666666666669</ele><time>2026-04-06T08:09:27.084Z</time></trkpt><trkpt lat="41.1015567" lon="14.31245"><ele>133.83333333333334</ele><time>2026-04-06T08:09:29.084Z</time></trkpt><trkpt lat="41.1016117" lon="14.31237"><ele>133.0</ele><time>2026-04-06T08:09:31.084Z</time></trkpt><trkpt lat="41.1016483" lon="14.3122933"><ele>134.42857142857142</ele><time>2026-04-06T08:09:33.085Z</time></trkpt><trkpt lat="41.10169" lon="14.3122183"><ele>135.85714285714286</ele><time>2026-04-06T08:09:35.084Z</time></trkpt><trkpt lat="41.101725" lon="14.3121483"><ele>137.28571428571428</ele><time>2026-04-06T08:09:37.084Z</time></trkpt><trkpt lat="41.1017817" lon="14.3120567"><ele>138.71428571428572</ele><time>2026-04-06T08:09:40.085Z</time></trkpt><trkpt lat="41.10184" lon="14.3119717"><ele>140.14285714285714</ele><time>2026-04-06T08:09:43.084Z</time></trkpt><trkpt lat="41.1018883" lon="14.31191"><ele>141.57142857142856</ele><time>2026-04-06T08:09:45.086Z</time></trkpt><trkpt lat="41.1019367" lon="14.3118433"><ele>143.0</ele><time>2026-04-06T08:09:47.086Z</time></trkpt><trkpt lat="41.1019833" lon="14.3117833"><ele>143.0</ele><time>2026-04-06T08:09:49.084Z</time></trkpt><trkpt lat="41.1020433" lon="14.31173"><ele>143.0</ele><time>2026-04-06T08:09:51.086Z</time></trkpt><trkpt lat="41.1021067" lon="14.311675"><ele>143.0</ele><time>2026-04-06T08:09:53.087Z</time></trkpt><trkpt lat="41.1021683" lon="14.31161"><ele>143.0</ele><time>2026-04-06T08:09:55.085Z</time></trkpt><trkpt lat="41.1022317" lon="14.3115533"><ele>143.0</ele><time>2026-04-06T08:09:57.085Z</time></trkpt><trkpt lat="41.1022983" lon="14.3114983"><ele>143.0</ele><time>2026-04-06T08:09:59.087Z</time></trkpt><trkpt lat="41.102365" lon="14.311445"><ele>143.0</ele><time>2026-04-06T08:10:01.085Z</time></trkpt><trkpt lat="41.1024367" lon="14.3113917"><ele>143.0</ele><time>2026-04-06T08:10:03.085Z</time></trkpt><trkpt lat="41.1025067" lon="14.3113433"><ele>143.0</ele><time>2026-04-06T08:10:05.086Z</time></trkpt><trkpt lat="41.1025667" lon="14.3112917"><ele>143.0</ele><time>2026-04-06T08:10:07.084Z</time></trkpt><trkpt lat="41.1026217" lon="14.3112317"><ele>143.0</ele><time>2026-04-06T08:10:09.085Z</time></trkpt><trkpt lat="41.10268" lon="14.311165"><ele>143.0</ele><time>2026-04-06T08:10:11.085Z</time></trkpt><trkpt lat="41.102745" lon="14.3110833"><ele>143.0</ele><time>2026-04-06T08:10:13.085Z</time></trkpt><trkpt lat="41.102815" lon="14.31102"><ele>143.0</ele><time>2026-04-06T08:10:15.085Z</time></trkpt><trkpt lat="41.1028833" lon="14.3109517"><ele>143.0</ele><time>2026-04-06T08:10:17.085Z</time></trkpt><trkpt lat="41.1029483" lon="14.3108883"><ele>143.0</ele><time>2026-04-06T08:10:19.085Z</time></trkpt><trkpt lat="41.103015" lon="14.3108317"><ele>143.0</ele><time>2026-04-06T08:10:21.085Z</time></trkpt><trkpt lat="41.10308" lon="14.3107783"><ele>143.0</ele><time>2026-04-06T08:10:23.086Z</time></trkpt><trkpt lat="41.1031433" lon="14.3107317"><ele>142.99999999999997</ele><time>2026-04-06T08:10:25.085Z</time></trkpt><trkpt lat="41.1032017" lon="14.310675"><ele>143.0</ele><time>2026-04-06T08:10:27.086Z</time></trkpt><trkpt lat="41.103265" lon="14.3106233"><ele>143.0</ele><time>2026-04-06T08:10:29.085Z</time></trkpt><trkpt lat="41.1033283" lon="14.310575"><ele>143.0</ele><time>2026-04-06T08:10:31.085Z</time></trkpt><trkpt lat="41.1033883" lon="14.3105233"><ele>143.0</ele><time>2026-04-06T08:10:33.085Z</time></trkpt><trkpt lat="41.1034483" lon="14.3104717"><ele>142.99999999999997</ele><time>2026-04-06T08:10:35.085Z</time></trkpt><trkpt lat="41.1035067" lon="14.3104217"><ele>143.0</ele><time>2026-04-06T08:10:37.086Z</time></trkpt><trkpt lat="41.103565" lon="14.310365"><ele>143.42857142857142</ele><time>2026-04-06T08:10:39.087Z</time></trkpt><trkpt lat="41.103625" lon="14.31031"><ele>143.85714285714286</ele><time>2026-04-06T08:10:41.086Z</time></trkpt><trkpt lat="41.1036917" lon="14.31026"><ele>144.28571428571428</ele><time>2026-04-06T08:10:43.085Z</time></trkpt><trkpt lat="41.1037533" lon="14.310215"><ele>144.71428571428572</ele><time>2026-04-06T08:10:45.086Z</time></trkpt><trkpt lat="41.1038167" lon="14.3101717"><ele>145.14285714285714</ele><time>2026-04-06T08:10:47.085Z</time></trkpt><trkpt lat="41.103875" lon="14.3101167"><ele>145.57142857142856</ele><time>2026-04-06T08:10:49.09Z</time></trkpt><trkpt lat="41.1039367" lon="14.31007"><ele>146.0</ele><time>2026-04-06T08:10:51.086Z</time></trkpt><trkpt lat="41.103995" lon="14.3100183"><ele>146.0</ele><time>2026-04-06T08:10:53.085Z</time></trkpt><trkpt lat="41.1040483" lon="14.3099683"><ele>146.0</ele><time>2026-04-06T08:10:55.086Z</time></trkpt><trkpt lat="41.104105" lon="14.30992"><ele>146.0</ele><time>2026-04-06T08:10:57.088Z</time></trkpt><trkpt lat="41.1041617" lon="14.3098683"><ele>146.0</ele><time>2026-04-06T08:10:59.086Z</time></trkpt><trkpt lat="41.104215" lon="14.3098167"><ele>146.0</ele><time>2026-04-06T08:11:01.085Z</time></trkpt><trkpt lat="41.1042867" lon="14.3097433"><ele>146.0</ele><time>2026-04-06T08:11:04.086Z</time></trkpt><trkpt lat="41.104365" lon="14.3096783"><ele>147.0</ele><time>2026-04-06T08:11:07.085Z</time></trkpt><trkpt lat="41.1044467" lon="14.3096167"><ele>148.0</ele><time>2026-04-06T08:11:10.084Z</time></trkpt><trkpt lat="41.1045283" lon="14.3095567"><ele>149.0</ele><time>2026-04-06T08:11:13.085Z</time></trkpt><trkpt lat="41.1045833" lon="14.309515"><ele>150.0</ele><time>2026-04-06T08:11:15.086Z</time></trkpt><trkpt lat="41.1046417" lon="14.30947"><ele>151.0</ele><time>2026-04-06T08:11:17.084Z</time></trkpt><trkpt lat="41.1046967" lon="14.3094183"><ele>152.0</ele><time>2026-04-06T08:11:19.085Z</time></trkpt><trkpt lat="41.1047533" lon="14.3093683"><ele>152.0</ele><time>2026-04-06T08:11:21.085Z</time></trkpt><trkpt lat="41.1048033" lon="14.3093167"><ele>152.0</ele><time>2026-04-06T08:11:23.086Z</time></trkpt><trkpt lat="41.1048817" lon="14.3092533"><ele>152.0</ele><time>2026-04-06T08:11:26.087Z</time></trkpt><trkpt lat="41.1049583" lon="14.3091783"><ele>152.0</ele><time>2026-04-06T08:11:29.085Z</time></trkpt><trkpt lat="41.1050383" lon="14.3091183"><ele>152.0</ele><time>2026-04-06T08:11:32.085Z</time></trkpt><trkpt lat="41.1051017" lon="14.3090833"><ele>152.0</ele><time>2026-04-06T08:11:34.085Z</time></trkpt><trkpt lat="41.1051733" lon="14.3090517"><ele>152.66666666666666</ele><time>2026-04-06T08:11:36.086Z</time></trkpt><trkpt lat="41.1052333" lon="14.30901"><ele>153.33333333333331</ele><time>2026-04-06T08:11:38.085Z</time></trkpt><trkpt lat="41.1052983" lon="14.3089617"><ele>154.0</ele><time>2026-04-06T08:11:40.086Z</time></trkpt><trkpt lat="41.1053517" lon="14.3088833"><ele>154.66666666666666</ele><time>2026-04-06T08:11:42.086Z</time></trkpt><trkpt lat="41.1054083" lon="14.3087767"><ele>155.33333333333334</ele><time>2026-04-06T08:11:44.086Z</time></trkpt><trkpt lat="41.1054583" lon="14.308705"><ele>156.0</ele><time>2026-04-06T08:11:46.086Z</time></trkpt><trkpt lat="41.1055167" lon="14.308645"><ele>156.0</ele><time>2026-04-06T08:11:48.086Z</time></trkpt><trkpt lat="41.10556" lon="14.308555"><ele>156.0</ele><time>2026-04-06T08:11:50.086Z</time></trkpt><trkpt lat="41.1056017" lon="14.30848"><ele>156.0</ele><time>2026-04-06T08:11:52.085Z</time></trkpt><trkpt lat="41.1056733" lon="14.3084233"><ele>156.0</ele><time>2026-04-06T08:11:55.087Z</time></trkpt><trkpt lat="41.1057333" lon="14.3083883"><ele>156.0</ele><time>2026-04-06T08:11:57.086Z</time></trkpt><trkpt lat="41.1058" lon="14.30834"><ele>156.0</ele><time>2026-04-06T08:12:00.087Z</time></trkpt><trkpt lat="41.1058583" lon="14.3082833"><ele>156.0</ele><time>2026-04-06T08:12:02.086Z</time></trkpt><trkpt lat="41.1059133" lon="14.30823"><ele>156.33333333333334</ele><time>2026-04-06T08:12:04.086Z</time></trkpt><trkpt lat="41.10599" lon="14.3081667"><ele>156.66666666666666</ele><time>2026-04-06T08:12:07.085Z</time></trkpt><trkpt lat="41.1060567" lon="14.3080883"><ele>157.0</ele><time>2026-04-06T08:12:10.085Z</time></trkpt><trkpt lat="41.1061" lon="14.3080267"><ele>157.33333333333331</ele><time>2026-04-06T08:12:12.086Z</time></trkpt><trkpt lat="41.10617" lon="14.3079517"><ele>157.66666666666666</ele><time>2026-04-06T08:12:15.087Z</time></trkpt><trkpt lat="41.1062267" lon="14.307905"><ele>158.0</ele><time>2026-04-06T08:12:17.086Z</time></trkpt><trkpt lat="41.106275" lon="14.3078483"><ele>158.0</ele><time>2026-04-06T08:12:19.086Z</time></trkpt><trkpt lat="41.10633" lon="14.3077883"><ele>158.0</ele><time>2026-04-06T08:12:21.087Z</time></trkpt><trkpt lat="41.1063917" lon="14.307735"><ele>158.0</ele><time>2026-04-06T08:12:23.087Z</time></trkpt><trkpt lat="41.1064583" lon="14.3076783"><ele>158.0</ele><time>2026-04-06T08:12:25.087Z</time></trkpt><trkpt lat="41.1065183" lon="14.30764"><ele>158.0</ele><time>2026-04-06T08:12:27.087Z</time></trkpt><trkpt lat="41.1065767" lon="14.3075983"><ele>158.0</ele><time>2026-04-06T08:12:29.087Z</time></trkpt><trkpt lat="41.10665" lon="14.30752"><ele>158.66666666666666</ele><time>2026-04-06T08:12:32.086Z</time></trkpt><trkpt lat="41.10672" lon="14.3074417"><ele>159.33333333333331</ele><time>2026-04-06T08:12:35.087Z</time></trkpt><trkpt lat="41.106775" lon="14.3073883"><ele>160.0</ele><time>2026-04-06T08:12:37.086Z</time></trkpt><trkpt lat="41.1068283" lon="14.3073433"><ele>160.66666666666666</ele><time>2026-04-06T08:12:39.087Z</time></trkpt><trkpt lat="41.106885" lon="14.3072933"><ele>161.33333333333334</ele><time>2026-04-06T08:12:41.086Z</time></trkpt><trkpt lat="41.1069383" lon="14.3072467"><ele>162.0</ele><time>2026-04-06T08:12:43.087Z</time></trkpt><trkpt lat="41.107015" lon="14.30717"><ele>162.0</ele><time>2026-04-06T08:12:46.086Z</time></trkpt><trkpt lat="41.1070683" lon="14.3071167"><ele>162.0</ele><time>2026-04-06T08:12:48.085Z</time></trkpt><trkpt lat="41.1071233" lon="14.307075"><ele>162.0</ele><time>2026-04-06T08:12:50.084Z</time></trkpt><trkpt lat="41.1071983" lon="14.307"><ele>162.0</ele><time>2026-04-06T08:12:53.086Z</time></trkpt><trkpt lat="41.1072733" lon="14.3069417"><ele>162.0</ele><time>2026-04-06T08:12:56.086Z</time></trkpt><trkpt lat="41.107335" lon="14.3069033"><ele>162.0</ele><time>2026-04-06T08:12:58.086Z</time></trkpt><trkpt lat="41.1073833" lon="14.3068467"><ele>162.0</ele><time>2026-04-06T08:13:00.087Z</time></trkpt><trkpt lat="41.10746" lon="14.3067717"><ele>164.0</ele><time>2026-04-06T08:13:03.085Z</time></trkpt><trkpt lat="41.107515" lon="14.30672"><ele>166.0</ele><time>2026-04-06T08:13:05.087Z</time></trkpt><trkpt lat="41.1075683" lon="14.3066583"><ele>168.0</ele><time>2026-04-06T08:13:07.085Z</time></trkpt><trkpt lat="41.10763" lon="14.30661"><ele>170.0</ele><time>2026-04-06T08:13:09.086Z</time></trkpt><trkpt lat="41.10769" lon="14.3065683"><ele>172.0</ele><time>2026-04-06T08:13:11.086Z</time></trkpt><trkpt lat="41.10775" lon="14.3065267"><ele>174.0</ele><time>2026-04-06T08:13:13.085Z</time></trkpt><trkpt lat="41.1078033" lon="14.3064817"><ele>176.0</ele><time>2026-04-06T08:13:15.087Z</time></trkpt><trkpt lat="41.1078733" lon="14.306455"><ele>176.0</ele><time>2026-04-06T08:13:17.085Z</time></trkpt><trkpt lat="41.1079367" lon="14.3064117"><ele>176.0</ele><time>2026-04-06T08:13:19.085Z</time></trkpt><trkpt lat="41.107995" lon="14.3063783"><ele>176.0</ele><time>2026-04-06T08:13:21.084Z</time></trkpt><trkpt lat="41.1080533" lon="14.3063433"><ele>176.0</ele><time>2026-04-06T08:13:23.085Z</time></trkpt><trkpt lat="41.1081333" lon="14.3062867"><ele>176.0</ele><time>2026-04-06T08:13:26.086Z</time></trkpt><trkpt lat="41.108195" lon="14.3062517"><ele>176.0</ele><time>2026-04-06T08:13:28.085Z</time></trkpt><trkpt lat="41.108255" lon="14.3062"><ele>176.0</ele><time>2026-04-06T08:13:30.085Z</time></trkpt><trkpt lat="41.1083267" lon="14.3061683"><ele>175.83333333333331</ele><time>2026-04-06T08:13:32.085Z</time></trkpt><trkpt lat="41.1083933" lon="14.3061367"><ele>175.66666666666666</ele><time>2026-04-06T08:13:34.087Z</time></trkpt><trkpt lat="41.10848" lon="14.3060783"><ele>175.5</ele><time>2026-04-06T08:13:37.085Z</time></trkpt><trkpt lat="41.10854" lon="14.3060383"><ele>175.33333333333334</ele><time>2026-04-06T08:13:39.085Z</time></trkpt><trkpt lat="41.1086033" lon="14.3059933"><ele>175.16666666666669</ele><time>2026-04-06T08:13:41.086Z</time></trkpt><trkpt lat="41.1086733" lon="14.30595"><ele>175.0</ele><time>2026-04-06T08:13:43.085Z</time></trkpt><trkpt lat="41.1087433" lon="14.3059133"><ele>175.0</ele><time>2026-04-06T08:13:45.085Z</time></trkpt><trkpt lat="41.1088233" lon="14.3058967"><ele>175.0</ele><time>2026-04-06T08:13:47.085Z</time></trkpt><trkpt lat="41.108885" lon="14.305865"><ele>175.0</ele><time>2026-04-06T08:13:49.085Z</time></trkpt><trkpt lat="41.108955" lon="14.30585"><ele>175.0</ele><time>2026-04-06T08:13:51.085Z</time></trkpt><trkpt lat="41.1090233" lon="14.3058317"><ele>175.0</ele><time>2026-04-06T08:13:53.085Z</time></trkpt><trkpt lat="41.109085" lon="14.3058033"><ele>175.0</ele><time>2026-04-06T08:13:55.088Z</time></trkpt><trkpt lat="41.1091533" lon="14.3057983"><ele>175.0</ele><time>2026-04-06T08:13:57.085Z</time></trkpt><trkpt lat="41.1092317" lon="14.3057833"><ele>176.33333333333334</ele><time>2026-04-06T08:13:59.085Z</time></trkpt><trkpt lat="41.1093067" lon="14.3057817"><ele>177.66666666666669</ele><time>2026-04-06T08:14:01.088Z</time></trkpt><trkpt lat="41.1093833" lon="14.3057767"><ele>179.0</ele><time>2026-04-06T08:14:03.086Z</time></trkpt><trkpt lat="41.1094567" lon="14.3057633"><ele>180.33333333333334</ele><time>2026-04-06T08:14:05.088Z</time></trkpt><trkpt lat="41.1095333" lon="14.3057533"><ele>181.66666666666666</ele><time>2026-04-06T08:14:07.087Z</time></trkpt><trkpt lat="41.1096083" lon="14.3057367"><ele>183.0</ele><time>2026-04-06T08:14:09.088Z</time></trkpt><trkpt lat="41.1096833" lon="14.3057133"><ele>183.0</ele><time>2026-04-06T08:14:11.085Z</time></trkpt><trkpt lat="41.10976" lon="14.3057067"><ele>183.0</ele><time>2026-04-06T08:14:13.086Z</time></trkpt><trkpt lat="41.10983" lon="14.3056917"><ele>183.0</ele><time>2026-04-06T08:14:15.087Z</time></trkpt><trkpt lat="41.1099017" lon="14.3056883"><ele>183.0</ele><time>2026-04-06T08:14:17.091Z</time></trkpt><trkpt lat="41.1099733" lon="14.3056883"><ele>183.0</ele><time>2026-04-06T08:14:19.087Z</time></trkpt><trkpt lat="41.1100433" lon="14.3056867"><ele>183.0</ele><time>2026-04-06T08:14:21.086Z</time></trkpt><trkpt lat="41.1101133" lon="14.30568"><ele>183.0</ele><time>2026-04-06T08:14:23.086Z</time></trkpt><trkpt lat="41.110185" lon="14.305675"><ele>183.5</ele><time>2026-04-06T08:14:25.085Z</time></trkpt><trkpt lat="41.1102567" lon="14.3056717"><ele>184.0</ele><time>2026-04-06T08:14:27.086Z</time></trkpt><trkpt lat="41.1103233" lon="14.3056583"><ele>184.5</ele><time>2026-04-06T08:14:29.086Z</time></trkpt><trkpt lat="41.1104133" lon="14.3056417"><ele>185.0</ele><time>2026-04-06T08:14:32.088Z</time></trkpt><trkpt lat="41.1104767" lon="14.3056417"><ele>185.5</ele><time>2026-04-06T08:14:34.088Z</time></trkpt><trkpt lat="41.1105583" lon="14.3056233"><ele>186.0</ele><time>2026-04-06T08:14:37.088Z</time></trkpt><trkpt lat="41.1106333" lon="14.305585"><ele>186.5</ele><time>2026-04-06T08:14:40.088Z</time></trkpt><trkpt lat="41.1107033" lon="14.305545"><ele>187.0</ele><time>2026-04-06T08:14:43.089Z</time></trkpt><trkpt lat="41.1107733" lon="14.3055267"><ele>187.5</ele><time>2026-04-06T08:14:46.088Z</time></trkpt><trkpt lat="41.110695" lon="14.305465"><ele>188.0</ele><time>2026-04-06T08:16:33.084Z</time></trkpt><trkpt lat="41.1106067" lon="14.3054683"><ele>188.5</ele><time>2026-04-06T08:16:35.084Z</time></trkpt><trkpt lat="41.110495" lon="14.3054583"><ele>189.0</ele><time>2026-04-06T08:16:37.085Z</time></trkpt><trkpt lat="41.11043" lon="14.3054567"><ele>187.71428571428572</ele><time>2026-04-06T08:16:38.085Z</time></trkpt><trkpt lat="41.1103617" lon="14.3054567"><ele>186.42857142857144</ele><time>2026-04-06T08:16:39.084Z</time></trkpt><trkpt lat="41.11029" lon="14.3054567"><ele>185.14285714285714</ele><time>2026-04-06T08:16:40.085Z</time></trkpt><trkpt lat="41.11022" lon="14.3054617"><ele>183.85714285714286</ele><time>2026-04-06T08:16:41.086Z</time></trkpt><trkpt lat="41.1101467" lon="14.30547"><ele>182.57142857142858</ele><time>2026-04-06T08:16:42.084Z</time></trkpt><trkpt lat="41.1100667" lon="14.3054833"><ele>181.28571428571428</ele><time>2026-04-06T08:16:43.085Z</time></trkpt><trkpt lat="41.109985" lon="14.3054917"><ele>180.0</ele><time>2026-04-06T08:16:44.086Z</time></trkpt><trkpt lat="41.1098983" lon="14.3055"><ele>179.0</ele><time>2026-04-06T08:16:45.088Z</time></trkpt><trkpt lat="41.1098067" lon="14.3055033"><ele>178.0</ele><time>2026-04-06T08:16:46.085Z</time></trkpt><trkpt lat="41.1097083" lon="14.305505"><ele>177.0</ele><time>2026-04-06T08:16:47.085Z</time></trkpt><trkpt lat="41.10961" lon="14.30551"><ele>176.0</ele><time>2026-04-06T08:16:48.084Z</time></trkpt><trkpt lat="41.1095117" lon="14.3055167"><ele>175.0</ele><time>2026-04-06T08:16:49.085Z</time></trkpt><trkpt lat="41.10941" lon="14.30552"><ele>175.0</ele><time>2026-04-06T08:16:50.085Z</time></trkpt><trkpt lat="41.1093083" lon="14.3055233"><ele>175.0</ele><time>2026-04-06T08:16:51.085Z</time></trkpt><trkpt lat="41.10921" lon="14.30553"><ele>175.0</ele><time>2026-04-06T08:16:52.086Z</time></trkpt><trkpt lat="41.10912" lon="14.3055367"><ele>175.0</ele><time>2026-04-06T08:16:53.088Z</time></trkpt><trkpt lat="41.1090333" lon="14.305545"><ele>175.0</ele><time>2026-04-06T08:16:54.086Z</time></trkpt><trkpt lat="41.10895" lon="14.3055533"><ele>175.0</ele><time>2026-04-06T08:16:55.086Z</time></trkpt><trkpt lat="41.108865" lon="14.3055567"><ele>175.0</ele><time>2026-04-06T08:16:56.087Z</time></trkpt><trkpt lat="41.1087833" lon="14.3055617"><ele>175.0</ele><time>2026-04-06T08:16:57.086Z</time></trkpt><trkpt lat="41.10871" lon="14.3055767"><ele>175.0</ele><time>2026-04-06T08:16:58.086Z</time></trkpt><trkpt lat="41.1086433" lon="14.3055917"><ele>175.0</ele><time>2026-04-06T08:16:59.085Z</time></trkpt><trkpt lat="41.1085367" lon="14.3056133"><ele>175.0</ele><time>2026-04-06T08:17:01.085Z</time></trkpt><trkpt lat="41.1084433" lon="14.3056517"><ele>175.0</ele><time>2026-04-06T08:17:04.085Z</time></trkpt><trkpt lat="41.1083717" lon="14.3056833"><ele>175.0</ele><time>2026-04-06T08:17:06.086Z</time></trkpt><trkpt lat="41.108285" lon="14.3057217"><ele>175.0</ele><time>2026-04-06T08:17:08.086Z</time></trkpt><trkpt lat="41.1081767" lon="14.3057817"><ele>175.0</ele><time>2026-04-06T08:17:10.085Z</time></trkpt><trkpt lat="41.1081133" lon="14.3058183"><ele>175.0</ele><time>2026-04-06T08:17:11.086Z</time></trkpt><trkpt lat="41.10804" lon="14.3058617"><ele>175.0</ele><time>2026-04-06T08:17:12.089Z</time></trkpt><trkpt lat="41.1079717" lon="14.3059083"><ele>173.4</ele><time>2026-04-06T08:17:13.086Z</time></trkpt><trkpt lat="41.1078983" lon="14.305955"><ele>171.8</ele><time>2026-04-06T08:17:14.087Z</time></trkpt><trkpt lat="41.1078167" lon="14.306"><ele>170.2</ele><time>2026-04-06T08:17:15.085Z</time></trkpt><trkpt lat="41.1077333" lon="14.3060417"><ele>168.6</ele><time>2026-04-06T08:17:16.086Z</time></trkpt><trkpt lat="41.107645" lon="14.3060883"><ele>167.0</ele><time>2026-04-06T08:17:17.086Z</time></trkpt><trkpt lat="41.107555" lon="14.3061417"><ele>167.0</ele><time>2026-04-06T08:17:18.087Z</time></trkpt><trkpt lat="41.1074617" lon="14.3061983"><ele>167.0</ele><time>2026-04-06T08:17:19.087Z</time></trkpt><trkpt lat="41.1073683" lon="14.3062517"><ele>167.0</ele><time>2026-04-06T08:17:20.086Z</time></trkpt><trkpt lat="41.1072717" lon="14.306305"><ele>167.0</ele><time>2026-04-06T08:17:21.085Z</time></trkpt><trkpt lat="41.1071667" lon="14.3063617"><ele>167.0</ele><time>2026-04-06T08:17:22.086Z</time></trkpt><trkpt lat="41.1070717" lon="14.30642"><ele>166.0</ele><time>2026-04-06T08:17:23.086Z</time></trkpt><trkpt lat="41.10697" lon="14.3064817"><ele>165.0</ele><time>2026-04-06T08:17:24.085Z</time></trkpt><trkpt lat="41.1068683" lon="14.3065433"><ele>164.0</ele><time>2026-04-06T08:17:25.087Z</time></trkpt><trkpt lat="41.1067667" lon="14.3065967"><ele>163.0</ele><time>2026-04-06T08:17:26.085Z</time></trkpt><trkpt lat="41.1066633" lon="14.306655"><ele>162.0</ele><time>2026-04-06T08:17:27.086Z</time></trkpt><trkpt lat="41.1065567" lon="14.30672"><ele>160.25</ele><time>2026-04-06T08:17:28.085Z</time></trkpt><trkpt lat="41.1064483" lon="14.3067817"><ele>158.5</ele><time>2026-04-06T08:17:29.086Z</time></trkpt><trkpt lat="41.1063433" lon="14.3068367"><ele>156.75</ele><time>2026-04-06T08:17:30.086Z</time></trkpt><trkpt lat="41.106235" lon="14.306895"><ele>155.0</ele><time>2026-04-06T08:17:31.086Z</time></trkpt><trkpt lat="41.106125" lon="14.3069567"><ele>155.0</ele><time>2026-04-06T08:17:32.089Z</time></trkpt><trkpt lat="41.1060133" lon="14.3070183"><ele>155.0</ele><time>2026-04-06T08:17:33.085Z</time></trkpt><trkpt lat="41.1059" lon="14.3070783"><ele>155.0</ele><time>2026-04-06T08:17:34.085Z</time></trkpt><trkpt lat="41.1057867" lon="14.30714"><ele>155.0</ele><time>2026-04-06T08:17:35.085Z</time></trkpt><trkpt lat="41.1056817" lon="14.3072"><ele>154.25</ele><time>2026-04-06T08:17:36.086Z</time></trkpt><trkpt lat="41.1055733" lon="14.3072583"><ele>153.5</ele><time>2026-04-06T08:17:37.086Z</time></trkpt><trkpt lat="41.10547" lon="14.3073217"><ele>152.75</ele><time>2026-04-06T08:17:38.086Z</time></trkpt><trkpt lat="41.10537" lon="14.3073883"><ele>152.0</ele><time>2026-04-06T08:17:39.088Z</time></trkpt><trkpt lat="41.1052683" lon="14.3074567"><ele>152.0</ele><time>2026-04-06T08:17:40.085Z</time></trkpt><trkpt lat="41.10517" lon="14.30753"><ele>152.0</ele><time>2026-04-06T08:17:41.085Z</time></trkpt><trkpt lat="41.105075" lon="14.307605"><ele>152.0</ele><time>2026-04-06T08:17:42.085Z</time></trkpt><trkpt lat="41.1049833" lon="14.3076817"><ele>152.0</ele><time>2026-04-06T08:17:43.085Z</time></trkpt><trkpt lat="41.1048933" lon="14.3077567"><ele>152.0</ele><time>2026-04-06T08:17:44.086Z</time></trkpt><trkpt lat="41.104805" lon="14.3078333"><ele>151.2</ele><time>2026-04-06T08:17:45.085Z</time></trkpt><trkpt lat="41.1047183" lon="14.3079067"><ele>150.39999999999998</ele><time>2026-04-06T08:17:46.085Z</time></trkpt><trkpt lat="41.1046283" lon="14.30798"><ele>149.60000000000002</ele><time>2026-04-06T08:17:47.085Z</time></trkpt><trkpt lat="41.1045433" lon="14.3080567"><ele>148.8</ele><time>2026-04-06T08:17:48.085Z</time></trkpt><trkpt lat="41.1044583" lon="14.308135"><ele>148.0</ele><time>2026-04-06T08:17:49.085Z</time></trkpt><trkpt lat="41.1043767" lon="14.3082083"><ele>147.8</ele><time>2026-04-06T08:17:50.086Z</time></trkpt><trkpt lat="41.1042917" lon="14.3082817"><ele>147.60000000000002</ele><time>2026-04-06T08:17:51.085Z</time></trkpt><trkpt lat="41.1042083" lon="14.3083583"><ele>147.39999999999998</ele><time>2026-04-06T08:17:52.085Z</time></trkpt><trkpt lat="41.104125" lon="14.3084433"><ele>147.2</ele><time>2026-04-06T08:17:53.085Z</time></trkpt><trkpt lat="41.1040417" lon="14.3085283"><ele>147.0</ele><time>2026-04-06T08:17:54.086Z</time></trkpt><trkpt lat="41.103965" lon="14.3086217"><ele>146.2</ele><time>2026-04-06T08:17:55.086Z</time></trkpt><trkpt lat="41.1038933" lon="14.3087217"><ele>145.39999999999998</ele><time>2026-04-06T08:17:56.085Z</time></trkpt><trkpt lat="41.1038267" lon="14.3088383"><ele>144.60000000000002</ele><time>2026-04-06T08:17:57.086Z</time></trkpt><trkpt lat="41.1037667" lon="14.3089583"><ele>143.8</ele><time>2026-04-06T08:17:58.085Z</time></trkpt><trkpt lat="41.1037133" lon="14.30908"><ele>143.0</ele><time>2026-04-06T08:17:59.087Z</time></trkpt><trkpt lat="41.1036617" lon="14.30921"><ele>143.0</ele><time>2026-04-06T08:18:00.085Z</time></trkpt><trkpt lat="41.10361" lon="14.3093433"><ele>143.0</ele><time>2026-04-06T08:18:01.085Z</time></trkpt><trkpt lat="41.10357" lon="14.3094783"><ele>143.0</ele><time>2026-04-06T08:18:02.086Z</time></trkpt><trkpt lat="41.1035217" lon="14.3096067"><ele>143.0</ele><time>2026-04-06T08:18:03.085Z</time></trkpt><trkpt lat="41.10347" lon="14.3097317"><ele>143.0</ele><time>2026-04-06T08:18:04.085Z</time></trkpt><trkpt lat="41.103415" lon="14.3098567"><ele>143.6</ele><time>2026-04-06T08:18:05.086Z</time></trkpt><trkpt lat="41.1033533" lon="14.3099767"><ele>144.20000000000002</ele><time>2026-04-06T08:18:06.085Z</time></trkpt><trkpt lat="41.1032867" lon="14.3100933"><ele>144.8</ele><time>2026-04-06T08:18:07.086Z</time></trkpt><trkpt lat="41.1032133" lon="14.3102"><ele>145.4</ele><time>2026-04-06T08:18:08.085Z</time></trkpt><trkpt lat="41.1031317" lon="14.3102917"><ele>146.0</ele><time>2026-04-06T08:18:09.085Z</time></trkpt><trkpt lat="41.103045" lon="14.3103633"><ele>145.4</ele><time>2026-04-06T08:18:10.086Z</time></trkpt><trkpt lat="41.1029483" lon="14.31043"><ele>144.8</ele><time>2026-04-06T08:18:11.086Z</time></trkpt><trkpt lat="41.10285" lon="14.3104933"><ele>144.20000000000002</ele><time>2026-04-06T08:18:12.085Z</time></trkpt><trkpt lat="41.1027567" lon="14.3105583"><ele>143.6</ele><time>2026-04-06T08:18:13.087Z</time></trkpt><trkpt lat="41.1026617" lon="14.31062"><ele>143.0</ele><time>2026-04-06T08:18:14.088Z</time></trkpt><trkpt lat="41.1025617" lon="14.310675"><ele>143.0</ele><time>2026-04-06T08:18:15.086Z</time></trkpt><trkpt lat="41.10246" lon="14.3107317"><ele>143.0</ele><time>2026-04-06T08:18:16.087Z</time></trkpt><trkpt lat="41.1023617" lon="14.3107883"><ele>143.0</ele><time>2026-04-06T08:18:17.087Z</time></trkpt><trkpt lat="41.10226" lon="14.310845"><ele>143.0</ele><time>2026-04-06T08:18:18.086Z</time></trkpt><trkpt lat="41.10216" lon="14.310905"><ele>143.0</ele><time>2026-04-06T08:18:19.085Z</time></trkpt><trkpt lat="41.1020583" lon="14.3109583"><ele>141.75</ele><time>2026-04-06T08:18:20.087Z</time></trkpt><trkpt lat="41.101955" lon="14.3110183"><ele>140.5</ele><time>2026-04-06T08:18:21.085Z</time></trkpt><trkpt lat="41.1018533" lon="14.3110783"><ele>139.25</ele><time>2026-04-06T08:18:22.086Z</time></trkpt><trkpt lat="41.10175" lon="14.311145"><ele>138.0</ele><time>2026-04-06T08:18:23.085Z</time></trkpt><trkpt lat="41.1016433" lon="14.31121"><ele>136.5</ele><time>2026-04-06T08:18:24.086Z</time></trkpt><trkpt lat="41.10154" lon="14.31128"><ele>135.0</ele><time>2026-04-06T08:18:25.086Z</time></trkpt><trkpt lat="41.1014383" lon="14.31136"><ele>133.5</ele><time>2026-04-06T08:18:26.086Z</time></trkpt><trkpt lat="41.1013433" lon="14.3114483"><ele>132.0</ele><time>2026-04-06T08:18:27.086Z</time></trkpt><trkpt lat="41.1012517" lon="14.311545"><ele>131.79999999999998</ele><time>2026-04-06T08:18:28.085Z</time></trkpt><trkpt lat="41.1011667" lon="14.31165"><ele>131.6</ele><time>2026-04-06T08:18:29.085Z</time></trkpt><trkpt lat="41.1010917" lon="14.3117533"><ele>131.39999999999998</ele><time>2026-04-06T08:18:30.085Z</time></trkpt><trkpt lat="41.1010217" lon="14.311845"><ele>131.2</ele><time>2026-04-06T08:18:31.084Z</time></trkpt><trkpt lat="41.10096" lon="14.3119267"><ele>131.0</ele><time>2026-04-06T08:18:32.085Z</time></trkpt><trkpt lat="41.1008933" lon="14.3119917"><ele>131.0</ele><time>2026-04-06T08:18:33.085Z</time></trkpt><trkpt lat="41.1008183" lon="14.312025"><ele>131.0</ele><time>2026-04-06T08:18:34.085Z</time></trkpt><trkpt lat="41.1007383" lon="14.3120383"><ele>131.0</ele><time>2026-04-06T08:18:35.083Z</time></trkpt><trkpt lat="41.1006617" lon="14.3120567"><ele>131.0</ele><time>2026-04-06T08:18:36.085Z</time></trkpt><trkpt lat="41.1005917" lon="14.3120783"><ele>131.0</ele><time>2026-04-06T08:18:37.084Z</time></trkpt><trkpt lat="41.1005" lon="14.3121533"><ele>131.0</ele><time>2026-04-06T08:18:39.083Z</time></trkpt><trkpt lat="41.1004833" lon="14.3122683"><ele>130.0</ele><time>2026-04-06T08:18:41.084Z</time></trkpt><trkpt lat="41.10044" lon="14.3123917"><ele>129.0</ele><time>2026-04-06T08:18:43.084Z</time></trkpt><trkpt lat="41.1003733" lon="14.312535"><ele>128.0</ele><time>2026-04-06T08:18:45.084Z</time></trkpt><trkpt lat="41.1003333" lon="14.3126167"><ele>127.0</ele><time>2026-04-06T08:18:46.084Z</time></trkpt><trkpt lat="41.1002867" lon="14.3127033"><ele>126.0</ele><time>2026-04-06T08:18:47.085Z</time></trkpt><trkpt lat="41.10024" lon="14.3127917"><ele>126.0</ele><time>2026-04-06T08:18:48.085Z</time></trkpt><trkpt lat="41.1001967" lon="14.312885"><ele>126.0</ele><time>2026-04-06T08:18:49.087Z</time></trkpt><trkpt lat="41.10015" lon="14.312975"><ele>126.0</ele><time>2026-04-06T08:18:50.089Z</time></trkpt><trkpt lat="41.1001" lon="14.313075"><ele>126.0</ele><time>2026-04-06T08:18:51.085Z</time></trkpt><trkpt lat="41.1000517" lon="14.313175"><ele>126.0</ele><time>2026-04-06T08:18:52.084Z</time></trkpt><trkpt lat="41.1000017" lon="14.3132767"><ele>126.0</ele><time>2026-04-06T08:18:53.085Z</time></trkpt><trkpt lat="41.0999483" lon="14.31338"><ele>125.19999999999999</ele><time>2026-04-06T08:18:54.084Z</time></trkpt><trkpt lat="41.0998917" lon="14.3134817"><ele>124.39999999999999</ele><time>2026-04-06T08:18:55.085Z</time></trkpt><trkpt lat="41.0998417" lon="14.3135933"><ele>123.6</ele><time>2026-04-06T08:18:56.086Z</time></trkpt><trkpt lat="41.09979" lon="14.313705"><ele>122.8</ele><time>2026-04-06T08:18:57.087Z</time></trkpt><trkpt lat="41.0997383" lon="14.3138167"><ele>122.0</ele><time>2026-04-06T08:18:58.084Z</time></trkpt><trkpt lat="41.09969" lon="14.3139283"><ele>122.0</ele><time>2026-04-06T08:18:59.085Z</time></trkpt><trkpt lat="41.0996433" lon="14.31404"><ele>121.99999999999999</ele><time>2026-04-06T08:19:00.084Z</time></trkpt><trkpt lat="41.09959" lon="14.3141483"><ele>121.99999999999999</ele><time>2026-04-06T08:19:01.084Z</time></trkpt><trkpt lat="41.09954" lon="14.3142533"><ele>122.0</ele><time>2026-04-06T08:19:02.085Z</time></trkpt><trkpt lat="41.0994867" lon="14.3143583"><ele>122.0</ele><time>2026-04-06T08:19:03.085Z</time></trkpt><trkpt lat="41.0994333" lon="14.3144617"><ele>122.0</ele><time>2026-04-06T08:19:04.084Z</time></trkpt><trkpt lat="41.0993817" lon="14.3145633"><ele>121.99999999999999</ele><time>2026-04-06T08:19:05.086Z</time></trkpt><trkpt lat="41.099325" lon="14.31466"><ele>121.99999999999999</ele><time>2026-04-06T08:19:06.085Z</time></trkpt><trkpt lat="41.0992633" lon="14.3147567"><ele>122.0</ele><time>2026-04-06T08:19:07.084Z</time></trkpt><trkpt lat="41.0992017" lon="14.3148483"><ele>122.0</ele><time>2026-04-06T08:19:08.086Z</time></trkpt><trkpt lat="41.0991417" lon="14.3149333"><ele>121.83333333333333</ele><time>2026-04-06T08:19:09.085Z</time></trkpt><trkpt lat="41.09909" lon="14.3150083"><ele>121.66666666666666</ele><time>2026-04-06T08:19:10.086Z</time></trkpt><trkpt lat="41.099045" lon="14.3150767"><ele>121.5</ele><time>2026-04-06T08:19:11.087Z</time></trkpt><trkpt lat="41.0989983" lon="14.3151333"><ele>121.33333333333334</ele><time>2026-04-06T08:19:12.086Z</time></trkpt><trkpt lat="41.0989217" lon="14.315225"><ele>121.16666666666667</ele><time>2026-04-06T08:19:14.085Z</time></trkpt><trkpt lat="41.0988733" lon="14.3152833"><ele>121.0</ele><time>2026-04-06T08:19:16.085Z</time></trkpt><trkpt lat="41.0988067" lon="14.3153517"><ele>120.50000000000001</ele><time>2026-04-06T08:19:19.084Z</time></trkpt><trkpt lat="41.0987533" lon="14.3154117"><ele>120.0</ele><time>2026-04-06T08:19:21.084Z</time></trkpt><trkpt lat="41.09869" lon="14.315485"><ele>119.5</ele><time>2026-04-06T08:19:23.084Z</time></trkpt><trkpt lat="41.0986183" lon="14.3155617"><ele>119.0</ele><time>2026-04-06T08:19:25.085Z</time></trkpt><trkpt lat="41.09854" lon="14.31563"><ele>118.50000000000001</ele><time>2026-04-06T08:19:27.085Z</time></trkpt><trkpt lat="41.0984667" lon="14.3156667"><ele>118.0</ele><time>2026-04-06T08:19:29.084Z</time></trkpt><trkpt lat="41.09839" lon="14.3156283"><ele>118.00000000000001</ele><time>2026-04-06T08:19:32.085Z</time></trkpt><trkpt lat="41.0983783" lon="14.315725"><ele>118.0</ele><time>2026-04-06T08:20:12.088Z</time></trkpt><trkpt lat="41.0983083" lon="14.3158"><ele>118.0</ele><time>2026-04-06T08:20:14.084Z</time></trkpt><trkpt lat="41.0982183" lon="14.3159067"><ele>118.0</ele><time>2026-04-06T08:20:16.085Z</time></trkpt><trkpt lat="41.09817" lon="14.3159617"><ele>118.00000000000001</ele><time>2026-04-06T08:20:17.083Z</time></trkpt><trkpt lat="41.0981117" lon="14.316015"><ele>118.0</ele><time>2026-04-06T08:20:18.084Z</time></trkpt><trkpt lat="41.09805" lon="14.31607"><ele>117.16666666666667</ele><time>2026-04-06T08:20:19.085Z</time></trkpt><trkpt lat="41.0979883" lon="14.3161267"><ele>116.33333333333334</ele><time>2026-04-06T08:20:20.084Z</time></trkpt><trkpt lat="41.0979267" lon="14.316195"><ele>115.5</ele><time>2026-04-06T08:20:21.083Z</time></trkpt><trkpt lat="41.0978667" lon="14.316255"><ele>114.66666666666666</ele><time>2026-04-06T08:20:22.083Z</time></trkpt><trkpt lat="41.0978067" lon="14.316315"><ele>113.83333333333333</ele><time>2026-04-06T08:20:23.083Z</time></trkpt><trkpt lat="41.0977417" lon="14.3163767"><ele>113.0</ele><time>2026-04-06T08:20:24.085Z</time></trkpt><trkpt lat="41.0976767" lon="14.31644"><ele>112.99999999999999</ele><time>2026-04-06T08:20:25.084Z</time></trkpt><trkpt lat="41.0976183" lon="14.3165017"><ele>113.0</ele><time>2026-04-06T08:20:26.084Z</time></trkpt><trkpt lat="41.0975583" lon="14.3165683"><ele>113.0</ele><time>2026-04-06T08:20:27.084Z</time></trkpt><trkpt lat="41.0974967" lon="14.31663"><ele>113.0</ele><time>2026-04-06T08:20:28.083Z</time></trkpt><trkpt lat="41.0974283" lon="14.3166933"><ele>112.99999999999999</ele><time>2026-04-06T08:20:29.084Z</time></trkpt><trkpt lat="41.0973633" lon="14.3167567"><ele>113.0</ele><time>2026-04-06T08:20:30.084Z</time></trkpt><trkpt lat="41.0972967" lon="14.3168217"><ele>112.49999999999999</ele><time>2026-04-06T08:20:31.084Z</time></trkpt><trkpt lat="41.0972283" lon="14.3168833"><ele>112.0</ele><time>2026-04-06T08:20:32.084Z</time></trkpt><trkpt lat="41.0971633" lon="14.3169517"><ele>111.5</ele><time>2026-04-06T08:20:33.084Z</time></trkpt><trkpt lat="41.0971" lon="14.3170183"><ele>111.0</ele><time>2026-04-06T08:20:34.083Z</time></trkpt><trkpt lat="41.097035" lon="14.31709"><ele>110.49999999999999</ele><time>2026-04-06T08:20:35.084Z</time></trkpt><trkpt lat="41.0969683" lon="14.3171617"><ele>110.0</ele><time>2026-04-06T08:20:36.086Z</time></trkpt><trkpt lat="41.0969017" lon="14.31723"><ele>110.16666666666666</ele><time>2026-04-06T08:20:37.083Z</time></trkpt><trkpt lat="41.096835" lon="14.3173017"><ele>110.33333333333333</ele><time>2026-04-06T08:20:38.084Z</time></trkpt><trkpt lat="41.096765" lon="14.3173733"><ele>110.5</ele><time>2026-04-06T08:20:39.086Z</time></trkpt><trkpt lat="41.0966933" lon="14.3174367"><ele>110.66666666666666</ele><time>2026-04-06T08:20:40.083Z</time></trkpt><trkpt lat="41.09662" lon="14.3175"><ele>110.83333333333333</ele><time>2026-04-06T08:20:41.084Z</time></trkpt><trkpt lat="41.096545" lon="14.31757"><ele>111.0</ele><time>2026-04-06T08:20:42.085Z</time></trkpt><trkpt lat="41.0964767" lon="14.31764"><ele>110.16666666666667</ele><time>2026-04-06T08:20:43.083Z</time></trkpt><trkpt lat="41.09641" lon="14.3177067"><ele>109.33333333333334</ele><time>2026-04-06T08:20:44.084Z</time></trkpt><trkpt lat="41.096345" lon="14.31777"><ele>108.5</ele><time>2026-04-06T08:20:45.084Z</time></trkpt><trkpt lat="41.0962817" lon="14.3178367"><ele>107.66666666666667</ele><time>2026-04-06T08:20:46.084Z</time></trkpt><trkpt lat="41.0962133" lon="14.3179017"><ele>106.83333333333334</ele><time>2026-04-06T08:20:47.084Z</time></trkpt><trkpt lat="41.096135" lon="14.31795"><ele>106.0</ele><time>2026-04-06T08:20:48.085Z</time></trkpt><trkpt lat="41.0960533" lon="14.317985"><ele>106.00000000000001</ele><time>2026-04-06T08:20:49.084Z</time></trkpt><trkpt lat="41.0959817" lon="14.31803"><ele>106.0</ele><time>2026-04-06T08:20:50.085Z</time></trkpt><trkpt lat="41.0959083" lon="14.3180817"><ele>106.0</ele><time>2026-04-06T08:20:51.084Z</time></trkpt><trkpt lat="41.0958383" lon="14.31812"><ele>106.0</ele><time>2026-04-06T08:20:52.084Z</time></trkpt><trkpt lat="41.0957633" lon="14.3181417"><ele>106.00000000000001</ele><time>2026-04-06T08:20:53.084Z</time></trkpt><trkpt lat="41.0956867" lon="14.3181417"><ele>106.0</ele><time>2026-04-06T08:20:54.084Z</time></trkpt><trkpt lat="41.095605" lon="14.318125"><ele>106.00000000000001</ele><time>2026-04-06T08:20:55.084Z</time></trkpt><trkpt lat="41.09552" lon="14.3181033"><ele>106.0</ele><time>2026-04-06T08:20:56.084Z</time></trkpt><trkpt lat="41.095435" lon="14.3180783"><ele>106.0</ele><time>2026-04-06T08:20:57.085Z</time></trkpt><trkpt lat="41.09535" lon="14.31804"><ele>106.0</ele><time>2026-04-06T08:20:58.084Z</time></trkpt><trkpt lat="41.095265" lon="14.3180067"><ele>106.00000000000001</ele><time>2026-04-06T08:20:59.084Z</time></trkpt><trkpt lat="41.0951767" lon="14.31798"><ele>106.0</ele><time>2026-04-06T08:21:00.087Z</time></trkpt><trkpt lat="41.09509" lon="14.3179533"><ele>106.0</ele><time>2026-04-06T08:21:01.085Z</time></trkpt><trkpt lat="41.095" lon="14.317925"><ele>106.0</ele><time>2026-04-06T08:21:02.088Z</time></trkpt><trkpt lat="41.0949083" lon="14.3178983"><ele>106.0</ele><time>2026-04-06T08:21:03.084Z</time></trkpt><trkpt lat="41.0948183" lon="14.3178717"><ele>106.0</ele><time>2026-04-06T08:21:04.084Z</time></trkpt><trkpt lat="41.0947283" lon="14.3178433"><ele>106.0</ele><time>2026-04-06T08:21:05.085Z</time></trkpt><trkpt lat="41.09464" lon="14.3178117"><ele>105.8</ele><time>2026-04-06T08:21:06.089Z</time></trkpt><trkpt lat="41.0945583" lon="14.3177567"><ele>105.6</ele><time>2026-04-06T08:21:07.085Z</time></trkpt><trkpt lat="41.0944833" lon="14.3176833"><ele>105.4</ele><time>2026-04-06T08:21:08.085Z</time></trkpt><trkpt lat="41.0944117" lon="14.3176067"><ele>105.2</ele><time>2026-04-06T08:21:09.084Z</time></trkpt><trkpt lat="41.0943383" lon="14.3175317"><ele>105.0</ele><time>2026-04-06T08:21:10.086Z</time></trkpt><trkpt lat="41.0942667" lon="14.31746"><ele>105.0</ele><time>2026-04-06T08:21:11.085Z</time></trkpt><trkpt lat="41.0941933" lon="14.3173933"><ele>105.0</ele><time>2026-04-06T08:21:12.086Z</time></trkpt><trkpt lat="41.09412" lon="14.3173333"><ele>105.0</ele><time>2026-04-06T08:21:13.086Z</time></trkpt><trkpt lat="41.0940417" lon="14.3172783"><ele>105.0</ele><time>2026-04-06T08:21:14.084Z</time></trkpt><trkpt lat="41.0939533" lon="14.317235"><ele>105.0</ele><time>2026-04-06T08:21:15.087Z</time></trkpt><trkpt lat="41.09387" lon="14.3171883"><ele>105.0</ele><time>2026-04-06T08:21:16.083Z</time></trkpt><trkpt lat="41.0937917" lon="14.3171333"><ele>104.0</ele><time>2026-04-06T08:21:17.084Z</time></trkpt><trkpt lat="41.09371" lon="14.3170817"><ele>103.0</ele><time>2026-04-06T08:21:18.085Z</time></trkpt><trkpt lat="41.09363" lon="14.31703"><ele>102.0</ele><time>2026-04-06T08:21:19.085Z</time></trkpt><trkpt lat="41.09355" lon="14.3169767"><ele>101.0</ele><time>2026-04-06T08:21:20.086Z</time></trkpt><trkpt lat="41.0934683" lon="14.3169217"><ele>100.0</ele><time>2026-04-06T08:21:21.084Z</time></trkpt><trkpt lat="41.0933883" lon="14.31687"><ele>100.00000000000001</ele><time>2026-04-06T08:21:22.084Z</time></trkpt><trkpt lat="41.0933083" lon="14.3168167"><ele>100.0</ele><time>2026-04-06T08:21:23.085Z</time></trkpt><trkpt lat="41.0932267" lon="14.3167683"><ele>100.0</ele><time>2026-04-06T08:21:24.085Z</time></trkpt><trkpt lat="41.0931467" lon="14.316725"><ele>100.0</ele><time>2026-04-06T08:21:25.084Z</time></trkpt><trkpt lat="41.0930633" lon="14.3166917"><ele>100.00000000000001</ele><time>2026-04-06T08:21:26.084Z</time></trkpt><trkpt lat="41.0929783" lon="14.3166617"><ele>100.0</ele><time>2026-04-06T08:21:27.084Z</time></trkpt><trkpt lat="41.0928917" lon="14.316635"><ele>99.2</ele><time>2026-04-06T08:21:28.088Z</time></trkpt><trkpt lat="41.092805" lon="14.31661"><ele>98.4</ele><time>2026-04-06T08:21:29.084Z</time></trkpt><trkpt lat="41.0927167" lon="14.3165883"><ele>97.6</ele><time>2026-04-06T08:21:30.084Z</time></trkpt><trkpt lat="41.092625" lon="14.3165717"><ele>96.8</ele><time>2026-04-06T08:21:31.084Z</time></trkpt><trkpt lat="41.0925333" lon="14.3165567"><ele>96.0</ele><time>2026-04-06T08:21:32.085Z</time></trkpt><trkpt lat="41.0924383" lon="14.3165567"><ele>95.4</ele><time>2026-04-06T08:21:33.084Z</time></trkpt><trkpt lat="41.092345" lon="14.3165683"><ele>94.8</ele><time>2026-04-06T08:21:34.084Z</time></trkpt><trkpt lat="41.0922517" lon="14.3165933"><ele>94.2</ele><time>2026-04-06T08:21:35.084Z</time></trkpt><trkpt lat="41.092155" lon="14.3166233"><ele>93.60000000000001</ele><time>2026-04-06T08:21:36.089Z</time></trkpt><trkpt lat="41.092055" lon="14.3166567"><ele>93.0</ele><time>2026-04-06T08:21:37.084Z</time></trkpt><trkpt lat="41.091955" lon="14.31669"><ele>93.0</ele><time>2026-04-06T08:21:38.085Z</time></trkpt><trkpt lat="41.0918583" lon="14.316725"><ele>93.0</ele><time>2026-04-06T08:21:39.084Z</time></trkpt><trkpt lat="41.0917767" lon="14.3167567"><ele>93.0</ele><time>2026-04-06T08:21:40.085Z</time></trkpt><trkpt lat="41.0917067" lon="14.3167833"><ele>93.0</ele><time>2026-04-06T08:21:41.084Z</time></trkpt><trkpt lat="41.0916367" lon="14.3168133"><ele>93.0</ele><time>2026-04-06T08:21:42.087Z</time></trkpt><trkpt lat="41.0915667" lon="14.3168433"><ele>93.0</ele><time>2026-04-06T08:21:43.085Z</time></trkpt><trkpt lat="41.0914983" lon="14.31688"><ele>92.33333333333333</ele><time>2026-04-06T08:21:44.086Z</time></trkpt><trkpt lat="41.0914267" lon="14.316915"><ele>91.66666666666667</ele><time>2026-04-06T08:21:45.085Z</time></trkpt><trkpt lat="41.0913483" lon="14.316955"><ele>91.0</ele><time>2026-04-06T08:21:46.084Z</time></trkpt><trkpt lat="41.0912667" lon="14.316995"><ele>90.33333333333334</ele><time>2026-04-06T08:21:47.084Z</time></trkpt><trkpt lat="41.091185" lon="14.3170367"><ele>89.66666666666667</ele><time>2026-04-06T08:21:48.085Z</time></trkpt><trkpt lat="41.0911017" lon="14.3170783"><ele>89.0</ele><time>2026-04-06T08:21:49.084Z</time></trkpt><trkpt lat="41.0910117" lon="14.31712"><ele>89.0</ele><time>2026-04-06T08:21:50.085Z</time></trkpt><trkpt lat="41.0909217" lon="14.3171633"><ele>89.0</ele><time>2026-04-06T08:21:51.084Z</time></trkpt><trkpt lat="41.0908283" lon="14.3172083"><ele>89.0</ele><time>2026-04-06T08:21:52.084Z</time></trkpt><trkpt lat="41.0907367" lon="14.317255"><ele>89.0</ele><time>2026-04-06T08:21:53.084Z</time></trkpt><trkpt lat="41.090645" lon="14.3173067"><ele>89.0</ele><time>2026-04-06T08:21:54.084Z</time></trkpt><trkpt lat="41.0905567" lon="14.3173633"><ele>88.0</ele><time>2026-04-06T08:21:55.084Z</time></trkpt><trkpt lat="41.0904733" lon="14.3174233"><ele>87.0</ele><time>2026-04-06T08:21:56.084Z</time></trkpt><trkpt lat="41.09039" lon="14.31749"><ele>86.0</ele><time>2026-04-06T08:21:57.084Z</time></trkpt><trkpt lat="41.0903133" lon="14.3175583"><ele>85.0</ele><time>2026-04-06T08:21:58.084Z</time></trkpt><trkpt lat="41.0902383" lon="14.3176267"><ele>84.0</ele><time>2026-04-06T08:21:59.085Z</time></trkpt><trkpt lat="41.0901633" lon="14.317695"><ele>84.0</ele><time>2026-04-06T08:22:00.085Z</time></trkpt><trkpt lat="41.0900867" lon="14.3177617"><ele>84.0</ele><time>2026-04-06T08:22:01.086Z</time></trkpt><trkpt lat="41.09001" lon="14.3178267"><ele>84.0</ele><time>2026-04-06T08:22:02.084Z</time></trkpt><trkpt lat="41.0899317" lon="14.3178917"><ele>84.0</ele><time>2026-04-06T08:22:03.085Z</time></trkpt><trkpt lat="41.0898533" lon="14.3179583"><ele>84.0</ele><time>2026-04-06T08:22:04.084Z</time></trkpt><trkpt lat="41.0897717" lon="14.3180233"><ele>83.0</ele><time>2026-04-06T08:22:05.084Z</time></trkpt><trkpt lat="41.0896883" lon="14.3180933"><ele>82.0</ele><time>2026-04-06T08:22:06.084Z</time></trkpt><trkpt lat="41.089605" lon="14.318165"><ele>81.0</ele><time>2026-04-06T08:22:07.084Z</time></trkpt><trkpt lat="41.08952" lon="14.3182367"><ele>80.0</ele><time>2026-04-06T08:22:08.084Z</time></trkpt><trkpt lat="41.0894333" lon="14.318305"><ele>79.0</ele><time>2026-04-06T08:22:09.084Z</time></trkpt><trkpt lat="41.08934" lon="14.31836"><ele>79.0</ele><time>2026-04-06T08:22:10.083Z</time></trkpt><trkpt lat="41.08924" lon="14.3184017"><ele>79.0</ele><time>2026-04-06T08:22:11.084Z</time></trkpt><trkpt lat="41.0891383" lon="14.3184333"><ele>79.0</ele><time>2026-04-06T08:22:12.087Z</time></trkpt><trkpt lat="41.089035" lon="14.3184583"><ele>79.0</ele><time>2026-04-06T08:22:13.084Z</time></trkpt><trkpt lat="41.0889317" lon="14.3184767"><ele>79.0</ele><time>2026-04-06T08:22:14.085Z</time></trkpt><trkpt lat="41.08883" lon="14.3184883"><ele>78.83333333333333</ele><time>2026-04-06T08:22:15.084Z</time></trkpt><trkpt lat="41.0887367" lon="14.318495"><ele>78.66666666666666</ele><time>2026-04-06T08:22:16.086Z</time></trkpt><trkpt lat="41.088645" lon="14.3185017"><ele>78.5</ele><time>2026-04-06T08:22:17.083Z</time></trkpt><trkpt lat="41.0885567" lon="14.3185117"><ele>78.33333333333333</ele><time>2026-04-06T08:22:18.084Z</time></trkpt><trkpt lat="41.0884683" lon="14.318525"><ele>78.16666666666667</ele><time>2026-04-06T08:22:19.084Z</time></trkpt><trkpt lat="41.0883833" lon="14.318535"><ele>78.0</ele><time>2026-04-06T08:22:20.084Z</time></trkpt><trkpt lat="41.0882983" lon="14.3185483"><ele>77.5</ele><time>2026-04-06T08:22:21.084Z</time></trkpt><trkpt lat="41.0882133" lon="14.3185667"><ele>77.0</ele><time>2026-04-06T08:22:22.084Z</time></trkpt><trkpt lat="41.0881317" lon="14.318585"><ele>76.5</ele><time>2026-04-06T08:22:23.085Z</time></trkpt><trkpt lat="41.08805" lon="14.3186033"><ele>76.0</ele><time>2026-04-06T08:22:24.085Z</time></trkpt><trkpt lat="41.0879683" lon="14.3186233"><ele>75.5</ele><time>2026-04-06T08:22:25.085Z</time></trkpt><trkpt lat="41.0878833" lon="14.3186383"><ele>75.0</ele><time>2026-04-06T08:22:26.084Z</time></trkpt><trkpt lat="41.0877967" lon="14.3186517"><ele>75.0</ele><time>2026-04-06T08:22:27.085Z</time></trkpt><trkpt lat="41.087705" lon="14.3186683"><ele>75.0</ele><time>2026-04-06T08:22:28.087Z</time></trkpt><trkpt lat="41.0876067" lon="14.318675"><ele>75.0</ele><time>2026-04-06T08:22:29.084Z</time></trkpt><trkpt lat="41.087505" lon="14.318685"><ele>75.0</ele><time>2026-04-06T08:22:30.084Z</time></trkpt><trkpt lat="41.0874" lon="14.318705"><ele>75.0</ele><time>2026-04-06T08:22:31.084Z</time></trkpt><trkpt lat="41.0872933" lon="14.318735"><ele>74.25</ele><time>2026-04-06T08:22:32.087Z</time></trkpt><trkpt lat="41.087185" lon="14.3187683"><ele>73.5</ele><time>2026-04-06T08:22:33.085Z</time></trkpt><trkpt lat="41.087075" lon="14.318795"><ele>72.75</ele><time>2026-04-06T08:22:34.084Z</time></trkpt><trkpt lat="41.086965" lon="14.3188217"><ele>72.0</ele><time>2026-04-06T08:22:35.084Z</time></trkpt><trkpt lat="41.08685" lon="14.3188583"><ele>72.0</ele><time>2026-04-06T08:22:36.087Z</time></trkpt><trkpt lat="41.0867367" lon="14.3188983"><ele>72.0</ele><time>2026-04-06T08:22:37.084Z</time></trkpt><trkpt lat="41.086625" lon="14.318945"><ele>72.0</ele><time>2026-04-06T08:22:38.085Z</time></trkpt><trkpt lat="41.0865117" lon="14.318995"><ele>72.0</ele><time>2026-04-06T08:22:39.084Z</time></trkpt><trkpt lat="41.0864017" lon="14.3190517"><ele>71.75</ele><time>2026-04-06T08:22:40.084Z</time></trkpt><trkpt lat="41.08629" lon="14.3191067"><ele>71.5</ele><time>2026-04-06T08:22:41.084Z</time></trkpt><trkpt lat="41.0861767" lon="14.31916"><ele>71.25</ele><time>2026-04-06T08:22:42.084Z</time></trkpt><trkpt lat="41.086065" lon="14.319215"><ele>71.0</ele><time>2026-04-06T08:22:43.084Z</time></trkpt><trkpt lat="41.08595" lon="14.3192633"><ele>71.0</ele><time>2026-04-06T08:22:44.085Z</time></trkpt><trkpt lat="41.0858417" lon="14.3193133"><ele>71.0</ele><time>2026-04-06T08:22:45.085Z</time></trkpt><trkpt lat="41.08574" lon="14.3193767"><ele>71.0</ele><time>2026-04-06T08:22:46.084Z</time></trkpt><trkpt lat="41.0856383" lon="14.3194433"><ele>71.0</ele><time>2026-04-06T08:22:47.085Z</time></trkpt><trkpt lat="41.08554" lon="14.3195117"><ele>71.0</ele><time>2026-04-06T08:22:48.084Z</time></trkpt><trkpt lat="41.085445" lon="14.3195817"><ele>71.0</ele><time>2026-04-06T08:22:49.085Z</time></trkpt><trkpt lat="41.0853483" lon="14.3196517"><ele>71.0</ele><time>2026-04-06T08:22:50.085Z</time></trkpt><trkpt lat="41.0852517" lon="14.3197183"><ele>71.0</ele><time>2026-04-06T08:22:51.087Z</time></trkpt><trkpt lat="41.0851517" lon="14.31977"><ele>71.0</ele><time>2026-04-06T08:22:52.085Z</time></trkpt><trkpt lat="41.0850483" lon="14.3198"><ele>71.0</ele><time>2026-04-06T08:22:53.085Z</time></trkpt><trkpt lat="41.0849433" lon="14.3198183"><ele>71.0</ele><time>2026-04-06T08:22:54.084Z</time></trkpt><trkpt lat="41.08484" lon="14.3198183"><ele>71.0</ele><time>2026-04-06T08:22:55.084Z</time></trkpt><trkpt lat="41.0847417" lon="14.3197917"><ele>71.0</ele><time>2026-04-06T08:22:56.085Z</time></trkpt><trkpt lat="41.0846567" lon="14.31973"><ele>71.0</ele><time>2026-04-06T08:22:57.085Z</time></trkpt><trkpt lat="41.08459" lon="14.319635"><ele>70.8</ele><time>2026-04-06T08:22:58.084Z</time></trkpt><trkpt lat="41.0845383" lon="14.319525"><ele>70.6</ele><time>2026-04-06T08:22:59.084Z</time></trkpt><trkpt lat="41.0844767" lon="14.3194367"><ele>70.4</ele><time>2026-04-06T08:23:00.084Z</time></trkpt><trkpt lat="41.084405" lon="14.3193667"><ele>70.2</ele><time>2026-04-06T08:23:01.084Z</time></trkpt><trkpt lat="41.0843217" lon="14.3193317"><ele>70.0</ele><time>2026-04-06T08:23:02.083Z</time></trkpt><trkpt lat="41.0842283" lon="14.3193117"><ele>70.0</ele><time>2026-04-06T08:23:03.084Z</time></trkpt><trkpt lat="41.0841333" lon="14.3193017"><ele>70.0</ele><time>2026-04-06T08:23:04.087Z</time></trkpt><trkpt lat="41.084035" lon="14.3192933"><ele>70.0</ele><time>2026-04-06T08:23:05.084Z</time></trkpt><trkpt lat="41.083935" lon="14.319285"><ele>70.0</ele><time>2026-04-06T08:23:06.085Z</time></trkpt><trkpt lat="41.0838367" lon="14.3192817"><ele>70.0</ele><time>2026-04-06T08:23:07.085Z</time></trkpt><trkpt lat="41.08374" lon="14.3192733"><ele>69.8</ele><time>2026-04-06T08:23:08.087Z</time></trkpt><trkpt lat="41.0836433" lon="14.31926"><ele>69.6</ele><time>2026-04-06T08:23:09.084Z</time></trkpt><trkpt lat="41.0835467" lon="14.3192483"><ele>69.4</ele><time>2026-04-06T08:23:10.086Z</time></trkpt><trkpt lat="41.0834483" lon="14.3192383"><ele>69.2</ele><time>2026-04-06T08:23:11.084Z</time></trkpt><trkpt lat="41.0833567" lon="14.3192383"><ele>69.0</ele><time>2026-04-06T08:23:12.088Z</time></trkpt><trkpt lat="41.0832617" lon="14.3192333"><ele>68.60000000000001</ele><time>2026-04-06T08:23:13.084Z</time></trkpt><trkpt lat="41.0831717" lon="14.3192267"><ele>68.2</ele><time>2026-04-06T08:23:14.085Z</time></trkpt><trkpt lat="41.0830783" lon="14.319215"><ele>67.80000000000001</ele><time>2026-04-06T08:23:15.085Z</time></trkpt><trkpt lat="41.0829867" lon="14.3192033"><ele>67.4</ele><time>2026-04-06T08:23:16.084Z</time></trkpt><trkpt lat="41.082895" lon="14.3191967"><ele>67.0</ele><time>2026-04-06T08:23:17.085Z</time></trkpt><trkpt lat="41.0828033" lon="14.3191883"><ele>67.0</ele><time>2026-04-06T08:23:18.087Z</time></trkpt><trkpt lat="41.0827117" lon="14.319185"><ele>67.0</ele><time>2026-04-06T08:23:19.085Z</time></trkpt><trkpt lat="41.08262" lon="14.3191783"><ele>67.0</ele><time>2026-04-06T08:23:20.085Z</time></trkpt><trkpt lat="41.0825283" lon="14.3191667"><ele>67.0</ele><time>2026-04-06T08:23:21.087Z</time></trkpt><trkpt lat="41.08244" lon="14.31916"><ele>67.0</ele><time>2026-04-06T08:23:22.084Z</time></trkpt><trkpt lat="41.08235" lon="14.31916"><ele>66.83333333333333</ele><time>2026-04-06T08:23:23.085Z</time></trkpt><trkpt lat="41.08226" lon="14.3191617"><ele>66.66666666666666</ele><time>2026-04-06T08:23:24.084Z</time></trkpt><trkpt lat="41.08217" lon="14.3191533"><ele>66.5</ele><time>2026-04-06T08:23:25.084Z</time></trkpt><trkpt lat="41.0820817" lon="14.3191467"><ele>66.33333333333333</ele><time>2026-04-06T08:23:26.084Z</time></trkpt><trkpt lat="41.081995" lon="14.31914"><ele>66.16666666666667</ele><time>2026-04-06T08:23:27.086Z</time></trkpt><trkpt lat="41.08191" lon="14.3191267"><ele>66.0</ele><time>2026-04-06T08:23:28.084Z</time></trkpt><trkpt lat="41.0818283" lon="14.3190983"><ele>66.0</ele><time>2026-04-06T08:23:29.084Z</time></trkpt><trkpt lat="41.0817533" lon="14.3190633"><ele>66.0</ele><time>2026-04-06T08:23:30.084Z</time></trkpt><trkpt lat="41.0816917" lon="14.3190317"><ele>66.0</ele><time>2026-04-06T08:23:31.085Z</time></trkpt><trkpt lat="41.0815917" lon="14.318985"><ele>66.0</ele><time>2026-04-06T08:23:33.085Z</time></trkpt><trkpt lat="41.081535" lon="14.3189017"><ele>66.0</ele><time>2026-04-06T08:23:35.086Z</time></trkpt><trkpt lat="41.081535" lon="14.3187733"><ele>66.0</ele><time>2026-04-06T08:23:37.086Z</time></trkpt><trkpt lat="41.0815433" lon="14.3186183"><ele>65.6</ele><time>2026-04-06T08:23:39.084Z</time></trkpt><trkpt lat="41.0815583" lon="14.3184617"><ele>65.19999999999999</ele><time>2026-04-06T08:23:41.084Z</time></trkpt><trkpt lat="41.081555" lon="14.31832"><ele>64.80000000000001</ele><time>2026-04-06T08:23:43.084Z</time></trkpt><trkpt lat="41.0814967" lon="14.31821"><ele>64.4</ele><time>2026-04-06T08:23:45.086Z</time></trkpt><trkpt lat="41.0813833" lon="14.3181517"><ele>64.0</ele><time>2026-04-06T08:23:47.084Z</time></trkpt><trkpt lat="41.08132" lon="14.31813"><ele>63.99999999999999</ele><time>2026-04-06T08:23:48.085Z</time></trkpt><trkpt lat="41.0812467" lon="14.31812"><ele>64.0</ele><time>2026-04-06T08:23:49.087Z</time></trkpt><trkpt lat="41.0811683" lon="14.318115"><ele>64.0</ele><time>2026-04-06T08:23:50.084Z</time></trkpt><trkpt lat="41.0810867" lon="14.3181167"><ele>64.0</ele><time>2026-04-06T08:23:51.084Z</time></trkpt><trkpt lat="41.081005" lon="14.318115"><ele>63.99999999999999</ele><time>2026-04-06T08:23:52.084Z</time></trkpt><trkpt lat="41.0809167" lon="14.31811"><ele>64.0</ele><time>2026-04-06T08:23:53.087Z</time></trkpt><trkpt lat="41.0808283" lon="14.318105"><ele>63.800000000000004</ele><time>2026-04-06T08:23:54.085Z</time></trkpt><trkpt lat="41.0807417" lon="14.318105"><ele>63.60000000000001</ele><time>2026-04-06T08:23:55.086Z</time></trkpt><trkpt lat="41.0806533" lon="14.3181067"><ele>63.4</ele><time>2026-04-06T08:23:56.087Z</time></trkpt><trkpt lat="41.08056" lon="14.318115"><ele>63.2</ele><time>2026-04-06T08:23:57.084Z</time></trkpt><trkpt lat="41.0804667" lon="14.318115"><ele>63.0</ele><time>2026-04-06T08:23:58.084Z</time></trkpt><trkpt lat="41.0803733" lon="14.3181133"><ele>63.0</ele><time>2026-04-06T08:23:59.084Z</time></trkpt><trkpt lat="41.0802817" lon="14.3181083"><ele>63.0</ele><time>2026-04-06T08:24:00.084Z</time></trkpt><trkpt lat="41.080195" lon="14.318105"><ele>63.0</ele><time>2026-04-06T08:24:01.085Z</time></trkpt><trkpt lat="41.0801083" lon="14.318095"><ele>63.0</ele><time>2026-04-06T08:24:02.084Z</time></trkpt><trkpt lat="41.08002" lon="14.3180883"><ele>63.0</ele><time>2026-04-06T08:24:03.084Z</time></trkpt><trkpt lat="41.0799333" lon="14.318085"><ele>63.0</ele><time>2026-04-06T08:24:04.084Z</time></trkpt><trkpt lat="41.0798517" lon="14.31808"><ele>62.666666666666664</ele><time>2026-04-06T08:24:05.086Z</time></trkpt><trkpt lat="41.07977" lon="14.3180767"><ele>62.33333333333333</ele><time>2026-04-06T08:24:06.084Z</time></trkpt><trkpt lat="41.0796883" lon="14.318075"><ele>62.0</ele><time>2026-04-06T08:24:07.084Z</time></trkpt><trkpt lat="41.079605" lon="14.3180717"><ele>61.666666666666664</ele><time>2026-04-06T08:24:08.084Z</time></trkpt><trkpt lat="41.0795217" lon="14.3180667"><ele>61.33333333333333</ele><time>2026-04-06T08:24:09.085Z</time></trkpt><trkpt lat="41.0794383" lon="14.3180617"><ele>61.0</ele><time>2026-04-06T08:24:10.085Z</time></trkpt><trkpt lat="41.0793567" lon="14.318055"><ele>60.99999999999999</ele><time>2026-04-06T08:24:11.084Z</time></trkpt><trkpt lat="41.079275" lon="14.3180517"><ele>61.0</ele><time>2026-04-06T08:24:12.084Z</time></trkpt><trkpt lat="41.07919" lon="14.3180483"><ele>61.0</ele><time>2026-04-06T08:24:13.084Z</time></trkpt><trkpt lat="41.079105" lon="14.3180483"><ele>61.0</ele><time>2026-04-06T08:24:14.085Z</time></trkpt><trkpt lat="41.0790217" lon="14.3180483"><ele>60.99999999999999</ele><time>2026-04-06T08:24:15.084Z</time></trkpt><trkpt lat="41.07894" lon="14.3180483"><ele>61.0</ele><time>2026-04-06T08:24:16.083Z</time></trkpt><trkpt lat="41.0788583" lon="14.3180483"><ele>61.33333333333333</ele><time>2026-04-06T08:24:17.084Z</time></trkpt><trkpt lat="41.0787783" lon="14.31805"><ele>61.666666666666664</ele><time>2026-04-06T08:24:18.085Z</time></trkpt><trkpt lat="41.0787" lon="14.3180533"><ele>62.0</ele><time>2026-04-06T08:24:19.086Z</time></trkpt><trkpt lat="41.0786283" lon="14.3180533"><ele>62.33333333333333</ele><time>2026-04-06T08:24:20.084Z</time></trkpt><trkpt lat="41.0785633" lon="14.318055"><ele>62.666666666666664</ele><time>2026-04-06T08:24:21.085Z</time></trkpt><trkpt lat="41.0784783" lon="14.3180167"><ele>63.0</ele><time>2026-04-06T08:24:23.084Z</time></trkpt><trkpt lat="41.0784467" lon="14.3179"><ele>63.0</ele><time>2026-04-06T08:24:25.084Z</time></trkpt><trkpt lat="41.0784567" lon="14.3178117"><ele>63.0</ele><time>2026-04-06T08:24:26.085Z</time></trkpt><trkpt lat="41.0784833" lon="14.317705"><ele>63.0</ele><time>2026-04-06T08:24:27.085Z</time></trkpt><trkpt lat="41.0785017" lon="14.3175967"><ele>63.0</ele><time>2026-04-06T08:24:28.084Z</time></trkpt><trkpt lat="41.0785067" lon="14.3174983"><ele>63.0</ele><time>2026-04-06T08:24:29.084Z</time></trkpt><trkpt lat="41.078505" lon="14.3173983"><ele>63.0</ele><time>2026-04-06T08:24:30.085Z</time></trkpt><trkpt lat="41.0785033" lon="14.3173"><ele>63.0</ele><time>2026-04-06T08:24:31.086Z</time></trkpt><trkpt lat="41.078495" lon="14.3172067"><ele>63.0</ele><time>2026-04-06T08:24:32.086Z</time></trkpt><trkpt lat="41.0784383" lon="14.3170717"><ele>63.0</ele><time>2026-04-06T08:24:34.085Z</time></trkpt><trkpt lat="41.0783433" lon="14.3169983"><ele>63.0</ele><time>2026-04-06T08:24:36.086Z</time></trkpt><trkpt lat="41.0782517" lon="14.3170183"><ele>63.0</ele><time>2026-04-06T08:24:37.084Z</time></trkpt><trkpt lat="41.0781317" lon="14.317055"><ele>63.166666666666664</ele><time>2026-04-06T08:24:38.086Z</time></trkpt><trkpt lat="41.078045" lon="14.3170567"><ele>63.33333333333333</ele><time>2026-04-06T08:24:39.085Z</time></trkpt><trkpt lat="41.0779583" lon="14.3170617"><ele>63.5</ele><time>2026-04-06T08:24:40.087Z</time></trkpt><trkpt lat="41.0778717" lon="14.31706"><ele>63.666666666666664</ele><time>2026-04-06T08:24:41.086Z</time></trkpt><trkpt lat="41.07779" lon="14.3170633"><ele>63.83333333333333</ele><time>2026-04-06T08:24:42.086Z</time></trkpt><trkpt lat="41.0776967" lon="14.3170767"><ele>64.0</ele><time>2026-04-06T08:24:43.085Z</time></trkpt><trkpt lat="41.0776167" lon="14.31708"><ele>63.99999999999999</ele><time>2026-04-06T08:24:44.085Z</time></trkpt><trkpt lat="41.0775333" lon="14.31708"><ele>64.0</ele><time>2026-04-06T08:24:45.085Z</time></trkpt><trkpt lat="41.0774517" lon="14.3170783"><ele>64.0</ele><time>2026-04-06T08:24:46.084Z</time></trkpt><trkpt lat="41.077375" lon="14.3170817"><ele>64.0</ele><time>2026-04-06T08:24:47.084Z</time></trkpt><trkpt lat="41.0772967" lon="14.3170833"><ele>63.99999999999999</ele><time>2026-04-06T08:24:48.086Z</time></trkpt><trkpt lat="41.0772183" lon="14.3170817"><ele>64.0</ele><time>2026-04-06T08:24:49.084Z</time></trkpt><trkpt lat="41.077135" lon="14.3170817"><ele>63.83333333333333</ele><time>2026-04-06T08:24:50.085Z</time></trkpt><trkpt lat="41.0770567" lon="14.3170817"><ele>63.666666666666664</ele><time>2026-04-06T08:24:51.085Z</time></trkpt><trkpt lat="41.0769717" lon="14.31709"><ele>63.5</ele><time>2026-04-06T08:24:52.087Z</time></trkpt><trkpt lat="41.07689" lon="14.317095"><ele>63.33333333333333</ele><time>2026-04-06T08:24:53.085Z</time></trkpt><trkpt lat="41.07681" lon="14.3170967"><ele>63.166666666666664</ele><time>2026-04-06T08:24:54.085Z</time></trkpt><trkpt lat="41.076725" lon="14.3171067"><ele>63.0</ele><time>2026-04-06T08:24:55.084Z</time></trkpt><trkpt lat="41.0766483" lon="14.3171083"><ele>62.833333333333336</ele><time>2026-04-06T08:24:56.085Z</time></trkpt><trkpt lat="41.0765683" lon="14.3171167"><ele>62.66666666666667</ele><time>2026-04-06T08:24:57.085Z</time></trkpt><trkpt lat="41.07649" lon="14.3171233"><ele>62.5</ele><time>2026-04-06T08:24:58.084Z</time></trkpt><trkpt lat="41.0764083" lon="14.3171317"><ele>62.333333333333336</ele><time>2026-04-06T08:24:59.086Z</time></trkpt><trkpt lat="41.07633" lon="14.3171417"><ele>62.16666666666667</ele><time>2026-04-06T08:25:00.085Z</time></trkpt><trkpt lat="41.0762517" lon="14.3171417"><ele>62.0</ele><time>2026-04-06T08:25:01.085Z</time></trkpt><trkpt lat="41.076175" lon="14.3171383"><ele>62.0</ele><time>2026-04-06T08:25:02.085Z</time></trkpt><trkpt lat="41.0760967" lon="14.317135"><ele>62.00000000000001</ele><time>2026-04-06T08:25:03.085Z</time></trkpt><trkpt lat="41.0760183" lon="14.31714"><ele>62.0</ele><time>2026-04-06T08:25:04.084Z</time></trkpt><trkpt lat="41.075945" lon="14.3171383"><ele>62.0</ele><time>2026-04-06T08:25:05.084Z</time></trkpt><trkpt lat="41.0758733" lon="14.3171433"><ele>62.00000000000001</ele><time>2026-04-06T08:25:06.084Z</time></trkpt><trkpt lat="41.0758033" lon="14.3171417"><ele>62.0</ele><time>2026-04-06T08:25:07.085Z</time></trkpt><trkpt lat="41.075735" lon="14.3171383"><ele>62.0</ele><time>2026-04-06T08:25:08.085Z</time></trkpt><trkpt lat="41.0756633" lon="14.3171433"><ele>62.00000000000001</ele><time>2026-04-06T08:25:09.085Z</time></trkpt><trkpt lat="41.07559" lon="14.31715"><ele>62.0</ele><time>2026-04-06T08:25:10.088Z</time></trkpt><trkpt lat="41.0755183" lon="14.3171567"><ele>62.0</ele><time>2026-04-06T08:25:11.085Z</time></trkpt><trkpt lat="41.0754533" lon="14.3171617"><ele>62.0</ele><time>2026-04-06T08:25:12.088Z</time></trkpt><trkpt lat="41.0753567" lon="14.3170983"><ele>62.00000000000001</ele><time>2026-04-06T08:25:14.086Z</time></trkpt><trkpt lat="41.0753383" lon="14.31694"><ele>62.0</ele><time>2026-04-06T08:25:16.085Z</time></trkpt><trkpt lat="41.0753433" lon="14.3167733"><ele>62.00000000000001</ele><time>2026-04-06T08:25:18.086Z</time></trkpt><trkpt lat="41.07536" lon="14.316615"><ele>62.0</ele><time>2026-04-06T08:25:20.088Z</time></trkpt><trkpt lat="41.0753633" lon="14.31653"><ele>62.0</ele><time>2026-04-06T08:25:21.085Z</time></trkpt><trkpt lat="41.0753683" lon="14.3164433"><ele>62.0</ele><time>2026-04-06T08:25:22.088Z</time></trkpt><trkpt lat="41.0753583" lon="14.3163017"><ele>62.00000000000001</ele><time>2026-04-06T08:25:24.085Z</time></trkpt><trkpt lat="41.0753" lon="14.3162367"><ele>62.0</ele><time>2026-04-06T08:25:26.089Z</time></trkpt><trkpt lat="41.07522" lon="14.3162267"><ele>62.0</ele><time>2026-04-06T08:25:28.085Z</time></trkpt><trkpt lat="41.075135" lon="14.3162183"><ele>62.0</ele><time>2026-04-06T08:25:30.087Z</time></trkpt><trkpt lat="41.07504" lon="14.31621"><ele>62.0</ele><time>2026-04-06T08:25:32.085Z</time></trkpt><trkpt lat="41.0749367" lon="14.3161967"><ele>62.0</ele><time>2026-04-06T08:25:34.085Z</time></trkpt><trkpt lat="41.074825" lon="14.3161917"><ele>62.0</ele><time>2026-04-06T08:25:36.085Z</time></trkpt><trkpt lat="41.0747617" lon="14.316185"><ele>61.85714285714286</ele><time>2026-04-06T08:25:37.085Z</time></trkpt><trkpt lat="41.0746967" lon="14.316175"><ele>61.71428571428572</ele><time>2026-04-06T08:25:38.086Z</time></trkpt><trkpt lat="41.0746283" lon="14.316165"><ele>61.57142857142857</ele><time>2026-04-06T08:25:39.084Z</time></trkpt><trkpt lat="41.0745583" lon="14.31616"><ele>61.42857142857143</ele><time>2026-04-06T08:25:40.088Z</time></trkpt><trkpt lat="41.0744883" lon="14.3161567"><ele>61.285714285714285</ele><time>2026-04-06T08:25:41.085Z</time></trkpt><trkpt lat="41.0744217" lon="14.3161533"><ele>61.14285714285714</ele><time>2026-04-06T08:25:42.085Z</time></trkpt><trkpt lat="41.07435" lon="14.316155"><ele>60.99999999999999</ele><time>2026-04-06T08:25:43.087Z</time></trkpt><trkpt lat="41.0742783" lon="14.3161567"><ele>60.99999999999999</ele><time>2026-04-06T08:25:44.084Z</time></trkpt><trkpt lat="41.0742033" lon="14.3161533"><ele>61.0</ele><time>2026-04-06T08:25:45.085Z</time></trkpt><trkpt lat="41.0741333" lon="14.3161483"><ele>60.99999999999999</ele><time>2026-04-06T08:25:46.084Z</time></trkpt><trkpt lat="41.0740617" lon="14.3161467"><ele>60.99999999999999</ele><time>2026-04-06T08:25:47.085Z</time></trkpt><trkpt lat="41.0739933" lon="14.31615"><ele>61.0</ele><time>2026-04-06T08:25:48.086Z</time></trkpt><trkpt lat="41.0739233" lon="14.31615"><ele>60.99999999999999</ele><time>2026-04-06T08:25:49.085Z</time></trkpt><trkpt lat="41.0738533" lon="14.31615"><ele>60.99999999999999</ele><time>2026-04-06T08:25:50.087Z</time></trkpt><trkpt lat="41.0737867" lon="14.31615"><ele>61.14285714285714</ele><time>2026-04-06T08:25:51.084Z</time></trkpt><trkpt lat="41.0737183" lon="14.316155"><ele>61.285714285714285</ele><time>2026-04-06T08:25:52.084Z</time></trkpt><trkpt lat="41.07365" lon="14.31616"><ele>61.42857142857143</ele><time>2026-04-06T08:25:53.084Z</time></trkpt><trkpt lat="41.07358" lon="14.3161617"><ele>61.57142857142857</ele><time>2026-04-06T08:25:54.085Z</time></trkpt><trkpt lat="41.07351" lon="14.3161567"><ele>61.71428571428572</ele><time>2026-04-06T08:25:55.085Z</time></trkpt><trkpt lat="41.0734383" lon="14.3161567"><ele>61.85714285714286</ele><time>2026-04-06T08:25:56.084Z</time></trkpt><trkpt lat="41.073365" lon="14.3161517"><ele>62.0</ele><time>2026-04-06T08:25:57.084Z</time></trkpt><trkpt lat="41.0732933" lon="14.3161517"><ele>62.142857142857146</ele><time>2026-04-06T08:25:58.084Z</time></trkpt><trkpt lat="41.073225" lon="14.3161583"><ele>62.28571428571429</ele><time>2026-04-06T08:25:59.088Z</time></trkpt><trkpt lat="41.0731567" lon="14.3161633"><ele>62.42857142857143</ele><time>2026-04-06T08:26:00.085Z</time></trkpt><trkpt lat="41.0730883" lon="14.3161767"><ele>62.57142857142857</ele><time>2026-04-06T08:26:01.085Z</time></trkpt><trkpt lat="41.073025" lon="14.3161917"><ele>62.714285714285715</ele><time>2026-04-06T08:26:02.086Z</time></trkpt><trkpt lat="41.07296" lon="14.3161967"><ele>62.85714285714286</ele><time>2026-04-06T08:26:03.086Z</time></trkpt><trkpt lat="41.0728533" lon="14.3162083"><ele>63.0</ele><time>2026-04-06T08:26:05.085Z</time></trkpt><trkpt lat="41.0727733" lon="14.3162083"><ele>63.0</ele><time>2026-04-06T08:26:07.084Z</time></trkpt><trkpt lat="41.072725" lon="14.3162783"><ele>63.0</ele><time>2026-04-06T08:26:09.084Z</time></trkpt><trkpt lat="41.072715" lon="14.31639"><ele>63.0</ele><time>2026-04-06T08:26:11.083Z</time></trkpt><trkpt lat="41.072695" lon="14.3165233"><ele>63.0</ele><time>2026-04-06T08:26:13.084Z</time></trkpt><trkpt lat="41.07268" lon="14.31667"><ele>63.0</ele><time>2026-04-06T08:26:15.084Z</time></trkpt><trkpt lat="41.072665" lon="14.3168283"><ele>63.0</ele><time>2026-04-06T08:26:17.083Z</time></trkpt><trkpt lat="41.07266" lon="14.316915"><ele>63.0</ele><time>2026-04-06T08:26:18.084Z</time></trkpt><trkpt lat="41.0726517" lon="14.3170067"><ele>63.0</ele><time>2026-04-06T08:26:19.084Z</time></trkpt><trkpt lat="41.07264" lon="14.3170967"><ele>63.0</ele><time>2026-04-06T08:26:20.086Z</time></trkpt><trkpt lat="41.0726267" lon="14.31719"><ele>63.0</ele><time>2026-04-06T08:26:21.084Z</time></trkpt><trkpt lat="41.07262" lon="14.317275"><ele>63.0</ele><time>2026-04-06T08:26:22.084Z</time></trkpt><trkpt lat="41.0726167" lon="14.3173667"><ele>63.0</ele><time>2026-04-06T08:26:23.084Z</time></trkpt><trkpt lat="41.0726133" lon="14.3174583"><ele>62.85714285714286</ele><time>2026-04-06T08:26:24.084Z</time></trkpt><trkpt lat="41.07261" lon="14.3175533"><ele>62.714285714285715</ele><time>2026-04-06T08:26:25.084Z</time></trkpt><trkpt lat="41.0726033" lon="14.31765"><ele>62.57142857142857</ele><time>2026-04-06T08:26:26.084Z</time></trkpt><trkpt lat="41.0725983" lon="14.3177433"><ele>62.42857142857143</ele><time>2026-04-06T08:26:27.083Z</time></trkpt><trkpt lat="41.07259" lon="14.3178383"><ele>62.28571428571429</ele><time>2026-04-06T08:26:28.084Z</time></trkpt><trkpt lat="41.0725833" lon="14.3179317"><ele>62.142857142857146</ele><time>2026-04-06T08:26:29.084Z</time></trkpt><trkpt lat="41.0725833" lon="14.3180233"><ele>62.0</ele><time>2026-04-06T08:26:30.084Z</time></trkpt><trkpt lat="41.0725833" lon="14.3181133"><ele>62.0</ele><time>2026-04-06T08:26:31.083Z</time></trkpt><trkpt lat="41.0725867" lon="14.318205"><ele>62.00000000000001</ele><time>2026-04-06T08:26:32.084Z</time></trkpt><trkpt lat="41.0725883" lon="14.3182967"><ele>62.0</ele><time>2026-04-06T08:26:33.083Z</time></trkpt><trkpt lat="41.0725867" lon="14.3183883"><ele>62.0</ele><time>2026-04-06T08:26:34.084Z</time></trkpt><trkpt lat="41.0725833" lon="14.3184817"><ele>62.00000000000001</ele><time>2026-04-06T08:26:35.083Z</time></trkpt><trkpt lat="41.0725783" lon="14.3185733"><ele>62.0</ele><time>2026-04-06T08:26:36.084Z</time></trkpt><trkpt lat="41.0725733" lon="14.3186667"><ele>62.0</ele><time>2026-04-06T08:26:37.087Z</time></trkpt><trkpt lat="41.0725683" lon="14.3187583"><ele>62.0</ele><time>2026-04-06T08:26:38.085Z</time></trkpt><trkpt lat="41.072565" lon="14.3188467"><ele>62.00000000000001</ele><time>2026-04-06T08:26:39.083Z</time></trkpt><trkpt lat="41.07256" lon="14.3189383"><ele>62.0</ele><time>2026-04-06T08:26:40.087Z</time></trkpt><trkpt lat="41.0725533" lon="14.3190317"><ele>62.0</ele><time>2026-04-06T08:26:41.086Z</time></trkpt><trkpt lat="41.07255" lon="14.3191233"><ele>62.00000000000001</ele><time>2026-04-06T08:26:42.086Z</time></trkpt><trkpt lat="41.0725483" lon="14.319215"><ele>62.0</ele><time>2026-04-06T08:26:43.088Z</time></trkpt><trkpt lat="41.0725483" lon="14.319305"><ele>62.0</ele><time>2026-04-06T08:26:44.084Z</time></trkpt><trkpt lat="41.07255" lon="14.3193967"><ele>62.28571428571429</ele><time>2026-04-06T08:26:45.085Z</time></trkpt><trkpt lat="41.0725483" lon="14.3194883"><ele>62.57142857142858</ele><time>2026-04-06T08:26:46.084Z</time></trkpt><trkpt lat="41.0725433" lon="14.3195833"><ele>62.85714285714286</ele><time>2026-04-06T08:26:47.084Z</time></trkpt><trkpt lat="41.0725383" lon="14.3196733"><ele>63.14285714285714</ele><time>2026-04-06T08:26:48.084Z</time></trkpt><trkpt lat="41.0725333" lon="14.3197567"><ele>63.42857142857142</ele><time>2026-04-06T08:26:49.084Z</time></trkpt><trkpt lat="41.0725283" lon="14.31984"><ele>63.71428571428571</ele><time>2026-04-06T08:26:50.084Z</time></trkpt><trkpt lat="41.0725183" lon="14.31993"><ele>64.0</ele><time>2026-04-06T08:26:51.083Z</time></trkpt><trkpt lat="41.0725067" lon="14.3200933"><ele>64.0</ele><time>2026-04-06T08:26:53.084Z</time></trkpt><trkpt lat="41.0725033" lon="14.3201783"><ele>63.99999999999999</ele><time>2026-04-06T08:26:54.084Z</time></trkpt><trkpt lat="41.0724967" lon="14.3202667"><ele>64.0</ele><time>2026-04-06T08:26:55.083Z</time></trkpt><trkpt lat="41.0724917" lon="14.32035"><ele>64.0</ele><time>2026-04-06T08:26:56.084Z</time></trkpt><trkpt lat="41.0724883" lon="14.3204383"><ele>63.99999999999999</ele><time>2026-04-06T08:26:57.084Z</time></trkpt><trkpt lat="41.072485" lon="14.3205233"><ele>64.0</ele><time>2026-04-06T08:26:58.084Z</time></trkpt><trkpt lat="41.0724783" lon="14.3206067"><ele>64.0</ele><time>2026-04-06T08:26:59.084Z</time></trkpt><trkpt lat="41.0724717" lon="14.32077"><ele>63.99999999999999</ele><time>2026-04-06T08:27:01.084Z</time></trkpt><trkpt lat="41.0724733" lon="14.3209317"><ele>64.0</ele><time>2026-04-06T08:27:03.083Z</time></trkpt><trkpt lat="41.0724717" lon="14.3210167"><ele>64.0</ele><time>2026-04-06T08:27:04.083Z</time></trkpt><trkpt lat="41.0724683" lon="14.3211033"><ele>64.0</ele><time>2026-04-06T08:27:05.083Z</time></trkpt><trkpt lat="41.0724633" lon="14.3211917"><ele>63.99999999999999</ele><time>2026-04-06T08:27:06.084Z</time></trkpt><trkpt lat="41.07246" lon="14.3212767"><ele>64.0</ele><time>2026-04-06T08:27:07.083Z</time></trkpt><trkpt lat="41.0724533" lon="14.321445"><ele>64.0</ele><time>2026-04-06T08:27:09.084Z</time></trkpt><trkpt lat="41.0724483" lon="14.3215317"><ele>64.0</ele><time>2026-04-06T08:27:10.083Z</time></trkpt><trkpt lat="41.07244" lon="14.321685"><ele>64.0</ele><time>2026-04-06T08:27:12.084Z</time></trkpt><trkpt lat="41.0724283" lon="14.32184"><ele>64.0</ele><time>2026-04-06T08:27:14.084Z</time></trkpt><trkpt lat="41.0724233" lon="14.321925"><ele>64.0</ele><time>2026-04-06T08:27:15.083Z</time></trkpt><trkpt lat="41.0724217" lon="14.32209"><ele>64.2</ele><time>2026-04-06T08:27:17.084Z</time></trkpt><trkpt lat="41.0724167" lon="14.3222417"><ele>64.4</ele><time>2026-04-06T08:27:19.083Z</time></trkpt><trkpt lat="41.0724067" lon="14.3223683"><ele>64.6</ele><time>2026-04-06T08:27:21.084Z</time></trkpt><trkpt lat="41.0723817" lon="14.322505"><ele>64.8</ele><time>2026-04-06T08:27:23.084Z</time></trkpt><trkpt lat="41.0723167" lon="14.3225883"><ele>65.0</ele><time>2026-04-06T08:27:25.085Z</time></trkpt><trkpt lat="41.0722133" lon="14.3226017"><ele>65.0</ele><time>2026-04-06T08:27:27.083Z</time></trkpt><trkpt lat="41.072095" lon="14.3225817"><ele>65.0</ele><time>2026-04-06T08:27:29.084Z</time></trkpt><trkpt lat="41.07197" lon="14.3225583"><ele>65.0</ele><time>2026-04-06T08:27:31.083Z</time></trkpt><trkpt lat="41.0719017" lon="14.3225533"><ele>65.0</ele><time>2026-04-06T08:27:32.084Z</time></trkpt><trkpt lat="41.0718283" lon="14.3225567"><ele>65.0</ele><time>2026-04-06T08:27:33.085Z</time></trkpt><trkpt lat="41.0717533" lon="14.3225533"><ele>65.00000000000001</ele><time>2026-04-06T08:27:34.084Z</time></trkpt><trkpt lat="41.0716783" lon="14.3225467"><ele>65.0</ele><time>2026-04-06T08:27:35.087Z</time></trkpt><trkpt lat="41.071605" lon="14.32254"><ele>65.0</ele><time>2026-04-06T08:27:36.085Z</time></trkpt><trkpt lat="41.0715333" lon="14.3225333"><ele>65.0</ele><time>2026-04-06T08:27:37.083Z</time></trkpt><trkpt lat="41.0714617" lon="14.3225267"><ele>65.0</ele><time>2026-04-06T08:27:38.083Z</time></trkpt><trkpt lat="41.07139" lon="14.3225183"><ele>65.00000000000001</ele><time>2026-04-06T08:27:39.084Z</time></trkpt><trkpt lat="41.0713167" lon="14.3225133"><ele>65.0</ele><time>2026-04-06T08:27:40.085Z</time></trkpt><trkpt lat="41.0712483" lon="14.3225083"><ele>65.00000000000001</ele><time>2026-04-06T08:27:41.083Z</time></trkpt><trkpt lat="41.07118" lon="14.3225017"><ele>65.0</ele><time>2026-04-06T08:27:42.084Z</time></trkpt><trkpt lat="41.0711117" lon="14.322495"><ele>65.0</ele><time>2026-04-06T08:27:43.084Z</time></trkpt><trkpt lat="41.0710433" lon="14.32249"><ele>65.0</ele><time>2026-04-06T08:27:44.084Z</time></trkpt><trkpt lat="41.070975" lon="14.3224833"><ele>65.0</ele><time>2026-04-06T08:27:45.083Z</time></trkpt><trkpt lat="41.0709067" lon="14.3224767"><ele>65.00000000000001</ele><time>2026-04-06T08:27:46.083Z</time></trkpt><trkpt lat="41.0708367" lon="14.3224667"><ele>65.0</ele><time>2026-04-06T08:27:47.083Z</time></trkpt><trkpt lat="41.0707683" lon="14.32246"><ele>64.85714285714286</ele><time>2026-04-06T08:27:48.083Z</time></trkpt><trkpt lat="41.0706983" lon="14.32246"><ele>64.71428571428572</ele><time>2026-04-06T08:27:49.084Z</time></trkpt><trkpt lat="41.0706333" lon="14.322475"><ele>64.57142857142857</ele><time>2026-04-06T08:27:50.083Z</time></trkpt><trkpt lat="41.0705767" lon="14.3225167"><ele>64.42857142857143</ele><time>2026-04-06T08:27:51.084Z</time></trkpt><trkpt lat="41.0705317" lon="14.3225833"><ele>64.28571428571428</ele><time>2026-04-06T08:27:52.084Z</time></trkpt><trkpt lat="41.0705033" lon="14.3226717"><ele>64.14285714285714</ele><time>2026-04-06T08:27:53.085Z</time></trkpt><trkpt lat="41.07049" lon="14.322765"><ele>64.0</ele><time>2026-04-06T08:27:54.085Z</time></trkpt><trkpt lat="41.0704933" lon="14.322865"><ele>64.0</ele><time>2026-04-06T08:27:55.083Z</time></trkpt><trkpt lat="41.0704917" lon="14.322965"><ele>63.99999999999999</ele><time>2026-04-06T08:27:56.084Z</time></trkpt><trkpt lat="41.07049" lon="14.3230633"><ele>64.0</ele><time>2026-04-06T08:27:57.085Z</time></trkpt><trkpt lat="41.0704917" lon="14.3231583"><ele>64.0</ele><time>2026-04-06T08:27:58.084Z</time></trkpt><trkpt lat="41.07049" lon="14.3232483"><ele>63.99999999999999</ele><time>2026-04-06T08:27:59.084Z</time></trkpt><trkpt lat="41.0704867" lon="14.3233483"><ele>64.0</ele><time>2026-04-06T08:28:00.083Z</time></trkpt><trkpt lat="41.070485" lon="14.323445"><ele>64.0</ele><time>2026-04-06T08:28:01.083Z</time></trkpt><trkpt lat="41.0704867" lon="14.3235433"><ele>63.99999999999999</ele><time>2026-04-06T08:28:02.083Z</time></trkpt><trkpt lat="41.0704883" lon="14.32364"><ele>64.0</ele><time>2026-04-06T08:28:03.084Z</time></trkpt><trkpt lat="41.0704817" lon="14.3237333"><ele>64.0</ele><time>2026-04-06T08:28:04.084Z</time></trkpt><trkpt lat="41.0704767" lon="14.32382"><ele>64.0</ele><time>2026-04-06T08:28:05.084Z</time></trkpt><trkpt lat="41.070475" lon="14.3239067"><ele>63.99999999999999</ele><time>2026-04-06T08:28:06.084Z</time></trkpt><trkpt lat="41.070475" lon="14.3239917"><ele>64.0</ele><time>2026-04-06T08:28:07.084Z</time></trkpt><trkpt lat="41.0704583" lon="14.324155"><ele>64.16666666666666</ele><time>2026-04-06T08:28:09.084Z</time></trkpt><trkpt lat="41.0703833" lon="14.3242817"><ele>64.33333333333333</ele><time>2026-04-06T08:28:11.084Z</time></trkpt><trkpt lat="41.0703167" lon="14.3243083"><ele>64.5</ele><time>2026-04-06T08:28:12.083Z</time></trkpt><trkpt lat="41.0702517" lon="14.3243333"><ele>64.66666666666667</ele><time>2026-04-06T08:28:13.084Z</time></trkpt><trkpt lat="41.0701833" lon="14.3243567"><ele>64.83333333333334</ele><time>2026-04-06T08:28:14.084Z</time></trkpt><trkpt lat="41.07011" lon="14.3243767"><ele>65.0</ele><time>2026-04-06T08:28:15.084Z</time></trkpt><trkpt lat="41.0700383" lon="14.3244"><ele>65.00000000000001</ele><time>2026-04-06T08:28:16.091Z</time></trkpt><trkpt lat="41.06997" lon="14.3244283"><ele>65.0</ele><time>2026-04-06T08:28:17.09Z</time></trkpt><trkpt lat="41.0699017" lon="14.3244617"><ele>65.0</ele><time>2026-04-06T08:28:18.086Z</time></trkpt><trkpt lat="41.0698333" lon="14.3244983"><ele>65.0</ele><time>2026-04-06T08:28:19.084Z</time></trkpt><trkpt lat="41.0697667" lon="14.324545"><ele>65.0</ele><time>2026-04-06T08:28:20.083Z</time></trkpt><trkpt lat="41.0697067" lon="14.3245983"><ele>65.00000000000001</ele><time>2026-04-06T08:28:21.084Z</time></trkpt><trkpt lat="41.0696533" lon="14.3246667"><ele>65.0</ele><time>2026-04-06T08:28:22.083Z</time></trkpt><trkpt lat="41.0696083" lon="14.324745"><ele>64.85714285714286</ele><time>2026-04-06T08:28:23.084Z</time></trkpt><trkpt lat="41.0695667" lon="14.32483"><ele>64.71428571428572</ele><time>2026-04-06T08:28:24.083Z</time></trkpt><trkpt lat="41.0695333" lon="14.3249167"><ele>64.57142857142857</ele><time>2026-04-06T08:28:25.084Z</time></trkpt><trkpt lat="41.0695017" lon="14.325005"><ele>64.42857142857143</ele><time>2026-04-06T08:28:26.084Z</time></trkpt><trkpt lat="41.0694717" lon="14.325095"><ele>64.28571428571428</ele><time>2026-04-06T08:28:27.083Z</time></trkpt><trkpt lat="41.069445" lon="14.325185"><ele>64.14285714285714</ele><time>2026-04-06T08:28:28.083Z</time></trkpt><trkpt lat="41.0694167" lon="14.3252783"><ele>64.0</ele><time>2026-04-06T08:28:29.085Z</time></trkpt><trkpt lat="41.0693883" lon="14.32537"><ele>63.99999999999999</ele><time>2026-04-06T08:28:30.085Z</time></trkpt><trkpt lat="41.0693583" lon="14.3254617"><ele>64.0</ele><time>2026-04-06T08:28:31.084Z</time></trkpt><trkpt lat="41.0693267" lon="14.3255633"><ele>64.0</ele><time>2026-04-06T08:28:32.084Z</time></trkpt><trkpt lat="41.069295" lon="14.3256717"><ele>64.0</ele><time>2026-04-06T08:28:33.084Z</time></trkpt><trkpt lat="41.0692633" lon="14.3257867"><ele>63.99999999999999</ele><time>2026-04-06T08:28:34.085Z</time></trkpt><trkpt lat="41.0692283" lon="14.3258933"><ele>64.0</ele><time>2026-04-06T08:28:35.086Z</time></trkpt><trkpt lat="41.0691967" lon="14.326"><ele>63.83333333333333</ele><time>2026-04-06T08:28:36.085Z</time></trkpt><trkpt lat="41.069165" lon="14.3260967"><ele>63.666666666666664</ele><time>2026-04-06T08:28:37.083Z</time></trkpt><trkpt lat="41.0691283" lon="14.3261967"><ele>63.5</ele><time>2026-04-06T08:28:38.084Z</time></trkpt><trkpt lat="41.0690933" lon="14.3262983"><ele>63.33333333333333</ele><time>2026-04-06T08:28:39.086Z</time></trkpt><trkpt lat="41.0690617" lon="14.3263917"><ele>63.166666666666664</ele><time>2026-04-06T08:28:40.087Z</time></trkpt><trkpt lat="41.06903" lon="14.3264833"><ele>63.0</ele><time>2026-04-06T08:28:41.084Z</time></trkpt><trkpt lat="41.067315" lon="14.3261817"><ele>62.833333333333336</ele><time>2026-04-06T08:28:58.084Z</time></trkpt><trkpt lat="41.067305" lon="14.3263433"><ele>62.66666666666667</ele><time>2026-04-06T08:28:59.084Z</time></trkpt><trkpt lat="41.0672383" lon="14.3263133"><ele>62.5</ele><time>2026-04-06T08:29:00.084Z</time></trkpt><trkpt lat="41.0671533" lon="14.3262517"><ele>62.333333333333336</ele><time>2026-04-06T08:29:01.084Z</time></trkpt><trkpt lat="41.067075" lon="14.3262433"><ele>62.16666666666667</ele><time>2026-04-06T08:29:02.085Z</time></trkpt><trkpt lat="41.066995" lon="14.3262417"><ele>62.0</ele><time>2026-04-06T08:29:03.084Z</time></trkpt><trkpt lat="41.0669167" lon="14.3262367"><ele>62.00000000000001</ele><time>2026-04-06T08:29:04.085Z</time></trkpt><trkpt lat="41.0668333" lon="14.32623"><ele>62.0</ele><time>2026-04-06T08:29:05.083Z</time></trkpt><trkpt lat="41.0667483" lon="14.3262233"><ele>62.0</ele><time>2026-04-06T08:29:06.086Z</time></trkpt><trkpt lat="41.0666617" lon="14.3262183"><ele>62.0</ele><time>2026-04-06T08:29:07.084Z</time></trkpt><trkpt lat="41.0665817" lon="14.3262167"><ele>62.00000000000001</ele><time>2026-04-06T08:29:08.085Z</time></trkpt><trkpt lat="41.066505" lon="14.3262183"><ele>62.0</ele><time>2026-04-06T08:29:09.085Z</time></trkpt><trkpt lat="41.0664317" lon="14.326215"><ele>61.85714285714286</ele><time>2026-04-06T08:29:10.084Z</time></trkpt><trkpt lat="41.06636" lon="14.3262133"><ele>61.71428571428572</ele><time>2026-04-06T08:29:11.085Z</time></trkpt><trkpt lat="41.0662833" lon="14.3262133"><ele>61.57142857142857</ele><time>2026-04-06T08:29:12.085Z</time></trkpt><trkpt lat="41.06621" lon="14.32622"><ele>61.42857142857143</ele><time>2026-04-06T08:29:13.084Z</time></trkpt><trkpt lat="41.0661367" lon="14.3262233"><ele>61.285714285714285</ele><time>2026-04-06T08:29:14.084Z</time></trkpt><trkpt lat="41.06606" lon="14.3262283"><ele>61.14285714285714</ele><time>2026-04-06T08:29:15.085Z</time></trkpt><trkpt lat="41.0659833" lon="14.32624"><ele>60.99999999999999</ele><time>2026-04-06T08:29:16.084Z</time></trkpt><trkpt lat="41.065905" lon="14.32625"><ele>60.99999999999999</ele><time>2026-04-06T08:29:17.084Z</time></trkpt><trkpt lat="41.0658283" lon="14.3262583"><ele>61.0</ele><time>2026-04-06T08:29:18.085Z</time></trkpt><trkpt lat="41.06575" lon="14.3262667"><ele>61.0</ele><time>2026-04-06T08:29:19.084Z</time></trkpt><trkpt lat="41.06567" lon="14.3262717"><ele>61.0</ele><time>2026-04-06T08:29:20.084Z</time></trkpt><trkpt lat="41.06559" lon="14.3262783"><ele>60.99999999999999</ele><time>2026-04-06T08:29:21.084Z</time></trkpt><trkpt lat="41.0655083" lon="14.32629"><ele>61.0</ele><time>2026-04-06T08:29:22.084Z</time></trkpt><trkpt lat="41.0654283" lon="14.3262983"><ele>60.83333333333333</ele><time>2026-04-06T08:29:23.085Z</time></trkpt><trkpt lat="41.06535" lon="14.326305"><ele>60.666666666666664</ele><time>2026-04-06T08:29:24.084Z</time></trkpt><trkpt lat="41.06527" lon="14.3263083"><ele>60.5</ele><time>2026-04-06T08:29:25.085Z</time></trkpt><trkpt lat="41.0651917" lon="14.3263167"><ele>60.33333333333333</ele><time>2026-04-06T08:29:26.084Z</time></trkpt><trkpt lat="41.0651117" lon="14.3263267"><ele>60.166666666666664</ele><time>2026-04-06T08:29:27.084Z</time></trkpt><trkpt lat="41.0650317" lon="14.3263367"><ele>60.0</ele><time>2026-04-06T08:29:28.084Z</time></trkpt><trkpt lat="41.0649533" lon="14.3263483"><ele>59.666666666666664</ele><time>2026-04-06T08:29:29.084Z</time></trkpt><trkpt lat="41.064875" lon="14.32636"><ele>59.33333333333333</ele><time>2026-04-06T08:29:30.085Z</time></trkpt><trkpt lat="41.0647967" lon="14.3263733"><ele>59.0</ele><time>2026-04-06T08:29:31.084Z</time></trkpt><trkpt lat="41.06472" lon="14.3263767"><ele>58.666666666666664</ele><time>2026-04-06T08:29:32.085Z</time></trkpt><trkpt lat="41.06464" lon="14.3263717"><ele>58.33333333333333</ele><time>2026-04-06T08:29:33.085Z</time></trkpt><trkpt lat="41.0645617" lon="14.3263683"><ele>58.0</ele><time>2026-04-06T08:29:34.084Z</time></trkpt><trkpt lat="41.0644833" lon="14.3263617"><ele>57.99999999999999</ele><time>2026-04-06T08:29:35.084Z</time></trkpt><trkpt lat="41.064405" lon="14.3263533"><ele>58.0</ele><time>2026-04-06T08:29:36.084Z</time></trkpt><trkpt lat="41.0643283" lon="14.3263433"><ele>58.0</ele><time>2026-04-06T08:29:37.084Z</time></trkpt><trkpt lat="41.0642533" lon="14.3263367"><ele>58.0</ele><time>2026-04-06T08:29:38.085Z</time></trkpt><trkpt lat="41.0641767" lon="14.32633"><ele>57.99999999999999</ele><time>2026-04-06T08:29:39.084Z</time></trkpt><trkpt lat="41.0641" lon="14.3263233"><ele>58.0</ele><time>2026-04-06T08:29:40.084Z</time></trkpt><trkpt lat="41.064025" lon="14.3263183"><ele>58.166666666666664</ele><time>2026-04-06T08:29:41.084Z</time></trkpt><trkpt lat="41.0639483" lon="14.3263117"><ele>58.33333333333333</ele><time>2026-04-06T08:29:42.085Z</time></trkpt><trkpt lat="41.0638683" lon="14.3263033"><ele>58.5</ele><time>2026-04-06T08:29:43.084Z</time></trkpt><trkpt lat="41.0637883" lon="14.326295"><ele>58.66666666666667</ele><time>2026-04-06T08:29:44.084Z</time></trkpt><trkpt lat="41.0637067" lon="14.3262867"><ele>58.833333333333336</ele><time>2026-04-06T08:29:45.085Z</time></trkpt><trkpt lat="41.0636233" lon="14.3262817"><ele>59.0</ele><time>2026-04-06T08:29:46.084Z</time></trkpt><trkpt lat="41.063545" lon="14.3262767"><ele>59.00000000000001</ele><time>2026-04-06T08:29:47.084Z</time></trkpt><trkpt lat="41.0634683" lon="14.3262717"><ele>59.0</ele><time>2026-04-06T08:29:48.084Z</time></trkpt><trkpt lat="41.0633917" lon="14.326265"><ele>59.0</ele><time>2026-04-06T08:29:49.084Z</time></trkpt><trkpt lat="41.0633167" lon="14.3262567"><ele>59.0</ele><time>2026-04-06T08:29:50.085Z</time></trkpt><trkpt lat="41.06324" lon="14.3262467"><ele>59.00000000000001</ele><time>2026-04-06T08:29:51.084Z</time></trkpt><trkpt lat="41.0631633" lon="14.32624"><ele>59.0</ele><time>2026-04-06T08:29:52.085Z</time></trkpt><trkpt lat="41.0630867" lon="14.3262333"><ele>59.00000000000001</ele><time>2026-04-06T08:29:53.084Z</time></trkpt><trkpt lat="41.06301" lon="14.32623"><ele>59.0</ele><time>2026-04-06T08:29:54.084Z</time></trkpt><trkpt lat="41.0629317" lon="14.3262267"><ele>59.0</ele><time>2026-04-06T08:29:55.084Z</time></trkpt><trkpt lat="41.062855" lon="14.3262183"><ele>59.0</ele><time>2026-04-06T08:29:56.084Z</time></trkpt><trkpt lat="41.0627817" lon="14.3262117"><ele>59.00000000000001</ele><time>2026-04-06T08:29:57.085Z</time></trkpt><trkpt lat="41.062705" lon="14.3262083"><ele>59.0</ele><time>2026-04-06T08:29:58.084Z</time></trkpt><trkpt lat="41.0626283" lon="14.3262"><ele>59.00000000000001</ele><time>2026-04-06T08:29:59.085Z</time></trkpt><trkpt lat="41.0625517" lon="14.3261917"><ele>59.0</ele><time>2026-04-06T08:30:00.084Z</time></trkpt><trkpt lat="41.062475" lon="14.326185"><ele>59.0</ele><time>2026-04-06T08:30:01.085Z</time></trkpt><trkpt lat="41.0623967" lon="14.32618"><ele>59.0</ele><time>2026-04-06T08:30:02.085Z</time></trkpt><trkpt lat="41.06232" lon="14.3261717"><ele>59.00000000000001</ele><time>2026-04-06T08:30:03.084Z</time></trkpt><trkpt lat="41.062245" lon="14.326165"><ele>59.0</ele><time>2026-04-06T08:30:04.084Z</time></trkpt><trkpt lat="41.062165" lon="14.326155"><ele>58.833333333333336</ele><time>2026-04-06T08:30:05.084Z</time></trkpt><trkpt lat="41.0620883" lon="14.3261483"><ele>58.66666666666667</ele><time>2026-04-06T08:30:06.085Z</time></trkpt><trkpt lat="41.06201" lon="14.3261417"><ele>58.5</ele><time>2026-04-06T08:30:07.084Z</time></trkpt><trkpt lat="41.0619317" lon="14.3261367"><ele>58.33333333333333</ele><time>2026-04-06T08:30:08.085Z</time></trkpt><trkpt lat="41.0618517" lon="14.32613"><ele>58.166666666666664</ele><time>2026-04-06T08:30:09.084Z</time></trkpt><trkpt lat="41.061775" lon="14.3261233"><ele>58.0</ele><time>2026-04-06T08:30:10.086Z</time></trkpt><trkpt lat="41.0616933" lon="14.3261167"><ele>57.666666666666664</ele><time>2026-04-06T08:30:11.086Z</time></trkpt><trkpt lat="41.061615" lon="14.3261117"><ele>57.33333333333333</ele><time>2026-04-06T08:30:12.085Z</time></trkpt><trkpt lat="41.0615367" lon="14.3261033"><ele>57.0</ele><time>2026-04-06T08:30:13.085Z</time></trkpt><trkpt lat="41.06146" lon="14.3261"><ele>56.66666666666667</ele><time>2026-04-06T08:30:14.084Z</time></trkpt><trkpt lat="41.061385" lon="14.326095"><ele>56.333333333333336</ele><time>2026-04-06T08:30:15.087Z</time></trkpt><trkpt lat="41.0613067" lon="14.32609"><ele>56.0</ele><time>2026-04-06T08:30:16.087Z</time></trkpt><trkpt lat="41.0612317" lon="14.3260833"><ele>56.00000000000001</ele><time>2026-04-06T08:30:17.084Z</time></trkpt><trkpt lat="41.0611533" lon="14.3260767"><ele>56.0</ele><time>2026-04-06T08:30:18.085Z</time></trkpt><trkpt lat="41.0610717" lon="14.3260683"><ele>56.0</ele><time>2026-04-06T08:30:19.084Z</time></trkpt><trkpt lat="41.06099" lon="14.32606"><ele>56.0</ele><time>2026-04-06T08:30:20.085Z</time></trkpt><trkpt lat="41.0609133" lon="14.3260533"><ele>56.00000000000001</ele><time>2026-04-06T08:30:21.089Z</time></trkpt><trkpt lat="41.0608367" lon="14.326045"><ele>56.0</ele><time>2026-04-06T08:30:22.084Z</time></trkpt><trkpt lat="41.06076" lon="14.3260417"><ele>55.833333333333336</ele><time>2026-04-06T08:30:23.085Z</time></trkpt><trkpt lat="41.0606817" lon="14.326035"><ele>55.66666666666667</ele><time>2026-04-06T08:30:24.086Z</time></trkpt><trkpt lat="41.060605" lon="14.3260283"><ele>55.5</ele><time>2026-04-06T08:30:25.085Z</time></trkpt><trkpt lat="41.0605267" lon="14.3260233"><ele>55.33333333333333</ele><time>2026-04-06T08:30:26.084Z</time></trkpt><trkpt lat="41.06045" lon="14.3260183"><ele>55.166666666666664</ele><time>2026-04-06T08:30:27.087Z</time></trkpt><trkpt lat="41.0603717" lon="14.3260167"><ele>55.0</ele><time>2026-04-06T08:30:28.085Z</time></trkpt><trkpt lat="41.0602917" lon="14.3260117"><ele>54.99999999999999</ele><time>2026-04-06T08:30:29.085Z</time></trkpt><trkpt lat="41.0602117" lon="14.3260067"><ele>55.0</ele><time>2026-04-06T08:30:30.085Z</time></trkpt><trkpt lat="41.0601333" lon="14.326"><ele>55.0</ele><time>2026-04-06T08:30:31.084Z</time></trkpt><trkpt lat="41.0600533" lon="14.325995"><ele>55.0</ele><time>2026-04-06T08:30:32.085Z</time></trkpt><trkpt lat="41.059975" lon="14.32599"><ele>54.99999999999999</ele><time>2026-04-06T08:30:33.085Z</time></trkpt><trkpt lat="41.059895" lon="14.3259867"><ele>55.0</ele><time>2026-04-06T08:30:34.084Z</time></trkpt><trkpt lat="41.059815" lon="14.3259817"><ele>54.99999999999999</ele><time>2026-04-06T08:30:35.087Z</time></trkpt><trkpt lat="41.0597317" lon="14.3259717"><ele>55.0</ele><time>2026-04-06T08:30:36.084Z</time></trkpt><trkpt lat="41.0596483" lon="14.325965"><ele>55.0</ele><time>2026-04-06T08:30:37.084Z</time></trkpt><trkpt lat="41.059565" lon="14.32596"><ele>55.0</ele><time>2026-04-06T08:30:38.085Z</time></trkpt><trkpt lat="41.0594833" lon="14.32596"><ele>54.99999999999999</ele><time>2026-04-06T08:30:39.094Z</time></trkpt><trkpt lat="41.0594017" lon="14.32596"><ele>55.0</ele><time>2026-04-06T08:30:40.085Z</time></trkpt><trkpt lat="41.0593217" lon="14.325955"><ele>54.99999999999999</ele><time>2026-04-06T08:30:41.084Z</time></trkpt><trkpt lat="41.05924" lon="14.3259483"><ele>55.0</ele><time>2026-04-06T08:30:42.084Z</time></trkpt><trkpt lat="41.0591567" lon="14.3259417"><ele>55.0</ele><time>2026-04-06T08:30:43.084Z</time></trkpt><trkpt lat="41.0590733" lon="14.3259367"><ele>55.0</ele><time>2026-04-06T08:30:44.084Z</time></trkpt><trkpt lat="41.05899" lon="14.32593"><ele>54.99999999999999</ele><time>2026-04-06T08:30:45.085Z</time></trkpt><trkpt lat="41.0589033" lon="14.325925"><ele>55.0</ele><time>2026-04-06T08:30:46.084Z</time></trkpt><trkpt lat="41.0588217" lon="14.32592"><ele>54.83333333333333</ele><time>2026-04-06T08:30:47.084Z</time></trkpt><trkpt lat="41.0587383" lon="14.3259133"><ele>54.666666666666664</ele><time>2026-04-06T08:30:48.086Z</time></trkpt><trkpt lat="41.0586517" lon="14.32591"><ele>54.5</ele><time>2026-04-06T08:30:49.085Z</time></trkpt><trkpt lat="41.0585683" lon="14.3259067"><ele>54.33333333333333</ele><time>2026-04-06T08:30:50.085Z</time></trkpt><trkpt lat="41.0584833" lon="14.3259017"><ele>54.166666666666664</ele><time>2026-04-06T08:30:51.086Z</time></trkpt><trkpt lat="41.0583983" lon="14.325895"><ele>54.0</ele><time>2026-04-06T08:30:52.084Z</time></trkpt><trkpt lat="41.058315" lon="14.32589"><ele>53.666666666666664</ele><time>2026-04-06T08:30:53.086Z</time></trkpt><trkpt lat="41.0582333" lon="14.325885"><ele>53.33333333333333</ele><time>2026-04-06T08:30:54.086Z</time></trkpt><trkpt lat="41.05815" lon="14.3258783"><ele>53.0</ele><time>2026-04-06T08:30:55.084Z</time></trkpt><trkpt lat="41.0580683" lon="14.3258717"><ele>52.666666666666664</ele><time>2026-04-06T08:30:56.087Z</time></trkpt><trkpt lat="41.0579867" lon="14.325865"><ele>52.33333333333333</ele><time>2026-04-06T08:30:57.084Z</time></trkpt><trkpt lat="41.057905" lon="14.3258567"><ele>52.0</ele><time>2026-04-06T08:30:58.084Z</time></trkpt><trkpt lat="41.0578267" lon="14.3258533"><ele>51.99999999999999</ele><time>2026-04-06T08:30:59.085Z</time></trkpt><trkpt lat="41.0577483" lon="14.3258433"><ele>52.0</ele><time>2026-04-06T08:31:00.085Z</time></trkpt><trkpt lat="41.057665" lon="14.3258283"><ele>52.0</ele><time>2026-04-06T08:31:01.084Z</time></trkpt><trkpt lat="41.0575817" lon="14.32582"><ele>52.0</ele><time>2026-04-06T08:31:02.085Z</time></trkpt><trkpt lat="41.0575017" lon="14.3258083"><ele>51.99999999999999</ele><time>2026-04-06T08:31:03.085Z</time></trkpt><trkpt lat="41.0574233" lon="14.3257933"><ele>52.0</ele><time>2026-04-06T08:31:04.088Z</time></trkpt><trkpt lat="41.0573433" lon="14.3257817"><ele>52.33333333333333</ele><time>2026-04-06T08:31:05.086Z</time></trkpt><trkpt lat="41.0572617" lon="14.3257717"><ele>52.666666666666664</ele><time>2026-04-06T08:31:06.085Z</time></trkpt><trkpt lat="41.0571817" lon="14.3257667"><ele>53.0</ele><time>2026-04-06T08:31:07.085Z</time></trkpt><trkpt lat="41.057105" lon="14.3257533"><ele>53.33333333333333</ele><time>2026-04-06T08:31:08.085Z</time></trkpt><trkpt lat="41.0570283" lon="14.32574"><ele>53.666666666666664</ele><time>2026-04-06T08:31:09.085Z</time></trkpt><trkpt lat="41.0569533" lon="14.3257183"><ele>54.0</ele><time>2026-04-06T08:31:10.086Z</time></trkpt><trkpt lat="41.0568833" lon="14.3256783"><ele>54.0</ele><time>2026-04-06T08:31:11.085Z</time></trkpt><trkpt lat="41.05681" lon="14.32565"><ele>54.0</ele><time>2026-04-06T08:31:12.087Z</time></trkpt><trkpt lat="41.0567367" lon="14.325635"><ele>54.0</ele><time>2026-04-06T08:31:13.086Z</time></trkpt><trkpt lat="41.0566583" lon="14.32564"><ele>54.0</ele><time>2026-04-06T08:31:14.086Z</time></trkpt><trkpt lat="41.0565767" lon="14.32566"><ele>54.0</ele><time>2026-04-06T08:31:15.085Z</time></trkpt><trkpt lat="41.0564983" lon="14.3256817"><ele>54.0</ele><time>2026-04-06T08:31:16.086Z</time></trkpt><trkpt lat="41.0564183" lon="14.32569"><ele>53.833333333333336</ele><time>2026-04-06T08:31:17.086Z</time></trkpt><trkpt lat="41.05634" lon="14.3256917"><ele>53.66666666666667</ele><time>2026-04-06T08:31:18.086Z</time></trkpt><trkpt lat="41.0562683" lon="14.3256917"><ele>53.5</ele><time>2026-04-06T08:31:19.087Z</time></trkpt><trkpt lat="41.0561883" lon="14.3256833"><ele>53.333333333333336</ele><time>2026-04-06T08:31:20.085Z</time></trkpt><trkpt lat="41.0561117" lon="14.3256767"><ele>53.16666666666667</ele><time>2026-04-06T08:31:21.085Z</time></trkpt><trkpt lat="41.0560333" lon="14.3256733"><ele>53.0</ele><time>2026-04-06T08:31:22.086Z</time></trkpt><trkpt lat="41.0559533" lon="14.3256667"><ele>53.00000000000001</ele><time>2026-04-06T08:31:23.085Z</time></trkpt><trkpt lat="41.05587" lon="14.3256583"><ele>53.0</ele><time>2026-04-06T08:31:24.086Z</time></trkpt><trkpt lat="41.0557933" lon="14.3256517"><ele>53.0</ele><time>2026-04-06T08:31:25.085Z</time></trkpt><trkpt lat="41.055715" lon="14.3256467"><ele>53.0</ele><time>2026-04-06T08:31:26.085Z</time></trkpt><trkpt lat="41.05564" lon="14.3256417"><ele>53.00000000000001</ele><time>2026-04-06T08:31:27.085Z</time></trkpt><trkpt lat="41.055565" lon="14.3256383"><ele>53.0</ele><time>2026-04-06T08:31:28.086Z</time></trkpt><trkpt lat="41.05549" lon="14.3256333"><ele>52.57142857142858</ele><time>2026-04-06T08:31:29.086Z</time></trkpt><trkpt lat="41.055415" lon="14.3256267"><ele>52.14285714285714</ele><time>2026-04-06T08:31:30.086Z</time></trkpt><trkpt lat="41.0553383" lon="14.32562"><ele>51.714285714285715</ele><time>2026-04-06T08:31:31.085Z</time></trkpt><trkpt lat="41.0552633" lon="14.3256117"><ele>51.28571428571429</ele><time>2026-04-06T08:31:32.085Z</time></trkpt><trkpt lat="41.05519" lon="14.325605"><ele>50.85714285714286</ele><time>2026-04-06T08:31:33.085Z</time></trkpt><trkpt lat="41.05512" lon="14.3255967"><ele>50.42857142857143</ele><time>2026-04-06T08:31:34.086Z</time></trkpt><trkpt lat="41.0550467" lon="14.3255867"><ele>50.0</ele><time>2026-04-06T08:31:35.085Z</time></trkpt><trkpt lat="41.0549733" lon="14.3255767"><ele>50.42857142857143</ele><time>2026-04-06T08:31:36.085Z</time></trkpt><trkpt lat="41.0549017" lon="14.32557"><ele>50.85714285714286</ele><time>2026-04-06T08:31:37.085Z</time></trkpt><trkpt lat="41.05483" lon="14.325565"><ele>51.28571428571429</ele><time>2026-04-06T08:31:38.086Z</time></trkpt><trkpt lat="41.05476" lon="14.32556"><ele>51.714285714285715</ele><time>2026-04-06T08:31:39.084Z</time></trkpt><trkpt lat="41.0546867" lon="14.3255533"><ele>52.14285714285714</ele><time>2026-04-06T08:31:40.084Z</time></trkpt><trkpt lat="41.0546133" lon="14.3255483"><ele>52.57142857142858</ele><time>2026-04-06T08:31:41.085Z</time></trkpt><trkpt lat="41.0545417" lon="14.325545"><ele>53.0</ele><time>2026-04-06T08:31:42.084Z</time></trkpt><trkpt lat="41.05447" lon="14.325545"><ele>53.0</ele><time>2026-04-06T08:31:43.084Z</time></trkpt><trkpt lat="41.0543983" lon="14.325545"><ele>53.0</ele><time>2026-04-06T08:31:44.084Z</time></trkpt><trkpt lat="41.0543233" lon="14.3255367"><ele>53.0</ele><time>2026-04-06T08:31:45.085Z</time></trkpt><trkpt lat="41.0542517" lon="14.3255283"><ele>53.0</ele><time>2026-04-06T08:31:46.084Z</time></trkpt><trkpt lat="41.0541783" lon="14.3255217"><ele>53.0</ele><time>2026-04-06T08:31:47.084Z</time></trkpt><trkpt lat="41.0541067" lon="14.3255117"><ele>53.0</ele><time>2026-04-06T08:31:48.084Z</time></trkpt><trkpt lat="41.0540333" lon="14.3255067"><ele>53.0</ele><time>2026-04-06T08:31:49.085Z</time></trkpt><trkpt lat="41.0539583" lon="14.3254967"><ele>53.00000000000001</ele><time>2026-04-06T08:31:50.085Z</time></trkpt><trkpt lat="41.0538817" lon="14.32549"><ele>53.0</ele><time>2026-04-06T08:31:51.085Z</time></trkpt><trkpt lat="41.0538067" lon="14.3254833"><ele>53.0</ele><time>2026-04-06T08:31:52.084Z</time></trkpt><trkpt lat="41.0537317" lon="14.3254767"><ele>53.0</ele><time>2026-04-06T08:31:53.086Z</time></trkpt><trkpt lat="41.0536533" lon="14.3254683"><ele>53.00000000000001</ele><time>2026-04-06T08:31:54.084Z</time></trkpt><trkpt lat="41.053575" lon="14.325465"><ele>53.0</ele><time>2026-04-06T08:31:55.084Z</time></trkpt><trkpt lat="41.0534983" lon="14.3254633"><ele>53.00000000000001</ele><time>2026-04-06T08:31:56.085Z</time></trkpt><trkpt lat="41.0534217" lon="14.3254517"><ele>53.0</ele><time>2026-04-06T08:31:57.086Z</time></trkpt><trkpt lat="41.0533433" lon="14.3254483"><ele>53.0</ele><time>2026-04-06T08:31:58.084Z</time></trkpt><trkpt lat="41.0532683" lon="14.3254433"><ele>53.0</ele><time>2026-04-06T08:31:59.084Z</time></trkpt><trkpt lat="41.0531883" lon="14.32544"><ele>53.00000000000001</ele><time>2026-04-06T08:32:00.085Z</time></trkpt><trkpt lat="41.05311" lon="14.325435"><ele>53.0</ele><time>2026-04-06T08:32:01.085Z</time></trkpt><trkpt lat="41.0530317" lon="14.32543"><ele>53.00000000000001</ele><time>2026-04-06T08:32:02.088Z</time></trkpt><trkpt lat="41.0529533" lon="14.3254267"><ele>53.0</ele><time>2026-04-06T08:32:03.084Z</time></trkpt><trkpt lat="41.0528767" lon="14.3254233"><ele>53.0</ele><time>2026-04-06T08:32:04.085Z</time></trkpt><trkpt lat="41.0528" lon="14.32542"><ele>53.0</ele><time>2026-04-06T08:32:05.084Z</time></trkpt><trkpt lat="41.0527217" lon="14.3254167"><ele>53.00000000000001</ele><time>2026-04-06T08:32:06.085Z</time></trkpt><trkpt lat="41.052645" lon="14.32541"><ele>53.0</ele><time>2026-04-06T08:32:07.085Z</time></trkpt><trkpt lat="41.0525667" lon="14.3254033"><ele>53.0</ele><time>2026-04-06T08:32:08.085Z</time></trkpt><trkpt lat="41.0524933" lon="14.3253967"><ele>53.0</ele><time>2026-04-06T08:32:09.091Z</time></trkpt><trkpt lat="41.05242" lon="14.3253917"><ele>53.0</ele><time>2026-04-06T08:32:10.085Z</time></trkpt><trkpt lat="41.05235" lon="14.32539"><ele>53.0</ele><time>2026-04-06T08:32:11.084Z</time></trkpt><trkpt lat="41.0522833" lon="14.3253867"><ele>53.0</ele><time>2026-04-06T08:32:12.085Z</time></trkpt><trkpt lat="41.052215" lon="14.3253817"><ele>53.0</ele><time>2026-04-06T08:32:13.085Z</time></trkpt><trkpt lat="41.052145" lon="14.325375"><ele>53.0</ele><time>2026-04-06T08:32:14.085Z</time></trkpt><trkpt lat="41.0520767" lon="14.32537"><ele>52.714285714285715</ele><time>2026-04-06T08:32:15.085Z</time></trkpt><trkpt lat="41.05201" lon="14.3253683"><ele>52.42857142857142</ele><time>2026-04-06T08:32:16.086Z</time></trkpt><trkpt lat="41.0519433" lon="14.325365"><ele>52.14285714285714</ele><time>2026-04-06T08:32:17.085Z</time></trkpt><trkpt lat="41.0518767" lon="14.3253533"><ele>51.85714285714286</ele><time>2026-04-06T08:32:18.085Z</time></trkpt><trkpt lat="41.051805" lon="14.3253433"><ele>51.57142857142857</ele><time>2026-04-06T08:32:19.085Z</time></trkpt><trkpt lat="41.0517283" lon="14.325335"><ele>51.285714285714285</ele><time>2026-04-06T08:32:20.085Z</time></trkpt><trkpt lat="41.05165" lon="14.32533"><ele>51.0</ele><time>2026-04-06T08:32:21.085Z</time></trkpt><trkpt lat="41.051575" lon="14.3253267"><ele>51.0</ele><time>2026-04-06T08:32:22.084Z</time></trkpt><trkpt lat="41.0515" lon="14.3253217"><ele>51.0</ele><time>2026-04-06T08:32:23.085Z</time></trkpt><trkpt lat="41.0514267" lon="14.325315"><ele>51.0</ele><time>2026-04-06T08:32:24.088Z</time></trkpt><trkpt lat="41.0513517" lon="14.3253067"><ele>51.0</ele><time>2026-04-06T08:32:25.085Z</time></trkpt><trkpt lat="41.0512767" lon="14.3253017"><ele>51.0</ele><time>2026-04-06T08:32:26.088Z</time></trkpt><trkpt lat="41.0512033" lon="14.3252983"><ele>51.0</ele><time>2026-04-06T08:32:27.084Z</time></trkpt><trkpt lat="41.0511283" lon="14.32529"><ele>51.0</ele><time>2026-04-06T08:32:28.086Z</time></trkpt><trkpt lat="41.05105" lon="14.3252867"><ele>51.0</ele><time>2026-04-06T08:32:29.085Z</time></trkpt><trkpt lat="41.050975" lon="14.3252867"><ele>51.0</ele><time>2026-04-06T08:32:30.086Z</time></trkpt><trkpt lat="41.0509017" lon="14.3252867"><ele>51.0</ele><time>2026-04-06T08:32:31.086Z</time></trkpt><trkpt lat="41.05083" lon="14.3252833"><ele>51.0</ele><time>2026-04-06T08:32:32.085Z</time></trkpt><trkpt lat="41.0507567" lon="14.3252833"><ele>51.0</ele><time>2026-04-06T08:32:33.085Z</time></trkpt><trkpt lat="41.0506833" lon="14.3252767"><ele>51.0</ele><time>2026-04-06T08:32:34.084Z</time></trkpt><trkpt lat="41.0506117" lon="14.32527"><ele>51.0</ele><time>2026-04-06T08:32:35.084Z</time></trkpt><trkpt lat="41.05054" lon="14.325265"><ele>51.166666666666664</ele><time>2026-04-06T08:32:36.085Z</time></trkpt><trkpt lat="41.0504667" lon="14.32526"><ele>51.33333333333333</ele><time>2026-04-06T08:32:37.085Z</time></trkpt><trkpt lat="41.0503917" lon="14.3252517"><ele>51.5</ele><time>2026-04-06T08:32:38.084Z</time></trkpt><trkpt lat="41.050315" lon="14.32525"><ele>51.666666666666664</ele><time>2026-04-06T08:32:39.085Z</time></trkpt><trkpt lat="41.0502433" lon="14.3252467"><ele>51.83333333333333</ele><time>2026-04-06T08:32:40.084Z</time></trkpt><trkpt lat="41.050175" lon="14.32524"><ele>52.0</ele><time>2026-04-06T08:32:41.085Z</time></trkpt><trkpt lat="41.0500717" lon="14.3252317"><ele>51.99999999999999</ele><time>2026-04-06T08:32:43.085Z</time></trkpt><trkpt lat="41.0500033" lon="14.32523"><ele>52.0</ele><time>2026-04-06T08:32:45.085Z</time></trkpt><trkpt lat="41.0499317" lon="14.325215"><ele>52.0</ele><time>2026-04-06T08:32:48.083Z</time></trkpt><trkpt lat="41.0498583" lon="14.325205"><ele>52.0</ele><time>2026-04-06T08:32:50.083Z</time></trkpt><trkpt lat="41.0497683" lon="14.3252033"><ele>51.99999999999999</ele><time>2026-04-06T08:32:52.083Z</time></trkpt><trkpt lat="41.0496633" lon="14.3251967"><ele>52.0</ele><time>2026-04-06T08:32:54.083Z</time></trkpt><trkpt lat="41.049545" lon="14.3251883"><ele>51.83333333333333</ele><time>2026-04-06T08:32:56.087Z</time></trkpt><trkpt lat="41.0494267" lon="14.325185"><ele>51.666666666666664</ele><time>2026-04-06T08:32:58.083Z</time></trkpt><trkpt lat="41.049305" lon="14.325175"><ele>51.5</ele><time>2026-04-06T08:33:00.084Z</time></trkpt><trkpt lat="41.04924" lon="14.32516"><ele>51.33333333333333</ele><time>2026-04-06T08:33:01.084Z</time></trkpt><trkpt lat="41.049175" lon="14.3251467"><ele>51.166666666666664</ele><time>2026-04-06T08:33:02.084Z</time></trkpt><trkpt lat="41.0491067" lon="14.3251367"><ele>51.0</ele><time>2026-04-06T08:33:03.083Z</time></trkpt><trkpt lat="41.0490383" lon="14.3251267"><ele>50.85714285714286</ele><time>2026-04-06T08:33:04.084Z</time></trkpt><trkpt lat="41.048965" lon="14.3251183"><ele>50.714285714285715</ele><time>2026-04-06T08:33:05.085Z</time></trkpt><trkpt lat="41.04889" lon="14.3251133"><ele>50.57142857142857</ele><time>2026-04-06T08:33:06.083Z</time></trkpt><trkpt lat="41.048815" lon="14.32511"><ele>50.42857142857143</ele><time>2026-04-06T08:33:07.083Z</time></trkpt><trkpt lat="41.0487417" lon="14.3251067"><ele>50.285714285714285</ele><time>2026-04-06T08:33:08.084Z</time></trkpt><trkpt lat="41.0486683" lon="14.3251017"><ele>50.142857142857146</ele><time>2026-04-06T08:33:09.084Z</time></trkpt><trkpt lat="41.048595" lon="14.3250967"><ele>50.0</ele><time>2026-04-06T08:33:10.086Z</time></trkpt><trkpt lat="41.0485233" lon="14.3250867"><ele>50.00000000000001</ele><time>2026-04-06T08:33:11.084Z</time></trkpt><trkpt lat="41.0484517" lon="14.3250817"><ele>50.0</ele><time>2026-04-06T08:33:12.085Z</time></trkpt><trkpt lat="41.04838" lon="14.3250817"><ele>50.0</ele><time>2026-04-06T08:33:13.085Z</time></trkpt><trkpt lat="41.048305" lon="14.3250783"><ele>50.0</ele><time>2026-04-06T08:33:14.084Z</time></trkpt><trkpt lat="41.04823" lon="14.3250733"><ele>50.0</ele><time>2026-04-06T08:33:15.084Z</time></trkpt><trkpt lat="41.0481567" lon="14.32507"><ele>50.00000000000001</ele><time>2026-04-06T08:33:16.083Z</time></trkpt><trkpt lat="41.0480817" lon="14.3250683"><ele>50.0</ele><time>2026-04-06T08:33:17.084Z</time></trkpt><trkpt lat="41.0480033" lon="14.3250633"><ele>49.66666666666667</ele><time>2026-04-06T08:33:18.084Z</time></trkpt><trkpt lat="41.0479267" lon="14.3250583"><ele>49.333333333333336</ele><time>2026-04-06T08:33:19.083Z</time></trkpt><trkpt lat="41.0478483" lon="14.3250533"><ele>49.0</ele><time>2026-04-06T08:33:20.084Z</time></trkpt><trkpt lat="41.0477683" lon="14.3250433"><ele>48.66666666666667</ele><time>2026-04-06T08:33:21.084Z</time></trkpt><trkpt lat="41.0476883" lon="14.3250383"><ele>48.333333333333336</ele><time>2026-04-06T08:33:22.085Z</time></trkpt><trkpt lat="41.0476117" lon="14.325035"><ele>48.0</ele><time>2026-04-06T08:33:23.086Z</time></trkpt><trkpt lat="41.0475333" lon="14.3250267"><ele>48.166666666666664</ele><time>2026-04-06T08:33:24.083Z</time></trkpt><trkpt lat="41.0474567" lon="14.32502"><ele>48.33333333333333</ele><time>2026-04-06T08:33:25.083Z</time></trkpt><trkpt lat="41.0473783" lon="14.3250133"><ele>48.5</ele><time>2026-04-06T08:33:26.084Z</time></trkpt><trkpt lat="41.0472967" lon="14.3250083"><ele>48.666666666666664</ele><time>2026-04-06T08:33:27.084Z</time></trkpt><trkpt lat="41.0472133" lon="14.3250017"><ele>48.83333333333333</ele><time>2026-04-06T08:33:28.084Z</time></trkpt><trkpt lat="41.04713" lon="14.324995"><ele>49.0</ele><time>2026-04-06T08:33:29.084Z</time></trkpt><trkpt lat="41.0470467" lon="14.3249817"><ele>48.99999999999999</ele><time>2026-04-06T08:33:30.084Z</time></trkpt><trkpt lat="41.0469633" lon="14.3249717"><ele>49.0</ele><time>2026-04-06T08:33:31.084Z</time></trkpt><trkpt lat="41.04688" lon="14.324965"><ele>49.0</ele><time>2026-04-06T08:33:32.085Z</time></trkpt><trkpt lat="41.0467983" lon="14.3249567"><ele>49.0</ele><time>2026-04-06T08:33:33.084Z</time></trkpt><trkpt lat="41.046715" lon="14.32495"><ele>48.99999999999999</ele><time>2026-04-06T08:33:34.083Z</time></trkpt><trkpt lat="41.04663" lon="14.3249433"><ele>49.0</ele><time>2026-04-06T08:33:35.084Z</time></trkpt><trkpt lat="41.046545" lon="14.3249367"><ele>48.49999999999999</ele><time>2026-04-06T08:33:36.085Z</time></trkpt><trkpt lat="41.0464617" lon="14.32493"><ele>48.0</ele><time>2026-04-06T08:33:37.084Z</time></trkpt><trkpt lat="41.0463817" lon="14.3249233"><ele>47.5</ele><time>2026-04-06T08:33:38.084Z</time></trkpt><trkpt lat="41.046305" lon="14.3249167"><ele>47.0</ele><time>2026-04-06T08:33:39.083Z</time></trkpt><trkpt lat="41.0462283" lon="14.3249083"><ele>46.5</ele><time>2026-04-06T08:33:40.084Z</time></trkpt><trkpt lat="41.046155" lon="14.3249"><ele>46.0</ele><time>2026-04-06T08:33:41.084Z</time></trkpt><trkpt lat="41.04608" lon="14.3248917"><ele>46.0</ele><time>2026-04-06T08:33:42.084Z</time></trkpt><trkpt lat="41.04601" lon="14.3248867"><ele>46.0</ele><time>2026-04-06T08:33:43.083Z</time></trkpt><trkpt lat="41.045945" lon="14.3248783"><ele>46.0</ele><time>2026-04-06T08:33:44.084Z</time></trkpt><trkpt lat="41.0458417" lon="14.324875"><ele>46.0</ele><time>2026-04-06T08:33:46.083Z</time></trkpt><trkpt lat="41.045745" lon="14.324875"><ele>46.0</ele><time>2026-04-06T08:33:49.085Z</time></trkpt><trkpt lat="41.045655" lon="14.324875"><ele>46.0</ele><time>2026-04-06T08:33:51.084Z</time></trkpt><trkpt lat="41.0455483" lon="14.3248683"><ele>45.833333333333336</ele><time>2026-04-06T08:33:53.084Z</time></trkpt><trkpt lat="41.0454267" lon="14.3248617"><ele>45.66666666666667</ele><time>2026-04-06T08:33:55.083Z</time></trkpt><trkpt lat="41.0453583" lon="14.3248517"><ele>45.5</ele><time>2026-04-06T08:33:56.086Z</time></trkpt><trkpt lat="41.0452917" lon="14.3248417"><ele>45.333333333333336</ele><time>2026-04-06T08:33:57.084Z</time></trkpt><trkpt lat="41.045225" lon="14.3248333"><ele>45.166666666666664</ele><time>2026-04-06T08:33:58.083Z</time></trkpt><trkpt lat="41.04516" lon="14.3248267"><ele>45.0</ele><time>2026-04-06T08:33:59.083Z</time></trkpt><trkpt lat="41.045085" lon="14.3248333"><ele>45.0</ele><time>2026-04-06T08:34:00.085Z</time></trkpt><trkpt lat="41.04501" lon="14.324825"><ele>45.0</ele><time>2026-04-06T08:34:01.084Z</time></trkpt><trkpt lat="41.0449333" lon="14.3248167"><ele>45.0</ele><time>2026-04-06T08:34:02.084Z</time></trkpt><trkpt lat="41.0448583" lon="14.32481"><ele>45.0</ele><time>2026-04-06T08:34:03.084Z</time></trkpt><trkpt lat="41.0447833" lon="14.324805"><ele>45.0</ele><time>2026-04-06T08:34:04.085Z</time></trkpt><trkpt lat="41.04471" lon="14.3248"><ele>45.0</ele><time>2026-04-06T08:34:05.085Z</time></trkpt><trkpt lat="41.04464" lon="14.32479"><ele>45.0</ele><time>2026-04-06T08:34:06.085Z</time></trkpt><trkpt lat="41.0445733" lon="14.324785"><ele>44.666666666666664</ele><time>2026-04-06T08:34:07.085Z</time></trkpt><trkpt lat="41.044505" lon="14.32478"><ele>44.333333333333336</ele><time>2026-04-06T08:34:08.084Z</time></trkpt><trkpt lat="41.0444367" lon="14.32477"><ele>44.0</ele><time>2026-04-06T08:34:09.085Z</time></trkpt><trkpt lat="41.0443717" lon="14.3247617"><ele>43.66666666666667</ele><time>2026-04-06T08:34:10.087Z</time></trkpt><trkpt lat="41.0443067" lon="14.3247617"><ele>43.333333333333336</ele><time>2026-04-06T08:34:11.083Z</time></trkpt><trkpt lat="41.0442417" lon="14.3247617"><ele>43.0</ele><time>2026-04-06T08:34:12.083Z</time></trkpt><trkpt lat="41.0441183" lon="14.32475"><ele>42.833333333333336</ele><time>2026-04-06T08:34:14.087Z</time></trkpt><trkpt lat="41.0440533" lon="14.3247283"><ele>42.66666666666667</ele><time>2026-04-06T08:34:15.083Z</time></trkpt><trkpt lat="41.0439883" lon="14.324715"><ele>42.5</ele><time>2026-04-06T08:34:16.084Z</time></trkpt><trkpt lat="41.0438817" lon="14.3247167"><ele>42.333333333333336</ele><time>2026-04-06T08:34:18.084Z</time></trkpt><trkpt lat="41.0437867" lon="14.324695"><ele>42.166666666666664</ele><time>2026-04-06T08:34:20.084Z</time></trkpt><trkpt lat="41.0436917" lon="14.324695"><ele>42.0</ele><time>2026-04-06T08:34:22.086Z</time></trkpt><trkpt lat="41.0435917" lon="14.3247333"><ele>42.0</ele><time>2026-04-06T08:34:24.085Z</time></trkpt><trkpt lat="41.0434817" lon="14.3247467"><ele>42.0</ele><time>2026-04-06T08:34:26.084Z</time></trkpt><trkpt lat="41.0433617" lon="14.32474"><ele>42.0</ele><time>2026-04-06T08:34:28.084Z</time></trkpt><trkpt lat="41.0432983" lon="14.3247367"><ele>42.0</ele><time>2026-04-06T08:34:29.084Z</time></trkpt><trkpt lat="41.0431717" lon="14.3247133"><ele>42.0</ele><time>2026-04-06T08:34:31.084Z</time></trkpt><trkpt lat="41.0431" lon="14.324695"><ele>41.857142857142854</ele><time>2026-04-06T08:34:32.084Z</time></trkpt><trkpt lat="41.0430267" lon="14.324675"><ele>41.714285714285715</ele><time>2026-04-06T08:34:33.085Z</time></trkpt><trkpt lat="41.0429533" lon="14.324655"><ele>41.57142857142857</ele><time>2026-04-06T08:34:34.084Z</time></trkpt><trkpt lat="41.0428833" lon="14.3246467"><ele>41.42857142857143</ele><time>2026-04-06T08:34:35.085Z</time></trkpt><trkpt lat="41.0428167" lon="14.324645"><ele>41.285714285714285</ele><time>2026-04-06T08:34:36.085Z</time></trkpt><trkpt lat="41.0427483" lon="14.324645"><ele>41.14285714285714</ele><time>2026-04-06T08:34:37.084Z</time></trkpt><trkpt lat="41.0426783" lon="14.3246417"><ele>41.0</ele><time>2026-04-06T08:34:38.085Z</time></trkpt><trkpt lat="41.04261" lon="14.3246333"><ele>40.99999999999999</ele><time>2026-04-06T08:34:39.085Z</time></trkpt><trkpt lat="41.0425417" lon="14.3246283"><ele>41.0</ele><time>2026-04-06T08:34:40.085Z</time></trkpt><trkpt lat="41.0424717" lon="14.3246283"><ele>41.0</ele><time>2026-04-06T08:34:41.084Z</time></trkpt><trkpt lat="41.0424033" lon="14.32463"><ele>41.0</ele><time>2026-04-06T08:34:42.085Z</time></trkpt><trkpt lat="41.0423317" lon="14.3246333"><ele>41.0</ele><time>2026-04-06T08:34:43.085Z</time></trkpt><trkpt lat="41.04226" lon="14.32464"><ele>40.99999999999999</ele><time>2026-04-06T08:34:44.086Z</time></trkpt><trkpt lat="41.0421867" lon="14.3246517"><ele>41.0</ele><time>2026-04-06T08:34:45.084Z</time></trkpt><trkpt lat="41.0421167" lon="14.324655"><ele>41.285714285714285</ele><time>2026-04-06T08:34:46.084Z</time></trkpt><trkpt lat="41.0420517" lon="14.3246533"><ele>41.57142857142857</ele><time>2026-04-06T08:34:47.084Z</time></trkpt><trkpt lat="41.0419817" lon="14.3246533"><ele>41.85714285714286</ele><time>2026-04-06T08:34:48.085Z</time></trkpt><trkpt lat="41.0419083" lon="14.324655"><ele>42.14285714285714</ele><time>2026-04-06T08:34:49.085Z</time></trkpt><trkpt lat="41.0418383" lon="14.324655"><ele>42.42857142857143</ele><time>2026-04-06T08:34:50.085Z</time></trkpt><trkpt lat="41.041765" lon="14.3246567"><ele>42.714285714285715</ele><time>2026-04-06T08:34:51.086Z</time></trkpt><trkpt lat="41.0416933" lon="14.3246567"><ele>43.0</ele><time>2026-04-06T08:34:52.086Z</time></trkpt><trkpt lat="41.0416233" lon="14.3246583"><ele>42.42857142857143</ele><time>2026-04-06T08:34:53.084Z</time></trkpt><trkpt lat="41.0415517" lon="14.3246617"><ele>41.85714285714286</ele><time>2026-04-06T08:34:54.086Z</time></trkpt><trkpt lat="41.04148" lon="14.3246633"><ele>41.28571428571429</ele><time>2026-04-06T08:34:55.086Z</time></trkpt><trkpt lat="41.0414083" lon="14.3246617"><ele>40.714285714285715</ele><time>2026-04-06T08:34:56.085Z</time></trkpt><trkpt lat="41.0413367" lon="14.32466"><ele>40.14285714285714</ele><time>2026-04-06T08:34:57.085Z</time></trkpt><trkpt lat="41.0412633" lon="14.3246583"><ele>39.57142857142858</ele><time>2026-04-06T08:34:58.084Z</time></trkpt><trkpt lat="41.04119" lon="14.3246567"><ele>39.0</ele><time>2026-04-06T08:34:59.084Z</time></trkpt><trkpt lat="41.041115" lon="14.3246583"><ele>39.0</ele><time>2026-04-06T08:35:00.084Z</time></trkpt><trkpt lat="41.0410417" lon="14.32466"><ele>39.0</ele><time>2026-04-06T08:35:01.084Z</time></trkpt><trkpt lat="41.04097" lon="14.3246567"><ele>39.0</ele><time>2026-04-06T08:35:02.085Z</time></trkpt><trkpt lat="41.0409017" lon="14.3246617"><ele>39.0</ele><time>2026-04-06T08:35:03.086Z</time></trkpt><trkpt lat="41.040835" lon="14.3246717"><ele>39.0</ele><time>2026-04-06T08:35:04.084Z</time></trkpt><trkpt lat="41.04077" lon="14.3246767"><ele>39.0</ele><time>2026-04-06T08:35:05.084Z</time></trkpt><trkpt lat="41.0407067" lon="14.3246833"><ele>39.0</ele><time>2026-04-06T08:35:06.085Z</time></trkpt><trkpt lat="41.04064" lon="14.32469"><ele>39.166666666666664</ele><time>2026-04-06T08:35:07.092Z</time></trkpt><trkpt lat="41.0405767" lon="14.3246933"><ele>39.333333333333336</ele><time>2026-04-06T08:35:08.085Z</time></trkpt><trkpt lat="41.0405133" lon="14.324695"><ele>39.5</ele><time>2026-04-06T08:35:09.084Z</time></trkpt><trkpt lat="41.0403867" lon="14.3246883"><ele>39.66666666666667</ele><time>2026-04-06T08:35:11.085Z</time></trkpt><trkpt lat="41.0403233" lon="14.32468"><ele>39.833333333333336</ele><time>2026-04-06T08:35:12.084Z</time></trkpt><trkpt lat="41.0401967" lon="14.324665"><ele>40.0</ele><time>2026-04-06T08:35:14.084Z</time></trkpt><trkpt lat="41.0401317" lon="14.3246667"><ele>40.0</ele><time>2026-04-06T08:35:15.084Z</time></trkpt><trkpt lat="41.0400667" lon="14.3246667"><ele>40.0</ele><time>2026-04-06T08:35:16.085Z</time></trkpt><trkpt lat="41.0399983" lon="14.324675"><ele>40.0</ele><time>2026-04-06T08:35:17.085Z</time></trkpt><trkpt lat="41.03993" lon="14.324675"><ele>40.0</ele><time>2026-04-06T08:35:18.085Z</time></trkpt><trkpt lat="41.0398617" lon="14.3246717"><ele>40.0</ele><time>2026-04-06T08:35:19.085Z</time></trkpt><trkpt lat="41.0397917" lon="14.3246733"><ele>40.0</ele><time>2026-04-06T08:35:20.084Z</time></trkpt><trkpt lat="41.0397217" lon="14.324675"><ele>40.0</ele><time>2026-04-06T08:35:21.084Z</time></trkpt><trkpt lat="41.03965" lon="14.3246767"><ele>39.857142857142854</ele><time>2026-04-06T08:35:22.084Z</time></trkpt><trkpt lat="41.0395817" lon="14.324675"><ele>39.714285714285715</ele><time>2026-04-06T08:35:23.085Z</time></trkpt><trkpt lat="41.0395167" lon="14.3246733"><ele>39.57142857142857</ele><time>2026-04-06T08:35:24.084Z</time></trkpt><trkpt lat="41.03945" lon="14.324675"><ele>39.42857142857143</ele><time>2026-04-06T08:35:25.086Z</time></trkpt><trkpt lat="41.0393783" lon="14.3246783"><ele>39.285714285714285</ele><time>2026-04-06T08:35:26.085Z</time></trkpt><trkpt lat="41.0393067" lon="14.3246833"><ele>39.142857142857146</ele><time>2026-04-06T08:35:27.084Z</time></trkpt><trkpt lat="41.0392317" lon="14.3246883"><ele>39.0</ele><time>2026-04-06T08:35:28.084Z</time></trkpt><trkpt lat="41.0391583" lon="14.32469"><ele>38.833333333333336</ele><time>2026-04-06T08:35:29.085Z</time></trkpt><trkpt lat="41.0390817" lon="14.3246883"><ele>38.666666666666664</ele><time>2026-04-06T08:35:30.085Z</time></trkpt><trkpt lat="41.0390033" lon="14.32469"><ele>38.5</ele><time>2026-04-06T08:35:31.086Z</time></trkpt><trkpt lat="41.038925" lon="14.3246933"><ele>38.33333333333333</ele><time>2026-04-06T08:35:32.085Z</time></trkpt><trkpt lat="41.0388483" lon="14.3246983"><ele>38.166666666666664</ele><time>2026-04-06T08:35:33.085Z</time></trkpt><trkpt lat="41.0387683" lon="14.3246983"><ele>38.0</ele><time>2026-04-06T08:35:34.084Z</time></trkpt><trkpt lat="41.03869" lon="14.3246983"><ele>38.0</ele><time>2026-04-06T08:35:35.084Z</time></trkpt><trkpt lat="41.0386117" lon="14.3246983"><ele>38.0</ele><time>2026-04-06T08:35:36.084Z</time></trkpt><trkpt lat="41.038535" lon="14.3247"><ele>38.0</ele><time>2026-04-06T08:35:37.085Z</time></trkpt><trkpt lat="41.0384567" lon="14.324705"><ele>38.0</ele><time>2026-04-06T08:35:38.085Z</time></trkpt><trkpt lat="41.03838" lon="14.3247117"><ele>38.0</ele><time>2026-04-06T08:35:39.084Z</time></trkpt><trkpt lat="41.0383" lon="14.32472"><ele>38.0</ele><time>2026-04-06T08:35:40.084Z</time></trkpt><trkpt lat="41.0382217" lon="14.324725"><ele>38.14285714285714</ele><time>2026-04-06T08:35:41.085Z</time></trkpt><trkpt lat="41.0381433" lon="14.3247267"><ele>38.28571428571429</ele><time>2026-04-06T08:35:42.085Z</time></trkpt><trkpt lat="41.03807" lon="14.324725"><ele>38.42857142857143</ele><time>2026-04-06T08:35:43.085Z</time></trkpt><trkpt lat="41.0379983" lon="14.3247167"><ele>38.57142857142857</ele><time>2026-04-06T08:35:44.084Z</time></trkpt><trkpt lat="41.0379283" lon="14.32471"><ele>38.71428571428571</ele><time>2026-04-06T08:35:45.086Z</time></trkpt><trkpt lat="41.0378567" lon="14.3247067"><ele>38.85714285714286</ele><time>2026-04-06T08:35:46.086Z</time></trkpt><trkpt lat="41.0377867" lon="14.3247033"><ele>39.0</ele><time>2026-04-06T08:35:47.087Z</time></trkpt><trkpt lat="41.037715" lon="14.3247017"><ele>39.0</ele><time>2026-04-06T08:35:48.085Z</time></trkpt><trkpt lat="41.0376433" lon="14.3247033"><ele>39.0</ele><time>2026-04-06T08:35:49.084Z</time></trkpt><trkpt lat="41.0375733" lon="14.324705"><ele>39.0</ele><time>2026-04-06T08:35:50.085Z</time></trkpt><trkpt lat="41.0375017" lon="14.3247033"><ele>39.0</ele><time>2026-04-06T08:35:51.085Z</time></trkpt><trkpt lat="41.0374317" lon="14.3247017"><ele>39.0</ele><time>2026-04-06T08:35:52.084Z</time></trkpt><trkpt lat="41.0373633" lon="14.324705"><ele>39.0</ele><time>2026-04-06T08:35:53.084Z</time></trkpt><trkpt lat="41.0372917" lon="14.3247117"><ele>39.0</ele><time>2026-04-06T08:35:54.085Z</time></trkpt><trkpt lat="41.0372183" lon="14.32471"><ele>39.142857142857146</ele><time>2026-04-06T08:35:55.085Z</time></trkpt><trkpt lat="41.0371467" lon="14.324705"><ele>39.285714285714285</ele><time>2026-04-06T08:35:56.084Z</time></trkpt><trkpt lat="41.0370717" lon="14.3247033"><ele>39.42857142857143</ele><time>2026-04-06T08:35:57.084Z</time></trkpt><trkpt lat="41.0369983" lon="14.3247"><ele>39.57142857142857</ele><time>2026-04-06T08:35:58.084Z</time></trkpt><trkpt lat="41.0369217" lon="14.3247"><ele>39.714285714285715</ele><time>2026-04-06T08:35:59.084Z</time></trkpt><trkpt lat="41.0368467" lon="14.3246967"><ele>39.857142857142854</ele><time>2026-04-06T08:36:00.084Z</time></trkpt><trkpt lat="41.03677" lon="14.3246933"><ele>40.0</ele><time>2026-04-06T08:36:01.086Z</time></trkpt><trkpt lat="41.036695" lon="14.3246883"><ele>39.5</ele><time>2026-04-06T08:36:02.085Z</time></trkpt><trkpt lat="41.0366167" lon="14.3246883"><ele>39.0</ele><time>2026-04-06T08:36:03.086Z</time></trkpt><trkpt lat="41.0365417" lon="14.3246867"><ele>38.5</ele><time>2026-04-06T08:36:04.086Z</time></trkpt><trkpt lat="41.0364617" lon="14.324685"><ele>38.0</ele><time>2026-04-06T08:36:05.085Z</time></trkpt><trkpt lat="41.0363867" lon="14.3246817"><ele>37.5</ele><time>2026-04-06T08:36:06.085Z</time></trkpt><trkpt lat="41.0363133" lon="14.3246783"><ele>37.0</ele><time>2026-04-06T08:36:07.088Z</time></trkpt><trkpt lat="41.0362383" lon="14.3246717"><ele>37.0</ele><time>2026-04-06T08:36:08.085Z</time></trkpt><trkpt lat="41.0361633" lon="14.324665"><ele>37.0</ele><time>2026-04-06T08:36:09.084Z</time></trkpt><trkpt lat="41.036085" lon="14.3246583"><ele>37.0</ele><time>2026-04-06T08:36:10.083Z</time></trkpt><trkpt lat="41.0360083" lon="14.3246483"><ele>37.0</ele><time>2026-04-06T08:36:11.084Z</time></trkpt><trkpt lat="41.0359333" lon="14.324645"><ele>37.0</ele><time>2026-04-06T08:36:12.083Z</time></trkpt><trkpt lat="41.0358617" lon="14.3246367"><ele>37.0</ele><time>2026-04-06T08:36:13.086Z</time></trkpt><trkpt lat="41.035785" lon="14.324635"><ele>36.66666666666667</ele><time>2026-04-06T08:36:14.084Z</time></trkpt><trkpt lat="41.0356967" lon="14.3246483"><ele>36.333333333333336</ele><time>2026-04-06T08:36:15.084Z</time></trkpt><trkpt lat="41.0356117" lon="14.32466"><ele>36.0</ele><time>2026-04-06T08:36:16.084Z</time></trkpt><trkpt lat="41.0355217" lon="14.32467"><ele>35.666666666666664</ele><time>2026-04-06T08:36:17.084Z</time></trkpt><trkpt lat="41.035435" lon="14.3246717"><ele>35.33333333333333</ele><time>2026-04-06T08:36:18.086Z</time></trkpt><trkpt lat="41.035345" lon="14.3246817"><ele>35.0</ele><time>2026-04-06T08:36:19.083Z</time></trkpt><trkpt lat="41.0352567" lon="14.3246867"><ele>35.0</ele><time>2026-04-06T08:36:20.083Z</time></trkpt><trkpt lat="41.035165" lon="14.3246933"><ele>35.0</ele><time>2026-04-06T08:36:21.084Z</time></trkpt><trkpt lat="41.0350767" lon="14.324695"><ele>35.0</ele><time>2026-04-06T08:36:22.084Z</time></trkpt><trkpt lat="41.03499" lon="14.324695"><ele>35.0</ele><time>2026-04-06T08:36:23.084Z</time></trkpt><trkpt lat="41.0349033" lon="14.3246983"><ele>35.0</ele><time>2026-04-06T08:36:24.084Z</time></trkpt><trkpt lat="41.0348183" lon="14.3246983"><ele>35.0</ele><time>2026-04-06T08:36:25.084Z</time></trkpt><trkpt lat="41.0347283" lon="14.324705"><ele>35.0</ele><time>2026-04-06T08:36:26.084Z</time></trkpt><trkpt lat="41.0346383" lon="14.3247083"><ele>35.0</ele><time>2026-04-06T08:36:27.084Z</time></trkpt><trkpt lat="41.0345483" lon="14.3247083"><ele>35.0</ele><time>2026-04-06T08:36:28.083Z</time></trkpt><trkpt lat="41.0344583" lon="14.3247067"><ele>35.0</ele><time>2026-04-06T08:36:29.084Z</time></trkpt><trkpt lat="41.0343633" lon="14.3247033"><ele>35.0</ele><time>2026-04-06T08:36:30.086Z</time></trkpt><trkpt lat="41.0342767" lon="14.324705"><ele>35.0</ele><time>2026-04-06T08:36:31.09Z</time></trkpt><trkpt lat="41.0341983" lon="14.3247133"><ele>35.0</ele><time>2026-04-06T08:36:32.087Z</time></trkpt><trkpt lat="41.0341067" lon="14.32471"><ele>35.0</ele><time>2026-04-06T08:36:33.085Z</time></trkpt><trkpt lat="41.03402" lon="14.32471"><ele>35.0</ele><time>2026-04-06T08:36:34.086Z</time></trkpt><trkpt lat="41.0339367" lon="14.324715"><ele>35.0</ele><time>2026-04-06T08:36:35.087Z</time></trkpt><trkpt lat="41.033855" lon="14.32472"><ele>35.0</ele><time>2026-04-06T08:36:36.09Z</time></trkpt><trkpt lat="41.0337717" lon="14.324725"><ele>34.8</ele><time>2026-04-06T08:36:37.086Z</time></trkpt><trkpt lat="41.0336033" lon="14.3247233"><ele>34.6</ele><time>2026-04-06T08:36:39.085Z</time></trkpt><trkpt lat="41.0335167" lon="14.32472"><ele>34.4</ele><time>2026-04-06T08:36:40.085Z</time></trkpt><trkpt lat="41.0334283" lon="14.32472"><ele>34.2</ele><time>2026-04-06T08:36:41.084Z</time></trkpt><trkpt lat="41.0333467" lon="14.3247233"><ele>34.0</ele><time>2026-04-06T08:36:42.084Z</time></trkpt><trkpt lat="41.0332683" lon="14.324725"><ele>34.0</ele><time>2026-04-06T08:36:43.085Z</time></trkpt><trkpt lat="41.0331917" lon="14.32473"><ele>34.0</ele><time>2026-04-06T08:36:44.085Z</time></trkpt><trkpt lat="41.0331167" lon="14.32473"><ele>34.0</ele><time>2026-04-06T08:36:45.085Z</time></trkpt><trkpt lat="41.0330367" lon="14.3247267"><ele>34.0</ele><time>2026-04-06T08:36:46.084Z</time></trkpt><trkpt lat="41.032955" lon="14.324725"><ele>34.0</ele><time>2026-04-06T08:36:47.085Z</time></trkpt><trkpt lat="41.0328733" lon="14.3247233"><ele>34.0</ele><time>2026-04-06T08:36:48.085Z</time></trkpt><trkpt lat="41.0327933" lon="14.3247233"><ele>34.0</ele><time>2026-04-06T08:36:49.085Z</time></trkpt><trkpt lat="41.03271" lon="14.3247283"><ele>34.0</ele><time>2026-04-06T08:36:50.085Z</time></trkpt><trkpt lat="41.0326233" lon="14.3247333"><ele>34.0</ele><time>2026-04-06T08:36:51.086Z</time></trkpt><trkpt lat="41.03254" lon="14.324735"><ele>34.0</ele><time>2026-04-06T08:36:52.084Z</time></trkpt><trkpt lat="41.0324567" lon="14.32473"><ele>34.0</ele><time>2026-04-06T08:36:53.084Z</time></trkpt><trkpt lat="41.0323667" lon="14.3247317"><ele>34.0</ele><time>2026-04-06T08:36:54.085Z</time></trkpt><trkpt lat="41.0322783" lon="14.32473"><ele>33.66666666666667</ele><time>2026-04-06T08:36:55.084Z</time></trkpt><trkpt lat="41.0321933" lon="14.32473"><ele>33.333333333333336</ele><time>2026-04-06T08:36:56.085Z</time></trkpt><trkpt lat="41.03211" lon="14.3247333"><ele>33.0</ele><time>2026-04-06T08:36:57.084Z</time></trkpt><trkpt lat="41.0320283" lon="14.3247383"><ele>32.666666666666664</ele><time>2026-04-06T08:36:58.084Z</time></trkpt><trkpt lat="41.0319433" lon="14.32474"><ele>32.33333333333333</ele><time>2026-04-06T08:36:59.086Z</time></trkpt><trkpt lat="41.0318567" lon="14.32474"><ele>32.0</ele><time>2026-04-06T08:37:00.085Z</time></trkpt><trkpt lat="41.03177" lon="14.3247417"><ele>31.999999999999996</ele><time>2026-04-06T08:37:01.085Z</time></trkpt><trkpt lat="41.03168" lon="14.3247467"><ele>32.0</ele><time>2026-04-06T08:37:02.085Z</time></trkpt><trkpt lat="41.0315917" lon="14.3247517"><ele>32.0</ele><time>2026-04-06T08:37:03.084Z</time></trkpt><trkpt lat="41.0315067" lon="14.324755"><ele>32.0</ele><time>2026-04-06T08:37:04.085Z</time></trkpt><trkpt lat="41.03142" lon="14.324755"><ele>31.999999999999996</ele><time>2026-04-06T08:37:05.086Z</time></trkpt><trkpt lat="41.0313333" lon="14.3247533"><ele>32.0</ele><time>2026-04-06T08:37:06.085Z</time></trkpt><trkpt lat="41.031245" lon="14.3247517"><ele>31.999999999999996</ele><time>2026-04-06T08:37:07.085Z</time></trkpt><trkpt lat="41.031155" lon="14.3247567"><ele>32.0</ele><time>2026-04-06T08:37:08.085Z</time></trkpt><trkpt lat="41.0310667" lon="14.3247583"><ele>32.0</ele><time>2026-04-06T08:37:09.085Z</time></trkpt><trkpt lat="41.0309783" lon="14.3247567"><ele>32.0</ele><time>2026-04-06T08:37:10.086Z</time></trkpt><trkpt lat="41.0308933" lon="14.3247567"><ele>31.999999999999996</ele><time>2026-04-06T08:37:11.086Z</time></trkpt><trkpt lat="41.030805" lon="14.3247567"><ele>32.0</ele><time>2026-04-06T08:37:12.087Z</time></trkpt><trkpt lat="41.03072" lon="14.32476"><ele>31.833333333333332</ele><time>2026-04-06T08:37:13.086Z</time></trkpt><trkpt lat="41.0306333" lon="14.3247633"><ele>31.666666666666664</ele><time>2026-04-06T08:37:14.085Z</time></trkpt><trkpt lat="41.0305483" lon="14.3247683"><ele>31.5</ele><time>2026-04-06T08:37:15.085Z</time></trkpt><trkpt lat="41.0304633" lon="14.32477"><ele>31.333333333333336</ele><time>2026-04-06T08:37:16.084Z</time></trkpt><trkpt lat="41.030375" lon="14.32477"><ele>31.166666666666668</ele><time>2026-04-06T08:37:17.084Z</time></trkpt><trkpt lat="41.0302867" lon="14.3247733"><ele>31.0</ele><time>2026-04-06T08:37:18.085Z</time></trkpt><trkpt lat="41.0301967" lon="14.324775"><ele>31.000000000000004</ele><time>2026-04-06T08:37:19.085Z</time></trkpt><trkpt lat="41.0301083" lon="14.3247767"><ele>31.0</ele><time>2026-04-06T08:37:20.085Z</time></trkpt><trkpt lat="41.0300233" lon="14.3247783"><ele>31.0</ele><time>2026-04-06T08:37:21.085Z</time></trkpt><trkpt lat="41.0299367" lon="14.32478"><ele>31.0</ele><time>2026-04-06T08:37:22.085Z</time></trkpt><trkpt lat="41.02985" lon="14.32478"><ele>31.000000000000004</ele><time>2026-04-06T08:37:23.085Z</time></trkpt><trkpt lat="41.029765" lon="14.32478"><ele>31.0</ele><time>2026-04-06T08:37:24.086Z</time></trkpt><trkpt lat="41.0296783" lon="14.3247817"><ele>31.166666666666668</ele><time>2026-04-06T08:37:25.085Z</time></trkpt><trkpt lat="41.02959" lon="14.3247883"><ele>31.333333333333336</ele><time>2026-04-06T08:37:26.084Z</time></trkpt><trkpt lat="41.0295033" lon="14.3247917"><ele>31.5</ele><time>2026-04-06T08:37:27.085Z</time></trkpt><trkpt lat="41.0294183" lon="14.324795"><ele>31.666666666666664</ele><time>2026-04-06T08:37:28.084Z</time></trkpt><trkpt lat="41.02933" lon="14.3247967"><ele>31.833333333333332</ele><time>2026-04-06T08:37:29.086Z</time></trkpt><trkpt lat="41.0292417" lon="14.324795"><ele>32.0</ele><time>2026-04-06T08:37:30.085Z</time></trkpt><trkpt lat="41.0291517" lon="14.3247933"><ele>31.999999999999996</ele><time>2026-04-06T08:37:31.085Z</time></trkpt><trkpt lat="41.0290617" lon="14.3247933"><ele>32.0</ele><time>2026-04-06T08:37:32.086Z</time></trkpt><trkpt lat="41.0289733" lon="14.324795"><ele>32.0</ele><time>2026-04-06T08:37:33.085Z</time></trkpt><trkpt lat="41.028885" lon="14.3248017"><ele>32.0</ele><time>2026-04-06T08:37:34.084Z</time></trkpt><trkpt lat="41.0287983" lon="14.3248033"><ele>31.999999999999996</ele><time>2026-04-06T08:37:35.087Z</time></trkpt><trkpt lat="41.0287083" lon="14.324805"><ele>32.0</ele><time>2026-04-06T08:37:36.084Z</time></trkpt><trkpt lat="41.0286183" lon="14.32481"><ele>31.999999999999996</ele><time>2026-04-06T08:37:37.085Z</time></trkpt><trkpt lat="41.02853" lon="14.324815"><ele>32.0</ele><time>2026-04-06T08:37:38.085Z</time></trkpt><trkpt lat="41.0284417" lon="14.324815"><ele>32.0</ele><time>2026-04-06T08:37:39.085Z</time></trkpt><trkpt lat="41.0283533" lon="14.324815"><ele>32.0</ele><time>2026-04-06T08:37:40.084Z</time></trkpt><trkpt lat="41.0282633" lon="14.3248117"><ele>31.999999999999996</ele><time>2026-04-06T08:37:41.085Z</time></trkpt><trkpt lat="41.028175" lon="14.3248117"><ele>32.0</ele><time>2026-04-06T08:37:42.085Z</time></trkpt><trkpt lat="41.028085" lon="14.3248133"><ele>32.2</ele><time>2026-04-06T08:37:43.084Z</time></trkpt><trkpt lat="41.0279967" lon="14.3248133"><ele>32.400000000000006</ele><time>2026-04-06T08:37:44.085Z</time></trkpt><trkpt lat="41.0279033" lon="14.3248117"><ele>32.599999999999994</ele><time>2026-04-06T08:37:45.085Z</time></trkpt><trkpt lat="41.0278083" lon="14.3248083"><ele>32.8</ele><time>2026-04-06T08:37:46.084Z</time></trkpt><trkpt lat="41.0277167" lon="14.32481"><ele>33.0</ele><time>2026-04-06T08:37:47.084Z</time></trkpt><trkpt lat="41.02763" lon="14.3248067"><ele>33.0</ele><time>2026-04-06T08:37:48.085Z</time></trkpt><trkpt lat="41.02754" lon="14.324805"><ele>33.0</ele><time>2026-04-06T08:37:49.084Z</time></trkpt><trkpt lat="41.0274517" lon="14.3248033"><ele>33.0</ele><time>2026-04-06T08:37:50.085Z</time></trkpt><trkpt lat="41.0273617" lon="14.3248017"><ele>33.0</ele><time>2026-04-06T08:37:51.085Z</time></trkpt><trkpt lat="41.0272717" lon="14.324805"><ele>33.0</ele><time>2026-04-06T08:37:52.085Z</time></trkpt><trkpt lat="41.0271783" lon="14.324805"><ele>32.4</ele><time>2026-04-06T08:37:53.085Z</time></trkpt><trkpt lat="41.0270867" lon="14.3248033"><ele>31.799999999999997</ele><time>2026-04-06T08:37:54.085Z</time></trkpt><trkpt lat="41.0269967" lon="14.3248033"><ele>31.2</ele><time>2026-04-06T08:37:55.085Z</time></trkpt><trkpt lat="41.026905" lon="14.324805"><ele>30.6</ele><time>2026-04-06T08:37:56.086Z</time></trkpt><trkpt lat="41.026815" lon="14.324805"><ele>30.0</ele><time>2026-04-06T08:37:57.085Z</time></trkpt><trkpt lat="41.026725" lon="14.324805"><ele>29.8</ele><time>2026-04-06T08:37:58.085Z</time></trkpt><trkpt lat="41.0266333" lon="14.324805"><ele>29.6</ele><time>2026-04-06T08:37:59.085Z</time></trkpt><trkpt lat="41.0265433" lon="14.3248083"><ele>29.4</ele><time>2026-04-06T08:38:00.084Z</time></trkpt><trkpt lat="41.02645" lon="14.324805"><ele>29.2</ele><time>2026-04-06T08:38:01.084Z</time></trkpt><trkpt lat="41.02636" lon="14.3248083"><ele>29.0</ele><time>2026-04-06T08:38:02.085Z</time></trkpt><trkpt lat="41.0262717" lon="14.324805"><ele>28.999999999999996</ele><time>2026-04-06T08:38:03.085Z</time></trkpt><trkpt lat="41.0261833" lon="14.3248033"><ele>29.0</ele><time>2026-04-06T08:38:04.084Z</time></trkpt><trkpt lat="41.0260933" lon="14.3248033"><ele>29.0</ele><time>2026-04-06T08:38:05.085Z</time></trkpt><trkpt lat="41.026005" lon="14.3248017"><ele>29.0</ele><time>2026-04-06T08:38:06.085Z</time></trkpt><trkpt lat="41.0259183" lon="14.3248067"><ele>28.999999999999996</ele><time>2026-04-06T08:38:07.085Z</time></trkpt><trkpt lat="41.02583" lon="14.3248133"><ele>29.0</ele><time>2026-04-06T08:38:08.086Z</time></trkpt><trkpt lat="41.025745" lon="14.3248217"><ele>28.799999999999997</ele><time>2026-04-06T08:38:09.085Z</time></trkpt><trkpt lat="41.0256583" lon="14.32483"><ele>28.599999999999998</ele><time>2026-04-06T08:38:10.084Z</time></trkpt><trkpt lat="41.0255683" lon="14.3248383"><ele>28.4</ele><time>2026-04-06T08:38:11.084Z</time></trkpt><trkpt lat="41.0254767" lon="14.32484"><ele>28.2</ele><time>2026-04-06T08:38:12.085Z</time></trkpt><trkpt lat="41.0253833" lon="14.3248433"><ele>28.0</ele><time>2026-04-06T08:38:13.085Z</time></trkpt><trkpt lat="41.0252917" lon="14.3248483"><ele>28.0</ele><time>2026-04-06T08:38:14.085Z</time></trkpt><trkpt lat="41.0252" lon="14.32485"><ele>27.999999999999996</ele><time>2026-04-06T08:38:15.084Z</time></trkpt><trkpt lat="41.0251117" lon="14.3248517"><ele>27.999999999999996</ele><time>2026-04-06T08:38:16.084Z</time></trkpt><trkpt lat="41.02502" lon="14.3248517"><ele>28.0</ele><time>2026-04-06T08:38:17.085Z</time></trkpt><trkpt lat="41.0249283" lon="14.3248533"><ele>28.0</ele><time>2026-04-06T08:38:18.085Z</time></trkpt><trkpt lat="41.0248367" lon="14.3248533"><ele>27.599999999999998</ele><time>2026-04-06T08:38:19.085Z</time></trkpt><trkpt lat="41.0247433" lon="14.3248467"><ele>27.199999999999996</ele><time>2026-04-06T08:38:20.085Z</time></trkpt><trkpt lat="41.0246533" lon="14.3248317"><ele>26.8</ele><time>2026-04-06T08:38:21.084Z</time></trkpt><trkpt lat="41.0245633" lon="14.3248067"><ele>26.4</ele><time>2026-04-06T08:38:22.084Z</time></trkpt><trkpt lat="41.0244733" lon="14.3247783"><ele>26.0</ele><time>2026-04-06T08:38:23.084Z</time></trkpt><trkpt lat="41.0243833" lon="14.3247617"><ele>26.0</ele><time>2026-04-06T08:38:24.085Z</time></trkpt><trkpt lat="41.0242917" lon="14.3247733"><ele>26.0</ele><time>2026-04-06T08:38:25.085Z</time></trkpt><trkpt lat="41.0242" lon="14.3247967"><ele>26.0</ele><time>2026-04-06T08:38:26.084Z</time></trkpt><trkpt lat="41.02411" lon="14.32481"><ele>26.0</ele><time>2026-04-06T08:38:27.084Z</time></trkpt><trkpt lat="41.0240183" lon="14.3248133"><ele>26.0</ele><time>2026-04-06T08:38:28.084Z</time></trkpt><trkpt lat="41.0239267" lon="14.3248117"><ele>26.200000000000003</ele><time>2026-04-06T08:38:29.085Z</time></trkpt><trkpt lat="41.0238367" lon="14.3248167"><ele>26.400000000000002</ele><time>2026-04-06T08:38:30.085Z</time></trkpt><trkpt lat="41.0237467" lon="14.324825"><ele>26.6</ele><time>2026-04-06T08:38:31.085Z</time></trkpt><trkpt lat="41.0236567" lon="14.324825"><ele>26.8</ele><time>2026-04-06T08:38:32.085Z</time></trkpt><trkpt lat="41.0235633" lon="14.3248233"><ele>27.0</ele><time>2026-04-06T08:38:33.085Z</time></trkpt><trkpt lat="41.0234733" lon="14.324825"><ele>27.0</ele><time>2026-04-06T08:38:34.085Z</time></trkpt><trkpt lat="41.0233817" lon="14.324825"><ele>27.000000000000004</ele><time>2026-04-06T08:38:35.087Z</time></trkpt><trkpt lat="41.0232883" lon="14.3248267"><ele>27.000000000000004</ele><time>2026-04-06T08:38:36.085Z</time></trkpt><trkpt lat="41.0231933" lon="14.32483"><ele>27.0</ele><time>2026-04-06T08:38:37.085Z</time></trkpt><trkpt lat="41.0231" lon="14.3248333"><ele>27.0</ele><time>2026-04-06T08:38:38.085Z</time></trkpt><trkpt lat="41.0230083" lon="14.3248367"><ele>27.0</ele><time>2026-04-06T08:38:39.087Z</time></trkpt><trkpt lat="41.0229183" lon="14.324835"><ele>27.0</ele><time>2026-04-06T08:38:40.086Z</time></trkpt><trkpt lat="41.02283" lon="14.32483"><ele>27.0</ele><time>2026-04-06T08:38:41.086Z</time></trkpt><trkpt lat="41.0227417" lon="14.32483"><ele>27.0</ele><time>2026-04-06T08:38:42.086Z</time></trkpt><trkpt lat="41.022655" lon="14.32483"><ele>27.0</ele><time>2026-04-06T08:38:43.085Z</time></trkpt><trkpt lat="41.0225667" lon="14.32483"><ele>27.0</ele><time>2026-04-06T08:38:44.085Z</time></trkpt><trkpt lat="41.0224783" lon="14.32483"><ele>27.0</ele><time>2026-04-06T08:38:45.086Z</time></trkpt><trkpt lat="41.0223883" lon="14.3248317"><ele>27.000000000000004</ele><time>2026-04-06T08:38:46.088Z</time></trkpt><trkpt lat="41.0222983" lon="14.3248317"><ele>27.000000000000004</ele><time>2026-04-06T08:38:47.084Z</time></trkpt><trkpt lat="41.0222083" lon="14.32483"><ele>27.0</ele><time>2026-04-06T08:38:48.085Z</time></trkpt><trkpt lat="41.0221167" lon="14.3248267"><ele>27.0</ele><time>2026-04-06T08:38:49.084Z</time></trkpt><trkpt lat="41.022025" lon="14.324825"><ele>27.0</ele><time>2026-04-06T08:38:50.084Z</time></trkpt><trkpt lat="41.021935" lon="14.324825"><ele>27.000000000000004</ele><time>2026-04-06T08:38:51.085Z</time></trkpt><trkpt lat="41.0218417" lon="14.324825"><ele>27.000000000000004</ele><time>2026-04-06T08:38:52.084Z</time></trkpt><trkpt lat="41.0217533" lon="14.3248233"><ele>27.0</ele><time>2026-04-06T08:38:53.089Z</time></trkpt><trkpt lat="41.0216617" lon="14.324825"><ele>27.0</ele><time>2026-04-06T08:38:54.085Z</time></trkpt><trkpt lat="41.02157" lon="14.3248233"><ele>26.833333333333332</ele><time>2026-04-06T08:38:55.084Z</time></trkpt><trkpt lat="41.0214817" lon="14.3248217"><ele>26.666666666666664</ele><time>2026-04-06T08:38:56.085Z</time></trkpt><trkpt lat="41.0213933" lon="14.3248217"><ele>26.5</ele><time>2026-04-06T08:38:57.085Z</time></trkpt><trkpt lat="41.0213017" lon="14.3248217"><ele>26.333333333333332</ele><time>2026-04-06T08:38:58.084Z</time></trkpt><trkpt lat="41.0212133" lon="14.324825"><ele>26.166666666666664</ele><time>2026-04-06T08:38:59.085Z</time></trkpt><trkpt lat="41.0211217" lon="14.3248267"><ele>26.0</ele><time>2026-04-06T08:39:00.085Z</time></trkpt><trkpt lat="41.0210317" lon="14.3248267"><ele>26.0</ele><time>2026-04-06T08:39:01.085Z</time></trkpt><trkpt lat="41.0209417" lon="14.3248283"><ele>26.0</ele><time>2026-04-06T08:39:02.085Z</time></trkpt><trkpt lat="41.0208517" lon="14.32483"><ele>26.0</ele><time>2026-04-06T08:39:03.084Z</time></trkpt><trkpt lat="41.02076" lon="14.3248317"><ele>26.0</ele><time>2026-04-06T08:39:04.085Z</time></trkpt><trkpt lat="41.02067" lon="14.3248317"><ele>26.0</ele><time>2026-04-06T08:39:05.085Z</time></trkpt><trkpt lat="41.0205783" lon="14.3248333"><ele>25.833333333333332</ele><time>2026-04-06T08:39:06.085Z</time></trkpt><trkpt lat="41.0204883" lon="14.3248367"><ele>25.666666666666664</ele><time>2026-04-06T08:39:07.085Z</time></trkpt><trkpt lat="41.0203983" lon="14.3248367"><ele>25.5</ele><time>2026-04-06T08:39:08.085Z</time></trkpt><trkpt lat="41.0203083" lon="14.3248367"><ele>25.333333333333336</ele><time>2026-04-06T08:39:09.086Z</time></trkpt><trkpt lat="41.0202167" lon="14.32484"><ele>25.166666666666668</ele><time>2026-04-06T08:39:10.084Z</time></trkpt><trkpt lat="41.02013" lon="14.3248433"><ele>25.0</ele><time>2026-04-06T08:39:11.086Z</time></trkpt><trkpt lat="41.0200417" lon="14.32484"><ele>24.666666666666668</ele><time>2026-04-06T08:39:12.085Z</time></trkpt><trkpt lat="41.019955" lon="14.32484"><ele>24.333333333333336</ele><time>2026-04-06T08:39:13.085Z</time></trkpt><trkpt lat="41.0198667" lon="14.3248417"><ele>24.0</ele><time>2026-04-06T08:39:14.086Z</time></trkpt><trkpt lat="41.0197767" lon="14.324845"><ele>23.666666666666668</ele><time>2026-04-06T08:39:15.085Z</time></trkpt><trkpt lat="41.019685" lon="14.3248483"><ele>23.333333333333336</ele><time>2026-04-06T08:39:16.084Z</time></trkpt><trkpt lat="41.0195967" lon="14.3248483"><ele>23.0</ele><time>2026-04-06T08:39:17.085Z</time></trkpt><trkpt lat="41.0195067" lon="14.32485"><ele>23.0</ele><time>2026-04-06T08:39:18.085Z</time></trkpt><trkpt lat="41.019415" lon="14.324855"><ele>23.0</ele><time>2026-04-06T08:39:19.086Z</time></trkpt><trkpt lat="41.0193233" lon="14.32487"><ele>23.0</ele><time>2026-04-06T08:39:20.087Z</time></trkpt><trkpt lat="41.0192317" lon="14.3248833"><ele>23.0</ele><time>2026-04-06T08:39:21.085Z</time></trkpt><trkpt lat="41.01914" lon="14.324885"><ele>23.0</ele><time>2026-04-06T08:39:22.086Z</time></trkpt><trkpt lat="41.0190517" lon="14.32488"><ele>23.166666666666668</ele><time>2026-04-06T08:39:23.085Z</time></trkpt><trkpt lat="41.0189633" lon="14.324875"><ele>23.333333333333336</ele><time>2026-04-06T08:39:24.085Z</time></trkpt><trkpt lat="41.018875" lon="14.32488"><ele>23.5</ele><time>2026-04-06T08:39:25.085Z</time></trkpt><trkpt lat="41.01879" lon="14.324885"><ele>23.666666666666668</ele><time>2026-04-06T08:39:26.087Z</time></trkpt><trkpt lat="41.0187067" lon="14.32489"><ele>23.833333333333332</ele><time>2026-04-06T08:39:27.085Z</time></trkpt><trkpt lat="41.0186267" lon="14.3248917"><ele>24.0</ele><time>2026-04-06T08:39:28.085Z</time></trkpt><trkpt lat="41.0185483" lon="14.32489"><ele>24.0</ele><time>2026-04-06T08:39:29.086Z</time></trkpt><trkpt lat="41.01847" lon="14.3248883"><ele>24.0</ele><time>2026-04-06T08:39:30.086Z</time></trkpt><trkpt lat="41.0183833" lon="14.324895"><ele>24.0</ele><time>2026-04-06T08:39:31.084Z</time></trkpt><trkpt lat="41.0183" lon="14.3248967"><ele>24.0</ele><time>2026-04-06T08:39:32.086Z</time></trkpt><trkpt lat="41.018215" lon="14.3248967"><ele>24.0</ele><time>2026-04-06T08:39:33.087Z</time></trkpt><trkpt lat="41.0181317" lon="14.324895"><ele>24.0</ele><time>2026-04-06T08:39:34.084Z</time></trkpt><trkpt lat="41.0180417" lon="14.3249"><ele>23.833333333333332</ele><time>2026-04-06T08:39:35.088Z</time></trkpt><trkpt lat="41.017955" lon="14.3249"><ele>23.666666666666668</ele><time>2026-04-06T08:39:36.085Z</time></trkpt><trkpt lat="41.0178717" lon="14.3249"><ele>23.5</ele><time>2026-04-06T08:39:37.085Z</time></trkpt><trkpt lat="41.0177883" lon="14.3248983"><ele>23.333333333333336</ele><time>2026-04-06T08:39:38.085Z</time></trkpt><trkpt lat="41.0177033" lon="14.3248967"><ele>23.166666666666668</ele><time>2026-04-06T08:39:39.084Z</time></trkpt><trkpt lat="41.01762" lon="14.3248933"><ele>23.0</ele><time>2026-04-06T08:39:40.084Z</time></trkpt><trkpt lat="41.0175367" lon="14.3249"><ele>23.5</ele><time>2026-04-06T08:39:41.085Z</time></trkpt><trkpt lat="41.0174517" lon="14.3249033"><ele>24.0</ele><time>2026-04-06T08:39:42.085Z</time></trkpt><trkpt lat="41.017365" lon="14.3249067"><ele>24.5</ele><time>2026-04-06T08:39:43.085Z</time></trkpt><trkpt lat="41.0172817" lon="14.32491"><ele>25.0</ele><time>2026-04-06T08:39:44.085Z</time></trkpt><trkpt lat="41.0172" lon="14.32491"><ele>25.499999999999996</ele><time>2026-04-06T08:39:45.086Z</time></trkpt><trkpt lat="41.0171167" lon="14.3249117"><ele>26.0</ele><time>2026-04-06T08:39:46.084Z</time></trkpt><trkpt lat="41.0170333" lon="14.3249083"><ele>25.999999999999996</ele><time>2026-04-06T08:39:47.085Z</time></trkpt><trkpt lat="41.01695" lon="14.3249083"><ele>26.0</ele><time>2026-04-06T08:39:48.086Z</time></trkpt><trkpt lat="41.0168667" lon="14.3249117"><ele>26.0</ele><time>2026-04-06T08:39:49.085Z</time></trkpt><trkpt lat="41.0167817" lon="14.3249167"><ele>26.0</ele><time>2026-04-06T08:39:50.086Z</time></trkpt><trkpt lat="41.0166983" lon="14.3249183"><ele>25.999999999999996</ele><time>2026-04-06T08:39:51.086Z</time></trkpt><trkpt lat="41.0166167" lon="14.32492"><ele>26.0</ele><time>2026-04-06T08:39:52.085Z</time></trkpt><trkpt lat="41.016535" lon="14.324915"><ele>25.666666666666664</ele><time>2026-04-06T08:39:53.086Z</time></trkpt><trkpt lat="41.0164533" lon="14.3249133"><ele>25.333333333333332</ele><time>2026-04-06T08:39:54.085Z</time></trkpt><trkpt lat="41.01637" lon="14.32491"><ele>25.0</ele><time>2026-04-06T08:39:55.084Z</time></trkpt><trkpt lat="41.0162867" lon="14.3249083"><ele>24.666666666666664</ele><time>2026-04-06T08:39:56.085Z</time></trkpt><trkpt lat="41.0162033" lon="14.32491"><ele>24.333333333333332</ele><time>2026-04-06T08:39:57.085Z</time></trkpt><trkpt lat="41.01612" lon="14.32491"><ele>24.0</ele><time>2026-04-06T08:39:58.084Z</time></trkpt><trkpt lat="41.016035" lon="14.3249117"><ele>24.0</ele><time>2026-04-06T08:39:59.085Z</time></trkpt><trkpt lat="41.01595" lon="14.3249133"><ele>24.0</ele><time>2026-04-06T08:40:00.085Z</time></trkpt><trkpt lat="41.0158667" lon="14.3249133"><ele>24.0</ele><time>2026-04-06T08:40:01.085Z</time></trkpt><trkpt lat="41.0157867" lon="14.3249117"><ele>24.0</ele><time>2026-04-06T08:40:02.085Z</time></trkpt><trkpt lat="41.015705" lon="14.3249067"><ele>24.0</ele><time>2026-04-06T08:40:03.085Z</time></trkpt><trkpt lat="41.0156217" lon="14.3249033"><ele>24.0</ele><time>2026-04-06T08:40:04.086Z</time></trkpt><trkpt lat="41.0155383" lon="14.3248967"><ele>24.0</ele><time>2026-04-06T08:40:05.085Z</time></trkpt><trkpt lat="41.015455" lon="14.32489"><ele>24.0</ele><time>2026-04-06T08:40:06.085Z</time></trkpt><trkpt lat="41.0153733" lon="14.3248817"><ele>24.0</ele><time>2026-04-06T08:40:07.086Z</time></trkpt><trkpt lat="41.0152967" lon="14.324875"><ele>24.0</ele><time>2026-04-06T08:40:08.085Z</time></trkpt><trkpt lat="41.0152217" lon="14.3248683"><ele>24.0</ele><time>2026-04-06T08:40:09.086Z</time></trkpt><trkpt lat="41.0151467" lon="14.32486"><ele>24.0</ele><time>2026-04-06T08:40:10.085Z</time></trkpt><trkpt lat="41.0150733" lon="14.324845"><ele>23.999999999999996</ele><time>2026-04-06T08:40:11.085Z</time></trkpt><trkpt lat="41.015005" lon="14.3248283"><ele>24.0</ele><time>2026-04-06T08:40:12.085Z</time></trkpt><trkpt lat="41.014935" lon="14.3248133"><ele>24.0</ele><time>2026-04-06T08:40:13.084Z</time></trkpt><trkpt lat="41.0148667" lon="14.3247967"><ele>24.0</ele><time>2026-04-06T08:40:14.086Z</time></trkpt><trkpt lat="41.0147983" lon="14.3247783"><ele>24.0</ele><time>2026-04-06T08:40:15.085Z</time></trkpt><trkpt lat="41.0147283" lon="14.3247533"><ele>23.999999999999996</ele><time>2026-04-06T08:40:16.084Z</time></trkpt><trkpt lat="41.01466" lon="14.3247233"><ele>24.0</ele><time>2026-04-06T08:40:17.085Z</time></trkpt><trkpt lat="41.0145967" lon="14.32468"><ele>24.142857142857142</ele><time>2026-04-06T08:40:18.085Z</time></trkpt><trkpt lat="41.01454" lon="14.3246367"><ele>24.285714285714285</ele><time>2026-04-06T08:40:19.085Z</time></trkpt><trkpt lat="41.014485" lon="14.3245933"><ele>24.42857142857143</ele><time>2026-04-06T08:40:20.086Z</time></trkpt><trkpt lat="41.014425" lon="14.3245533"><ele>24.57142857142857</ele><time>2026-04-06T08:40:21.085Z</time></trkpt><trkpt lat="41.0143533" lon="14.324515"><ele>24.714285714285715</ele><time>2026-04-06T08:40:22.088Z</time></trkpt><trkpt lat="41.01428" lon="14.3244733"><ele>24.857142857142858</ele><time>2026-04-06T08:40:23.086Z</time></trkpt><trkpt lat="41.0142083" lon="14.324435"><ele>25.0</ele><time>2026-04-06T08:40:24.086Z</time></trkpt><trkpt lat="41.0141333" lon="14.3244017"><ele>25.000000000000004</ele><time>2026-04-06T08:40:25.085Z</time></trkpt><trkpt lat="41.0140617" lon="14.3243583"><ele>25.0</ele><time>2026-04-06T08:40:26.087Z</time></trkpt><trkpt lat="41.0139933" lon="14.3243117"><ele>25.0</ele><time>2026-04-06T08:40:27.085Z</time></trkpt><trkpt lat="41.01393" lon="14.32427"><ele>25.0</ele><time>2026-04-06T08:40:28.085Z</time></trkpt><trkpt lat="41.0138667" lon="14.32423"><ele>25.0</ele><time>2026-04-06T08:40:29.085Z</time></trkpt><trkpt lat="41.013805" lon="14.3241867"><ele>25.000000000000004</ele><time>2026-04-06T08:40:30.086Z</time></trkpt><trkpt lat="41.0137417" lon="14.324145"><ele>25.0</ele><time>2026-04-06T08:40:31.085Z</time></trkpt><trkpt lat="41.01368" lon="14.3241"><ele>25.000000000000004</ele><time>2026-04-06T08:40:32.085Z</time></trkpt><trkpt lat="41.0136183" lon="14.32405"><ele>25.0</ele><time>2026-04-06T08:40:33.085Z</time></trkpt><trkpt lat="41.01356" lon="14.3239967"><ele>25.0</ele><time>2026-04-06T08:40:34.085Z</time></trkpt><trkpt lat="41.0135017" lon="14.3239517"><ele>25.0</ele><time>2026-04-06T08:40:35.086Z</time></trkpt><trkpt lat="41.0134417" lon="14.3238983"><ele>25.0</ele><time>2026-04-06T08:40:36.085Z</time></trkpt><trkpt lat="41.01338" lon="14.3238467"><ele>25.000000000000004</ele><time>2026-04-06T08:40:37.085Z</time></trkpt><trkpt lat="41.01332" lon="14.3237967"><ele>25.0</ele><time>2026-04-06T08:40:38.084Z</time></trkpt><trkpt lat="41.0132583" lon="14.323745"><ele>25.142857142857146</ele><time>2026-04-06T08:40:39.085Z</time></trkpt><trkpt lat="41.0132017" lon="14.3236917"><ele>25.285714285714285</ele><time>2026-04-06T08:40:40.087Z</time></trkpt><trkpt lat="41.0131417" lon="14.3236367"><ele>25.42857142857143</ele><time>2026-04-06T08:40:41.084Z</time></trkpt><trkpt lat="41.0130817" lon="14.32358"><ele>25.571428571428573</ele><time>2026-04-06T08:40:42.085Z</time></trkpt><trkpt lat="41.0130233" lon="14.3235233"><ele>25.714285714285715</ele><time>2026-04-06T08:40:43.086Z</time></trkpt><trkpt lat="41.0129633" lon="14.3234717"><ele>25.857142857142858</ele><time>2026-04-06T08:40:44.085Z</time></trkpt><trkpt lat="41.0129017" lon="14.3234183"><ele>26.0</ele><time>2026-04-06T08:40:45.086Z</time></trkpt><trkpt lat="41.0128367" lon="14.3233617"><ele>25.999999999999996</ele><time>2026-04-06T08:40:46.085Z</time></trkpt><trkpt lat="41.01277" lon="14.3232983"><ele>26.0</ele><time>2026-04-06T08:40:47.085Z</time></trkpt><trkpt lat="41.0127117" lon="14.3232067"><ele>26.0</ele><time>2026-04-06T08:40:48.085Z</time></trkpt><trkpt lat="41.01265" lon="14.3231133"><ele>26.0</ele><time>2026-04-06T08:40:49.086Z</time></trkpt><trkpt lat="41.0125867" lon="14.323035"><ele>25.999999999999996</ele><time>2026-04-06T08:40:50.085Z</time></trkpt><trkpt lat="41.01252" lon="14.3229533"><ele>26.0</ele><time>2026-04-06T08:40:51.085Z</time></trkpt><trkpt lat="41.0124533" lon="14.322865"><ele>25.8</ele><time>2026-04-06T08:40:52.085Z</time></trkpt><trkpt lat="41.0123817" lon="14.3227783"><ele>25.6</ele><time>2026-04-06T08:40:53.086Z</time></trkpt><trkpt lat="41.01231" lon="14.3226917"><ele>25.4</ele><time>2026-04-06T08:40:54.085Z</time></trkpt><trkpt lat="41.0122367" lon="14.3226117"><ele>25.2</ele><time>2026-04-06T08:40:55.084Z</time></trkpt><trkpt lat="41.012165" lon="14.3225317"><ele>25.0</ele><time>2026-04-06T08:40:56.087Z</time></trkpt><trkpt lat="41.012095" lon="14.322445"><ele>25.000000000000004</ele><time>2026-04-06T08:40:57.085Z</time></trkpt><trkpt lat="41.012025" lon="14.3223683"><ele>25.0</ele><time>2026-04-06T08:40:58.084Z</time></trkpt><trkpt lat="41.0119567" lon="14.3222917"><ele>25.0</ele><time>2026-04-06T08:40:59.085Z</time></trkpt><trkpt lat="41.01189" lon="14.3222133"><ele>25.0</ele><time>2026-04-06T08:41:00.085Z</time></trkpt><trkpt lat="41.011825" lon="14.3221333"><ele>25.000000000000004</ele><time>2026-04-06T08:41:01.085Z</time></trkpt><trkpt lat="41.0117633" lon="14.3220517"><ele>25.0</ele><time>2026-04-06T08:41:02.085Z</time></trkpt><trkpt lat="41.0116983" lon="14.3219683"><ele>24.6</ele><time>2026-04-06T08:41:03.085Z</time></trkpt><trkpt lat="41.01163" lon="14.321885"><ele>24.2</ele><time>2026-04-06T08:41:04.084Z</time></trkpt><trkpt lat="41.0115583" lon="14.3218067"><ele>23.799999999999997</ele><time>2026-04-06T08:41:05.086Z</time></trkpt><trkpt lat="41.0114867" lon="14.3217283"><ele>23.4</ele><time>2026-04-06T08:41:06.085Z</time></trkpt><trkpt lat="41.0114133" lon="14.3216483"><ele>23.0</ele><time>2026-04-06T08:41:07.085Z</time></trkpt><trkpt lat="41.0113417" lon="14.3215683"><ele>23.0</ele><time>2026-04-06T08:41:08.086Z</time></trkpt><trkpt lat="41.0112733" lon="14.321485"><ele>23.0</ele><time>2026-04-06T08:41:09.086Z</time></trkpt><trkpt lat="41.011205" lon="14.3213967"><ele>23.0</ele><time>2026-04-06T08:41:10.084Z</time></trkpt><trkpt lat="41.0111367" lon="14.32131"><ele>23.0</ele><time>2026-04-06T08:41:11.084Z</time></trkpt><trkpt lat="41.0110683" lon="14.3212267"><ele>23.0</ele><time>2026-04-06T08:41:12.085Z</time></trkpt><trkpt lat="41.0109983" lon="14.3211467"><ele>22.799999999999997</ele><time>2026-04-06T08:41:13.085Z</time></trkpt><trkpt lat="41.0109333" lon="14.3210667"><ele>22.6</ele><time>2026-04-06T08:41:14.085Z</time></trkpt><trkpt lat="41.0108683" lon="14.32098"><ele>22.4</ele><time>2026-04-06T08:41:15.085Z</time></trkpt><trkpt lat="41.0108017" lon="14.320895"><ele>22.200000000000003</ele><time>2026-04-06T08:41:16.085Z</time></trkpt><trkpt lat="41.0107317" lon="14.3208133"><ele>22.0</ele><time>2026-04-06T08:41:17.086Z</time></trkpt><trkpt lat="41.0106583" lon="14.320735"><ele>22.0</ele><time>2026-04-06T08:41:18.087Z</time></trkpt><trkpt lat="41.0105817" lon="14.3206583"><ele>22.0</ele><time>2026-04-06T08:41:19.085Z</time></trkpt><trkpt lat="41.010505" lon="14.3205883"><ele>22.0</ele><time>2026-04-06T08:41:20.085Z</time></trkpt><trkpt lat="41.0104283" lon="14.32053"><ele>22.0</ele><time>2026-04-06T08:41:21.085Z</time></trkpt><trkpt lat="41.01035" lon="14.3204733"><ele>22.0</ele><time>2026-04-06T08:41:22.084Z</time></trkpt><trkpt lat="41.01027" lon="14.3204183"><ele>22.200000000000003</ele><time>2026-04-06T08:41:23.085Z</time></trkpt><trkpt lat="41.010185" lon="14.3203717"><ele>22.4</ele><time>2026-04-06T08:41:24.086Z</time></trkpt><trkpt lat="41.010095" lon="14.3203333"><ele>22.6</ele><time>2026-04-06T08:41:25.086Z</time></trkpt><trkpt lat="41.010005" lon="14.3202983"><ele>22.799999999999997</ele><time>2026-04-06T08:41:26.085Z</time></trkpt><trkpt lat="41.0099117" lon="14.3202617"><ele>23.0</ele><time>2026-04-06T08:41:27.085Z</time></trkpt><trkpt lat="41.0098183" lon="14.3202267"><ele>22.4</ele><time>2026-04-06T08:41:28.085Z</time></trkpt><trkpt lat="41.0097267" lon="14.3201917"><ele>21.799999999999997</ele><time>2026-04-06T08:41:29.085Z</time></trkpt><trkpt lat="41.0096317" lon="14.3201583"><ele>21.2</ele><time>2026-04-06T08:41:30.086Z</time></trkpt><trkpt lat="41.009535" lon="14.3201233"><ele>20.6</ele><time>2026-04-06T08:41:31.086Z</time></trkpt><trkpt lat="41.0094367" lon="14.3200867"><ele>20.0</ele><time>2026-04-06T08:41:32.087Z</time></trkpt><trkpt lat="41.0093383" lon="14.3200467"><ele>20.0</ele><time>2026-04-06T08:41:33.085Z</time></trkpt><trkpt lat="41.0092383" lon="14.32001"><ele>20.0</ele><time>2026-04-06T08:41:34.085Z</time></trkpt><trkpt lat="41.0091417" lon="14.31997"><ele>20.0</ele><time>2026-04-06T08:41:35.086Z</time></trkpt><trkpt lat="41.0090433" lon="14.3199333"><ele>20.0</ele><time>2026-04-06T08:41:36.086Z</time></trkpt><trkpt lat="41.0089433" lon="14.319905"><ele>20.0</ele><time>2026-04-06T08:41:37.085Z</time></trkpt><trkpt lat="41.0088483" lon="14.319875"><ele>20.0</ele><time>2026-04-06T08:41:38.085Z</time></trkpt><trkpt lat="41.0087533" lon="14.3198433"><ele>20.0</ele><time>2026-04-06T08:41:39.085Z</time></trkpt><trkpt lat="41.00866" lon="14.3198133"><ele>20.0</ele><time>2026-04-06T08:41:40.085Z</time></trkpt><trkpt lat="41.0085683" lon="14.31978"><ele>20.0</ele><time>2026-04-06T08:41:41.085Z</time></trkpt><trkpt lat="41.0084783" lon="14.3197417"><ele>20.0</ele><time>2026-04-06T08:41:42.086Z</time></trkpt><trkpt lat="41.00839" lon="14.3197133"><ele>20.0</ele><time>2026-04-06T08:41:43.084Z</time></trkpt><trkpt lat="41.0082983" lon="14.3196867"><ele>20.0</ele><time>2026-04-06T08:41:44.085Z</time></trkpt><trkpt lat="41.0082133" lon="14.3196517"><ele>20.0</ele><time>2026-04-06T08:41:45.085Z</time></trkpt><trkpt lat="41.0081283" lon="14.3196183"><ele>20.0</ele><time>2026-04-06T08:41:46.085Z</time></trkpt><trkpt lat="41.0080417" lon="14.319585"><ele>20.0</ele><time>2026-04-06T08:41:47.086Z</time></trkpt><trkpt lat="41.007955" lon="14.31955"><ele>20.0</ele><time>2026-04-06T08:41:48.086Z</time></trkpt><trkpt lat="41.0078717" lon="14.3195233"><ele>20.0</ele><time>2026-04-06T08:41:49.085Z</time></trkpt><trkpt lat="41.007785" lon="14.3195017"><ele>20.0</ele><time>2026-04-06T08:41:50.1Z</time></trkpt><trkpt lat="41.0076917" lon="14.3194767"><ele>20.0</ele><time>2026-04-06T08:41:51.085Z</time></trkpt><trkpt lat="41.0075983" lon="14.3194483"><ele>20.0</ele><time>2026-04-06T08:41:52.086Z</time></trkpt><trkpt lat="41.0075083" lon="14.3194183"><ele>20.333333333333336</ele><time>2026-04-06T08:41:53.085Z</time></trkpt><trkpt lat="41.0074283" lon="14.3193817"><ele>20.666666666666668</ele><time>2026-04-06T08:41:54.086Z</time></trkpt><trkpt lat="41.007345" lon="14.3193483"><ele>21.0</ele><time>2026-04-06T08:41:55.084Z</time></trkpt><trkpt lat="41.0072567" lon="14.3193167"><ele>21.333333333333332</ele><time>2026-04-06T08:41:56.085Z</time></trkpt><trkpt lat="41.0071683" lon="14.3192817"><ele>21.666666666666664</ele><time>2026-04-06T08:41:57.087Z</time></trkpt><trkpt lat="41.0070817" lon="14.31925"><ele>22.0</ele><time>2026-04-06T08:41:58.085Z</time></trkpt><trkpt lat="41.006995" lon="14.3192167"><ele>22.0</ele><time>2026-04-06T08:41:59.086Z</time></trkpt><trkpt lat="41.00691" lon="14.319185"><ele>22.0</ele><time>2026-04-06T08:42:00.085Z</time></trkpt><trkpt lat="41.0068217" lon="14.3191567"><ele>22.0</ele><time>2026-04-06T08:42:01.086Z</time></trkpt><trkpt lat="41.00674" lon="14.319125"><ele>22.0</ele><time>2026-04-06T08:42:02.084Z</time></trkpt><trkpt lat="41.006655" lon="14.3190917"><ele>22.0</ele><time>2026-04-06T08:42:03.084Z</time></trkpt><trkpt lat="41.006565" lon="14.31906"><ele>22.0</ele><time>2026-04-06T08:42:04.084Z</time></trkpt><trkpt lat="41.00647" lon="14.31903"><ele>21.8</ele><time>2026-04-06T08:42:05.085Z</time></trkpt><trkpt lat="41.0063733" lon="14.3189917"><ele>21.6</ele><time>2026-04-06T08:42:06.084Z</time></trkpt><trkpt lat="41.0062767" lon="14.3189417"><ele>21.400000000000002</ele><time>2026-04-06T08:42:07.083Z</time></trkpt><trkpt lat="41.0061883" lon="14.3188633"><ele>21.200000000000003</ele><time>2026-04-06T08:42:08.084Z</time></trkpt><trkpt lat="41.0061133" lon="14.3187617"><ele>21.0</ele><time>2026-04-06T08:42:09.083Z</time></trkpt><trkpt lat="41.006045" lon="14.31866"><ele>21.0</ele><time>2026-04-06T08:42:10.084Z</time></trkpt><trkpt lat="41.0059733" lon="14.3185767"><ele>21.0</ele><time>2026-04-06T08:42:11.083Z</time></trkpt><trkpt lat="41.0058883" lon="14.3185167"><ele>21.0</ele><time>2026-04-06T08:42:12.084Z</time></trkpt><trkpt lat="41.0058017" lon="14.3184883"><ele>21.0</ele><time>2026-04-06T08:42:13.083Z</time></trkpt><trkpt lat="41.005715" lon="14.3184867"><ele>21.0</ele><time>2026-04-06T08:42:14.083Z</time></trkpt><trkpt lat="41.00563" lon="14.3185283"><ele>20.8</ele><time>2026-04-06T08:42:15.085Z</time></trkpt><trkpt lat="41.005555" lon="14.3186017"><ele>20.6</ele><time>2026-04-06T08:42:16.084Z</time></trkpt><trkpt lat="41.0054883" lon="14.3186867"><ele>20.4</ele><time>2026-04-06T08:42:17.083Z</time></trkpt><trkpt lat="41.00542" lon="14.3187767"><ele>20.2</ele><time>2026-04-06T08:42:18.083Z</time></trkpt><trkpt lat="41.0053483" lon="14.31887"><ele>20.0</ele><time>2026-04-06T08:42:19.083Z</time></trkpt><trkpt lat="41.00527" lon="14.3189633"><ele>20.4</ele><time>2026-04-06T08:42:20.084Z</time></trkpt><trkpt lat="41.0051867" lon="14.319045"><ele>20.8</ele><time>2026-04-06T08:42:21.084Z</time></trkpt><trkpt lat="41.0050883" lon="14.3191"><ele>21.200000000000003</ele><time>2026-04-06T08:42:22.084Z</time></trkpt><trkpt lat="41.0049883" lon="14.31912"><ele>21.6</ele><time>2026-04-06T08:42:23.084Z</time></trkpt><trkpt lat="41.0048917" lon="14.3191217"><ele>22.0</ele><time>2026-04-06T08:42:24.085Z</time></trkpt><trkpt lat="41.0047933" lon="14.3190933"><ele>22.200000000000003</ele><time>2026-04-06T08:42:25.084Z</time></trkpt><trkpt lat="41.0046917" lon="14.3190683"><ele>22.4</ele><time>2026-04-06T08:42:26.083Z</time></trkpt><trkpt lat="41.0045917" lon="14.31903"><ele>22.6</ele><time>2026-04-06T08:42:27.083Z</time></trkpt><trkpt lat="41.0044967" lon="14.318995"><ele>22.799999999999997</ele><time>2026-04-06T08:42:28.084Z</time></trkpt><trkpt lat="41.0044033" lon="14.3189633"><ele>23.0</ele><time>2026-04-06T08:42:29.083Z</time></trkpt><trkpt lat="41.004315" lon="14.3189333"><ele>23.0</ele><time>2026-04-06T08:42:30.084Z</time></trkpt><trkpt lat="41.00423" lon="14.3189067"><ele>23.0</ele><time>2026-04-06T08:42:31.083Z</time></trkpt><trkpt lat="41.004145" lon="14.3188817"><ele>23.0</ele><time>2026-04-06T08:42:32.083Z</time></trkpt><trkpt lat="41.00406" lon="14.318865"><ele>23.0</ele><time>2026-04-06T08:42:33.083Z</time></trkpt><trkpt lat="41.003975" lon="14.31885"><ele>23.0</ele><time>2026-04-06T08:42:34.083Z</time></trkpt><trkpt lat="41.0038917" lon="14.318835"><ele>23.0</ele><time>2026-04-06T08:42:35.083Z</time></trkpt><trkpt lat="41.0038067" lon="14.3188183"><ele>22.833333333333336</ele><time>2026-04-06T08:42:36.083Z</time></trkpt><trkpt lat="41.0037233" lon="14.3188017"><ele>22.666666666666668</ele><time>2026-04-06T08:42:37.083Z</time></trkpt><trkpt lat="41.00364" lon="14.3187883"><ele>22.5</ele><time>2026-04-06T08:42:38.083Z</time></trkpt><trkpt lat="41.0035583" lon="14.3187733"><ele>22.333333333333332</ele><time>2026-04-06T08:42:39.083Z</time></trkpt><trkpt lat="41.003475" lon="14.3187617"><ele>22.166666666666664</ele><time>2026-04-06T08:42:40.083Z</time></trkpt><trkpt lat="41.00339" lon="14.3187483"><ele>22.0</ele><time>2026-04-06T08:42:41.083Z</time></trkpt><trkpt lat="41.0033033" lon="14.318735"><ele>22.0</ele><time>2026-04-06T08:42:42.084Z</time></trkpt><trkpt lat="41.0032217" lon="14.318725"><ele>22.0</ele><time>2026-04-06T08:42:43.083Z</time></trkpt><trkpt lat="41.0031383" lon="14.3187167"><ele>22.0</ele><time>2026-04-06T08:42:44.083Z</time></trkpt><trkpt lat="41.003055" lon="14.3187083"><ele>22.0</ele><time>2026-04-06T08:42:45.085Z</time></trkpt><trkpt lat="41.0029733" lon="14.3187"><ele>22.0</ele><time>2026-04-06T08:42:46.083Z</time></trkpt><trkpt lat="41.0028933" lon="14.3186933"><ele>22.0</ele><time>2026-04-06T08:42:47.084Z</time></trkpt><trkpt lat="41.00281" lon="14.3186833"><ele>22.0</ele><time>2026-04-06T08:42:48.083Z</time></trkpt><trkpt lat="41.002725" lon="14.3186733"><ele>22.0</ele><time>2026-04-06T08:42:49.084Z</time></trkpt><trkpt lat="41.0026417" lon="14.3186633"><ele>22.0</ele><time>2026-04-06T08:42:50.083Z</time></trkpt><trkpt lat="41.0025617" lon="14.318655"><ele>22.0</ele><time>2026-04-06T08:42:51.083Z</time></trkpt><trkpt lat="41.0024833" lon="14.3186517"><ele>22.0</ele><time>2026-04-06T08:42:52.083Z</time></trkpt><trkpt lat="41.0024017" lon="14.318655"><ele>22.0</ele><time>2026-04-06T08:42:53.083Z</time></trkpt><trkpt lat="41.00232" lon="14.3186667"><ele>21.833333333333332</ele><time>2026-04-06T08:42:54.083Z</time></trkpt><trkpt lat="41.0022367" lon="14.3186867"><ele>21.666666666666664</ele><time>2026-04-06T08:42:55.083Z</time></trkpt><trkpt lat="41.0021533" lon="14.3187167"><ele>21.5</ele><time>2026-04-06T08:42:56.083Z</time></trkpt><trkpt lat="41.0020683" lon="14.3187483"><ele>21.333333333333332</ele><time>2026-04-06T08:42:57.083Z</time></trkpt><trkpt lat="41.00198" lon="14.31876"><ele>21.166666666666668</ele><time>2026-04-06T08:42:58.083Z</time></trkpt><trkpt lat="41.001895" lon="14.3187433"><ele>21.0</ele><time>2026-04-06T08:42:59.083Z</time></trkpt><trkpt lat="41.001805" lon="14.3187117"><ele>21.0</ele><time>2026-04-06T08:43:00.083Z</time></trkpt><trkpt lat="41.0017133" lon="14.31869"><ele>21.0</ele><time>2026-04-06T08:43:01.083Z</time></trkpt><trkpt lat="41.0016217" lon="14.31868"><ele>21.0</ele><time>2026-04-06T08:43:02.083Z</time></trkpt><trkpt lat="41.0015317" lon="14.3186733"><ele>21.0</ele><time>2026-04-06T08:43:03.083Z</time></trkpt><trkpt lat="41.001445" lon="14.3186517"><ele>21.0</ele><time>2026-04-06T08:43:04.083Z</time></trkpt><trkpt lat="41.001365" lon="14.318615"><ele>21.0</ele><time>2026-04-06T08:43:05.083Z</time></trkpt><trkpt lat="41.0012917" lon="14.31857"><ele>21.0</ele><time>2026-04-06T08:43:06.083Z</time></trkpt><trkpt lat="41.0012133" lon="14.3185333"><ele>21.0</ele><time>2026-04-06T08:43:07.083Z</time></trkpt><trkpt lat="41.0011317" lon="14.3185067"><ele>21.0</ele><time>2026-04-06T08:43:08.085Z</time></trkpt><trkpt lat="41.00105" lon="14.31849"><ele>21.0</ele><time>2026-04-06T08:43:09.083Z</time></trkpt><trkpt lat="41.00097" lon="14.318475"><ele>21.0</ele><time>2026-04-06T08:43:10.084Z</time></trkpt><trkpt lat="41.0008933" lon="14.3184633"><ele>21.0</ele><time>2026-04-06T08:43:11.088Z</time></trkpt><trkpt lat="41.0008167" lon="14.318455"><ele>21.0</ele><time>2026-04-06T08:43:12.085Z</time></trkpt><trkpt lat="41.00074" lon="14.3184483"><ele>21.0</ele><time>2026-04-06T08:43:13.084Z</time></trkpt><trkpt lat="41.000665" lon="14.3184417"><ele>21.0</ele><time>2026-04-06T08:43:14.084Z</time></trkpt><trkpt lat="41.0005883" lon="14.318435"><ele>21.0</ele><time>2026-04-06T08:43:15.083Z</time></trkpt><trkpt lat="41.0005133" lon="14.3184267"><ele>21.0</ele><time>2026-04-06T08:43:16.083Z</time></trkpt><trkpt lat="41.0004367" lon="14.3184117"><ele>21.0</ele><time>2026-04-06T08:43:17.083Z</time></trkpt><trkpt lat="41.00036" lon="14.318395"><ele>21.0</ele><time>2026-04-06T08:43:18.087Z</time></trkpt><trkpt lat="41.0002817" lon="14.318385"><ele>21.0</ele><time>2026-04-06T08:43:19.083Z</time></trkpt><trkpt lat="41.0002017" lon="14.318375"><ele>21.0</ele><time>2026-04-06T08:43:20.091Z</time></trkpt><trkpt lat="41.0001217" lon="14.3183683"><ele>21.0</ele><time>2026-04-06T08:43:21.085Z</time></trkpt><trkpt lat="41.00004" lon="14.3183633"><ele>21.0</ele><time>2026-04-06T08:43:22.083Z</time></trkpt><trkpt lat="40.9999633" lon="14.318355"><ele>21.0</ele><time>2026-04-06T08:43:23.083Z</time></trkpt><trkpt lat="40.999885" lon="14.31835"><ele>21.0</ele><time>2026-04-06T08:43:24.083Z</time></trkpt><trkpt lat="40.999805" lon="14.3183417"><ele>21.0</ele><time>2026-04-06T08:43:25.083Z</time></trkpt><trkpt lat="40.9997267" lon="14.318335"><ele>21.0</ele><time>2026-04-06T08:43:26.091Z</time></trkpt><trkpt lat="40.9996467" lon="14.318325"><ele>21.0</ele><time>2026-04-06T08:43:27.083Z</time></trkpt><trkpt lat="40.9995683" lon="14.3183117"><ele>21.0</ele><time>2026-04-06T08:43:28.083Z</time></trkpt><trkpt lat="40.9994883" lon="14.3182983"><ele>21.0</ele><time>2026-04-06T08:43:29.083Z</time></trkpt><trkpt lat="40.99941" lon="14.3182883"><ele>21.0</ele><time>2026-04-06T08:43:30.083Z</time></trkpt><trkpt lat="40.99933" lon="14.3182767"><ele>21.0</ele><time>2026-04-06T08:43:31.083Z</time></trkpt><trkpt lat="40.9992533" lon="14.318265"><ele>21.0</ele><time>2026-04-06T08:43:32.083Z</time></trkpt><trkpt lat="40.999175" lon="14.3182517"><ele>21.0</ele><time>2026-04-06T08:43:33.084Z</time></trkpt><trkpt lat="40.9990917" lon="14.318245"><ele>21.0</ele><time>2026-04-06T08:43:34.083Z</time></trkpt><trkpt lat="40.9990117" lon="14.318235"><ele>21.0</ele><time>2026-04-06T08:43:35.084Z</time></trkpt><trkpt lat="40.998935" lon="14.3182267"><ele>21.0</ele><time>2026-04-06T08:43:36.083Z</time></trkpt><trkpt lat="40.9988533" lon="14.318215"><ele>21.0</ele><time>2026-04-06T08:43:37.083Z</time></trkpt><trkpt lat="40.9987733" lon="14.3182017"><ele>21.0</ele><time>2026-04-06T08:43:38.084Z</time></trkpt><trkpt lat="40.9986917" lon="14.3181867"><ele>21.0</ele><time>2026-04-06T08:43:39.083Z</time></trkpt><trkpt lat="40.9986117" lon="14.318175"><ele>21.0</ele><time>2026-04-06T08:43:40.083Z</time></trkpt><trkpt lat="40.9985317" lon="14.3181667"><ele>21.0</ele><time>2026-04-06T08:43:41.083Z</time></trkpt><trkpt lat="40.9984517" lon="14.31816"><ele>21.0</ele><time>2026-04-06T08:43:42.083Z</time></trkpt><trkpt lat="40.9983717" lon="14.318155"><ele>21.0</ele><time>2026-04-06T08:43:43.083Z</time></trkpt><trkpt lat="40.9982883" lon="14.318145"><ele>21.0</ele><time>2026-04-06T08:43:44.084Z</time></trkpt><trkpt lat="40.998205" lon="14.3181367"><ele>21.0</ele><time>2026-04-06T08:43:45.084Z</time></trkpt><trkpt lat="40.9981233" lon="14.3181317"><ele>21.0</ele><time>2026-04-06T08:43:46.083Z</time></trkpt><trkpt lat="40.9980417" lon="14.3181283"><ele>21.0</ele><time>2026-04-06T08:43:47.084Z</time></trkpt><trkpt lat="40.9979567" lon="14.3181267"><ele>21.0</ele><time>2026-04-06T08:43:48.084Z</time></trkpt><trkpt lat="40.9978717" lon="14.318125"><ele>21.0</ele><time>2026-04-06T08:43:49.083Z</time></trkpt><trkpt lat="40.9977883" lon="14.3181267"><ele>21.0</ele><time>2026-04-06T08:43:50.083Z</time></trkpt><trkpt lat="40.997705" lon="14.3181183"><ele>21.0</ele><time>2026-04-06T08:43:51.083Z</time></trkpt><trkpt lat="40.9976183" lon="14.3181017"><ele>21.0</ele><time>2026-04-06T08:43:52.083Z</time></trkpt><trkpt lat="40.9975333" lon="14.3180917"><ele>21.0</ele><time>2026-04-06T08:43:53.083Z</time></trkpt><trkpt lat="40.997445" lon="14.318085"><ele>21.0</ele><time>2026-04-06T08:43:54.083Z</time></trkpt><trkpt lat="40.9973533" lon="14.318075"><ele>21.0</ele><time>2026-04-06T08:43:55.083Z</time></trkpt><trkpt lat="40.9972633" lon="14.3180683"><ele>21.0</ele><time>2026-04-06T08:43:56.084Z</time></trkpt><trkpt lat="40.9971683" lon="14.3180583"><ele>21.0</ele><time>2026-04-06T08:43:57.084Z</time></trkpt><trkpt lat="40.9970767" lon="14.31805"><ele>21.0</ele><time>2026-04-06T08:43:58.084Z</time></trkpt><trkpt lat="40.99698" lon="14.3180367"><ele>20.833333333333332</ele><time>2026-04-06T08:43:59.083Z</time></trkpt><trkpt lat="40.9968867" lon="14.3180267"><ele>20.666666666666668</ele><time>2026-04-06T08:44:00.084Z</time></trkpt><trkpt lat="40.9967967" lon="14.3180183"><ele>20.5</ele><time>2026-04-06T08:44:01.083Z</time></trkpt><trkpt lat="40.9967067" lon="14.31801"><ele>20.333333333333336</ele><time>2026-04-06T08:44:02.084Z</time></trkpt><trkpt lat="40.99662" lon="14.3180017"><ele>20.166666666666668</ele><time>2026-04-06T08:44:03.083Z</time></trkpt><trkpt lat="40.9965333" lon="14.317995"><ele>20.0</ele><time>2026-04-06T08:44:04.083Z</time></trkpt><trkpt lat="40.9964467" lon="14.3179883"><ele>20.0</ele><time>2026-04-06T08:44:05.084Z</time></trkpt><trkpt lat="40.996365" lon="14.3179833"><ele>20.0</ele><time>2026-04-06T08:44:06.084Z</time></trkpt><trkpt lat="40.9962833" lon="14.3179733"><ele>20.0</ele><time>2026-04-06T08:44:07.083Z</time></trkpt><trkpt lat="40.9962017" lon="14.3179633"><ele>20.0</ele><time>2026-04-06T08:44:08.083Z</time></trkpt><trkpt lat="40.99612" lon="14.31796"><ele>20.0</ele><time>2026-04-06T08:44:09.083Z</time></trkpt><trkpt lat="40.9960383" lon="14.3179517"><ele>20.0</ele><time>2026-04-06T08:44:10.083Z</time></trkpt><trkpt lat="40.9959583" lon="14.31794"><ele>20.0</ele><time>2026-04-06T08:44:11.083Z</time></trkpt><trkpt lat="40.9958783" lon="14.317925"><ele>20.0</ele><time>2026-04-06T08:44:12.083Z</time></trkpt><trkpt lat="40.9958" lon="14.3179167"><ele>20.0</ele><time>2026-04-06T08:44:13.083Z</time></trkpt><trkpt lat="40.9957217" lon="14.31791"><ele>20.0</ele><time>2026-04-06T08:44:14.083Z</time></trkpt><trkpt lat="40.99564" lon="14.3178983"><ele>20.0</ele><time>2026-04-06T08:44:15.084Z</time></trkpt><trkpt lat="40.99556" lon="14.3178883"><ele>20.0</ele><time>2026-04-06T08:44:16.084Z</time></trkpt><trkpt lat="40.99548" lon="14.3178783"><ele>19.833333333333336</ele><time>2026-04-06T08:44:17.084Z</time></trkpt><trkpt lat="40.9954017" lon="14.31787"><ele>19.666666666666668</ele><time>2026-04-06T08:44:18.083Z</time></trkpt><trkpt lat="40.9953183" lon="14.3178617"><ele>19.5</ele><time>2026-04-06T08:44:19.084Z</time></trkpt><trkpt lat="40.9952367" lon="14.31785"><ele>19.333333333333332</ele><time>2026-04-06T08:44:20.083Z</time></trkpt><trkpt lat="40.995155" lon="14.3178367"><ele>19.166666666666664</ele><time>2026-04-06T08:44:21.086Z</time></trkpt><trkpt lat="40.995075" lon="14.317825"><ele>19.0</ele><time>2026-04-06T08:44:22.083Z</time></trkpt><trkpt lat="40.9949933" lon="14.317815"><ele>19.0</ele><time>2026-04-06T08:44:23.083Z</time></trkpt><trkpt lat="40.99491" lon="14.3178067"><ele>19.0</ele><time>2026-04-06T08:44:24.083Z</time></trkpt><trkpt lat="40.994825" lon="14.3177967"><ele>19.0</ele><time>2026-04-06T08:44:25.084Z</time></trkpt><trkpt lat="40.9947433" lon="14.3177867"><ele>19.0</ele><time>2026-04-06T08:44:26.085Z</time></trkpt><trkpt lat="40.99466" lon="14.3177783"><ele>19.0</ele><time>2026-04-06T08:44:27.083Z</time></trkpt><trkpt lat="40.994575" lon="14.31777"><ele>19.0</ele><time>2026-04-06T08:44:28.083Z</time></trkpt><trkpt lat="40.9944917" lon="14.3177617"><ele>19.0</ele><time>2026-04-06T08:44:29.083Z</time></trkpt><trkpt lat="40.9944083" lon="14.3177633"><ele>19.0</ele><time>2026-04-06T08:44:30.083Z</time></trkpt><trkpt lat="40.9943233" lon="14.31776"><ele>19.0</ele><time>2026-04-06T08:44:31.083Z</time></trkpt><trkpt lat="40.99424" lon="14.31775"><ele>19.0</ele><time>2026-04-06T08:44:32.083Z</time></trkpt><trkpt lat="40.9941583" lon="14.3177383"><ele>19.0</ele><time>2026-04-06T08:44:33.083Z</time></trkpt><trkpt lat="40.9940767" lon="14.3177283"><ele>19.0</ele><time>2026-04-06T08:44:34.083Z</time></trkpt><trkpt lat="40.9939933" lon="14.3177183"><ele>19.0</ele><time>2026-04-06T08:44:35.084Z</time></trkpt><trkpt lat="40.9939067" lon="14.3177133"><ele>19.0</ele><time>2026-04-06T08:44:36.086Z</time></trkpt><trkpt lat="40.9938217" lon="14.3177033"><ele>19.0</ele><time>2026-04-06T08:44:37.084Z</time></trkpt><trkpt lat="40.9937367" lon="14.317695"><ele>19.0</ele><time>2026-04-06T08:44:38.085Z</time></trkpt><trkpt lat="40.9936533" lon="14.3176867"><ele>19.0</ele><time>2026-04-06T08:44:39.083Z</time></trkpt><trkpt lat="40.99357" lon="14.3176783"><ele>19.0</ele><time>2026-04-06T08:44:40.083Z</time></trkpt><trkpt lat="40.9934883" lon="14.31767"><ele>19.0</ele><time>2026-04-06T08:44:41.083Z</time></trkpt><trkpt lat="40.9934083" lon="14.3176567"><ele>19.0</ele><time>2026-04-06T08:44:42.084Z</time></trkpt><trkpt lat="40.9933283" lon="14.3176483"><ele>19.0</ele><time>2026-04-06T08:44:43.083Z</time></trkpt><trkpt lat="40.9932483" lon="14.3176383"><ele>19.0</ele><time>2026-04-06T08:44:44.083Z</time></trkpt><trkpt lat="40.99317" lon="14.3176283"><ele>19.0</ele><time>2026-04-06T08:44:45.083Z</time></trkpt><trkpt lat="40.9930933" lon="14.317615"><ele>19.0</ele><time>2026-04-06T08:44:46.085Z</time></trkpt><trkpt lat="40.9930167" lon="14.3175933"><ele>19.0</ele><time>2026-04-06T08:44:47.083Z</time></trkpt><trkpt lat="40.9929417" lon="14.317565"><ele>19.0</ele><time>2026-04-06T08:44:48.084Z</time></trkpt><trkpt lat="40.992865" lon="14.3175317"><ele>19.0</ele><time>2026-04-06T08:44:49.083Z</time></trkpt><trkpt lat="40.9927883" lon="14.3174933"><ele>19.0</ele><time>2026-04-06T08:44:50.083Z</time></trkpt><trkpt lat="40.992715" lon="14.3174483"><ele>19.0</ele><time>2026-04-06T08:44:51.084Z</time></trkpt><trkpt lat="40.9926433" lon="14.3173983"><ele>19.0</ele><time>2026-04-06T08:44:52.084Z</time></trkpt><trkpt lat="40.9925717" lon="14.3173483"><ele>19.0</ele><time>2026-04-06T08:44:53.083Z</time></trkpt><trkpt lat="40.9925017" lon="14.3172917"><ele>19.0</ele><time>2026-04-06T08:44:54.084Z</time></trkpt><trkpt lat="40.9924333" lon="14.3172267"><ele>19.0</ele><time>2026-04-06T08:44:55.083Z</time></trkpt><trkpt lat="40.9923683" lon="14.3171567"><ele>19.0</ele><time>2026-04-06T08:44:56.083Z</time></trkpt><trkpt lat="40.9923017" lon="14.3170883"><ele>19.0</ele><time>2026-04-06T08:44:57.085Z</time></trkpt><trkpt lat="40.992235" lon="14.3170183"><ele>19.0</ele><time>2026-04-06T08:44:58.083Z</time></trkpt><trkpt lat="40.9921683" lon="14.31695"><ele>19.166666666666664</ele><time>2026-04-06T08:44:59.083Z</time></trkpt><trkpt lat="40.9921017" lon="14.3168817"><ele>19.333333333333332</ele><time>2026-04-06T08:45:00.083Z</time></trkpt><trkpt lat="40.99203" lon="14.316815"><ele>19.5</ele><time>2026-04-06T08:45:01.083Z</time></trkpt><trkpt lat="40.99196" lon="14.3167483"><ele>19.666666666666668</ele><time>2026-04-06T08:45:02.083Z</time></trkpt><trkpt lat="40.9918917" lon="14.3166783"><ele>19.833333333333336</ele><time>2026-04-06T08:45:03.084Z</time></trkpt><trkpt lat="40.9918217" lon="14.3166083"><ele>20.0</ele><time>2026-04-06T08:45:04.083Z</time></trkpt><trkpt lat="40.9917567" lon="14.3165383"><ele>20.0</ele><time>2026-04-06T08:45:05.084Z</time></trkpt><trkpt lat="40.9916917" lon="14.3164667"><ele>20.0</ele><time>2026-04-06T08:45:06.083Z</time></trkpt><trkpt lat="40.9916233" lon="14.316395"><ele>20.0</ele><time>2026-04-06T08:45:07.083Z</time></trkpt><trkpt lat="40.9915583" lon="14.3163267"><ele>20.0</ele><time>2026-04-06T08:45:08.083Z</time></trkpt><trkpt lat="40.991495" lon="14.3162633"><ele>20.0</ele><time>2026-04-06T08:45:09.083Z</time></trkpt><trkpt lat="40.99143" lon="14.3161983"><ele>20.0</ele><time>2026-04-06T08:45:10.083Z</time></trkpt><trkpt lat="40.9913617" lon="14.3161333"><ele>19.833333333333336</ele><time>2026-04-06T08:45:11.083Z</time></trkpt><trkpt lat="40.9912967" lon="14.3160717"><ele>19.666666666666668</ele><time>2026-04-06T08:45:12.085Z</time></trkpt><trkpt lat="40.9912317" lon="14.3160067"><ele>19.5</ele><time>2026-04-06T08:45:13.084Z</time></trkpt><trkpt lat="40.9911667" lon="14.31594"><ele>19.333333333333332</ele><time>2026-04-06T08:45:14.084Z</time></trkpt><trkpt lat="40.9911033" lon="14.3158733"><ele>19.166666666666664</ele><time>2026-04-06T08:45:15.083Z</time></trkpt><trkpt lat="40.9910367" lon="14.315805"><ele>19.0</ele><time>2026-04-06T08:45:16.083Z</time></trkpt><trkpt lat="40.9909683" lon="14.3157367"><ele>19.0</ele><time>2026-04-06T08:45:17.084Z</time></trkpt><trkpt lat="40.9909017" lon="14.3156667"><ele>19.0</ele><time>2026-04-06T08:45:18.083Z</time></trkpt><trkpt lat="40.9908383" lon="14.3155917"><ele>19.0</ele><time>2026-04-06T08:45:19.084Z</time></trkpt><trkpt lat="40.9907733" lon="14.3155117"><ele>19.0</ele><time>2026-04-06T08:45:20.085Z</time></trkpt><trkpt lat="40.9907083" lon="14.3154317"><ele>19.0</ele><time>2026-04-06T08:45:21.083Z</time></trkpt><trkpt lat="40.9906417" lon="14.3153517"><ele>19.0</ele><time>2026-04-06T08:45:22.083Z</time></trkpt><trkpt lat="40.9905717" lon="14.3152683"><ele>19.2</ele><time>2026-04-06T08:45:23.083Z</time></trkpt><trkpt lat="40.9905" lon="14.3151983"><ele>19.4</ele><time>2026-04-06T08:45:24.084Z</time></trkpt><trkpt lat="40.9904267" lon="14.3151333"><ele>19.6</ele><time>2026-04-06T08:45:25.084Z</time></trkpt><trkpt lat="40.9903433" lon="14.31506"><ele>19.8</ele><time>2026-04-06T08:45:26.084Z</time></trkpt><trkpt lat="40.990265" lon="14.3149883"><ele>20.0</ele><time>2026-04-06T08:45:27.083Z</time></trkpt><trkpt lat="40.9901833" lon="14.31491"><ele>20.0</ele><time>2026-04-06T08:45:28.084Z</time></trkpt><trkpt lat="40.9901017" lon="14.314835"><ele>20.0</ele><time>2026-04-06T08:45:29.084Z</time></trkpt><trkpt lat="40.9900267" lon="14.3147617"><ele>20.0</ele><time>2026-04-06T08:45:30.084Z</time></trkpt><trkpt lat="40.9899533" lon="14.3146867"><ele>20.0</ele><time>2026-04-06T08:45:31.083Z</time></trkpt><trkpt lat="40.9898817" lon="14.3146167"><ele>20.0</ele><time>2026-04-06T08:45:32.083Z</time></trkpt><trkpt lat="40.98981" lon="14.3145517"><ele>20.166666666666668</ele><time>2026-04-06T08:45:33.083Z</time></trkpt><trkpt lat="40.9897433" lon="14.3144833"><ele>20.333333333333336</ele><time>2026-04-06T08:45:34.083Z</time></trkpt><trkpt lat="40.9896833" lon="14.3144133"><ele>20.5</ele><time>2026-04-06T08:45:35.084Z</time></trkpt><trkpt lat="40.9896233" lon="14.314345"><ele>20.666666666666668</ele><time>2026-04-06T08:45:36.083Z</time></trkpt><trkpt lat="40.989565" lon="14.3142783"><ele>20.833333333333332</ele><time>2026-04-06T08:45:37.083Z</time></trkpt><trkpt lat="40.9895033" lon="14.314215"><ele>21.0</ele><time>2026-04-06T08:45:38.083Z</time></trkpt><trkpt lat="40.9894433" lon="14.3141533"><ele>21.0</ele><time>2026-04-06T08:45:39.083Z</time></trkpt><trkpt lat="40.9893833" lon="14.31409"><ele>21.0</ele><time>2026-04-06T08:45:40.083Z</time></trkpt><trkpt lat="40.9893233" lon="14.3140267"><ele>21.0</ele><time>2026-04-06T08:45:41.084Z</time></trkpt><trkpt lat="40.9892617" lon="14.3139617"><ele>21.0</ele><time>2026-04-06T08:45:42.083Z</time></trkpt><trkpt lat="40.9891983" lon="14.3138933"><ele>21.0</ele><time>2026-04-06T08:45:43.083Z</time></trkpt><trkpt lat="40.9891333" lon="14.313825"><ele>21.0</ele><time>2026-04-06T08:45:44.083Z</time></trkpt><trkpt lat="40.9890683" lon="14.3137567"><ele>21.0</ele><time>2026-04-06T08:45:45.088Z</time></trkpt><trkpt lat="40.9890033" lon="14.3136867"><ele>21.0</ele><time>2026-04-06T08:45:46.084Z</time></trkpt><trkpt lat="40.9889383" lon="14.31362"><ele>21.0</ele><time>2026-04-06T08:45:47.084Z</time></trkpt><trkpt lat="40.9888733" lon="14.3135533"><ele>21.0</ele><time>2026-04-06T08:45:48.084Z</time></trkpt><trkpt lat="40.9888117" lon="14.313485"><ele>21.0</ele><time>2026-04-06T08:45:49.084Z</time></trkpt><trkpt lat="40.9887483" lon="14.31342"><ele>21.0</ele><time>2026-04-06T08:45:50.083Z</time></trkpt><trkpt lat="40.988685" lon="14.313355"><ele>21.0</ele><time>2026-04-06T08:45:51.083Z</time></trkpt><trkpt lat="40.9886183" lon="14.3132917"><ele>21.0</ele><time>2026-04-06T08:45:52.083Z</time></trkpt><trkpt lat="40.9885517" lon="14.3132283"><ele>21.0</ele><time>2026-04-06T08:45:53.084Z</time></trkpt><trkpt lat="40.988485" lon="14.3131633"><ele>21.0</ele><time>2026-04-06T08:45:54.084Z</time></trkpt><trkpt lat="40.98842" lon="14.313095"><ele>21.0</ele><time>2026-04-06T08:45:55.083Z</time></trkpt><trkpt lat="40.9883533" lon="14.31303"><ele>21.0</ele><time>2026-04-06T08:45:56.083Z</time></trkpt><trkpt lat="40.9882917" lon="14.312965"><ele>20.666666666666668</ele><time>2026-04-06T08:45:57.086Z</time></trkpt><trkpt lat="40.9882283" lon="14.3129"><ele>20.333333333333332</ele><time>2026-04-06T08:45:58.083Z</time></trkpt><trkpt lat="40.988165" lon="14.3128367"><ele>20.0</ele><time>2026-04-06T08:45:59.084Z</time></trkpt><trkpt lat="40.9881" lon="14.3127767"><ele>19.666666666666664</ele><time>2026-04-06T08:46:00.083Z</time></trkpt><trkpt lat="40.9880383" lon="14.3127167"><ele>19.333333333333332</ele><time>2026-04-06T08:46:01.083Z</time></trkpt><trkpt lat="40.9879767" lon="14.3126567"><ele>19.0</ele><time>2026-04-06T08:46:02.083Z</time></trkpt><trkpt lat="40.987915" lon="14.3125933"><ele>19.0</ele><time>2026-04-06T08:46:03.083Z</time></trkpt><trkpt lat="40.987855" lon="14.312535"><ele>19.0</ele><time>2026-04-06T08:46:04.083Z</time></trkpt><trkpt lat="40.9877933" lon="14.312475"><ele>19.0</ele><time>2026-04-06T08:46:05.083Z</time></trkpt><trkpt lat="40.9877333" lon="14.312415"><ele>19.0</ele><time>2026-04-06T08:46:06.085Z</time></trkpt><trkpt lat="40.98767" lon="14.3123517"><ele>19.0</ele><time>2026-04-06T08:46:07.083Z</time></trkpt><trkpt lat="40.9876083" lon="14.3122867"><ele>19.0</ele><time>2026-04-06T08:46:08.083Z</time></trkpt><trkpt lat="40.9875467" lon="14.3122233"><ele>19.166666666666664</ele><time>2026-04-06T08:46:09.083Z</time></trkpt><trkpt lat="40.9874817" lon="14.3121583"><ele>19.333333333333332</ele><time>2026-04-06T08:46:10.083Z</time></trkpt><trkpt lat="40.98742" lon="14.3120967"><ele>19.5</ele><time>2026-04-06T08:46:11.083Z</time></trkpt><trkpt lat="40.987355" lon="14.3120333"><ele>19.666666666666668</ele><time>2026-04-06T08:46:12.084Z</time></trkpt><trkpt lat="40.9872917" lon="14.3119717"><ele>19.833333333333336</ele><time>2026-04-06T08:46:13.083Z</time></trkpt><trkpt lat="40.9872267" lon="14.311905"><ele>20.0</ele><time>2026-04-06T08:46:14.085Z</time></trkpt><trkpt lat="40.9871617" lon="14.3118383"><ele>20.0</ele><time>2026-04-06T08:46:15.083Z</time></trkpt><trkpt lat="40.987095" lon="14.3117867"><ele>20.0</ele><time>2026-04-06T08:46:16.084Z</time></trkpt><trkpt lat="40.9870233" lon="14.31174"><ele>20.0</ele><time>2026-04-06T08:46:17.083Z</time></trkpt><trkpt lat="40.9869533" lon="14.311705"><ele>20.0</ele><time>2026-04-06T08:46:18.084Z</time></trkpt><trkpt lat="40.98688" lon="14.3116817"><ele>20.0</ele><time>2026-04-06T08:46:19.083Z</time></trkpt><trkpt lat="40.9868033" lon="14.3116617"><ele>20.0</ele><time>2026-04-06T08:46:20.084Z</time></trkpt><trkpt lat="40.9867267" lon="14.3116483"><ele>20.0</ele><time>2026-04-06T08:46:21.084Z</time></trkpt><trkpt lat="40.9866483" lon="14.311635"><ele>20.0</ele><time>2026-04-06T08:46:22.083Z</time></trkpt><trkpt lat="40.9865717" lon="14.311625"><ele>20.0</ele><time>2026-04-06T08:46:23.083Z</time></trkpt><trkpt lat="40.986495" lon="14.311615"><ele>20.0</ele><time>2026-04-06T08:46:24.083Z</time></trkpt><trkpt lat="40.9864183" lon="14.311605"><ele>20.0</ele><time>2026-04-06T08:46:25.083Z</time></trkpt><trkpt lat="40.98634" lon="14.3115933"><ele>20.0</ele><time>2026-04-06T08:46:26.083Z</time></trkpt><trkpt lat="40.9862617" lon="14.31158"><ele>20.0</ele><time>2026-04-06T08:46:27.083Z</time></trkpt><trkpt lat="40.98618" lon="14.3115717"><ele>20.0</ele><time>2026-04-06T08:46:28.084Z</time></trkpt><trkpt lat="40.9861" lon="14.3115617"><ele>20.0</ele><time>2026-04-06T08:46:29.084Z</time></trkpt><trkpt lat="40.9860217" lon="14.3115517"><ele>20.0</ele><time>2026-04-06T08:46:30.084Z</time></trkpt><trkpt lat="40.9859417" lon="14.31154"><ele>20.0</ele><time>2026-04-06T08:46:31.084Z</time></trkpt><trkpt lat="40.9858617" lon="14.3115267"><ele>20.0</ele><time>2026-04-06T08:46:32.083Z</time></trkpt><trkpt lat="40.98578" lon="14.3115167"><ele>20.0</ele><time>2026-04-06T08:46:33.083Z</time></trkpt><trkpt lat="40.9857" lon="14.3115033"><ele>20.0</ele><time>2026-04-06T08:46:34.083Z</time></trkpt><trkpt lat="40.98562" lon="14.3114883"><ele>20.0</ele><time>2026-04-06T08:46:35.084Z</time></trkpt><trkpt lat="40.9855383" lon="14.3114733"><ele>20.0</ele><time>2026-04-06T08:46:36.084Z</time></trkpt><trkpt lat="40.9854583" lon="14.3114617"><ele>20.0</ele><time>2026-04-06T08:46:37.084Z</time></trkpt><trkpt lat="40.98538" lon="14.311455"><ele>20.0</ele><time>2026-04-06T08:46:38.084Z</time></trkpt><trkpt lat="40.9853" lon="14.311455"><ele>20.0</ele><time>2026-04-06T08:46:39.084Z</time></trkpt><trkpt lat="40.98522" lon="14.31146"><ele>20.0</ele><time>2026-04-06T08:46:40.083Z</time></trkpt><trkpt lat="40.98514" lon="14.31147"><ele>20.0</ele><time>2026-04-06T08:46:41.085Z</time></trkpt><trkpt lat="40.9850617" lon="14.3114917"><ele>20.0</ele><time>2026-04-06T08:46:42.084Z</time></trkpt><trkpt lat="40.984985" lon="14.3115117"><ele>20.0</ele><time>2026-04-06T08:46:43.085Z</time></trkpt><trkpt lat="40.9849083" lon="14.31154"><ele>20.0</ele><time>2026-04-06T08:46:44.084Z</time></trkpt><trkpt lat="40.98483" lon="14.3115767"><ele>20.166666666666668</ele><time>2026-04-06T08:46:45.085Z</time></trkpt><trkpt lat="40.9847533" lon="14.3116133"><ele>20.333333333333336</ele><time>2026-04-06T08:46:46.083Z</time></trkpt><trkpt lat="40.9846733" lon="14.3116517"><ele>20.5</ele><time>2026-04-06T08:46:47.083Z</time></trkpt><trkpt lat="40.9845917" lon="14.3116967"><ele>20.666666666666668</ele><time>2026-04-06T08:46:48.083Z</time></trkpt><trkpt lat="40.98451" lon="14.31174"><ele>20.833333333333332</ele><time>2026-04-06T08:46:49.083Z</time></trkpt><trkpt lat="40.984425" lon="14.3117817"><ele>21.0</ele><time>2026-04-06T08:46:50.083Z</time></trkpt><trkpt lat="40.98434" lon="14.3118183"><ele>21.0</ele><time>2026-04-06T08:46:51.084Z</time></trkpt><trkpt lat="40.9842567" lon="14.3118583"><ele>21.0</ele><time>2026-04-06T08:46:52.085Z</time></trkpt><trkpt lat="40.9841733" lon="14.3119"><ele>21.0</ele><time>2026-04-06T08:46:53.083Z</time></trkpt><trkpt lat="40.984085" lon="14.3119433"><ele>21.0</ele><time>2026-04-06T08:46:54.083Z</time></trkpt><trkpt lat="40.9839933" lon="14.31199"><ele>21.0</ele><time>2026-04-06T08:46:55.083Z</time></trkpt><trkpt lat="40.9839033" lon="14.3120383"><ele>20.8</ele><time>2026-04-06T08:46:56.083Z</time></trkpt><trkpt lat="40.983815" lon="14.3120883"><ele>20.6</ele><time>2026-04-06T08:46:57.083Z</time></trkpt><trkpt lat="40.9837233" lon="14.3121383"><ele>20.4</ele><time>2026-04-06T08:46:58.083Z</time></trkpt><trkpt lat="40.9836317" lon="14.3121867"><ele>20.2</ele><time>2026-04-06T08:46:59.083Z</time></trkpt><trkpt lat="40.9835417" lon="14.3122367"><ele>20.0</ele><time>2026-04-06T08:47:00.083Z</time></trkpt><trkpt lat="40.98345" lon="14.3122833"><ele>20.0</ele><time>2026-04-06T08:47:01.084Z</time></trkpt><trkpt lat="40.9833567" lon="14.3123233"><ele>20.0</ele><time>2026-04-06T08:47:02.085Z</time></trkpt><trkpt lat="40.98326" lon="14.31236"><ele>20.0</ele><time>2026-04-06T08:47:03.084Z</time></trkpt><trkpt lat="40.9831633" lon="14.3123883"><ele>20.0</ele><time>2026-04-06T08:47:04.084Z</time></trkpt><trkpt lat="40.983065" lon="14.3124083"><ele>20.0</ele><time>2026-04-06T08:47:05.084Z</time></trkpt><trkpt lat="40.9829683" lon="14.3124283"><ele>20.0</ele><time>2026-04-06T08:47:06.084Z</time></trkpt><trkpt lat="40.982875" lon="14.3124383"><ele>20.0</ele><time>2026-04-06T08:47:07.083Z</time></trkpt><trkpt lat="40.9827833" lon="14.3124417"><ele>20.0</ele><time>2026-04-06T08:47:08.084Z</time></trkpt><trkpt lat="40.9826933" lon="14.3124467"><ele>20.0</ele><time>2026-04-06T08:47:09.084Z</time></trkpt><trkpt lat="40.9826017" lon="14.3124483"><ele>20.0</ele><time>2026-04-06T08:47:10.085Z</time></trkpt><trkpt lat="40.9825133" lon="14.31245"><ele>20.0</ele><time>2026-04-06T08:47:11.084Z</time></trkpt><trkpt lat="40.982425" lon="14.3124467"><ele>20.0</ele><time>2026-04-06T08:47:12.084Z</time></trkpt><trkpt lat="40.98234" lon="14.312445"><ele>20.0</ele><time>2026-04-06T08:47:13.083Z</time></trkpt><trkpt lat="40.9822567" lon="14.3124433"><ele>20.0</ele><time>2026-04-06T08:47:14.084Z</time></trkpt><trkpt lat="40.9821733" lon="14.3124417"><ele>20.0</ele><time>2026-04-06T08:47:15.084Z</time></trkpt><trkpt lat="40.9820867" lon="14.31244"><ele>20.0</ele><time>2026-04-06T08:47:16.083Z</time></trkpt><trkpt lat="40.982005" lon="14.31244"><ele>20.0</ele><time>2026-04-06T08:47:17.084Z</time></trkpt><trkpt lat="40.9819217" lon="14.3124383"><ele>20.0</ele><time>2026-04-06T08:47:18.085Z</time></trkpt><trkpt lat="40.9818417" lon="14.312435"><ele>20.0</ele><time>2026-04-06T08:47:19.084Z</time></trkpt><trkpt lat="40.9817633" lon="14.31243"><ele>20.0</ele><time>2026-04-06T08:47:20.085Z</time></trkpt><trkpt lat="40.981685" lon="14.3124233"><ele>20.0</ele><time>2026-04-06T08:47:21.085Z</time></trkpt><trkpt lat="40.9816083" lon="14.3124167"><ele>20.0</ele><time>2026-04-06T08:47:22.083Z</time></trkpt><trkpt lat="40.9815317" lon="14.3124083"><ele>20.142857142857142</ele><time>2026-04-06T08:47:23.084Z</time></trkpt><trkpt lat="40.981455" lon="14.3123917"><ele>20.285714285714285</ele><time>2026-04-06T08:47:24.083Z</time></trkpt><trkpt lat="40.9813817" lon="14.3123683"><ele>20.42857142857143</ele><time>2026-04-06T08:47:25.083Z</time></trkpt><trkpt lat="40.9813117" lon="14.3123367"><ele>20.57142857142857</ele><time>2026-04-06T08:47:26.084Z</time></trkpt><trkpt lat="40.9812433" lon="14.312305"><ele>20.714285714285715</ele><time>2026-04-06T08:47:27.086Z</time></trkpt><trkpt lat="40.981175" lon="14.3122733"><ele>20.857142857142858</ele><time>2026-04-06T08:47:28.083Z</time></trkpt><trkpt lat="40.9811067" lon="14.31224"><ele>21.0</ele><time>2026-04-06T08:47:29.084Z</time></trkpt><trkpt lat="40.9810367" lon="14.3122033"><ele>21.0</ele><time>2026-04-06T08:47:30.084Z</time></trkpt><trkpt lat="40.9809667" lon="14.312165"><ele>21.0</ele><time>2026-04-06T08:47:31.084Z</time></trkpt><trkpt lat="40.9808967" lon="14.3121267"><ele>21.0</ele><time>2026-04-06T08:47:32.083Z</time></trkpt><trkpt lat="40.9808267" lon="14.3120867"><ele>21.0</ele><time>2026-04-06T08:47:33.083Z</time></trkpt><trkpt lat="40.9807567" lon="14.3120483"><ele>21.0</ele><time>2026-04-06T08:47:34.083Z</time></trkpt><trkpt lat="40.98069" lon="14.3120067"><ele>21.0</ele><time>2026-04-06T08:47:35.084Z</time></trkpt><trkpt lat="40.9806183" lon="14.3119683"><ele>21.285714285714285</ele><time>2026-04-06T08:47:36.084Z</time></trkpt><trkpt lat="40.9805483" lon="14.3119267"><ele>21.57142857142857</ele><time>2026-04-06T08:47:37.084Z</time></trkpt><trkpt lat="40.9804817" lon="14.3118917"><ele>21.857142857142858</ele><time>2026-04-06T08:47:38.083Z</time></trkpt><trkpt lat="40.9804183" lon="14.31185"><ele>22.142857142857142</ele><time>2026-04-06T08:47:39.084Z</time></trkpt><trkpt lat="40.9803517" lon="14.3118067"><ele>22.428571428571427</ele><time>2026-04-06T08:47:40.083Z</time></trkpt><trkpt lat="40.9802833" lon="14.31176"><ele>22.714285714285715</ele><time>2026-04-06T08:47:41.086Z</time></trkpt><trkpt lat="40.980215" lon="14.3117167"><ele>23.0</ele><time>2026-04-06T08:47:42.084Z</time></trkpt><trkpt lat="40.9801483" lon="14.31167"><ele>23.0</ele><time>2026-04-06T08:47:43.084Z</time></trkpt><trkpt lat="40.9800883" lon="14.3116233"><ele>23.0</ele><time>2026-04-06T08:47:44.083Z</time></trkpt><trkpt lat="40.9800267" lon="14.31157"><ele>23.0</ele><time>2026-04-06T08:47:45.084Z</time></trkpt><trkpt lat="40.9799617" lon="14.3115167"><ele>23.0</ele><time>2026-04-06T08:47:46.084Z</time></trkpt><trkpt lat="40.979895" lon="14.311465"><ele>23.0</ele><time>2026-04-06T08:47:47.084Z</time></trkpt><trkpt lat="40.9798367" lon="14.31142"><ele>23.0</ele><time>2026-04-06T08:47:48.084Z</time></trkpt><trkpt lat="40.9797783" lon="14.311375"><ele>23.0</ele><time>2026-04-06T08:47:49.084Z</time></trkpt><trkpt lat="40.9797133" lon="14.31133"><ele>22.714285714285715</ele><time>2026-04-06T08:47:50.084Z</time></trkpt><trkpt lat="40.97965" lon="14.3112783"><ele>22.428571428571427</ele><time>2026-04-06T08:47:51.084Z</time></trkpt><trkpt lat="40.97959" lon="14.3112267"><ele>22.142857142857142</ele><time>2026-04-06T08:47:52.084Z</time></trkpt><trkpt lat="40.97953" lon="14.3111783"><ele>21.857142857142858</ele><time>2026-04-06T08:47:53.084Z</time></trkpt><trkpt lat="40.97947" lon="14.3111267"><ele>21.57142857142857</ele><time>2026-04-06T08:47:54.084Z</time></trkpt><trkpt lat="40.97941" lon="14.3110767"><ele>21.285714285714285</ele><time>2026-04-06T08:47:55.084Z</time></trkpt><trkpt lat="40.9793467" lon="14.3110233"><ele>21.0</ele><time>2026-04-06T08:47:56.084Z</time></trkpt><trkpt lat="40.979285" lon="14.3109717"><ele>21.0</ele><time>2026-04-06T08:47:57.084Z</time></trkpt><trkpt lat="40.979225" lon="14.3109217"><ele>21.0</ele><time>2026-04-06T08:47:58.084Z</time></trkpt><trkpt lat="40.9791667" lon="14.310865"><ele>21.0</ele><time>2026-04-06T08:47:59.084Z</time></trkpt><trkpt lat="40.9791067" lon="14.31081"><ele>21.0</ele><time>2026-04-06T08:48:00.085Z</time></trkpt><trkpt lat="40.9790467" lon="14.310755"><ele>21.0</ele><time>2026-04-06T08:48:01.084Z</time></trkpt><trkpt lat="40.97899" lon="14.3107033"><ele>21.0</ele><time>2026-04-06T08:48:02.084Z</time></trkpt><trkpt lat="40.9789333" lon="14.3106483"><ele>21.0</ele><time>2026-04-06T08:48:03.084Z</time></trkpt><trkpt lat="40.9788767" lon="14.310595"><ele>20.857142857142858</ele><time>2026-04-06T08:48:04.083Z</time></trkpt><trkpt lat="40.97882" lon="14.3105367"><ele>20.714285714285715</ele><time>2026-04-06T08:48:05.084Z</time></trkpt><trkpt lat="40.978765" lon="14.3104733"><ele>20.57142857142857</ele><time>2026-04-06T08:48:06.084Z</time></trkpt><trkpt lat="40.9787083" lon="14.31042"><ele>20.42857142857143</ele><time>2026-04-06T08:48:07.086Z</time></trkpt><trkpt lat="40.9786517" lon="14.3103683"><ele>20.285714285714285</ele><time>2026-04-06T08:48:08.084Z</time></trkpt><trkpt lat="40.9785967" lon="14.3103117"><ele>20.142857142857142</ele><time>2026-04-06T08:48:09.083Z</time></trkpt><trkpt lat="40.97854" lon="14.3102533"><ele>20.0</ele><time>2026-04-06T08:48:10.084Z</time></trkpt><trkpt lat="40.9784867" lon="14.310195"><ele>20.0</ele><time>2026-04-06T08:48:11.084Z</time></trkpt><trkpt lat="40.9784317" lon="14.3101383"><ele>20.0</ele><time>2026-04-06T08:48:12.084Z</time></trkpt><trkpt lat="40.978375" lon="14.3100817"><ele>20.0</ele><time>2026-04-06T08:48:13.085Z</time></trkpt><trkpt lat="40.97832" lon="14.3100233"><ele>20.0</ele><time>2026-04-06T08:48:14.084Z</time></trkpt><trkpt lat="40.978265" lon="14.3099633"><ele>20.0</ele><time>2026-04-06T08:48:15.084Z</time></trkpt><trkpt lat="40.9782083" lon="14.3099017"><ele>20.0</ele><time>2026-04-06T08:48:16.083Z</time></trkpt><trkpt lat="40.9781517" lon="14.3098433"><ele>20.0</ele><time>2026-04-06T08:48:17.084Z</time></trkpt><trkpt lat="40.9780967" lon="14.30978"><ele>20.333333333333336</ele><time>2026-04-06T08:48:18.084Z</time></trkpt><trkpt lat="40.9780417" lon="14.3097133"><ele>20.666666666666668</ele><time>2026-04-06T08:48:19.083Z</time></trkpt><trkpt lat="40.9779867" lon="14.309645"><ele>21.0</ele><time>2026-04-06T08:48:20.084Z</time></trkpt><trkpt lat="40.9779333" lon="14.3095733"><ele>21.333333333333332</ele><time>2026-04-06T08:48:21.084Z</time></trkpt><trkpt lat="40.9778767" lon="14.309505"><ele>21.666666666666664</ele><time>2026-04-06T08:48:22.085Z</time></trkpt><trkpt lat="40.9778217" lon="14.3094333"><ele>22.0</ele><time>2026-04-06T08:48:23.084Z</time></trkpt><trkpt lat="40.9777667" lon="14.3093583"><ele>22.0</ele><time>2026-04-06T08:48:24.085Z</time></trkpt><trkpt lat="40.9777083" lon="14.3092883"><ele>22.0</ele><time>2026-04-06T08:48:25.083Z</time></trkpt><trkpt lat="40.97765" lon="14.3092233"><ele>22.0</ele><time>2026-04-06T08:48:26.086Z</time></trkpt><trkpt lat="40.97759" lon="14.309155"><ele>22.0</ele><time>2026-04-06T08:48:27.084Z</time></trkpt><trkpt lat="40.977525" lon="14.3090917"><ele>22.0</ele><time>2026-04-06T08:48:28.084Z</time></trkpt><trkpt lat="40.97746" lon="14.3090333"><ele>22.0</ele><time>2026-04-06T08:48:29.085Z</time></trkpt><trkpt lat="40.97739" lon="14.308985"><ele>21.666666666666664</ele><time>2026-04-06T08:48:30.084Z</time></trkpt><trkpt lat="40.9773117" lon="14.3089467"><ele>21.333333333333332</ele><time>2026-04-06T08:48:31.084Z</time></trkpt><trkpt lat="40.9772267" lon="14.3089233"><ele>21.0</ele><time>2026-04-06T08:48:32.084Z</time></trkpt><trkpt lat="40.9771433" lon="14.3089167"><ele>20.666666666666668</ele><time>2026-04-06T08:48:33.084Z</time></trkpt><trkpt lat="40.97706" lon="14.308925"><ele>20.333333333333336</ele><time>2026-04-06T08:48:34.084Z</time></trkpt><trkpt lat="40.9769783" lon="14.3089467"><ele>20.0</ele><time>2026-04-06T08:48:35.084Z</time></trkpt><trkpt lat="40.9768967" lon="14.3089783"><ele>20.0</ele><time>2026-04-06T08:48:36.084Z</time></trkpt><trkpt lat="40.9768167" lon="14.309015"><ele>20.0</ele><time>2026-04-06T08:48:37.085Z</time></trkpt><trkpt lat="40.9767367" lon="14.309055"><ele>20.0</ele><time>2026-04-06T08:48:38.084Z</time></trkpt><trkpt lat="40.97666" lon="14.3090933"><ele>20.0</ele><time>2026-04-06T08:48:39.083Z</time></trkpt><trkpt lat="40.9765817" lon="14.3091333"><ele>20.0</ele><time>2026-04-06T08:48:40.084Z</time></trkpt><trkpt lat="40.9765" lon="14.3091783"><ele>20.0</ele><time>2026-04-06T08:48:41.084Z</time></trkpt><trkpt lat="40.976415" lon="14.3092233"><ele>20.333333333333336</ele><time>2026-04-06T08:48:42.084Z</time></trkpt><trkpt lat="40.9763333" lon="14.3092667"><ele>20.666666666666668</ele><time>2026-04-06T08:48:43.084Z</time></trkpt><trkpt lat="40.9762533" lon="14.3093117"><ele>21.0</ele><time>2026-04-06T08:48:44.084Z</time></trkpt><trkpt lat="40.97618" lon="14.309365"><ele>21.333333333333332</ele><time>2026-04-06T08:48:45.084Z</time></trkpt><trkpt lat="40.9761017" lon="14.3094183"><ele>21.666666666666664</ele><time>2026-04-06T08:48:46.084Z</time></trkpt><trkpt lat="40.976025" lon="14.3094717"><ele>22.0</ele><time>2026-04-06T08:48:47.084Z</time></trkpt><trkpt lat="40.9759433" lon="14.3095217"><ele>22.0</ele><time>2026-04-06T08:48:48.084Z</time></trkpt><trkpt lat="40.97586" lon="14.309565"><ele>22.0</ele><time>2026-04-06T08:48:49.084Z</time></trkpt><trkpt lat="40.975775" lon="14.309605"><ele>22.0</ele><time>2026-04-06T08:48:50.084Z</time></trkpt><trkpt lat="40.9756917" lon="14.3096433"><ele>22.0</ele><time>2026-04-06T08:48:51.084Z</time></trkpt><trkpt lat="40.97561" lon="14.3096767"><ele>22.0</ele><time>2026-04-06T08:48:52.084Z</time></trkpt><trkpt lat="40.9755283" lon="14.30971"><ele>22.0</ele><time>2026-04-06T08:48:53.083Z</time></trkpt><trkpt lat="40.97544" lon="14.3097283"><ele>22.0</ele><time>2026-04-06T08:48:54.085Z</time></trkpt><trkpt lat="40.9753517" lon="14.3097517"><ele>22.0</ele><time>2026-04-06T08:48:55.085Z</time></trkpt><trkpt lat="40.9752667" lon="14.3097633"><ele>22.0</ele><time>2026-04-06T08:48:56.084Z</time></trkpt><trkpt lat="40.9751817" lon="14.3097733"><ele>22.0</ele><time>2026-04-06T08:48:57.085Z</time></trkpt><trkpt lat="40.9751" lon="14.3097733"><ele>22.0</ele><time>2026-04-06T08:48:58.084Z</time></trkpt><trkpt lat="40.9750217" lon="14.3097717"><ele>22.0</ele><time>2026-04-06T08:48:59.084Z</time></trkpt><trkpt lat="40.9749417" lon="14.3097733"><ele>22.0</ele><time>2026-04-06T08:49:00.084Z</time></trkpt><trkpt lat="40.97486" lon="14.3097733"><ele>22.0</ele><time>2026-04-06T08:49:01.086Z</time></trkpt><trkpt lat="40.97478" lon="14.3097733"><ele>22.0</ele><time>2026-04-06T08:49:02.084Z</time></trkpt><trkpt lat="40.9747" lon="14.30977"><ele>22.0</ele><time>2026-04-06T08:49:03.084Z</time></trkpt><trkpt lat="40.9746183" lon="14.309765"><ele>22.0</ele><time>2026-04-06T08:49:04.086Z</time></trkpt><trkpt lat="40.9745383" lon="14.309765"><ele>22.0</ele><time>2026-04-06T08:49:05.085Z</time></trkpt><trkpt lat="40.9744583" lon="14.3097683"><ele>22.0</ele><time>2026-04-06T08:49:06.084Z</time></trkpt><trkpt lat="40.97438" lon="14.3097717"><ele>22.0</ele><time>2026-04-06T08:49:07.084Z</time></trkpt><trkpt lat="40.9743017" lon="14.3097767"><ele>22.0</ele><time>2026-04-06T08:49:08.084Z</time></trkpt><trkpt lat="40.9742233" lon="14.3097783"><ele>22.0</ele><time>2026-04-06T08:49:09.086Z</time></trkpt><trkpt lat="40.974145" lon="14.3097783"><ele>22.0</ele><time>2026-04-06T08:49:10.084Z</time></trkpt><trkpt lat="40.9740717" lon="14.30978"><ele>22.0</ele><time>2026-04-06T08:49:11.084Z</time></trkpt><trkpt lat="40.974" lon="14.309785"><ele>22.0</ele><time>2026-04-06T08:49:12.084Z</time></trkpt><trkpt lat="40.9739283" lon="14.3097883"><ele>22.0</ele><time>2026-04-06T08:49:13.085Z</time></trkpt><trkpt lat="40.9738567" lon="14.3097867"><ele>22.0</ele><time>2026-04-06T08:49:14.084Z</time></trkpt><trkpt lat="40.9737833" lon="14.3097817"><ele>22.0</ele><time>2026-04-06T08:49:15.085Z</time></trkpt><trkpt lat="40.9737133" lon="14.3097767"><ele>22.0</ele><time>2026-04-06T08:49:16.085Z</time></trkpt><trkpt lat="40.97364" lon="14.309765"><ele>22.0</ele><time>2026-04-06T08:49:17.084Z</time></trkpt><trkpt lat="40.9735683" lon="14.3097517"><ele>22.0</ele><time>2026-04-06T08:49:18.084Z</time></trkpt><trkpt lat="40.9735" lon="14.309735"><ele>22.0</ele><time>2026-04-06T08:49:19.085Z</time></trkpt><trkpt lat="40.9734317" lon="14.3097167"><ele>22.0</ele><time>2026-04-06T08:49:20.084Z</time></trkpt><trkpt lat="40.9733667" lon="14.3097017"><ele>22.0</ele><time>2026-04-06T08:49:21.084Z</time></trkpt><trkpt lat="40.9733017" lon="14.3096867"><ele>22.0</ele><time>2026-04-06T08:49:22.085Z</time></trkpt><trkpt lat="40.9731683" lon="14.3096617"><ele>22.0</ele><time>2026-04-06T08:49:24.085Z</time></trkpt><trkpt lat="40.9731" lon="14.3096483"><ele>22.0</ele><time>2026-04-06T08:49:25.084Z</time></trkpt><trkpt lat="40.97304" lon="14.3096167"><ele>22.0</ele><time>2026-04-06T08:49:26.087Z</time></trkpt><trkpt lat="40.97297" lon="14.309585"><ele>22.0</ele><time>2026-04-06T08:49:27.086Z</time></trkpt><trkpt lat="40.9728967" lon="14.3095583"><ele>22.0</ele><time>2026-04-06T08:49:28.085Z</time></trkpt><trkpt lat="40.97283" lon="14.3095283"><ele>22.0</ele><time>2026-04-06T08:49:29.087Z</time></trkpt><trkpt lat="40.97276" lon="14.3095"><ele>22.0</ele><time>2026-04-06T08:49:30.087Z</time></trkpt><trkpt lat="40.9726933" lon="14.3094733"><ele>22.0</ele><time>2026-04-06T08:49:31.085Z</time></trkpt><trkpt lat="40.9726267" lon="14.3094483"><ele>22.0</ele><time>2026-04-06T08:49:32.087Z</time></trkpt><trkpt lat="40.9725583" lon="14.3094217"><ele>22.142857142857142</ele><time>2026-04-06T08:49:33.087Z</time></trkpt><trkpt lat="40.97249" lon="14.3093967"><ele>22.285714285714285</ele><time>2026-04-06T08:49:34.085Z</time></trkpt><trkpt lat="40.97242" lon="14.3093667"><ele>22.42857142857143</ele><time>2026-04-06T08:49:35.086Z</time></trkpt><trkpt lat="40.97235" lon="14.30934"><ele>22.57142857142857</ele><time>2026-04-06T08:49:36.085Z</time></trkpt><trkpt lat="40.97228" lon="14.30931"><ele>22.71428571428571</ele><time>2026-04-06T08:49:37.085Z</time></trkpt><trkpt lat="40.97221" lon="14.3092833"><ele>22.857142857142858</ele><time>2026-04-06T08:49:38.086Z</time></trkpt><trkpt lat="40.97214" lon="14.3092583"><ele>23.0</ele><time>2026-04-06T08:49:39.084Z</time></trkpt><trkpt lat="40.9720683" lon="14.30923"><ele>23.0</ele><time>2026-04-06T08:49:40.084Z</time></trkpt><trkpt lat="40.972" lon="14.3092033"><ele>23.0</ele><time>2026-04-06T08:49:41.085Z</time></trkpt><trkpt lat="40.9719317" lon="14.30917"><ele>23.0</ele><time>2026-04-06T08:49:42.084Z</time></trkpt><trkpt lat="40.9718617" lon="14.30913"><ele>23.0</ele><time>2026-04-06T08:49:43.085Z</time></trkpt><trkpt lat="40.9717967" lon="14.3090883"><ele>23.0</ele><time>2026-04-06T08:49:44.084Z</time></trkpt><trkpt lat="40.97173" lon="14.3090433"><ele>23.0</ele><time>2026-04-06T08:49:45.085Z</time></trkpt><trkpt lat="40.97166" lon="14.3090033"><ele>23.0</ele><time>2026-04-06T08:49:46.084Z</time></trkpt><trkpt lat="40.9715967" lon="14.3089667"><ele>23.142857142857142</ele><time>2026-04-06T08:49:47.085Z</time></trkpt><trkpt lat="40.97153" lon="14.308925"><ele>23.285714285714285</ele><time>2026-04-06T08:49:48.085Z</time></trkpt><trkpt lat="40.971465" lon="14.3088833"><ele>23.428571428571427</ele><time>2026-04-06T08:49:49.085Z</time></trkpt><trkpt lat="40.9714017" lon="14.3088367"><ele>23.57142857142857</ele><time>2026-04-06T08:49:50.084Z</time></trkpt><trkpt lat="40.9713383" lon="14.3087967"><ele>23.714285714285715</ele><time>2026-04-06T08:49:51.085Z</time></trkpt><trkpt lat="40.9712767" lon="14.3087583"><ele>23.857142857142854</ele><time>2026-04-06T08:49:52.084Z</time></trkpt><trkpt lat="40.971215" lon="14.30872"><ele>24.0</ele><time>2026-04-06T08:49:53.084Z</time></trkpt><trkpt lat="40.9711517" lon="14.3086817"><ele>24.0</ele><time>2026-04-06T08:49:54.084Z</time></trkpt><trkpt lat="40.9710367" lon="14.30861"><ele>24.0</ele><time>2026-04-06T08:49:56.084Z</time></trkpt><trkpt lat="40.970975" lon="14.3085717"><ele>24.0</ele><time>2026-04-06T08:49:57.084Z</time></trkpt><trkpt lat="40.9709133" lon="14.30853"><ele>24.0</ele><time>2026-04-06T08:49:58.084Z</time></trkpt><trkpt lat="40.9708483" lon="14.30849"><ele>24.0</ele><time>2026-04-06T08:49:59.084Z</time></trkpt><trkpt lat="40.9707817" lon="14.3084567"><ele>24.0</ele><time>2026-04-06T08:50:00.084Z</time></trkpt><trkpt lat="40.9707117" lon="14.308425"><ele>23.833333333333332</ele><time>2026-04-06T08:50:01.086Z</time></trkpt><trkpt lat="40.9706417" lon="14.3083917"><ele>23.666666666666668</ele><time>2026-04-06T08:50:02.085Z</time></trkpt><trkpt lat="40.970565" lon="14.3083617"><ele>23.5</ele><time>2026-04-06T08:50:03.085Z</time></trkpt><trkpt lat="40.970485" lon="14.3083317"><ele>23.333333333333336</ele><time>2026-04-06T08:50:04.085Z</time></trkpt><trkpt lat="40.9704" lon="14.308305"><ele>23.166666666666668</ele><time>2026-04-06T08:50:05.084Z</time></trkpt><trkpt lat="40.9703133" lon="14.3082817"><ele>23.0</ele><time>2026-04-06T08:50:06.086Z</time></trkpt><trkpt lat="40.9702267" lon="14.3082683"><ele>23.0</ele><time>2026-04-06T08:50:07.086Z</time></trkpt><trkpt lat="40.9701433" lon="14.3082533"><ele>23.0</ele><time>2026-04-06T08:50:08.085Z</time></trkpt><trkpt lat="40.97006" lon="14.3082467"><ele>23.0</ele><time>2026-04-06T08:50:09.084Z</time></trkpt><trkpt lat="40.9699767" lon="14.308245"><ele>23.0</ele><time>2026-04-06T08:50:10.088Z</time></trkpt><trkpt lat="40.969895" lon="14.3082383"><ele>23.0</ele><time>2026-04-06T08:50:11.085Z</time></trkpt><trkpt lat="40.9698167" lon="14.3082317"><ele>23.0</ele><time>2026-04-06T08:50:12.085Z</time></trkpt><trkpt lat="40.96974" lon="14.308225"><ele>23.142857142857142</ele><time>2026-04-06T08:50:13.084Z</time></trkpt><trkpt lat="40.969665" lon="14.3082233"><ele>23.285714285714285</ele><time>2026-04-06T08:50:14.086Z</time></trkpt><trkpt lat="40.9695933" lon="14.3082217"><ele>23.428571428571427</ele><time>2026-04-06T08:50:15.084Z</time></trkpt><trkpt lat="40.9695233" lon="14.30822"><ele>23.57142857142857</ele><time>2026-04-06T08:50:16.084Z</time></trkpt><trkpt lat="40.9694533" lon="14.3082167"><ele>23.714285714285715</ele><time>2026-04-06T08:50:17.084Z</time></trkpt><trkpt lat="40.9693833" lon="14.3082117"><ele>23.857142857142854</ele><time>2026-04-06T08:50:18.085Z</time></trkpt><trkpt lat="40.969315" lon="14.3082117"><ele>24.0</ele><time>2026-04-06T08:50:19.087Z</time></trkpt><trkpt lat="40.9692433" lon="14.3082033"><ele>24.142857142857142</ele><time>2026-04-06T08:50:20.086Z</time></trkpt><trkpt lat="40.9691767" lon="14.308195"><ele>24.285714285714285</ele><time>2026-04-06T08:50:21.091Z</time></trkpt><trkpt lat="40.9691083" lon="14.308185"><ele>24.42857142857143</ele><time>2026-04-06T08:50:22.084Z</time></trkpt><trkpt lat="40.9690417" lon="14.3081767"><ele>24.57142857142857</ele><time>2026-04-06T08:50:23.088Z</time></trkpt><trkpt lat="40.968975" lon="14.30817"><ele>24.714285714285715</ele><time>2026-04-06T08:50:24.085Z</time></trkpt><trkpt lat="40.96891" lon="14.3081633"><ele>24.857142857142858</ele><time>2026-04-06T08:50:25.085Z</time></trkpt><trkpt lat="40.9688433" lon="14.308155"><ele>25.0</ele><time>2026-04-06T08:50:26.085Z</time></trkpt><trkpt lat="40.9687783" lon="14.3081433"><ele>25.000000000000004</ele><time>2026-04-06T08:50:27.084Z</time></trkpt><trkpt lat="40.9687133" lon="14.3081333"><ele>25.0</ele><time>2026-04-06T08:50:28.087Z</time></trkpt><trkpt lat="40.96859" lon="14.30811"><ele>25.0</ele><time>2026-04-06T08:50:30.085Z</time></trkpt><trkpt lat="40.9684667" lon="14.3080783"><ele>25.0</ele><time>2026-04-06T08:50:32.084Z</time></trkpt><trkpt lat="40.968405" lon="14.3080567"><ele>25.000000000000004</ele><time>2026-04-06T08:50:33.087Z</time></trkpt><trkpt lat="40.968345" lon="14.3080283"><ele>25.0</ele><time>2026-04-06T08:50:34.086Z</time></trkpt><trkpt lat="40.968285" lon="14.3079967"><ele>25.142857142857146</ele><time>2026-04-06T08:50:35.084Z</time></trkpt><trkpt lat="40.968225" lon="14.3079683"><ele>25.285714285714285</ele><time>2026-04-06T08:50:36.084Z</time></trkpt><trkpt lat="40.96816" lon="14.30794"><ele>25.42857142857143</ele><time>2026-04-06T08:50:37.084Z</time></trkpt><trkpt lat="40.9680983" lon="14.3079133"><ele>25.571428571428573</ele><time>2026-04-06T08:50:38.084Z</time></trkpt><trkpt lat="40.968035" lon="14.3078883"><ele>25.714285714285715</ele><time>2026-04-06T08:50:39.084Z</time></trkpt><trkpt lat="40.9679717" lon="14.307865"><ele>25.857142857142858</ele><time>2026-04-06T08:50:40.083Z</time></trkpt><trkpt lat="40.9679067" lon="14.30784"><ele>26.0</ele><time>2026-04-06T08:50:41.083Z</time></trkpt><trkpt lat="40.9678383" lon="14.3078067"><ele>26.0</ele><time>2026-04-06T08:50:42.084Z</time></trkpt><trkpt lat="40.9677717" lon="14.30777"><ele>26.0</ele><time>2026-04-06T08:50:43.083Z</time></trkpt><trkpt lat="40.96771" lon="14.30774"><ele>26.0</ele><time>2026-04-06T08:50:44.083Z</time></trkpt><trkpt lat="40.9676467" lon="14.3077117"><ele>26.0</ele><time>2026-04-06T08:50:45.084Z</time></trkpt><trkpt lat="40.96758" lon="14.3076817"><ele>26.0</ele><time>2026-04-06T08:50:46.084Z</time></trkpt><trkpt lat="40.9675117" lon="14.3076467"><ele>26.0</ele><time>2026-04-06T08:50:47.083Z</time></trkpt><trkpt lat="40.96744" lon="14.3076083"><ele>26.0</ele><time>2026-04-06T08:50:48.083Z</time></trkpt><trkpt lat="40.9673667" lon="14.3075783"><ele>25.666666666666664</ele><time>2026-04-06T08:50:49.083Z</time></trkpt><trkpt lat="40.9672933" lon="14.3075517"><ele>25.333333333333332</ele><time>2026-04-06T08:50:50.083Z</time></trkpt><trkpt lat="40.9672183" lon="14.3075283"><ele>25.0</ele><time>2026-04-06T08:50:51.083Z</time></trkpt><trkpt lat="40.9671467" lon="14.307495"><ele>24.666666666666664</ele><time>2026-04-06T08:50:52.083Z</time></trkpt><trkpt lat="40.967075" lon="14.3074567"><ele>24.333333333333332</ele><time>2026-04-06T08:50:53.083Z</time></trkpt><trkpt lat="40.967" lon="14.30742"><ele>24.0</ele><time>2026-04-06T08:50:54.083Z</time></trkpt><trkpt lat="40.9669233" lon="14.3073783"><ele>24.0</ele><time>2026-04-06T08:50:55.083Z</time></trkpt><trkpt lat="40.9668483" lon="14.30734"><ele>24.0</ele><time>2026-04-06T08:50:56.084Z</time></trkpt><trkpt lat="40.9667767" lon="14.307305"><ele>24.0</ele><time>2026-04-06T08:50:57.083Z</time></trkpt><trkpt lat="40.966705" lon="14.307265"><ele>24.0</ele><time>2026-04-06T08:50:58.083Z</time></trkpt><trkpt lat="40.9666367" lon="14.307225"><ele>24.0</ele><time>2026-04-06T08:50:59.084Z</time></trkpt><trkpt lat="40.9665667" lon="14.3071883"><ele>24.0</ele><time>2026-04-06T08:51:00.083Z</time></trkpt><trkpt lat="40.9664983" lon="14.3071517"><ele>24.142857142857142</ele><time>2026-04-06T08:51:01.083Z</time></trkpt><trkpt lat="40.9664283" lon="14.30711"><ele>24.285714285714285</ele><time>2026-04-06T08:51:02.083Z</time></trkpt><trkpt lat="40.9663583" lon="14.3070683"><ele>24.42857142857143</ele><time>2026-04-06T08:51:03.083Z</time></trkpt><trkpt lat="40.96629" lon="14.30703"><ele>24.57142857142857</ele><time>2026-04-06T08:51:04.084Z</time></trkpt><trkpt lat="40.9662217" lon="14.3069933"><ele>24.714285714285715</ele><time>2026-04-06T08:51:05.083Z</time></trkpt><trkpt lat="40.966155" lon="14.306955"><ele>24.857142857142858</ele><time>2026-04-06T08:51:06.084Z</time></trkpt><trkpt lat="40.9660883" lon="14.3069183"><ele>25.0</ele><time>2026-04-06T08:51:07.086Z</time></trkpt><trkpt lat="40.9660217" lon="14.306885"><ele>25.000000000000004</ele><time>2026-04-06T08:51:08.083Z</time></trkpt><trkpt lat="40.965955" lon="14.3068567"><ele>25.0</ele><time>2026-04-06T08:51:09.083Z</time></trkpt><trkpt lat="40.9658867" lon="14.306835"><ele>25.0</ele><time>2026-04-06T08:51:10.083Z</time></trkpt><trkpt lat="40.9658167" lon="14.3068233"><ele>25.0</ele><time>2026-04-06T08:51:11.084Z</time></trkpt><trkpt lat="40.965745" lon="14.3068183"><ele>25.0</ele><time>2026-04-06T08:51:12.083Z</time></trkpt><trkpt lat="40.965675" lon="14.306815"><ele>25.000000000000004</ele><time>2026-04-06T08:51:13.086Z</time></trkpt><trkpt lat="40.965605" lon="14.30682"><ele>25.0</ele><time>2026-04-06T08:51:14.084Z</time></trkpt><trkpt lat="40.96554" lon="14.3068267"><ele>25.000000000000004</ele><time>2026-04-06T08:51:15.085Z</time></trkpt><trkpt lat="40.965475" lon="14.306835"><ele>25.0</ele><time>2026-04-06T08:51:16.083Z</time></trkpt><trkpt lat="40.96541" lon="14.306855"><ele>25.0</ele><time>2026-04-06T08:51:17.083Z</time></trkpt><trkpt lat="40.9653433" lon="14.3068717"><ele>25.0</ele><time>2026-04-06T08:51:18.083Z</time></trkpt><trkpt lat="40.96528" lon="14.30689"><ele>25.0</ele><time>2026-04-06T08:51:19.083Z</time></trkpt><trkpt lat="40.9652133" lon="14.3069067"><ele>25.000000000000004</ele><time>2026-04-06T08:51:20.083Z</time></trkpt><trkpt lat="40.96515" lon="14.3069217"><ele>25.0</ele><time>2026-04-06T08:51:21.088Z</time></trkpt><trkpt lat="40.965085" lon="14.3069317"><ele>25.0</ele><time>2026-04-06T08:51:22.085Z</time></trkpt><trkpt lat="40.9650233" lon="14.3069517"><ele>25.0</ele><time>2026-04-06T08:51:23.084Z</time></trkpt><trkpt lat="40.964905" lon="14.3069833"><ele>25.0</ele><time>2026-04-06T08:51:25.083Z</time></trkpt><trkpt lat="40.9647833" lon="14.3070117"><ele>25.0</ele><time>2026-04-06T08:51:27.083Z</time></trkpt><trkpt lat="40.96472" lon="14.3070267"><ele>25.0</ele><time>2026-04-06T08:51:28.083Z</time></trkpt><trkpt lat="40.9645983" lon="14.3070467"><ele>25.000000000000004</ele><time>2026-04-06T08:51:30.083Z</time></trkpt><trkpt lat="40.9645333" lon="14.3070533"><ele>25.0</ele><time>2026-04-06T08:51:31.083Z</time></trkpt><trkpt lat="40.96447" lon="14.3070633"><ele>25.0</ele><time>2026-04-06T08:51:32.084Z</time></trkpt><trkpt lat="40.964405" lon="14.3070717"><ele>25.0</ele><time>2026-04-06T08:51:33.084Z</time></trkpt><trkpt lat="40.96434" lon="14.3070767"><ele>25.0</ele><time>2026-04-06T08:51:34.084Z</time></trkpt><trkpt lat="40.964275" lon="14.3070833"><ele>25.000000000000004</ele><time>2026-04-06T08:51:35.083Z</time></trkpt><trkpt lat="40.9642117" lon="14.30709"><ele>25.0</ele><time>2026-04-06T08:51:36.084Z</time></trkpt><trkpt lat="40.9641467" lon="14.3070983"><ele>24.666666666666668</ele><time>2026-04-06T08:51:37.084Z</time></trkpt><trkpt lat="40.96408" lon="14.3071"><ele>24.333333333333336</ele><time>2026-04-06T08:51:38.084Z</time></trkpt><trkpt lat="40.964015" lon="14.3071033"><ele>24.0</ele><time>2026-04-06T08:51:39.083Z</time></trkpt><trkpt lat="40.9639517" lon="14.3071083"><ele>23.666666666666668</ele><time>2026-04-06T08:51:40.084Z</time></trkpt><trkpt lat="40.9638883" lon="14.3071133"><ele>23.333333333333336</ele><time>2026-04-06T08:51:41.084Z</time></trkpt><trkpt lat="40.9638233" lon="14.3071217"><ele>23.0</ele><time>2026-04-06T08:51:42.083Z</time></trkpt><trkpt lat="40.9636967" lon="14.3071317"><ele>23.0</ele><time>2026-04-06T08:51:44.085Z</time></trkpt><trkpt lat="40.9636333" lon="14.3071433"><ele>23.0</ele><time>2026-04-06T08:51:45.084Z</time></trkpt><trkpt lat="40.9635667" lon="14.3071533"><ele>23.0</ele><time>2026-04-06T08:51:46.083Z</time></trkpt><trkpt lat="40.9634433" lon="14.3071783"><ele>23.0</ele><time>2026-04-06T08:51:48.084Z</time></trkpt><trkpt lat="40.96338" lon="14.3071867"><ele>23.0</ele><time>2026-04-06T08:51:49.084Z</time></trkpt><trkpt lat="40.9632567" lon="14.3071967"><ele>23.0</ele><time>2026-04-06T08:51:51.083Z</time></trkpt><trkpt lat="40.9631933" lon="14.3072017"><ele>23.333333333333336</ele><time>2026-04-06T08:51:52.083Z</time></trkpt><trkpt lat="40.9631283" lon="14.3072117"><ele>23.666666666666668</ele><time>2026-04-06T08:51:53.084Z</time></trkpt><trkpt lat="40.9630617" lon="14.3072183"><ele>24.0</ele><time>2026-04-06T08:51:54.085Z</time></trkpt><trkpt lat="40.9629967" lon="14.3072267"><ele>24.333333333333336</ele><time>2026-04-06T08:51:55.085Z</time></trkpt><trkpt lat="40.9628717" lon="14.307245"><ele>24.666666666666668</ele><time>2026-04-06T08:51:57.083Z</time></trkpt><trkpt lat="40.9628067" lon="14.30725"><ele>25.0</ele><time>2026-04-06T08:51:58.083Z</time></trkpt><trkpt lat="40.9627383" lon="14.3072517"><ele>25.142857142857146</ele><time>2026-04-06T08:51:59.084Z</time></trkpt><trkpt lat="40.96267" lon="14.3072533"><ele>25.285714285714285</ele><time>2026-04-06T08:52:00.083Z</time></trkpt><trkpt lat="40.9626017" lon="14.3072567"><ele>25.42857142857143</ele><time>2026-04-06T08:52:01.084Z</time></trkpt><trkpt lat="40.96253" lon="14.3072617"><ele>25.571428571428573</ele><time>2026-04-06T08:52:02.084Z</time></trkpt><trkpt lat="40.9624617" lon="14.3072683"><ele>25.714285714285715</ele><time>2026-04-06T08:52:03.084Z</time></trkpt><trkpt lat="40.9623917" lon="14.307275"><ele>25.857142857142858</ele><time>2026-04-06T08:52:04.083Z</time></trkpt><trkpt lat="40.962325" lon="14.3072833"><ele>26.0</ele><time>2026-04-06T08:52:05.084Z</time></trkpt><trkpt lat="40.9622583" lon="14.3072917"><ele>26.142857142857142</ele><time>2026-04-06T08:52:06.085Z</time></trkpt><trkpt lat="40.9621883" lon="14.3072933"><ele>26.28571428571429</ele><time>2026-04-06T08:52:07.084Z</time></trkpt><trkpt lat="40.96212" lon="14.3072983"><ele>26.42857142857143</ele><time>2026-04-06T08:52:08.083Z</time></trkpt><trkpt lat="40.9620517" lon="14.3072983"><ele>26.57142857142857</ele><time>2026-04-06T08:52:09.083Z</time></trkpt><trkpt lat="40.9619867" lon="14.3072983"><ele>26.714285714285715</ele><time>2026-04-06T08:52:10.084Z</time></trkpt><trkpt lat="40.9619217" lon="14.3072983"><ele>26.857142857142858</ele><time>2026-04-06T08:52:11.085Z</time></trkpt><trkpt lat="40.9618567" lon="14.3073033"><ele>27.0</ele><time>2026-04-06T08:52:12.085Z</time></trkpt><trkpt lat="40.96179" lon="14.30731"><ele>27.0</ele><time>2026-04-06T08:52:13.084Z</time></trkpt><trkpt lat="40.961725" lon="14.3073117"><ele>27.0</ele><time>2026-04-06T08:52:14.084Z</time></trkpt><trkpt lat="40.9616567" lon="14.3073117"><ele>27.0</ele><time>2026-04-06T08:52:15.083Z</time></trkpt><trkpt lat="40.961585" lon="14.3073067"><ele>27.0</ele><time>2026-04-06T08:52:16.083Z</time></trkpt><trkpt lat="40.9615183" lon="14.3072933"><ele>27.0</ele><time>2026-04-06T08:52:17.085Z</time></trkpt><trkpt lat="40.9614533" lon="14.3072867"><ele>27.0</ele><time>2026-04-06T08:52:18.083Z</time></trkpt><trkpt lat="40.9613867" lon="14.3072767"><ele>27.0</ele><time>2026-04-06T08:52:19.085Z</time></trkpt><trkpt lat="40.96132" lon="14.3072717"><ele>27.0</ele><time>2026-04-06T08:52:20.086Z</time></trkpt><trkpt lat="40.9612533" lon="14.307265"><ele>27.000000000000004</ele><time>2026-04-06T08:52:21.085Z</time></trkpt><trkpt lat="40.9611883" lon="14.307255"><ele>27.000000000000004</ele><time>2026-04-06T08:52:22.084Z</time></trkpt><trkpt lat="40.96107" lon="14.307235"><ele>27.0</ele><time>2026-04-06T08:52:24.083Z</time></trkpt><trkpt lat="40.960965" lon="14.3072117"><ele>27.0</ele><time>2026-04-06T08:52:26.088Z</time></trkpt><trkpt lat="40.9608667" lon="14.3071733"><ele>26.8</ele><time>2026-04-06T08:52:28.083Z</time></trkpt><trkpt lat="40.960775" lon="14.3071167"><ele>26.6</ele><time>2026-04-06T08:52:30.084Z</time></trkpt><trkpt lat="40.960685" lon="14.30708"><ele>26.400000000000002</ele><time>2026-04-06T08:52:32.084Z</time></trkpt><trkpt lat="40.960575" lon="14.3070767"><ele>26.200000000000003</ele><time>2026-04-06T08:52:34.083Z</time></trkpt><trkpt lat="40.9604483" lon="14.3070633"><ele>26.0</ele><time>2026-04-06T08:52:36.086Z</time></trkpt><trkpt lat="40.9603833" lon="14.30705"><ele>25.999999999999996</ele><time>2026-04-06T08:52:37.086Z</time></trkpt><trkpt lat="40.9603183" lon="14.3070333"><ele>26.0</ele><time>2026-04-06T08:52:38.084Z</time></trkpt><trkpt lat="40.9602517" lon="14.3070117"><ele>26.0</ele><time>2026-04-06T08:52:39.084Z</time></trkpt><trkpt lat="40.9601817" lon="14.3069917"><ele>26.0</ele><time>2026-04-06T08:52:40.083Z</time></trkpt><trkpt lat="40.96011" lon="14.306975"><ele>25.999999999999996</ele><time>2026-04-06T08:52:41.085Z</time></trkpt><trkpt lat="40.9600433" lon="14.3069633"><ele>26.0</ele><time>2026-04-06T08:52:42.084Z</time></trkpt><trkpt lat="40.9599267" lon="14.30693"><ele>25.6</ele><time>2026-04-06T08:52:44.083Z</time></trkpt><trkpt lat="40.9598283" lon="14.3069017"><ele>25.200000000000003</ele><time>2026-04-06T08:52:46.084Z</time></trkpt><trkpt lat="40.9597267" lon="14.3068833"><ele>24.799999999999997</ele><time>2026-04-06T08:52:48.084Z</time></trkpt><trkpt lat="40.95962" lon="14.3068467"><ele>24.4</ele><time>2026-04-06T08:52:50.085Z</time></trkpt><trkpt lat="40.9595033" lon="14.3068217"><ele>24.0</ele><time>2026-04-06T08:52:52.084Z</time></trkpt><trkpt lat="40.9593817" lon="14.3067967"><ele>23.999999999999996</ele><time>2026-04-06T08:52:54.086Z</time></trkpt><trkpt lat="40.9593183" lon="14.30678"><ele>24.0</ele><time>2026-04-06T08:52:55.085Z</time></trkpt><trkpt lat="40.959255" lon="14.306765"><ele>24.0</ele><time>2026-04-06T08:52:56.086Z</time></trkpt><trkpt lat="40.9591883" lon="14.3067483"><ele>24.0</ele><time>2026-04-06T08:52:57.086Z</time></trkpt><trkpt lat="40.95912" lon="14.3067217"><ele>24.0</ele><time>2026-04-06T08:52:58.084Z</time></trkpt><trkpt lat="40.9590517" lon="14.3067"><ele>23.999999999999996</ele><time>2026-04-06T08:52:59.084Z</time></trkpt><trkpt lat="40.95898" lon="14.3066833"><ele>24.0</ele><time>2026-04-06T08:53:00.084Z</time></trkpt><trkpt lat="40.95891" lon="14.3066633"><ele>24.57142857142857</ele><time>2026-04-06T08:53:01.085Z</time></trkpt><trkpt lat="40.9588417" lon="14.30665"><ele>25.142857142857142</ele><time>2026-04-06T08:53:02.085Z</time></trkpt><trkpt lat="40.9587767" lon="14.3066317"><ele>25.714285714285715</ele><time>2026-04-06T08:53:03.085Z</time></trkpt><trkpt lat="40.9587133" lon="14.306605"><ele>26.285714285714285</ele><time>2026-04-06T08:53:04.085Z</time></trkpt><trkpt lat="40.9586483" lon="14.306575"><ele>26.857142857142858</ele><time>2026-04-06T08:53:05.086Z</time></trkpt><trkpt lat="40.9585867" lon="14.3065433"><ele>27.428571428571427</ele><time>2026-04-06T08:53:06.084Z</time></trkpt><trkpt lat="40.958525" lon="14.30651"><ele>28.0</ele><time>2026-04-06T08:53:07.084Z</time></trkpt><trkpt lat="40.9584667" lon="14.3064733"><ele>28.25</ele><time>2026-04-06T08:53:08.086Z</time></trkpt><trkpt lat="40.9583633" lon="14.3063883"><ele>28.5</ele><time>2026-04-06T08:53:10.085Z</time></trkpt><trkpt lat="40.9582717" lon="14.306285"><ele>28.75</ele><time>2026-04-06T08:53:12.086Z</time></trkpt><trkpt lat="40.958175" lon="14.3061817"><ele>29.0</ele><time>2026-04-06T08:53:14.087Z</time></trkpt><trkpt lat="40.9580767" lon="14.3060867"><ele>28.999999999999996</ele><time>2026-04-06T08:53:16.084Z</time></trkpt><trkpt lat="40.958025" lon="14.3060383"><ele>29.0</ele><time>2026-04-06T08:53:17.085Z</time></trkpt><trkpt lat="40.9579733" lon="14.3059867"><ele>29.0</ele><time>2026-04-06T08:53:18.085Z</time></trkpt><trkpt lat="40.9578717" lon="14.3058883"><ele>29.0</ele><time>2026-04-06T08:53:20.084Z</time></trkpt><trkpt lat="40.9578233" lon="14.3058283"><ele>28.999999999999996</ele><time>2026-04-06T08:53:21.084Z</time></trkpt><trkpt lat="40.9577733" lon="14.3057733"><ele>29.0</ele><time>2026-04-06T08:53:22.085Z</time></trkpt><trkpt lat="40.9577183" lon="14.305725"><ele>28.999999999999996</ele><time>2026-04-06T08:53:23.086Z</time></trkpt><trkpt lat="40.9576667" lon="14.30567"><ele>29.0</ele><time>2026-04-06T08:53:24.085Z</time></trkpt><trkpt lat="40.95757" lon="14.3055633"><ele>29.0</ele><time>2026-04-06T08:53:26.085Z</time></trkpt><trkpt lat="40.9575167" lon="14.305515"><ele>29.0</ele><time>2026-04-06T08:53:27.085Z</time></trkpt><trkpt lat="40.9574617" lon="14.3054667"><ele>28.999999999999996</ele><time>2026-04-06T08:53:28.086Z</time></trkpt><trkpt lat="40.9574067" lon="14.3054117"><ele>29.0</ele><time>2026-04-06T08:53:29.085Z</time></trkpt><trkpt lat="40.9573533" lon="14.3053633"><ele>29.000000000000004</ele><time>2026-04-06T08:53:30.085Z</time></trkpt><trkpt lat="40.9573017" lon="14.30531"><ele>29.0</ele><time>2026-04-06T08:53:31.085Z</time></trkpt><trkpt lat="40.9572467" lon="14.305255"><ele>29.000000000000004</ele><time>2026-04-06T08:53:32.085Z</time></trkpt><trkpt lat="40.9571917" lon="14.3051933"><ele>29.000000000000004</ele><time>2026-04-06T08:53:33.086Z</time></trkpt><trkpt lat="40.9571367" lon="14.30514"><ele>29.0</ele><time>2026-04-06T08:53:34.084Z</time></trkpt><trkpt lat="40.9570817" lon="14.3050833"><ele>29.000000000000004</ele><time>2026-04-06T08:53:35.086Z</time></trkpt><trkpt lat="40.9570217" lon="14.3050317"><ele>29.000000000000004</ele><time>2026-04-06T08:53:36.085Z</time></trkpt><trkpt lat="40.95696" lon="14.30499"><ele>28.999999999999996</ele><time>2026-04-06T08:53:37.085Z</time></trkpt><trkpt lat="40.9569017" lon="14.304945"><ele>29.0</ele><time>2026-04-06T08:53:38.085Z</time></trkpt><trkpt lat="40.9568433" lon="14.3049033"><ele>29.0</ele><time>2026-04-06T08:53:39.084Z</time></trkpt><trkpt lat="40.9567883" lon="14.3048533"><ele>29.0</ele><time>2026-04-06T08:53:40.084Z</time></trkpt><trkpt lat="40.9566783" lon="14.3047783"><ele>28.999999999999996</ele><time>2026-04-06T08:53:42.084Z</time></trkpt><trkpt lat="40.9566117" lon="14.3047517"><ele>29.0</ele><time>2026-04-06T08:53:43.084Z</time></trkpt><trkpt lat="40.9565533" lon="14.3047183"><ele>29.000000000000004</ele><time>2026-04-06T08:53:44.088Z</time></trkpt><trkpt lat="40.95649" lon="14.304695"><ele>29.0</ele><time>2026-04-06T08:53:45.085Z</time></trkpt><trkpt lat="40.9564233" lon="14.3046817"><ele>29.000000000000004</ele><time>2026-04-06T08:53:46.085Z</time></trkpt><trkpt lat="40.9563617" lon="14.3046617"><ele>29.000000000000004</ele><time>2026-04-06T08:53:47.085Z</time></trkpt><trkpt lat="40.9563" lon="14.3046417"><ele>29.0</ele><time>2026-04-06T08:53:48.085Z</time></trkpt><trkpt lat="40.9562367" lon="14.304625"><ele>29.000000000000004</ele><time>2026-04-06T08:53:49.086Z</time></trkpt><trkpt lat="40.956175" lon="14.3046"><ele>29.000000000000004</ele><time>2026-04-06T08:53:50.085Z</time></trkpt><trkpt lat="40.95611" lon="14.3045833"><ele>29.0</ele><time>2026-04-06T08:53:51.085Z</time></trkpt><trkpt lat="40.9559967" lon="14.30456"><ele>29.0</ele><time>2026-04-06T08:53:53.085Z</time></trkpt><trkpt lat="40.9559033" lon="14.3045417"><ele>29.0</ele><time>2026-04-06T08:53:55.085Z</time></trkpt><trkpt lat="40.9558167" lon="14.304525"><ele>29.0</ele><time>2026-04-06T08:53:57.085Z</time></trkpt><trkpt lat="40.9557133" lon="14.3045"><ele>29.0</ele><time>2026-04-06T08:53:59.085Z</time></trkpt><trkpt lat="40.9556067" lon="14.30446"><ele>28.799999999999997</ele><time>2026-04-06T08:54:01.085Z</time></trkpt><trkpt lat="40.955485" lon="14.3044133"><ele>28.599999999999998</ele><time>2026-04-06T08:54:03.084Z</time></trkpt><trkpt lat="40.95536" lon="14.30437"><ele>28.4</ele><time>2026-04-06T08:54:05.084Z</time></trkpt><trkpt lat="40.95529" lon="14.3043417"><ele>28.2</ele><time>2026-04-06T08:54:06.086Z</time></trkpt><trkpt lat="40.9552217" lon="14.304315"><ele>28.0</ele><time>2026-04-06T08:54:07.085Z</time></trkpt><trkpt lat="40.9551517" lon="14.30429"><ele>28.000000000000004</ele><time>2026-04-06T08:54:08.085Z</time></trkpt><trkpt lat="40.9550767" lon="14.3042717"><ele>28.0</ele><time>2026-04-06T08:54:09.085Z</time></trkpt><trkpt lat="40.9550067" lon="14.304245"><ele>28.0</ele><time>2026-04-06T08:54:10.086Z</time></trkpt><trkpt lat="40.9549333" lon="14.3042133"><ele>28.0</ele><time>2026-04-06T08:54:11.087Z</time></trkpt><trkpt lat="40.9548567" lon="14.3041833"><ele>28.000000000000004</ele><time>2026-04-06T08:54:12.085Z</time></trkpt><trkpt lat="40.9547767" lon="14.304155"><ele>28.0</ele><time>2026-04-06T08:54:13.085Z</time></trkpt><trkpt lat="40.9547017" lon="14.304125"><ele>28.000000000000004</ele><time>2026-04-06T08:54:14.085Z</time></trkpt><trkpt lat="40.9546267" lon="14.304095"><ele>28.0</ele><time>2026-04-06T08:54:15.084Z</time></trkpt><trkpt lat="40.95455" lon="14.304065"><ele>28.0</ele><time>2026-04-06T08:54:16.084Z</time></trkpt><trkpt lat="40.9544733" lon="14.3040333"><ele>28.0</ele><time>2026-04-06T08:54:17.085Z</time></trkpt><trkpt lat="40.9544" lon="14.3040067"><ele>28.000000000000004</ele><time>2026-04-06T08:54:18.085Z</time></trkpt><trkpt lat="40.9543233" lon="14.3039883"><ele>28.0</ele><time>2026-04-06T08:54:19.085Z</time></trkpt><trkpt lat="40.9542467" lon="14.303965"><ele>28.0</ele><time>2026-04-06T08:54:20.085Z</time></trkpt><trkpt lat="40.9541767" lon="14.3039283"><ele>28.0</ele><time>2026-04-06T08:54:21.085Z</time></trkpt><trkpt lat="40.954105" lon="14.3038983"><ele>28.0</ele><time>2026-04-06T08:54:22.084Z</time></trkpt><trkpt lat="40.9540383" lon="14.3038633"><ele>28.0</ele><time>2026-04-06T08:54:23.085Z</time></trkpt><trkpt lat="40.9539767" lon="14.3038133"><ele>28.0</ele><time>2026-04-06T08:54:24.085Z</time></trkpt><trkpt lat="40.9539117" lon="14.3037683"><ele>28.0</ele><time>2026-04-06T08:54:25.085Z</time></trkpt><trkpt lat="40.9538483" lon="14.30372"><ele>28.0</ele><time>2026-04-06T08:54:26.085Z</time></trkpt><trkpt lat="40.9537867" lon="14.303675"><ele>28.0</ele><time>2026-04-06T08:54:27.085Z</time></trkpt><trkpt lat="40.9537217" lon="14.303645"><ele>28.0</ele><time>2026-04-06T08:54:28.085Z</time></trkpt><trkpt lat="40.953655" lon="14.3036217"><ele>28.0</ele><time>2026-04-06T08:54:29.085Z</time></trkpt><trkpt lat="40.9535883" lon="14.303605"><ele>28.0</ele><time>2026-04-06T08:54:30.085Z</time></trkpt><trkpt lat="40.95351" lon="14.303615"><ele>28.0</ele><time>2026-04-06T08:54:31.085Z</time></trkpt><trkpt lat="40.9534417" lon="14.3035983"><ele>28.0</ele><time>2026-04-06T08:54:32.085Z</time></trkpt><trkpt lat="40.9533767" lon="14.3035817"><ele>28.0</ele><time>2026-04-06T08:54:33.085Z</time></trkpt><trkpt lat="40.95325" lon="14.3035667"><ele>28.0</ele><time>2026-04-06T08:54:35.085Z</time></trkpt><trkpt lat="40.9531833" lon="14.3035583"><ele>28.0</ele><time>2026-04-06T08:54:36.086Z</time></trkpt><trkpt lat="40.9531167" lon="14.3035433"><ele>28.0</ele><time>2026-04-06T08:54:37.084Z</time></trkpt><trkpt lat="40.9530517" lon="14.3035217"><ele>28.0</ele><time>2026-04-06T08:54:38.086Z</time></trkpt><trkpt lat="40.952985" lon="14.3034933"><ele>28.0</ele><time>2026-04-06T08:54:39.084Z</time></trkpt><trkpt lat="40.9529217" lon="14.303465"><ele>28.0</ele><time>2026-04-06T08:54:40.085Z</time></trkpt><trkpt lat="40.952855" lon="14.3034383"><ele>28.0</ele><time>2026-04-06T08:54:41.085Z</time></trkpt><trkpt lat="40.9527883" lon="14.3034117"><ele>28.0</ele><time>2026-04-06T08:54:42.087Z</time></trkpt><trkpt lat="40.9527167" lon="14.3033933"><ele>28.0</ele><time>2026-04-06T08:54:43.085Z</time></trkpt><trkpt lat="40.952655" lon="14.303375"><ele>28.0</ele><time>2026-04-06T08:54:44.087Z</time></trkpt><trkpt lat="40.9525883" lon="14.303355"><ele>28.0</ele><time>2026-04-06T08:54:45.085Z</time></trkpt><trkpt lat="40.9525267" lon="14.303335"><ele>28.0</ele><time>2026-04-06T08:54:46.085Z</time></trkpt><trkpt lat="40.9524617" lon="14.303315"><ele>28.0</ele><time>2026-04-06T08:54:47.085Z</time></trkpt><trkpt lat="40.9523967" lon="14.3032917"><ele>28.0</ele><time>2026-04-06T08:54:48.085Z</time></trkpt><trkpt lat="40.9523317" lon="14.3032733"><ele>28.333333333333336</ele><time>2026-04-06T08:54:49.085Z</time></trkpt><trkpt lat="40.9522667" lon="14.3032617"><ele>28.666666666666668</ele><time>2026-04-06T08:54:50.085Z</time></trkpt><trkpt lat="40.9522" lon="14.3032483"><ele>29.0</ele><time>2026-04-06T08:54:51.085Z</time></trkpt><trkpt lat="40.9521383" lon="14.30323"><ele>29.333333333333336</ele><time>2026-04-06T08:54:52.085Z</time></trkpt><trkpt lat="40.9520183" lon="14.303195"><ele>29.666666666666668</ele><time>2026-04-06T08:54:54.085Z</time></trkpt><trkpt lat="40.9519567" lon="14.3031767"><ele>30.0</ele><time>2026-04-06T08:54:55.086Z</time></trkpt><trkpt lat="40.95184" lon="14.30314"><ele>30.0</ele><time>2026-04-06T08:54:57.085Z</time></trkpt><trkpt lat="40.95173" lon="14.303105"><ele>30.0</ele><time>2026-04-06T08:54:59.085Z</time></trkpt><trkpt lat="40.9516233" lon="14.30307"><ele>30.0</ele><time>2026-04-06T08:55:01.085Z</time></trkpt><trkpt lat="40.9515217" lon="14.3030517"><ele>30.0</ele><time>2026-04-06T08:55:03.084Z</time></trkpt><trkpt lat="40.9514317" lon="14.3030217"><ele>30.0</ele><time>2026-04-06T08:55:05.086Z</time></trkpt><trkpt lat="40.951345" lon="14.3029933"><ele>29.8</ele><time>2026-04-06T08:55:07.089Z</time></trkpt><trkpt lat="40.9512583" lon="14.3029583"><ele>29.6</ele><time>2026-04-06T08:55:09.085Z</time></trkpt><trkpt lat="40.9511617" lon="14.3029183"><ele>29.4</ele><time>2026-04-06T08:55:11.1Z</time></trkpt><trkpt lat="40.9510633" lon="14.302885"><ele>29.2</ele><time>2026-04-06T08:55:13.086Z</time></trkpt><trkpt lat="40.9509633" lon="14.3028533"><ele>29.0</ele><time>2026-04-06T08:55:15.086Z</time></trkpt><trkpt lat="40.9508483" lon="14.302805"><ele>29.6</ele><time>2026-04-06T08:55:17.086Z</time></trkpt><trkpt lat="40.9507283" lon="14.3027683"><ele>30.2</ele><time>2026-04-06T08:55:19.085Z</time></trkpt><trkpt lat="40.9506633" lon="14.30276"><ele>30.800000000000004</ele><time>2026-04-06T08:55:20.086Z</time></trkpt><trkpt lat="40.9505417" lon="14.3027383"><ele>31.400000000000002</ele><time>2026-04-06T08:55:22.085Z</time></trkpt><trkpt lat="40.95042" lon="14.3027083"><ele>32.0</ele><time>2026-04-06T08:55:24.086Z</time></trkpt><trkpt lat="40.9502983" lon="14.3026917"><ele>31.999999999999996</ele><time>2026-04-06T08:55:26.085Z</time></trkpt><trkpt lat="40.950235" lon="14.3026667"><ele>32.0</ele><time>2026-04-06T08:55:27.084Z</time></trkpt><trkpt lat="40.9501683" lon="14.3026233"><ele>32.0</ele><time>2026-04-06T08:55:28.086Z</time></trkpt><trkpt lat="40.9500633" lon="14.302595"><ele>32.0</ele><time>2026-04-06T08:55:30.085Z</time></trkpt><trkpt lat="40.949975" lon="14.3025667"><ele>31.999999999999996</ele><time>2026-04-06T08:55:32.085Z</time></trkpt><trkpt lat="40.9498817" lon="14.30254"><ele>32.0</ele><time>2026-04-06T08:55:34.086Z</time></trkpt><trkpt lat="40.9497983" lon="14.3025067"><ele>32.166666666666664</ele><time>2026-04-06T08:55:36.085Z</time></trkpt><trkpt lat="40.9497167" lon="14.3024917"><ele>32.33333333333333</ele><time>2026-04-06T08:55:38.085Z</time></trkpt><trkpt lat="40.949635" lon="14.30246"><ele>32.5</ele><time>2026-04-06T08:55:40.085Z</time></trkpt><trkpt lat="40.9495583" lon="14.3024667"><ele>32.666666666666664</ele><time>2026-04-06T08:55:42.085Z</time></trkpt><trkpt lat="40.9494833" lon="14.3024533"><ele>32.833333333333336</ele><time>2026-04-06T08:55:44.086Z</time></trkpt><trkpt lat="40.9493983" lon="14.3024383"><ele>33.0</ele><time>2026-04-06T08:55:46.086Z</time></trkpt><trkpt lat="40.9493267" lon="14.3024433"><ele>33.0</ele><time>2026-04-06T08:55:48.086Z</time></trkpt><trkpt lat="40.9492567" lon="14.3024467"><ele>33.0</ele><time>2026-04-06T08:55:50.085Z</time></trkpt><trkpt lat="40.9491717" lon="14.3024367"><ele>33.0</ele><time>2026-04-06T08:55:52.085Z</time></trkpt><trkpt lat="40.949085" lon="14.3024417"><ele>33.0</ele><time>2026-04-06T08:55:54.085Z</time></trkpt><trkpt lat="40.949" lon="14.302425"><ele>33.0</ele><time>2026-04-06T08:55:56.085Z</time></trkpt><trkpt lat="40.9489233" lon="14.3024217"><ele>33.0</ele><time>2026-04-06T08:55:58.085Z</time></trkpt><trkpt lat="40.9488517" lon="14.302415"><ele>32.6</ele><time>2026-04-06T08:56:00.085Z</time></trkpt><trkpt lat="40.9487533" lon="14.30241"><ele>32.199999999999996</ele><time>2026-04-06T08:56:02.085Z</time></trkpt><trkpt lat="40.9486433" lon="14.3023883"><ele>31.8</ele><time>2026-04-06T08:56:04.085Z</time></trkpt><trkpt lat="40.948535" lon="14.30238"><ele>31.4</ele><time>2026-04-06T08:56:06.085Z</time></trkpt><trkpt lat="40.9484683" lon="14.3023933"><ele>31.0</ele><time>2026-04-06T08:56:08.086Z</time></trkpt><trkpt lat="40.9483933" lon="14.3023883"><ele>31.166666666666668</ele><time>2026-04-06T08:56:11.085Z</time></trkpt><trkpt lat="40.9483167" lon="14.302385"><ele>31.333333333333336</ele><time>2026-04-06T08:56:13.085Z</time></trkpt><trkpt lat="40.9482433" lon="14.3023467"><ele>31.5</ele><time>2026-04-06T08:56:15.085Z</time></trkpt><trkpt lat="40.9481567" lon="14.302315"><ele>31.666666666666664</ele><time>2026-04-06T08:56:17.085Z</time></trkpt><trkpt lat="40.9480417" lon="14.3022883"><ele>31.833333333333332</ele><time>2026-04-06T08:56:19.085Z</time></trkpt><trkpt lat="40.9479767" lon="14.3022733"><ele>32.0</ele><time>2026-04-06T08:56:20.086Z</time></trkpt><trkpt lat="40.94791" lon="14.302255"><ele>32.0</ele><time>2026-04-06T08:56:21.085Z</time></trkpt><trkpt lat="40.9478417" lon="14.30223"><ele>31.999999999999996</ele><time>2026-04-06T08:56:22.085Z</time></trkpt><trkpt lat="40.94777" lon="14.3022117"><ele>32.0</ele><time>2026-04-06T08:56:23.086Z</time></trkpt><trkpt lat="40.9477" lon="14.3021883"><ele>32.0</ele><time>2026-04-06T08:56:24.085Z</time></trkpt><trkpt lat="40.9476317" lon="14.3021567"><ele>31.999999999999996</ele><time>2026-04-06T08:56:25.085Z</time></trkpt><trkpt lat="40.947565" lon="14.3021217"><ele>32.0</ele><time>2026-04-06T08:56:26.085Z</time></trkpt><trkpt lat="40.9475017" lon="14.3020817"><ele>32.0</ele><time>2026-04-06T08:56:27.085Z</time></trkpt><trkpt lat="40.9474417" lon="14.3020367"><ele>32.14285714285714</ele><time>2026-04-06T08:56:28.085Z</time></trkpt><trkpt lat="40.94739" lon="14.3019833"><ele>32.285714285714285</ele><time>2026-04-06T08:56:29.085Z</time></trkpt><trkpt lat="40.9472933" lon="14.3018817"><ele>32.42857142857143</ele><time>2026-04-06T08:56:31.086Z</time></trkpt><trkpt lat="40.94726" lon="14.3018067"><ele>32.57142857142857</ele><time>2026-04-06T08:56:32.086Z</time></trkpt><trkpt lat="40.9472317" lon="14.3017317"><ele>32.714285714285715</ele><time>2026-04-06T08:56:33.085Z</time></trkpt><trkpt lat="40.94721" lon="14.3016483"><ele>32.857142857142854</ele><time>2026-04-06T08:56:34.085Z</time></trkpt><trkpt lat="40.94719" lon="14.3015667"><ele>33.0</ele><time>2026-04-06T08:56:35.084Z</time></trkpt><trkpt lat="40.9471667" lon="14.3014867"><ele>32.5</ele><time>2026-04-06T08:56:36.086Z</time></trkpt><trkpt lat="40.9471183" lon="14.3013433"><ele>32.0</ele><time>2026-04-06T08:56:38.084Z</time></trkpt><trkpt lat="40.94707" lon="14.3011983"><ele>31.5</ele><time>2026-04-06T08:56:40.084Z</time></trkpt><trkpt lat="40.9470117" lon="14.30106"><ele>31.0</ele><time>2026-04-06T08:56:42.085Z</time></trkpt><trkpt lat="40.9469633" lon="14.300915"><ele>31.0</ele><time>2026-04-06T08:56:44.084Z</time></trkpt><trkpt lat="40.9469233" lon="14.30077"><ele>31.0</ele><time>2026-04-06T08:56:46.084Z</time></trkpt><trkpt lat="40.946875" lon="14.3006267"><ele>31.0</ele><time>2026-04-06T08:56:48.086Z</time></trkpt><trkpt lat="40.9468233" lon="14.3004883"><ele>31.0</ele><time>2026-04-06T08:56:50.085Z</time></trkpt><trkpt lat="40.9467717" lon="14.3003533"><ele>30.75</ele><time>2026-04-06T08:56:52.084Z</time></trkpt><trkpt lat="40.946715" lon="14.30022"><ele>30.5</ele><time>2026-04-06T08:56:54.084Z</time></trkpt><trkpt lat="40.9466583" lon="14.300085"><ele>30.25</ele><time>2026-04-06T08:56:56.083Z</time></trkpt><trkpt lat="40.9466033" lon="14.2999567"><ele>30.0</ele><time>2026-04-06T08:56:58.084Z</time></trkpt><trkpt lat="40.9465467" lon="14.2998283"><ele>30.4</ele><time>2026-04-06T08:57:00.084Z</time></trkpt><trkpt lat="40.9464917" lon="14.2996983"><ele>30.8</ele><time>2026-04-06T08:57:02.085Z</time></trkpt><trkpt lat="40.9464333" lon="14.29957"><ele>31.200000000000003</ele><time>2026-04-06T08:57:04.084Z</time></trkpt><trkpt lat="40.9463583" lon="14.2994667"><ele>31.6</ele><time>2026-04-06T08:57:06.085Z</time></trkpt><trkpt lat="40.946255" lon="14.2994533"><ele>32.0</ele><time>2026-04-06T08:57:08.084Z</time></trkpt><trkpt lat="40.946145" lon="14.2994783"><ele>32.0</ele><time>2026-04-06T08:57:10.086Z</time></trkpt><trkpt lat="40.9460333" lon="14.29947"><ele>32.0</ele><time>2026-04-06T08:57:12.084Z</time></trkpt><trkpt lat="40.9459083" lon="14.299465"><ele>32.0</ele><time>2026-04-06T08:57:14.084Z</time></trkpt><trkpt lat="40.9458433" lon="14.299455"><ele>32.0</ele><time>2026-04-06T08:57:15.085Z</time></trkpt><trkpt lat="40.9457167" lon="14.299435"><ele>32.0</ele><time>2026-04-06T08:57:17.085Z</time></trkpt><trkpt lat="40.94565" lon="14.2994183"><ele>32.14285714285714</ele><time>2026-04-06T08:57:18.084Z</time></trkpt><trkpt lat="40.9455833" lon="14.2993983"><ele>32.285714285714285</ele><time>2026-04-06T08:57:19.084Z</time></trkpt><trkpt lat="40.945515" lon="14.2993767"><ele>32.42857142857143</ele><time>2026-04-06T08:57:20.084Z</time></trkpt><trkpt lat="40.9454433" lon="14.29936"><ele>32.57142857142857</ele><time>2026-04-06T08:57:21.084Z</time></trkpt><trkpt lat="40.9453733" lon="14.299345"><ele>32.714285714285715</ele><time>2026-04-06T08:57:22.084Z</time></trkpt><trkpt lat="40.945305" lon="14.29933"><ele>32.857142857142854</ele><time>2026-04-06T08:57:23.086Z</time></trkpt><trkpt lat="40.945235" lon="14.2993183"><ele>33.0</ele><time>2026-04-06T08:57:24.084Z</time></trkpt><trkpt lat="40.9451633" lon="14.2993083"><ele>33.0</ele><time>2026-04-06T08:57:25.083Z</time></trkpt><trkpt lat="40.945095" lon="14.2993033"><ele>33.0</ele><time>2026-04-06T08:57:26.084Z</time></trkpt><trkpt lat="40.94503" lon="14.299295"><ele>33.0</ele><time>2026-04-06T08:57:27.084Z</time></trkpt><trkpt lat="40.9449633" lon="14.299285"><ele>33.0</ele><time>2026-04-06T08:57:28.084Z</time></trkpt><trkpt lat="40.9448983" lon="14.2992733"><ele>33.0</ele><time>2026-04-06T08:57:29.086Z</time></trkpt><trkpt lat="40.944835" lon="14.2992633"><ele>33.0</ele><time>2026-04-06T08:57:30.085Z</time></trkpt><trkpt lat="40.94471" lon="14.2992483"><ele>33.0</ele><time>2026-04-06T08:57:32.086Z</time></trkpt><trkpt lat="40.9445967" lon="14.299235"><ele>33.0</ele><time>2026-04-06T08:57:34.084Z</time></trkpt><trkpt lat="40.9444883" lon="14.2992083"><ele>33.0</ele><time>2026-04-06T08:57:36.085Z</time></trkpt><trkpt lat="40.9443783" lon="14.2991583"><ele>33.0</ele><time>2026-04-06T08:57:38.084Z</time></trkpt><trkpt lat="40.9442617" lon="14.2991317"><ele>32.833333333333336</ele><time>2026-04-06T08:57:40.085Z</time></trkpt><trkpt lat="40.944195" lon="14.2991267"><ele>32.666666666666664</ele><time>2026-04-06T08:57:41.084Z</time></trkpt><trkpt lat="40.94413" lon="14.29912"><ele>32.5</ele><time>2026-04-06T08:57:42.084Z</time></trkpt><trkpt lat="40.9440633" lon="14.299115"><ele>32.33333333333333</ele><time>2026-04-06T08:57:43.085Z</time></trkpt><trkpt lat="40.944" lon="14.2991067"><ele>32.166666666666664</ele><time>2026-04-06T08:57:44.084Z</time></trkpt><trkpt lat="40.943875" lon="14.2990817"><ele>32.0</ele><time>2026-04-06T08:57:46.084Z</time></trkpt><trkpt lat="40.9437517" lon="14.2990567"><ele>32.0</ele><time>2026-04-06T08:57:48.085Z</time></trkpt><trkpt lat="40.9436883" lon="14.2990433"><ele>31.999999999999996</ele><time>2026-04-06T08:57:49.085Z</time></trkpt><trkpt lat="40.943625" lon="14.2990267"><ele>32.0</ele><time>2026-04-06T08:57:50.085Z</time></trkpt><trkpt lat="40.9435583" lon="14.2990133"><ele>32.0</ele><time>2026-04-06T08:57:51.084Z</time></trkpt><trkpt lat="40.9434933" lon="14.2990017"><ele>31.999999999999996</ele><time>2026-04-06T08:57:52.085Z</time></trkpt><trkpt lat="40.9434267" lon="14.2989983"><ele>32.0</ele><time>2026-04-06T08:57:53.085Z</time></trkpt><trkpt lat="40.9433617" lon="14.2989967"><ele>32.0</ele><time>2026-04-06T08:57:54.085Z</time></trkpt><trkpt lat="40.9432967" lon="14.2989933"><ele>32.285714285714285</ele><time>2026-04-06T08:57:55.084Z</time></trkpt><trkpt lat="40.9432333" lon="14.2989983"><ele>32.57142857142857</ele><time>2026-04-06T08:57:56.086Z</time></trkpt><trkpt lat="40.9431667" lon="14.2990017"><ele>32.857142857142854</ele><time>2026-04-06T08:57:57.084Z</time></trkpt><trkpt lat="40.9431017" lon="14.299"><ele>33.14285714285714</ele><time>2026-04-06T08:57:58.084Z</time></trkpt><trkpt lat="40.9430367" lon="14.2989933"><ele>33.42857142857143</ele><time>2026-04-06T08:57:59.085Z</time></trkpt><trkpt lat="40.94297" lon="14.2989867"><ele>33.71428571428571</ele><time>2026-04-06T08:58:00.085Z</time></trkpt><trkpt lat="40.9429017" lon="14.298985"><ele>34.0</ele><time>2026-04-06T08:58:01.084Z</time></trkpt><trkpt lat="40.9428383" lon="14.29899"><ele>34.0</ele><time>2026-04-06T08:58:02.085Z</time></trkpt><trkpt lat="40.942715" lon="14.29899"><ele>34.0</ele><time>2026-04-06T08:58:04.084Z</time></trkpt><trkpt lat="40.9425967" lon="14.29899"><ele>34.0</ele><time>2026-04-06T08:58:06.084Z</time></trkpt><trkpt lat="40.9424833" lon="14.2989883"><ele>34.0</ele><time>2026-04-06T08:58:08.085Z</time></trkpt><trkpt lat="40.9423767" lon="14.2989983"><ele>34.4</ele><time>2026-04-06T08:58:10.085Z</time></trkpt><trkpt lat="40.9422683" lon="14.2990317"><ele>34.8</ele><time>2026-04-06T08:58:12.085Z</time></trkpt><trkpt lat="40.9421567" lon="14.2990333"><ele>35.2</ele><time>2026-04-06T08:58:14.084Z</time></trkpt><trkpt lat="40.9420683" lon="14.299045"><ele>35.6</ele><time>2026-04-06T08:58:16.083Z</time></trkpt><trkpt lat="40.9419817" lon="14.2990517"><ele>36.0</ele><time>2026-04-06T08:58:18.083Z</time></trkpt><trkpt lat="40.9418683" lon="14.2990517"><ele>36.0</ele><time>2026-04-06T08:58:20.083Z</time></trkpt><trkpt lat="40.941765" lon="14.2990433"><ele>36.0</ele><time>2026-04-06T08:58:22.083Z</time></trkpt><trkpt lat="40.94169" lon="14.29905"><ele>36.0</ele><time>2026-04-06T08:58:24.085Z</time></trkpt><trkpt lat="40.9416283" lon="14.2990733"><ele>36.0</ele><time>2026-04-06T08:58:26.083Z</time></trkpt><trkpt lat="40.9415617" lon="14.299075"><ele>36.0</ele><time>2026-04-06T08:58:28.083Z</time></trkpt><trkpt lat="40.941475" lon="14.2990817"><ele>36.0</ele><time>2026-04-06T08:58:30.083Z</time></trkpt><trkpt lat="40.941385" lon="14.2990967"><ele>36.2</ele><time>2026-04-06T08:58:32.083Z</time></trkpt><trkpt lat="40.9412817" lon="14.2991083"><ele>36.400000000000006</ele><time>2026-04-06T08:58:34.086Z</time></trkpt><trkpt lat="40.941175" lon="14.2991567"><ele>36.6</ele><time>2026-04-06T08:58:36.085Z</time></trkpt><trkpt lat="40.941065" lon="14.2992033"><ele>36.800000000000004</ele><time>2026-04-06T08:58:38.084Z</time></trkpt><trkpt lat="40.9409567" lon="14.2992617"><ele>37.0</ele><time>2026-04-06T08:58:40.084Z</time></trkpt><trkpt lat="40.9408433" lon="14.2993117"><ele>37.0</ele><time>2026-04-06T08:58:42.083Z</time></trkpt><trkpt lat="40.9407283" lon="14.29936"><ele>37.0</ele><time>2026-04-06T08:58:44.084Z</time></trkpt><trkpt lat="40.940615" lon="14.29939"><ele>37.0</ele><time>2026-04-06T08:58:46.083Z</time></trkpt><trkpt lat="40.9404967" lon="14.2994183"><ele>37.0</ele><time>2026-04-06T08:58:48.083Z</time></trkpt><trkpt lat="40.9403783" lon="14.2994533"><ele>37.0</ele><time>2026-04-06T08:58:50.085Z</time></trkpt><trkpt lat="40.9402633" lon="14.2994833"><ele>37.0</ele><time>2026-04-06T08:58:52.084Z</time></trkpt><trkpt lat="40.9401517" lon="14.29951"><ele>37.0</ele><time>2026-04-06T08:58:54.084Z</time></trkpt><trkpt lat="40.9400383" lon="14.299545"><ele>37.0</ele><time>2026-04-06T08:58:56.083Z</time></trkpt><trkpt lat="40.9399283" lon="14.299585"><ele>36.800000000000004</ele><time>2026-04-06T08:58:58.083Z</time></trkpt><trkpt lat="40.9398283" lon="14.2996367"><ele>36.6</ele><time>2026-04-06T08:59:00.083Z</time></trkpt><trkpt lat="40.939725" lon="14.2996933"><ele>36.400000000000006</ele><time>2026-04-06T08:59:02.084Z</time></trkpt><trkpt lat="40.9396283" lon="14.2997533"><ele>36.2</ele><time>2026-04-06T08:59:04.084Z</time></trkpt><trkpt lat="40.93953" lon="14.2998167"><ele>36.0</ele><time>2026-04-06T08:59:06.085Z</time></trkpt><trkpt lat="40.9394317" lon="14.29988"><ele>36.0</ele><time>2026-04-06T08:59:08.086Z</time></trkpt><trkpt lat="40.939325" lon="14.2999367"><ele>36.0</ele><time>2026-04-06T08:59:10.083Z</time></trkpt><trkpt lat="40.9392217" lon="14.3000033"><ele>36.0</ele><time>2026-04-06T08:59:12.084Z</time></trkpt><trkpt lat="40.9391167" lon="14.3000783"><ele>36.0</ele><time>2026-04-06T08:59:14.084Z</time></trkpt><trkpt lat="40.9390083" lon="14.3001517"><ele>36.2</ele><time>2026-04-06T08:59:16.085Z</time></trkpt><trkpt lat="40.9389" lon="14.30023"><ele>36.400000000000006</ele><time>2026-04-06T08:59:18.084Z</time></trkpt><trkpt lat="40.9388433" lon="14.3002667"><ele>36.6</ele><time>2026-04-06T08:59:19.083Z</time></trkpt><trkpt lat="40.9387317" lon="14.3003267"><ele>36.800000000000004</ele><time>2026-04-06T08:59:21.094Z</time></trkpt><trkpt lat="40.938615" lon="14.30039"><ele>37.0</ele><time>2026-04-06T08:59:23.083Z</time></trkpt><trkpt lat="40.938555" lon="14.300425"><ele>37.0</ele><time>2026-04-06T08:59:24.085Z</time></trkpt><trkpt lat="40.9384433" lon="14.3004933"><ele>37.0</ele><time>2026-04-06T08:59:26.084Z</time></trkpt><trkpt lat="40.9383867" lon="14.30053"><ele>37.0</ele><time>2026-04-06T08:59:27.084Z</time></trkpt><trkpt lat="40.9383267" lon="14.3005567"><ele>37.0</ele><time>2026-04-06T08:59:28.083Z</time></trkpt><trkpt lat="40.9382683" lon="14.30059"><ele>37.0</ele><time>2026-04-06T08:59:29.084Z</time></trkpt><trkpt lat="40.9381517" lon="14.3006367"><ele>37.0</ele><time>2026-04-06T08:59:31.085Z</time></trkpt><trkpt lat="40.9380333" lon="14.3006883"><ele>37.142857142857146</ele><time>2026-04-06T08:59:33.083Z</time></trkpt><trkpt lat="40.93797" lon="14.3007117"><ele>37.285714285714285</ele><time>2026-04-06T08:59:34.083Z</time></trkpt><trkpt lat="40.9379083" lon="14.3007333"><ele>37.42857142857143</ele><time>2026-04-06T08:59:35.084Z</time></trkpt><trkpt lat="40.9378417" lon="14.3007533"><ele>37.57142857142857</ele><time>2026-04-06T08:59:36.084Z</time></trkpt><trkpt lat="40.9377783" lon="14.3007717"><ele>37.714285714285715</ele><time>2026-04-06T08:59:37.084Z</time></trkpt><trkpt lat="40.937715" lon="14.3007867"><ele>37.857142857142854</ele><time>2026-04-06T08:59:38.084Z</time></trkpt><trkpt lat="40.9376517" lon="14.3008"><ele>38.0</ele><time>2026-04-06T08:59:39.084Z</time></trkpt><trkpt lat="40.9375883" lon="14.3008117"><ele>37.857142857142854</ele><time>2026-04-06T08:59:40.083Z</time></trkpt><trkpt lat="40.937525" lon="14.300825"><ele>37.714285714285715</ele><time>2026-04-06T08:59:41.083Z</time></trkpt><trkpt lat="40.93746" lon="14.3008383"><ele>37.57142857142857</ele><time>2026-04-06T08:59:42.085Z</time></trkpt><trkpt lat="40.9373967" lon="14.300855"><ele>37.42857142857143</ele><time>2026-04-06T08:59:43.087Z</time></trkpt><trkpt lat="40.9373317" lon="14.300875"><ele>37.285714285714285</ele><time>2026-04-06T08:59:44.084Z</time></trkpt><trkpt lat="40.9372683" lon="14.300895"><ele>37.142857142857146</ele><time>2026-04-06T08:59:45.084Z</time></trkpt><trkpt lat="40.93715" lon="14.30092"><ele>37.0</ele><time>2026-04-06T08:59:47.084Z</time></trkpt><trkpt lat="40.9370267" lon="14.3009467"><ele>37.0</ele><time>2026-04-06T08:59:49.084Z</time></trkpt><trkpt lat="40.9369633" lon="14.3009567"><ele>37.0</ele><time>2026-04-06T08:59:50.083Z</time></trkpt><trkpt lat="40.9369" lon="14.3009683"><ele>37.0</ele><time>2026-04-06T08:59:51.084Z</time></trkpt><trkpt lat="40.9368367" lon="14.3009783"><ele>37.0</ele><time>2026-04-06T08:59:52.083Z</time></trkpt><trkpt lat="40.9367083" lon="14.3009967"><ele>37.0</ele><time>2026-04-06T08:59:54.084Z</time></trkpt><trkpt lat="40.936645" lon="14.30101"><ele>37.0</ele><time>2026-04-06T08:59:55.083Z</time></trkpt><trkpt lat="40.93658" lon="14.301025"><ele>37.0</ele><time>2026-04-06T08:59:56.083Z</time></trkpt><trkpt lat="40.9365167" lon="14.3010367"><ele>37.0</ele><time>2026-04-06T08:59:57.084Z</time></trkpt><trkpt lat="40.9364517" lon="14.3010483"><ele>37.0</ele><time>2026-04-06T08:59:58.084Z</time></trkpt><trkpt lat="40.9363867" lon="14.3010633"><ele>37.0</ele><time>2026-04-06T08:59:59.085Z</time></trkpt><trkpt lat="40.9363233" lon="14.30108"><ele>37.0</ele><time>2026-04-06T09:00:00.083Z</time></trkpt><trkpt lat="40.9362583" lon="14.3010933"><ele>37.0</ele><time>2026-04-06T09:00:01.083Z</time></trkpt><trkpt lat="40.9361933" lon="14.30111"><ele>37.0</ele><time>2026-04-06T09:00:02.083Z</time></trkpt><trkpt lat="40.93613" lon="14.3011283"><ele>37.0</ele><time>2026-04-06T09:00:03.084Z</time></trkpt><trkpt lat="40.9360667" lon="14.301145"><ele>37.0</ele><time>2026-04-06T09:00:04.083Z</time></trkpt><trkpt lat="40.9359433" lon="14.30117"><ele>37.0</ele><time>2026-04-06T09:00:06.083Z</time></trkpt><trkpt lat="40.9358183" lon="14.3011817"><ele>37.0</ele><time>2026-04-06T09:00:08.083Z</time></trkpt><trkpt lat="40.935755" lon="14.30119"><ele>37.0</ele><time>2026-04-06T09:00:09.083Z</time></trkpt><trkpt lat="40.93569" lon="14.301195"><ele>37.0</ele><time>2026-04-06T09:00:10.083Z</time></trkpt><trkpt lat="40.9356233" lon="14.3012"><ele>37.0</ele><time>2026-04-06T09:00:11.083Z</time></trkpt><trkpt lat="40.93556" lon="14.3012017"><ele>37.0</ele><time>2026-04-06T09:00:12.084Z</time></trkpt><trkpt lat="40.9354933" lon="14.3012017"><ele>37.0</ele><time>2026-04-06T09:00:13.084Z</time></trkpt><trkpt lat="40.9354267" lon="14.3011983"><ele>37.0</ele><time>2026-04-06T09:00:14.086Z</time></trkpt><trkpt lat="40.93536" lon="14.301195"><ele>37.0</ele><time>2026-04-06T09:00:15.084Z</time></trkpt><trkpt lat="40.935295" lon="14.3011933"><ele>37.0</ele><time>2026-04-06T09:00:16.083Z</time></trkpt><trkpt lat="40.9352317" lon="14.3011933"><ele>37.0</ele><time>2026-04-06T09:00:17.084Z</time></trkpt><trkpt lat="40.9351683" lon="14.3011933"><ele>37.0</ele><time>2026-04-06T09:00:18.084Z</time></trkpt><trkpt lat="40.935105" lon="14.30119"><ele>37.0</ele><time>2026-04-06T09:00:19.088Z</time></trkpt><trkpt lat="40.93498" lon="14.301185"><ele>37.0</ele><time>2026-04-06T09:00:21.083Z</time></trkpt><trkpt lat="40.9349117" lon="14.3011867"><ele>37.0</ele><time>2026-04-06T09:00:22.085Z</time></trkpt><trkpt lat="40.934845" lon="14.301185"><ele>37.0</ele><time>2026-04-06T09:00:23.084Z</time></trkpt><trkpt lat="40.9347783" lon="14.301185"><ele>37.0</ele><time>2026-04-06T09:00:24.085Z</time></trkpt><trkpt lat="40.93471" lon="14.301185"><ele>37.5</ele><time>2026-04-06T09:00:25.084Z</time></trkpt><trkpt lat="40.9345867" lon="14.30118"><ele>38.0</ele><time>2026-04-06T09:00:27.083Z</time></trkpt><trkpt lat="40.934465" lon="14.30118"><ele>38.5</ele><time>2026-04-06T09:00:29.086Z</time></trkpt><trkpt lat="40.9343433" lon="14.3011783"><ele>39.0</ele><time>2026-04-06T09:00:31.084Z</time></trkpt><trkpt lat="40.9342217" lon="14.3011633"><ele>39.4</ele><time>2026-04-06T09:00:33.088Z</time></trkpt><trkpt lat="40.93411" lon="14.3011667"><ele>39.8</ele><time>2026-04-06T09:00:35.084Z</time></trkpt><trkpt lat="40.9339933" lon="14.30119"><ele>40.199999999999996</ele><time>2026-04-06T09:00:37.084Z</time></trkpt><trkpt lat="40.9339283" lon="14.3012033"><ele>40.599999999999994</ele><time>2026-04-06T09:00:38.084Z</time></trkpt><trkpt lat="40.933805" lon="14.3011967"><ele>41.0</ele><time>2026-04-06T09:00:40.084Z</time></trkpt><trkpt lat="40.9336867" lon="14.3011833"><ele>41.0</ele><time>2026-04-06T09:00:42.087Z</time></trkpt><trkpt lat="40.933565" lon="14.3011867"><ele>41.0</ele><time>2026-04-06T09:00:44.084Z</time></trkpt><trkpt lat="40.933445" lon="14.3011733"><ele>41.0</ele><time>2026-04-06T09:00:46.084Z</time></trkpt><trkpt lat="40.9333283" lon="14.30115"><ele>41.0</ele><time>2026-04-06T09:00:48.085Z</time></trkpt><trkpt lat="40.93321" lon="14.3011533"><ele>40.5</ele><time>2026-04-06T09:00:50.085Z</time></trkpt><trkpt lat="40.9330983" lon="14.3011617"><ele>40.0</ele><time>2026-04-06T09:00:52.084Z</time></trkpt><trkpt lat="40.932985" lon="14.30116"><ele>39.5</ele><time>2026-04-06T09:00:54.083Z</time></trkpt><trkpt lat="40.93287" lon="14.3011517"><ele>39.0</ele><time>2026-04-06T09:00:56.085Z</time></trkpt><trkpt lat="40.93275" lon="14.301145"><ele>39.0</ele><time>2026-04-06T09:00:58.084Z</time></trkpt><trkpt lat="40.9326317" lon="14.30114"><ele>39.0</ele><time>2026-04-06T09:01:00.084Z</time></trkpt><trkpt lat="40.9325133" lon="14.301135"><ele>39.0</ele><time>2026-04-06T09:01:02.085Z</time></trkpt><trkpt lat="40.93245" lon="14.301135"><ele>39.0</ele><time>2026-04-06T09:01:03.084Z</time></trkpt><trkpt lat="40.9323333" lon="14.3011317"><ele>39.0</ele><time>2026-04-06T09:01:05.084Z</time></trkpt><trkpt lat="40.93221" lon="14.3011233"><ele>39.25</ele><time>2026-04-06T09:01:07.083Z</time></trkpt><trkpt lat="40.93209" lon="14.301095"><ele>39.5</ele><time>2026-04-06T09:01:09.084Z</time></trkpt><trkpt lat="40.93198" lon="14.3010467"><ele>39.75</ele><time>2026-04-06T09:01:11.084Z</time></trkpt><trkpt lat="40.931875" lon="14.3009733"><ele>40.0</ele><time>2026-04-06T09:01:13.083Z</time></trkpt><trkpt lat="40.93178" lon="14.3008733"><ele>40.0</ele><time>2026-04-06T09:01:15.084Z</time></trkpt><trkpt lat="40.9317" lon="14.300765"><ele>40.0</ele><time>2026-04-06T09:01:17.083Z</time></trkpt><trkpt lat="40.9316217" lon="14.300645"><ele>40.0</ele><time>2026-04-06T09:01:19.085Z</time></trkpt><trkpt lat="40.9315467" lon="14.3005267"><ele>40.0</ele><time>2026-04-06T09:01:21.085Z</time></trkpt><trkpt lat="40.93147" lon="14.30041"><ele>40.0</ele><time>2026-04-06T09:01:23.084Z</time></trkpt><trkpt lat="40.93139" lon="14.3002917"><ele>40.0</ele><time>2026-04-06T09:01:25.083Z</time></trkpt><trkpt lat="40.9313083" lon="14.3001733"><ele>40.0</ele><time>2026-04-06T09:01:27.084Z</time></trkpt><trkpt lat="40.93123" lon="14.3000583"><ele>40.0</ele><time>2026-04-06T09:01:29.084Z</time></trkpt><trkpt lat="40.93116" lon="14.29994"><ele>40.0</ele><time>2026-04-06T09:01:31.084Z</time></trkpt><trkpt lat="40.9310767" lon="14.299825"><ele>40.0</ele><time>2026-04-06T09:01:33.085Z</time></trkpt><trkpt lat="40.9310033" lon="14.299705"><ele>40.0</ele><time>2026-04-06T09:01:35.084Z</time></trkpt><trkpt lat="40.930925" lon="14.2995883"><ele>40.0</ele><time>2026-04-06T09:01:37.084Z</time></trkpt><trkpt lat="40.9308417" lon="14.2994717"><ele>40.0</ele><time>2026-04-06T09:01:39.084Z</time></trkpt><trkpt lat="40.9307583" lon="14.2993533"><ele>40.0</ele><time>2026-04-06T09:01:41.085Z</time></trkpt><trkpt lat="40.9306767" lon="14.29924"><ele>40.0</ele><time>2026-04-06T09:01:43.086Z</time></trkpt><trkpt lat="40.9305933" lon="14.29913"><ele>40.0</ele><time>2026-04-06T09:01:45.086Z</time></trkpt><trkpt lat="40.9305133" lon="14.2990167"><ele>40.5</ele><time>2026-04-06T09:01:47.084Z</time></trkpt><trkpt lat="40.9304367" lon="14.2989017"><ele>41.0</ele><time>2026-04-06T09:01:49.084Z</time></trkpt><trkpt lat="40.9303583" lon="14.2987833"><ele>41.5</ele><time>2026-04-06T09:01:51.084Z</time></trkpt><trkpt lat="40.93029" lon="14.2986683"><ele>42.0</ele><time>2026-04-06T09:01:53.085Z</time></trkpt><trkpt lat="40.9302467" lon="14.29854"><ele>42.0</ele><time>2026-04-06T09:01:55.085Z</time></trkpt><trkpt lat="40.930205" lon="14.2984167"><ele>42.0</ele><time>2026-04-06T09:01:57.085Z</time></trkpt><trkpt lat="40.93016" lon="14.29829"><ele>42.0</ele><time>2026-04-06T09:01:59.085Z</time></trkpt><trkpt lat="40.9301083" lon="14.2981717"><ele>42.0</ele><time>2026-04-06T09:02:01.084Z</time></trkpt><trkpt lat="40.9300267" lon="14.2981217"><ele>42.0</ele><time>2026-04-06T09:02:03.084Z</time></trkpt><trkpt lat="40.9299333" lon="14.29817"><ele>42.0</ele><time>2026-04-06T09:02:05.086Z</time></trkpt><trkpt lat="40.9298367" lon="14.2982083"><ele>42.0</ele><time>2026-04-06T09:02:07.085Z</time></trkpt><trkpt lat="40.92973" lon="14.2982083"><ele>42.0</ele><time>2026-04-06T09:02:09.085Z</time></trkpt><trkpt lat="40.9296167" lon="14.29821"><ele>42.0</ele><time>2026-04-06T09:02:11.085Z</time></trkpt><trkpt lat="40.9294983" lon="14.2982233"><ele>42.0</ele><time>2026-04-06T09:02:13.087Z</time></trkpt><trkpt lat="40.929385" lon="14.2982383"><ele>42.0</ele><time>2026-04-06T09:02:15.086Z</time></trkpt><trkpt lat="40.92927" lon="14.2982567"><ele>42.0</ele><time>2026-04-06T09:02:17.084Z</time></trkpt><trkpt lat="40.9291567" lon="14.2982717"><ele>42.0</ele><time>2026-04-06T09:02:19.084Z</time></trkpt><trkpt lat="40.9290933" lon="14.2982767"><ele>42.0</ele><time>2026-04-06T09:02:20.085Z</time></trkpt><trkpt lat="40.9289717" lon="14.2982933"><ele>42.0</ele><time>2026-04-06T09:02:22.084Z</time></trkpt><trkpt lat="40.9288667" lon="14.298315"><ele>42.0</ele><time>2026-04-06T09:02:24.085Z</time></trkpt><trkpt lat="40.9287533" lon="14.2983417"><ele>42.0</ele><time>2026-04-06T09:02:26.085Z</time></trkpt><trkpt lat="40.9286367" lon="14.2983533"><ele>42.0</ele><time>2026-04-06T09:02:28.084Z</time></trkpt><trkpt lat="40.9285233" lon="14.2983633"><ele>42.0</ele><time>2026-04-06T09:02:30.084Z</time></trkpt><trkpt lat="40.9284083" lon="14.2983783"><ele>42.2</ele><time>2026-04-06T09:02:32.085Z</time></trkpt><trkpt lat="40.928305" lon="14.2983867"><ele>42.400000000000006</ele><time>2026-04-06T09:02:34.084Z</time></trkpt><trkpt lat="40.9281967" lon="14.298405"><ele>42.599999999999994</ele><time>2026-04-06T09:02:36.085Z</time></trkpt><trkpt lat="40.9280917" lon="14.2984167"><ele>42.8</ele><time>2026-04-06T09:02:38.085Z</time></trkpt><trkpt lat="40.9279833" lon="14.298435"><ele>43.0</ele><time>2026-04-06T09:02:40.086Z</time></trkpt><trkpt lat="40.92788" lon="14.2984517"><ele>43.0</ele><time>2026-04-06T09:02:42.085Z</time></trkpt><trkpt lat="40.9277783" lon="14.2984717"><ele>43.0</ele><time>2026-04-06T09:02:44.088Z</time></trkpt><trkpt lat="40.9276783" lon="14.2984733"><ele>43.0</ele><time>2026-04-06T09:02:46.085Z</time></trkpt><trkpt lat="40.92759" lon="14.2984867"><ele>43.0</ele><time>2026-04-06T09:02:48.086Z</time></trkpt><trkpt lat="40.9275083" lon="14.2984983"><ele>43.0</ele><time>2026-04-06T09:02:50.085Z</time></trkpt><trkpt lat="40.92743" lon="14.2985133"><ele>43.0</ele><time>2026-04-06T09:02:52.085Z</time></trkpt><trkpt lat="40.9273567" lon="14.298495"><ele>43.0</ele><time>2026-04-06T09:02:54.085Z</time></trkpt><trkpt lat="40.9272767" lon="14.2984633"><ele>43.0</ele><time>2026-04-06T09:02:56.085Z</time></trkpt><trkpt lat="40.9272" lon="14.2984783"><ele>43.0</ele><time>2026-04-06T09:02:58.085Z</time></trkpt><trkpt lat="40.927115" lon="14.2985133"><ele>43.0</ele><time>2026-04-06T09:03:00.085Z</time></trkpt><trkpt lat="40.9270183" lon="14.29853"><ele>43.0</ele><time>2026-04-06T09:03:02.085Z</time></trkpt><trkpt lat="40.9269167" lon="14.29854"><ele>43.0</ele><time>2026-04-06T09:03:04.085Z</time></trkpt><trkpt lat="40.9268167" lon="14.2985417"><ele>43.0</ele><time>2026-04-06T09:03:06.085Z</time></trkpt><trkpt lat="40.9267033" lon="14.2985533"><ele>43.0</ele><time>2026-04-06T09:03:08.085Z</time></trkpt><trkpt lat="40.926595" lon="14.2985683"><ele>43.0</ele><time>2026-04-06T09:03:10.085Z</time></trkpt><trkpt lat="40.9264833" lon="14.2985883"><ele>43.0</ele><time>2026-04-06T09:03:12.085Z</time></trkpt><trkpt lat="40.9263783" lon="14.2986"><ele>43.5</ele><time>2026-04-06T09:03:14.085Z</time></trkpt><trkpt lat="40.9262667" lon="14.2985967"><ele>44.0</ele><time>2026-04-06T09:03:16.085Z</time></trkpt><trkpt lat="40.9261567" lon="14.2986017"><ele>44.5</ele><time>2026-04-06T09:03:18.085Z</time></trkpt><trkpt lat="40.9260383" lon="14.2986017"><ele>45.0</ele><time>2026-04-06T09:03:20.085Z</time></trkpt><trkpt lat="40.9259217" lon="14.2985983"><ele>45.5</ele><time>2026-04-06T09:03:22.085Z</time></trkpt><trkpt lat="40.9258033" lon="14.29859"><ele>46.0</ele><time>2026-04-06T09:03:24.086Z</time></trkpt><trkpt lat="40.9256867" lon="14.2985717"><ele>46.5</ele><time>2026-04-06T09:03:26.085Z</time></trkpt><trkpt lat="40.925565" lon="14.2985467"><ele>47.0</ele><time>2026-04-06T09:03:28.086Z</time></trkpt><trkpt lat="40.9254533" lon="14.2985133"><ele>47.0</ele><time>2026-04-06T09:03:30.085Z</time></trkpt><trkpt lat="40.9253917" lon="14.298485"><ele>47.0</ele><time>2026-04-06T09:03:31.085Z</time></trkpt><trkpt lat="40.92528" lon="14.2984417"><ele>47.0</ele><time>2026-04-06T09:03:33.086Z</time></trkpt><trkpt lat="40.925175" lon="14.29839"><ele>47.0</ele><time>2026-04-06T09:03:35.085Z</time></trkpt><trkpt lat="40.925075" lon="14.2983283"><ele>47.0</ele><time>2026-04-06T09:03:37.086Z</time></trkpt><trkpt lat="40.92498" lon="14.2982583"><ele>46.8</ele><time>2026-04-06T09:03:39.086Z</time></trkpt><trkpt lat="40.9248817" lon="14.2981733"><ele>46.6</ele><time>2026-04-06T09:03:41.086Z</time></trkpt><trkpt lat="40.9247933" lon="14.29808"><ele>46.4</ele><time>2026-04-06T09:03:43.086Z</time></trkpt><trkpt lat="40.9247133" lon="14.2979767"><ele>46.199999999999996</ele><time>2026-04-06T09:03:45.086Z</time></trkpt><trkpt lat="40.9246367" lon="14.29788"><ele>46.0</ele><time>2026-04-06T09:03:47.086Z</time></trkpt><trkpt lat="40.9245767" lon="14.2977783"><ele>46.0</ele><time>2026-04-06T09:03:49.085Z</time></trkpt><trkpt lat="40.9245217" lon="14.2976767"><ele>46.0</ele><time>2026-04-06T09:03:51.085Z</time></trkpt><trkpt lat="40.9244633" lon="14.2975833"><ele>46.0</ele><time>2026-04-06T09:03:53.085Z</time></trkpt><trkpt lat="40.9244067" lon="14.2974833"><ele>46.0</ele><time>2026-04-06T09:03:55.086Z</time></trkpt><trkpt lat="40.9243517" lon="14.2973817"><ele>46.0</ele><time>2026-04-06T09:03:57.086Z</time></trkpt><trkpt lat="40.9242933" lon="14.29728"><ele>46.199999999999996</ele><time>2026-04-06T09:03:59.086Z</time></trkpt><trkpt lat="40.9242333" lon="14.2971717"><ele>46.4</ele><time>2026-04-06T09:04:01.086Z</time></trkpt><trkpt lat="40.92417" lon="14.2970533"><ele>46.6</ele><time>2026-04-06T09:04:03.085Z</time></trkpt><trkpt lat="40.9241" lon="14.29693"><ele>46.8</ele><time>2026-04-06T09:04:05.089Z</time></trkpt><trkpt lat="40.92403" lon="14.2968"><ele>47.0</ele><time>2026-04-06T09:04:07.086Z</time></trkpt><trkpt lat="40.9239567" lon="14.2966717"><ele>47.0</ele><time>2026-04-06T09:04:09.085Z</time></trkpt><trkpt lat="40.9238817" lon="14.2965583"><ele>47.0</ele><time>2026-04-06T09:04:11.085Z</time></trkpt><trkpt lat="40.9238117" lon="14.296435"><ele>47.0</ele><time>2026-04-06T09:04:13.085Z</time></trkpt><trkpt lat="40.9237433" lon="14.296305"><ele>47.0</ele><time>2026-04-06T09:04:15.085Z</time></trkpt><trkpt lat="40.9236767" lon="14.2961667"><ele>47.0</ele><time>2026-04-06T09:04:17.086Z</time></trkpt><trkpt lat="40.9236067" lon="14.2960383"><ele>47.0</ele><time>2026-04-06T09:04:19.085Z</time></trkpt><trkpt lat="40.9235433" lon="14.295915"><ele>47.0</ele><time>2026-04-06T09:04:21.088Z</time></trkpt><trkpt lat="40.9234783" lon="14.2957967"><ele>47.0</ele><time>2026-04-06T09:04:23.086Z</time></trkpt><trkpt lat="40.9234033" lon="14.295675"><ele>47.75</ele><time>2026-04-06T09:04:25.085Z</time></trkpt><trkpt lat="40.92333" lon="14.2955417"><ele>48.5</ele><time>2026-04-06T09:04:27.086Z</time></trkpt><trkpt lat="40.923255" lon="14.2954167"><ele>49.25</ele><time>2026-04-06T09:04:29.085Z</time></trkpt><trkpt lat="40.9231917" lon="14.2952917"><ele>50.0</ele><time>2026-04-06T09:04:31.085Z</time></trkpt><trkpt lat="40.9231233" lon="14.29517"><ele>50.0</ele><time>2026-04-06T09:04:33.087Z</time></trkpt><trkpt lat="40.9230517" lon="14.2950483"><ele>50.0</ele><time>2026-04-06T09:04:35.085Z</time></trkpt><trkpt lat="40.9229767" lon="14.2949283"><ele>50.0</ele><time>2026-04-06T09:04:37.085Z</time></trkpt><trkpt lat="40.92291" lon="14.29481"><ele>50.0</ele><time>2026-04-06T09:04:39.085Z</time></trkpt><trkpt lat="40.9228433" lon="14.2947"><ele>50.2</ele><time>2026-04-06T09:04:41.085Z</time></trkpt><trkpt lat="40.9227667" lon="14.2945883"><ele>50.4</ele><time>2026-04-06T09:04:43.087Z</time></trkpt><trkpt lat="40.9226867" lon="14.2944967"><ele>50.599999999999994</ele><time>2026-04-06T09:04:45.086Z</time></trkpt><trkpt lat="40.9225917" lon="14.2944167"><ele>50.8</ele><time>2026-04-06T09:04:47.085Z</time></trkpt><trkpt lat="40.922485" lon="14.2943583"><ele>51.0</ele><time>2026-04-06T09:04:49.085Z</time></trkpt><trkpt lat="40.92238" lon="14.29431"><ele>51.0</ele><time>2026-04-06T09:04:51.087Z</time></trkpt><trkpt lat="40.9222733" lon="14.2942683"><ele>51.0</ele><time>2026-04-06T09:04:53.086Z</time></trkpt><trkpt lat="40.9221667" lon="14.2942167"><ele>51.0</ele><time>2026-04-06T09:04:55.085Z</time></trkpt><trkpt lat="40.922055" lon="14.2941667"><ele>51.0</ele><time>2026-04-06T09:04:57.085Z</time></trkpt><trkpt lat="40.921945" lon="14.2941233"><ele>51.0</ele><time>2026-04-06T09:04:59.086Z</time></trkpt><trkpt lat="40.9218333" lon="14.294075"><ele>51.0</ele><time>2026-04-06T09:05:01.086Z</time></trkpt><trkpt lat="40.9217317" lon="14.2940333"><ele>51.0</ele><time>2026-04-06T09:05:03.086Z</time></trkpt><trkpt lat="40.921625" lon="14.2939867"><ele>51.0</ele><time>2026-04-06T09:05:05.085Z</time></trkpt><trkpt lat="40.9215183" lon="14.2939367"><ele>51.0</ele><time>2026-04-06T09:05:07.086Z</time></trkpt><trkpt lat="40.9214017" lon="14.2939017"><ele>51.25</ele><time>2026-04-06T09:05:09.087Z</time></trkpt><trkpt lat="40.9212867" lon="14.2938633"><ele>51.5</ele><time>2026-04-06T09:05:11.086Z</time></trkpt><trkpt lat="40.9211767" lon="14.2938183"><ele>51.75</ele><time>2026-04-06T09:05:13.085Z</time></trkpt><trkpt lat="40.9210733" lon="14.2937767"><ele>52.0</ele><time>2026-04-06T09:05:15.086Z</time></trkpt><trkpt lat="40.9209717" lon="14.2937267"><ele>52.2</ele><time>2026-04-06T09:05:17.085Z</time></trkpt><trkpt lat="40.92087" lon="14.2936667"><ele>52.400000000000006</ele><time>2026-04-06T09:05:19.085Z</time></trkpt><trkpt lat="40.9207717" lon="14.2935933"><ele>52.599999999999994</ele><time>2026-04-06T09:05:21.087Z</time></trkpt><trkpt lat="40.9206717" lon="14.293505"><ele>52.8</ele><time>2026-04-06T09:05:23.086Z</time></trkpt><trkpt lat="40.9206167" lon="14.29346"><ele>53.0</ele><time>2026-04-06T09:05:24.085Z</time></trkpt><trkpt lat="40.9205617" lon="14.2934117"><ele>53.0</ele><time>2026-04-06T09:05:25.085Z</time></trkpt><trkpt lat="40.9205083" lon="14.2933667"><ele>53.0</ele><time>2026-04-06T09:05:26.085Z</time></trkpt><trkpt lat="40.9203967" lon="14.293285"><ele>53.0</ele><time>2026-04-06T09:05:28.085Z</time></trkpt><trkpt lat="40.92034" lon="14.2932433"><ele>53.0</ele><time>2026-04-06T09:05:29.085Z</time></trkpt><trkpt lat="40.9202467" lon="14.2931417"><ele>53.0</ele><time>2026-04-06T09:05:31.087Z</time></trkpt><trkpt lat="40.920155" lon="14.2930333"><ele>53.0</ele><time>2026-04-06T09:05:33.086Z</time></trkpt><trkpt lat="40.9200683" lon="14.2929367"><ele>53.0</ele><time>2026-04-06T09:05:35.087Z</time></trkpt><trkpt lat="40.919985" lon="14.2928417"><ele>53.0</ele><time>2026-04-06T09:05:37.084Z</time></trkpt><trkpt lat="40.9199083" lon="14.29275"><ele>53.0</ele><time>2026-04-06T09:05:39.085Z</time></trkpt><trkpt lat="40.919825" lon="14.29266"><ele>53.0</ele><time>2026-04-06T09:05:41.084Z</time></trkpt><trkpt lat="40.91974" lon="14.2925717"><ele>53.0</ele><time>2026-04-06T09:05:43.085Z</time></trkpt><trkpt lat="40.91965" lon="14.2924983"><ele>53.0</ele><time>2026-04-06T09:05:45.084Z</time></trkpt><trkpt lat="40.919555" lon="14.2924367"><ele>53.0</ele><time>2026-04-06T09:05:47.087Z</time></trkpt><trkpt lat="40.9194567" lon="14.2923783"><ele>53.0</ele><time>2026-04-06T09:05:49.084Z</time></trkpt><trkpt lat="40.9193567" lon="14.2923267"><ele>53.0</ele><time>2026-04-06T09:05:51.085Z</time></trkpt><trkpt lat="40.919255" lon="14.2922817"><ele>53.4</ele><time>2026-04-06T09:05:53.085Z</time></trkpt><trkpt lat="40.919155" lon="14.2922417"><ele>53.8</ele><time>2026-04-06T09:05:55.084Z</time></trkpt><trkpt lat="40.9190433" lon="14.292195"><ele>54.2</ele><time>2026-04-06T09:05:57.084Z</time></trkpt><trkpt lat="40.9189417" lon="14.2921583"><ele>54.6</ele><time>2026-04-06T09:05:59.084Z</time></trkpt><trkpt lat="40.91883" lon="14.2921083"><ele>55.0</ele><time>2026-04-06T09:06:01.084Z</time></trkpt><trkpt lat="40.9187217" lon="14.29206"><ele>55.0</ele><time>2026-04-06T09:06:03.084Z</time></trkpt><trkpt lat="40.9186117" lon="14.2920183"><ele>55.0</ele><time>2026-04-06T09:06:05.084Z</time></trkpt><trkpt lat="40.9184967" lon="14.2919717"><ele>55.0</ele><time>2026-04-06T09:06:07.084Z</time></trkpt><trkpt lat="40.9183833" lon="14.2919217"><ele>55.0</ele><time>2026-04-06T09:06:09.084Z</time></trkpt><trkpt lat="40.918265" lon="14.2918683"><ele>55.0</ele><time>2026-04-06T09:06:11.084Z</time></trkpt><trkpt lat="40.9181533" lon="14.29182"><ele>55.0</ele><time>2026-04-06T09:06:13.084Z</time></trkpt><trkpt lat="40.9180417" lon="14.291775"><ele>55.0</ele><time>2026-04-06T09:06:15.086Z</time></trkpt><trkpt lat="40.9179383" lon="14.2917167"><ele>55.0</ele><time>2026-04-06T09:06:17.083Z</time></trkpt><trkpt lat="40.9178383" lon="14.2916433"><ele>55.0</ele><time>2026-04-06T09:06:19.084Z</time></trkpt><trkpt lat="40.9177333" lon="14.291565"><ele>55.0</ele><time>2026-04-06T09:06:21.083Z</time></trkpt><trkpt lat="40.9176233" lon="14.2914933"><ele>55.0</ele><time>2026-04-06T09:06:23.085Z</time></trkpt><trkpt lat="40.917515" lon="14.29142"><ele>55.0</ele><time>2026-04-06T09:06:25.084Z</time></trkpt><trkpt lat="40.9174083" lon="14.291355"><ele>55.5</ele><time>2026-04-06T09:06:27.084Z</time></trkpt><trkpt lat="40.917305" lon="14.2912883"><ele>56.0</ele><time>2026-04-06T09:06:29.085Z</time></trkpt><trkpt lat="40.9172017" lon="14.29123"><ele>56.5</ele><time>2026-04-06T09:06:31.082Z</time></trkpt><trkpt lat="40.917095" lon="14.29117"><ele>57.0</ele><time>2026-04-06T09:06:33.083Z</time></trkpt><trkpt lat="40.916985" lon="14.2910983"><ele>57.0</ele><time>2026-04-06T09:06:35.085Z</time></trkpt><trkpt lat="40.9168767" lon="14.2910383"><ele>57.0</ele><time>2026-04-06T09:06:37.084Z</time></trkpt><trkpt lat="40.9167683" lon="14.290975"><ele>57.0</ele><time>2026-04-06T09:06:39.084Z</time></trkpt><trkpt lat="40.916655" lon="14.2909117"><ele>57.0</ele><time>2026-04-06T09:06:41.084Z</time></trkpt><trkpt lat="40.9165967" lon="14.29088"><ele>57.0</ele><time>2026-04-06T09:06:42.083Z</time></trkpt><trkpt lat="40.916485" lon="14.2908117"><ele>57.0</ele><time>2026-04-06T09:06:44.084Z</time></trkpt><trkpt lat="40.916425" lon="14.29078"><ele>57.0</ele><time>2026-04-06T09:06:45.083Z</time></trkpt><trkpt lat="40.916365" lon="14.2907483"><ele>57.0</ele><time>2026-04-06T09:06:46.084Z</time></trkpt><trkpt lat="40.9162483" lon="14.2906883"><ele>57.0</ele><time>2026-04-06T09:06:48.085Z</time></trkpt><trkpt lat="40.9161867" lon="14.290655"><ele>57.0</ele><time>2026-04-06T09:06:49.084Z</time></trkpt><trkpt lat="40.9161267" lon="14.2906233"><ele>57.0</ele><time>2026-04-06T09:06:50.084Z</time></trkpt><trkpt lat="40.9160117" lon="14.2905767"><ele>57.2</ele><time>2026-04-06T09:06:52.083Z</time></trkpt><trkpt lat="40.91595" lon="14.2905583"><ele>57.400000000000006</ele><time>2026-04-06T09:06:53.085Z</time></trkpt><trkpt lat="40.9158267" lon="14.2905333"><ele>57.599999999999994</ele><time>2026-04-06T09:06:55.084Z</time></trkpt><trkpt lat="40.9157633" lon="14.2905183"><ele>57.8</ele><time>2026-04-06T09:06:56.084Z</time></trkpt><trkpt lat="40.9156467" lon="14.2904967"><ele>58.0</ele><time>2026-04-06T09:06:58.083Z</time></trkpt><trkpt lat="40.9155333" lon="14.2904933"><ele>58.25</ele><time>2026-04-06T09:07:00.084Z</time></trkpt><trkpt lat="40.91542" lon="14.2905"><ele>58.5</ele><time>2026-04-06T09:07:02.084Z</time></trkpt><trkpt lat="40.91531" lon="14.290505"><ele>58.75</ele><time>2026-04-06T09:07:04.084Z</time></trkpt><trkpt lat="40.9151917" lon="14.2905117"><ele>59.0</ele><time>2026-04-06T09:07:06.084Z</time></trkpt><trkpt lat="40.9150717" lon="14.2905167"><ele>59.2</ele><time>2026-04-06T09:07:08.083Z</time></trkpt><trkpt lat="40.91495" lon="14.2905183"><ele>59.400000000000006</ele><time>2026-04-06T09:07:10.084Z</time></trkpt><trkpt lat="40.9148283" lon="14.2905233"><ele>59.6</ele><time>2026-04-06T09:07:12.084Z</time></trkpt><trkpt lat="40.914705" lon="14.2905283"><ele>59.8</ele><time>2026-04-06T09:07:14.085Z</time></trkpt><trkpt lat="40.9146417" lon="14.290535"><ele>60.0</ele><time>2026-04-06T09:07:15.084Z</time></trkpt><trkpt lat="40.9145783" lon="14.29054"><ele>60.0</ele><time>2026-04-06T09:07:16.085Z</time></trkpt><trkpt lat="40.9145133" lon="14.290545"><ele>60.0</ele><time>2026-04-06T09:07:17.085Z</time></trkpt><trkpt lat="40.91445" lon="14.2905483"><ele>60.0</ele><time>2026-04-06T09:07:18.084Z</time></trkpt><trkpt lat="40.9143867" lon="14.2905517"><ele>60.0</ele><time>2026-04-06T09:07:19.084Z</time></trkpt><trkpt lat="40.9143217" lon="14.2905533"><ele>60.0</ele><time>2026-04-06T09:07:20.084Z</time></trkpt><trkpt lat="40.9142583" lon="14.290555"><ele>60.0</ele><time>2026-04-06T09:07:21.084Z</time></trkpt><trkpt lat="40.914135" lon="14.2905383"><ele>60.0</ele><time>2026-04-06T09:07:23.083Z</time></trkpt><trkpt lat="40.9140117" lon="14.2905083"><ele>60.5</ele><time>2026-04-06T09:07:25.085Z</time></trkpt><trkpt lat="40.9138917" lon="14.29048"><ele>61.0</ele><time>2026-04-06T09:07:27.087Z</time></trkpt><trkpt lat="40.9137683" lon="14.29045"><ele>61.5</ele><time>2026-04-06T09:07:29.083Z</time></trkpt><trkpt lat="40.9136483" lon="14.2904033"><ele>62.0</ele><time>2026-04-06T09:07:31.085Z</time></trkpt><trkpt lat="40.9135317" lon="14.290355"><ele>62.0</ele><time>2026-04-06T09:07:33.083Z</time></trkpt><trkpt lat="40.9134733" lon="14.2903233"><ele>62.00000000000001</ele><time>2026-04-06T09:07:34.087Z</time></trkpt><trkpt lat="40.91341" lon="14.290295"><ele>62.0</ele><time>2026-04-06T09:07:35.083Z</time></trkpt><trkpt lat="40.9133467" lon="14.2902683"><ele>62.0</ele><time>2026-04-06T09:07:36.089Z</time></trkpt><trkpt lat="40.9132867" lon="14.290235"><ele>62.00000000000001</ele><time>2026-04-06T09:07:37.085Z</time></trkpt><trkpt lat="40.913225" lon="14.2902067"><ele>62.0</ele><time>2026-04-06T09:07:38.084Z</time></trkpt><trkpt lat="40.91316" lon="14.2901833"><ele>62.0</ele><time>2026-04-06T09:07:39.084Z</time></trkpt><trkpt lat="40.9131" lon="14.290155"><ele>62.16666666666667</ele><time>2026-04-06T09:07:40.083Z</time></trkpt><trkpt lat="40.91299" lon="14.2900933"><ele>62.333333333333336</ele><time>2026-04-06T09:07:42.085Z</time></trkpt><trkpt lat="40.9128833" lon="14.2900283"><ele>62.5</ele><time>2026-04-06T09:07:44.085Z</time></trkpt><trkpt lat="40.9128267" lon="14.28999"><ele>62.66666666666667</ele><time>2026-04-06T09:07:45.085Z</time></trkpt><trkpt lat="40.9127683" lon="14.2899483"><ele>62.833333333333336</ele><time>2026-04-06T09:07:46.091Z</time></trkpt><trkpt lat="40.912705" lon="14.2899067"><ele>63.0</ele><time>2026-04-06T09:07:47.085Z</time></trkpt><trkpt lat="40.912645" lon="14.289855"><ele>63.0</ele><time>2026-04-06T09:07:48.085Z</time></trkpt><trkpt lat="40.9125883" lon="14.2898"><ele>63.0</ele><time>2026-04-06T09:07:49.084Z</time></trkpt><trkpt lat="40.9125333" lon="14.28974"><ele>63.0</ele><time>2026-04-06T09:07:50.084Z</time></trkpt><trkpt lat="40.912475" lon="14.2896883"><ele>63.0</ele><time>2026-04-06T09:07:51.084Z</time></trkpt><trkpt lat="40.9124133" lon="14.289635"><ele>63.0</ele><time>2026-04-06T09:07:52.086Z</time></trkpt><trkpt lat="40.9123517" lon="14.2895833"><ele>63.0</ele><time>2026-04-06T09:07:53.089Z</time></trkpt><trkpt lat="40.9122933" lon="14.2895267"><ele>63.0</ele><time>2026-04-06T09:07:54.085Z</time></trkpt><trkpt lat="40.9122317" lon="14.2894583"><ele>63.0</ele><time>2026-04-06T09:07:55.084Z</time></trkpt><trkpt lat="40.91218" lon="14.2894017"><ele>63.0</ele><time>2026-04-06T09:07:56.085Z</time></trkpt><trkpt lat="40.9121267" lon="14.2893517"><ele>63.0</ele><time>2026-04-06T09:07:57.084Z</time></trkpt><trkpt lat="40.912075" lon="14.2893017"><ele>63.0</ele><time>2026-04-06T09:07:58.085Z</time></trkpt><trkpt lat="40.9120267" lon="14.289245"><ele>63.0</ele><time>2026-04-06T09:07:59.085Z</time></trkpt><trkpt lat="40.9119717" lon="14.2891983"><ele>63.0</ele><time>2026-04-06T09:08:00.084Z</time></trkpt><trkpt lat="40.9119133" lon="14.289165"><ele>63.0</ele><time>2026-04-06T09:08:01.085Z</time></trkpt><trkpt lat="40.9118067" lon="14.28909"><ele>63.0</ele><time>2026-04-06T09:08:03.085Z</time></trkpt><trkpt lat="40.911705" lon="14.2890183"><ele>63.0</ele><time>2026-04-06T09:08:05.084Z</time></trkpt><trkpt lat="40.911605" lon="14.28894"><ele>63.0</ele><time>2026-04-06T09:08:07.09Z</time></trkpt><trkpt lat="40.9115017" lon="14.2888667"><ele>63.0</ele><time>2026-04-06T09:08:09.084Z</time></trkpt><trkpt lat="40.9114017" lon="14.28879"><ele>63.0</ele><time>2026-04-06T09:08:11.086Z</time></trkpt><trkpt lat="40.911315" lon="14.2887083"><ele>63.0</ele><time>2026-04-06T09:08:13.084Z</time></trkpt><trkpt lat="40.911215" lon="14.2886333"><ele>63.0</ele><time>2026-04-06T09:08:15.086Z</time></trkpt><trkpt lat="40.9111217" lon="14.28856"><ele>63.0</ele><time>2026-04-06T09:08:17.084Z</time></trkpt><trkpt lat="40.9110333" lon="14.2884783"><ele>63.0</ele><time>2026-04-06T09:08:19.085Z</time></trkpt><trkpt lat="40.910945" lon="14.2884083"><ele>63.0</ele><time>2026-04-06T09:08:21.085Z</time></trkpt><trkpt lat="40.9108617" lon="14.288335"><ele>63.0</ele><time>2026-04-06T09:08:23.085Z</time></trkpt><trkpt lat="40.91078" lon="14.28826"><ele>63.0</ele><time>2026-04-06T09:08:25.084Z</time></trkpt><trkpt lat="40.910695" lon="14.2881917"><ele>63.0</ele><time>2026-04-06T09:08:27.084Z</time></trkpt><trkpt lat="40.9106133" lon="14.2881283"><ele>63.0</ele><time>2026-04-06T09:08:29.086Z</time></trkpt><trkpt lat="40.910535" lon="14.2880633"><ele>63.0</ele><time>2026-04-06T09:08:31.086Z</time></trkpt><trkpt lat="40.9104583" lon="14.2879967"><ele>63.0</ele><time>2026-04-06T09:08:33.083Z</time></trkpt><trkpt lat="40.9103883" lon="14.2879333"><ele>63.0</ele><time>2026-04-06T09:08:35.084Z</time></trkpt><trkpt lat="40.910315" lon="14.2878717"><ele>63.0</ele><time>2026-04-06T09:08:37.083Z</time></trkpt><trkpt lat="40.910235" lon="14.287805"><ele>63.0</ele><time>2026-04-06T09:08:39.086Z</time></trkpt><trkpt lat="40.9101583" lon="14.2877417"><ele>63.0</ele><time>2026-04-06T09:08:41.084Z</time></trkpt><trkpt lat="40.9100767" lon="14.2876767"><ele>64.0</ele><time>2026-04-06T09:08:43.084Z</time></trkpt><trkpt lat="40.9099933" lon="14.2876"><ele>65.0</ele><time>2026-04-06T09:08:45.087Z</time></trkpt><trkpt lat="40.9099083" lon="14.2875317"><ele>66.0</ele><time>2026-04-06T09:08:47.084Z</time></trkpt><trkpt lat="40.9098167" lon="14.2874583"><ele>67.0</ele><time>2026-04-06T09:08:49.083Z</time></trkpt><trkpt lat="40.9097317" lon="14.2873817"><ele>68.0</ele><time>2026-04-06T09:08:51.083Z</time></trkpt><trkpt lat="40.90964" lon="14.28731"><ele>68.2</ele><time>2026-04-06T09:08:53.084Z</time></trkpt><trkpt lat="40.9095517" lon="14.2872333"><ele>68.4</ele><time>2026-04-06T09:08:55.084Z</time></trkpt><trkpt lat="40.9094633" lon="14.2871567"><ele>68.60000000000001</ele><time>2026-04-06T09:08:57.083Z</time></trkpt><trkpt lat="40.909385" lon="14.2870983"><ele>68.8</ele><time>2026-04-06T09:08:59.084Z</time></trkpt><trkpt lat="40.9093083" lon="14.2870433"><ele>69.0</ele><time>2026-04-06T09:09:01.083Z</time></trkpt><trkpt lat="40.9092317" lon="14.2869783"><ele>69.2</ele><time>2026-04-06T09:09:03.084Z</time></trkpt><trkpt lat="40.909155" lon="14.2869183"><ele>69.4</ele><time>2026-04-06T09:09:05.083Z</time></trkpt><trkpt lat="40.909075" lon="14.2868567"><ele>69.6</ele><time>2026-04-06T09:09:07.084Z</time></trkpt><trkpt lat="40.9089817" lon="14.2867967"><ele>69.8</ele><time>2026-04-06T09:09:09.084Z</time></trkpt><trkpt lat="40.9088833" lon="14.28673"><ele>70.0</ele><time>2026-04-06T09:09:11.085Z</time></trkpt><trkpt lat="40.908785" lon="14.286655"><ele>70.0</ele><time>2026-04-06T09:09:13.085Z</time></trkpt><trkpt lat="40.90869" lon="14.2865867"><ele>70.0</ele><time>2026-04-06T09:09:15.083Z</time></trkpt><trkpt lat="40.9086" lon="14.2865117"><ele>70.0</ele><time>2026-04-06T09:09:17.083Z</time></trkpt><trkpt lat="40.908505" lon="14.2864383"><ele>70.0</ele><time>2026-04-06T09:09:19.084Z</time></trkpt><trkpt lat="40.908415" lon="14.2863667"><ele>70.0</ele><time>2026-04-06T09:09:21.084Z</time></trkpt><trkpt lat="40.90833" lon="14.2862983"><ele>69.8</ele><time>2026-04-06T09:09:23.084Z</time></trkpt><trkpt lat="40.9082467" lon="14.28622"><ele>69.6</ele><time>2026-04-06T09:09:25.084Z</time></trkpt><trkpt lat="40.908155" lon="14.2861333"><ele>69.4</ele><time>2026-04-06T09:09:27.084Z</time></trkpt><trkpt lat="40.9080633" lon="14.286045"><ele>69.2</ele><time>2026-04-06T09:09:29.084Z</time></trkpt><trkpt lat="40.90797" lon="14.2859617"><ele>69.0</ele><time>2026-04-06T09:09:31.084Z</time></trkpt><trkpt lat="40.907875" lon="14.285885"><ele>69.0</ele><time>2026-04-06T09:09:33.085Z</time></trkpt><trkpt lat="40.9077833" lon="14.2858033"><ele>69.0</ele><time>2026-04-06T09:09:35.085Z</time></trkpt><trkpt lat="40.90769" lon="14.28572"><ele>69.0</ele><time>2026-04-06T09:09:37.084Z</time></trkpt><trkpt lat="40.9075983" lon="14.2856433"><ele>69.0</ele><time>2026-04-06T09:09:39.084Z</time></trkpt><trkpt lat="40.9075067" lon="14.285565"><ele>69.0</ele><time>2026-04-06T09:09:41.084Z</time></trkpt><trkpt lat="40.90742" lon="14.28549"><ele>70.0</ele><time>2026-04-06T09:09:43.084Z</time></trkpt><trkpt lat="40.9073383" lon="14.285415"><ele>71.0</ele><time>2026-04-06T09:09:45.085Z</time></trkpt><trkpt lat="40.90725" lon="14.2853467"><ele>72.0</ele><time>2026-04-06T09:09:47.084Z</time></trkpt><trkpt lat="40.9071617" lon="14.2852733"><ele>73.0</ele><time>2026-04-06T09:09:49.085Z</time></trkpt><trkpt lat="40.9070767" lon="14.2851983"><ele>74.0</ele><time>2026-04-06T09:09:51.084Z</time></trkpt><trkpt lat="40.907" lon="14.28513"><ele>74.0</ele><time>2026-04-06T09:09:53.087Z</time></trkpt><trkpt lat="40.90692" lon="14.2850533"><ele>74.0</ele><time>2026-04-06T09:09:55.085Z</time></trkpt><trkpt lat="40.9068367" lon="14.2849933"><ele>74.0</ele><time>2026-04-06T09:09:57.084Z</time></trkpt><trkpt lat="40.9067417" lon="14.28495"><ele>74.0</ele><time>2026-04-06T09:09:59.084Z</time></trkpt><trkpt lat="40.90665" lon="14.2849133"><ele>74.0</ele><time>2026-04-06T09:10:01.085Z</time></trkpt><trkpt lat="40.90656" lon="14.2848783"><ele>74.8</ele><time>2026-04-06T09:10:03.085Z</time></trkpt><trkpt lat="40.9064683" lon="14.2848517"><ele>75.60000000000001</ele><time>2026-04-06T09:10:05.084Z</time></trkpt><trkpt lat="40.9063667" lon="14.284825"><ele>76.4</ele><time>2026-04-06T09:10:07.085Z</time></trkpt><trkpt lat="40.9062583" lon="14.2848017"><ele>77.2</ele><time>2026-04-06T09:10:09.084Z</time></trkpt><trkpt lat="40.906145" lon="14.28478"><ele>78.0</ele><time>2026-04-06T09:10:11.085Z</time></trkpt><trkpt lat="40.906025" lon="14.2847583"><ele>78.16666666666667</ele><time>2026-04-06T09:10:13.085Z</time></trkpt><trkpt lat="40.9059017" lon="14.2847333"><ele>78.33333333333333</ele><time>2026-04-06T09:10:15.085Z</time></trkpt><trkpt lat="40.905835" lon="14.28473"><ele>78.5</ele><time>2026-04-06T09:10:16.084Z</time></trkpt><trkpt lat="40.9057683" lon="14.2847283"><ele>78.66666666666666</ele><time>2026-04-06T09:10:17.086Z</time></trkpt><trkpt lat="40.9057033" lon="14.2847283"><ele>78.83333333333333</ele><time>2026-04-06T09:10:18.085Z</time></trkpt><trkpt lat="40.90558" lon="14.28474"><ele>79.0</ele><time>2026-04-06T09:10:20.085Z</time></trkpt><trkpt lat="40.905515" lon="14.2847483"><ele>79.0</ele><time>2026-04-06T09:10:21.085Z</time></trkpt><trkpt lat="40.90545" lon="14.2847617"><ele>79.0</ele><time>2026-04-06T09:10:22.084Z</time></trkpt><trkpt lat="40.9053267" lon="14.2847833"><ele>79.0</ele><time>2026-04-06T09:10:24.086Z</time></trkpt><trkpt lat="40.9052183" lon="14.284815"><ele>79.0</ele><time>2026-04-06T09:10:26.085Z</time></trkpt><trkpt lat="40.9051167" lon="14.2848433"><ele>79.0</ele><time>2026-04-06T09:10:28.085Z</time></trkpt><trkpt lat="40.905015" lon="14.284875"><ele>79.0</ele><time>2026-04-06T09:10:30.085Z</time></trkpt><trkpt lat="40.9049167" lon="14.2849"><ele>79.0</ele><time>2026-04-06T09:10:32.085Z</time></trkpt><trkpt lat="40.9048133" lon="14.2849233"><ele>79.0</ele><time>2026-04-06T09:10:34.085Z</time></trkpt><trkpt lat="40.9046917" lon="14.2849667"><ele>79.0</ele><time>2026-04-06T09:10:36.086Z</time></trkpt><trkpt lat="40.9045717" lon="14.285"><ele>79.0</ele><time>2026-04-06T09:10:38.084Z</time></trkpt><trkpt lat="40.9044533" lon="14.28503"><ele>79.0</ele><time>2026-04-06T09:10:40.084Z</time></trkpt><trkpt lat="40.9043383" lon="14.2850567"><ele>79.0</ele><time>2026-04-06T09:10:42.084Z</time></trkpt><trkpt lat="40.9042233" lon="14.285085"><ele>79.0</ele><time>2026-04-06T09:10:44.084Z</time></trkpt><trkpt lat="40.9041133" lon="14.2851133"><ele>79.2</ele><time>2026-04-06T09:10:46.084Z</time></trkpt><trkpt lat="40.9040083" lon="14.28514"><ele>79.4</ele><time>2026-04-06T09:10:48.086Z</time></trkpt><trkpt lat="40.9039117" lon="14.285165"><ele>79.6</ele><time>2026-04-06T09:10:50.085Z</time></trkpt><trkpt lat="40.9038217" lon="14.2851883"><ele>79.8</ele><time>2026-04-06T09:10:52.084Z</time></trkpt><trkpt lat="40.903735" lon="14.2852167"><ele>80.0</ele><time>2026-04-06T09:10:54.084Z</time></trkpt><trkpt lat="40.9036383" lon="14.28525"><ele>80.0</ele><time>2026-04-06T09:10:56.084Z</time></trkpt><trkpt lat="40.9035233" lon="14.2852833"><ele>80.0</ele><time>2026-04-06T09:10:58.084Z</time></trkpt><trkpt lat="40.9034" lon="14.2853183"><ele>80.0</ele><time>2026-04-06T09:11:00.085Z</time></trkpt><trkpt lat="40.9032767" lon="14.285345"><ele>80.0</ele><time>2026-04-06T09:11:02.085Z</time></trkpt><trkpt lat="40.9031567" lon="14.2853617"><ele>80.66666666666667</ele><time>2026-04-06T09:11:04.084Z</time></trkpt><trkpt lat="40.9030383" lon="14.2853917"><ele>81.33333333333334</ele><time>2026-04-06T09:11:06.086Z</time></trkpt><trkpt lat="40.902975" lon="14.285405"><ele>82.0</ele><time>2026-04-06T09:11:07.084Z</time></trkpt><trkpt lat="40.902855" lon="14.2854417"><ele>82.66666666666667</ele><time>2026-04-06T09:11:09.084Z</time></trkpt><trkpt lat="40.90279" lon="14.28545"><ele>83.33333333333333</ele><time>2026-04-06T09:11:10.085Z</time></trkpt><trkpt lat="40.9027283" lon="14.28547"><ele>84.0</ele><time>2026-04-06T09:11:11.084Z</time></trkpt><trkpt lat="40.90261" lon="14.2855017"><ele>84.4</ele><time>2026-04-06T09:11:13.086Z</time></trkpt><trkpt lat="40.9024833" lon="14.285545"><ele>84.80000000000001</ele><time>2026-04-06T09:11:15.086Z</time></trkpt><trkpt lat="40.90242" lon="14.285565"><ele>85.19999999999999</ele><time>2026-04-06T09:11:16.085Z</time></trkpt><trkpt lat="40.9023" lon="14.2855917"><ele>85.6</ele><time>2026-04-06T09:11:18.088Z</time></trkpt><trkpt lat="40.9021817" lon="14.285625"><ele>86.0</ele><time>2026-04-06T09:11:20.084Z</time></trkpt><trkpt lat="40.9020667" lon="14.2856467"><ele>86.0</ele><time>2026-04-06T09:11:22.088Z</time></trkpt><trkpt lat="40.9019483" lon="14.28567"><ele>86.0</ele><time>2026-04-06T09:11:24.084Z</time></trkpt><trkpt lat="40.9018867" lon="14.2856933"><ele>86.0</ele><time>2026-04-06T09:11:25.086Z</time></trkpt><trkpt lat="40.90177" lon="14.2857183"><ele>86.0</ele><time>2026-04-06T09:11:27.085Z</time></trkpt><trkpt lat="40.901655" lon="14.2857267"><ele>86.0</ele><time>2026-04-06T09:11:29.087Z</time></trkpt><trkpt lat="40.9015383" lon="14.2857267"><ele>85.85714285714286</ele><time>2026-04-06T09:11:31.084Z</time></trkpt><trkpt lat="40.9014717" lon="14.285735"><ele>85.71428571428572</ele><time>2026-04-06T09:11:32.084Z</time></trkpt><trkpt lat="40.9014017" lon="14.2857533"><ele>85.57142857142858</ele><time>2026-04-06T09:11:33.085Z</time></trkpt><trkpt lat="40.9013367" lon="14.2857733"><ele>85.42857142857143</ele><time>2026-04-06T09:11:34.084Z</time></trkpt><trkpt lat="40.90127" lon="14.285795"><ele>85.28571428571428</ele><time>2026-04-06T09:11:35.085Z</time></trkpt><trkpt lat="40.9012033" lon="14.28582"><ele>85.14285714285715</ele><time>2026-04-06T09:11:36.084Z</time></trkpt><trkpt lat="40.9011317" lon="14.2858533"><ele>85.0</ele><time>2026-04-06T09:11:37.086Z</time></trkpt><trkpt lat="40.9010567" lon="14.2858867"><ele>85.0</ele><time>2026-04-06T09:11:38.084Z</time></trkpt><trkpt lat="40.9009867" lon="14.2859083"><ele>85.0</ele><time>2026-04-06T09:11:39.087Z</time></trkpt><trkpt lat="40.90092" lon="14.2859383"><ele>85.0</ele><time>2026-04-06T09:11:40.087Z</time></trkpt><trkpt lat="40.900855" lon="14.2859683"><ele>85.0</ele><time>2026-04-06T09:11:41.088Z</time></trkpt><trkpt lat="40.900735" lon="14.2860133"><ele>85.0</ele><time>2026-04-06T09:11:43.084Z</time></trkpt><trkpt lat="40.90061" lon="14.2860583"><ele>85.16666666666666</ele><time>2026-04-06T09:11:45.085Z</time></trkpt><trkpt lat="40.9004867" lon="14.286065"><ele>85.33333333333333</ele><time>2026-04-06T09:11:47.086Z</time></trkpt><trkpt lat="40.90041" lon="14.286075"><ele>85.5</ele><time>2026-04-06T09:11:48.085Z</time></trkpt><trkpt lat="40.9003317" lon="14.286075"><ele>85.66666666666667</ele><time>2026-04-06T09:11:49.085Z</time></trkpt><trkpt lat="40.9002633" lon="14.2860717"><ele>85.83333333333334</ele><time>2026-04-06T09:11:50.084Z</time></trkpt><trkpt lat="40.900195" lon="14.2860517"><ele>86.0</ele><time>2026-04-06T09:11:51.084Z</time></trkpt><trkpt lat="40.9001233" lon="14.2860367"><ele>85.71428571428572</ele><time>2026-04-06T09:11:52.084Z</time></trkpt><trkpt lat="40.900055" lon="14.28601"><ele>85.42857142857143</ele><time>2026-04-06T09:11:53.086Z</time></trkpt><trkpt lat="40.8999867" lon="14.2859833"><ele>85.14285714285714</ele><time>2026-04-06T09:11:54.084Z</time></trkpt><trkpt lat="40.8999233" lon="14.2859417"><ele>84.85714285714286</ele><time>2026-04-06T09:11:55.084Z</time></trkpt><trkpt lat="40.899855" lon="14.2859"><ele>84.57142857142857</ele><time>2026-04-06T09:11:56.085Z</time></trkpt><trkpt lat="40.8998" lon="14.28584"><ele>84.28571428571429</ele><time>2026-04-06T09:11:57.084Z</time></trkpt><trkpt lat="40.8997367" lon="14.2857967"><ele>84.0</ele><time>2026-04-06T09:11:58.085Z</time></trkpt><trkpt lat="40.89967" lon="14.285755"><ele>84.0</ele><time>2026-04-06T09:11:59.084Z</time></trkpt><trkpt lat="40.899605" lon="14.2857083"><ele>84.0</ele><time>2026-04-06T09:12:00.084Z</time></trkpt><trkpt lat="40.89954" lon="14.285665"><ele>84.0</ele><time>2026-04-06T09:12:01.084Z</time></trkpt><trkpt lat="40.8994783" lon="14.2856267"><ele>84.0</ele><time>2026-04-06T09:12:02.085Z</time></trkpt><trkpt lat="40.8994167" lon="14.28559"><ele>84.0</ele><time>2026-04-06T09:12:03.084Z</time></trkpt><trkpt lat="40.8993533" lon="14.2855617"><ele>84.0</ele><time>2026-04-06T09:12:04.084Z</time></trkpt><trkpt lat="40.8992933" lon="14.2855317"><ele>84.0</ele><time>2026-04-06T09:12:05.085Z</time></trkpt><trkpt lat="40.8992367" lon="14.285495"><ele>83.80000000000001</ele><time>2026-04-06T09:12:06.084Z</time></trkpt><trkpt lat="40.8991783" lon="14.2854633"><ele>83.60000000000001</ele><time>2026-04-06T09:12:07.084Z</time></trkpt><trkpt lat="40.8990633" lon="14.2853967"><ele>83.4</ele><time>2026-04-06T09:12:09.085Z</time></trkpt><trkpt lat="40.899" lon="14.2853717"><ele>83.2</ele><time>2026-04-06T09:12:10.085Z</time></trkpt><trkpt lat="40.89888" lon="14.2853217"><ele>83.0</ele><time>2026-04-06T09:12:12.084Z</time></trkpt><trkpt lat="40.8987633" lon="14.2852633"><ele>83.0</ele><time>2026-04-06T09:12:14.087Z</time></trkpt><trkpt lat="40.898705" lon="14.28523"><ele>83.0</ele><time>2026-04-06T09:12:15.084Z</time></trkpt><trkpt lat="40.8986017" lon="14.2851533"><ele>83.0</ele><time>2026-04-06T09:12:17.086Z</time></trkpt><trkpt lat="40.89852" lon="14.2850617"><ele>83.0</ele><time>2026-04-06T09:12:19.086Z</time></trkpt><trkpt lat="40.898435" lon="14.2849933"><ele>83.0</ele><time>2026-04-06T09:12:21.084Z</time></trkpt><trkpt lat="40.898355" lon="14.28497"><ele>82.5</ele><time>2026-04-06T09:12:23.086Z</time></trkpt><trkpt lat="40.8982917" lon="14.28505"><ele>82.0</ele><time>2026-04-06T09:12:25.086Z</time></trkpt><trkpt lat="40.8982567" lon="14.2851733"><ele>81.5</ele><time>2026-04-06T09:12:27.086Z</time></trkpt><trkpt lat="40.8982567" lon="14.2853233"><ele>81.0</ele><time>2026-04-06T09:12:29.084Z</time></trkpt><trkpt lat="40.898265" lon="14.28541"><ele>80.5</ele><time>2026-04-06T09:12:30.084Z</time></trkpt><trkpt lat="40.8982717" lon="14.2854983"><ele>80.0</ele><time>2026-04-06T09:12:31.083Z</time></trkpt><trkpt lat="40.8982833" lon="14.2855917"><ele>80.5</ele><time>2026-04-06T09:12:32.085Z</time></trkpt><trkpt lat="40.8982917" lon="14.28569"><ele>81.0</ele><time>2026-04-06T09:12:33.09Z</time></trkpt><trkpt lat="40.8982883" lon="14.2857883"><ele>81.5</ele><time>2026-04-06T09:12:34.083Z</time></trkpt><trkpt lat="40.8982933" lon="14.2858883"><ele>82.0</ele><time>2026-04-06T09:12:35.084Z</time></trkpt><trkpt lat="40.898305" lon="14.2859883"><ele>82.5</ele><time>2026-04-06T09:12:36.083Z</time></trkpt><trkpt lat="40.8983117" lon="14.2860917"><ele>83.0</ele><time>2026-04-06T09:12:37.083Z</time></trkpt><trkpt lat="40.8983383" lon="14.2861833"><ele>83.0</ele><time>2026-04-06T09:12:38.085Z</time></trkpt><trkpt lat="40.8983567" lon="14.2862717"><ele>83.0</ele><time>2026-04-06T09:12:39.083Z</time></trkpt><trkpt lat="40.8983833" lon="14.286375"><ele>83.0</ele><time>2026-04-06T09:12:40.084Z</time></trkpt><trkpt lat="40.898405" lon="14.2864667"><ele>83.0</ele><time>2026-04-06T09:12:41.084Z</time></trkpt><trkpt lat="40.8984233" lon="14.2865567"><ele>83.0</ele><time>2026-04-06T09:12:42.084Z</time></trkpt><trkpt lat="40.8984367" lon="14.2866433"><ele>83.0</ele><time>2026-04-06T09:12:43.083Z</time></trkpt><trkpt lat="40.8984417" lon="14.2867267"><ele>83.0</ele><time>2026-04-06T09:12:44.085Z</time></trkpt><trkpt lat="40.8984467" lon="14.2868133"><ele>82.80000000000001</ele><time>2026-04-06T09:12:45.083Z</time></trkpt><trkpt lat="40.8984317" lon="14.2869517"><ele>82.6</ele><time>2026-04-06T09:12:47.083Z</time></trkpt><trkpt lat="40.8983883" lon="14.287045"><ele>82.4</ele><time>2026-04-06T09:12:49.083Z</time></trkpt><trkpt lat="40.8983167" lon="14.2870783"><ele>82.19999999999999</ele><time>2026-04-06T09:12:51.083Z</time></trkpt><trkpt lat="40.8982267" lon="14.2870267"><ele>82.0</ele><time>2026-04-06T09:12:53.083Z</time></trkpt><trkpt lat="40.898135" lon="14.2869383"><ele>82.0</ele><time>2026-04-06T09:12:55.085Z</time></trkpt><trkpt lat="40.89806" lon="14.28688"><ele>82.0</ele><time>2026-04-06T09:12:56.083Z</time></trkpt><trkpt lat="40.8979333" lon="14.2868583"><ele>82.0</ele><time>2026-04-06T09:12:58.084Z</time></trkpt><trkpt lat="40.8978667" lon="14.2868367"><ele>82.0</ele><time>2026-04-06T09:12:59.085Z</time></trkpt><trkpt lat="40.8977967" lon="14.2868167"><ele>82.0</ele><time>2026-04-06T09:13:00.083Z</time></trkpt><trkpt lat="40.897725" lon="14.2867983"><ele>82.0</ele><time>2026-04-06T09:13:01.086Z</time></trkpt><trkpt lat="40.8976533" lon="14.286785"><ele>82.0</ele><time>2026-04-06T09:13:02.084Z</time></trkpt><trkpt lat="40.8975867" lon="14.286765"><ele>82.0</ele><time>2026-04-06T09:13:03.085Z</time></trkpt><trkpt lat="40.8975217" lon="14.2867433"><ele>82.0</ele><time>2026-04-06T09:13:04.084Z</time></trkpt><trkpt lat="40.8974067" lon="14.2866967"><ele>82.0</ele><time>2026-04-06T09:13:06.083Z</time></trkpt><trkpt lat="40.8972983" lon="14.2866567"><ele>82.0</ele><time>2026-04-06T09:13:08.084Z</time></trkpt><trkpt lat="40.89719" lon="14.2866167"><ele>81.75</ele><time>2026-04-06T09:13:10.084Z</time></trkpt><trkpt lat="40.8970767" lon="14.286595"><ele>81.5</ele><time>2026-04-06T09:13:12.084Z</time></trkpt><trkpt lat="40.8969733" lon="14.2865717"><ele>81.25</ele><time>2026-04-06T09:13:14.083Z</time></trkpt><trkpt lat="40.8968683" lon="14.286525"><ele>81.0</ele><time>2026-04-06T09:13:16.084Z</time></trkpt><trkpt lat="40.8967517" lon="14.286485"><ele>81.0</ele><time>2026-04-06T09:13:18.084Z</time></trkpt><trkpt lat="40.8966283" lon="14.2864583"><ele>81.0</ele><time>2026-04-06T09:13:20.084Z</time></trkpt><trkpt lat="40.896525" lon="14.2863933"><ele>81.0</ele><time>2026-04-06T09:13:22.085Z</time></trkpt><trkpt lat="40.896405" lon="14.286355"><ele>81.0</ele><time>2026-04-06T09:13:24.083Z</time></trkpt><trkpt lat="40.8963" lon="14.2863117"><ele>80.8</ele><time>2026-04-06T09:13:26.085Z</time></trkpt><trkpt lat="40.8961867" lon="14.2862917"><ele>80.6</ele><time>2026-04-06T09:13:28.085Z</time></trkpt><trkpt lat="40.8960683" lon="14.2862717"><ele>80.4</ele><time>2026-04-06T09:13:30.09Z</time></trkpt><trkpt lat="40.8960033" lon="14.2862633"><ele>80.2</ele><time>2026-04-06T09:13:31.084Z</time></trkpt><trkpt lat="40.8959383" lon="14.2862567"><ele>80.0</ele><time>2026-04-06T09:13:32.085Z</time></trkpt><trkpt lat="40.895815" lon="14.2862367"><ele>79.5</ele><time>2026-04-06T09:13:34.085Z</time></trkpt><trkpt lat="40.8956917" lon="14.286225"><ele>79.0</ele><time>2026-04-06T09:13:36.087Z</time></trkpt><trkpt lat="40.8955783" lon="14.2862183"><ele>78.5</ele><time>2026-04-06T09:13:38.084Z</time></trkpt><trkpt lat="40.89547" lon="14.2862067"><ele>78.0</ele><time>2026-04-06T09:13:40.086Z</time></trkpt><trkpt lat="40.8953617" lon="14.2862117"><ele>78.0</ele><time>2026-04-06T09:13:42.085Z</time></trkpt><trkpt lat="40.8952533" lon="14.28621"><ele>78.0</ele><time>2026-04-06T09:13:44.084Z</time></trkpt><trkpt lat="40.8951333" lon="14.286205"><ele>78.0</ele><time>2026-04-06T09:13:46.083Z</time></trkpt><trkpt lat="40.8950283" lon="14.2861967"><ele>78.0</ele><time>2026-04-06T09:13:48.084Z</time></trkpt><trkpt lat="40.89493" lon="14.2861833"><ele>78.0</ele><time>2026-04-06T09:13:50.085Z</time></trkpt><trkpt lat="40.8948383" lon="14.2861733"><ele>78.4</ele><time>2026-04-06T09:13:52.083Z</time></trkpt><trkpt lat="40.89476" lon="14.28614"><ele>78.8</ele><time>2026-04-06T09:13:54.084Z</time></trkpt><trkpt lat="40.8946517" lon="14.28612"><ele>79.2</ele><time>2026-04-06T09:13:56.084Z</time></trkpt><trkpt lat="40.8945417" lon="14.28611"><ele>79.6</ele><time>2026-04-06T09:13:58.083Z</time></trkpt><trkpt lat="40.8944767" lon="14.2861233"><ele>80.0</ele><time>2026-04-06T09:13:59.083Z</time></trkpt><trkpt lat="40.894375" lon="14.2861133"><ele>80.0</ele><time>2026-04-06T09:14:01.083Z</time></trkpt><trkpt lat="40.8942783" lon="14.2861033"><ele>80.0</ele><time>2026-04-06T09:14:03.084Z</time></trkpt><trkpt lat="40.8941917" lon="14.286085"><ele>80.0</ele><time>2026-04-06T09:14:05.085Z</time></trkpt><trkpt lat="40.894105" lon="14.2860733"><ele>80.0</ele><time>2026-04-06T09:14:07.087Z</time></trkpt><trkpt lat="40.8940133" lon="14.2860483"><ele>80.0</ele><time>2026-04-06T09:14:09.085Z</time></trkpt><trkpt lat="40.89392" lon="14.2860317"><ele>80.16666666666667</ele><time>2026-04-06T09:14:11.085Z</time></trkpt><trkpt lat="40.8938417" lon="14.2860083"><ele>80.33333333333334</ele><time>2026-04-06T09:14:13.085Z</time></trkpt><trkpt lat="40.8937533" lon="14.28599"><ele>80.5</ele><time>2026-04-06T09:14:15.084Z</time></trkpt><trkpt lat="40.8936617" lon="14.2859817"><ele>80.66666666666667</ele><time>2026-04-06T09:14:17.084Z</time></trkpt><trkpt lat="40.893595" lon="14.2859533"><ele>80.83333333333333</ele><time>2026-04-06T09:14:19.084Z</time></trkpt><trkpt lat="40.8935133" lon="14.285945"><ele>81.0</ele><time>2026-04-06T09:14:21.085Z</time></trkpt><trkpt lat="40.89345" lon="14.2860217"><ele>81.0</ele><time>2026-04-06T09:14:23.084Z</time></trkpt><trkpt lat="40.89344" lon="14.2861733"><ele>81.0</ele><time>2026-04-06T09:14:25.086Z</time></trkpt><trkpt lat="40.89346" lon="14.2862567"><ele>81.0</ele><time>2026-04-06T09:14:26.087Z</time></trkpt><trkpt lat="40.89348" lon="14.2863367"><ele>81.0</ele><time>2026-04-06T09:14:27.086Z</time></trkpt><trkpt lat="40.8934983" lon="14.2864183"><ele>81.0</ele><time>2026-04-06T09:14:28.086Z</time></trkpt><trkpt lat="40.8935217" lon="14.2865017"><ele>81.0</ele><time>2026-04-06T09:14:29.084Z</time></trkpt><trkpt lat="40.89355" lon="14.2865783"><ele>81.0</ele><time>2026-04-06T09:14:30.086Z</time></trkpt><trkpt lat="40.8935967" lon="14.28673"><ele>80.8</ele><time>2026-04-06T09:14:32.086Z</time></trkpt><trkpt lat="40.8936417" lon="14.2868767"><ele>80.6</ele><time>2026-04-06T09:14:34.084Z</time></trkpt><trkpt lat="40.8936933" lon="14.28702"><ele>80.4</ele><time>2026-04-06T09:14:36.085Z</time></trkpt><trkpt lat="40.89373" lon="14.2871567"><ele>80.2</ele><time>2026-04-06T09:14:38.084Z</time></trkpt><trkpt lat="40.8937683" lon="14.2872767"><ele>80.0</ele><time>2026-04-06T09:14:40.084Z</time></trkpt><trkpt lat="40.8937917" lon="14.287405"><ele>80.0</ele><time>2026-04-06T09:14:42.084Z</time></trkpt><trkpt lat="40.8938167" lon="14.28753"><ele>80.0</ele><time>2026-04-06T09:14:44.085Z</time></trkpt><trkpt lat="40.8938517" lon="14.28764"><ele>80.0</ele><time>2026-04-06T09:14:46.088Z</time></trkpt><trkpt lat="40.8938783" lon="14.28774"><ele>80.0</ele><time>2026-04-06T09:14:48.097Z</time></trkpt><trkpt lat="40.8937403" lon="14.2878329"><ele>80.0</ele><time>2026-04-06T09:15:51.401Z</time></trkpt></trkseg></trk></gpx>